<?xml version="1.0" encoding="UTF-8" standalone="no" ?>
<gpx xmlns="http://www.topografix.com/GPX/1/1" xmlns:xsi="http://www.w3.org/2001/XMLSchema-instance" xsi:schemaLocation="http://www.topografix.com/GPX/1/1 http://www.topografix.com/GPX/1/1/gpx.xsd" version="1.1" creator="VisuGPX - https://www.visugpx.com">
  <metadata>
    <name>Diagonale du Doubs 2015</name>
    <desc><![CDATA[-]]></desc>
  </metadata>
  <trk>
    <name><![CDATA[Diagonale du Doubs 2015_1]]></name>
    <trkseg>
      <trkpt lat="47.156" lon="6.26937">
        <ele>648</ele>
        <time>2015-04-26T06:29:59.000Z</time>
      </trkpt>
      <trkpt lat="47.1557" lon="6.26927">
        <ele>648</ele>
        <time>2015-04-26T06:30:48.000Z</time>
      </trkpt>
      <trkpt lat="47.15561" lon="6.26918">
        <ele>650</ele>
        <time>2015-04-26T06:30:50.000Z</time>
      </trkpt>
      <trkpt lat="47.15546" lon="6.26905">
        <ele>648</ele>
        <time>2015-04-26T06:30:54.000Z</time>
      </trkpt>
      <trkpt lat="47.15533" lon="6.26896">
        <ele>645</ele>
        <time>2015-04-26T06:30:58.000Z</time>
      </trkpt>
      <trkpt lat="47.15524" lon="6.26889">
        <ele>650</ele>
        <time>2015-04-26T06:31:02.000Z</time>
      </trkpt>
      <trkpt lat="47.15524" lon="6.26889">
        <ele>650</ele>
        <time>2015-04-26T06:31:04.000Z</time>
      </trkpt>
      <trkpt lat="47.15524" lon="6.26889">
        <ele>650</ele>
        <time>2015-04-26T06:31:06.000Z</time>
      </trkpt>
      <trkpt lat="47.15524" lon="6.26889">
        <ele>650</ele>
        <time>2015-04-26T06:31:08.000Z</time>
      </trkpt>
      <trkpt lat="47.15524" lon="6.26889">
        <ele>650</ele>
        <time>2015-04-26T06:31:10.000Z</time>
      </trkpt>
      <trkpt lat="47.15524" lon="6.26889">
        <ele>650</ele>
        <time>2015-04-26T06:31:12.000Z</time>
      </trkpt>
      <trkpt lat="47.15524" lon="6.26889">
        <ele>650</ele>
        <time>2015-04-26T06:31:14.000Z</time>
      </trkpt>
      <trkpt lat="47.15506" lon="6.26866">
        <ele>652</ele>
        <time>2015-04-26T06:31:20.000Z</time>
      </trkpt>
      <trkpt lat="47.15497" lon="6.26851">
        <ele>655</ele>
        <time>2015-04-26T06:31:22.000Z</time>
      </trkpt>
      <trkpt lat="47.1549" lon="6.2684">
        <ele>657</ele>
        <time>2015-04-26T06:31:24.000Z</time>
      </trkpt>
      <trkpt lat="47.15486" lon="6.2683">
        <ele>657</ele>
        <time>2015-04-26T06:31:26.000Z</time>
      </trkpt>
      <trkpt lat="47.15483" lon="6.26819">
        <ele>658</ele>
        <time>2015-04-26T06:31:28.000Z</time>
      </trkpt>
      <trkpt lat="47.1548" lon="6.268">
        <ele>657</ele>
        <time>2015-04-26T06:31:30.000Z</time>
      </trkpt>
      <trkpt lat="47.1548" lon="6.268">
        <ele>657</ele>
        <time>2015-04-26T06:31:32.000Z</time>
      </trkpt>
      <trkpt lat="47.1548" lon="6.268">
        <ele>657</ele>
        <time>2015-04-26T06:31:34.000Z</time>
      </trkpt>
      <trkpt lat="47.1548" lon="6.268">
        <ele>657</ele>
        <time>2015-04-26T06:31:36.000Z</time>
      </trkpt>
      <trkpt lat="47.1548" lon="6.268">
        <ele>657</ele>
        <time>2015-04-26T06:31:38.000Z</time>
      </trkpt>
      <trkpt lat="47.1548" lon="6.268">
        <ele>657</ele>
        <time>2015-04-26T06:31:40.000Z</time>
      </trkpt>
      <trkpt lat="47.1548" lon="6.268">
        <ele>657</ele>
        <time>2015-04-26T06:31:42.000Z</time>
      </trkpt>
      <trkpt lat="47.15438" lon="6.2676">
        <ele>654</ele>
        <time>2015-04-26T06:31:50.000Z</time>
      </trkpt>
      <trkpt lat="47.15431" lon="6.26748">
        <ele>654</ele>
        <time>2015-04-26T06:31:54.000Z</time>
      </trkpt>
      <trkpt lat="47.15434" lon="6.26735">
        <ele>657</ele>
        <time>2015-04-26T06:31:58.000Z</time>
      </trkpt>
      <trkpt lat="47.1544" lon="6.26718">
        <ele>658</ele>
        <time>2015-04-26T06:32:02.000Z</time>
      </trkpt>
      <trkpt lat="47.15442" lon="6.26704">
        <ele>656</ele>
        <time>2015-04-26T06:32:06.000Z</time>
      </trkpt>
      <trkpt lat="47.15439" lon="6.26687">
        <ele>656</ele>
        <time>2015-04-26T06:32:10.000Z</time>
      </trkpt>
      <trkpt lat="47.15434" lon="6.26658">
        <ele>657</ele>
        <time>2015-04-26T06:32:14.000Z</time>
      </trkpt>
      <trkpt lat="47.15429" lon="6.26644">
        <ele>657</ele>
        <time>2015-04-26T06:32:16.000Z</time>
      </trkpt>
      <trkpt lat="47.15424" lon="6.26628">
        <ele>655</ele>
        <time>2015-04-26T06:32:18.000Z</time>
      </trkpt>
      <trkpt lat="47.15422" lon="6.2661">
        <ele>655</ele>
        <time>2015-04-26T06:32:20.000Z</time>
      </trkpt>
      <trkpt lat="47.15416" lon="6.26595">
        <ele>656</ele>
        <time>2015-04-26T06:32:22.000Z</time>
      </trkpt>
      <trkpt lat="47.15409" lon="6.26581">
        <ele>659</ele>
        <time>2015-04-26T06:32:24.000Z</time>
      </trkpt>
      <trkpt lat="47.15406" lon="6.26565">
        <ele>660</ele>
        <time>2015-04-26T06:32:26.000Z</time>
      </trkpt>
      <trkpt lat="47.15403" lon="6.26548">
        <ele>659</ele>
        <time>2015-04-26T06:32:28.000Z</time>
      </trkpt>
      <trkpt lat="47.154" lon="6.26531">
        <ele>655</ele>
        <time>2015-04-26T06:32:30.000Z</time>
      </trkpt>
      <trkpt lat="47.15399" lon="6.26513">
        <ele>654</ele>
        <time>2015-04-26T06:32:32.000Z</time>
      </trkpt>
      <trkpt lat="47.15398" lon="6.26496">
        <ele>653</ele>
        <time>2015-04-26T06:32:34.000Z</time>
      </trkpt>
      <trkpt lat="47.15398" lon="6.26479">
        <ele>654</ele>
        <time>2015-04-26T06:32:36.000Z</time>
      </trkpt>
      <trkpt lat="47.15398" lon="6.26463">
        <ele>655</ele>
        <time>2015-04-26T06:32:38.000Z</time>
      </trkpt>
      <trkpt lat="47.15401" lon="6.26445">
        <ele>655</ele>
        <time>2015-04-26T06:32:40.000Z</time>
      </trkpt>
      <trkpt lat="47.15403" lon="6.26425">
        <ele>651</ele>
        <time>2015-04-26T06:32:42.000Z</time>
      </trkpt>
      <trkpt lat="47.15406" lon="6.26404">
        <ele>649</ele>
        <time>2015-04-26T06:32:44.000Z</time>
      </trkpt>
      <trkpt lat="47.15408" lon="6.26383">
        <ele>651</ele>
        <time>2015-04-26T06:32:46.000Z</time>
      </trkpt>
      <trkpt lat="47.15409" lon="6.26363">
        <ele>651</ele>
        <time>2015-04-26T06:32:48.000Z</time>
      </trkpt>
      <trkpt lat="47.15412" lon="6.26341">
        <ele>650</ele>
        <time>2015-04-26T06:32:50.000Z</time>
      </trkpt>
      <trkpt lat="47.15414" lon="6.26319">
        <ele>653</ele>
        <time>2015-04-26T06:32:52.000Z</time>
      </trkpt>
      <trkpt lat="47.15417" lon="6.26297">
        <ele>657</ele>
        <time>2015-04-26T06:32:54.000Z</time>
      </trkpt>
      <trkpt lat="47.15419" lon="6.26275">
        <ele>658</ele>
        <time>2015-04-26T06:32:56.000Z</time>
      </trkpt>
      <trkpt lat="47.15421" lon="6.26253">
        <ele>655</ele>
        <time>2015-04-26T06:32:58.000Z</time>
      </trkpt>
      <trkpt lat="47.15423" lon="6.26229">
        <ele>653</ele>
        <time>2015-04-26T06:33:00.000Z</time>
      </trkpt>
      <trkpt lat="47.15426" lon="6.26205">
        <ele>652</ele>
        <time>2015-04-26T06:33:02.000Z</time>
      </trkpt>
      <trkpt lat="47.15428" lon="6.26184">
        <ele>651</ele>
        <time>2015-04-26T06:33:04.000Z</time>
      </trkpt>
      <trkpt lat="47.1543" lon="6.26165">
        <ele>654</ele>
        <time>2015-04-26T06:33:06.000Z</time>
      </trkpt>
      <trkpt lat="47.15432" lon="6.26148">
        <ele>652</ele>
        <time>2015-04-26T06:33:08.000Z</time>
      </trkpt>
      <trkpt lat="47.15434" lon="6.26134">
        <ele>651</ele>
        <time>2015-04-26T06:33:10.000Z</time>
      </trkpt>
      <trkpt lat="47.15434" lon="6.26134">
        <ele>651</ele>
        <time>2015-04-26T06:33:12.000Z</time>
      </trkpt>
      <trkpt lat="47.15434" lon="6.26134">
        <ele>651</ele>
        <time>2015-04-26T06:33:14.000Z</time>
      </trkpt>
      <trkpt lat="47.15434" lon="6.26134">
        <ele>651</ele>
        <time>2015-04-26T06:33:16.000Z</time>
      </trkpt>
      <trkpt lat="47.15434" lon="6.26134">
        <ele>651</ele>
        <time>2015-04-26T06:33:18.000Z</time>
      </trkpt>
      <trkpt lat="47.15434" lon="6.26134">
        <ele>651</ele>
        <time>2015-04-26T06:33:24.000Z</time>
      </trkpt>
      <trkpt lat="47.15434" lon="6.26134">
        <ele>651</ele>
        <time>2015-04-26T06:33:26.000Z</time>
      </trkpt>
      <trkpt lat="47.15434" lon="6.26134">
        <ele>651</ele>
        <time>2015-04-26T06:33:28.000Z</time>
      </trkpt>
      <trkpt lat="47.15416" lon="6.2598">
        <ele>657</ele>
        <time>2015-04-26T06:33:34.000Z</time>
      </trkpt>
      <trkpt lat="47.1541" lon="6.25969">
        <ele>656</ele>
        <time>2015-04-26T06:33:36.000Z</time>
      </trkpt>
      <trkpt lat="47.1541" lon="6.25969">
        <ele>656</ele>
        <time>2015-04-26T06:33:38.000Z</time>
      </trkpt>
      <trkpt lat="47.1541" lon="6.25969">
        <ele>656</ele>
        <time>2015-04-26T06:33:40.000Z</time>
      </trkpt>
      <trkpt lat="47.1541" lon="6.25969">
        <ele>656</ele>
        <time>2015-04-26T06:33:42.000Z</time>
      </trkpt>
      <trkpt lat="47.1541" lon="6.25969">
        <ele>656</ele>
        <time>2015-04-26T06:33:44.000Z</time>
      </trkpt>
      <trkpt lat="47.15395" lon="6.25933">
        <ele>654</ele>
        <time>2015-04-26T06:33:48.000Z</time>
      </trkpt>
      <trkpt lat="47.15387" lon="6.25906">
        <ele>653</ele>
        <time>2015-04-26T06:33:50.000Z</time>
      </trkpt>
      <trkpt lat="47.15383" lon="6.25884">
        <ele>653</ele>
        <time>2015-04-26T06:33:52.000Z</time>
      </trkpt>
      <trkpt lat="47.15379" lon="6.25864">
        <ele>651</ele>
        <time>2015-04-26T06:33:54.000Z</time>
      </trkpt>
      <trkpt lat="47.15377" lon="6.25844">
        <ele>653</ele>
        <time>2015-04-26T06:33:56.000Z</time>
      </trkpt>
      <trkpt lat="47.15372" lon="6.258">
        <ele>657</ele>
        <time>2015-04-26T06:33:58.000Z</time>
      </trkpt>
      <trkpt lat="47.15369" lon="6.25776">
        <ele>655</ele>
        <time>2015-04-26T06:34:00.000Z</time>
      </trkpt>
      <trkpt lat="47.15364" lon="6.25754">
        <ele>652</ele>
        <time>2015-04-26T06:34:02.000Z</time>
      </trkpt>
      <trkpt lat="47.15359" lon="6.25731">
        <ele>649</ele>
        <time>2015-04-26T06:34:04.000Z</time>
      </trkpt>
      <trkpt lat="47.15353" lon="6.2571">
        <ele>650</ele>
        <time>2015-04-26T06:34:06.000Z</time>
      </trkpt>
      <trkpt lat="47.15347" lon="6.25686">
        <ele>650</ele>
        <time>2015-04-26T06:34:08.000Z</time>
      </trkpt>
      <trkpt lat="47.15341" lon="6.25661">
        <ele>649</ele>
        <time>2015-04-26T06:34:10.000Z</time>
      </trkpt>
      <trkpt lat="47.15335" lon="6.25638">
        <ele>647</ele>
        <time>2015-04-26T06:34:12.000Z</time>
      </trkpt>
      <trkpt lat="47.15329" lon="6.25613">
        <ele>648</ele>
        <time>2015-04-26T06:34:14.000Z</time>
      </trkpt>
      <trkpt lat="47.15323" lon="6.25589">
        <ele>649</ele>
        <time>2015-04-26T06:34:16.000Z</time>
      </trkpt>
      <trkpt lat="47.15317" lon="6.25564">
        <ele>646</ele>
        <time>2015-04-26T06:34:18.000Z</time>
      </trkpt>
      <trkpt lat="47.15311" lon="6.2554">
        <ele>645</ele>
        <time>2015-04-26T06:34:20.000Z</time>
      </trkpt>
      <trkpt lat="47.15306" lon="6.25516">
        <ele>643</ele>
        <time>2015-04-26T06:34:22.000Z</time>
      </trkpt>
      <trkpt lat="47.15301" lon="6.25494">
        <ele>641</ele>
        <time>2015-04-26T06:34:24.000Z</time>
      </trkpt>
      <trkpt lat="47.15297" lon="6.25474">
        <ele>639</ele>
        <time>2015-04-26T06:34:26.000Z</time>
      </trkpt>
      <trkpt lat="47.15293" lon="6.25456">
        <ele>638</ele>
        <time>2015-04-26T06:34:28.000Z</time>
      </trkpt>
      <trkpt lat="47.15287" lon="6.25442">
        <ele>639</ele>
        <time>2015-04-26T06:34:30.000Z</time>
      </trkpt>
      <trkpt lat="47.15287" lon="6.25442">
        <ele>639</ele>
        <time>2015-04-26T06:34:32.000Z</time>
      </trkpt>
      <trkpt lat="47.15287" lon="6.25442">
        <ele>639</ele>
        <time>2015-04-26T06:34:34.000Z</time>
      </trkpt>
      <trkpt lat="47.15287" lon="6.25442">
        <ele>639</ele>
        <time>2015-04-26T06:34:36.000Z</time>
      </trkpt>
      <trkpt lat="47.15287" lon="6.25442">
        <ele>639</ele>
        <time>2015-04-26T06:34:38.000Z</time>
      </trkpt>
      <trkpt lat="47.15287" lon="6.25442">
        <ele>639</ele>
        <time>2015-04-26T06:34:40.000Z</time>
      </trkpt>
      <trkpt lat="47.15287" lon="6.25442">
        <ele>639</ele>
        <time>2015-04-26T06:34:44.000Z</time>
      </trkpt>
      <trkpt lat="47.15287" lon="6.25442">
        <ele>639</ele>
        <time>2015-04-26T06:34:46.000Z</time>
      </trkpt>
      <trkpt lat="47.15287" lon="6.25442">
        <ele>639</ele>
        <time>2015-04-26T06:34:48.000Z</time>
      </trkpt>
      <trkpt lat="47.15287" lon="6.25442">
        <ele>639</ele>
        <time>2015-04-26T06:34:50.000Z</time>
      </trkpt>
      <trkpt lat="47.15287" lon="6.25442">
        <ele>639</ele>
        <time>2015-04-26T06:34:52.000Z</time>
      </trkpt>
      <trkpt lat="47.15287" lon="6.25442">
        <ele>639</ele>
        <time>2015-04-26T06:34:54.000Z</time>
      </trkpt>
      <trkpt lat="47.15287" lon="6.25442">
        <ele>639</ele>
        <time>2015-04-26T06:34:56.000Z</time>
      </trkpt>
      <trkpt lat="47.15192" lon="6.255">
        <ele>649</ele>
        <time>2015-04-26T06:35:00.000Z</time>
      </trkpt>
      <trkpt lat="47.15178" lon="6.25489">
        <ele>652</ele>
        <time>2015-04-26T06:35:04.000Z</time>
      </trkpt>
      <trkpt lat="47.15178" lon="6.25489">
        <ele>652</ele>
        <time>2015-04-26T06:35:06.000Z</time>
      </trkpt>
      <trkpt lat="47.15178" lon="6.25489">
        <ele>652</ele>
        <time>2015-04-26T06:35:08.000Z</time>
      </trkpt>
      <trkpt lat="47.1516" lon="6.25471">
        <ele>649</ele>
        <time>2015-04-26T06:35:10.000Z</time>
      </trkpt>
      <trkpt lat="47.15147" lon="6.2546">
        <ele>653</ele>
        <time>2015-04-26T06:35:14.000Z</time>
      </trkpt>
      <trkpt lat="47.15147" lon="6.2546">
        <ele>653</ele>
        <time>2015-04-26T06:35:16.000Z</time>
      </trkpt>
      <trkpt lat="47.15134" lon="6.25444">
        <ele>654</ele>
        <time>2015-04-26T06:35:18.000Z</time>
      </trkpt>
      <trkpt lat="47.1512" lon="6.25425">
        <ele>652</ele>
        <time>2015-04-26T06:35:22.000Z</time>
      </trkpt>
      <trkpt lat="47.15112" lon="6.25414">
        <ele>647</ele>
        <time>2015-04-26T06:35:24.000Z</time>
      </trkpt>
      <trkpt lat="47.15105" lon="6.25405">
        <ele>653</ele>
        <time>2015-04-26T06:35:26.000Z</time>
      </trkpt>
      <trkpt lat="47.15095" lon="6.25393">
        <ele>653</ele>
        <time>2015-04-26T06:35:28.000Z</time>
      </trkpt>
      <trkpt lat="47.15085" lon="6.25382">
        <ele>650</ele>
        <time>2015-04-26T06:35:30.000Z</time>
      </trkpt>
      <trkpt lat="47.15075" lon="6.25371">
        <ele>650</ele>
        <time>2015-04-26T06:35:32.000Z</time>
      </trkpt>
      <trkpt lat="47.15064" lon="6.25361">
        <ele>648</ele>
        <time>2015-04-26T06:35:34.000Z</time>
      </trkpt>
      <trkpt lat="47.15056" lon="6.25351">
        <ele>646</ele>
        <time>2015-04-26T06:35:36.000Z</time>
      </trkpt>
      <trkpt lat="47.15049" lon="6.25339">
        <ele>648</ele>
        <time>2015-04-26T06:35:38.000Z</time>
      </trkpt>
      <trkpt lat="47.15042" lon="6.25322">
        <ele>651</ele>
        <time>2015-04-26T06:35:40.000Z</time>
      </trkpt>
      <trkpt lat="47.15035" lon="6.25303">
        <ele>656</ele>
        <time>2015-04-26T06:35:42.000Z</time>
      </trkpt>
      <trkpt lat="47.15026" lon="6.25279">
        <ele>658</ele>
        <time>2015-04-26T06:35:44.000Z</time>
      </trkpt>
      <trkpt lat="47.15015" lon="6.25254">
        <ele>654</ele>
        <time>2015-04-26T06:35:46.000Z</time>
      </trkpt>
      <trkpt lat="47.15007" lon="6.25238">
        <ele>649</ele>
        <time>2015-04-26T06:35:48.000Z</time>
      </trkpt>
      <trkpt lat="47.14997" lon="6.25226">
        <ele>650</ele>
        <time>2015-04-26T06:35:50.000Z</time>
      </trkpt>
      <trkpt lat="47.14988" lon="6.25215">
        <ele>649</ele>
        <time>2015-04-26T06:35:52.000Z</time>
      </trkpt>
      <trkpt lat="47.14978" lon="6.25202">
        <ele>648</ele>
        <time>2015-04-26T06:35:54.000Z</time>
      </trkpt>
      <trkpt lat="47.14969" lon="6.25188">
        <ele>646</ele>
        <time>2015-04-26T06:35:56.000Z</time>
      </trkpt>
      <trkpt lat="47.1496" lon="6.25173">
        <ele>650</ele>
        <time>2015-04-26T06:35:58.000Z</time>
      </trkpt>
      <trkpt lat="47.14951" lon="6.25157">
        <ele>647</ele>
        <time>2015-04-26T06:36:00.000Z</time>
      </trkpt>
      <trkpt lat="47.14943" lon="6.25141">
        <ele>645</ele>
        <time>2015-04-26T06:36:02.000Z</time>
      </trkpt>
      <trkpt lat="47.1493" lon="6.25129">
        <ele>644</ele>
        <time>2015-04-26T06:36:04.000Z</time>
      </trkpt>
      <trkpt lat="47.14919" lon="6.25121">
        <ele>646</ele>
        <time>2015-04-26T06:36:06.000Z</time>
      </trkpt>
      <trkpt lat="47.14907" lon="6.25115">
        <ele>646</ele>
        <time>2015-04-26T06:36:08.000Z</time>
      </trkpt>
      <trkpt lat="47.14898" lon="6.25106">
        <ele>648</ele>
        <time>2015-04-26T06:36:10.000Z</time>
      </trkpt>
      <trkpt lat="47.1489" lon="6.25096">
        <ele>643</ele>
        <time>2015-04-26T06:36:12.000Z</time>
      </trkpt>
      <trkpt lat="47.1488" lon="6.25085">
        <ele>641</ele>
        <time>2015-04-26T06:36:14.000Z</time>
      </trkpt>
      <trkpt lat="47.14872" lon="6.25073">
        <ele>641</ele>
        <time>2015-04-26T06:36:16.000Z</time>
      </trkpt>
      <trkpt lat="47.14862" lon="6.25062">
        <ele>644</ele>
        <time>2015-04-26T06:36:18.000Z</time>
      </trkpt>
      <trkpt lat="47.14854" lon="6.25049">
        <ele>645</ele>
        <time>2015-04-26T06:36:20.000Z</time>
      </trkpt>
      <trkpt lat="47.14846" lon="6.25036">
        <ele>646</ele>
        <time>2015-04-26T06:36:22.000Z</time>
      </trkpt>
      <trkpt lat="47.14846" lon="6.25036">
        <ele>646</ele>
        <time>2015-04-26T06:36:24.000Z</time>
      </trkpt>
      <trkpt lat="47.14846" lon="6.25036">
        <ele>646</ele>
        <time>2015-04-26T06:36:26.000Z</time>
      </trkpt>
      <trkpt lat="47.14846" lon="6.25036">
        <ele>646</ele>
        <time>2015-04-26T06:36:28.000Z</time>
      </trkpt>
      <trkpt lat="47.14846" lon="6.25036">
        <ele>646</ele>
        <time>2015-04-26T06:36:30.000Z</time>
      </trkpt>
      <trkpt lat="47.14846" lon="6.25036">
        <ele>646</ele>
        <time>2015-04-26T06:36:32.000Z</time>
      </trkpt>
      <trkpt lat="47.14846" lon="6.25036">
        <ele>646</ele>
        <time>2015-04-26T06:36:34.000Z</time>
      </trkpt>
      <trkpt lat="47.14846" lon="6.25036">
        <ele>646</ele>
        <time>2015-04-26T06:36:36.000Z</time>
      </trkpt>
      <trkpt lat="47.14846" lon="6.25036">
        <ele>646</ele>
        <time>2015-04-26T06:36:38.000Z</time>
      </trkpt>
      <trkpt lat="47.14846" lon="6.25036">
        <ele>646</ele>
        <time>2015-04-26T06:36:40.000Z</time>
      </trkpt>
      <trkpt lat="47.14846" lon="6.25036">
        <ele>646</ele>
        <time>2015-04-26T06:36:42.000Z</time>
      </trkpt>
      <trkpt lat="47.14846" lon="6.25036">
        <ele>646</ele>
        <time>2015-04-26T06:36:44.000Z</time>
      </trkpt>
      <trkpt lat="47.14846" lon="6.25036">
        <ele>646</ele>
        <time>2015-04-26T06:36:46.000Z</time>
      </trkpt>
      <trkpt lat="47.14846" lon="6.25036">
        <ele>646</ele>
        <time>2015-04-26T06:36:48.000Z</time>
      </trkpt>
      <trkpt lat="47.14846" lon="6.25036">
        <ele>646</ele>
        <time>2015-04-26T06:36:50.000Z</time>
      </trkpt>
      <trkpt lat="47.14846" lon="6.25036">
        <ele>646</ele>
        <time>2015-04-26T06:36:52.000Z</time>
      </trkpt>
      <trkpt lat="47.14846" lon="6.25036">
        <ele>646</ele>
        <time>2015-04-26T06:36:54.000Z</time>
      </trkpt>
      <trkpt lat="47.14802" lon="6.24943">
        <ele>637</ele>
        <time>2015-04-26T06:37:00.000Z</time>
      </trkpt>
      <trkpt lat="47.14777" lon="6.24894">
        <ele>640</ele>
        <time>2015-04-26T06:37:02.000Z</time>
      </trkpt>
      <trkpt lat="47.14777" lon="6.24894">
        <ele>640</ele>
        <time>2015-04-26T06:37:04.000Z</time>
      </trkpt>
      <trkpt lat="47.14777" lon="6.24894">
        <ele>640</ele>
        <time>2015-04-26T06:37:06.000Z</time>
      </trkpt>
      <trkpt lat="47.14756" lon="6.24864">
        <ele>637</ele>
        <time>2015-04-26T06:37:11.000Z</time>
      </trkpt>
      <trkpt lat="47.14743" lon="6.2485">
        <ele>637</ele>
        <time>2015-04-26T06:37:14.000Z</time>
      </trkpt>
      <trkpt lat="47.14734" lon="6.24844">
        <ele>638</ele>
        <time>2015-04-26T06:37:16.000Z</time>
      </trkpt>
      <trkpt lat="47.14734" lon="6.24844">
        <ele>638</ele>
        <time>2015-04-26T06:37:18.000Z</time>
      </trkpt>
      <trkpt lat="47.14734" lon="6.24844">
        <ele>638</ele>
        <time>2015-04-26T06:37:20.000Z</time>
      </trkpt>
      <trkpt lat="47.14734" lon="6.24844">
        <ele>638</ele>
        <time>2015-04-26T06:37:22.000Z</time>
      </trkpt>
      <trkpt lat="47.14734" lon="6.24844">
        <ele>638</ele>
        <time>2015-04-26T06:37:24.000Z</time>
      </trkpt>
      <trkpt lat="47.14703" lon="6.24846">
        <ele>648</ele>
        <time>2015-04-26T06:37:28.000Z</time>
      </trkpt>
      <trkpt lat="47.14683" lon="6.24849">
        <ele>650</ele>
        <time>2015-04-26T06:37:30.000Z</time>
      </trkpt>
      <trkpt lat="47.14683" lon="6.24849">
        <ele>650</ele>
        <time>2015-04-26T06:37:33.000Z</time>
      </trkpt>
      <trkpt lat="47.14683" lon="6.24849">
        <ele>650</ele>
        <time>2015-04-26T06:37:35.000Z</time>
      </trkpt>
      <trkpt lat="47.14683" lon="6.24849">
        <ele>650</ele>
        <time>2015-04-26T06:37:37.000Z</time>
      </trkpt>
      <trkpt lat="47.14653" lon="6.24862">
        <ele>657</ele>
        <time>2015-04-26T06:37:41.000Z</time>
      </trkpt>
      <trkpt lat="47.14633" lon="6.24871">
        <ele>660</ele>
        <time>2015-04-26T06:37:43.000Z</time>
      </trkpt>
      <trkpt lat="47.14617" lon="6.24877">
        <ele>652</ele>
        <time>2015-04-26T06:37:45.000Z</time>
      </trkpt>
      <trkpt lat="47.146" lon="6.24882">
        <ele>650</ele>
        <time>2015-04-26T06:37:49.000Z</time>
      </trkpt>
      <trkpt lat="47.14587" lon="6.24884">
        <ele>649</ele>
        <time>2015-04-26T06:37:52.000Z</time>
      </trkpt>
      <trkpt lat="47.14564" lon="6.24886">
        <ele>658</ele>
        <time>2015-04-26T06:37:54.000Z</time>
      </trkpt>
      <trkpt lat="47.14564" lon="6.24886">
        <ele>658</ele>
        <time>2015-04-26T06:37:57.000Z</time>
      </trkpt>
      <trkpt lat="47.14541" lon="6.24876">
        <ele>639</ele>
        <time>2015-04-26T06:38:00.000Z</time>
      </trkpt>
      <trkpt lat="47.14532" lon="6.24865">
        <ele>634</ele>
        <time>2015-04-26T06:38:04.000Z</time>
      </trkpt>
      <trkpt lat="47.14532" lon="6.24865">
        <ele>634</ele>
        <time>2015-04-26T06:38:08.000Z</time>
      </trkpt>
      <trkpt lat="47.14513" lon="6.24859">
        <ele>635</ele>
        <time>2015-04-26T06:38:12.000Z</time>
      </trkpt>
      <trkpt lat="47.14505" lon="6.24852">
        <ele>629</ele>
        <time>2015-04-26T06:38:15.000Z</time>
      </trkpt>
      <trkpt lat="47.14495" lon="6.24846">
        <ele>629</ele>
        <time>2015-04-26T06:38:20.000Z</time>
      </trkpt>
      <trkpt lat="47.14495" lon="6.24846">
        <ele>629</ele>
        <time>2015-04-26T06:38:24.000Z</time>
      </trkpt>
      <trkpt lat="47.14495" lon="6.24846">
        <ele>629</ele>
        <time>2015-04-26T06:38:28.000Z</time>
      </trkpt>
      <trkpt lat="47.14459" lon="6.24792">
        <ele>628</ele>
        <time>2015-04-26T06:38:36.000Z</time>
      </trkpt>
      <trkpt lat="47.14448" lon="6.2478">
        <ele>626</ele>
        <time>2015-04-26T06:38:38.000Z</time>
      </trkpt>
      <trkpt lat="47.14437" lon="6.24766">
        <ele>631</ele>
        <time>2015-04-26T06:38:40.000Z</time>
      </trkpt>
      <trkpt lat="47.14428" lon="6.24754">
        <ele>623</ele>
        <time>2015-04-26T06:38:42.000Z</time>
      </trkpt>
      <trkpt lat="47.1442" lon="6.24747">
        <ele>623</ele>
        <time>2015-04-26T06:38:44.000Z</time>
      </trkpt>
      <trkpt lat="47.1442" lon="6.24747">
        <ele>623</ele>
        <time>2015-04-26T06:38:46.000Z</time>
      </trkpt>
      <trkpt lat="47.1442" lon="6.24747">
        <ele>623</ele>
        <time>2015-04-26T06:38:48.000Z</time>
      </trkpt>
      <trkpt lat="47.1437" lon="6.24709">
        <ele>616</ele>
        <time>2015-04-26T06:38:54.000Z</time>
      </trkpt>
      <trkpt lat="47.1436" lon="6.24702">
        <ele>612</ele>
        <time>2015-04-26T06:38:56.000Z</time>
      </trkpt>
      <trkpt lat="47.14354" lon="6.24691">
        <ele>608</ele>
        <time>2015-04-26T06:38:58.000Z</time>
      </trkpt>
      <trkpt lat="47.14354" lon="6.24691">
        <ele>608</ele>
        <time>2015-04-26T06:39:00.000Z</time>
      </trkpt>
      <trkpt lat="47.14354" lon="6.24691">
        <ele>608</ele>
        <time>2015-04-26T06:39:02.000Z</time>
      </trkpt>
      <trkpt lat="47.14354" lon="6.24691">
        <ele>608</ele>
        <time>2015-04-26T06:39:05.000Z</time>
      </trkpt>
      <trkpt lat="47.14324" lon="6.24663">
        <ele>605</ele>
        <time>2015-04-26T06:39:10.000Z</time>
      </trkpt>
      <trkpt lat="47.14317" lon="6.24651">
        <ele>613</ele>
        <time>2015-04-26T06:39:14.000Z</time>
      </trkpt>
      <trkpt lat="47.14317" lon="6.24651">
        <ele>613</ele>
        <time>2015-04-26T06:39:19.000Z</time>
      </trkpt>
      <trkpt lat="47.14308" lon="6.2463">
        <ele>610</ele>
        <time>2015-04-26T06:39:22.000Z</time>
      </trkpt>
      <trkpt lat="47.14308" lon="6.2463">
        <ele>610</ele>
        <time>2015-04-26T06:39:25.000Z</time>
      </trkpt>
      <trkpt lat="47.143" lon="6.24609">
        <ele>609</ele>
        <time>2015-04-26T06:39:31.000Z</time>
      </trkpt>
      <trkpt lat="47.14294" lon="6.24597">
        <ele>605</ele>
        <time>2015-04-26T06:39:36.000Z</time>
      </trkpt>
      <trkpt lat="47.14285" lon="6.24588">
        <ele>609</ele>
        <time>2015-04-26T06:39:42.000Z</time>
      </trkpt>
      <trkpt lat="47.14279" lon="6.24577">
        <ele>606</ele>
        <time>2015-04-26T06:39:47.000Z</time>
      </trkpt>
      <trkpt lat="47.14279" lon="6.24577">
        <ele>606</ele>
        <time>2015-04-26T06:39:49.000Z</time>
      </trkpt>
      <trkpt lat="47.14279" lon="6.24577">
        <ele>606</ele>
        <time>2015-04-26T06:39:51.000Z</time>
      </trkpt>
      <trkpt lat="47.14269" lon="6.2456">
        <ele>613</ele>
        <time>2015-04-26T06:39:54.000Z</time>
      </trkpt>
      <trkpt lat="47.14259" lon="6.24535">
        <ele>618</ele>
        <time>2015-04-26T06:40:03.000Z</time>
      </trkpt>
      <trkpt lat="47.14252" lon="6.24523">
        <ele>622</ele>
        <time>2015-04-26T06:40:09.000Z</time>
      </trkpt>
      <trkpt lat="47.14244" lon="6.24512">
        <ele>620</ele>
        <time>2015-04-26T06:40:14.000Z</time>
      </trkpt>
      <trkpt lat="47.14238" lon="6.24501">
        <ele>616</ele>
        <time>2015-04-26T06:40:19.000Z</time>
      </trkpt>
      <trkpt lat="47.1423" lon="6.24487">
        <ele>626</ele>
        <time>2015-04-26T06:40:24.000Z</time>
      </trkpt>
      <trkpt lat="47.14224" lon="6.24473">
        <ele>623</ele>
        <time>2015-04-26T06:40:28.000Z</time>
      </trkpt>
      <trkpt lat="47.14224" lon="6.24473">
        <ele>623</ele>
        <time>2015-04-26T06:40:30.000Z</time>
      </trkpt>
      <trkpt lat="47.14224" lon="6.24473">
        <ele>623</ele>
        <time>2015-04-26T06:40:33.000Z</time>
      </trkpt>
      <trkpt lat="47.14208" lon="6.24452">
        <ele>626</ele>
        <time>2015-04-26T06:40:36.000Z</time>
      </trkpt>
      <trkpt lat="47.14208" lon="6.24452">
        <ele>626</ele>
        <time>2015-04-26T06:40:38.000Z</time>
      </trkpt>
      <trkpt lat="47.14208" lon="6.24452">
        <ele>626</ele>
        <time>2015-04-26T06:40:40.000Z</time>
      </trkpt>
      <trkpt lat="47.14208" lon="6.24452">
        <ele>626</ele>
        <time>2015-04-26T06:40:42.000Z</time>
      </trkpt>
      <trkpt lat="47.14183" lon="6.24424">
        <ele>637</ele>
        <time>2015-04-26T06:40:47.000Z</time>
      </trkpt>
      <trkpt lat="47.14173" lon="6.24421">
        <ele>637</ele>
        <time>2015-04-26T06:40:53.000Z</time>
      </trkpt>
      <trkpt lat="47.14173" lon="6.24421">
        <ele>637</ele>
        <time>2015-04-26T06:40:55.000Z</time>
      </trkpt>
      <trkpt lat="47.14173" lon="6.24421">
        <ele>637</ele>
        <time>2015-04-26T06:40:57.000Z</time>
      </trkpt>
      <trkpt lat="47.14173" lon="6.24421">
        <ele>637</ele>
        <time>2015-04-26T06:40:59.000Z</time>
      </trkpt>
      <trkpt lat="47.14173" lon="6.24421">
        <ele>637</ele>
        <time>2015-04-26T06:41:01.000Z</time>
      </trkpt>
      <trkpt lat="47.14173" lon="6.24421">
        <ele>637</ele>
        <time>2015-04-26T06:41:03.000Z</time>
      </trkpt>
      <trkpt lat="47.14145" lon="6.24422">
        <ele>629</ele>
        <time>2015-04-26T06:41:09.000Z</time>
      </trkpt>
      <trkpt lat="47.14127" lon="6.24424">
        <ele>626</ele>
        <time>2015-04-26T06:41:11.000Z</time>
      </trkpt>
      <trkpt lat="47.14113" lon="6.24425">
        <ele>624</ele>
        <time>2015-04-26T06:41:13.000Z</time>
      </trkpt>
      <trkpt lat="47.14103" lon="6.24426">
        <ele>623</ele>
        <time>2015-04-26T06:41:15.000Z</time>
      </trkpt>
      <trkpt lat="47.14103" lon="6.24426">
        <ele>623</ele>
        <time>2015-04-26T06:41:17.000Z</time>
      </trkpt>
      <trkpt lat="47.14103" lon="6.24426">
        <ele>623</ele>
        <time>2015-04-26T06:41:19.000Z</time>
      </trkpt>
      <trkpt lat="47.14103" lon="6.24426">
        <ele>623</ele>
        <time>2015-04-26T06:41:21.000Z</time>
      </trkpt>
      <trkpt lat="47.14103" lon="6.24426">
        <ele>623</ele>
        <time>2015-04-26T06:41:23.000Z</time>
      </trkpt>
      <trkpt lat="47.14077" lon="6.24432">
        <ele>620</ele>
        <time>2015-04-26T06:41:29.000Z</time>
      </trkpt>
      <trkpt lat="47.1406" lon="6.24437">
        <ele>619</ele>
        <time>2015-04-26T06:41:31.000Z</time>
      </trkpt>
      <trkpt lat="47.1406" lon="6.24437">
        <ele>619</ele>
        <time>2015-04-26T06:41:33.000Z</time>
      </trkpt>
      <trkpt lat="47.1406" lon="6.24437">
        <ele>619</ele>
        <time>2015-04-26T06:41:37.000Z</time>
      </trkpt>
      <trkpt lat="47.14039" lon="6.24442">
        <ele>619</ele>
        <time>2015-04-26T06:41:39.000Z</time>
      </trkpt>
      <trkpt lat="47.14026" lon="6.24446">
        <ele>623</ele>
        <time>2015-04-26T06:41:41.000Z</time>
      </trkpt>
      <trkpt lat="47.14016" lon="6.24449">
        <ele>625</ele>
        <time>2015-04-26T06:41:43.000Z</time>
      </trkpt>
      <trkpt lat="47.14007" lon="6.24451">
        <ele>628</ele>
        <time>2015-04-26T06:41:45.000Z</time>
      </trkpt>
      <trkpt lat="47.13998" lon="6.24453">
        <ele>625</ele>
        <time>2015-04-26T06:41:47.000Z</time>
      </trkpt>
      <trkpt lat="47.13979" lon="6.24455">
        <ele>626</ele>
        <time>2015-04-26T06:41:49.000Z</time>
      </trkpt>
      <trkpt lat="47.13969" lon="6.24456">
        <ele>627</ele>
        <time>2015-04-26T06:41:51.000Z</time>
      </trkpt>
      <trkpt lat="47.13959" lon="6.24457">
        <ele>628</ele>
        <time>2015-04-26T06:41:53.000Z</time>
      </trkpt>
      <trkpt lat="47.13948" lon="6.24458">
        <ele>626</ele>
        <time>2015-04-26T06:41:55.000Z</time>
      </trkpt>
      <trkpt lat="47.13939" lon="6.24459">
        <ele>621</ele>
        <time>2015-04-26T06:41:57.000Z</time>
      </trkpt>
      <trkpt lat="47.13939" lon="6.24459">
        <ele>621</ele>
        <time>2015-04-26T06:41:59.000Z</time>
      </trkpt>
      <trkpt lat="47.13939" lon="6.24459">
        <ele>621</ele>
        <time>2015-04-26T06:42:01.000Z</time>
      </trkpt>
      <trkpt lat="47.13939" lon="6.24459">
        <ele>621</ele>
        <time>2015-04-26T06:42:03.000Z</time>
      </trkpt>
      <trkpt lat="47.13885" lon="6.24475">
        <ele>619</ele>
        <time>2015-04-26T06:42:09.000Z</time>
      </trkpt>
      <trkpt lat="47.13873" lon="6.24473">
        <ele>624</ele>
        <time>2015-04-26T06:42:11.000Z</time>
      </trkpt>
      <trkpt lat="47.1386" lon="6.24468">
        <ele>620</ele>
        <time>2015-04-26T06:42:13.000Z</time>
      </trkpt>
      <trkpt lat="47.13848" lon="6.24463">
        <ele>619</ele>
        <time>2015-04-26T06:42:15.000Z</time>
      </trkpt>
      <trkpt lat="47.13838" lon="6.24457">
        <ele>615</ele>
        <time>2015-04-26T06:42:17.000Z</time>
      </trkpt>
      <trkpt lat="47.13829" lon="6.24451">
        <ele>615</ele>
        <time>2015-04-26T06:42:19.000Z</time>
      </trkpt>
      <trkpt lat="47.13829" lon="6.24451">
        <ele>615</ele>
        <time>2015-04-26T06:42:21.000Z</time>
      </trkpt>
      <trkpt lat="47.13829" lon="6.24451">
        <ele>615</ele>
        <time>2015-04-26T06:42:23.000Z</time>
      </trkpt>
      <trkpt lat="47.13829" lon="6.24451">
        <ele>615</ele>
        <time>2015-04-26T06:42:25.000Z</time>
      </trkpt>
      <trkpt lat="47.13829" lon="6.24451">
        <ele>615</ele>
        <time>2015-04-26T06:42:27.000Z</time>
      </trkpt>
      <trkpt lat="47.13829" lon="6.24451">
        <ele>615</ele>
        <time>2015-04-26T06:42:29.000Z</time>
      </trkpt>
      <trkpt lat="47.13763" lon="6.24411">
        <ele>620</ele>
        <time>2015-04-26T06:42:35.000Z</time>
      </trkpt>
      <trkpt lat="47.13747" lon="6.24416">
        <ele>621</ele>
        <time>2015-04-26T06:42:39.000Z</time>
      </trkpt>
      <trkpt lat="47.13747" lon="6.24416">
        <ele>621</ele>
        <time>2015-04-26T06:42:41.000Z</time>
      </trkpt>
      <trkpt lat="47.13747" lon="6.24416">
        <ele>621</ele>
        <time>2015-04-26T06:42:43.000Z</time>
      </trkpt>
      <trkpt lat="47.13747" lon="6.24416">
        <ele>621</ele>
        <time>2015-04-26T06:42:45.000Z</time>
      </trkpt>
      <trkpt lat="47.13747" lon="6.24416">
        <ele>621</ele>
        <time>2015-04-26T06:42:47.000Z</time>
      </trkpt>
      <trkpt lat="47.13747" lon="6.24416">
        <ele>621</ele>
        <time>2015-04-26T06:42:49.000Z</time>
      </trkpt>
      <trkpt lat="47.13747" lon="6.24416">
        <ele>621</ele>
        <time>2015-04-26T06:42:51.000Z</time>
      </trkpt>
      <trkpt lat="47.13747" lon="6.24416">
        <ele>621</ele>
        <time>2015-04-26T06:42:53.000Z</time>
      </trkpt>
      <trkpt lat="47.13678" lon="6.24458">
        <ele>624</ele>
        <time>2015-04-26T06:42:59.000Z</time>
      </trkpt>
      <trkpt lat="47.13668" lon="6.2446">
        <ele>625</ele>
        <time>2015-04-26T06:43:01.000Z</time>
      </trkpt>
      <trkpt lat="47.13654" lon="6.24463">
        <ele>626</ele>
        <time>2015-04-26T06:43:05.000Z</time>
      </trkpt>
      <trkpt lat="47.13654" lon="6.24463">
        <ele>626</ele>
        <time>2015-04-26T06:43:07.000Z</time>
      </trkpt>
      <trkpt lat="47.13631" lon="6.24471">
        <ele>628</ele>
        <time>2015-04-26T06:43:15.000Z</time>
      </trkpt>
      <trkpt lat="47.13631" lon="6.24471">
        <ele>628</ele>
        <time>2015-04-26T06:43:17.000Z</time>
      </trkpt>
      <trkpt lat="47.13621" lon="6.24479">
        <ele>635</ele>
        <time>2015-04-26T06:43:19.000Z</time>
      </trkpt>
      <trkpt lat="47.1361" lon="6.24486">
        <ele>631</ele>
        <time>2015-04-26T06:43:23.000Z</time>
      </trkpt>
      <trkpt lat="47.1361" lon="6.24486">
        <ele>631</ele>
        <time>2015-04-26T06:43:27.000Z</time>
      </trkpt>
      <trkpt lat="47.13601" lon="6.24494">
        <ele>633</ele>
        <time>2015-04-26T06:43:31.000Z</time>
      </trkpt>
      <trkpt lat="47.13593" lon="6.245">
        <ele>635</ele>
        <time>2015-04-26T06:43:33.000Z</time>
      </trkpt>
      <trkpt lat="47.13586" lon="6.24505">
        <ele>636</ele>
        <time>2015-04-26T06:43:35.000Z</time>
      </trkpt>
      <trkpt lat="47.13579" lon="6.24509">
        <ele>631</ele>
        <time>2015-04-26T06:43:37.000Z</time>
      </trkpt>
      <trkpt lat="47.13573" lon="6.24513">
        <ele>634</ele>
        <time>2015-04-26T06:43:39.000Z</time>
      </trkpt>
      <trkpt lat="47.13573" lon="6.24513">
        <ele>634</ele>
        <time>2015-04-26T06:43:41.000Z</time>
      </trkpt>
      <trkpt lat="47.13573" lon="6.24513">
        <ele>634</ele>
        <time>2015-04-26T06:43:43.000Z</time>
      </trkpt>
      <trkpt lat="47.13573" lon="6.24513">
        <ele>634</ele>
        <time>2015-04-26T06:43:45.000Z</time>
      </trkpt>
      <trkpt lat="47.13573" lon="6.24513">
        <ele>634</ele>
        <time>2015-04-26T06:43:47.000Z</time>
      </trkpt>
      <trkpt lat="47.13573" lon="6.24513">
        <ele>634</ele>
        <time>2015-04-26T06:43:49.000Z</time>
      </trkpt>
      <trkpt lat="47.13573" lon="6.24513">
        <ele>634</ele>
        <time>2015-04-26T06:43:51.000Z</time>
      </trkpt>
      <trkpt lat="47.13573" lon="6.24513">
        <ele>634</ele>
        <time>2015-04-26T06:43:53.000Z</time>
      </trkpt>
      <trkpt lat="47.13573" lon="6.24513">
        <ele>634</ele>
        <time>2015-04-26T06:43:55.000Z</time>
      </trkpt>
      <trkpt lat="47.13573" lon="6.24513">
        <ele>634</ele>
        <time>2015-04-26T06:43:57.000Z</time>
      </trkpt>
      <trkpt lat="47.13573" lon="6.24513">
        <ele>634</ele>
        <time>2015-04-26T06:43:59.000Z</time>
      </trkpt>
      <trkpt lat="47.13573" lon="6.24513">
        <ele>634</ele>
        <time>2015-04-26T06:44:01.000Z</time>
      </trkpt>
      <trkpt lat="47.13573" lon="6.24513">
        <ele>634</ele>
        <time>2015-04-26T06:44:03.000Z</time>
      </trkpt>
      <trkpt lat="47.13573" lon="6.24513">
        <ele>634</ele>
        <time>2015-04-26T06:44:05.000Z</time>
      </trkpt>
      <trkpt lat="47.13573" lon="6.24513">
        <ele>634</ele>
        <time>2015-04-26T06:44:07.000Z</time>
      </trkpt>
      <trkpt lat="47.13573" lon="6.24513">
        <ele>634</ele>
        <time>2015-04-26T06:44:09.000Z</time>
      </trkpt>
      <trkpt lat="47.13573" lon="6.24513">
        <ele>634</ele>
        <time>2015-04-26T06:44:11.000Z</time>
      </trkpt>
      <trkpt lat="47.13573" lon="6.24513">
        <ele>634</ele>
        <time>2015-04-26T06:44:13.000Z</time>
      </trkpt>
      <trkpt lat="47.13573" lon="6.24513">
        <ele>634</ele>
        <time>2015-04-26T06:44:15.000Z</time>
      </trkpt>
      <trkpt lat="47.13573" lon="6.24513">
        <ele>634</ele>
        <time>2015-04-26T06:44:17.000Z</time>
      </trkpt>
      <trkpt lat="47.13491" lon="6.246">
        <ele>641</ele>
        <time>2015-04-26T06:44:21.000Z</time>
      </trkpt>
      <trkpt lat="47.13494" lon="6.24618">
        <ele>641</ele>
        <time>2015-04-26T06:44:25.000Z</time>
      </trkpt>
      <trkpt lat="47.13499" lon="6.24635">
        <ele>642</ele>
        <time>2015-04-26T06:44:29.000Z</time>
      </trkpt>
      <trkpt lat="47.13508" lon="6.24652">
        <ele>645</ele>
        <time>2015-04-26T06:44:33.000Z</time>
      </trkpt>
      <trkpt lat="47.13518" lon="6.24668">
        <ele>642</ele>
        <time>2015-04-26T06:44:37.000Z</time>
      </trkpt>
      <trkpt lat="47.13528" lon="6.24688">
        <ele>643</ele>
        <time>2015-04-26T06:44:41.000Z</time>
      </trkpt>
      <trkpt lat="47.13533" lon="6.24703">
        <ele>641</ele>
        <time>2015-04-26T06:44:43.000Z</time>
      </trkpt>
      <trkpt lat="47.13534" lon="6.24719">
        <ele>641</ele>
        <time>2015-04-26T06:44:45.000Z</time>
      </trkpt>
      <trkpt lat="47.13531" lon="6.24737">
        <ele>642</ele>
        <time>2015-04-26T06:44:47.000Z</time>
      </trkpt>
      <trkpt lat="47.13527" lon="6.24754">
        <ele>644</ele>
        <time>2015-04-26T06:44:49.000Z</time>
      </trkpt>
      <trkpt lat="47.13524" lon="6.24768">
        <ele>643</ele>
        <time>2015-04-26T06:44:51.000Z</time>
      </trkpt>
      <trkpt lat="47.13524" lon="6.24782">
        <ele>645</ele>
        <time>2015-04-26T06:44:53.000Z</time>
      </trkpt>
      <trkpt lat="47.13525" lon="6.24796">
        <ele>643</ele>
        <time>2015-04-26T06:44:55.000Z</time>
      </trkpt>
      <trkpt lat="47.13534" lon="6.24819">
        <ele>642</ele>
        <time>2015-04-26T06:44:59.000Z</time>
      </trkpt>
      <trkpt lat="47.13534" lon="6.24819">
        <ele>642</ele>
        <time>2015-04-26T06:45:01.000Z</time>
      </trkpt>
      <trkpt lat="47.13534" lon="6.24819">
        <ele>642</ele>
        <time>2015-04-26T06:45:03.000Z</time>
      </trkpt>
      <trkpt lat="47.13534" lon="6.24819">
        <ele>642</ele>
        <time>2015-04-26T06:45:05.000Z</time>
      </trkpt>
      <trkpt lat="47.13534" lon="6.24819">
        <ele>642</ele>
        <time>2015-04-26T06:45:07.000Z</time>
      </trkpt>
      <trkpt lat="47.13534" lon="6.24819">
        <ele>642</ele>
        <time>2015-04-26T06:45:09.000Z</time>
      </trkpt>
      <trkpt lat="47.13534" lon="6.24819">
        <ele>642</ele>
        <time>2015-04-26T06:45:11.000Z</time>
      </trkpt>
      <trkpt lat="47.13534" lon="6.24819">
        <ele>642</ele>
        <time>2015-04-26T06:45:13.000Z</time>
      </trkpt>
      <trkpt lat="47.13556" lon="6.24867">
        <ele>648</ele>
        <time>2015-04-26T06:45:17.000Z</time>
      </trkpt>
      <trkpt lat="47.13572" lon="6.24899">
        <ele>645</ele>
        <time>2015-04-26T06:45:19.000Z</time>
      </trkpt>
      <trkpt lat="47.13585" lon="6.24921">
        <ele>645</ele>
        <time>2015-04-26T06:45:21.000Z</time>
      </trkpt>
      <trkpt lat="47.13596" lon="6.24941">
        <ele>644</ele>
        <time>2015-04-26T06:45:23.000Z</time>
      </trkpt>
      <trkpt lat="47.13607" lon="6.24959">
        <ele>649</ele>
        <time>2015-04-26T06:45:25.000Z</time>
      </trkpt>
      <trkpt lat="47.13629" lon="6.24994">
        <ele>653</ele>
        <time>2015-04-26T06:45:27.000Z</time>
      </trkpt>
      <trkpt lat="47.1364" lon="6.25013">
        <ele>654</ele>
        <time>2015-04-26T06:45:29.000Z</time>
      </trkpt>
      <trkpt lat="47.13648" lon="6.25031">
        <ele>651</ele>
        <time>2015-04-26T06:45:31.000Z</time>
      </trkpt>
      <trkpt lat="47.13655" lon="6.25048">
        <ele>647</ele>
        <time>2015-04-26T06:45:33.000Z</time>
      </trkpt>
      <trkpt lat="47.13663" lon="6.25064">
        <ele>650</ele>
        <time>2015-04-26T06:45:35.000Z</time>
      </trkpt>
      <trkpt lat="47.13671" lon="6.2508">
        <ele>641</ele>
        <time>2015-04-26T06:45:37.000Z</time>
      </trkpt>
      <trkpt lat="47.13679" lon="6.25096">
        <ele>641</ele>
        <time>2015-04-26T06:45:39.000Z</time>
      </trkpt>
      <trkpt lat="47.13685" lon="6.25111">
        <ele>641</ele>
        <time>2015-04-26T06:45:41.000Z</time>
      </trkpt>
      <trkpt lat="47.13685" lon="6.25111">
        <ele>641</ele>
        <time>2015-04-26T06:45:43.000Z</time>
      </trkpt>
      <trkpt lat="47.13685" lon="6.25111">
        <ele>641</ele>
        <time>2015-04-26T06:45:45.000Z</time>
      </trkpt>
      <trkpt lat="47.13685" lon="6.25111">
        <ele>641</ele>
        <time>2015-04-26T06:45:47.000Z</time>
      </trkpt>
      <trkpt lat="47.13685" lon="6.25111">
        <ele>641</ele>
        <time>2015-04-26T06:45:49.000Z</time>
      </trkpt>
      <trkpt lat="47.13685" lon="6.25111">
        <ele>641</ele>
        <time>2015-04-26T06:45:51.000Z</time>
      </trkpt>
      <trkpt lat="47.13685" lon="6.25111">
        <ele>641</ele>
        <time>2015-04-26T06:45:53.000Z</time>
      </trkpt>
      <trkpt lat="47.13685" lon="6.25111">
        <ele>641</ele>
        <time>2015-04-26T06:45:56.000Z</time>
      </trkpt>
      <trkpt lat="47.13729" lon="6.25197">
        <ele>646</ele>
        <time>2015-04-26T06:46:01.000Z</time>
      </trkpt>
      <trkpt lat="47.13734" lon="6.25222">
        <ele>651</ele>
        <time>2015-04-26T06:46:18.000Z</time>
      </trkpt>
      <trkpt lat="47.13734" lon="6.25222">
        <ele>651</ele>
        <time>2015-04-26T06:46:28.000Z</time>
      </trkpt>
      <trkpt lat="47.13727" lon="6.25232">
        <ele>642</ele>
        <time>2015-04-26T06:46:38.000Z</time>
      </trkpt>
      <trkpt lat="47.13726" lon="6.25247">
        <ele>645</ele>
        <time>2015-04-26T06:46:50.000Z</time>
      </trkpt>
      <trkpt lat="47.13729" lon="6.25268">
        <ele>656</ele>
        <time>2015-04-26T06:47:16.000Z</time>
      </trkpt>
      <trkpt lat="47.13729" lon="6.25268">
        <ele>656</ele>
        <time>2015-04-26T06:47:18.000Z</time>
      </trkpt>
      <trkpt lat="47.13737" lon="6.25286">
        <ele>658</ele>
        <time>2015-04-26T06:47:22.000Z</time>
      </trkpt>
      <trkpt lat="47.13741" lon="6.25301">
        <ele>652</ele>
        <time>2015-04-26T06:47:26.000Z</time>
      </trkpt>
      <trkpt lat="47.13747" lon="6.25313">
        <ele>652</ele>
        <time>2015-04-26T06:47:29.000Z</time>
      </trkpt>
      <trkpt lat="47.13747" lon="6.25313">
        <ele>652</ele>
        <time>2015-04-26T06:47:34.000Z</time>
      </trkpt>
      <trkpt lat="47.13747" lon="6.25313">
        <ele>652</ele>
        <time>2015-04-26T06:47:44.000Z</time>
      </trkpt>
      <trkpt lat="47.13776" lon="6.25326">
        <ele>649</ele>
        <time>2015-04-26T06:47:47.000Z</time>
      </trkpt>
      <trkpt lat="47.13785" lon="6.25333">
        <ele>650</ele>
        <time>2015-04-26T06:47:53.000Z</time>
      </trkpt>
      <trkpt lat="47.13794" lon="6.2534">
        <ele>639</ele>
        <time>2015-04-26T06:48:01.000Z</time>
      </trkpt>
      <trkpt lat="47.13794" lon="6.2534">
        <ele>639</ele>
        <time>2015-04-26T06:48:08.000Z</time>
      </trkpt>
      <trkpt lat="47.13805" lon="6.25359">
        <ele>648</ele>
        <time>2015-04-26T06:48:16.000Z</time>
      </trkpt>
      <trkpt lat="47.13809" lon="6.25373">
        <ele>647</ele>
        <time>2015-04-26T06:48:22.000Z</time>
      </trkpt>
      <trkpt lat="47.13809" lon="6.25373">
        <ele>647</ele>
        <time>2015-04-26T06:48:25.000Z</time>
      </trkpt>
      <trkpt lat="47.13809" lon="6.25373">
        <ele>647</ele>
        <time>2015-04-26T06:48:30.000Z</time>
      </trkpt>
      <trkpt lat="47.13809" lon="6.25373">
        <ele>647</ele>
        <time>2015-04-26T06:48:32.000Z</time>
      </trkpt>
      <trkpt lat="47.13824" lon="6.25407">
        <ele>652</ele>
        <time>2015-04-26T06:48:38.000Z</time>
      </trkpt>
      <trkpt lat="47.13828" lon="6.25419">
        <ele>650</ele>
        <time>2015-04-26T06:48:44.000Z</time>
      </trkpt>
      <trkpt lat="47.13832" lon="6.25432">
        <ele>648</ele>
        <time>2015-04-26T06:48:52.000Z</time>
      </trkpt>
      <trkpt lat="47.13842" lon="6.25457">
        <ele>642</ele>
        <time>2015-04-26T06:49:04.000Z</time>
      </trkpt>
      <trkpt lat="47.13842" lon="6.25457">
        <ele>642</ele>
        <time>2015-04-26T06:49:06.000Z</time>
      </trkpt>
      <trkpt lat="47.13851" lon="6.25475">
        <ele>635</ele>
        <time>2015-04-26T06:49:09.000Z</time>
      </trkpt>
      <trkpt lat="47.13855" lon="6.25488">
        <ele>640</ele>
        <time>2015-04-26T06:49:12.000Z</time>
      </trkpt>
      <trkpt lat="47.13855" lon="6.25488">
        <ele>640</ele>
        <time>2015-04-26T06:49:14.000Z</time>
      </trkpt>
      <trkpt lat="47.13855" lon="6.25488">
        <ele>640</ele>
        <time>2015-04-26T06:49:16.000Z</time>
      </trkpt>
      <trkpt lat="47.13855" lon="6.25488">
        <ele>640</ele>
        <time>2015-04-26T06:49:18.000Z</time>
      </trkpt>
      <trkpt lat="47.13855" lon="6.25488">
        <ele>640</ele>
        <time>2015-04-26T06:49:21.000Z</time>
      </trkpt>
      <trkpt lat="47.13855" lon="6.25488">
        <ele>640</ele>
        <time>2015-04-26T06:49:24.000Z</time>
      </trkpt>
      <trkpt lat="47.1387" lon="6.25551">
        <ele>659</ele>
        <time>2015-04-26T06:49:30.000Z</time>
      </trkpt>
      <trkpt lat="47.13875" lon="6.25564">
        <ele>663</ele>
        <time>2015-04-26T06:49:36.000Z</time>
      </trkpt>
      <trkpt lat="47.13875" lon="6.25564">
        <ele>663</ele>
        <time>2015-04-26T06:49:45.000Z</time>
      </trkpt>
      <trkpt lat="47.1388" lon="6.25584">
        <ele>646</ele>
        <time>2015-04-26T06:49:57.000Z</time>
      </trkpt>
      <trkpt lat="47.13881" lon="6.25599">
        <ele>648</ele>
        <time>2015-04-26T06:50:15.000Z</time>
      </trkpt>
      <trkpt lat="47.13881" lon="6.25599">
        <ele>648</ele>
        <time>2015-04-26T06:50:27.000Z</time>
      </trkpt>
      <trkpt lat="47.13886" lon="6.25616">
        <ele>636</ele>
        <time>2015-04-26T06:50:33.000Z</time>
      </trkpt>
      <trkpt lat="47.13886" lon="6.25616">
        <ele>636</ele>
        <time>2015-04-26T06:50:35.000Z</time>
      </trkpt>
      <trkpt lat="47.13886" lon="6.25616">
        <ele>636</ele>
        <time>2015-04-26T06:50:37.000Z</time>
      </trkpt>
      <trkpt lat="47.13886" lon="6.25616">
        <ele>636</ele>
        <time>2015-04-26T06:50:39.000Z</time>
      </trkpt>
      <trkpt lat="47.13886" lon="6.25616">
        <ele>636</ele>
        <time>2015-04-26T06:50:41.000Z</time>
      </trkpt>
      <trkpt lat="47.13886" lon="6.25616">
        <ele>636</ele>
        <time>2015-04-26T06:50:43.000Z</time>
      </trkpt>
      <trkpt lat="47.13886" lon="6.25616">
        <ele>636</ele>
        <time>2015-04-26T06:50:45.000Z</time>
      </trkpt>
      <trkpt lat="47.13886" lon="6.25616">
        <ele>636</ele>
        <time>2015-04-26T06:50:47.000Z</time>
      </trkpt>
      <trkpt lat="47.13893" lon="6.25644">
        <ele>650</ele>
        <time>2015-04-26T06:51:35.000Z</time>
      </trkpt>
      <trkpt lat="47.13897" lon="6.25659">
        <ele>655</ele>
        <time>2015-04-26T06:51:37.000Z</time>
      </trkpt>
      <trkpt lat="47.139" lon="6.25668">
        <ele>655</ele>
        <time>2015-04-26T06:51:39.000Z</time>
      </trkpt>
      <trkpt lat="47.139" lon="6.25668">
        <ele>655</ele>
        <time>2015-04-26T06:51:41.000Z</time>
      </trkpt>
      <trkpt lat="47.139" lon="6.25668">
        <ele>655</ele>
        <time>2015-04-26T06:51:43.000Z</time>
      </trkpt>
      <trkpt lat="47.139" lon="6.25668">
        <ele>655</ele>
        <time>2015-04-26T06:51:45.000Z</time>
      </trkpt>
      <trkpt lat="47.139" lon="6.25668">
        <ele>655</ele>
        <time>2015-04-26T06:51:47.000Z</time>
      </trkpt>
      <trkpt lat="47.13905" lon="6.25684">
        <ele>659</ele>
        <time>2015-04-26T06:51:55.000Z</time>
      </trkpt>
      <trkpt lat="47.13905" lon="6.25684">
        <ele>659</ele>
        <time>2015-04-26T06:51:57.000Z</time>
      </trkpt>
      <trkpt lat="47.13905" lon="6.25684">
        <ele>659</ele>
        <time>2015-04-26T06:51:59.000Z</time>
      </trkpt>
      <trkpt lat="47.13877" lon="6.25733">
        <ele>650</ele>
        <time>2015-04-26T06:52:41.000Z</time>
      </trkpt>
      <trkpt lat="47.1386" lon="6.25761">
        <ele>642</ele>
        <time>2015-04-26T06:52:43.000Z</time>
      </trkpt>
      <trkpt lat="47.13849" lon="6.25776">
        <ele>648</ele>
        <time>2015-04-26T06:52:45.000Z</time>
      </trkpt>
      <trkpt lat="47.13841" lon="6.25785">
        <ele>657</ele>
        <time>2015-04-26T06:52:47.000Z</time>
      </trkpt>
      <trkpt lat="47.13841" lon="6.25785">
        <ele>657</ele>
        <time>2015-04-26T06:52:49.000Z</time>
      </trkpt>
      <trkpt lat="47.13841" lon="6.25785">
        <ele>657</ele>
        <time>2015-04-26T06:52:57.000Z</time>
      </trkpt>
      <trkpt lat="47.1382" lon="6.25798">
        <ele>661</ele>
        <time>2015-04-26T06:53:01.000Z</time>
      </trkpt>
      <trkpt lat="47.13807" lon="6.25807">
        <ele>661</ele>
        <time>2015-04-26T06:53:03.000Z</time>
      </trkpt>
      <trkpt lat="47.13799" lon="6.25813">
        <ele>658</ele>
        <time>2015-04-26T06:53:05.000Z</time>
      </trkpt>
      <trkpt lat="47.13792" lon="6.25817">
        <ele>656</ele>
        <time>2015-04-26T06:53:07.000Z</time>
      </trkpt>
      <trkpt lat="47.13787" lon="6.25822">
        <ele>658</ele>
        <time>2015-04-26T06:53:09.000Z</time>
      </trkpt>
      <trkpt lat="47.13773" lon="6.25833">
        <ele>652</ele>
        <time>2015-04-26T06:53:13.000Z</time>
      </trkpt>
      <trkpt lat="47.1376" lon="6.25839">
        <ele>658</ele>
        <time>2015-04-26T06:53:17.000Z</time>
      </trkpt>
      <trkpt lat="47.13746" lon="6.25847">
        <ele>653</ele>
        <time>2015-04-26T06:53:21.000Z</time>
      </trkpt>
      <trkpt lat="47.13736" lon="6.25851">
        <ele>655</ele>
        <time>2015-04-26T06:53:23.000Z</time>
      </trkpt>
      <trkpt lat="47.13723" lon="6.2586">
        <ele>653</ele>
        <time>2015-04-26T06:53:27.000Z</time>
      </trkpt>
      <trkpt lat="47.13712" lon="6.25869">
        <ele>663</ele>
        <time>2015-04-26T06:53:31.000Z</time>
      </trkpt>
      <trkpt lat="47.13712" lon="6.25869">
        <ele>663</ele>
        <time>2015-04-26T06:53:33.000Z</time>
      </trkpt>
      <trkpt lat="47.13712" lon="6.25869">
        <ele>663</ele>
        <time>2015-04-26T06:53:35.000Z</time>
      </trkpt>
      <trkpt lat="47.13712" lon="6.25869">
        <ele>663</ele>
        <time>2015-04-26T06:53:37.000Z</time>
      </trkpt>
      <trkpt lat="47.13675" lon="6.25895">
        <ele>667</ele>
        <time>2015-04-26T06:53:41.000Z</time>
      </trkpt>
      <trkpt lat="47.13664" lon="6.25899">
        <ele>670</ele>
        <time>2015-04-26T06:53:43.000Z</time>
      </trkpt>
      <trkpt lat="47.13651" lon="6.25904">
        <ele>668</ele>
        <time>2015-04-26T06:53:47.000Z</time>
      </trkpt>
      <trkpt lat="47.13634" lon="6.25904">
        <ele>668</ele>
        <time>2015-04-26T06:53:51.000Z</time>
      </trkpt>
      <trkpt lat="47.13634" lon="6.25904">
        <ele>668</ele>
        <time>2015-04-26T06:53:53.000Z</time>
      </trkpt>
      <trkpt lat="47.13634" lon="6.25904">
        <ele>668</ele>
        <time>2015-04-26T06:53:55.000Z</time>
      </trkpt>
      <trkpt lat="47.13634" lon="6.25904">
        <ele>668</ele>
        <time>2015-04-26T06:53:57.000Z</time>
      </trkpt>
      <trkpt lat="47.13634" lon="6.25904">
        <ele>668</ele>
        <time>2015-04-26T06:53:59.000Z</time>
      </trkpt>
      <trkpt lat="47.13634" lon="6.25904">
        <ele>668</ele>
        <time>2015-04-26T06:54:01.000Z</time>
      </trkpt>
      <trkpt lat="47.13634" lon="6.25904">
        <ele>668</ele>
        <time>2015-04-26T06:54:03.000Z</time>
      </trkpt>
      <trkpt lat="47.13634" lon="6.25904">
        <ele>668</ele>
        <time>2015-04-26T06:54:05.000Z</time>
      </trkpt>
      <trkpt lat="47.13634" lon="6.25904">
        <ele>668</ele>
        <time>2015-04-26T06:54:07.000Z</time>
      </trkpt>
      <trkpt lat="47.13634" lon="6.25904">
        <ele>668</ele>
        <time>2015-04-26T06:54:09.000Z</time>
      </trkpt>
      <trkpt lat="47.13571" lon="6.25886">
        <ele>653</ele>
        <time>2015-04-26T06:54:13.000Z</time>
      </trkpt>
      <trkpt lat="47.13563" lon="6.2587">
        <ele>653</ele>
        <time>2015-04-26T06:54:17.000Z</time>
      </trkpt>
      <trkpt lat="47.13558" lon="6.25854">
        <ele>654</ele>
        <time>2015-04-26T06:54:21.000Z</time>
      </trkpt>
      <trkpt lat="47.13556" lon="6.2584">
        <ele>650</ele>
        <time>2015-04-26T06:54:25.000Z</time>
      </trkpt>
      <trkpt lat="47.13556" lon="6.2584">
        <ele>650</ele>
        <time>2015-04-26T06:54:27.000Z</time>
      </trkpt>
      <trkpt lat="47.13556" lon="6.2584">
        <ele>650</ele>
        <time>2015-04-26T06:54:29.000Z</time>
      </trkpt>
      <trkpt lat="47.13556" lon="6.2584">
        <ele>650</ele>
        <time>2015-04-26T06:54:31.000Z</time>
      </trkpt>
      <trkpt lat="47.13556" lon="6.2584">
        <ele>650</ele>
        <time>2015-04-26T06:54:33.000Z</time>
      </trkpt>
      <trkpt lat="47.13556" lon="6.2584">
        <ele>650</ele>
        <time>2015-04-26T06:54:35.000Z</time>
      </trkpt>
      <trkpt lat="47.13556" lon="6.2584">
        <ele>650</ele>
        <time>2015-04-26T06:54:41.000Z</time>
      </trkpt>
      <trkpt lat="47.13556" lon="6.2584">
        <ele>650</ele>
        <time>2015-04-26T06:54:43.000Z</time>
      </trkpt>
      <trkpt lat="47.13556" lon="6.2584">
        <ele>650</ele>
        <time>2015-04-26T06:54:45.000Z</time>
      </trkpt>
      <trkpt lat="47.13556" lon="6.2584">
        <ele>650</ele>
        <time>2015-04-26T06:54:47.000Z</time>
      </trkpt>
      <trkpt lat="47.13556" lon="6.2584">
        <ele>650</ele>
        <time>2015-04-26T06:54:49.000Z</time>
      </trkpt>
      <trkpt lat="47.13556" lon="6.2584">
        <ele>650</ele>
        <time>2015-04-26T06:54:51.000Z</time>
      </trkpt>
      <trkpt lat="47.13556" lon="6.2584">
        <ele>650</ele>
        <time>2015-04-26T06:54:53.000Z</time>
      </trkpt>
      <trkpt lat="47.13556" lon="6.2584">
        <ele>650</ele>
        <time>2015-04-26T06:54:55.000Z</time>
      </trkpt>
      <trkpt lat="47.13556" lon="6.2584">
        <ele>650</ele>
        <time>2015-04-26T06:54:57.000Z</time>
      </trkpt>
      <trkpt lat="47.13556" lon="6.2584">
        <ele>650</ele>
        <time>2015-04-26T06:54:59.000Z</time>
      </trkpt>
      <trkpt lat="47.13556" lon="6.2584">
        <ele>650</ele>
        <time>2015-04-26T06:55:01.000Z</time>
      </trkpt>
      <trkpt lat="47.13556" lon="6.2584">
        <ele>650</ele>
        <time>2015-04-26T06:55:03.000Z</time>
      </trkpt>
      <trkpt lat="47.13556" lon="6.2584">
        <ele>650</ele>
        <time>2015-04-26T06:55:05.000Z</time>
      </trkpt>
      <trkpt lat="47.13556" lon="6.2584">
        <ele>650</ele>
        <time>2015-04-26T06:55:11.000Z</time>
      </trkpt>
      <trkpt lat="47.13556" lon="6.2584">
        <ele>650</ele>
        <time>2015-04-26T06:55:13.000Z</time>
      </trkpt>
      <trkpt lat="47.13556" lon="6.2584">
        <ele>650</ele>
        <time>2015-04-26T06:55:15.000Z</time>
      </trkpt>
      <trkpt lat="47.13512" lon="6.25832">
        <ele>659</ele>
        <time>2015-04-26T06:55:17.000Z</time>
      </trkpt>
      <trkpt lat="47.13488" lon="6.25827">
        <ele>657</ele>
        <time>2015-04-26T06:55:19.000Z</time>
      </trkpt>
      <trkpt lat="47.13474" lon="6.25824">
        <ele>655</ele>
        <time>2015-04-26T06:55:21.000Z</time>
      </trkpt>
      <trkpt lat="47.13466" lon="6.25824">
        <ele>658</ele>
        <time>2015-04-26T06:55:23.000Z</time>
      </trkpt>
      <trkpt lat="47.13466" lon="6.25824">
        <ele>658</ele>
        <time>2015-04-26T06:55:25.000Z</time>
      </trkpt>
      <trkpt lat="47.13466" lon="6.25824">
        <ele>658</ele>
        <time>2015-04-26T06:55:27.000Z</time>
      </trkpt>
      <trkpt lat="47.13466" lon="6.25824">
        <ele>658</ele>
        <time>2015-04-26T06:55:29.000Z</time>
      </trkpt>
      <trkpt lat="47.13451" lon="6.25818">
        <ele>647</ele>
        <time>2015-04-26T06:55:35.000Z</time>
      </trkpt>
      <trkpt lat="47.13441" lon="6.25813">
        <ele>646</ele>
        <time>2015-04-26T06:55:37.000Z</time>
      </trkpt>
      <trkpt lat="47.13435" lon="6.25808">
        <ele>652</ele>
        <time>2015-04-26T06:55:39.000Z</time>
      </trkpt>
      <trkpt lat="47.1343" lon="6.25804">
        <ele>650</ele>
        <time>2015-04-26T06:55:41.000Z</time>
      </trkpt>
      <trkpt lat="47.13425" lon="6.25799">
        <ele>651</ele>
        <time>2015-04-26T06:55:43.000Z</time>
      </trkpt>
      <trkpt lat="47.13425" lon="6.25799">
        <ele>651</ele>
        <time>2015-04-26T06:55:45.000Z</time>
      </trkpt>
      <trkpt lat="47.13412" lon="6.25778">
        <ele>651</ele>
        <time>2015-04-26T06:55:49.000Z</time>
      </trkpt>
      <trkpt lat="47.13401" lon="6.25767">
        <ele>649</ele>
        <time>2015-04-26T06:55:55.000Z</time>
      </trkpt>
      <trkpt lat="47.1339" lon="6.25761">
        <ele>640</ele>
        <time>2015-04-26T06:55:59.000Z</time>
      </trkpt>
      <trkpt lat="47.13378" lon="6.25755">
        <ele>649</ele>
        <time>2015-04-26T06:56:05.000Z</time>
      </trkpt>
      <trkpt lat="47.13369" lon="6.25757">
        <ele>658</ele>
        <time>2015-04-26T06:56:09.000Z</time>
      </trkpt>
      <trkpt lat="47.13354" lon="6.25758">
        <ele>651</ele>
        <time>2015-04-26T06:56:15.000Z</time>
      </trkpt>
      <trkpt lat="47.13342" lon="6.25758">
        <ele>644</ele>
        <time>2015-04-26T06:56:19.000Z</time>
      </trkpt>
      <trkpt lat="47.1333" lon="6.25757">
        <ele>642</ele>
        <time>2015-04-26T06:56:23.000Z</time>
      </trkpt>
      <trkpt lat="47.13322" lon="6.25748">
        <ele>636</ele>
        <time>2015-04-26T06:56:27.000Z</time>
      </trkpt>
      <trkpt lat="47.13322" lon="6.25748">
        <ele>636</ele>
        <time>2015-04-26T06:56:29.000Z</time>
      </trkpt>
      <trkpt lat="47.13322" lon="6.25748">
        <ele>636</ele>
        <time>2015-04-26T06:56:31.000Z</time>
      </trkpt>
      <trkpt lat="47.13322" lon="6.25748">
        <ele>636</ele>
        <time>2015-04-26T06:56:33.000Z</time>
      </trkpt>
      <trkpt lat="47.13322" lon="6.25748">
        <ele>636</ele>
        <time>2015-04-26T06:56:35.000Z</time>
      </trkpt>
      <trkpt lat="47.13322" lon="6.25748">
        <ele>636</ele>
        <time>2015-04-26T06:56:37.000Z</time>
      </trkpt>
      <trkpt lat="47.13322" lon="6.25748">
        <ele>636</ele>
        <time>2015-04-26T06:56:39.000Z</time>
      </trkpt>
      <trkpt lat="47.13322" lon="6.25748">
        <ele>636</ele>
        <time>2015-04-26T06:56:42.000Z</time>
      </trkpt>
      <trkpt lat="47.13322" lon="6.25748">
        <ele>636</ele>
        <time>2015-04-26T06:56:44.000Z</time>
      </trkpt>
      <trkpt lat="47.13322" lon="6.25748">
        <ele>636</ele>
        <time>2015-04-26T06:56:46.000Z</time>
      </trkpt>
      <trkpt lat="47.13255" lon="6.25698">
        <ele>660</ele>
        <time>2015-04-26T06:56:52.000Z</time>
      </trkpt>
      <trkpt lat="47.13245" lon="6.25691">
        <ele>662</ele>
        <time>2015-04-26T06:56:54.000Z</time>
      </trkpt>
      <trkpt lat="47.13229" lon="6.25685">
        <ele>667</ele>
        <time>2015-04-26T06:56:58.000Z</time>
      </trkpt>
      <trkpt lat="47.13212" lon="6.25676">
        <ele>664</ele>
        <time>2015-04-26T06:57:02.000Z</time>
      </trkpt>
      <trkpt lat="47.13198" lon="6.25663">
        <ele>669</ele>
        <time>2015-04-26T06:57:06.000Z</time>
      </trkpt>
      <trkpt lat="47.13183" lon="6.25653">
        <ele>665</ele>
        <time>2015-04-26T06:57:10.000Z</time>
      </trkpt>
      <trkpt lat="47.13172" lon="6.25645">
        <ele>665</ele>
        <time>2015-04-26T06:57:14.000Z</time>
      </trkpt>
      <trkpt lat="47.13172" lon="6.25645">
        <ele>665</ele>
        <time>2015-04-26T06:57:16.000Z</time>
      </trkpt>
      <trkpt lat="47.13167" lon="6.25643">
        <ele>666</ele>
        <time>2015-04-26T06:57:18.000Z</time>
      </trkpt>
      <trkpt lat="47.13167" lon="6.25643">
        <ele>666</ele>
        <time>2015-04-26T06:57:20.000Z</time>
      </trkpt>
      <trkpt lat="47.13167" lon="6.25643">
        <ele>666</ele>
        <time>2015-04-26T06:57:22.000Z</time>
      </trkpt>
      <trkpt lat="47.13167" lon="6.25643">
        <ele>666</ele>
        <time>2015-04-26T06:57:24.000Z</time>
      </trkpt>
      <trkpt lat="47.13167" lon="6.25643">
        <ele>666</ele>
        <time>2015-04-26T06:57:26.000Z</time>
      </trkpt>
      <trkpt lat="47.13167" lon="6.25643">
        <ele>666</ele>
        <time>2015-04-26T06:57:28.000Z</time>
      </trkpt>
      <trkpt lat="47.13167" lon="6.25643">
        <ele>666</ele>
        <time>2015-04-26T06:57:30.000Z</time>
      </trkpt>
      <trkpt lat="47.13167" lon="6.25643">
        <ele>666</ele>
        <time>2015-04-26T06:57:32.000Z</time>
      </trkpt>
      <trkpt lat="47.13145" lon="6.25648">
        <ele>673</ele>
        <time>2015-04-26T06:57:36.000Z</time>
      </trkpt>
      <trkpt lat="47.13132" lon="6.25653">
        <ele>672</ele>
        <time>2015-04-26T06:57:38.000Z</time>
      </trkpt>
      <trkpt lat="47.13122" lon="6.25657">
        <ele>674</ele>
        <time>2015-04-26T06:57:40.000Z</time>
      </trkpt>
      <trkpt lat="47.13115" lon="6.25662">
        <ele>675</ele>
        <time>2015-04-26T06:57:42.000Z</time>
      </trkpt>
      <trkpt lat="47.1311" lon="6.25666">
        <ele>668</ele>
        <time>2015-04-26T06:57:44.000Z</time>
      </trkpt>
      <trkpt lat="47.13099" lon="6.25676">
        <ele>670</ele>
        <time>2015-04-26T06:57:46.000Z</time>
      </trkpt>
      <trkpt lat="47.13087" lon="6.25687">
        <ele>669</ele>
        <time>2015-04-26T06:57:50.000Z</time>
      </trkpt>
      <trkpt lat="47.13075" lon="6.25698">
        <ele>676</ele>
        <time>2015-04-26T06:57:54.000Z</time>
      </trkpt>
      <trkpt lat="47.13062" lon="6.25705">
        <ele>677</ele>
        <time>2015-04-26T06:57:58.000Z</time>
      </trkpt>
      <trkpt lat="47.1305" lon="6.25708">
        <ele>679</ele>
        <time>2015-04-26T06:58:02.000Z</time>
      </trkpt>
      <trkpt lat="47.1305" lon="6.25708">
        <ele>679</ele>
        <time>2015-04-26T06:58:04.000Z</time>
      </trkpt>
      <trkpt lat="47.1305" lon="6.25708">
        <ele>679</ele>
        <time>2015-04-26T06:58:06.000Z</time>
      </trkpt>
      <trkpt lat="47.1305" lon="6.25708">
        <ele>679</ele>
        <time>2015-04-26T06:58:08.000Z</time>
      </trkpt>
      <trkpt lat="47.1305" lon="6.25708">
        <ele>679</ele>
        <time>2015-04-26T06:58:10.000Z</time>
      </trkpt>
      <trkpt lat="47.1305" lon="6.25708">
        <ele>679</ele>
        <time>2015-04-26T06:58:12.000Z</time>
      </trkpt>
      <trkpt lat="47.1305" lon="6.25708">
        <ele>679</ele>
        <time>2015-04-26T06:58:14.000Z</time>
      </trkpt>
      <trkpt lat="47.1305" lon="6.25708">
        <ele>679</ele>
        <time>2015-04-26T06:58:16.000Z</time>
      </trkpt>
      <trkpt lat="47.1305" lon="6.25708">
        <ele>679</ele>
        <time>2015-04-26T06:58:18.000Z</time>
      </trkpt>
      <trkpt lat="47.1305" lon="6.25708">
        <ele>679</ele>
        <time>2015-04-26T06:58:20.000Z</time>
      </trkpt>
      <trkpt lat="47.12965" lon="6.25672">
        <ele>666</ele>
        <time>2015-04-26T06:58:24.000Z</time>
      </trkpt>
      <trkpt lat="47.1295" lon="6.25661">
        <ele>662</ele>
        <time>2015-04-26T06:58:28.000Z</time>
      </trkpt>
      <trkpt lat="47.12937" lon="6.25648">
        <ele>661</ele>
        <time>2015-04-26T06:58:32.000Z</time>
      </trkpt>
      <trkpt lat="47.12929" lon="6.25643">
        <ele>661</ele>
        <time>2015-04-26T06:58:34.000Z</time>
      </trkpt>
      <trkpt lat="47.12912" lon="6.25634">
        <ele>654</ele>
        <time>2015-04-26T06:58:38.000Z</time>
      </trkpt>
      <trkpt lat="47.12894" lon="6.25625">
        <ele>651</ele>
        <time>2015-04-26T06:58:42.000Z</time>
      </trkpt>
      <trkpt lat="47.12883" lon="6.25619">
        <ele>646</ele>
        <time>2015-04-26T06:58:44.000Z</time>
      </trkpt>
      <trkpt lat="47.12872" lon="6.25611">
        <ele>648</ele>
        <time>2015-04-26T06:58:46.000Z</time>
      </trkpt>
      <trkpt lat="47.12862" lon="6.25601">
        <ele>653</ele>
        <time>2015-04-26T06:58:48.000Z</time>
      </trkpt>
      <trkpt lat="47.12851" lon="6.25584">
        <ele>661</ele>
        <time>2015-04-26T06:58:50.000Z</time>
      </trkpt>
      <trkpt lat="47.1284" lon="6.25568">
        <ele>659</ele>
        <time>2015-04-26T06:58:52.000Z</time>
      </trkpt>
      <trkpt lat="47.12829" lon="6.25553">
        <ele>662</ele>
        <time>2015-04-26T06:58:54.000Z</time>
      </trkpt>
      <trkpt lat="47.12818" lon="6.25539">
        <ele>655</ele>
        <time>2015-04-26T06:58:56.000Z</time>
      </trkpt>
      <trkpt lat="47.12811" lon="6.25526">
        <ele>656</ele>
        <time>2015-04-26T06:58:58.000Z</time>
      </trkpt>
      <trkpt lat="47.12802" lon="6.25514">
        <ele>658</ele>
        <time>2015-04-26T06:59:00.000Z</time>
      </trkpt>
      <trkpt lat="47.12792" lon="6.25504">
        <ele>659</ele>
        <time>2015-04-26T06:59:02.000Z</time>
      </trkpt>
      <trkpt lat="47.12782" lon="6.25494">
        <ele>660</ele>
        <time>2015-04-26T06:59:04.000Z</time>
      </trkpt>
      <trkpt lat="47.12772" lon="6.25484">
        <ele>661</ele>
        <time>2015-04-26T06:59:06.000Z</time>
      </trkpt>
      <trkpt lat="47.12764" lon="6.25477">
        <ele>660</ele>
        <time>2015-04-26T06:59:08.000Z</time>
      </trkpt>
      <trkpt lat="47.12764" lon="6.25477">
        <ele>660</ele>
        <time>2015-04-26T06:59:10.000Z</time>
      </trkpt>
      <trkpt lat="47.12764" lon="6.25477">
        <ele>660</ele>
        <time>2015-04-26T06:59:12.000Z</time>
      </trkpt>
      <trkpt lat="47.1271" lon="6.2544">
        <ele>659</ele>
        <time>2015-04-26T06:59:18.000Z</time>
      </trkpt>
      <trkpt lat="47.12699" lon="6.2543">
        <ele>655</ele>
        <time>2015-04-26T06:59:20.000Z</time>
      </trkpt>
      <trkpt lat="47.12687" lon="6.25419">
        <ele>658</ele>
        <time>2015-04-26T06:59:22.000Z</time>
      </trkpt>
      <trkpt lat="47.12673" lon="6.25407">
        <ele>660</ele>
        <time>2015-04-26T06:59:24.000Z</time>
      </trkpt>
      <trkpt lat="47.12658" lon="6.25392">
        <ele>659</ele>
        <time>2015-04-26T06:59:26.000Z</time>
      </trkpt>
      <trkpt lat="47.12645" lon="6.25376">
        <ele>657</ele>
        <time>2015-04-26T06:59:28.000Z</time>
      </trkpt>
      <trkpt lat="47.12632" lon="6.25359">
        <ele>659</ele>
        <time>2015-04-26T06:59:30.000Z</time>
      </trkpt>
      <trkpt lat="47.12622" lon="6.25343">
        <ele>658</ele>
        <time>2015-04-26T06:59:32.000Z</time>
      </trkpt>
      <trkpt lat="47.12612" lon="6.25327">
        <ele>657</ele>
        <time>2015-04-26T06:59:34.000Z</time>
      </trkpt>
      <trkpt lat="47.12603" lon="6.25316">
        <ele>656</ele>
        <time>2015-04-26T06:59:36.000Z</time>
      </trkpt>
      <trkpt lat="47.12603" lon="6.25316">
        <ele>656</ele>
        <time>2015-04-26T06:59:40.000Z</time>
      </trkpt>
      <trkpt lat="47.12603" lon="6.25316">
        <ele>656</ele>
        <time>2015-04-26T06:59:42.000Z</time>
      </trkpt>
      <trkpt lat="47.12603" lon="6.25316">
        <ele>656</ele>
        <time>2015-04-26T06:59:52.000Z</time>
      </trkpt>
      <trkpt lat="47.12603" lon="6.25316">
        <ele>656</ele>
        <time>2015-04-26T06:59:54.000Z</time>
      </trkpt>
      <trkpt lat="47.12606" lon="6.25381">
        <ele>652</ele>
        <time>2015-04-26T06:59:58.000Z</time>
      </trkpt>
      <trkpt lat="47.12609" lon="6.25421">
        <ele>655</ele>
        <time>2015-04-26T07:00:00.000Z</time>
      </trkpt>
      <trkpt lat="47.12611" lon="6.25448">
        <ele>655</ele>
        <time>2015-04-26T07:00:02.000Z</time>
      </trkpt>
      <trkpt lat="47.12612" lon="6.2547">
        <ele>652</ele>
        <time>2015-04-26T07:00:04.000Z</time>
      </trkpt>
      <trkpt lat="47.12614" lon="6.25488">
        <ele>653</ele>
        <time>2015-04-26T07:00:06.000Z</time>
      </trkpt>
      <trkpt lat="47.12617" lon="6.25522">
        <ele>650</ele>
        <time>2015-04-26T07:00:08.000Z</time>
      </trkpt>
      <trkpt lat="47.12618" lon="6.25538">
        <ele>651</ele>
        <time>2015-04-26T07:00:10.000Z</time>
      </trkpt>
      <trkpt lat="47.1262" lon="6.25556">
        <ele>650</ele>
        <time>2015-04-26T07:00:12.000Z</time>
      </trkpt>
      <trkpt lat="47.12622" lon="6.25572">
        <ele>649</ele>
        <time>2015-04-26T07:00:14.000Z</time>
      </trkpt>
      <trkpt lat="47.12624" lon="6.2559">
        <ele>647</ele>
        <time>2015-04-26T07:00:16.000Z</time>
      </trkpt>
      <trkpt lat="47.12626" lon="6.25611">
        <ele>645</ele>
        <time>2015-04-26T07:00:18.000Z</time>
      </trkpt>
      <trkpt lat="47.12627" lon="6.25632">
        <ele>649</ele>
        <time>2015-04-26T07:00:20.000Z</time>
      </trkpt>
      <trkpt lat="47.1263" lon="6.25651">
        <ele>650</ele>
        <time>2015-04-26T07:00:22.000Z</time>
      </trkpt>
      <trkpt lat="47.12635" lon="6.25671">
        <ele>650</ele>
        <time>2015-04-26T07:00:24.000Z</time>
      </trkpt>
      <trkpt lat="47.12637" lon="6.2569">
        <ele>649</ele>
        <time>2015-04-26T07:00:26.000Z</time>
      </trkpt>
      <trkpt lat="47.1264" lon="6.25708">
        <ele>651</ele>
        <time>2015-04-26T07:00:28.000Z</time>
      </trkpt>
      <trkpt lat="47.12641" lon="6.25726">
        <ele>651</ele>
        <time>2015-04-26T07:00:30.000Z</time>
      </trkpt>
      <trkpt lat="47.12642" lon="6.25742">
        <ele>646</ele>
        <time>2015-04-26T07:00:32.000Z</time>
      </trkpt>
      <trkpt lat="47.12642" lon="6.25742">
        <ele>646</ele>
        <time>2015-04-26T07:00:34.000Z</time>
      </trkpt>
      <trkpt lat="47.12642" lon="6.25742">
        <ele>646</ele>
        <time>2015-04-26T07:00:36.000Z</time>
      </trkpt>
      <trkpt lat="47.12642" lon="6.25742">
        <ele>646</ele>
        <time>2015-04-26T07:00:38.000Z</time>
      </trkpt>
      <trkpt lat="47.12642" lon="6.25742">
        <ele>646</ele>
        <time>2015-04-26T07:00:40.000Z</time>
      </trkpt>
      <trkpt lat="47.12642" lon="6.25742">
        <ele>646</ele>
        <time>2015-04-26T07:00:42.000Z</time>
      </trkpt>
      <trkpt lat="47.12642" lon="6.25742">
        <ele>646</ele>
        <time>2015-04-26T07:00:44.000Z</time>
      </trkpt>
      <trkpt lat="47.12641" lon="6.25812">
        <ele>656</ele>
        <time>2015-04-26T07:00:47.000Z</time>
      </trkpt>
      <trkpt lat="47.12637" lon="6.25824">
        <ele>655</ele>
        <time>2015-04-26T07:00:52.000Z</time>
      </trkpt>
      <trkpt lat="47.12624" lon="6.25846">
        <ele>666</ele>
        <time>2015-04-26T07:01:04.000Z</time>
      </trkpt>
      <trkpt lat="47.12624" lon="6.25846">
        <ele>666</ele>
        <time>2015-04-26T07:01:10.000Z</time>
      </trkpt>
      <trkpt lat="47.12624" lon="6.25846">
        <ele>666</ele>
        <time>2015-04-26T07:01:12.000Z</time>
      </trkpt>
      <trkpt lat="47.12614" lon="6.25867">
        <ele>665</ele>
        <time>2015-04-26T07:01:23.000Z</time>
      </trkpt>
      <trkpt lat="47.12614" lon="6.25867">
        <ele>665</ele>
        <time>2015-04-26T07:01:25.000Z</time>
      </trkpt>
      <trkpt lat="47.12612" lon="6.25882">
        <ele>670</ele>
        <time>2015-04-26T07:01:35.000Z</time>
      </trkpt>
      <trkpt lat="47.12605" lon="6.25891">
        <ele>665</ele>
        <time>2015-04-26T07:01:44.000Z</time>
      </trkpt>
      <trkpt lat="47.12605" lon="6.25891">
        <ele>665</ele>
        <time>2015-04-26T07:01:50.000Z</time>
      </trkpt>
      <trkpt lat="47.12598" lon="6.25919">
        <ele>678</ele>
        <time>2015-04-26T07:02:04.000Z</time>
      </trkpt>
      <trkpt lat="47.12595" lon="6.25933">
        <ele>670</ele>
        <time>2015-04-26T07:02:21.000Z</time>
      </trkpt>
      <trkpt lat="47.12595" lon="6.25933">
        <ele>670</ele>
        <time>2015-04-26T07:02:32.000Z</time>
      </trkpt>
      <trkpt lat="47.12593" lon="6.25947">
        <ele>679</ele>
        <time>2015-04-26T07:02:58.000Z</time>
      </trkpt>
      <trkpt lat="47.12584" lon="6.25954">
        <ele>672</ele>
        <time>2015-04-26T07:03:42.000Z</time>
      </trkpt>
      <trkpt lat="47.12584" lon="6.25954">
        <ele>672</ele>
        <time>2015-04-26T07:04:13.000Z</time>
      </trkpt>
      <trkpt lat="47.12578" lon="6.25965">
        <ele>662</ele>
        <time>2015-04-26T07:04:40.000Z</time>
      </trkpt>
      <trkpt lat="47.12573" lon="6.2598">
        <ele>656</ele>
        <time>2015-04-26T07:05:24.000Z</time>
      </trkpt>
      <trkpt lat="47.12573" lon="6.2598">
        <ele>656</ele>
        <time>2015-04-26T07:05:29.000Z</time>
      </trkpt>
      <trkpt lat="47.1254" lon="6.26061">
        <ele>658</ele>
        <time>2015-04-26T07:13:17.000Z</time>
      </trkpt>
      <trkpt lat="47.12519" lon="6.26105">
        <ele>658</ele>
        <time>2015-04-26T07:13:19.000Z</time>
      </trkpt>
      <trkpt lat="47.12505" lon="6.26129">
        <ele>662</ele>
        <time>2015-04-26T07:13:21.000Z</time>
      </trkpt>
      <trkpt lat="47.12492" lon="6.26144">
        <ele>663</ele>
        <time>2015-04-26T07:13:23.000Z</time>
      </trkpt>
      <trkpt lat="47.12483" lon="6.26153">
        <ele>657</ele>
        <time>2015-04-26T07:13:25.000Z</time>
      </trkpt>
      <trkpt lat="47.12467" lon="6.26164">
        <ele>658</ele>
        <time>2015-04-26T07:13:27.000Z</time>
      </trkpt>
      <trkpt lat="47.12467" lon="6.26164">
        <ele>658</ele>
        <time>2015-04-26T07:13:31.000Z</time>
      </trkpt>
      <trkpt lat="47.12467" lon="6.26164">
        <ele>658</ele>
        <time>2015-04-26T07:13:33.000Z</time>
      </trkpt>
      <trkpt lat="47.12467" lon="6.26164">
        <ele>658</ele>
        <time>2015-04-26T07:13:35.000Z</time>
      </trkpt>
      <trkpt lat="47.12449" lon="6.26222">
        <ele>655</ele>
        <time>2015-04-26T07:13:41.000Z</time>
      </trkpt>
      <trkpt lat="47.12447" lon="6.26235">
        <ele>655</ele>
        <time>2015-04-26T07:13:43.000Z</time>
      </trkpt>
      <trkpt lat="47.12444" lon="6.2625">
        <ele>653</ele>
        <time>2015-04-26T07:13:45.000Z</time>
      </trkpt>
      <trkpt lat="47.12442" lon="6.26267">
        <ele>656</ele>
        <time>2015-04-26T07:13:47.000Z</time>
      </trkpt>
      <trkpt lat="47.1244" lon="6.26285">
        <ele>655</ele>
        <time>2015-04-26T07:13:49.000Z</time>
      </trkpt>
      <trkpt lat="47.12438" lon="6.26302">
        <ele>651</ele>
        <time>2015-04-26T07:13:51.000Z</time>
      </trkpt>
      <trkpt lat="47.12438" lon="6.26318">
        <ele>648</ele>
        <time>2015-04-26T07:13:53.000Z</time>
      </trkpt>
      <trkpt lat="47.12439" lon="6.26337">
        <ele>651</ele>
        <time>2015-04-26T07:13:55.000Z</time>
      </trkpt>
      <trkpt lat="47.12439" lon="6.26353">
        <ele>653</ele>
        <time>2015-04-26T07:13:57.000Z</time>
      </trkpt>
      <trkpt lat="47.12439" lon="6.26368">
        <ele>650</ele>
        <time>2015-04-26T07:13:59.000Z</time>
      </trkpt>
      <trkpt lat="47.12439" lon="6.26383">
        <ele>650</ele>
        <time>2015-04-26T07:14:01.000Z</time>
      </trkpt>
      <trkpt lat="47.12439" lon="6.26398">
        <ele>648</ele>
        <time>2015-04-26T07:14:03.000Z</time>
      </trkpt>
      <trkpt lat="47.12437" lon="6.26414">
        <ele>653</ele>
        <time>2015-04-26T07:14:05.000Z</time>
      </trkpt>
      <trkpt lat="47.12437" lon="6.26431">
        <ele>655</ele>
        <time>2015-04-26T07:14:07.000Z</time>
      </trkpt>
      <trkpt lat="47.12436" lon="6.26448">
        <ele>655</ele>
        <time>2015-04-26T07:14:09.000Z</time>
      </trkpt>
      <trkpt lat="47.12437" lon="6.26465">
        <ele>655</ele>
        <time>2015-04-26T07:14:11.000Z</time>
      </trkpt>
      <trkpt lat="47.12439" lon="6.26481">
        <ele>655</ele>
        <time>2015-04-26T07:14:13.000Z</time>
      </trkpt>
      <trkpt lat="47.12442" lon="6.26497">
        <ele>658</ele>
        <time>2015-04-26T07:14:15.000Z</time>
      </trkpt>
      <trkpt lat="47.12447" lon="6.26513">
        <ele>659</ele>
        <time>2015-04-26T07:14:17.000Z</time>
      </trkpt>
      <trkpt lat="47.12453" lon="6.26528">
        <ele>658</ele>
        <time>2015-04-26T07:14:19.000Z</time>
      </trkpt>
      <trkpt lat="47.12457" lon="6.26546">
        <ele>658</ele>
        <time>2015-04-26T07:14:21.000Z</time>
      </trkpt>
      <trkpt lat="47.12461" lon="6.26566">
        <ele>657</ele>
        <time>2015-04-26T07:14:23.000Z</time>
      </trkpt>
      <trkpt lat="47.12465" lon="6.26583">
        <ele>657</ele>
        <time>2015-04-26T07:14:25.000Z</time>
      </trkpt>
      <trkpt lat="47.1247" lon="6.26614">
        <ele>650</ele>
        <time>2015-04-26T07:14:28.000Z</time>
      </trkpt>
      <trkpt lat="47.12472" lon="6.26637">
        <ele>650</ele>
        <time>2015-04-26T07:14:30.000Z</time>
      </trkpt>
      <trkpt lat="47.12475" lon="6.26659">
        <ele>651</ele>
        <time>2015-04-26T07:14:32.000Z</time>
      </trkpt>
      <trkpt lat="47.12476" lon="6.26681">
        <ele>653</ele>
        <time>2015-04-26T07:14:34.000Z</time>
      </trkpt>
      <trkpt lat="47.12476" lon="6.26702">
        <ele>653</ele>
        <time>2015-04-26T07:14:36.000Z</time>
      </trkpt>
      <trkpt lat="47.12476" lon="6.26722">
        <ele>648</ele>
        <time>2015-04-26T07:14:38.000Z</time>
      </trkpt>
      <trkpt lat="47.12475" lon="6.26742">
        <ele>645</ele>
        <time>2015-04-26T07:14:40.000Z</time>
      </trkpt>
      <trkpt lat="47.12473" lon="6.26761">
        <ele>642</ele>
        <time>2015-04-26T07:14:42.000Z</time>
      </trkpt>
      <trkpt lat="47.12471" lon="6.26781">
        <ele>641</ele>
        <time>2015-04-26T07:14:44.000Z</time>
      </trkpt>
      <trkpt lat="47.12469" lon="6.26799">
        <ele>642</ele>
        <time>2015-04-26T07:14:46.000Z</time>
      </trkpt>
      <trkpt lat="47.12469" lon="6.26815">
        <ele>641</ele>
        <time>2015-04-26T07:14:48.000Z</time>
      </trkpt>
      <trkpt lat="47.1247" lon="6.26834">
        <ele>640</ele>
        <time>2015-04-26T07:14:50.000Z</time>
      </trkpt>
      <trkpt lat="47.12471" lon="6.26852">
        <ele>643</ele>
        <time>2015-04-26T07:14:52.000Z</time>
      </trkpt>
      <trkpt lat="47.12471" lon="6.26852">
        <ele>643</ele>
        <time>2015-04-26T07:14:54.000Z</time>
      </trkpt>
      <trkpt lat="47.12471" lon="6.26852">
        <ele>643</ele>
        <time>2015-04-26T07:14:56.000Z</time>
      </trkpt>
      <trkpt lat="47.12471" lon="6.26852">
        <ele>643</ele>
        <time>2015-04-26T07:14:58.000Z</time>
      </trkpt>
      <trkpt lat="47.12471" lon="6.26852">
        <ele>643</ele>
        <time>2015-04-26T07:15:00.000Z</time>
      </trkpt>
      <trkpt lat="47.12485" lon="6.26951">
        <ele>650</ele>
        <time>2015-04-26T07:15:06.000Z</time>
      </trkpt>
      <trkpt lat="47.12485" lon="6.26951">
        <ele>650</ele>
        <time>2015-04-26T07:15:08.000Z</time>
      </trkpt>
      <trkpt lat="47.12485" lon="6.26951">
        <ele>650</ele>
        <time>2015-04-26T07:15:10.000Z</time>
      </trkpt>
      <trkpt lat="47.12485" lon="6.26951">
        <ele>650</ele>
        <time>2015-04-26T07:15:12.000Z</time>
      </trkpt>
      <trkpt lat="47.12485" lon="6.26951">
        <ele>650</ele>
        <time>2015-04-26T07:15:14.000Z</time>
      </trkpt>
      <trkpt lat="47.12501" lon="6.27031">
        <ele>655</ele>
        <time>2015-04-26T07:15:18.000Z</time>
      </trkpt>
      <trkpt lat="47.12499" lon="6.27046">
        <ele>657</ele>
        <time>2015-04-26T07:15:20.000Z</time>
      </trkpt>
      <trkpt lat="47.12498" lon="6.2706">
        <ele>662</ele>
        <time>2015-04-26T07:15:22.000Z</time>
      </trkpt>
      <trkpt lat="47.12498" lon="6.2706">
        <ele>662</ele>
        <time>2015-04-26T07:15:24.000Z</time>
      </trkpt>
      <trkpt lat="47.12498" lon="6.2706">
        <ele>662</ele>
        <time>2015-04-26T07:15:26.000Z</time>
      </trkpt>
      <trkpt lat="47.12498" lon="6.2706">
        <ele>662</ele>
        <time>2015-04-26T07:15:28.000Z</time>
      </trkpt>
      <trkpt lat="47.12499" lon="6.27133">
        <ele>653</ele>
        <time>2015-04-26T07:15:34.000Z</time>
      </trkpt>
      <trkpt lat="47.125" lon="6.27146">
        <ele>660</ele>
        <time>2015-04-26T07:15:36.000Z</time>
      </trkpt>
      <trkpt lat="47.12502" lon="6.2716">
        <ele>656</ele>
        <time>2015-04-26T07:15:38.000Z</time>
      </trkpt>
      <trkpt lat="47.12503" lon="6.27174">
        <ele>659</ele>
        <time>2015-04-26T07:15:40.000Z</time>
      </trkpt>
      <trkpt lat="47.12503" lon="6.27174">
        <ele>659</ele>
        <time>2015-04-26T07:15:42.000Z</time>
      </trkpt>
      <trkpt lat="47.12503" lon="6.27174">
        <ele>659</ele>
        <time>2015-04-26T07:15:44.000Z</time>
      </trkpt>
      <trkpt lat="47.12503" lon="6.27174">
        <ele>659</ele>
        <time>2015-04-26T07:15:46.000Z</time>
      </trkpt>
      <trkpt lat="47.12522" lon="6.27237">
        <ele>666</ele>
        <time>2015-04-26T07:15:50.000Z</time>
      </trkpt>
      <trkpt lat="47.12525" lon="6.2725">
        <ele>660</ele>
        <time>2015-04-26T07:15:52.000Z</time>
      </trkpt>
      <trkpt lat="47.12528" lon="6.27266">
        <ele>667</ele>
        <time>2015-04-26T07:15:54.000Z</time>
      </trkpt>
      <trkpt lat="47.12528" lon="6.27283">
        <ele>669</ele>
        <time>2015-04-26T07:15:56.000Z</time>
      </trkpt>
      <trkpt lat="47.12524" lon="6.27301">
        <ele>669</ele>
        <time>2015-04-26T07:15:58.000Z</time>
      </trkpt>
      <trkpt lat="47.12518" lon="6.27318">
        <ele>669</ele>
        <time>2015-04-26T07:16:00.000Z</time>
      </trkpt>
      <trkpt lat="47.12512" lon="6.27332">
        <ele>669</ele>
        <time>2015-04-26T07:16:02.000Z</time>
      </trkpt>
      <trkpt lat="47.12506" lon="6.27345">
        <ele>667</ele>
        <time>2015-04-26T07:16:04.000Z</time>
      </trkpt>
      <trkpt lat="47.12497" lon="6.27358">
        <ele>664</ele>
        <time>2015-04-26T07:16:06.000Z</time>
      </trkpt>
      <trkpt lat="47.1249" lon="6.2737">
        <ele>664</ele>
        <time>2015-04-26T07:16:08.000Z</time>
      </trkpt>
      <trkpt lat="47.12484" lon="6.27382">
        <ele>664</ele>
        <time>2015-04-26T07:16:10.000Z</time>
      </trkpt>
      <trkpt lat="47.12484" lon="6.27382">
        <ele>664</ele>
        <time>2015-04-26T07:16:12.000Z</time>
      </trkpt>
      <trkpt lat="47.12484" lon="6.27382">
        <ele>664</ele>
        <time>2015-04-26T07:16:14.000Z</time>
      </trkpt>
      <trkpt lat="47.12484" lon="6.27382">
        <ele>664</ele>
        <time>2015-04-26T07:16:16.000Z</time>
      </trkpt>
      <trkpt lat="47.12476" lon="6.27418">
        <ele>669</ele>
        <time>2015-04-26T07:16:20.000Z</time>
      </trkpt>
      <trkpt lat="47.12474" lon="6.27445">
        <ele>668</ele>
        <time>2015-04-26T07:16:22.000Z</time>
      </trkpt>
      <trkpt lat="47.12475" lon="6.27465">
        <ele>664</ele>
        <time>2015-04-26T07:16:24.000Z</time>
      </trkpt>
      <trkpt lat="47.12479" lon="6.27482">
        <ele>667</ele>
        <time>2015-04-26T07:16:26.000Z</time>
      </trkpt>
      <trkpt lat="47.12483" lon="6.27498">
        <ele>665</ele>
        <time>2015-04-26T07:16:28.000Z</time>
      </trkpt>
      <trkpt lat="47.12483" lon="6.27498">
        <ele>665</ele>
        <time>2015-04-26T07:16:30.000Z</time>
      </trkpt>
      <trkpt lat="47.12483" lon="6.27498">
        <ele>665</ele>
        <time>2015-04-26T07:16:32.000Z</time>
      </trkpt>
      <trkpt lat="47.12483" lon="6.27498">
        <ele>665</ele>
        <time>2015-04-26T07:16:34.000Z</time>
      </trkpt>
      <trkpt lat="47.12483" lon="6.27498">
        <ele>665</ele>
        <time>2015-04-26T07:16:36.000Z</time>
      </trkpt>
      <trkpt lat="47.12483" lon="6.27498">
        <ele>665</ele>
        <time>2015-04-26T07:16:38.000Z</time>
      </trkpt>
      <trkpt lat="47.12483" lon="6.27498">
        <ele>665</ele>
        <time>2015-04-26T07:16:40.000Z</time>
      </trkpt>
      <trkpt lat="47.12483" lon="6.27498">
        <ele>665</ele>
        <time>2015-04-26T07:16:42.000Z</time>
      </trkpt>
      <trkpt lat="47.12483" lon="6.27498">
        <ele>665</ele>
        <time>2015-04-26T07:16:44.000Z</time>
      </trkpt>
      <trkpt lat="47.12483" lon="6.27498">
        <ele>665</ele>
        <time>2015-04-26T07:16:46.000Z</time>
      </trkpt>
      <trkpt lat="47.12483" lon="6.27498">
        <ele>665</ele>
        <time>2015-04-26T07:16:48.000Z</time>
      </trkpt>
      <trkpt lat="47.12511" lon="6.27685">
        <ele>666</ele>
        <time>2015-04-26T07:16:54.000Z</time>
      </trkpt>
      <trkpt lat="47.12509" lon="6.2771">
        <ele>665</ele>
        <time>2015-04-26T07:16:58.000Z</time>
      </trkpt>
      <trkpt lat="47.12511" lon="6.27737">
        <ele>667</ele>
        <time>2015-04-26T07:17:02.000Z</time>
      </trkpt>
      <trkpt lat="47.12511" lon="6.27737">
        <ele>667</ele>
        <time>2015-04-26T07:17:04.000Z</time>
      </trkpt>
      <trkpt lat="47.12511" lon="6.27737">
        <ele>667</ele>
        <time>2015-04-26T07:17:06.000Z</time>
      </trkpt>
      <trkpt lat="47.12511" lon="6.27737">
        <ele>667</ele>
        <time>2015-04-26T07:17:08.000Z</time>
      </trkpt>
      <trkpt lat="47.12511" lon="6.27737">
        <ele>667</ele>
        <time>2015-04-26T07:17:10.000Z</time>
      </trkpt>
      <trkpt lat="47.12483" lon="6.27739">
        <ele>682</ele>
        <time>2015-04-26T07:17:14.000Z</time>
      </trkpt>
      <trkpt lat="47.12477" lon="6.27727">
        <ele>683</ele>
        <time>2015-04-26T07:17:16.000Z</time>
      </trkpt>
      <trkpt lat="47.12471" lon="6.27715">
        <ele>683</ele>
        <time>2015-04-26T07:17:18.000Z</time>
      </trkpt>
      <trkpt lat="47.12464" lon="6.27703">
        <ele>681</ele>
        <time>2015-04-26T07:17:20.000Z</time>
      </trkpt>
      <trkpt lat="47.12458" lon="6.27693">
        <ele>680</ele>
        <time>2015-04-26T07:17:22.000Z</time>
      </trkpt>
      <trkpt lat="47.1245" lon="6.27681">
        <ele>680</ele>
        <time>2015-04-26T07:17:24.000Z</time>
      </trkpt>
      <trkpt lat="47.12442" lon="6.27671">
        <ele>680</ele>
        <time>2015-04-26T07:17:26.000Z</time>
      </trkpt>
      <trkpt lat="47.12435" lon="6.27661">
        <ele>678</ele>
        <time>2015-04-26T07:17:28.000Z</time>
      </trkpt>
      <trkpt lat="47.12424" lon="6.27655">
        <ele>677</ele>
        <time>2015-04-26T07:17:30.000Z</time>
      </trkpt>
      <trkpt lat="47.12415" lon="6.27658">
        <ele>680</ele>
        <time>2015-04-26T07:17:32.000Z</time>
      </trkpt>
      <trkpt lat="47.12406" lon="6.27664">
        <ele>677</ele>
        <time>2015-04-26T07:17:34.000Z</time>
      </trkpt>
      <trkpt lat="47.12406" lon="6.27664">
        <ele>677</ele>
        <time>2015-04-26T07:17:36.000Z</time>
      </trkpt>
      <trkpt lat="47.12406" lon="6.27664">
        <ele>677</ele>
        <time>2015-04-26T07:17:38.000Z</time>
      </trkpt>
      <trkpt lat="47.12406" lon="6.27664">
        <ele>677</ele>
        <time>2015-04-26T07:17:40.000Z</time>
      </trkpt>
      <trkpt lat="47.12406" lon="6.27664">
        <ele>677</ele>
        <time>2015-04-26T07:17:42.000Z</time>
      </trkpt>
      <trkpt lat="47.12406" lon="6.27664">
        <ele>677</ele>
        <time>2015-04-26T07:17:44.000Z</time>
      </trkpt>
      <trkpt lat="47.12406" lon="6.27664">
        <ele>677</ele>
        <time>2015-04-26T07:17:46.000Z</time>
      </trkpt>
      <trkpt lat="47.12406" lon="6.27664">
        <ele>677</ele>
        <time>2015-04-26T07:17:48.000Z</time>
      </trkpt>
      <trkpt lat="47.12406" lon="6.27664">
        <ele>677</ele>
        <time>2015-04-26T07:17:50.000Z</time>
      </trkpt>
      <trkpt lat="47.12406" lon="6.27664">
        <ele>677</ele>
        <time>2015-04-26T07:17:54.000Z</time>
      </trkpt>
      <trkpt lat="47.12406" lon="6.27664">
        <ele>677</ele>
        <time>2015-04-26T07:17:56.000Z</time>
      </trkpt>
      <trkpt lat="47.12406" lon="6.27664">
        <ele>677</ele>
        <time>2015-04-26T07:17:58.000Z</time>
      </trkpt>
      <trkpt lat="47.12406" lon="6.27664">
        <ele>677</ele>
        <time>2015-04-26T07:18:00.000Z</time>
      </trkpt>
      <trkpt lat="47.12406" lon="6.27664">
        <ele>677</ele>
        <time>2015-04-26T07:18:02.000Z</time>
      </trkpt>
      <trkpt lat="47.12406" lon="6.27664">
        <ele>677</ele>
        <time>2015-04-26T07:18:04.000Z</time>
      </trkpt>
      <trkpt lat="47.12406" lon="6.27664">
        <ele>677</ele>
        <time>2015-04-26T07:18:06.000Z</time>
      </trkpt>
      <trkpt lat="47.12406" lon="6.27664">
        <ele>677</ele>
        <time>2015-04-26T07:18:08.000Z</time>
      </trkpt>
      <trkpt lat="47.12406" lon="6.27664">
        <ele>677</ele>
        <time>2015-04-26T07:18:10.000Z</time>
      </trkpt>
      <trkpt lat="47.12406" lon="6.27664">
        <ele>677</ele>
        <time>2015-04-26T07:18:12.000Z</time>
      </trkpt>
      <trkpt lat="47.12406" lon="6.27664">
        <ele>677</ele>
        <time>2015-04-26T07:18:14.000Z</time>
      </trkpt>
      <trkpt lat="47.12406" lon="6.27664">
        <ele>677</ele>
        <time>2015-04-26T07:18:16.000Z</time>
      </trkpt>
      <trkpt lat="47.12406" lon="6.27664">
        <ele>677</ele>
        <time>2015-04-26T07:18:18.000Z</time>
      </trkpt>
      <trkpt lat="47.1232" lon="6.2775">
        <ele>683</ele>
        <time>2015-04-26T07:18:22.000Z</time>
      </trkpt>
      <trkpt lat="47.12274" lon="6.27799">
        <ele>689</ele>
        <time>2015-04-26T07:18:24.000Z</time>
      </trkpt>
      <trkpt lat="47.12246" lon="6.2783">
        <ele>689</ele>
        <time>2015-04-26T07:18:26.000Z</time>
      </trkpt>
      <trkpt lat="47.12228" lon="6.2785">
        <ele>691</ele>
        <time>2015-04-26T07:18:28.000Z</time>
      </trkpt>
      <trkpt lat="47.12215" lon="6.27865">
        <ele>690</ele>
        <time>2015-04-26T07:18:30.000Z</time>
      </trkpt>
      <trkpt lat="47.12196" lon="6.27888">
        <ele>687</ele>
        <time>2015-04-26T07:18:32.000Z</time>
      </trkpt>
      <trkpt lat="47.12183" lon="6.27904">
        <ele>688</ele>
        <time>2015-04-26T07:18:36.000Z</time>
      </trkpt>
      <trkpt lat="47.12176" lon="6.27913">
        <ele>689</ele>
        <time>2015-04-26T07:18:38.000Z</time>
      </trkpt>
      <trkpt lat="47.12162" lon="6.27928">
        <ele>687</ele>
        <time>2015-04-26T07:18:42.000Z</time>
      </trkpt>
      <trkpt lat="47.12162" lon="6.27928">
        <ele>687</ele>
        <time>2015-04-26T07:18:44.000Z</time>
      </trkpt>
      <trkpt lat="47.12147" lon="6.27944">
        <ele>690</ele>
        <time>2015-04-26T07:18:46.000Z</time>
      </trkpt>
      <trkpt lat="47.1214" lon="6.27951">
        <ele>690</ele>
        <time>2015-04-26T07:18:48.000Z</time>
      </trkpt>
      <trkpt lat="47.1214" lon="6.27951">
        <ele>690</ele>
        <time>2015-04-26T07:18:50.000Z</time>
      </trkpt>
      <trkpt lat="47.1214" lon="6.27951">
        <ele>690</ele>
        <time>2015-04-26T07:18:52.000Z</time>
      </trkpt>
      <trkpt lat="47.1214" lon="6.27951">
        <ele>690</ele>
        <time>2015-04-26T07:18:54.000Z</time>
      </trkpt>
      <trkpt lat="47.1214" lon="6.27951">
        <ele>690</ele>
        <time>2015-04-26T07:18:56.000Z</time>
      </trkpt>
      <trkpt lat="47.1214" lon="6.27951">
        <ele>690</ele>
        <time>2015-04-26T07:18:58.000Z</time>
      </trkpt>
      <trkpt lat="47.1214" lon="6.27951">
        <ele>690</ele>
        <time>2015-04-26T07:19:00.000Z</time>
      </trkpt>
      <trkpt lat="47.1214" lon="6.27951">
        <ele>690</ele>
        <time>2015-04-26T07:19:02.000Z</time>
      </trkpt>
      <trkpt lat="47.1214" lon="6.27951">
        <ele>690</ele>
        <time>2015-04-26T07:19:05.000Z</time>
      </trkpt>
      <trkpt lat="47.1214" lon="6.27951">
        <ele>690</ele>
        <time>2015-04-26T07:19:09.000Z</time>
      </trkpt>
      <trkpt lat="47.1214" lon="6.27951">
        <ele>690</ele>
        <time>2015-04-26T07:19:11.000Z</time>
      </trkpt>
      <trkpt lat="47.1214" lon="6.27951">
        <ele>690</ele>
        <time>2015-04-26T07:19:13.000Z</time>
      </trkpt>
      <trkpt lat="47.1214" lon="6.27951">
        <ele>690</ele>
        <time>2015-04-26T07:19:15.000Z</time>
      </trkpt>
      <trkpt lat="47.1214" lon="6.27951">
        <ele>690</ele>
        <time>2015-04-26T07:19:17.000Z</time>
      </trkpt>
      <trkpt lat="47.1214" lon="6.27951">
        <ele>690</ele>
        <time>2015-04-26T07:19:22.000Z</time>
      </trkpt>
      <trkpt lat="47.1214" lon="6.27951">
        <ele>690</ele>
        <time>2015-04-26T07:19:24.000Z</time>
      </trkpt>
      <trkpt lat="47.12034" lon="6.28072">
        <ele>703</ele>
        <time>2015-04-26T07:19:29.000Z</time>
      </trkpt>
      <trkpt lat="47.12019" lon="6.28061">
        <ele>701</ele>
        <time>2015-04-26T07:19:33.000Z</time>
      </trkpt>
      <trkpt lat="47.12003" lon="6.28049">
        <ele>701</ele>
        <time>2015-04-26T07:19:38.000Z</time>
      </trkpt>
      <trkpt lat="47.11994" lon="6.28043">
        <ele>697</ele>
        <time>2015-04-26T07:19:40.000Z</time>
      </trkpt>
      <trkpt lat="47.11984" lon="6.28036">
        <ele>699</ele>
        <time>2015-04-26T07:19:43.000Z</time>
      </trkpt>
      <trkpt lat="47.11975" lon="6.28029">
        <ele>695</ele>
        <time>2015-04-26T07:19:45.000Z</time>
      </trkpt>
      <trkpt lat="47.11975" lon="6.28029">
        <ele>695</ele>
        <time>2015-04-26T07:19:47.000Z</time>
      </trkpt>
      <trkpt lat="47.11975" lon="6.28029">
        <ele>695</ele>
        <time>2015-04-26T07:19:49.000Z</time>
      </trkpt>
      <trkpt lat="47.11975" lon="6.28029">
        <ele>695</ele>
        <time>2015-04-26T07:19:51.000Z</time>
      </trkpt>
      <trkpt lat="47.11975" lon="6.28029">
        <ele>695</ele>
        <time>2015-04-26T07:19:53.000Z</time>
      </trkpt>
      <trkpt lat="47.11975" lon="6.28029">
        <ele>695</ele>
        <time>2015-04-26T07:19:55.000Z</time>
      </trkpt>
      <trkpt lat="47.11975" lon="6.28029">
        <ele>695</ele>
        <time>2015-04-26T07:19:57.000Z</time>
      </trkpt>
      <trkpt lat="47.11975" lon="6.28029">
        <ele>695</ele>
        <time>2015-04-26T07:19:59.000Z</time>
      </trkpt>
      <trkpt lat="47.11975" lon="6.28029">
        <ele>695</ele>
        <time>2015-04-26T07:20:01.000Z</time>
      </trkpt>
      <trkpt lat="47.11975" lon="6.28029">
        <ele>695</ele>
        <time>2015-04-26T07:20:03.000Z</time>
      </trkpt>
      <trkpt lat="47.11975" lon="6.28029">
        <ele>695</ele>
        <time>2015-04-26T07:20:05.000Z</time>
      </trkpt>
      <trkpt lat="47.11975" lon="6.28029">
        <ele>695</ele>
        <time>2015-04-26T07:20:07.000Z</time>
      </trkpt>
      <trkpt lat="47.11975" lon="6.28029">
        <ele>695</ele>
        <time>2015-04-26T07:20:09.000Z</time>
      </trkpt>
      <trkpt lat="47.11975" lon="6.28029">
        <ele>695</ele>
        <time>2015-04-26T07:20:11.000Z</time>
      </trkpt>
      <trkpt lat="47.11975" lon="6.28029">
        <ele>695</ele>
        <time>2015-04-26T07:20:13.000Z</time>
      </trkpt>
      <trkpt lat="47.11975" lon="6.28029">
        <ele>695</ele>
        <time>2015-04-26T07:20:15.000Z</time>
      </trkpt>
      <trkpt lat="47.11975" lon="6.28029">
        <ele>695</ele>
        <time>2015-04-26T07:20:17.000Z</time>
      </trkpt>
      <trkpt lat="47.11975" lon="6.28029">
        <ele>695</ele>
        <time>2015-04-26T07:20:19.000Z</time>
      </trkpt>
      <trkpt lat="47.11975" lon="6.28029">
        <ele>695</ele>
        <time>2015-04-26T07:20:21.000Z</time>
      </trkpt>
      <trkpt lat="47.11941" lon="6.27946">
        <ele>697</ele>
        <time>2015-04-26T07:20:27.000Z</time>
      </trkpt>
      <trkpt lat="47.11922" lon="6.27903">
        <ele>694</ele>
        <time>2015-04-26T07:20:29.000Z</time>
      </trkpt>
      <trkpt lat="47.1191" lon="6.27878">
        <ele>693</ele>
        <time>2015-04-26T07:20:31.000Z</time>
      </trkpt>
      <trkpt lat="47.1191" lon="6.27878">
        <ele>693</ele>
        <time>2015-04-26T07:20:33.000Z</time>
      </trkpt>
      <trkpt lat="47.1191" lon="6.27878">
        <ele>693</ele>
        <time>2015-04-26T07:20:35.000Z</time>
      </trkpt>
      <trkpt lat="47.1191" lon="6.27878">
        <ele>693</ele>
        <time>2015-04-26T07:20:37.000Z</time>
      </trkpt>
      <trkpt lat="47.1191" lon="6.27878">
        <ele>693</ele>
        <time>2015-04-26T07:20:39.000Z</time>
      </trkpt>
      <trkpt lat="47.1191" lon="6.27878">
        <ele>693</ele>
        <time>2015-04-26T07:20:41.000Z</time>
      </trkpt>
      <trkpt lat="47.1191" lon="6.27878">
        <ele>693</ele>
        <time>2015-04-26T07:20:43.000Z</time>
      </trkpt>
      <trkpt lat="47.11889" lon="6.27834">
        <ele>700</ele>
        <time>2015-04-26T07:20:49.000Z</time>
      </trkpt>
      <trkpt lat="47.11878" lon="6.27807">
        <ele>692</ele>
        <time>2015-04-26T07:20:51.000Z</time>
      </trkpt>
      <trkpt lat="47.11871" lon="6.27788">
        <ele>690</ele>
        <time>2015-04-26T07:20:53.000Z</time>
      </trkpt>
      <trkpt lat="47.11865" lon="6.27772">
        <ele>691</ele>
        <time>2015-04-26T07:20:55.000Z</time>
      </trkpt>
      <trkpt lat="47.1186" lon="6.27759">
        <ele>690</ele>
        <time>2015-04-26T07:20:57.000Z</time>
      </trkpt>
      <trkpt lat="47.11852" lon="6.27737">
        <ele>690</ele>
        <time>2015-04-26T07:20:59.000Z</time>
      </trkpt>
      <trkpt lat="47.11852" lon="6.27737">
        <ele>690</ele>
        <time>2015-04-26T07:21:01.000Z</time>
      </trkpt>
      <trkpt lat="47.11852" lon="6.27737">
        <ele>690</ele>
        <time>2015-04-26T07:21:03.000Z</time>
      </trkpt>
      <trkpt lat="47.11852" lon="6.27737">
        <ele>690</ele>
        <time>2015-04-26T07:21:05.000Z</time>
      </trkpt>
      <trkpt lat="47.11852" lon="6.27737">
        <ele>690</ele>
        <time>2015-04-26T07:21:07.000Z</time>
      </trkpt>
      <trkpt lat="47.11852" lon="6.27737">
        <ele>690</ele>
        <time>2015-04-26T07:21:09.000Z</time>
      </trkpt>
      <trkpt lat="47.11852" lon="6.27737">
        <ele>690</ele>
        <time>2015-04-26T07:21:11.000Z</time>
      </trkpt>
      <trkpt lat="47.11852" lon="6.27737">
        <ele>690</ele>
        <time>2015-04-26T07:21:13.000Z</time>
      </trkpt>
      <trkpt lat="47.11852" lon="6.27737">
        <ele>690</ele>
        <time>2015-04-26T07:21:15.000Z</time>
      </trkpt>
      <trkpt lat="47.11852" lon="6.27737">
        <ele>690</ele>
        <time>2015-04-26T07:21:17.000Z</time>
      </trkpt>
      <trkpt lat="47.11852" lon="6.27737">
        <ele>690</ele>
        <time>2015-04-26T07:21:19.000Z</time>
      </trkpt>
      <trkpt lat="47.11813" lon="6.2767">
        <ele>690</ele>
        <time>2015-04-26T07:21:23.000Z</time>
      </trkpt>
      <trkpt lat="47.11805" lon="6.27657">
        <ele>695</ele>
        <time>2015-04-26T07:21:29.000Z</time>
      </trkpt>
      <trkpt lat="47.11805" lon="6.27657">
        <ele>695</ele>
        <time>2015-04-26T07:21:31.000Z</time>
      </trkpt>
      <trkpt lat="47.11805" lon="6.27657">
        <ele>695</ele>
        <time>2015-04-26T07:21:33.000Z</time>
      </trkpt>
      <trkpt lat="47.11805" lon="6.27657">
        <ele>695</ele>
        <time>2015-04-26T07:21:35.000Z</time>
      </trkpt>
      <trkpt lat="47.11805" lon="6.27657">
        <ele>695</ele>
        <time>2015-04-26T07:21:37.000Z</time>
      </trkpt>
      <trkpt lat="47.11805" lon="6.27657">
        <ele>695</ele>
        <time>2015-04-26T07:21:39.000Z</time>
      </trkpt>
      <trkpt lat="47.11805" lon="6.27657">
        <ele>695</ele>
        <time>2015-04-26T07:21:41.000Z</time>
      </trkpt>
      <trkpt lat="47.11805" lon="6.27657">
        <ele>695</ele>
        <time>2015-04-26T07:21:43.000Z</time>
      </trkpt>
      <trkpt lat="47.11805" lon="6.27657">
        <ele>695</ele>
        <time>2015-04-26T07:21:45.000Z</time>
      </trkpt>
      <trkpt lat="47.11805" lon="6.27657">
        <ele>695</ele>
        <time>2015-04-26T07:21:48.000Z</time>
      </trkpt>
      <trkpt lat="47.11782" lon="6.27606">
        <ele>693</ele>
        <time>2015-04-26T07:22:31.000Z</time>
      </trkpt>
      <trkpt lat="47.11768" lon="6.27579">
        <ele>700</ele>
        <time>2015-04-26T07:22:33.000Z</time>
      </trkpt>
      <trkpt lat="47.11758" lon="6.27563">
        <ele>695</ele>
        <time>2015-04-26T07:22:35.000Z</time>
      </trkpt>
      <trkpt lat="47.1175" lon="6.27552">
        <ele>697</ele>
        <time>2015-04-26T07:22:37.000Z</time>
      </trkpt>
      <trkpt lat="47.11743" lon="6.27543">
        <ele>697</ele>
        <time>2015-04-26T07:22:39.000Z</time>
      </trkpt>
      <trkpt lat="47.1173" lon="6.2753">
        <ele>695</ele>
        <time>2015-04-26T07:22:41.000Z</time>
      </trkpt>
      <trkpt lat="47.11719" lon="6.27516">
        <ele>695</ele>
        <time>2015-04-26T07:22:45.000Z</time>
      </trkpt>
      <trkpt lat="47.11708" lon="6.27503">
        <ele>691</ele>
        <time>2015-04-26T07:22:49.000Z</time>
      </trkpt>
      <trkpt lat="47.117" lon="6.27488">
        <ele>691</ele>
        <time>2015-04-26T07:22:53.000Z</time>
      </trkpt>
      <trkpt lat="47.11689" lon="6.27471">
        <ele>701</ele>
        <time>2015-04-26T07:22:57.000Z</time>
      </trkpt>
      <trkpt lat="47.11679" lon="6.27455">
        <ele>698</ele>
        <time>2015-04-26T07:23:01.000Z</time>
      </trkpt>
      <trkpt lat="47.11667" lon="6.27435">
        <ele>699</ele>
        <time>2015-04-26T07:23:05.000Z</time>
      </trkpt>
      <trkpt lat="47.11658" lon="6.27424">
        <ele>696</ele>
        <time>2015-04-26T07:23:07.000Z</time>
      </trkpt>
      <trkpt lat="47.11648" lon="6.27408">
        <ele>690</ele>
        <time>2015-04-26T07:23:09.000Z</time>
      </trkpt>
      <trkpt lat="47.1164" lon="6.27392">
        <ele>683</ele>
        <time>2015-04-26T07:23:11.000Z</time>
      </trkpt>
      <trkpt lat="47.1163" lon="6.27374">
        <ele>683</ele>
        <time>2015-04-26T07:23:13.000Z</time>
      </trkpt>
      <trkpt lat="47.11626" lon="6.27358">
        <ele>686</ele>
        <time>2015-04-26T07:23:15.000Z</time>
      </trkpt>
      <trkpt lat="47.11622" lon="6.27335">
        <ele>683</ele>
        <time>2015-04-26T07:23:19.000Z</time>
      </trkpt>
      <trkpt lat="47.11622" lon="6.27335">
        <ele>683</ele>
        <time>2015-04-26T07:23:21.000Z</time>
      </trkpt>
      <trkpt lat="47.11622" lon="6.27335">
        <ele>683</ele>
        <time>2015-04-26T07:23:23.000Z</time>
      </trkpt>
      <trkpt lat="47.11622" lon="6.27335">
        <ele>683</ele>
        <time>2015-04-26T07:23:25.000Z</time>
      </trkpt>
      <trkpt lat="47.11622" lon="6.27335">
        <ele>683</ele>
        <time>2015-04-26T07:23:27.000Z</time>
      </trkpt>
      <trkpt lat="47.11622" lon="6.27335">
        <ele>683</ele>
        <time>2015-04-26T07:23:29.000Z</time>
      </trkpt>
      <trkpt lat="47.11622" lon="6.27335">
        <ele>683</ele>
        <time>2015-04-26T07:23:31.000Z</time>
      </trkpt>
      <trkpt lat="47.11622" lon="6.27335">
        <ele>683</ele>
        <time>2015-04-26T07:23:33.000Z</time>
      </trkpt>
      <trkpt lat="47.11622" lon="6.27335">
        <ele>683</ele>
        <time>2015-04-26T07:23:35.000Z</time>
      </trkpt>
      <trkpt lat="47.11573" lon="6.27251">
        <ele>678</ele>
        <time>2015-04-26T07:23:39.000Z</time>
      </trkpt>
      <trkpt lat="47.1157" lon="6.27232">
        <ele>678</ele>
        <time>2015-04-26T07:23:43.000Z</time>
      </trkpt>
      <trkpt lat="47.1157" lon="6.27232">
        <ele>678</ele>
        <time>2015-04-26T07:23:45.000Z</time>
      </trkpt>
      <trkpt lat="47.1157" lon="6.27232">
        <ele>678</ele>
        <time>2015-04-26T07:23:47.000Z</time>
      </trkpt>
      <trkpt lat="47.1157" lon="6.27232">
        <ele>678</ele>
        <time>2015-04-26T07:23:49.000Z</time>
      </trkpt>
      <trkpt lat="47.1157" lon="6.27232">
        <ele>678</ele>
        <time>2015-04-26T07:23:51.000Z</time>
      </trkpt>
      <trkpt lat="47.1157" lon="6.27232">
        <ele>678</ele>
        <time>2015-04-26T07:23:53.000Z</time>
      </trkpt>
      <trkpt lat="47.1153" lon="6.27161">
        <ele>689</ele>
        <time>2015-04-26T07:23:59.000Z</time>
      </trkpt>
      <trkpt lat="47.11521" lon="6.27144">
        <ele>691</ele>
        <time>2015-04-26T07:24:03.000Z</time>
      </trkpt>
      <trkpt lat="47.11514" lon="6.27125">
        <ele>686</ele>
        <time>2015-04-26T07:24:07.000Z</time>
      </trkpt>
      <trkpt lat="47.11507" lon="6.27105">
        <ele>686</ele>
        <time>2015-04-26T07:24:11.000Z</time>
      </trkpt>
      <trkpt lat="47.11497" lon="6.27086">
        <ele>689</ele>
        <time>2015-04-26T07:24:15.000Z</time>
      </trkpt>
      <trkpt lat="47.11491" lon="6.27075">
        <ele>678</ele>
        <time>2015-04-26T07:24:17.000Z</time>
      </trkpt>
      <trkpt lat="47.11491" lon="6.27075">
        <ele>678</ele>
        <time>2015-04-26T07:24:19.000Z</time>
      </trkpt>
      <trkpt lat="47.11491" lon="6.27075">
        <ele>678</ele>
        <time>2015-04-26T07:24:21.000Z</time>
      </trkpt>
      <trkpt lat="47.11491" lon="6.27075">
        <ele>678</ele>
        <time>2015-04-26T07:24:23.000Z</time>
      </trkpt>
      <trkpt lat="47.11491" lon="6.27075">
        <ele>678</ele>
        <time>2015-04-26T07:24:25.000Z</time>
      </trkpt>
      <trkpt lat="47.11491" lon="6.27075">
        <ele>678</ele>
        <time>2015-04-26T07:24:27.000Z</time>
      </trkpt>
      <trkpt lat="47.11491" lon="6.27075">
        <ele>678</ele>
        <time>2015-04-26T07:24:29.000Z</time>
      </trkpt>
      <trkpt lat="47.11491" lon="6.27075">
        <ele>678</ele>
        <time>2015-04-26T07:24:39.000Z</time>
      </trkpt>
      <trkpt lat="47.11491" lon="6.27075">
        <ele>678</ele>
        <time>2015-04-26T07:24:41.000Z</time>
      </trkpt>
      <trkpt lat="47.11491" lon="6.27075">
        <ele>678</ele>
        <time>2015-04-26T07:24:43.000Z</time>
      </trkpt>
      <trkpt lat="47.11491" lon="6.27075">
        <ele>678</ele>
        <time>2015-04-26T07:24:45.000Z</time>
      </trkpt>
      <trkpt lat="47.11491" lon="6.27075">
        <ele>678</ele>
        <time>2015-04-26T07:24:47.000Z</time>
      </trkpt>
      <trkpt lat="47.11463" lon="6.27025">
        <ele>671</ele>
        <time>2015-04-26T07:24:55.000Z</time>
      </trkpt>
      <trkpt lat="47.11448" lon="6.26995">
        <ele>668</ele>
        <time>2015-04-26T07:24:57.000Z</time>
      </trkpt>
      <trkpt lat="47.11438" lon="6.26976">
        <ele>672</ele>
        <time>2015-04-26T07:24:59.000Z</time>
      </trkpt>
      <trkpt lat="47.11431" lon="6.26962">
        <ele>672</ele>
        <time>2015-04-26T07:25:01.000Z</time>
      </trkpt>
      <trkpt lat="47.11425" lon="6.26951">
        <ele>670</ele>
        <time>2015-04-26T07:25:03.000Z</time>
      </trkpt>
      <trkpt lat="47.11412" lon="6.26931">
        <ele>666</ele>
        <time>2015-04-26T07:25:05.000Z</time>
      </trkpt>
      <trkpt lat="47.11403" lon="6.2691">
        <ele>665</ele>
        <time>2015-04-26T07:25:09.000Z</time>
      </trkpt>
      <trkpt lat="47.11398" lon="6.26894">
        <ele>666</ele>
        <time>2015-04-26T07:25:15.000Z</time>
      </trkpt>
      <trkpt lat="47.11398" lon="6.26894">
        <ele>666</ele>
        <time>2015-04-26T07:25:17.000Z</time>
      </trkpt>
      <trkpt lat="47.11398" lon="6.26894">
        <ele>666</ele>
        <time>2015-04-26T07:25:19.000Z</time>
      </trkpt>
      <trkpt lat="47.11398" lon="6.26894">
        <ele>666</ele>
        <time>2015-04-26T07:25:21.000Z</time>
      </trkpt>
      <trkpt lat="47.11398" lon="6.26894">
        <ele>666</ele>
        <time>2015-04-26T07:25:23.000Z</time>
      </trkpt>
      <trkpt lat="47.11398" lon="6.26894">
        <ele>666</ele>
        <time>2015-04-26T07:25:25.000Z</time>
      </trkpt>
      <trkpt lat="47.11398" lon="6.26894">
        <ele>666</ele>
        <time>2015-04-26T07:25:27.000Z</time>
      </trkpt>
      <trkpt lat="47.11372" lon="6.26917">
        <ele>683</ele>
        <time>2015-04-26T07:25:31.000Z</time>
      </trkpt>
      <trkpt lat="47.11364" lon="6.26923">
        <ele>683</ele>
        <time>2015-04-26T07:25:35.000Z</time>
      </trkpt>
      <trkpt lat="47.11364" lon="6.26923">
        <ele>683</ele>
        <time>2015-04-26T07:25:37.000Z</time>
      </trkpt>
      <trkpt lat="47.11364" lon="6.26923">
        <ele>683</ele>
        <time>2015-04-26T07:25:39.000Z</time>
      </trkpt>
      <trkpt lat="47.11364" lon="6.26923">
        <ele>683</ele>
        <time>2015-04-26T07:25:41.000Z</time>
      </trkpt>
      <trkpt lat="47.11364" lon="6.26923">
        <ele>683</ele>
        <time>2015-04-26T07:25:43.000Z</time>
      </trkpt>
      <trkpt lat="47.11364" lon="6.26923">
        <ele>683</ele>
        <time>2015-04-26T07:25:45.000Z</time>
      </trkpt>
      <trkpt lat="47.11364" lon="6.26923">
        <ele>683</ele>
        <time>2015-04-26T07:25:47.000Z</time>
      </trkpt>
      <trkpt lat="47.11364" lon="6.26923">
        <ele>683</ele>
        <time>2015-04-26T07:25:49.000Z</time>
      </trkpt>
      <trkpt lat="47.11364" lon="6.26923">
        <ele>683</ele>
        <time>2015-04-26T07:25:51.000Z</time>
      </trkpt>
      <trkpt lat="47.11364" lon="6.26923">
        <ele>683</ele>
        <time>2015-04-26T07:25:54.000Z</time>
      </trkpt>
      <trkpt lat="47.11364" lon="6.26923">
        <ele>683</ele>
        <time>2015-04-26T07:25:58.000Z</time>
      </trkpt>
      <trkpt lat="47.11364" lon="6.26923">
        <ele>683</ele>
        <time>2015-04-26T07:26:00.000Z</time>
      </trkpt>
      <trkpt lat="47.11364" lon="6.26923">
        <ele>683</ele>
        <time>2015-04-26T07:26:02.000Z</time>
      </trkpt>
      <trkpt lat="47.11364" lon="6.26923">
        <ele>683</ele>
        <time>2015-04-26T07:26:04.000Z</time>
      </trkpt>
      <trkpt lat="47.11364" lon="6.26923">
        <ele>683</ele>
        <time>2015-04-26T07:26:06.000Z</time>
      </trkpt>
      <trkpt lat="47.11301" lon="6.26972">
        <ele>708</ele>
        <time>2015-04-26T07:26:08.000Z</time>
      </trkpt>
      <trkpt lat="47.11279" lon="6.26956">
        <ele>701</ele>
        <time>2015-04-26T07:26:12.000Z</time>
      </trkpt>
      <trkpt lat="47.11264" lon="6.26943">
        <ele>702</ele>
        <time>2015-04-26T07:26:14.000Z</time>
      </trkpt>
      <trkpt lat="47.11248" lon="6.2693">
        <ele>691</ele>
        <time>2015-04-26T07:26:16.000Z</time>
      </trkpt>
      <trkpt lat="47.11229" lon="6.26915">
        <ele>692</ele>
        <time>2015-04-26T07:26:18.000Z</time>
      </trkpt>
      <trkpt lat="47.1121" lon="6.26902">
        <ele>686</ele>
        <time>2015-04-26T07:26:20.000Z</time>
      </trkpt>
      <trkpt lat="47.11192" lon="6.26886">
        <ele>680</ele>
        <time>2015-04-26T07:26:22.000Z</time>
      </trkpt>
      <trkpt lat="47.11176" lon="6.2687">
        <ele>675</ele>
        <time>2015-04-26T07:26:24.000Z</time>
      </trkpt>
      <trkpt lat="47.11162" lon="6.26855">
        <ele>671</ele>
        <time>2015-04-26T07:26:26.000Z</time>
      </trkpt>
      <trkpt lat="47.11149" lon="6.26837">
        <ele>674</ele>
        <time>2015-04-26T07:26:28.000Z</time>
      </trkpt>
      <trkpt lat="47.11135" lon="6.2682">
        <ele>671</ele>
        <time>2015-04-26T07:26:30.000Z</time>
      </trkpt>
      <trkpt lat="47.11127" lon="6.26799">
        <ele>669</ele>
        <time>2015-04-26T07:26:32.000Z</time>
      </trkpt>
      <trkpt lat="47.11121" lon="6.26782">
        <ele>663</ele>
        <time>2015-04-26T07:26:34.000Z</time>
      </trkpt>
      <trkpt lat="47.11113" lon="6.26766">
        <ele>666</ele>
        <time>2015-04-26T07:26:36.000Z</time>
      </trkpt>
      <trkpt lat="47.11105" lon="6.26751">
        <ele>666</ele>
        <time>2015-04-26T07:26:38.000Z</time>
      </trkpt>
      <trkpt lat="47.11098" lon="6.26732">
        <ele>664</ele>
        <time>2015-04-26T07:26:40.000Z</time>
      </trkpt>
      <trkpt lat="47.11098" lon="6.26732">
        <ele>664</ele>
        <time>2015-04-26T07:26:42.000Z</time>
      </trkpt>
      <trkpt lat="47.11098" lon="6.26732">
        <ele>664</ele>
        <time>2015-04-26T07:26:44.000Z</time>
      </trkpt>
      <trkpt lat="47.11098" lon="6.26732">
        <ele>664</ele>
        <time>2015-04-26T07:26:46.000Z</time>
      </trkpt>
      <trkpt lat="47.11098" lon="6.26732">
        <ele>664</ele>
        <time>2015-04-26T07:26:49.000Z</time>
      </trkpt>
      <trkpt lat="47.11098" lon="6.26732">
        <ele>664</ele>
        <time>2015-04-26T07:26:51.000Z</time>
      </trkpt>
      <trkpt lat="47.11098" lon="6.26732">
        <ele>664</ele>
        <time>2015-04-26T07:26:53.000Z</time>
      </trkpt>
      <trkpt lat="47.11089" lon="6.26709">
        <ele>670</ele>
        <time>2015-04-26T07:26:57.000Z</time>
      </trkpt>
      <trkpt lat="47.11082" lon="6.26701">
        <ele>668</ele>
        <time>2015-04-26T07:26:59.000Z</time>
      </trkpt>
      <trkpt lat="47.11075" lon="6.267">
        <ele>671</ele>
        <time>2015-04-26T07:27:01.000Z</time>
      </trkpt>
      <trkpt lat="47.11068" lon="6.26702">
        <ele>672</ele>
        <time>2015-04-26T07:27:03.000Z</time>
      </trkpt>
      <trkpt lat="47.11068" lon="6.26702">
        <ele>672</ele>
        <time>2015-04-26T07:27:05.000Z</time>
      </trkpt>
      <trkpt lat="47.11068" lon="6.26702">
        <ele>672</ele>
        <time>2015-04-26T07:27:07.000Z</time>
      </trkpt>
      <trkpt lat="47.11053" lon="6.26711">
        <ele>680</ele>
        <time>2015-04-26T07:27:10.000Z</time>
      </trkpt>
      <trkpt lat="47.11043" lon="6.26718">
        <ele>678</ele>
        <time>2015-04-26T07:27:12.000Z</time>
      </trkpt>
      <trkpt lat="47.11043" lon="6.26718">
        <ele>678</ele>
        <time>2015-04-26T07:27:14.000Z</time>
      </trkpt>
      <trkpt lat="47.11043" lon="6.26718">
        <ele>678</ele>
        <time>2015-04-26T07:27:16.000Z</time>
      </trkpt>
      <trkpt lat="47.11043" lon="6.26718">
        <ele>678</ele>
        <time>2015-04-26T07:27:18.000Z</time>
      </trkpt>
      <trkpt lat="47.11043" lon="6.26718">
        <ele>678</ele>
        <time>2015-04-26T07:27:21.000Z</time>
      </trkpt>
      <trkpt lat="47.11009" lon="6.26731">
        <ele>701</ele>
        <time>2015-04-26T07:27:25.000Z</time>
      </trkpt>
      <trkpt lat="47.10987" lon="6.2674">
        <ele>693</ele>
        <time>2015-04-26T07:27:27.000Z</time>
      </trkpt>
      <trkpt lat="47.10971" lon="6.26746">
        <ele>698</ele>
        <time>2015-04-26T07:27:29.000Z</time>
      </trkpt>
      <trkpt lat="47.10958" lon="6.26751">
        <ele>702</ele>
        <time>2015-04-26T07:27:31.000Z</time>
      </trkpt>
      <trkpt lat="47.10947" lon="6.26756">
        <ele>703</ele>
        <time>2015-04-26T07:27:33.000Z</time>
      </trkpt>
      <trkpt lat="47.10947" lon="6.26756">
        <ele>703</ele>
        <time>2015-04-26T07:27:35.000Z</time>
      </trkpt>
      <trkpt lat="47.10947" lon="6.26756">
        <ele>703</ele>
        <time>2015-04-26T07:27:37.000Z</time>
      </trkpt>
      <trkpt lat="47.10947" lon="6.26756">
        <ele>703</ele>
        <time>2015-04-26T07:27:39.000Z</time>
      </trkpt>
      <trkpt lat="47.10947" lon="6.26756">
        <ele>703</ele>
        <time>2015-04-26T07:27:41.000Z</time>
      </trkpt>
      <trkpt lat="47.10893" lon="6.2679">
        <ele>690</ele>
        <time>2015-04-26T07:27:43.000Z</time>
      </trkpt>
      <trkpt lat="47.10884" lon="6.26799">
        <ele>692</ele>
        <time>2015-04-26T07:27:45.000Z</time>
      </trkpt>
      <trkpt lat="47.10877" lon="6.2681">
        <ele>689</ele>
        <time>2015-04-26T07:27:47.000Z</time>
      </trkpt>
      <trkpt lat="47.10871" lon="6.26821">
        <ele>692</ele>
        <time>2015-04-26T07:27:49.000Z</time>
      </trkpt>
      <trkpt lat="47.10865" lon="6.26831">
        <ele>688</ele>
        <time>2015-04-26T07:27:51.000Z</time>
      </trkpt>
      <trkpt lat="47.10859" lon="6.26841">
        <ele>687</ele>
        <time>2015-04-26T07:27:53.000Z</time>
      </trkpt>
      <trkpt lat="47.10854" lon="6.26852">
        <ele>688</ele>
        <time>2015-04-26T07:27:55.000Z</time>
      </trkpt>
      <trkpt lat="47.10846" lon="6.26874">
        <ele>689</ele>
        <time>2015-04-26T07:27:59.000Z</time>
      </trkpt>
      <trkpt lat="47.10841" lon="6.26885">
        <ele>685</ele>
        <time>2015-04-26T07:28:01.000Z</time>
      </trkpt>
      <trkpt lat="47.10841" lon="6.26885">
        <ele>685</ele>
        <time>2015-04-26T07:28:03.000Z</time>
      </trkpt>
      <trkpt lat="47.10841" lon="6.26885">
        <ele>685</ele>
        <time>2015-04-26T07:28:05.000Z</time>
      </trkpt>
      <trkpt lat="47.10841" lon="6.26885">
        <ele>685</ele>
        <time>2015-04-26T07:28:07.000Z</time>
      </trkpt>
      <trkpt lat="47.10841" lon="6.26885">
        <ele>685</ele>
        <time>2015-04-26T07:28:13.000Z</time>
      </trkpt>
      <trkpt lat="47.10841" lon="6.26885">
        <ele>685</ele>
        <time>2015-04-26T07:28:15.000Z</time>
      </trkpt>
      <trkpt lat="47.10841" lon="6.26885">
        <ele>685</ele>
        <time>2015-04-26T07:28:17.000Z</time>
      </trkpt>
      <trkpt lat="47.10809" lon="6.27008">
        <ele>689</ele>
        <time>2015-04-26T07:28:21.000Z</time>
      </trkpt>
      <trkpt lat="47.10805" lon="6.27022">
        <ele>680</ele>
        <time>2015-04-26T07:28:23.000Z</time>
      </trkpt>
      <trkpt lat="47.10797" lon="6.27044">
        <ele>685</ele>
        <time>2015-04-26T07:28:27.000Z</time>
      </trkpt>
      <trkpt lat="47.10789" lon="6.27065">
        <ele>684</ele>
        <time>2015-04-26T07:28:31.000Z</time>
      </trkpt>
      <trkpt lat="47.10785" lon="6.27076">
        <ele>686</ele>
        <time>2015-04-26T07:28:33.000Z</time>
      </trkpt>
      <trkpt lat="47.10775" lon="6.27097">
        <ele>685</ele>
        <time>2015-04-26T07:28:37.000Z</time>
      </trkpt>
      <trkpt lat="47.1077" lon="6.27107">
        <ele>690</ele>
        <time>2015-04-26T07:28:39.000Z</time>
      </trkpt>
      <trkpt lat="47.1076" lon="6.27126">
        <ele>688</ele>
        <time>2015-04-26T07:28:43.000Z</time>
      </trkpt>
      <trkpt lat="47.1076" lon="6.27126">
        <ele>688</ele>
        <time>2015-04-26T07:28:45.000Z</time>
      </trkpt>
      <trkpt lat="47.1076" lon="6.27126">
        <ele>688</ele>
        <time>2015-04-26T07:28:47.000Z</time>
      </trkpt>
      <trkpt lat="47.1076" lon="6.27126">
        <ele>688</ele>
        <time>2015-04-26T07:28:49.000Z</time>
      </trkpt>
      <trkpt lat="47.1076" lon="6.27126">
        <ele>688</ele>
        <time>2015-04-26T07:28:53.000Z</time>
      </trkpt>
      <trkpt lat="47.1076" lon="6.27126">
        <ele>688</ele>
        <time>2015-04-26T07:28:55.000Z</time>
      </trkpt>
      <trkpt lat="47.1076" lon="6.27126">
        <ele>688</ele>
        <time>2015-04-26T07:28:57.000Z</time>
      </trkpt>
      <trkpt lat="47.1076" lon="6.27126">
        <ele>688</ele>
        <time>2015-04-26T07:28:59.000Z</time>
      </trkpt>
      <trkpt lat="47.1076" lon="6.27126">
        <ele>688</ele>
        <time>2015-04-26T07:29:01.000Z</time>
      </trkpt>
      <trkpt lat="47.1076" lon="6.27126">
        <ele>688</ele>
        <time>2015-04-26T07:29:03.000Z</time>
      </trkpt>
      <trkpt lat="47.10725" lon="6.2718">
        <ele>684</ele>
        <time>2015-04-26T07:29:09.000Z</time>
      </trkpt>
      <trkpt lat="47.10704" lon="6.2721">
        <ele>679</ele>
        <time>2015-04-26T07:29:11.000Z</time>
      </trkpt>
      <trkpt lat="47.10692" lon="6.27229">
        <ele>680</ele>
        <time>2015-04-26T07:29:13.000Z</time>
      </trkpt>
      <trkpt lat="47.10683" lon="6.27243">
        <ele>682</ele>
        <time>2015-04-26T07:29:15.000Z</time>
      </trkpt>
      <trkpt lat="47.10683" lon="6.27243">
        <ele>682</ele>
        <time>2015-04-26T07:29:17.000Z</time>
      </trkpt>
      <trkpt lat="47.10683" lon="6.27243">
        <ele>682</ele>
        <time>2015-04-26T07:29:19.000Z</time>
      </trkpt>
      <trkpt lat="47.10683" lon="6.27243">
        <ele>682</ele>
        <time>2015-04-26T07:29:21.000Z</time>
      </trkpt>
      <trkpt lat="47.10683" lon="6.27243">
        <ele>682</ele>
        <time>2015-04-26T07:29:23.000Z</time>
      </trkpt>
      <trkpt lat="47.10683" lon="6.27243">
        <ele>682</ele>
        <time>2015-04-26T07:29:25.000Z</time>
      </trkpt>
      <trkpt lat="47.10683" lon="6.27243">
        <ele>682</ele>
        <time>2015-04-26T07:29:28.000Z</time>
      </trkpt>
      <trkpt lat="47.10683" lon="6.27243">
        <ele>682</ele>
        <time>2015-04-26T07:29:32.000Z</time>
      </trkpt>
      <trkpt lat="47.1067" lon="6.27273">
        <ele>697</ele>
        <time>2015-04-26T07:29:34.000Z</time>
      </trkpt>
      <trkpt lat="47.1066" lon="6.27286">
        <ele>698</ele>
        <time>2015-04-26T07:29:36.000Z</time>
      </trkpt>
      <trkpt lat="47.10652" lon="6.27289">
        <ele>701</ele>
        <time>2015-04-26T07:29:38.000Z</time>
      </trkpt>
      <trkpt lat="47.10645" lon="6.27288">
        <ele>694</ele>
        <time>2015-04-26T07:29:40.000Z</time>
      </trkpt>
      <trkpt lat="47.1064" lon="6.27284">
        <ele>697</ele>
        <time>2015-04-26T07:29:42.000Z</time>
      </trkpt>
      <trkpt lat="47.1064" lon="6.27284">
        <ele>697</ele>
        <time>2015-04-26T07:29:44.000Z</time>
      </trkpt>
      <trkpt lat="47.1064" lon="6.27284">
        <ele>697</ele>
        <time>2015-04-26T07:29:47.000Z</time>
      </trkpt>
      <trkpt lat="47.10614" lon="6.2726">
        <ele>693</ele>
        <time>2015-04-26T07:29:49.000Z</time>
      </trkpt>
      <trkpt lat="47.10604" lon="6.27251">
        <ele>701</ele>
        <time>2015-04-26T07:29:53.000Z</time>
      </trkpt>
      <trkpt lat="47.10604" lon="6.27251">
        <ele>701</ele>
        <time>2015-04-26T07:29:57.000Z</time>
      </trkpt>
      <trkpt lat="47.10571" lon="6.27225">
        <ele>688</ele>
        <time>2015-04-26T07:30:04.000Z</time>
      </trkpt>
      <trkpt lat="47.10563" lon="6.27218">
        <ele>686</ele>
        <time>2015-04-26T07:30:06.000Z</time>
      </trkpt>
      <trkpt lat="47.10553" lon="6.27213">
        <ele>688</ele>
        <time>2015-04-26T07:30:08.000Z</time>
      </trkpt>
      <trkpt lat="47.10543" lon="6.27208">
        <ele>685</ele>
        <time>2015-04-26T07:30:10.000Z</time>
      </trkpt>
      <trkpt lat="47.10534" lon="6.27199">
        <ele>684</ele>
        <time>2015-04-26T07:30:12.000Z</time>
      </trkpt>
      <trkpt lat="47.10525" lon="6.27184">
        <ele>687</ele>
        <time>2015-04-26T07:30:14.000Z</time>
      </trkpt>
      <trkpt lat="47.10525" lon="6.27184">
        <ele>687</ele>
        <time>2015-04-26T07:30:16.000Z</time>
      </trkpt>
      <trkpt lat="47.10525" lon="6.27184">
        <ele>687</ele>
        <time>2015-04-26T07:30:18.000Z</time>
      </trkpt>
      <trkpt lat="47.10525" lon="6.27184">
        <ele>687</ele>
        <time>2015-04-26T07:30:20.000Z</time>
      </trkpt>
      <trkpt lat="47.10525" lon="6.27184">
        <ele>687</ele>
        <time>2015-04-26T07:30:22.000Z</time>
      </trkpt>
      <trkpt lat="47.10525" lon="6.27184">
        <ele>687</ele>
        <time>2015-04-26T07:30:28.000Z</time>
      </trkpt>
      <trkpt lat="47.10525" lon="6.27184">
        <ele>687</ele>
        <time>2015-04-26T07:30:30.000Z</time>
      </trkpt>
      <trkpt lat="47.10525" lon="6.27184">
        <ele>687</ele>
        <time>2015-04-26T07:30:32.000Z</time>
      </trkpt>
      <trkpt lat="47.10525" lon="6.27184">
        <ele>687</ele>
        <time>2015-04-26T07:30:34.000Z</time>
      </trkpt>
      <trkpt lat="47.10525" lon="6.27184">
        <ele>687</ele>
        <time>2015-04-26T07:30:37.000Z</time>
      </trkpt>
      <trkpt lat="47.10456" lon="6.27074">
        <ele>676</ele>
        <time>2015-04-26T07:30:41.000Z</time>
      </trkpt>
      <trkpt lat="47.10452" lon="6.2706">
        <ele>685</ele>
        <time>2015-04-26T07:30:44.000Z</time>
      </trkpt>
      <trkpt lat="47.10452" lon="6.2706">
        <ele>685</ele>
        <time>2015-04-26T07:30:46.000Z</time>
      </trkpt>
      <trkpt lat="47.10452" lon="6.2706">
        <ele>685</ele>
        <time>2015-04-26T07:30:49.000Z</time>
      </trkpt>
      <trkpt lat="47.10452" lon="6.2706">
        <ele>685</ele>
        <time>2015-04-26T07:30:52.000Z</time>
      </trkpt>
      <trkpt lat="47.10436" lon="6.27013">
        <ele>675</ele>
        <time>2015-04-26T07:30:54.000Z</time>
      </trkpt>
      <trkpt lat="47.10434" lon="6.26999">
        <ele>675</ele>
        <time>2015-04-26T07:30:58.000Z</time>
      </trkpt>
      <trkpt lat="47.10434" lon="6.26999">
        <ele>675</ele>
        <time>2015-04-26T07:31:03.000Z</time>
      </trkpt>
      <trkpt lat="47.10422" lon="6.26977">
        <ele>673</ele>
        <time>2015-04-26T07:31:07.000Z</time>
      </trkpt>
      <trkpt lat="47.10415" lon="6.26965">
        <ele>682</ele>
        <time>2015-04-26T07:31:13.000Z</time>
      </trkpt>
      <trkpt lat="47.10415" lon="6.26965">
        <ele>682</ele>
        <time>2015-04-26T07:31:18.000Z</time>
      </trkpt>
      <trkpt lat="47.104" lon="6.26947">
        <ele>693</ele>
        <time>2015-04-26T07:31:24.000Z</time>
      </trkpt>
      <trkpt lat="47.10381" lon="6.26937">
        <ele>694</ele>
        <time>2015-04-26T07:31:30.000Z</time>
      </trkpt>
      <trkpt lat="47.10381" lon="6.26937">
        <ele>694</ele>
        <time>2015-04-26T07:31:33.000Z</time>
      </trkpt>
      <trkpt lat="47.10381" lon="6.26937">
        <ele>694</ele>
        <time>2015-04-26T07:31:35.000Z</time>
      </trkpt>
      <trkpt lat="47.10381" lon="6.26937">
        <ele>694</ele>
        <time>2015-04-26T07:31:37.000Z</time>
      </trkpt>
      <trkpt lat="47.10381" lon="6.26937">
        <ele>694</ele>
        <time>2015-04-26T07:31:39.000Z</time>
      </trkpt>
      <trkpt lat="47.10381" lon="6.26937">
        <ele>694</ele>
        <time>2015-04-26T07:31:41.000Z</time>
      </trkpt>
      <trkpt lat="47.10381" lon="6.26937">
        <ele>694</ele>
        <time>2015-04-26T07:31:43.000Z</time>
      </trkpt>
      <trkpt lat="47.10381" lon="6.26937">
        <ele>694</ele>
        <time>2015-04-26T07:31:45.000Z</time>
      </trkpt>
      <trkpt lat="47.10381" lon="6.26937">
        <ele>694</ele>
        <time>2015-04-26T07:31:47.000Z</time>
      </trkpt>
      <trkpt lat="47.10381" lon="6.26937">
        <ele>694</ele>
        <time>2015-04-26T07:31:49.000Z</time>
      </trkpt>
      <trkpt lat="47.10381" lon="6.26937">
        <ele>694</ele>
        <time>2015-04-26T07:31:51.000Z</time>
      </trkpt>
      <trkpt lat="47.10381" lon="6.26937">
        <ele>694</ele>
        <time>2015-04-26T07:31:53.000Z</time>
      </trkpt>
      <trkpt lat="47.10381" lon="6.26937">
        <ele>694</ele>
        <time>2015-04-26T07:31:55.000Z</time>
      </trkpt>
      <trkpt lat="47.10356" lon="6.26922">
        <ele>706</ele>
        <time>2015-04-26T07:31:59.000Z</time>
      </trkpt>
      <trkpt lat="47.10341" lon="6.26912">
        <ele>706</ele>
        <time>2015-04-26T07:32:01.000Z</time>
      </trkpt>
      <trkpt lat="47.10332" lon="6.26905">
        <ele>698</ele>
        <time>2015-04-26T07:32:03.000Z</time>
      </trkpt>
      <trkpt lat="47.10327" lon="6.26901">
        <ele>700</ele>
        <time>2015-04-26T07:32:05.000Z</time>
      </trkpt>
      <trkpt lat="47.10327" lon="6.26901">
        <ele>700</ele>
        <time>2015-04-26T07:32:07.000Z</time>
      </trkpt>
      <trkpt lat="47.10327" lon="6.26901">
        <ele>700</ele>
        <time>2015-04-26T07:32:09.000Z</time>
      </trkpt>
      <trkpt lat="47.10327" lon="6.26901">
        <ele>700</ele>
        <time>2015-04-26T07:32:13.000Z</time>
      </trkpt>
      <trkpt lat="47.10327" lon="6.26901">
        <ele>700</ele>
        <time>2015-04-26T07:32:15.000Z</time>
      </trkpt>
      <trkpt lat="47.10327" lon="6.26901">
        <ele>700</ele>
        <time>2015-04-26T07:32:17.000Z</time>
      </trkpt>
      <trkpt lat="47.10327" lon="6.26901">
        <ele>700</ele>
        <time>2015-04-26T07:32:19.000Z</time>
      </trkpt>
      <trkpt lat="47.10327" lon="6.26901">
        <ele>700</ele>
        <time>2015-04-26T07:32:27.000Z</time>
      </trkpt>
      <trkpt lat="47.10304" lon="6.26868">
        <ele>696</ele>
        <time>2015-04-26T07:32:41.000Z</time>
      </trkpt>
      <trkpt lat="47.10291" lon="6.2685">
        <ele>697</ele>
        <time>2015-04-26T07:32:43.000Z</time>
      </trkpt>
      <trkpt lat="47.10282" lon="6.26839">
        <ele>698</ele>
        <time>2015-04-26T07:32:45.000Z</time>
      </trkpt>
      <trkpt lat="47.10276" lon="6.26831">
        <ele>704</ele>
        <time>2015-04-26T07:32:47.000Z</time>
      </trkpt>
      <trkpt lat="47.1027" lon="6.26826">
        <ele>698</ele>
        <time>2015-04-26T07:32:49.000Z</time>
      </trkpt>
      <trkpt lat="47.10261" lon="6.26819">
        <ele>699</ele>
        <time>2015-04-26T07:32:51.000Z</time>
      </trkpt>
      <trkpt lat="47.10261" lon="6.26819">
        <ele>699</ele>
        <time>2015-04-26T07:32:57.000Z</time>
      </trkpt>
      <trkpt lat="47.10261" lon="6.26819">
        <ele>699</ele>
        <time>2015-04-26T07:32:59.000Z</time>
      </trkpt>
      <trkpt lat="47.10261" lon="6.26819">
        <ele>699</ele>
        <time>2015-04-26T07:33:01.000Z</time>
      </trkpt>
      <trkpt lat="47.10261" lon="6.26819">
        <ele>699</ele>
        <time>2015-04-26T07:33:03.000Z</time>
      </trkpt>
      <trkpt lat="47.10261" lon="6.26819">
        <ele>699</ele>
        <time>2015-04-26T07:33:05.000Z</time>
      </trkpt>
      <trkpt lat="47.10261" lon="6.26819">
        <ele>699</ele>
        <time>2015-04-26T07:33:07.000Z</time>
      </trkpt>
      <trkpt lat="47.10229" lon="6.26815">
        <ele>715</ele>
        <time>2015-04-26T07:33:21.000Z</time>
      </trkpt>
      <trkpt lat="47.10229" lon="6.26815">
        <ele>715</ele>
        <time>2015-04-26T07:33:23.000Z</time>
      </trkpt>
      <trkpt lat="47.10229" lon="6.26815">
        <ele>715</ele>
        <time>2015-04-26T07:33:25.000Z</time>
      </trkpt>
      <trkpt lat="47.10229" lon="6.26815">
        <ele>715</ele>
        <time>2015-04-26T07:33:27.000Z</time>
      </trkpt>
      <trkpt lat="47.10193" lon="6.26846">
        <ele>732</ele>
        <time>2015-04-26T07:33:49.000Z</time>
      </trkpt>
      <trkpt lat="47.10189" lon="6.26859">
        <ele>737</ele>
        <time>2015-04-26T07:33:55.000Z</time>
      </trkpt>
      <trkpt lat="47.10189" lon="6.26859">
        <ele>737</ele>
        <time>2015-04-26T07:34:05.000Z</time>
      </trkpt>
      <trkpt lat="47.10189" lon="6.26859">
        <ele>737</ele>
        <time>2015-04-26T07:34:07.000Z</time>
      </trkpt>
      <trkpt lat="47.10177" lon="6.2687">
        <ele>747</ele>
        <time>2015-04-26T07:34:13.000Z</time>
      </trkpt>
      <trkpt lat="47.1017" lon="6.26877">
        <ele>746</ele>
        <time>2015-04-26T07:34:15.000Z</time>
      </trkpt>
      <trkpt lat="47.10165" lon="6.26881">
        <ele>743</ele>
        <time>2015-04-26T07:34:17.000Z</time>
      </trkpt>
      <trkpt lat="47.10161" lon="6.26883">
        <ele>750</ele>
        <time>2015-04-26T07:34:19.000Z</time>
      </trkpt>
      <trkpt lat="47.10157" lon="6.26879">
        <ele>749</ele>
        <time>2015-04-26T07:34:23.000Z</time>
      </trkpt>
      <trkpt lat="47.10154" lon="6.26871">
        <ele>743</ele>
        <time>2015-04-26T07:34:27.000Z</time>
      </trkpt>
      <trkpt lat="47.10151" lon="6.26865">
        <ele>738</ele>
        <time>2015-04-26T07:34:29.000Z</time>
      </trkpt>
      <trkpt lat="47.10149" lon="6.26858">
        <ele>741</ele>
        <time>2015-04-26T07:34:33.000Z</time>
      </trkpt>
      <trkpt lat="47.10149" lon="6.26858">
        <ele>741</ele>
        <time>2015-04-26T07:34:35.000Z</time>
      </trkpt>
      <trkpt lat="47.10149" lon="6.26858">
        <ele>741</ele>
        <time>2015-04-26T07:34:37.000Z</time>
      </trkpt>
      <trkpt lat="47.10149" lon="6.26858">
        <ele>741</ele>
        <time>2015-04-26T07:34:39.000Z</time>
      </trkpt>
      <trkpt lat="47.10149" lon="6.26858">
        <ele>741</ele>
        <time>2015-04-26T07:34:41.000Z</time>
      </trkpt>
      <trkpt lat="47.10149" lon="6.26858">
        <ele>741</ele>
        <time>2015-04-26T07:34:43.000Z</time>
      </trkpt>
      <trkpt lat="47.10136" lon="6.26845">
        <ele>740</ele>
        <time>2015-04-26T07:34:49.000Z</time>
      </trkpt>
      <trkpt lat="47.10127" lon="6.26836">
        <ele>740</ele>
        <time>2015-04-26T07:34:51.000Z</time>
      </trkpt>
      <trkpt lat="47.10121" lon="6.2683">
        <ele>735</ele>
        <time>2015-04-26T07:34:53.000Z</time>
      </trkpt>
      <trkpt lat="47.10116" lon="6.26825">
        <ele>733</ele>
        <time>2015-04-26T07:34:55.000Z</time>
      </trkpt>
      <trkpt lat="47.10112" lon="6.26821">
        <ele>733</ele>
        <time>2015-04-26T07:34:57.000Z</time>
      </trkpt>
      <trkpt lat="47.10104" lon="6.26813">
        <ele>732</ele>
        <time>2015-04-26T07:34:59.000Z</time>
      </trkpt>
      <trkpt lat="47.10098" lon="6.26803">
        <ele>728</ele>
        <time>2015-04-26T07:35:03.000Z</time>
      </trkpt>
      <trkpt lat="47.10088" lon="6.26793">
        <ele>730</ele>
        <time>2015-04-26T07:35:07.000Z</time>
      </trkpt>
      <trkpt lat="47.10078" lon="6.26782">
        <ele>726</ele>
        <time>2015-04-26T07:35:13.000Z</time>
      </trkpt>
      <trkpt lat="47.10078" lon="6.26782">
        <ele>726</ele>
        <time>2015-04-26T07:35:15.000Z</time>
      </trkpt>
      <trkpt lat="47.10078" lon="6.26782">
        <ele>726</ele>
        <time>2015-04-26T07:35:17.000Z</time>
      </trkpt>
      <trkpt lat="47.10078" lon="6.26782">
        <ele>726</ele>
        <time>2015-04-26T07:35:19.000Z</time>
      </trkpt>
      <trkpt lat="47.10078" lon="6.26782">
        <ele>726</ele>
        <time>2015-04-26T07:35:21.000Z</time>
      </trkpt>
      <trkpt lat="47.10078" lon="6.26782">
        <ele>726</ele>
        <time>2015-04-26T07:35:23.000Z</time>
      </trkpt>
      <trkpt lat="47.10078" lon="6.26782">
        <ele>726</ele>
        <time>2015-04-26T07:35:25.000Z</time>
      </trkpt>
      <trkpt lat="47.10053" lon="6.2675">
        <ele>697</ele>
        <time>2015-04-26T07:35:29.000Z</time>
      </trkpt>
      <trkpt lat="47.10046" lon="6.26732">
        <ele>699</ele>
        <time>2015-04-26T07:35:35.000Z</time>
      </trkpt>
      <trkpt lat="47.10038" lon="6.26718">
        <ele>695</ele>
        <time>2015-04-26T07:35:39.000Z</time>
      </trkpt>
      <trkpt lat="47.10032" lon="6.26704">
        <ele>702</ele>
        <time>2015-04-26T07:35:41.000Z</time>
      </trkpt>
      <trkpt lat="47.10022" lon="6.2669">
        <ele>712</ele>
        <time>2015-04-26T07:35:43.000Z</time>
      </trkpt>
      <trkpt lat="47.10015" lon="6.26676">
        <ele>708</ele>
        <time>2015-04-26T07:35:45.000Z</time>
      </trkpt>
      <trkpt lat="47.10006" lon="6.26663">
        <ele>718</ele>
        <time>2015-04-26T07:35:47.000Z</time>
      </trkpt>
      <trkpt lat="47.09998" lon="6.26652">
        <ele>717</ele>
        <time>2015-04-26T07:35:49.000Z</time>
      </trkpt>
      <trkpt lat="47.0999" lon="6.26641">
        <ele>717</ele>
        <time>2015-04-26T07:35:51.000Z</time>
      </trkpt>
      <trkpt lat="47.09982" lon="6.26626">
        <ele>714</ele>
        <time>2015-04-26T07:35:53.000Z</time>
      </trkpt>
      <trkpt lat="47.09975" lon="6.26611">
        <ele>710</ele>
        <time>2015-04-26T07:35:55.000Z</time>
      </trkpt>
      <trkpt lat="47.09969" lon="6.26595">
        <ele>713</ele>
        <time>2015-04-26T07:35:57.000Z</time>
      </trkpt>
      <trkpt lat="47.09961" lon="6.26581">
        <ele>713</ele>
        <time>2015-04-26T07:35:59.000Z</time>
      </trkpt>
      <trkpt lat="47.09951" lon="6.26568">
        <ele>710</ele>
        <time>2015-04-26T07:36:01.000Z</time>
      </trkpt>
      <trkpt lat="47.09941" lon="6.26553">
        <ele>707</ele>
        <time>2015-04-26T07:36:03.000Z</time>
      </trkpt>
      <trkpt lat="47.0993" lon="6.26537">
        <ele>705</ele>
        <time>2015-04-26T07:36:05.000Z</time>
      </trkpt>
      <trkpt lat="47.09917" lon="6.26521">
        <ele>703</ele>
        <time>2015-04-26T07:36:08.000Z</time>
      </trkpt>
      <trkpt lat="47.09895" lon="6.26502">
        <ele>698</ele>
        <time>2015-04-26T07:36:11.000Z</time>
      </trkpt>
      <trkpt lat="47.09883" lon="6.2649">
        <ele>697</ele>
        <time>2015-04-26T07:36:13.000Z</time>
      </trkpt>
      <trkpt lat="47.09873" lon="6.26476">
        <ele>692</ele>
        <time>2015-04-26T07:36:15.000Z</time>
      </trkpt>
      <trkpt lat="47.09866" lon="6.26458">
        <ele>701</ele>
        <time>2015-04-26T07:36:17.000Z</time>
      </trkpt>
      <trkpt lat="47.09856" lon="6.26443">
        <ele>702</ele>
        <time>2015-04-26T07:36:19.000Z</time>
      </trkpt>
      <trkpt lat="47.09848" lon="6.26425">
        <ele>701</ele>
        <time>2015-04-26T07:36:21.000Z</time>
      </trkpt>
      <trkpt lat="47.09838" lon="6.26411">
        <ele>702</ele>
        <time>2015-04-26T07:36:23.000Z</time>
      </trkpt>
      <trkpt lat="47.09827" lon="6.264">
        <ele>703</ele>
        <time>2015-04-26T07:36:25.000Z</time>
      </trkpt>
      <trkpt lat="47.09817" lon="6.26389">
        <ele>705</ele>
        <time>2015-04-26T07:36:27.000Z</time>
      </trkpt>
      <trkpt lat="47.09809" lon="6.26378">
        <ele>706</ele>
        <time>2015-04-26T07:36:29.000Z</time>
      </trkpt>
      <trkpt lat="47.09809" lon="6.26378">
        <ele>706</ele>
        <time>2015-04-26T07:36:33.000Z</time>
      </trkpt>
      <trkpt lat="47.09809" lon="6.26378">
        <ele>706</ele>
        <time>2015-04-26T07:36:36.000Z</time>
      </trkpt>
      <trkpt lat="47.09809" lon="6.26378">
        <ele>706</ele>
        <time>2015-04-26T07:36:38.000Z</time>
      </trkpt>
      <trkpt lat="47.09809" lon="6.26378">
        <ele>706</ele>
        <time>2015-04-26T07:36:40.000Z</time>
      </trkpt>
      <trkpt lat="47.09809" lon="6.26378">
        <ele>706</ele>
        <time>2015-04-26T07:36:42.000Z</time>
      </trkpt>
      <trkpt lat="47.09809" lon="6.26378">
        <ele>706</ele>
        <time>2015-04-26T07:36:44.000Z</time>
      </trkpt>
      <trkpt lat="47.09809" lon="6.26378">
        <ele>706</ele>
        <time>2015-04-26T07:36:46.000Z</time>
      </trkpt>
      <trkpt lat="47.09809" lon="6.26378">
        <ele>706</ele>
        <time>2015-04-26T07:36:50.000Z</time>
      </trkpt>
      <trkpt lat="47.09809" lon="6.26378">
        <ele>706</ele>
        <time>2015-04-26T07:36:52.000Z</time>
      </trkpt>
      <trkpt lat="47.09809" lon="6.26378">
        <ele>706</ele>
        <time>2015-04-26T07:36:54.000Z</time>
      </trkpt>
      <trkpt lat="47.09742" lon="6.26253">
        <ele>716</ele>
        <time>2015-04-26T07:37:06.000Z</time>
      </trkpt>
      <trkpt lat="47.09743" lon="6.26239">
        <ele>718</ele>
        <time>2015-04-26T07:37:14.000Z</time>
      </trkpt>
      <trkpt lat="47.09728" lon="6.26222">
        <ele>739</ele>
        <time>2015-04-26T07:37:40.000Z</time>
      </trkpt>
      <trkpt lat="47.09721" lon="6.26212">
        <ele>734</ele>
        <time>2015-04-26T07:37:50.000Z</time>
      </trkpt>
      <trkpt lat="47.09715" lon="6.26201">
        <ele>729</ele>
        <time>2015-04-26T07:38:44.000Z</time>
      </trkpt>
      <trkpt lat="47.09705" lon="6.26197">
        <ele>734</ele>
        <time>2015-04-26T07:38:49.000Z</time>
      </trkpt>
      <trkpt lat="47.09705" lon="6.26197">
        <ele>734</ele>
        <time>2015-04-26T07:38:52.000Z</time>
      </trkpt>
      <trkpt lat="47.09705" lon="6.26197">
        <ele>734</ele>
        <time>2015-04-26T07:38:54.000Z</time>
      </trkpt>
      <trkpt lat="47.09685" lon="6.26187">
        <ele>734</ele>
        <time>2015-04-26T07:38:58.000Z</time>
      </trkpt>
      <trkpt lat="47.09677" lon="6.26179">
        <ele>737</ele>
        <time>2015-04-26T07:39:03.000Z</time>
      </trkpt>
      <trkpt lat="47.09669" lon="6.26168">
        <ele>738</ele>
        <time>2015-04-26T07:39:08.000Z</time>
      </trkpt>
      <trkpt lat="47.09659" lon="6.26161">
        <ele>737</ele>
        <time>2015-04-26T07:39:14.000Z</time>
      </trkpt>
      <trkpt lat="47.09659" lon="6.26161">
        <ele>737</ele>
        <time>2015-04-26T07:39:18.000Z</time>
      </trkpt>
      <trkpt lat="47.09642" lon="6.2615">
        <ele>746</ele>
        <time>2015-04-26T07:39:22.000Z</time>
      </trkpt>
      <trkpt lat="47.09634" lon="6.26139">
        <ele>744</ele>
        <time>2015-04-26T07:39:26.000Z</time>
      </trkpt>
      <trkpt lat="47.09627" lon="6.26111">
        <ele>734</ele>
        <time>2015-04-26T07:39:34.000Z</time>
      </trkpt>
      <trkpt lat="47.09625" lon="6.26095">
        <ele>736</ele>
        <time>2015-04-26T07:39:38.000Z</time>
      </trkpt>
      <trkpt lat="47.09623" lon="6.26079">
        <ele>733</ele>
        <time>2015-04-26T07:39:42.000Z</time>
      </trkpt>
      <trkpt lat="47.09621" lon="6.26062">
        <ele>734</ele>
        <time>2015-04-26T07:39:46.000Z</time>
      </trkpt>
      <trkpt lat="47.09621" lon="6.26062">
        <ele>734</ele>
        <time>2015-04-26T07:39:48.000Z</time>
      </trkpt>
      <trkpt lat="47.09621" lon="6.26062">
        <ele>734</ele>
        <time>2015-04-26T07:39:50.000Z</time>
      </trkpt>
      <trkpt lat="47.09621" lon="6.26062">
        <ele>734</ele>
        <time>2015-04-26T07:39:52.000Z</time>
      </trkpt>
      <trkpt lat="47.09616" lon="6.2604">
        <ele>737</ele>
        <time>2015-04-26T07:39:57.000Z</time>
      </trkpt>
      <trkpt lat="47.09611" lon="6.26023">
        <ele>730</ele>
        <time>2015-04-26T07:40:01.000Z</time>
      </trkpt>
      <trkpt lat="47.09606" lon="6.26007">
        <ele>730</ele>
        <time>2015-04-26T07:40:06.000Z</time>
      </trkpt>
      <trkpt lat="47.09601" lon="6.25992">
        <ele>733</ele>
        <time>2015-04-26T07:40:10.000Z</time>
      </trkpt>
      <trkpt lat="47.09597" lon="6.25978">
        <ele>731</ele>
        <time>2015-04-26T07:40:14.000Z</time>
      </trkpt>
      <trkpt lat="47.09591" lon="6.25949">
        <ele>733</ele>
        <time>2015-04-26T07:40:17.000Z</time>
      </trkpt>
      <trkpt lat="47.0959" lon="6.25934">
        <ele>727</ele>
        <time>2015-04-26T07:40:20.000Z</time>
      </trkpt>
      <trkpt lat="47.09591" lon="6.25918">
        <ele>726</ele>
        <time>2015-04-26T07:40:23.000Z</time>
      </trkpt>
      <trkpt lat="47.09591" lon="6.25918">
        <ele>726</ele>
        <time>2015-04-26T07:40:26.000Z</time>
      </trkpt>
      <trkpt lat="47.09591" lon="6.25918">
        <ele>726</ele>
        <time>2015-04-26T07:40:30.000Z</time>
      </trkpt>
      <trkpt lat="47.09591" lon="6.25918">
        <ele>726</ele>
        <time>2015-04-26T07:40:38.000Z</time>
      </trkpt>
      <trkpt lat="47.09594" lon="6.25817">
        <ele>728</ele>
        <time>2015-04-26T07:40:45.000Z</time>
      </trkpt>
      <trkpt lat="47.09585" lon="6.25819">
        <ele>727</ele>
        <time>2015-04-26T07:40:57.000Z</time>
      </trkpt>
      <trkpt lat="47.09575" lon="6.2583">
        <ele>731</ele>
        <time>2015-04-26T07:41:01.000Z</time>
      </trkpt>
      <trkpt lat="47.09563" lon="6.2584">
        <ele>732</ele>
        <time>2015-04-26T07:41:05.000Z</time>
      </trkpt>
      <trkpt lat="47.09551" lon="6.25854">
        <ele>737</ele>
        <time>2015-04-26T07:41:09.000Z</time>
      </trkpt>
      <trkpt lat="47.09544" lon="6.25861">
        <ele>736</ele>
        <time>2015-04-26T07:41:11.000Z</time>
      </trkpt>
      <trkpt lat="47.09536" lon="6.25869">
        <ele>733</ele>
        <time>2015-04-26T07:41:13.000Z</time>
      </trkpt>
      <trkpt lat="47.09528" lon="6.25876">
        <ele>731</ele>
        <time>2015-04-26T07:41:15.000Z</time>
      </trkpt>
      <trkpt lat="47.0952" lon="6.25883">
        <ele>733</ele>
        <time>2015-04-26T07:41:17.000Z</time>
      </trkpt>
      <trkpt lat="47.09512" lon="6.25892">
        <ele>732</ele>
        <time>2015-04-26T07:41:19.000Z</time>
      </trkpt>
      <trkpt lat="47.09504" lon="6.25901">
        <ele>728</ele>
        <time>2015-04-26T07:41:21.000Z</time>
      </trkpt>
      <trkpt lat="47.09496" lon="6.25912">
        <ele>727</ele>
        <time>2015-04-26T07:41:23.000Z</time>
      </trkpt>
      <trkpt lat="47.09488" lon="6.25925">
        <ele>726</ele>
        <time>2015-04-26T07:41:25.000Z</time>
      </trkpt>
      <trkpt lat="47.09479" lon="6.25938">
        <ele>730</ele>
        <time>2015-04-26T07:41:27.000Z</time>
      </trkpt>
      <trkpt lat="47.09471" lon="6.25949">
        <ele>730</ele>
        <time>2015-04-26T07:41:29.000Z</time>
      </trkpt>
      <trkpt lat="47.09463" lon="6.25961">
        <ele>728</ele>
        <time>2015-04-26T07:41:31.000Z</time>
      </trkpt>
      <trkpt lat="47.09456" lon="6.25977">
        <ele>729</ele>
        <time>2015-04-26T07:41:33.000Z</time>
      </trkpt>
      <trkpt lat="47.09449" lon="6.25993">
        <ele>730</ele>
        <time>2015-04-26T07:41:35.000Z</time>
      </trkpt>
      <trkpt lat="47.09441" lon="6.26006">
        <ele>731</ele>
        <time>2015-04-26T07:41:37.000Z</time>
      </trkpt>
      <trkpt lat="47.09434" lon="6.26016">
        <ele>733</ele>
        <time>2015-04-26T07:41:39.000Z</time>
      </trkpt>
      <trkpt lat="47.09429" lon="6.26026">
        <ele>733</ele>
        <time>2015-04-26T07:41:41.000Z</time>
      </trkpt>
      <trkpt lat="47.09429" lon="6.26026">
        <ele>733</ele>
        <time>2015-04-26T07:41:43.000Z</time>
      </trkpt>
      <trkpt lat="47.09429" lon="6.26026">
        <ele>733</ele>
        <time>2015-04-26T07:41:45.000Z</time>
      </trkpt>
      <trkpt lat="47.09429" lon="6.26026">
        <ele>733</ele>
        <time>2015-04-26T07:41:47.000Z</time>
      </trkpt>
      <trkpt lat="47.09429" lon="6.26026">
        <ele>733</ele>
        <time>2015-04-26T07:41:49.000Z</time>
      </trkpt>
      <trkpt lat="47.09429" lon="6.26026">
        <ele>733</ele>
        <time>2015-04-26T07:41:51.000Z</time>
      </trkpt>
      <trkpt lat="47.09429" lon="6.26026">
        <ele>733</ele>
        <time>2015-04-26T07:41:53.000Z</time>
      </trkpt>
      <trkpt lat="47.09429" lon="6.26026">
        <ele>733</ele>
        <time>2015-04-26T07:41:55.000Z</time>
      </trkpt>
      <trkpt lat="47.09429" lon="6.26026">
        <ele>733</ele>
        <time>2015-04-26T07:41:57.000Z</time>
      </trkpt>
      <trkpt lat="47.09429" lon="6.26026">
        <ele>733</ele>
        <time>2015-04-26T07:42:00.000Z</time>
      </trkpt>
      <trkpt lat="47.09429" lon="6.26026">
        <ele>733</ele>
        <time>2015-04-26T07:42:02.000Z</time>
      </trkpt>
      <trkpt lat="47.09429" lon="6.26026">
        <ele>733</ele>
        <time>2015-04-26T07:42:04.000Z</time>
      </trkpt>
      <trkpt lat="47.09429" lon="6.26026">
        <ele>733</ele>
        <time>2015-04-26T07:42:06.000Z</time>
      </trkpt>
      <trkpt lat="47.09385" lon="6.26018">
        <ele>717</ele>
        <time>2015-04-26T07:44:37.000Z</time>
      </trkpt>
      <trkpt lat="47.09362" lon="6.26009">
        <ele>716</ele>
        <time>2015-04-26T07:44:39.000Z</time>
      </trkpt>
      <trkpt lat="47.09348" lon="6.25999">
        <ele>716</ele>
        <time>2015-04-26T07:44:41.000Z</time>
      </trkpt>
      <trkpt lat="47.09337" lon="6.2599">
        <ele>715</ele>
        <time>2015-04-26T07:44:43.000Z</time>
      </trkpt>
      <trkpt lat="47.09328" lon="6.2598">
        <ele>715</ele>
        <time>2015-04-26T07:44:45.000Z</time>
      </trkpt>
      <trkpt lat="47.09308" lon="6.2596">
        <ele>712</ele>
        <time>2015-04-26T07:44:47.000Z</time>
      </trkpt>
      <trkpt lat="47.09298" lon="6.25948">
        <ele>713</ele>
        <time>2015-04-26T07:44:49.000Z</time>
      </trkpt>
      <trkpt lat="47.09286" lon="6.25938">
        <ele>714</ele>
        <time>2015-04-26T07:44:51.000Z</time>
      </trkpt>
      <trkpt lat="47.09275" lon="6.25924">
        <ele>714</ele>
        <time>2015-04-26T07:44:53.000Z</time>
      </trkpt>
      <trkpt lat="47.09264" lon="6.2591">
        <ele>714</ele>
        <time>2015-04-26T07:44:55.000Z</time>
      </trkpt>
      <trkpt lat="47.09255" lon="6.25893">
        <ele>717</ele>
        <time>2015-04-26T07:44:57.000Z</time>
      </trkpt>
      <trkpt lat="47.09244" lon="6.25874">
        <ele>714</ele>
        <time>2015-04-26T07:44:59.000Z</time>
      </trkpt>
      <trkpt lat="47.09231" lon="6.25854">
        <ele>713</ele>
        <time>2015-04-26T07:45:01.000Z</time>
      </trkpt>
      <trkpt lat="47.09219" lon="6.25832">
        <ele>712</ele>
        <time>2015-04-26T07:45:03.000Z</time>
      </trkpt>
      <trkpt lat="47.09207" lon="6.25809">
        <ele>711</ele>
        <time>2015-04-26T07:45:05.000Z</time>
      </trkpt>
      <trkpt lat="47.09192" lon="6.25783">
        <ele>708</ele>
        <time>2015-04-26T07:45:07.000Z</time>
      </trkpt>
      <trkpt lat="47.09178" lon="6.25758">
        <ele>709</ele>
        <time>2015-04-26T07:45:09.000Z</time>
      </trkpt>
      <trkpt lat="47.09163" lon="6.2573">
        <ele>707</ele>
        <time>2015-04-26T07:45:11.000Z</time>
      </trkpt>
      <trkpt lat="47.09149" lon="6.257">
        <ele>704</ele>
        <time>2015-04-26T07:45:13.000Z</time>
      </trkpt>
      <trkpt lat="47.09137" lon="6.25674">
        <ele>705</ele>
        <time>2015-04-26T07:45:15.000Z</time>
      </trkpt>
      <trkpt lat="47.09118" lon="6.25641">
        <ele>702</ele>
        <time>2015-04-26T07:45:19.000Z</time>
      </trkpt>
      <trkpt lat="47.09107" lon="6.25633">
        <ele>701</ele>
        <time>2015-04-26T07:45:21.000Z</time>
      </trkpt>
      <trkpt lat="47.09094" lon="6.25629">
        <ele>701</ele>
        <time>2015-04-26T07:45:23.000Z</time>
      </trkpt>
      <trkpt lat="47.09079" lon="6.25622">
        <ele>701</ele>
        <time>2015-04-26T07:45:25.000Z</time>
      </trkpt>
      <trkpt lat="47.09063" lon="6.25604">
        <ele>701</ele>
        <time>2015-04-26T07:45:27.000Z</time>
      </trkpt>
      <trkpt lat="47.09048" lon="6.25581">
        <ele>700</ele>
        <time>2015-04-26T07:45:29.000Z</time>
      </trkpt>
      <trkpt lat="47.09032" lon="6.25559">
        <ele>698</ele>
        <time>2015-04-26T07:45:31.000Z</time>
      </trkpt>
      <trkpt lat="47.09018" lon="6.25539">
        <ele>701</ele>
        <time>2015-04-26T07:45:33.000Z</time>
      </trkpt>
      <trkpt lat="47.09006" lon="6.25518">
        <ele>699</ele>
        <time>2015-04-26T07:45:35.000Z</time>
      </trkpt>
      <trkpt lat="47.08992" lon="6.25496">
        <ele>693</ele>
        <time>2015-04-26T07:45:37.000Z</time>
      </trkpt>
      <trkpt lat="47.08978" lon="6.25473">
        <ele>684</ele>
        <time>2015-04-26T07:45:39.000Z</time>
      </trkpt>
      <trkpt lat="47.08966" lon="6.25449">
        <ele>685</ele>
        <time>2015-04-26T07:45:41.000Z</time>
      </trkpt>
      <trkpt lat="47.08955" lon="6.25427">
        <ele>686</ele>
        <time>2015-04-26T07:45:43.000Z</time>
      </trkpt>
      <trkpt lat="47.08945" lon="6.25407">
        <ele>687</ele>
        <time>2015-04-26T07:45:45.000Z</time>
      </trkpt>
      <trkpt lat="47.08936" lon="6.25388">
        <ele>686</ele>
        <time>2015-04-26T07:45:47.000Z</time>
      </trkpt>
      <trkpt lat="47.08926" lon="6.25368">
        <ele>686</ele>
        <time>2015-04-26T07:45:49.000Z</time>
      </trkpt>
      <trkpt lat="47.08917" lon="6.25351">
        <ele>684</ele>
        <time>2015-04-26T07:45:51.000Z</time>
      </trkpt>
      <trkpt lat="47.08908" lon="6.25334">
        <ele>683</ele>
        <time>2015-04-26T07:45:53.000Z</time>
      </trkpt>
      <trkpt lat="47.08898" lon="6.25318">
        <ele>683</ele>
        <time>2015-04-26T07:45:55.000Z</time>
      </trkpt>
      <trkpt lat="47.08888" lon="6.25301">
        <ele>684</ele>
        <time>2015-04-26T07:45:57.000Z</time>
      </trkpt>
      <trkpt lat="47.08879" lon="6.25286">
        <ele>683</ele>
        <time>2015-04-26T07:45:59.000Z</time>
      </trkpt>
      <trkpt lat="47.0887" lon="6.2527">
        <ele>686</ele>
        <time>2015-04-26T07:46:01.000Z</time>
      </trkpt>
      <trkpt lat="47.08862" lon="6.25254">
        <ele>685</ele>
        <time>2015-04-26T07:46:03.000Z</time>
      </trkpt>
      <trkpt lat="47.08855" lon="6.25238">
        <ele>683</ele>
        <time>2015-04-26T07:46:05.000Z</time>
      </trkpt>
      <trkpt lat="47.08847" lon="6.25222">
        <ele>683</ele>
        <time>2015-04-26T07:46:07.000Z</time>
      </trkpt>
      <trkpt lat="47.08839" lon="6.25207">
        <ele>683</ele>
        <time>2015-04-26T07:46:09.000Z</time>
      </trkpt>
      <trkpt lat="47.0883" lon="6.25192">
        <ele>682</ele>
        <time>2015-04-26T07:46:11.000Z</time>
      </trkpt>
      <trkpt lat="47.08823" lon="6.25176">
        <ele>681</ele>
        <time>2015-04-26T07:46:13.000Z</time>
      </trkpt>
      <trkpt lat="47.08814" lon="6.25162">
        <ele>681</ele>
        <time>2015-04-26T07:46:15.000Z</time>
      </trkpt>
      <trkpt lat="47.08807" lon="6.25146">
        <ele>679</ele>
        <time>2015-04-26T07:46:17.000Z</time>
      </trkpt>
      <trkpt lat="47.08799" lon="6.25132">
        <ele>679</ele>
        <time>2015-04-26T07:46:19.000Z</time>
      </trkpt>
      <trkpt lat="47.08791" lon="6.25118">
        <ele>678</ele>
        <time>2015-04-26T07:46:21.000Z</time>
      </trkpt>
      <trkpt lat="47.08782" lon="6.25105">
        <ele>677</ele>
        <time>2015-04-26T07:46:23.000Z</time>
      </trkpt>
      <trkpt lat="47.08775" lon="6.25092">
        <ele>680</ele>
        <time>2015-04-26T07:46:25.000Z</time>
      </trkpt>
      <trkpt lat="47.0877" lon="6.2508">
        <ele>680</ele>
        <time>2015-04-26T07:46:27.000Z</time>
      </trkpt>
      <trkpt lat="47.08764" lon="6.25067">
        <ele>681</ele>
        <time>2015-04-26T07:46:29.000Z</time>
      </trkpt>
      <trkpt lat="47.08757" lon="6.25054">
        <ele>681</ele>
        <time>2015-04-26T07:46:31.000Z</time>
      </trkpt>
      <trkpt lat="47.08757" lon="6.25054">
        <ele>681</ele>
        <time>2015-04-26T07:46:33.000Z</time>
      </trkpt>
      <trkpt lat="47.08744" lon="6.25027">
        <ele>686</ele>
        <time>2015-04-26T07:46:35.000Z</time>
      </trkpt>
      <trkpt lat="47.08734" lon="6.25009">
        <ele>683</ele>
        <time>2015-04-26T07:46:38.000Z</time>
      </trkpt>
      <trkpt lat="47.08726" lon="6.24996">
        <ele>683</ele>
        <time>2015-04-26T07:46:40.000Z</time>
      </trkpt>
      <trkpt lat="47.08719" lon="6.24983">
        <ele>679</ele>
        <time>2015-04-26T07:46:42.000Z</time>
      </trkpt>
      <trkpt lat="47.08712" lon="6.24971">
        <ele>679</ele>
        <time>2015-04-26T07:46:44.000Z</time>
      </trkpt>
      <trkpt lat="47.08703" lon="6.24958">
        <ele>680</ele>
        <time>2015-04-26T07:46:46.000Z</time>
      </trkpt>
      <trkpt lat="47.08695" lon="6.24946">
        <ele>681</ele>
        <time>2015-04-26T07:46:48.000Z</time>
      </trkpt>
      <trkpt lat="47.08687" lon="6.24935">
        <ele>677</ele>
        <time>2015-04-26T07:46:50.000Z</time>
      </trkpt>
      <trkpt lat="47.0868" lon="6.24924">
        <ele>677</ele>
        <time>2015-04-26T07:46:52.000Z</time>
      </trkpt>
      <trkpt lat="47.08673" lon="6.24914">
        <ele>677</ele>
        <time>2015-04-26T07:46:54.000Z</time>
      </trkpt>
      <trkpt lat="47.08673" lon="6.24914">
        <ele>677</ele>
        <time>2015-04-26T07:46:56.000Z</time>
      </trkpt>
      <trkpt lat="47.08673" lon="6.24914">
        <ele>677</ele>
        <time>2015-04-26T07:46:58.000Z</time>
      </trkpt>
      <trkpt lat="47.08628" lon="6.24862">
        <ele>679</ele>
        <time>2015-04-26T07:47:04.000Z</time>
      </trkpt>
      <trkpt lat="47.08619" lon="6.24851">
        <ele>684</ele>
        <time>2015-04-26T07:47:06.000Z</time>
      </trkpt>
      <trkpt lat="47.08612" lon="6.24841">
        <ele>681</ele>
        <time>2015-04-26T07:47:08.000Z</time>
      </trkpt>
      <trkpt lat="47.08612" lon="6.24841">
        <ele>681</ele>
        <time>2015-04-26T07:47:10.000Z</time>
      </trkpt>
      <trkpt lat="47.08575" lon="6.24787">
        <ele>680</ele>
        <time>2015-04-26T07:47:16.000Z</time>
      </trkpt>
      <trkpt lat="47.08566" lon="6.24775">
        <ele>682</ele>
        <time>2015-04-26T07:47:18.000Z</time>
      </trkpt>
      <trkpt lat="47.08557" lon="6.24763">
        <ele>683</ele>
        <time>2015-04-26T07:47:20.000Z</time>
      </trkpt>
      <trkpt lat="47.08557" lon="6.24763">
        <ele>683</ele>
        <time>2015-04-26T07:47:22.000Z</time>
      </trkpt>
      <trkpt lat="47.08557" lon="6.24763">
        <ele>683</ele>
        <time>2015-04-26T07:47:24.000Z</time>
      </trkpt>
      <trkpt lat="47.08557" lon="6.24763">
        <ele>683</ele>
        <time>2015-04-26T07:47:26.000Z</time>
      </trkpt>
      <trkpt lat="47.08551" lon="6.24703">
        <ele>676</ele>
        <time>2015-04-26T07:47:28.000Z</time>
      </trkpt>
      <trkpt lat="47.08555" lon="6.24687">
        <ele>675</ele>
        <time>2015-04-26T07:47:30.000Z</time>
      </trkpt>
      <trkpt lat="47.0856" lon="6.24671">
        <ele>676</ele>
        <time>2015-04-26T07:47:32.000Z</time>
      </trkpt>
      <trkpt lat="47.08564" lon="6.24657">
        <ele>674</ele>
        <time>2015-04-26T07:47:34.000Z</time>
      </trkpt>
      <trkpt lat="47.0857" lon="6.2464">
        <ele>671</ele>
        <time>2015-04-26T07:47:36.000Z</time>
      </trkpt>
      <trkpt lat="47.0858" lon="6.24622">
        <ele>671</ele>
        <time>2015-04-26T07:47:38.000Z</time>
      </trkpt>
      <trkpt lat="47.08588" lon="6.24606">
        <ele>670</ele>
        <time>2015-04-26T07:47:40.000Z</time>
      </trkpt>
      <trkpt lat="47.08591" lon="6.2459">
        <ele>672</ele>
        <time>2015-04-26T07:47:42.000Z</time>
      </trkpt>
      <trkpt lat="47.08598" lon="6.24572">
        <ele>667</ele>
        <time>2015-04-26T07:47:44.000Z</time>
      </trkpt>
      <trkpt lat="47.08605" lon="6.2455">
        <ele>682</ele>
        <time>2015-04-26T07:47:46.000Z</time>
      </trkpt>
      <trkpt lat="47.08612" lon="6.24529">
        <ele>678</ele>
        <time>2015-04-26T07:47:48.000Z</time>
      </trkpt>
      <trkpt lat="47.08619" lon="6.24508">
        <ele>679</ele>
        <time>2015-04-26T07:47:50.000Z</time>
      </trkpt>
      <trkpt lat="47.08627" lon="6.24489">
        <ele>677</ele>
        <time>2015-04-26T07:47:52.000Z</time>
      </trkpt>
      <trkpt lat="47.08634" lon="6.24468">
        <ele>678</ele>
        <time>2015-04-26T07:47:54.000Z</time>
      </trkpt>
      <trkpt lat="47.08641" lon="6.24447">
        <ele>678</ele>
        <time>2015-04-26T07:47:56.000Z</time>
      </trkpt>
      <trkpt lat="47.08644" lon="6.24426">
        <ele>679</ele>
        <time>2015-04-26T07:47:58.000Z</time>
      </trkpt>
      <trkpt lat="47.08648" lon="6.24406">
        <ele>681</ele>
        <time>2015-04-26T07:48:00.000Z</time>
      </trkpt>
      <trkpt lat="47.08652" lon="6.24384">
        <ele>679</ele>
        <time>2015-04-26T07:48:02.000Z</time>
      </trkpt>
      <trkpt lat="47.08662" lon="6.24362">
        <ele>678</ele>
        <time>2015-04-26T07:48:04.000Z</time>
      </trkpt>
      <trkpt lat="47.08673" lon="6.2434">
        <ele>677</ele>
        <time>2015-04-26T07:48:06.000Z</time>
      </trkpt>
      <trkpt lat="47.0868" lon="6.24323">
        <ele>677</ele>
        <time>2015-04-26T07:48:08.000Z</time>
      </trkpt>
      <trkpt lat="47.08688" lon="6.24306">
        <ele>676</ele>
        <time>2015-04-26T07:48:10.000Z</time>
      </trkpt>
      <trkpt lat="47.08696" lon="6.24286">
        <ele>673</ele>
        <time>2015-04-26T07:48:12.000Z</time>
      </trkpt>
      <trkpt lat="47.08702" lon="6.24269">
        <ele>673</ele>
        <time>2015-04-26T07:48:14.000Z</time>
      </trkpt>
      <trkpt lat="47.0871" lon="6.2425">
        <ele>676</ele>
        <time>2015-04-26T07:48:16.000Z</time>
      </trkpt>
      <trkpt lat="47.08717" lon="6.24229">
        <ele>674</ele>
        <time>2015-04-26T07:48:18.000Z</time>
      </trkpt>
      <trkpt lat="47.08726" lon="6.2421">
        <ele>676</ele>
        <time>2015-04-26T07:48:20.000Z</time>
      </trkpt>
      <trkpt lat="47.0874" lon="6.24195">
        <ele>676</ele>
        <time>2015-04-26T07:48:22.000Z</time>
      </trkpt>
      <trkpt lat="47.08756" lon="6.24185">
        <ele>674</ele>
        <time>2015-04-26T07:48:24.000Z</time>
      </trkpt>
      <trkpt lat="47.08771" lon="6.24175">
        <ele>674</ele>
        <time>2015-04-26T07:48:26.000Z</time>
      </trkpt>
      <trkpt lat="47.0879" lon="6.24171">
        <ele>676</ele>
        <time>2015-04-26T07:48:28.000Z</time>
      </trkpt>
      <trkpt lat="47.08804" lon="6.24158">
        <ele>676</ele>
        <time>2015-04-26T07:48:30.000Z</time>
      </trkpt>
      <trkpt lat="47.08819" lon="6.24151">
        <ele>676</ele>
        <time>2015-04-26T07:48:32.000Z</time>
      </trkpt>
      <trkpt lat="47.08834" lon="6.24147">
        <ele>674</ele>
        <time>2015-04-26T07:48:34.000Z</time>
      </trkpt>
      <trkpt lat="47.08849" lon="6.24142">
        <ele>675</ele>
        <time>2015-04-26T07:48:36.000Z</time>
      </trkpt>
      <trkpt lat="47.08863" lon="6.24135">
        <ele>671</ele>
        <time>2015-04-26T07:48:38.000Z</time>
      </trkpt>
      <trkpt lat="47.08876" lon="6.24124">
        <ele>669</ele>
        <time>2015-04-26T07:48:40.000Z</time>
      </trkpt>
      <trkpt lat="47.08885" lon="6.24111">
        <ele>673</ele>
        <time>2015-04-26T07:48:42.000Z</time>
      </trkpt>
      <trkpt lat="47.08885" lon="6.24111">
        <ele>673</ele>
        <time>2015-04-26T07:48:44.000Z</time>
      </trkpt>
      <trkpt lat="47.08886" lon="6.24085">
        <ele>668</ele>
        <time>2015-04-26T07:48:46.000Z</time>
      </trkpt>
      <trkpt lat="47.08886" lon="6.24085">
        <ele>668</ele>
        <time>2015-04-26T07:48:48.000Z</time>
      </trkpt>
      <trkpt lat="47.08886" lon="6.24085">
        <ele>668</ele>
        <time>2015-04-26T07:48:50.000Z</time>
      </trkpt>
      <trkpt lat="47.08886" lon="6.24085">
        <ele>668</ele>
        <time>2015-04-26T07:48:52.000Z</time>
      </trkpt>
      <trkpt lat="47.08868" lon="6.23995">
        <ele>664</ele>
        <time>2015-04-26T07:48:58.000Z</time>
      </trkpt>
      <trkpt lat="47.08862" lon="6.23983">
        <ele>666</ele>
        <time>2015-04-26T07:49:00.000Z</time>
      </trkpt>
      <trkpt lat="47.08856" lon="6.2397">
        <ele>661</ele>
        <time>2015-04-26T07:49:02.000Z</time>
      </trkpt>
      <trkpt lat="47.08851" lon="6.23956">
        <ele>663</ele>
        <time>2015-04-26T07:49:04.000Z</time>
      </trkpt>
      <trkpt lat="47.08846" lon="6.23942">
        <ele>662</ele>
        <time>2015-04-26T07:49:06.000Z</time>
      </trkpt>
      <trkpt lat="47.08842" lon="6.23926">
        <ele>662</ele>
        <time>2015-04-26T07:49:08.000Z</time>
      </trkpt>
      <trkpt lat="47.08839" lon="6.23909">
        <ele>663</ele>
        <time>2015-04-26T07:49:10.000Z</time>
      </trkpt>
      <trkpt lat="47.08838" lon="6.23892">
        <ele>661</ele>
        <time>2015-04-26T07:49:12.000Z</time>
      </trkpt>
      <trkpt lat="47.08838" lon="6.23875">
        <ele>661</ele>
        <time>2015-04-26T07:49:14.000Z</time>
      </trkpt>
      <trkpt lat="47.08838" lon="6.23858">
        <ele>663</ele>
        <time>2015-04-26T07:49:16.000Z</time>
      </trkpt>
      <trkpt lat="47.08841" lon="6.23839">
        <ele>664</ele>
        <time>2015-04-26T07:49:18.000Z</time>
      </trkpt>
      <trkpt lat="47.08844" lon="6.23818">
        <ele>669</ele>
        <time>2015-04-26T07:49:20.000Z</time>
      </trkpt>
      <trkpt lat="47.0885" lon="6.23797">
        <ele>668</ele>
        <time>2015-04-26T07:49:22.000Z</time>
      </trkpt>
      <trkpt lat="47.08856" lon="6.23776">
        <ele>665</ele>
        <time>2015-04-26T07:49:24.000Z</time>
      </trkpt>
      <trkpt lat="47.08863" lon="6.23753">
        <ele>665</ele>
        <time>2015-04-26T07:49:26.000Z</time>
      </trkpt>
      <trkpt lat="47.08869" lon="6.23731">
        <ele>661</ele>
        <time>2015-04-26T07:49:28.000Z</time>
      </trkpt>
      <trkpt lat="47.08874" lon="6.2371">
        <ele>660</ele>
        <time>2015-04-26T07:49:30.000Z</time>
      </trkpt>
      <trkpt lat="47.08878" lon="6.23688">
        <ele>661</ele>
        <time>2015-04-26T07:49:32.000Z</time>
      </trkpt>
      <trkpt lat="47.08883" lon="6.23666">
        <ele>662</ele>
        <time>2015-04-26T07:49:34.000Z</time>
      </trkpt>
      <trkpt lat="47.08887" lon="6.23644">
        <ele>663</ele>
        <time>2015-04-26T07:49:36.000Z</time>
      </trkpt>
      <trkpt lat="47.0889" lon="6.23623">
        <ele>662</ele>
        <time>2015-04-26T07:49:38.000Z</time>
      </trkpt>
      <trkpt lat="47.08893" lon="6.23601">
        <ele>662</ele>
        <time>2015-04-26T07:49:40.000Z</time>
      </trkpt>
      <trkpt lat="47.08897" lon="6.23579">
        <ele>660</ele>
        <time>2015-04-26T07:49:42.000Z</time>
      </trkpt>
      <trkpt lat="47.089" lon="6.23558">
        <ele>660</ele>
        <time>2015-04-26T07:49:44.000Z</time>
      </trkpt>
      <trkpt lat="47.08904" lon="6.23538">
        <ele>659</ele>
        <time>2015-04-26T07:49:46.000Z</time>
      </trkpt>
      <trkpt lat="47.08908" lon="6.23517">
        <ele>661</ele>
        <time>2015-04-26T07:49:48.000Z</time>
      </trkpt>
      <trkpt lat="47.08912" lon="6.23496">
        <ele>661</ele>
        <time>2015-04-26T07:49:50.000Z</time>
      </trkpt>
      <trkpt lat="47.08915" lon="6.23475">
        <ele>660</ele>
        <time>2015-04-26T07:49:52.000Z</time>
      </trkpt>
      <trkpt lat="47.08918" lon="6.23455">
        <ele>659</ele>
        <time>2015-04-26T07:49:54.000Z</time>
      </trkpt>
      <trkpt lat="47.0892" lon="6.23436">
        <ele>662</ele>
        <time>2015-04-26T07:49:56.000Z</time>
      </trkpt>
      <trkpt lat="47.08923" lon="6.23416">
        <ele>662</ele>
        <time>2015-04-26T07:49:58.000Z</time>
      </trkpt>
      <trkpt lat="47.08926" lon="6.23396">
        <ele>662</ele>
        <time>2015-04-26T07:50:00.000Z</time>
      </trkpt>
      <trkpt lat="47.0893" lon="6.23375">
        <ele>663</ele>
        <time>2015-04-26T07:50:02.000Z</time>
      </trkpt>
      <trkpt lat="47.08934" lon="6.23356">
        <ele>662</ele>
        <time>2015-04-26T07:50:04.000Z</time>
      </trkpt>
      <trkpt lat="47.08937" lon="6.23337">
        <ele>662</ele>
        <time>2015-04-26T07:50:06.000Z</time>
      </trkpt>
      <trkpt lat="47.08941" lon="6.23317">
        <ele>661</ele>
        <time>2015-04-26T07:50:08.000Z</time>
      </trkpt>
      <trkpt lat="47.08944" lon="6.23298">
        <ele>661</ele>
        <time>2015-04-26T07:50:10.000Z</time>
      </trkpt>
      <trkpt lat="47.08948" lon="6.2328">
        <ele>661</ele>
        <time>2015-04-26T07:50:12.000Z</time>
      </trkpt>
      <trkpt lat="47.08952" lon="6.23261">
        <ele>661</ele>
        <time>2015-04-26T07:50:14.000Z</time>
      </trkpt>
      <trkpt lat="47.08953" lon="6.23245">
        <ele>660</ele>
        <time>2015-04-26T07:50:16.000Z</time>
      </trkpt>
      <trkpt lat="47.08947" lon="6.23232">
        <ele>658</ele>
        <time>2015-04-26T07:50:18.000Z</time>
      </trkpt>
      <trkpt lat="47.08938" lon="6.23224">
        <ele>656</ele>
        <time>2015-04-26T07:50:20.000Z</time>
      </trkpt>
      <trkpt lat="47.08928" lon="6.23217">
        <ele>654</ele>
        <time>2015-04-26T07:50:22.000Z</time>
      </trkpt>
      <trkpt lat="47.08915" lon="6.23212">
        <ele>654</ele>
        <time>2015-04-26T07:50:24.000Z</time>
      </trkpt>
      <trkpt lat="47.08902" lon="6.23206">
        <ele>653</ele>
        <time>2015-04-26T07:50:26.000Z</time>
      </trkpt>
      <trkpt lat="47.08889" lon="6.23199">
        <ele>655</ele>
        <time>2015-04-26T07:50:28.000Z</time>
      </trkpt>
      <trkpt lat="47.08876" lon="6.23193">
        <ele>657</ele>
        <time>2015-04-26T07:50:30.000Z</time>
      </trkpt>
      <trkpt lat="47.08864" lon="6.23188">
        <ele>655</ele>
        <time>2015-04-26T07:50:32.000Z</time>
      </trkpt>
      <trkpt lat="47.08853" lon="6.23184">
        <ele>652</ele>
        <time>2015-04-26T07:50:34.000Z</time>
      </trkpt>
      <trkpt lat="47.08841" lon="6.23179">
        <ele>654</ele>
        <time>2015-04-26T07:50:36.000Z</time>
      </trkpt>
      <trkpt lat="47.0883" lon="6.23175">
        <ele>653</ele>
        <time>2015-04-26T07:50:38.000Z</time>
      </trkpt>
      <trkpt lat="47.08819" lon="6.23171">
        <ele>653</ele>
        <time>2015-04-26T07:50:40.000Z</time>
      </trkpt>
      <trkpt lat="47.08808" lon="6.23167">
        <ele>653</ele>
        <time>2015-04-26T07:50:42.000Z</time>
      </trkpt>
      <trkpt lat="47.08798" lon="6.23162">
        <ele>654</ele>
        <time>2015-04-26T07:50:44.000Z</time>
      </trkpt>
      <trkpt lat="47.08788" lon="6.23157">
        <ele>656</ele>
        <time>2015-04-26T07:50:46.000Z</time>
      </trkpt>
      <trkpt lat="47.08788" lon="6.23157">
        <ele>656</ele>
        <time>2015-04-26T07:50:48.000Z</time>
      </trkpt>
      <trkpt lat="47.08788" lon="6.23157">
        <ele>656</ele>
        <time>2015-04-26T07:50:50.000Z</time>
      </trkpt>
      <trkpt lat="47.08788" lon="6.23157">
        <ele>656</ele>
        <time>2015-04-26T07:50:52.000Z</time>
      </trkpt>
      <trkpt lat="47.08727" lon="6.23126">
        <ele>653</ele>
        <time>2015-04-26T07:50:58.000Z</time>
      </trkpt>
      <trkpt lat="47.08716" lon="6.2312">
        <ele>653</ele>
        <time>2015-04-26T07:51:00.000Z</time>
      </trkpt>
      <trkpt lat="47.08706" lon="6.23115">
        <ele>654</ele>
        <time>2015-04-26T07:51:02.000Z</time>
      </trkpt>
      <trkpt lat="47.08706" lon="6.23115">
        <ele>654</ele>
        <time>2015-04-26T07:51:04.000Z</time>
      </trkpt>
      <trkpt lat="47.08706" lon="6.23115">
        <ele>654</ele>
        <time>2015-04-26T07:51:06.000Z</time>
      </trkpt>
      <trkpt lat="47.08706" lon="6.23115">
        <ele>654</ele>
        <time>2015-04-26T07:51:08.000Z</time>
      </trkpt>
      <trkpt lat="47.08706" lon="6.23115">
        <ele>654</ele>
        <time>2015-04-26T07:51:10.000Z</time>
      </trkpt>
      <trkpt lat="47.08706" lon="6.23115">
        <ele>654</ele>
        <time>2015-04-26T07:51:12.000Z</time>
      </trkpt>
      <trkpt lat="47.08706" lon="6.23115">
        <ele>654</ele>
        <time>2015-04-26T07:51:16.000Z</time>
      </trkpt>
      <trkpt lat="47.08706" lon="6.23115">
        <ele>654</ele>
        <time>2015-04-26T07:51:18.000Z</time>
      </trkpt>
      <trkpt lat="47.08706" lon="6.23115">
        <ele>654</ele>
        <time>2015-04-26T07:51:20.000Z</time>
      </trkpt>
      <trkpt lat="47.08658" lon="6.23095">
        <ele>663</ele>
        <time>2015-04-26T07:51:22.000Z</time>
      </trkpt>
      <trkpt lat="47.0863" lon="6.23083">
        <ele>663</ele>
        <time>2015-04-26T07:51:24.000Z</time>
      </trkpt>
      <trkpt lat="47.0863" lon="6.23083">
        <ele>663</ele>
        <time>2015-04-26T07:51:26.000Z</time>
      </trkpt>
      <trkpt lat="47.0863" lon="6.23083">
        <ele>663</ele>
        <time>2015-04-26T07:51:28.000Z</time>
      </trkpt>
      <trkpt lat="47.0863" lon="6.23083">
        <ele>663</ele>
        <time>2015-04-26T07:51:30.000Z</time>
      </trkpt>
      <trkpt lat="47.0863" lon="6.23083">
        <ele>663</ele>
        <time>2015-04-26T07:51:32.000Z</time>
      </trkpt>
      <trkpt lat="47.0863" lon="6.23083">
        <ele>663</ele>
        <time>2015-04-26T07:51:34.000Z</time>
      </trkpt>
      <trkpt lat="47.0863" lon="6.23083">
        <ele>663</ele>
        <time>2015-04-26T07:51:38.000Z</time>
      </trkpt>
      <trkpt lat="47.0863" lon="6.23083">
        <ele>663</ele>
        <time>2015-04-26T07:51:42.000Z</time>
      </trkpt>
      <trkpt lat="47.08569" lon="6.23045">
        <ele>669</ele>
        <time>2015-04-26T07:51:46.000Z</time>
      </trkpt>
      <trkpt lat="47.08535" lon="6.23024">
        <ele>668</ele>
        <time>2015-04-26T07:51:48.000Z</time>
      </trkpt>
      <trkpt lat="47.08535" lon="6.23024">
        <ele>668</ele>
        <time>2015-04-26T07:51:50.000Z</time>
      </trkpt>
      <trkpt lat="47.08535" lon="6.23024">
        <ele>668</ele>
        <time>2015-04-26T07:51:52.000Z</time>
      </trkpt>
      <trkpt lat="47.08535" lon="6.23024">
        <ele>668</ele>
        <time>2015-04-26T07:51:54.000Z</time>
      </trkpt>
      <trkpt lat="47.08535" lon="6.23024">
        <ele>668</ele>
        <time>2015-04-26T07:51:56.000Z</time>
      </trkpt>
      <trkpt lat="47.08535" lon="6.23024">
        <ele>668</ele>
        <time>2015-04-26T07:51:58.000Z</time>
      </trkpt>
      <trkpt lat="47.08535" lon="6.23024">
        <ele>668</ele>
        <time>2015-04-26T07:52:00.000Z</time>
      </trkpt>
      <trkpt lat="47.08535" lon="6.23024">
        <ele>668</ele>
        <time>2015-04-26T07:52:02.000Z</time>
      </trkpt>
      <trkpt lat="47.08535" lon="6.23024">
        <ele>668</ele>
        <time>2015-04-26T07:52:04.000Z</time>
      </trkpt>
      <trkpt lat="47.08535" lon="6.23024">
        <ele>668</ele>
        <time>2015-04-26T07:52:06.000Z</time>
      </trkpt>
      <trkpt lat="47.08535" lon="6.23024">
        <ele>668</ele>
        <time>2015-04-26T07:52:08.000Z</time>
      </trkpt>
      <trkpt lat="47.08535" lon="6.23024">
        <ele>668</ele>
        <time>2015-04-26T07:52:10.000Z</time>
      </trkpt>
      <trkpt lat="47.08535" lon="6.23024">
        <ele>668</ele>
        <time>2015-04-26T07:52:12.000Z</time>
      </trkpt>
      <trkpt lat="47.08535" lon="6.23024">
        <ele>668</ele>
        <time>2015-04-26T07:52:14.000Z</time>
      </trkpt>
      <trkpt lat="47.08535" lon="6.23024">
        <ele>668</ele>
        <time>2015-04-26T07:52:16.000Z</time>
      </trkpt>
      <trkpt lat="47.08535" lon="6.23024">
        <ele>668</ele>
        <time>2015-04-26T07:52:18.000Z</time>
      </trkpt>
      <trkpt lat="47.08535" lon="6.23024">
        <ele>668</ele>
        <time>2015-04-26T07:52:20.000Z</time>
      </trkpt>
      <trkpt lat="47.08535" lon="6.23024">
        <ele>668</ele>
        <time>2015-04-26T07:52:22.000Z</time>
      </trkpt>
      <trkpt lat="47.08535" lon="6.23024">
        <ele>668</ele>
        <time>2015-04-26T07:52:24.000Z</time>
      </trkpt>
      <trkpt lat="47.08456" lon="6.22984">
        <ele>667</ele>
        <time>2015-04-26T07:52:30.000Z</time>
      </trkpt>
      <trkpt lat="47.08413" lon="6.22964">
        <ele>667</ele>
        <time>2015-04-26T07:52:32.000Z</time>
      </trkpt>
      <trkpt lat="47.08389" lon="6.22955">
        <ele>665</ele>
        <time>2015-04-26T07:52:34.000Z</time>
      </trkpt>
      <trkpt lat="47.08374" lon="6.22951">
        <ele>669</ele>
        <time>2015-04-26T07:52:36.000Z</time>
      </trkpt>
      <trkpt lat="47.08364" lon="6.22949">
        <ele>666</ele>
        <time>2015-04-26T07:52:38.000Z</time>
      </trkpt>
      <trkpt lat="47.08344" lon="6.22951">
        <ele>672</ele>
        <time>2015-04-26T07:52:42.000Z</time>
      </trkpt>
      <trkpt lat="47.08344" lon="6.22951">
        <ele>672</ele>
        <time>2015-04-26T07:52:44.000Z</time>
      </trkpt>
      <trkpt lat="47.08344" lon="6.22951">
        <ele>672</ele>
        <time>2015-04-26T07:52:47.000Z</time>
      </trkpt>
      <trkpt lat="47.08344" lon="6.22951">
        <ele>672</ele>
        <time>2015-04-26T07:52:51.000Z</time>
      </trkpt>
      <trkpt lat="47.08344" lon="6.22951">
        <ele>672</ele>
        <time>2015-04-26T07:52:55.000Z</time>
      </trkpt>
      <trkpt lat="47.08344" lon="6.22951">
        <ele>672</ele>
        <time>2015-04-26T07:52:57.000Z</time>
      </trkpt>
      <trkpt lat="47.08344" lon="6.22951">
        <ele>672</ele>
        <time>2015-04-26T07:53:01.000Z</time>
      </trkpt>
      <trkpt lat="47.08291" lon="6.22964">
        <ele>670</ele>
        <time>2015-04-26T07:53:03.000Z</time>
      </trkpt>
      <trkpt lat="47.08291" lon="6.22964">
        <ele>670</ele>
        <time>2015-04-26T07:53:05.000Z</time>
      </trkpt>
      <trkpt lat="47.08291" lon="6.22964">
        <ele>670</ele>
        <time>2015-04-26T07:53:07.000Z</time>
      </trkpt>
      <trkpt lat="47.08291" lon="6.22964">
        <ele>670</ele>
        <time>2015-04-26T07:53:15.000Z</time>
      </trkpt>
      <trkpt lat="47.08255" lon="6.22969">
        <ele>670</ele>
        <time>2015-04-26T07:53:17.000Z</time>
      </trkpt>
      <trkpt lat="47.0824" lon="6.22972">
        <ele>670</ele>
        <time>2015-04-26T07:53:24.000Z</time>
      </trkpt>
      <trkpt lat="47.0824" lon="6.22972">
        <ele>670</ele>
        <time>2015-04-26T07:53:26.000Z</time>
      </trkpt>
      <trkpt lat="47.08223" lon="6.22972">
        <ele>671</ele>
        <time>2015-04-26T07:53:30.000Z</time>
      </trkpt>
      <trkpt lat="47.08223" lon="6.22972">
        <ele>671</ele>
        <time>2015-04-26T07:53:33.000Z</time>
      </trkpt>
      <trkpt lat="47.0821" lon="6.22969">
        <ele>677</ele>
        <time>2015-04-26T07:53:35.000Z</time>
      </trkpt>
      <trkpt lat="47.0821" lon="6.22969">
        <ele>677</ele>
        <time>2015-04-26T07:53:37.000Z</time>
      </trkpt>
      <trkpt lat="47.0821" lon="6.22969">
        <ele>677</ele>
        <time>2015-04-26T07:53:40.000Z</time>
      </trkpt>
      <trkpt lat="47.0821" lon="6.22969">
        <ele>677</ele>
        <time>2015-04-26T07:53:42.000Z</time>
      </trkpt>
      <trkpt lat="47.0821" lon="6.22969">
        <ele>677</ele>
        <time>2015-04-26T07:53:44.000Z</time>
      </trkpt>
      <trkpt lat="47.0817" lon="6.22971">
        <ele>700</ele>
        <time>2015-04-26T07:53:51.000Z</time>
      </trkpt>
      <trkpt lat="47.0816" lon="6.2297">
        <ele>703</ele>
        <time>2015-04-26T07:53:56.000Z</time>
      </trkpt>
      <trkpt lat="47.08151" lon="6.2297">
        <ele>705</ele>
        <time>2015-04-26T07:54:00.000Z</time>
      </trkpt>
      <trkpt lat="47.08134" lon="6.2297">
        <ele>699</ele>
        <time>2015-04-26T07:54:06.000Z</time>
      </trkpt>
      <trkpt lat="47.08134" lon="6.2297">
        <ele>699</ele>
        <time>2015-04-26T07:54:08.000Z</time>
      </trkpt>
      <trkpt lat="47.08134" lon="6.2297">
        <ele>699</ele>
        <time>2015-04-26T07:54:10.000Z</time>
      </trkpt>
      <trkpt lat="47.08134" lon="6.2297">
        <ele>699</ele>
        <time>2015-04-26T07:54:12.000Z</time>
      </trkpt>
      <trkpt lat="47.08134" lon="6.2297">
        <ele>699</ele>
        <time>2015-04-26T07:54:14.000Z</time>
      </trkpt>
      <trkpt lat="47.08134" lon="6.2297">
        <ele>699</ele>
        <time>2015-04-26T07:54:16.000Z</time>
      </trkpt>
      <trkpt lat="47.08134" lon="6.2297">
        <ele>699</ele>
        <time>2015-04-26T07:54:18.000Z</time>
      </trkpt>
      <trkpt lat="47.08134" lon="6.2297">
        <ele>699</ele>
        <time>2015-04-26T07:54:20.000Z</time>
      </trkpt>
      <trkpt lat="47.08134" lon="6.2297">
        <ele>699</ele>
        <time>2015-04-26T07:54:22.000Z</time>
      </trkpt>
      <trkpt lat="47.08095" lon="6.22987">
        <ele>694</ele>
        <time>2015-04-26T07:54:29.000Z</time>
      </trkpt>
      <trkpt lat="47.08072" lon="6.22999">
        <ele>691</ele>
        <time>2015-04-26T07:54:31.000Z</time>
      </trkpt>
      <trkpt lat="47.08072" lon="6.22999">
        <ele>691</ele>
        <time>2015-04-26T07:54:33.000Z</time>
      </trkpt>
      <trkpt lat="47.08053" lon="6.23007">
        <ele>696</ele>
        <time>2015-04-26T07:54:36.000Z</time>
      </trkpt>
      <trkpt lat="47.08039" lon="6.23012">
        <ele>693</ele>
        <time>2015-04-26T07:54:38.000Z</time>
      </trkpt>
      <trkpt lat="47.08029" lon="6.23015">
        <ele>692</ele>
        <time>2015-04-26T07:54:40.000Z</time>
      </trkpt>
      <trkpt lat="47.0802" lon="6.23018">
        <ele>693</ele>
        <time>2015-04-26T07:54:42.000Z</time>
      </trkpt>
      <trkpt lat="47.08011" lon="6.2302">
        <ele>697</ele>
        <time>2015-04-26T07:54:44.000Z</time>
      </trkpt>
      <trkpt lat="47.07995" lon="6.23025">
        <ele>698</ele>
        <time>2015-04-26T07:54:46.000Z</time>
      </trkpt>
      <trkpt lat="47.07995" lon="6.23025">
        <ele>698</ele>
        <time>2015-04-26T07:54:48.000Z</time>
      </trkpt>
      <trkpt lat="47.07995" lon="6.23025">
        <ele>698</ele>
        <time>2015-04-26T07:54:50.000Z</time>
      </trkpt>
      <trkpt lat="47.07961" lon="6.23025">
        <ele>700</ele>
        <time>2015-04-26T07:54:57.000Z</time>
      </trkpt>
      <trkpt lat="47.07949" lon="6.23024">
        <ele>703</ele>
        <time>2015-04-26T07:55:01.000Z</time>
      </trkpt>
      <trkpt lat="47.0794" lon="6.23025">
        <ele>708</ele>
        <time>2015-04-26T07:55:06.000Z</time>
      </trkpt>
      <trkpt lat="47.0794" lon="6.23025">
        <ele>708</ele>
        <time>2015-04-26T07:55:08.000Z</time>
      </trkpt>
      <trkpt lat="47.0794" lon="6.23025">
        <ele>708</ele>
        <time>2015-04-26T07:55:10.000Z</time>
      </trkpt>
      <trkpt lat="47.0794" lon="6.23025">
        <ele>708</ele>
        <time>2015-04-26T07:55:13.000Z</time>
      </trkpt>
      <trkpt lat="47.0794" lon="6.23025">
        <ele>708</ele>
        <time>2015-04-26T07:55:16.000Z</time>
      </trkpt>
      <trkpt lat="47.0794" lon="6.23025">
        <ele>708</ele>
        <time>2015-04-26T07:55:18.000Z</time>
      </trkpt>
      <trkpt lat="47.07896" lon="6.23008">
        <ele>720</ele>
        <time>2015-04-26T07:55:21.000Z</time>
      </trkpt>
      <trkpt lat="47.07896" lon="6.23008">
        <ele>720</ele>
        <time>2015-04-26T07:55:23.000Z</time>
      </trkpt>
      <trkpt lat="47.07896" lon="6.23008">
        <ele>720</ele>
        <time>2015-04-26T07:55:25.000Z</time>
      </trkpt>
      <trkpt lat="47.07874" lon="6.23002">
        <ele>729</ele>
        <time>2015-04-26T07:55:29.000Z</time>
      </trkpt>
      <trkpt lat="47.07874" lon="6.23002">
        <ele>729</ele>
        <time>2015-04-26T07:55:31.000Z</time>
      </trkpt>
      <trkpt lat="47.07859" lon="6.22999">
        <ele>729</ele>
        <time>2015-04-26T07:55:33.000Z</time>
      </trkpt>
      <trkpt lat="47.07859" lon="6.22999">
        <ele>729</ele>
        <time>2015-04-26T07:55:35.000Z</time>
      </trkpt>
      <trkpt lat="47.07859" lon="6.22999">
        <ele>729</ele>
        <time>2015-04-26T07:55:37.000Z</time>
      </trkpt>
      <trkpt lat="47.07859" lon="6.22999">
        <ele>729</ele>
        <time>2015-04-26T07:55:39.000Z</time>
      </trkpt>
      <trkpt lat="47.07859" lon="6.22999">
        <ele>729</ele>
        <time>2015-04-26T07:55:41.000Z</time>
      </trkpt>
      <trkpt lat="47.07859" lon="6.22999">
        <ele>729</ele>
        <time>2015-04-26T07:55:43.000Z</time>
      </trkpt>
      <trkpt lat="47.07794" lon="6.22971">
        <ele>739</ele>
        <time>2015-04-26T07:55:47.000Z</time>
      </trkpt>
      <trkpt lat="47.0778" lon="6.22966">
        <ele>737</ele>
        <time>2015-04-26T07:55:49.000Z</time>
      </trkpt>
      <trkpt lat="47.07767" lon="6.22961">
        <ele>732</ele>
        <time>2015-04-26T07:55:51.000Z</time>
      </trkpt>
      <trkpt lat="47.07753" lon="6.22959">
        <ele>730</ele>
        <time>2015-04-26T07:55:53.000Z</time>
      </trkpt>
      <trkpt lat="47.07736" lon="6.22961">
        <ele>718</ele>
        <time>2015-04-26T07:55:55.000Z</time>
      </trkpt>
      <trkpt lat="47.07722" lon="6.22964">
        <ele>718</ele>
        <time>2015-04-26T07:55:57.000Z</time>
      </trkpt>
      <trkpt lat="47.07708" lon="6.22966">
        <ele>714</ele>
        <time>2015-04-26T07:55:59.000Z</time>
      </trkpt>
      <trkpt lat="47.07694" lon="6.22968">
        <ele>709</ele>
        <time>2015-04-26T07:56:01.000Z</time>
      </trkpt>
      <trkpt lat="47.07681" lon="6.22969">
        <ele>708</ele>
        <time>2015-04-26T07:56:03.000Z</time>
      </trkpt>
      <trkpt lat="47.07669" lon="6.2297">
        <ele>707</ele>
        <time>2015-04-26T07:56:05.000Z</time>
      </trkpt>
      <trkpt lat="47.07658" lon="6.22969">
        <ele>699</ele>
        <time>2015-04-26T07:56:07.000Z</time>
      </trkpt>
      <trkpt lat="47.07648" lon="6.22971">
        <ele>697</ele>
        <time>2015-04-26T07:56:09.000Z</time>
      </trkpt>
      <trkpt lat="47.07638" lon="6.22972">
        <ele>698</ele>
        <time>2015-04-26T07:56:11.000Z</time>
      </trkpt>
      <trkpt lat="47.07638" lon="6.22972">
        <ele>698</ele>
        <time>2015-04-26T07:56:13.000Z</time>
      </trkpt>
      <trkpt lat="47.07638" lon="6.22972">
        <ele>698</ele>
        <time>2015-04-26T07:56:15.000Z</time>
      </trkpt>
      <trkpt lat="47.07638" lon="6.22972">
        <ele>698</ele>
        <time>2015-04-26T07:56:17.000Z</time>
      </trkpt>
      <trkpt lat="47.07638" lon="6.22972">
        <ele>698</ele>
        <time>2015-04-26T07:56:19.000Z</time>
      </trkpt>
      <trkpt lat="47.07572" lon="6.22913">
        <ele>696</ele>
        <time>2015-04-26T07:56:25.000Z</time>
      </trkpt>
      <trkpt lat="47.07564" lon="6.22903">
        <ele>697</ele>
        <time>2015-04-26T07:56:27.000Z</time>
      </trkpt>
      <trkpt lat="47.0755" lon="6.22888">
        <ele>696</ele>
        <time>2015-04-26T07:56:31.000Z</time>
      </trkpt>
      <trkpt lat="47.0755" lon="6.22888">
        <ele>696</ele>
        <time>2015-04-26T07:56:33.000Z</time>
      </trkpt>
      <trkpt lat="47.0755" lon="6.22888">
        <ele>696</ele>
        <time>2015-04-26T07:56:35.000Z</time>
      </trkpt>
      <trkpt lat="47.0755" lon="6.22888">
        <ele>696</ele>
        <time>2015-04-26T07:56:37.000Z</time>
      </trkpt>
      <trkpt lat="47.0755" lon="6.22888">
        <ele>696</ele>
        <time>2015-04-26T07:56:39.000Z</time>
      </trkpt>
      <trkpt lat="47.0755" lon="6.22888">
        <ele>696</ele>
        <time>2015-04-26T07:56:41.000Z</time>
      </trkpt>
      <trkpt lat="47.0755" lon="6.22888">
        <ele>696</ele>
        <time>2015-04-26T07:56:43.000Z</time>
      </trkpt>
      <trkpt lat="47.0755" lon="6.22888">
        <ele>696</ele>
        <time>2015-04-26T07:56:45.000Z</time>
      </trkpt>
      <trkpt lat="47.0755" lon="6.22888">
        <ele>696</ele>
        <time>2015-04-26T07:56:51.000Z</time>
      </trkpt>
      <trkpt lat="47.0755" lon="6.22888">
        <ele>696</ele>
        <time>2015-04-26T07:56:53.000Z</time>
      </trkpt>
      <trkpt lat="47.0755" lon="6.22888">
        <ele>696</ele>
        <time>2015-04-26T07:56:55.000Z</time>
      </trkpt>
      <trkpt lat="47.0755" lon="6.22888">
        <ele>696</ele>
        <time>2015-04-26T07:56:57.000Z</time>
      </trkpt>
      <trkpt lat="47.07485" lon="6.22889">
        <ele>691</ele>
        <time>2015-04-26T07:57:03.000Z</time>
      </trkpt>
      <trkpt lat="47.07447" lon="6.22891">
        <ele>688</ele>
        <time>2015-04-26T07:57:05.000Z</time>
      </trkpt>
      <trkpt lat="47.07422" lon="6.22894">
        <ele>685</ele>
        <time>2015-04-26T07:57:07.000Z</time>
      </trkpt>
      <trkpt lat="47.07404" lon="6.22897">
        <ele>680</ele>
        <time>2015-04-26T07:57:09.000Z</time>
      </trkpt>
      <trkpt lat="47.07391" lon="6.22901">
        <ele>680</ele>
        <time>2015-04-26T07:57:11.000Z</time>
      </trkpt>
      <trkpt lat="47.07368" lon="6.22911">
        <ele>681</ele>
        <time>2015-04-26T07:57:13.000Z</time>
      </trkpt>
      <trkpt lat="47.0736" lon="6.22917">
        <ele>680</ele>
        <time>2015-04-26T07:57:15.000Z</time>
      </trkpt>
      <trkpt lat="47.07352" lon="6.22925">
        <ele>681</ele>
        <time>2015-04-26T07:57:17.000Z</time>
      </trkpt>
      <trkpt lat="47.0734" lon="6.22936">
        <ele>682</ele>
        <time>2015-04-26T07:57:19.000Z</time>
      </trkpt>
      <trkpt lat="47.07317" lon="6.22954">
        <ele>680</ele>
        <time>2015-04-26T07:57:22.000Z</time>
      </trkpt>
      <trkpt lat="47.07317" lon="6.22954">
        <ele>680</ele>
        <time>2015-04-26T07:57:27.000Z</time>
      </trkpt>
      <trkpt lat="47.07317" lon="6.22954">
        <ele>680</ele>
        <time>2015-04-26T07:57:29.000Z</time>
      </trkpt>
      <trkpt lat="47.07317" lon="6.22954">
        <ele>680</ele>
        <time>2015-04-26T07:57:31.000Z</time>
      </trkpt>
      <trkpt lat="47.07317" lon="6.22954">
        <ele>680</ele>
        <time>2015-04-26T07:57:33.000Z</time>
      </trkpt>
      <trkpt lat="47.07317" lon="6.22954">
        <ele>680</ele>
        <time>2015-04-26T07:57:35.000Z</time>
      </trkpt>
      <trkpt lat="47.07317" lon="6.22954">
        <ele>680</ele>
        <time>2015-04-26T07:57:37.000Z</time>
      </trkpt>
      <trkpt lat="47.07317" lon="6.22954">
        <ele>680</ele>
        <time>2015-04-26T07:57:39.000Z</time>
      </trkpt>
      <trkpt lat="47.07317" lon="6.22954">
        <ele>680</ele>
        <time>2015-04-26T07:57:41.000Z</time>
      </trkpt>
      <trkpt lat="47.07317" lon="6.22954">
        <ele>680</ele>
        <time>2015-04-26T07:57:43.000Z</time>
      </trkpt>
      <trkpt lat="47.07317" lon="6.22954">
        <ele>680</ele>
        <time>2015-04-26T07:57:45.000Z</time>
      </trkpt>
      <trkpt lat="47.07317" lon="6.22954">
        <ele>680</ele>
        <time>2015-04-26T07:57:47.000Z</time>
      </trkpt>
      <trkpt lat="47.07317" lon="6.22954">
        <ele>680</ele>
        <time>2015-04-26T07:57:49.000Z</time>
      </trkpt>
      <trkpt lat="47.07194" lon="6.2293">
        <ele>645</ele>
        <time>2015-04-26T07:57:53.000Z</time>
      </trkpt>
      <trkpt lat="47.07177" lon="6.22921">
        <ele>647</ele>
        <time>2015-04-26T07:57:57.000Z</time>
      </trkpt>
      <trkpt lat="47.07152" lon="6.22905">
        <ele>648</ele>
        <time>2015-04-26T07:58:01.000Z</time>
      </trkpt>
      <trkpt lat="47.07133" lon="6.2289">
        <ele>645</ele>
        <time>2015-04-26T07:58:05.000Z</time>
      </trkpt>
      <trkpt lat="47.07121" lon="6.22873">
        <ele>631</ele>
        <time>2015-04-26T07:58:09.000Z</time>
      </trkpt>
      <trkpt lat="47.07113" lon="6.22865">
        <ele>632</ele>
        <time>2015-04-26T07:58:11.000Z</time>
      </trkpt>
      <trkpt lat="47.07113" lon="6.22865">
        <ele>632</ele>
        <time>2015-04-26T07:58:13.000Z</time>
      </trkpt>
      <trkpt lat="47.07113" lon="6.22865">
        <ele>632</ele>
        <time>2015-04-26T07:58:15.000Z</time>
      </trkpt>
      <trkpt lat="47.07113" lon="6.22865">
        <ele>632</ele>
        <time>2015-04-26T07:58:17.000Z</time>
      </trkpt>
      <trkpt lat="47.07113" lon="6.22865">
        <ele>632</ele>
        <time>2015-04-26T07:58:19.000Z</time>
      </trkpt>
      <trkpt lat="47.07113" lon="6.22865">
        <ele>632</ele>
        <time>2015-04-26T07:58:21.000Z</time>
      </trkpt>
      <trkpt lat="47.07113" lon="6.22865">
        <ele>632</ele>
        <time>2015-04-26T07:58:23.000Z</time>
      </trkpt>
      <trkpt lat="47.07113" lon="6.22865">
        <ele>632</ele>
        <time>2015-04-26T07:58:25.000Z</time>
      </trkpt>
      <trkpt lat="47.07113" lon="6.22865">
        <ele>632</ele>
        <time>2015-04-26T07:58:27.000Z</time>
      </trkpt>
      <trkpt lat="47.07025" lon="6.22801">
        <ele>596</ele>
        <time>2015-04-26T07:58:31.000Z</time>
      </trkpt>
      <trkpt lat="47.07025" lon="6.22801">
        <ele>596</ele>
        <time>2015-04-26T07:58:35.000Z</time>
      </trkpt>
      <trkpt lat="47.07025" lon="6.22801">
        <ele>596</ele>
        <time>2015-04-26T07:58:38.000Z</time>
      </trkpt>
      <trkpt lat="47.07025" lon="6.22801">
        <ele>596</ele>
        <time>2015-04-26T07:58:40.000Z</time>
      </trkpt>
      <trkpt lat="47.07025" lon="6.22801">
        <ele>596</ele>
        <time>2015-04-26T07:58:42.000Z</time>
      </trkpt>
      <trkpt lat="47.07025" lon="6.22801">
        <ele>596</ele>
        <time>2015-04-26T07:58:44.000Z</time>
      </trkpt>
      <trkpt lat="47.07025" lon="6.22801">
        <ele>596</ele>
        <time>2015-04-26T07:58:46.000Z</time>
      </trkpt>
      <trkpt lat="47.07025" lon="6.22801">
        <ele>596</ele>
        <time>2015-04-26T07:58:48.000Z</time>
      </trkpt>
      <trkpt lat="47.07025" lon="6.22801">
        <ele>596</ele>
        <time>2015-04-26T07:58:50.000Z</time>
      </trkpt>
      <trkpt lat="47.07025" lon="6.22801">
        <ele>596</ele>
        <time>2015-04-26T07:58:52.000Z</time>
      </trkpt>
      <trkpt lat="47.07025" lon="6.22801">
        <ele>596</ele>
        <time>2015-04-26T07:58:54.000Z</time>
      </trkpt>
      <trkpt lat="47.07025" lon="6.22801">
        <ele>596</ele>
        <time>2015-04-26T07:58:56.000Z</time>
      </trkpt>
      <trkpt lat="47.07025" lon="6.22801">
        <ele>596</ele>
        <time>2015-04-26T07:58:58.000Z</time>
      </trkpt>
      <trkpt lat="47.07025" lon="6.22801">
        <ele>596</ele>
        <time>2015-04-26T07:59:00.000Z</time>
      </trkpt>
      <trkpt lat="47.07025" lon="6.22801">
        <ele>596</ele>
        <time>2015-04-26T07:59:04.000Z</time>
      </trkpt>
      <trkpt lat="47.07025" lon="6.22801">
        <ele>596</ele>
        <time>2015-04-26T07:59:06.000Z</time>
      </trkpt>
      <trkpt lat="47.07005" lon="6.22786">
        <ele>596</ele>
        <time>2015-04-26T07:59:10.000Z</time>
      </trkpt>
      <trkpt lat="47.06992" lon="6.22779">
        <ele>595</ele>
        <time>2015-04-26T07:59:12.000Z</time>
      </trkpt>
      <trkpt lat="47.06981" lon="6.22775">
        <ele>596</ele>
        <time>2015-04-26T07:59:14.000Z</time>
      </trkpt>
      <trkpt lat="47.06973" lon="6.22774">
        <ele>599</ele>
        <time>2015-04-26T07:59:16.000Z</time>
      </trkpt>
      <trkpt lat="47.06966" lon="6.22775">
        <ele>600</ele>
        <time>2015-04-26T07:59:18.000Z</time>
      </trkpt>
      <trkpt lat="47.06951" lon="6.22775">
        <ele>602</ele>
        <time>2015-04-26T07:59:20.000Z</time>
      </trkpt>
      <trkpt lat="47.06943" lon="6.22766">
        <ele>600</ele>
        <time>2015-04-26T07:59:22.000Z</time>
      </trkpt>
      <trkpt lat="47.06933" lon="6.22756">
        <ele>596</ele>
        <time>2015-04-26T07:59:24.000Z</time>
      </trkpt>
      <trkpt lat="47.06931" lon="6.22742">
        <ele>597</ele>
        <time>2015-04-26T07:59:26.000Z</time>
      </trkpt>
      <trkpt lat="47.06929" lon="6.22729">
        <ele>592</ele>
        <time>2015-04-26T07:59:28.000Z</time>
      </trkpt>
      <trkpt lat="47.06929" lon="6.22706">
        <ele>592</ele>
        <time>2015-04-26T07:59:32.000Z</time>
      </trkpt>
      <trkpt lat="47.0694" lon="6.22685">
        <ele>592</ele>
        <time>2015-04-26T07:59:36.000Z</time>
      </trkpt>
      <trkpt lat="47.06949" lon="6.22676">
        <ele>589</ele>
        <time>2015-04-26T07:59:38.000Z</time>
      </trkpt>
      <trkpt lat="47.06963" lon="6.22674">
        <ele>586</ele>
        <time>2015-04-26T07:59:42.000Z</time>
      </trkpt>
      <trkpt lat="47.06963" lon="6.22674">
        <ele>586</ele>
        <time>2015-04-26T07:59:44.000Z</time>
      </trkpt>
      <trkpt lat="47.06979" lon="6.22671">
        <ele>587</ele>
        <time>2015-04-26T07:59:46.000Z</time>
      </trkpt>
      <trkpt lat="47.06994" lon="6.22672">
        <ele>584</ele>
        <time>2015-04-26T07:59:50.000Z</time>
      </trkpt>
      <trkpt lat="47.07004" lon="6.22673">
        <ele>580</ele>
        <time>2015-04-26T07:59:52.000Z</time>
      </trkpt>
      <trkpt lat="47.07021" lon="6.2268">
        <ele>581</ele>
        <time>2015-04-26T07:59:56.000Z</time>
      </trkpt>
      <trkpt lat="47.07029" lon="6.22686">
        <ele>581</ele>
        <time>2015-04-26T07:59:58.000Z</time>
      </trkpt>
      <trkpt lat="47.07029" lon="6.22686">
        <ele>581</ele>
        <time>2015-04-26T08:00:00.000Z</time>
      </trkpt>
      <trkpt lat="47.07029" lon="6.22686">
        <ele>581</ele>
        <time>2015-04-26T08:00:02.000Z</time>
      </trkpt>
      <trkpt lat="47.07029" lon="6.22686">
        <ele>581</ele>
        <time>2015-04-26T08:00:04.000Z</time>
      </trkpt>
      <trkpt lat="47.07029" lon="6.22686">
        <ele>581</ele>
        <time>2015-04-26T08:00:06.000Z</time>
      </trkpt>
      <trkpt lat="47.07029" lon="6.22686">
        <ele>581</ele>
        <time>2015-04-26T08:00:08.000Z</time>
      </trkpt>
      <trkpt lat="47.07029" lon="6.22686">
        <ele>581</ele>
        <time>2015-04-26T08:00:10.000Z</time>
      </trkpt>
      <trkpt lat="47.07029" lon="6.22686">
        <ele>581</ele>
        <time>2015-04-26T08:00:12.000Z</time>
      </trkpt>
      <trkpt lat="47.07029" lon="6.22686">
        <ele>581</ele>
        <time>2015-04-26T08:00:14.000Z</time>
      </trkpt>
      <trkpt lat="47.07029" lon="6.22686">
        <ele>581</ele>
        <time>2015-04-26T08:00:16.000Z</time>
      </trkpt>
      <trkpt lat="47.07029" lon="6.22686">
        <ele>581</ele>
        <time>2015-04-26T08:00:18.000Z</time>
      </trkpt>
      <trkpt lat="47.07043" lon="6.22689">
        <ele>586</ele>
        <time>2015-04-26T08:00:22.000Z</time>
      </trkpt>
      <trkpt lat="47.07025" lon="6.22676">
        <ele>584</ele>
        <time>2015-04-26T08:00:26.000Z</time>
      </trkpt>
      <trkpt lat="47.07018" lon="6.22665">
        <ele>587</ele>
        <time>2015-04-26T08:00:28.000Z</time>
      </trkpt>
      <trkpt lat="47.0701" lon="6.22657">
        <ele>586</ele>
        <time>2015-04-26T08:00:30.000Z</time>
      </trkpt>
      <trkpt lat="47.0701" lon="6.22657">
        <ele>586</ele>
        <time>2015-04-26T08:00:37.000Z</time>
      </trkpt>
      <trkpt lat="47.0701" lon="6.22657">
        <ele>586</ele>
        <time>2015-04-26T08:00:39.000Z</time>
      </trkpt>
      <trkpt lat="47.0701" lon="6.22657">
        <ele>586</ele>
        <time>2015-04-26T08:00:41.000Z</time>
      </trkpt>
      <trkpt lat="47.06944" lon="6.22579">
        <ele>562</ele>
        <time>2015-04-26T08:00:53.000Z</time>
      </trkpt>
      <trkpt lat="47.06932" lon="6.22565">
        <ele>557</ele>
        <time>2015-04-26T08:00:57.000Z</time>
      </trkpt>
      <trkpt lat="47.06928" lon="6.22558">
        <ele>548</ele>
        <time>2015-04-26T08:01:01.000Z</time>
      </trkpt>
      <trkpt lat="47.06923" lon="6.22551">
        <ele>548</ele>
        <time>2015-04-26T08:01:03.000Z</time>
      </trkpt>
      <trkpt lat="47.06918" lon="6.22544">
        <ele>547</ele>
        <time>2015-04-26T08:01:05.000Z</time>
      </trkpt>
      <trkpt lat="47.06914" lon="6.22537">
        <ele>543</ele>
        <time>2015-04-26T08:01:07.000Z</time>
      </trkpt>
      <trkpt lat="47.06914" lon="6.22537">
        <ele>543</ele>
        <time>2015-04-26T08:01:09.000Z</time>
      </trkpt>
      <trkpt lat="47.06914" lon="6.22537">
        <ele>543</ele>
        <time>2015-04-26T08:01:11.000Z</time>
      </trkpt>
      <trkpt lat="47.06896" lon="6.22507">
        <ele>536</ele>
        <time>2015-04-26T08:01:15.000Z</time>
      </trkpt>
      <trkpt lat="47.06885" lon="6.22485">
        <ele>536</ele>
        <time>2015-04-26T08:01:17.000Z</time>
      </trkpt>
      <trkpt lat="47.06877" lon="6.22467">
        <ele>539</ele>
        <time>2015-04-26T08:01:19.000Z</time>
      </trkpt>
      <trkpt lat="47.06871" lon="6.22452">
        <ele>535</ele>
        <time>2015-04-26T08:01:21.000Z</time>
      </trkpt>
      <trkpt lat="47.06865" lon="6.22439">
        <ele>533</ele>
        <time>2015-04-26T08:01:23.000Z</time>
      </trkpt>
      <trkpt lat="47.06854" lon="6.2242">
        <ele>529</ele>
        <time>2015-04-26T08:01:25.000Z</time>
      </trkpt>
      <trkpt lat="47.06854" lon="6.2242">
        <ele>529</ele>
        <time>2015-04-26T08:01:27.000Z</time>
      </trkpt>
      <trkpt lat="47.06854" lon="6.2242">
        <ele>529</ele>
        <time>2015-04-26T08:01:29.000Z</time>
      </trkpt>
      <trkpt lat="47.06854" lon="6.2242">
        <ele>529</ele>
        <time>2015-04-26T08:01:31.000Z</time>
      </trkpt>
      <trkpt lat="47.06829" lon="6.22371">
        <ele>522</ele>
        <time>2015-04-26T08:01:35.000Z</time>
      </trkpt>
      <trkpt lat="47.06817" lon="6.22351">
        <ele>523</ele>
        <time>2015-04-26T08:01:39.000Z</time>
      </trkpt>
      <trkpt lat="47.06805" lon="6.22337">
        <ele>518</ele>
        <time>2015-04-26T08:01:43.000Z</time>
      </trkpt>
      <trkpt lat="47.06805" lon="6.22337">
        <ele>518</ele>
        <time>2015-04-26T08:01:45.000Z</time>
      </trkpt>
      <trkpt lat="47.06805" lon="6.22337">
        <ele>518</ele>
        <time>2015-04-26T08:01:47.000Z</time>
      </trkpt>
      <trkpt lat="47.06805" lon="6.22337">
        <ele>518</ele>
        <time>2015-04-26T08:01:49.000Z</time>
      </trkpt>
      <trkpt lat="47.06805" lon="6.22337">
        <ele>518</ele>
        <time>2015-04-26T08:01:51.000Z</time>
      </trkpt>
      <trkpt lat="47.06805" lon="6.22337">
        <ele>518</ele>
        <time>2015-04-26T08:01:53.000Z</time>
      </trkpt>
      <trkpt lat="47.06762" lon="6.22272">
        <ele>523</ele>
        <time>2015-04-26T08:01:57.000Z</time>
      </trkpt>
      <trkpt lat="47.06752" lon="6.2226">
        <ele>515</ele>
        <time>2015-04-26T08:01:59.000Z</time>
      </trkpt>
      <trkpt lat="47.06744" lon="6.22252">
        <ele>514</ele>
        <time>2015-04-26T08:02:01.000Z</time>
      </trkpt>
      <trkpt lat="47.06733" lon="6.22241">
        <ele>508</ele>
        <time>2015-04-26T08:02:05.000Z</time>
      </trkpt>
      <trkpt lat="47.06733" lon="6.22241">
        <ele>508</ele>
        <time>2015-04-26T08:02:07.000Z</time>
      </trkpt>
      <trkpt lat="47.06733" lon="6.22241">
        <ele>508</ele>
        <time>2015-04-26T08:02:09.000Z</time>
      </trkpt>
      <trkpt lat="47.06733" lon="6.22241">
        <ele>508</ele>
        <time>2015-04-26T08:02:11.000Z</time>
      </trkpt>
      <trkpt lat="47.06733" lon="6.22241">
        <ele>508</ele>
        <time>2015-04-26T08:02:13.000Z</time>
      </trkpt>
      <trkpt lat="47.06733" lon="6.22241">
        <ele>508</ele>
        <time>2015-04-26T08:02:15.000Z</time>
      </trkpt>
      <trkpt lat="47.06733" lon="6.22241">
        <ele>508</ele>
        <time>2015-04-26T08:02:17.000Z</time>
      </trkpt>
      <trkpt lat="47.06733" lon="6.22241">
        <ele>508</ele>
        <time>2015-04-26T08:02:19.000Z</time>
      </trkpt>
      <trkpt lat="47.06761" lon="6.22218">
        <ele>503</ele>
        <time>2015-04-26T08:02:23.000Z</time>
      </trkpt>
      <trkpt lat="47.06771" lon="6.22222">
        <ele>507</ele>
        <time>2015-04-26T08:02:25.000Z</time>
      </trkpt>
      <trkpt lat="47.06782" lon="6.22228">
        <ele>506</ele>
        <time>2015-04-26T08:02:27.000Z</time>
      </trkpt>
      <trkpt lat="47.06799" lon="6.22242">
        <ele>502</ele>
        <time>2015-04-26T08:02:31.000Z</time>
      </trkpt>
      <trkpt lat="47.06807" lon="6.2225">
        <ele>502</ele>
        <time>2015-04-26T08:02:33.000Z</time>
      </trkpt>
      <trkpt lat="47.06816" lon="6.22257">
        <ele>503</ele>
        <time>2015-04-26T08:02:35.000Z</time>
      </trkpt>
      <trkpt lat="47.06816" lon="6.22257">
        <ele>503</ele>
        <time>2015-04-26T08:02:37.000Z</time>
      </trkpt>
      <trkpt lat="47.06816" lon="6.22257">
        <ele>503</ele>
        <time>2015-04-26T08:02:39.000Z</time>
      </trkpt>
      <trkpt lat="47.06816" lon="6.22257">
        <ele>503</ele>
        <time>2015-04-26T08:02:41.000Z</time>
      </trkpt>
      <trkpt lat="47.06816" lon="6.22257">
        <ele>503</ele>
        <time>2015-04-26T08:02:43.000Z</time>
      </trkpt>
      <trkpt lat="47.06816" lon="6.22257">
        <ele>503</ele>
        <time>2015-04-26T08:02:45.000Z</time>
      </trkpt>
      <trkpt lat="47.06816" lon="6.22257">
        <ele>503</ele>
        <time>2015-04-26T08:02:47.000Z</time>
      </trkpt>
      <trkpt lat="47.06816" lon="6.22257">
        <ele>503</ele>
        <time>2015-04-26T08:02:49.000Z</time>
      </trkpt>
      <trkpt lat="47.06824" lon="6.22256">
        <ele>497</ele>
        <time>2015-04-26T08:03:15.000Z</time>
      </trkpt>
      <trkpt lat="47.06833" lon="6.22252">
        <ele>490</ele>
        <time>2015-04-26T08:03:17.000Z</time>
      </trkpt>
      <trkpt lat="47.0684" lon="6.22249">
        <ele>489</ele>
        <time>2015-04-26T08:03:19.000Z</time>
      </trkpt>
      <trkpt lat="47.06847" lon="6.22247">
        <ele>484</ele>
        <time>2015-04-26T08:03:21.000Z</time>
      </trkpt>
      <trkpt lat="47.06854" lon="6.22245">
        <ele>487</ele>
        <time>2015-04-26T08:03:23.000Z</time>
      </trkpt>
      <trkpt lat="47.06867" lon="6.22247">
        <ele>484</ele>
        <time>2015-04-26T08:03:25.000Z</time>
      </trkpt>
      <trkpt lat="47.06875" lon="6.22255">
        <ele>479</ele>
        <time>2015-04-26T08:03:29.000Z</time>
      </trkpt>
      <trkpt lat="47.06875" lon="6.22255">
        <ele>479</ele>
        <time>2015-04-26T08:03:31.000Z</time>
      </trkpt>
      <trkpt lat="47.06875" lon="6.22255">
        <ele>479</ele>
        <time>2015-04-26T08:03:33.000Z</time>
      </trkpt>
      <trkpt lat="47.06875" lon="6.22255">
        <ele>479</ele>
        <time>2015-04-26T08:03:35.000Z</time>
      </trkpt>
      <trkpt lat="47.06875" lon="6.22255">
        <ele>479</ele>
        <time>2015-04-26T08:03:37.000Z</time>
      </trkpt>
      <trkpt lat="47.06875" lon="6.22255">
        <ele>479</ele>
        <time>2015-04-26T08:03:39.000Z</time>
      </trkpt>
      <trkpt lat="47.06875" lon="6.22255">
        <ele>479</ele>
        <time>2015-04-26T08:03:41.000Z</time>
      </trkpt>
      <trkpt lat="47.06872" lon="6.22236">
        <ele>470</ele>
        <time>2015-04-26T08:03:45.000Z</time>
      </trkpt>
      <trkpt lat="47.06866" lon="6.22214">
        <ele>463</ele>
        <time>2015-04-26T08:03:49.000Z</time>
      </trkpt>
      <trkpt lat="47.06861" lon="6.22195">
        <ele>457</ele>
        <time>2015-04-26T08:03:53.000Z</time>
      </trkpt>
      <trkpt lat="47.06858" lon="6.22176">
        <ele>454</ele>
        <time>2015-04-26T08:03:57.000Z</time>
      </trkpt>
      <trkpt lat="47.06853" lon="6.22158">
        <ele>456</ele>
        <time>2015-04-26T08:04:03.000Z</time>
      </trkpt>
      <trkpt lat="47.06853" lon="6.22158">
        <ele>456</ele>
        <time>2015-04-26T08:04:05.000Z</time>
      </trkpt>
      <trkpt lat="47.06853" lon="6.22158">
        <ele>456</ele>
        <time>2015-04-26T08:04:07.000Z</time>
      </trkpt>
      <trkpt lat="47.06853" lon="6.22158">
        <ele>456</ele>
        <time>2015-04-26T08:04:09.000Z</time>
      </trkpt>
      <trkpt lat="47.06853" lon="6.22158">
        <ele>456</ele>
        <time>2015-04-26T08:04:11.000Z</time>
      </trkpt>
      <trkpt lat="47.06853" lon="6.22158">
        <ele>456</ele>
        <time>2015-04-26T08:04:13.000Z</time>
      </trkpt>
      <trkpt lat="47.06874" lon="6.22145">
        <ele>451</ele>
        <time>2015-04-26T08:04:17.000Z</time>
      </trkpt>
      <trkpt lat="47.06887" lon="6.22146">
        <ele>448</ele>
        <time>2015-04-26T08:04:21.000Z</time>
      </trkpt>
      <trkpt lat="47.06894" lon="6.22134">
        <ele>448</ele>
        <time>2015-04-26T08:04:27.000Z</time>
      </trkpt>
      <trkpt lat="47.06895" lon="6.2212">
        <ele>441</ele>
        <time>2015-04-26T08:04:31.000Z</time>
      </trkpt>
      <trkpt lat="47.06915" lon="6.22092">
        <ele>437</ele>
        <time>2015-04-26T08:04:35.000Z</time>
      </trkpt>
      <trkpt lat="47.0692" lon="6.2208">
        <ele>430</ele>
        <time>2015-04-26T08:04:37.000Z</time>
      </trkpt>
      <trkpt lat="47.0692" lon="6.2208">
        <ele>430</ele>
        <time>2015-04-26T08:04:39.000Z</time>
      </trkpt>
      <trkpt lat="47.0692" lon="6.2208">
        <ele>430</ele>
        <time>2015-04-26T08:04:41.000Z</time>
      </trkpt>
      <trkpt lat="47.06938" lon="6.22085">
        <ele>424</ele>
        <time>2015-04-26T08:04:45.000Z</time>
      </trkpt>
      <trkpt lat="47.06938" lon="6.22085">
        <ele>424</ele>
        <time>2015-04-26T08:04:49.000Z</time>
      </trkpt>
      <trkpt lat="47.06973" lon="6.22124">
        <ele>423</ele>
        <time>2015-04-26T08:04:57.000Z</time>
      </trkpt>
      <trkpt lat="47.06979" lon="6.22133">
        <ele>418</ele>
        <time>2015-04-26T08:05:01.000Z</time>
      </trkpt>
      <trkpt lat="47.06987" lon="6.22142">
        <ele>422</ele>
        <time>2015-04-26T08:05:03.000Z</time>
      </trkpt>
      <trkpt lat="47.06996" lon="6.22149">
        <ele>428</ele>
        <time>2015-04-26T08:05:05.000Z</time>
      </trkpt>
      <trkpt lat="47.07006" lon="6.22156">
        <ele>427</ele>
        <time>2015-04-26T08:05:07.000Z</time>
      </trkpt>
      <trkpt lat="47.07016" lon="6.22163">
        <ele>431</ele>
        <time>2015-04-26T08:05:09.000Z</time>
      </trkpt>
      <trkpt lat="47.07035" lon="6.22174">
        <ele>432</ele>
        <time>2015-04-26T08:05:11.000Z</time>
      </trkpt>
      <trkpt lat="47.07035" lon="6.22174">
        <ele>432</ele>
        <time>2015-04-26T08:05:15.000Z</time>
      </trkpt>
      <trkpt lat="47.07035" lon="6.22174">
        <ele>432</ele>
        <time>2015-04-26T08:05:17.000Z</time>
      </trkpt>
      <trkpt lat="47.07018" lon="6.22134">
        <ele>427</ele>
        <time>2015-04-26T08:05:23.000Z</time>
      </trkpt>
      <trkpt lat="47.07011" lon="6.22124">
        <ele>430</ele>
        <time>2015-04-26T08:05:25.000Z</time>
      </trkpt>
      <trkpt lat="47.06997" lon="6.22105">
        <ele>430</ele>
        <time>2015-04-26T08:05:29.000Z</time>
      </trkpt>
      <trkpt lat="47.06989" lon="6.22093">
        <ele>431</ele>
        <time>2015-04-26T08:05:31.000Z</time>
      </trkpt>
      <trkpt lat="47.06981" lon="6.22082">
        <ele>430</ele>
        <time>2015-04-26T08:05:33.000Z</time>
      </trkpt>
      <trkpt lat="47.06974" lon="6.22074">
        <ele>425</ele>
        <time>2015-04-26T08:05:35.000Z</time>
      </trkpt>
      <trkpt lat="47.06974" lon="6.22074">
        <ele>425</ele>
        <time>2015-04-26T08:05:37.000Z</time>
      </trkpt>
      <trkpt lat="47.06974" lon="6.22074">
        <ele>425</ele>
        <time>2015-04-26T08:05:39.000Z</time>
      </trkpt>
      <trkpt lat="47.06945" lon="6.2204">
        <ele>415</ele>
        <time>2015-04-26T08:05:41.000Z</time>
      </trkpt>
      <trkpt lat="47.0693" lon="6.22026">
        <ele>421</ele>
        <time>2015-04-26T08:05:43.000Z</time>
      </trkpt>
      <trkpt lat="47.06916" lon="6.22011">
        <ele>421</ele>
        <time>2015-04-26T08:05:45.000Z</time>
      </trkpt>
      <trkpt lat="47.06902" lon="6.21997">
        <ele>422</ele>
        <time>2015-04-26T08:05:47.000Z</time>
      </trkpt>
      <trkpt lat="47.06887" lon="6.21984">
        <ele>419</ele>
        <time>2015-04-26T08:05:49.000Z</time>
      </trkpt>
      <trkpt lat="47.06872" lon="6.21967">
        <ele>424</ele>
        <time>2015-04-26T08:05:51.000Z</time>
      </trkpt>
      <trkpt lat="47.06859" lon="6.21945">
        <ele>424</ele>
        <time>2015-04-26T08:05:53.000Z</time>
      </trkpt>
      <trkpt lat="47.06847" lon="6.21925">
        <ele>422</ele>
        <time>2015-04-26T08:05:55.000Z</time>
      </trkpt>
      <trkpt lat="47.06835" lon="6.21907">
        <ele>426</ele>
        <time>2015-04-26T08:05:57.000Z</time>
      </trkpt>
      <trkpt lat="47.06819" lon="6.21892">
        <ele>427</ele>
        <time>2015-04-26T08:05:59.000Z</time>
      </trkpt>
      <trkpt lat="47.06803" lon="6.21875">
        <ele>425</ele>
        <time>2015-04-26T08:06:01.000Z</time>
      </trkpt>
      <trkpt lat="47.06787" lon="6.21856">
        <ele>418</ele>
        <time>2015-04-26T08:06:03.000Z</time>
      </trkpt>
      <trkpt lat="47.06773" lon="6.21834">
        <ele>420</ele>
        <time>2015-04-26T08:06:05.000Z</time>
      </trkpt>
      <trkpt lat="47.06756" lon="6.21815">
        <ele>424</ele>
        <time>2015-04-26T08:06:07.000Z</time>
      </trkpt>
      <trkpt lat="47.06739" lon="6.21798">
        <ele>423</ele>
        <time>2015-04-26T08:06:09.000Z</time>
      </trkpt>
      <trkpt lat="47.06726" lon="6.21779">
        <ele>418</ele>
        <time>2015-04-26T08:06:11.000Z</time>
      </trkpt>
      <trkpt lat="47.06713" lon="6.2176">
        <ele>421</ele>
        <time>2015-04-26T08:06:13.000Z</time>
      </trkpt>
      <trkpt lat="47.06701" lon="6.21742">
        <ele>426</ele>
        <time>2015-04-26T08:06:15.000Z</time>
      </trkpt>
      <trkpt lat="47.06692" lon="6.2172">
        <ele>426</ele>
        <time>2015-04-26T08:06:17.000Z</time>
      </trkpt>
      <trkpt lat="47.06681" lon="6.21699">
        <ele>424</ele>
        <time>2015-04-26T08:06:19.000Z</time>
      </trkpt>
      <trkpt lat="47.06668" lon="6.21676">
        <ele>421</ele>
        <time>2015-04-26T08:06:21.000Z</time>
      </trkpt>
      <trkpt lat="47.06656" lon="6.21655">
        <ele>418</ele>
        <time>2015-04-26T08:06:23.000Z</time>
      </trkpt>
      <trkpt lat="47.06646" lon="6.21637">
        <ele>414</ele>
        <time>2015-04-26T08:06:25.000Z</time>
      </trkpt>
      <trkpt lat="47.06632" lon="6.21621">
        <ele>411</ele>
        <time>2015-04-26T08:06:28.000Z</time>
      </trkpt>
      <trkpt lat="47.06584" lon="6.21564">
        <ele>413</ele>
        <time>2015-04-26T08:06:35.000Z</time>
      </trkpt>
      <trkpt lat="47.06584" lon="6.21564">
        <ele>413</ele>
        <time>2015-04-26T08:06:41.000Z</time>
      </trkpt>
      <trkpt lat="47.06584" lon="6.21564">
        <ele>413</ele>
        <time>2015-04-26T08:06:44.000Z</time>
      </trkpt>
      <trkpt lat="47.06584" lon="6.21564">
        <ele>413</ele>
        <time>2015-04-26T08:06:46.000Z</time>
      </trkpt>
      <trkpt lat="47.06584" lon="6.21564">
        <ele>413</ele>
        <time>2015-04-26T08:06:48.000Z</time>
      </trkpt>
      <trkpt lat="47.06584" lon="6.21564">
        <ele>413</ele>
        <time>2015-04-26T08:06:52.000Z</time>
      </trkpt>
      <trkpt lat="47.06516" lon="6.21628">
        <ele>419</ele>
        <time>2015-04-26T08:06:56.000Z</time>
      </trkpt>
      <trkpt lat="47.06504" lon="6.21624">
        <ele>414</ele>
        <time>2015-04-26T08:06:58.000Z</time>
      </trkpt>
      <trkpt lat="47.06489" lon="6.21618">
        <ele>416</ele>
        <time>2015-04-26T08:07:00.000Z</time>
      </trkpt>
      <trkpt lat="47.06475" lon="6.21611">
        <ele>421</ele>
        <time>2015-04-26T08:07:02.000Z</time>
      </trkpt>
      <trkpt lat="47.06463" lon="6.21604">
        <ele>416</ele>
        <time>2015-04-26T08:07:04.000Z</time>
      </trkpt>
      <trkpt lat="47.06448" lon="6.21594">
        <ele>416</ele>
        <time>2015-04-26T08:07:06.000Z</time>
      </trkpt>
      <trkpt lat="47.06437" lon="6.21584">
        <ele>417</ele>
        <time>2015-04-26T08:07:08.000Z</time>
      </trkpt>
      <trkpt lat="47.06428" lon="6.21575">
        <ele>419</ele>
        <time>2015-04-26T08:07:10.000Z</time>
      </trkpt>
      <trkpt lat="47.0642" lon="6.2156">
        <ele>416</ele>
        <time>2015-04-26T08:07:12.000Z</time>
      </trkpt>
      <trkpt lat="47.06418" lon="6.21542">
        <ele>410</ele>
        <time>2015-04-26T08:07:14.000Z</time>
      </trkpt>
      <trkpt lat="47.0641" lon="6.21527">
        <ele>409</ele>
        <time>2015-04-26T08:07:16.000Z</time>
      </trkpt>
      <trkpt lat="47.06403" lon="6.21511">
        <ele>409</ele>
        <time>2015-04-26T08:07:18.000Z</time>
      </trkpt>
      <trkpt lat="47.06398" lon="6.21497">
        <ele>409</ele>
        <time>2015-04-26T08:07:20.000Z</time>
      </trkpt>
      <trkpt lat="47.06391" lon="6.21484">
        <ele>408</ele>
        <time>2015-04-26T08:07:22.000Z</time>
      </trkpt>
      <trkpt lat="47.06385" lon="6.21468">
        <ele>411</ele>
        <time>2015-04-26T08:07:24.000Z</time>
      </trkpt>
      <trkpt lat="47.06381" lon="6.21453">
        <ele>410</ele>
        <time>2015-04-26T08:07:26.000Z</time>
      </trkpt>
      <trkpt lat="47.06377" lon="6.21438">
        <ele>409</ele>
        <time>2015-04-26T08:07:28.000Z</time>
      </trkpt>
      <trkpt lat="47.06377" lon="6.21438">
        <ele>409</ele>
        <time>2015-04-26T08:07:33.000Z</time>
      </trkpt>
      <trkpt lat="47.06377" lon="6.21438">
        <ele>409</ele>
        <time>2015-04-26T08:07:35.000Z</time>
      </trkpt>
      <trkpt lat="47.06377" lon="6.21438">
        <ele>409</ele>
        <time>2015-04-26T08:07:37.000Z</time>
      </trkpt>
      <trkpt lat="47.06377" lon="6.21438">
        <ele>409</ele>
        <time>2015-04-26T08:07:39.000Z</time>
      </trkpt>
      <trkpt lat="47.06377" lon="6.21438">
        <ele>409</ele>
        <time>2015-04-26T08:07:41.000Z</time>
      </trkpt>
      <trkpt lat="47.06377" lon="6.21438">
        <ele>409</ele>
        <time>2015-04-26T08:07:43.000Z</time>
      </trkpt>
      <trkpt lat="47.06377" lon="6.21438">
        <ele>409</ele>
        <time>2015-04-26T08:07:45.000Z</time>
      </trkpt>
      <trkpt lat="47.06352" lon="6.21342">
        <ele>409</ele>
        <time>2015-04-26T08:07:50.000Z</time>
      </trkpt>
      <trkpt lat="47.06344" lon="6.21324">
        <ele>407</ele>
        <time>2015-04-26T08:07:54.000Z</time>
      </trkpt>
      <trkpt lat="47.06344" lon="6.21324">
        <ele>407</ele>
        <time>2015-04-26T08:07:56.000Z</time>
      </trkpt>
      <trkpt lat="47.06344" lon="6.21304">
        <ele>411</ele>
        <time>2015-04-26T08:07:58.000Z</time>
      </trkpt>
      <trkpt lat="47.06344" lon="6.21304">
        <ele>411</ele>
        <time>2015-04-26T08:08:00.000Z</time>
      </trkpt>
      <trkpt lat="47.06344" lon="6.21304">
        <ele>411</ele>
        <time>2015-04-26T08:08:02.000Z</time>
      </trkpt>
      <trkpt lat="47.06344" lon="6.21304">
        <ele>411</ele>
        <time>2015-04-26T08:08:04.000Z</time>
      </trkpt>
      <trkpt lat="47.06344" lon="6.21304">
        <ele>411</ele>
        <time>2015-04-26T08:08:10.000Z</time>
      </trkpt>
      <trkpt lat="47.06344" lon="6.21304">
        <ele>411</ele>
        <time>2015-04-26T08:08:12.000Z</time>
      </trkpt>
      <trkpt lat="47.06344" lon="6.21304">
        <ele>411</ele>
        <time>2015-04-26T08:08:14.000Z</time>
      </trkpt>
      <trkpt lat="47.06344" lon="6.21304">
        <ele>411</ele>
        <time>2015-04-26T08:08:16.000Z</time>
      </trkpt>
      <trkpt lat="47.06344" lon="6.21304">
        <ele>411</ele>
        <time>2015-04-26T08:08:18.000Z</time>
      </trkpt>
      <trkpt lat="47.06344" lon="6.21304">
        <ele>411</ele>
        <time>2015-04-26T08:08:20.000Z</time>
      </trkpt>
      <trkpt lat="47.06344" lon="6.21304">
        <ele>411</ele>
        <time>2015-04-26T08:08:22.000Z</time>
      </trkpt>
      <trkpt lat="47.06344" lon="6.21304">
        <ele>411</ele>
        <time>2015-04-26T08:08:24.000Z</time>
      </trkpt>
      <trkpt lat="47.06344" lon="6.21304">
        <ele>411</ele>
        <time>2015-04-26T08:08:26.000Z</time>
      </trkpt>
      <trkpt lat="47.06344" lon="6.21304">
        <ele>411</ele>
        <time>2015-04-26T08:08:28.000Z</time>
      </trkpt>
      <trkpt lat="47.06344" lon="6.21304">
        <ele>411</ele>
        <time>2015-04-26T08:08:30.000Z</time>
      </trkpt>
      <trkpt lat="47.06344" lon="6.21304">
        <ele>411</ele>
        <time>2015-04-26T08:08:32.000Z</time>
      </trkpt>
      <trkpt lat="47.06344" lon="6.21304">
        <ele>411</ele>
        <time>2015-04-26T08:08:34.000Z</time>
      </trkpt>
      <trkpt lat="47.06344" lon="6.21304">
        <ele>411</ele>
        <time>2015-04-26T08:08:38.000Z</time>
      </trkpt>
      <trkpt lat="47.06344" lon="6.21304">
        <ele>411</ele>
        <time>2015-04-26T08:08:40.000Z</time>
      </trkpt>
      <trkpt lat="47.06344" lon="6.21304">
        <ele>411</ele>
        <time>2015-04-26T08:08:42.000Z</time>
      </trkpt>
      <trkpt lat="47.06344" lon="6.21304">
        <ele>411</ele>
        <time>2015-04-26T08:08:44.000Z</time>
      </trkpt>
      <trkpt lat="47.06347" lon="6.21212">
        <ele>424</ele>
        <time>2015-04-26T08:08:50.000Z</time>
      </trkpt>
      <trkpt lat="47.06348" lon="6.21164">
        <ele>424</ele>
        <time>2015-04-26T08:08:52.000Z</time>
      </trkpt>
      <trkpt lat="47.06349" lon="6.21138">
        <ele>419</ele>
        <time>2015-04-26T08:08:54.000Z</time>
      </trkpt>
      <trkpt lat="47.0635" lon="6.21121">
        <ele>416</ele>
        <time>2015-04-26T08:08:56.000Z</time>
      </trkpt>
      <trkpt lat="47.0635" lon="6.21121">
        <ele>416</ele>
        <time>2015-04-26T08:08:58.000Z</time>
      </trkpt>
      <trkpt lat="47.0635" lon="6.21121">
        <ele>416</ele>
        <time>2015-04-26T08:09:00.000Z</time>
      </trkpt>
      <trkpt lat="47.0635" lon="6.21121">
        <ele>416</ele>
        <time>2015-04-26T08:09:04.000Z</time>
      </trkpt>
      <trkpt lat="47.0635" lon="6.21098">
        <ele>428</ele>
        <time>2015-04-26T08:09:07.000Z</time>
      </trkpt>
      <trkpt lat="47.0635" lon="6.21084">
        <ele>424</ele>
        <time>2015-04-26T08:09:09.000Z</time>
      </trkpt>
      <trkpt lat="47.0635" lon="6.21084">
        <ele>424</ele>
        <time>2015-04-26T08:09:11.000Z</time>
      </trkpt>
      <trkpt lat="47.0635" lon="6.21084">
        <ele>424</ele>
        <time>2015-04-26T08:09:13.000Z</time>
      </trkpt>
      <trkpt lat="47.06351" lon="6.21062">
        <ele>428</ele>
        <time>2015-04-26T08:09:23.000Z</time>
      </trkpt>
      <trkpt lat="47.06351" lon="6.21062">
        <ele>428</ele>
        <time>2015-04-26T08:09:25.000Z</time>
      </trkpt>
      <trkpt lat="47.06352" lon="6.21043">
        <ele>429</ele>
        <time>2015-04-26T08:09:30.000Z</time>
      </trkpt>
      <trkpt lat="47.06352" lon="6.2103">
        <ele>431</ele>
        <time>2015-04-26T08:09:32.000Z</time>
      </trkpt>
      <trkpt lat="47.06352" lon="6.2103">
        <ele>431</ele>
        <time>2015-04-26T08:09:35.000Z</time>
      </trkpt>
      <trkpt lat="47.06352" lon="6.2103">
        <ele>431</ele>
        <time>2015-04-26T08:09:41.000Z</time>
      </trkpt>
      <trkpt lat="47.06352" lon="6.2103">
        <ele>431</ele>
        <time>2015-04-26T08:09:44.000Z</time>
      </trkpt>
      <trkpt lat="47.06352" lon="6.2103">
        <ele>431</ele>
        <time>2015-04-26T08:09:46.000Z</time>
      </trkpt>
      <trkpt lat="47.06352" lon="6.2103">
        <ele>431</ele>
        <time>2015-04-26T08:09:48.000Z</time>
      </trkpt>
      <trkpt lat="47.06354" lon="6.20994">
        <ele>432</ele>
        <time>2015-04-26T08:09:56.000Z</time>
      </trkpt>
      <trkpt lat="47.06355" lon="6.20974">
        <ele>432</ele>
        <time>2015-04-26T08:09:58.000Z</time>
      </trkpt>
      <trkpt lat="47.06355" lon="6.20974">
        <ele>432</ele>
        <time>2015-04-26T08:10:04.000Z</time>
      </trkpt>
      <trkpt lat="47.06355" lon="6.20974">
        <ele>432</ele>
        <time>2015-04-26T08:10:06.000Z</time>
      </trkpt>
      <trkpt lat="47.06355" lon="6.20974">
        <ele>432</ele>
        <time>2015-04-26T08:10:12.000Z</time>
      </trkpt>
      <trkpt lat="47.06355" lon="6.20974">
        <ele>432</ele>
        <time>2015-04-26T08:10:18.000Z</time>
      </trkpt>
      <trkpt lat="47.06355" lon="6.20974">
        <ele>432</ele>
        <time>2015-04-26T08:10:20.000Z</time>
      </trkpt>
      <trkpt lat="47.06357" lon="6.2093">
        <ele>437</ele>
        <time>2015-04-26T08:10:25.000Z</time>
      </trkpt>
      <trkpt lat="47.06358" lon="6.20904">
        <ele>436</ele>
        <time>2015-04-26T08:10:28.000Z</time>
      </trkpt>
      <trkpt lat="47.06359" lon="6.20889">
        <ele>437</ele>
        <time>2015-04-26T08:10:30.000Z</time>
      </trkpt>
      <trkpt lat="47.0636" lon="6.20879">
        <ele>435</ele>
        <time>2015-04-26T08:10:32.000Z</time>
      </trkpt>
      <trkpt lat="47.0636" lon="6.20879">
        <ele>435</ele>
        <time>2015-04-26T08:10:34.000Z</time>
      </trkpt>
      <trkpt lat="47.0636" lon="6.20879">
        <ele>435</ele>
        <time>2015-04-26T08:10:36.000Z</time>
      </trkpt>
      <trkpt lat="47.06363" lon="6.20862">
        <ele>443</ele>
        <time>2015-04-26T08:10:42.000Z</time>
      </trkpt>
      <trkpt lat="47.06364" lon="6.20852">
        <ele>449</ele>
        <time>2015-04-26T08:10:44.000Z</time>
      </trkpt>
      <trkpt lat="47.06367" lon="6.2084">
        <ele>447</ele>
        <time>2015-04-26T08:10:49.000Z</time>
      </trkpt>
      <trkpt lat="47.06369" lon="6.20832">
        <ele>447</ele>
        <time>2015-04-26T08:10:51.000Z</time>
      </trkpt>
      <trkpt lat="47.06369" lon="6.20832">
        <ele>447</ele>
        <time>2015-04-26T08:10:53.000Z</time>
      </trkpt>
      <trkpt lat="47.06371" lon="6.2082">
        <ele>448</ele>
        <time>2015-04-26T08:11:00.000Z</time>
      </trkpt>
      <trkpt lat="47.06371" lon="6.2082">
        <ele>448</ele>
        <time>2015-04-26T08:11:02.000Z</time>
      </trkpt>
      <trkpt lat="47.06373" lon="6.20806">
        <ele>457</ele>
        <time>2015-04-26T08:11:09.000Z</time>
      </trkpt>
      <trkpt lat="47.06373" lon="6.20792">
        <ele>457</ele>
        <time>2015-04-26T08:11:17.000Z</time>
      </trkpt>
      <trkpt lat="47.06375" lon="6.20778">
        <ele>458</ele>
        <time>2015-04-26T08:11:23.000Z</time>
      </trkpt>
      <trkpt lat="47.06375" lon="6.20778">
        <ele>458</ele>
        <time>2015-04-26T08:11:29.000Z</time>
      </trkpt>
      <trkpt lat="47.06375" lon="6.20778">
        <ele>458</ele>
        <time>2015-04-26T08:11:31.000Z</time>
      </trkpt>
      <trkpt lat="47.06375" lon="6.20778">
        <ele>458</ele>
        <time>2015-04-26T08:11:33.000Z</time>
      </trkpt>
      <trkpt lat="47.06375" lon="6.20778">
        <ele>458</ele>
        <time>2015-04-26T08:11:35.000Z</time>
      </trkpt>
      <trkpt lat="47.06382" lon="6.20748">
        <ele>448</ele>
        <time>2015-04-26T08:11:40.000Z</time>
      </trkpt>
      <trkpt lat="47.06382" lon="6.20748">
        <ele>448</ele>
        <time>2015-04-26T08:11:44.000Z</time>
      </trkpt>
      <trkpt lat="47.0639" lon="6.20722">
        <ele>451</ele>
        <time>2015-04-26T08:11:50.000Z</time>
      </trkpt>
      <trkpt lat="47.06395" lon="6.20702">
        <ele>460</ele>
        <time>2015-04-26T08:11:57.000Z</time>
      </trkpt>
      <trkpt lat="47.06395" lon="6.20702">
        <ele>460</ele>
        <time>2015-04-26T08:12:03.000Z</time>
      </trkpt>
      <trkpt lat="47.064" lon="6.20678">
        <ele>466</ele>
        <time>2015-04-26T08:12:10.000Z</time>
      </trkpt>
      <trkpt lat="47.06402" lon="6.2066">
        <ele>468</ele>
        <time>2015-04-26T08:12:17.000Z</time>
      </trkpt>
      <trkpt lat="47.06402" lon="6.2066">
        <ele>468</ele>
        <time>2015-04-26T08:12:19.000Z</time>
      </trkpt>
      <trkpt lat="47.06402" lon="6.2066">
        <ele>468</ele>
        <time>2015-04-26T08:12:21.000Z</time>
      </trkpt>
      <trkpt lat="47.06402" lon="6.2066">
        <ele>468</ele>
        <time>2015-04-26T08:12:23.000Z</time>
      </trkpt>
      <trkpt lat="47.06402" lon="6.2066">
        <ele>468</ele>
        <time>2015-04-26T08:12:25.000Z</time>
      </trkpt>
      <trkpt lat="47.06402" lon="6.2066">
        <ele>468</ele>
        <time>2015-04-26T08:12:27.000Z</time>
      </trkpt>
      <trkpt lat="47.06402" lon="6.2066">
        <ele>468</ele>
        <time>2015-04-26T08:12:29.000Z</time>
      </trkpt>
      <trkpt lat="47.06402" lon="6.2066">
        <ele>468</ele>
        <time>2015-04-26T08:12:35.000Z</time>
      </trkpt>
      <trkpt lat="47.06402" lon="6.2066">
        <ele>468</ele>
        <time>2015-04-26T08:12:37.000Z</time>
      </trkpt>
      <trkpt lat="47.06408" lon="6.20611">
        <ele>474</ele>
        <time>2015-04-26T08:12:55.000Z</time>
      </trkpt>
      <trkpt lat="47.06411" lon="6.20584">
        <ele>473</ele>
        <time>2015-04-26T08:12:57.000Z</time>
      </trkpt>
      <trkpt lat="47.06413" lon="6.20569">
        <ele>469</ele>
        <time>2015-04-26T08:12:59.000Z</time>
      </trkpt>
      <trkpt lat="47.06414" lon="6.2056">
        <ele>469</ele>
        <time>2015-04-26T08:13:01.000Z</time>
      </trkpt>
      <trkpt lat="47.06416" lon="6.20553">
        <ele>473</ele>
        <time>2015-04-26T08:13:03.000Z</time>
      </trkpt>
      <trkpt lat="47.0642" lon="6.2054">
        <ele>467</ele>
        <time>2015-04-26T08:13:07.000Z</time>
      </trkpt>
      <trkpt lat="47.0642" lon="6.2054">
        <ele>467</ele>
        <time>2015-04-26T08:13:13.000Z</time>
      </trkpt>
      <trkpt lat="47.0642" lon="6.2054">
        <ele>467</ele>
        <time>2015-04-26T08:13:15.000Z</time>
      </trkpt>
      <trkpt lat="47.0642" lon="6.2054">
        <ele>467</ele>
        <time>2015-04-26T08:13:17.000Z</time>
      </trkpt>
      <trkpt lat="47.0643" lon="6.20485">
        <ele>478</ele>
        <time>2015-04-26T08:13:37.000Z</time>
      </trkpt>
      <trkpt lat="47.0643" lon="6.20485">
        <ele>478</ele>
        <time>2015-04-26T08:13:39.000Z</time>
      </trkpt>
      <trkpt lat="47.0643" lon="6.20485">
        <ele>478</ele>
        <time>2015-04-26T08:13:41.000Z</time>
      </trkpt>
      <trkpt lat="47.0643" lon="6.20485">
        <ele>478</ele>
        <time>2015-04-26T08:13:43.000Z</time>
      </trkpt>
      <trkpt lat="47.0643" lon="6.20485">
        <ele>478</ele>
        <time>2015-04-26T08:13:45.000Z</time>
      </trkpt>
      <trkpt lat="47.06436" lon="6.20457">
        <ele>476</ele>
        <time>2015-04-26T08:13:51.000Z</time>
      </trkpt>
      <trkpt lat="47.06436" lon="6.20457">
        <ele>476</ele>
        <time>2015-04-26T08:13:59.000Z</time>
      </trkpt>
      <trkpt lat="47.06436" lon="6.20457">
        <ele>476</ele>
        <time>2015-04-26T08:14:03.000Z</time>
      </trkpt>
      <trkpt lat="47.06436" lon="6.20457">
        <ele>476</ele>
        <time>2015-04-26T08:14:05.000Z</time>
      </trkpt>
      <trkpt lat="47.06427" lon="6.20409">
        <ele>479</ele>
        <time>2015-04-26T08:14:51.000Z</time>
      </trkpt>
      <trkpt lat="47.06421" lon="6.20383">
        <ele>480</ele>
        <time>2015-04-26T08:14:53.000Z</time>
      </trkpt>
      <trkpt lat="47.06421" lon="6.20383">
        <ele>480</ele>
        <time>2015-04-26T08:14:55.000Z</time>
      </trkpt>
      <trkpt lat="47.06421" lon="6.20383">
        <ele>480</ele>
        <time>2015-04-26T08:14:57.000Z</time>
      </trkpt>
      <trkpt lat="47.06416" lon="6.2036">
        <ele>479</ele>
        <time>2015-04-26T08:15:05.000Z</time>
      </trkpt>
      <trkpt lat="47.06413" lon="6.20347">
        <ele>483</ele>
        <time>2015-04-26T08:15:07.000Z</time>
      </trkpt>
      <trkpt lat="47.06413" lon="6.20337">
        <ele>483</ele>
        <time>2015-04-26T08:15:09.000Z</time>
      </trkpt>
      <trkpt lat="47.06413" lon="6.20337">
        <ele>483</ele>
        <time>2015-04-26T08:15:11.000Z</time>
      </trkpt>
      <trkpt lat="47.06413" lon="6.20337">
        <ele>483</ele>
        <time>2015-04-26T08:15:13.000Z</time>
      </trkpt>
      <trkpt lat="47.06413" lon="6.20337">
        <ele>483</ele>
        <time>2015-04-26T08:15:15.000Z</time>
      </trkpt>
      <trkpt lat="47.06414" lon="6.20318">
        <ele>489</ele>
        <time>2015-04-26T08:15:21.000Z</time>
      </trkpt>
      <trkpt lat="47.06414" lon="6.20306">
        <ele>494</ele>
        <time>2015-04-26T08:15:23.000Z</time>
      </trkpt>
      <trkpt lat="47.06413" lon="6.203">
        <ele>495</ele>
        <time>2015-04-26T08:15:25.000Z</time>
      </trkpt>
      <trkpt lat="47.06413" lon="6.203">
        <ele>495</ele>
        <time>2015-04-26T08:15:27.000Z</time>
      </trkpt>
      <trkpt lat="47.06406" lon="6.20295">
        <ele>500</ele>
        <time>2015-04-26T08:15:35.000Z</time>
      </trkpt>
      <trkpt lat="47.064" lon="6.20293">
        <ele>506</ele>
        <time>2015-04-26T08:15:37.000Z</time>
      </trkpt>
      <trkpt lat="47.064" lon="6.20293">
        <ele>506</ele>
        <time>2015-04-26T08:15:39.000Z</time>
      </trkpt>
      <trkpt lat="47.064" lon="6.20293">
        <ele>506</ele>
        <time>2015-04-26T08:15:41.000Z</time>
      </trkpt>
      <trkpt lat="47.064" lon="6.20293">
        <ele>506</ele>
        <time>2015-04-26T08:15:43.000Z</time>
      </trkpt>
      <trkpt lat="47.06391" lon="6.20291">
        <ele>515</ele>
        <time>2015-04-26T08:15:45.000Z</time>
      </trkpt>
      <trkpt lat="47.06385" lon="6.20289">
        <ele>516</ele>
        <time>2015-04-26T08:15:47.000Z</time>
      </trkpt>
      <trkpt lat="47.06385" lon="6.20289">
        <ele>516</ele>
        <time>2015-04-26T08:15:49.000Z</time>
      </trkpt>
      <trkpt lat="47.0638" lon="6.20285">
        <ele>515</ele>
        <time>2015-04-26T08:15:51.000Z</time>
      </trkpt>
      <trkpt lat="47.0638" lon="6.20285">
        <ele>515</ele>
        <time>2015-04-26T08:15:53.000Z</time>
      </trkpt>
      <trkpt lat="47.0638" lon="6.20285">
        <ele>515</ele>
        <time>2015-04-26T08:15:55.000Z</time>
      </trkpt>
      <trkpt lat="47.0638" lon="6.20285">
        <ele>515</ele>
        <time>2015-04-26T08:15:57.000Z</time>
      </trkpt>
      <trkpt lat="47.06375" lon="6.20276">
        <ele>527</ele>
        <time>2015-04-26T08:16:01.000Z</time>
      </trkpt>
      <trkpt lat="47.06371" lon="6.20271">
        <ele>524</ele>
        <time>2015-04-26T08:16:03.000Z</time>
      </trkpt>
      <trkpt lat="47.06371" lon="6.20271">
        <ele>524</ele>
        <time>2015-04-26T08:16:05.000Z</time>
      </trkpt>
      <trkpt lat="47.06371" lon="6.20271">
        <ele>524</ele>
        <time>2015-04-26T08:16:07.000Z</time>
      </trkpt>
      <trkpt lat="47.06364" lon="6.20249">
        <ele>510</ele>
        <time>2015-04-26T08:22:50.000Z</time>
      </trkpt>
      <trkpt lat="47.06358" lon="6.20235">
        <ele>504</ele>
        <time>2015-04-26T08:22:52.000Z</time>
      </trkpt>
      <trkpt lat="47.06352" lon="6.20226">
        <ele>506</ele>
        <time>2015-04-26T08:22:54.000Z</time>
      </trkpt>
      <trkpt lat="47.06345" lon="6.20219">
        <ele>510</ele>
        <time>2015-04-26T08:22:56.000Z</time>
      </trkpt>
      <trkpt lat="47.06335" lon="6.20213">
        <ele>512</ele>
        <time>2015-04-26T08:22:58.000Z</time>
      </trkpt>
      <trkpt lat="47.06315" lon="6.202">
        <ele>508</ele>
        <time>2015-04-26T08:23:00.000Z</time>
      </trkpt>
      <trkpt lat="47.06303" lon="6.20193">
        <ele>502</ele>
        <time>2015-04-26T08:23:02.000Z</time>
      </trkpt>
      <trkpt lat="47.0629" lon="6.20188">
        <ele>498</ele>
        <time>2015-04-26T08:23:04.000Z</time>
      </trkpt>
      <trkpt lat="47.06276" lon="6.2019">
        <ele>498</ele>
        <time>2015-04-26T08:23:06.000Z</time>
      </trkpt>
      <trkpt lat="47.06264" lon="6.20195">
        <ele>497</ele>
        <time>2015-04-26T08:23:08.000Z</time>
      </trkpt>
      <trkpt lat="47.06254" lon="6.202">
        <ele>497</ele>
        <time>2015-04-26T08:23:10.000Z</time>
      </trkpt>
      <trkpt lat="47.06243" lon="6.20202">
        <ele>496</ele>
        <time>2015-04-26T08:23:12.000Z</time>
      </trkpt>
      <trkpt lat="47.06231" lon="6.20202">
        <ele>495</ele>
        <time>2015-04-26T08:23:14.000Z</time>
      </trkpt>
      <trkpt lat="47.06221" lon="6.20201">
        <ele>495</ele>
        <time>2015-04-26T08:23:16.000Z</time>
      </trkpt>
      <trkpt lat="47.0621" lon="6.202">
        <ele>496</ele>
        <time>2015-04-26T08:23:18.000Z</time>
      </trkpt>
      <trkpt lat="47.062" lon="6.20198">
        <ele>494</ele>
        <time>2015-04-26T08:23:20.000Z</time>
      </trkpt>
      <trkpt lat="47.0618" lon="6.20198">
        <ele>496</ele>
        <time>2015-04-26T08:23:24.000Z</time>
      </trkpt>
      <trkpt lat="47.0618" lon="6.20198">
        <ele>496</ele>
        <time>2015-04-26T08:23:26.000Z</time>
      </trkpt>
      <trkpt lat="47.0618" lon="6.20198">
        <ele>496</ele>
        <time>2015-04-26T08:23:28.000Z</time>
      </trkpt>
      <trkpt lat="47.0618" lon="6.20198">
        <ele>496</ele>
        <time>2015-04-26T08:23:30.000Z</time>
      </trkpt>
      <trkpt lat="47.0618" lon="6.20198">
        <ele>496</ele>
        <time>2015-04-26T08:23:32.000Z</time>
      </trkpt>
      <trkpt lat="47.0622" lon="6.20184">
        <ele>491</ele>
        <time>2015-04-26T08:23:36.000Z</time>
      </trkpt>
      <trkpt lat="47.06234" lon="6.20174">
        <ele>491</ele>
        <time>2015-04-26T08:23:38.000Z</time>
      </trkpt>
      <trkpt lat="47.06246" lon="6.20164">
        <ele>488</ele>
        <time>2015-04-26T08:23:40.000Z</time>
      </trkpt>
      <trkpt lat="47.06246" lon="6.20164">
        <ele>488</ele>
        <time>2015-04-26T08:23:42.000Z</time>
      </trkpt>
      <trkpt lat="47.06246" lon="6.20164">
        <ele>488</ele>
        <time>2015-04-26T08:23:44.000Z</time>
      </trkpt>
      <trkpt lat="47.06246" lon="6.20164">
        <ele>488</ele>
        <time>2015-04-26T08:23:46.000Z</time>
      </trkpt>
      <trkpt lat="47.06227" lon="6.20161">
        <ele>476</ele>
        <time>2015-04-26T08:23:49.000Z</time>
      </trkpt>
      <trkpt lat="47.06211" lon="6.20161">
        <ele>476</ele>
        <time>2015-04-26T08:23:51.000Z</time>
      </trkpt>
      <trkpt lat="47.06195" lon="6.20159">
        <ele>474</ele>
        <time>2015-04-26T08:23:53.000Z</time>
      </trkpt>
      <trkpt lat="47.06182" lon="6.20156">
        <ele>474</ele>
        <time>2015-04-26T08:23:55.000Z</time>
      </trkpt>
      <trkpt lat="47.06166" lon="6.20152">
        <ele>477</ele>
        <time>2015-04-26T08:23:57.000Z</time>
      </trkpt>
      <trkpt lat="47.0615" lon="6.20148">
        <ele>476</ele>
        <time>2015-04-26T08:23:59.000Z</time>
      </trkpt>
      <trkpt lat="47.06135" lon="6.20144">
        <ele>476</ele>
        <time>2015-04-26T08:24:01.000Z</time>
      </trkpt>
      <trkpt lat="47.06118" lon="6.20139">
        <ele>476</ele>
        <time>2015-04-26T08:24:03.000Z</time>
      </trkpt>
      <trkpt lat="47.061" lon="6.20136">
        <ele>475</ele>
        <time>2015-04-26T08:24:05.000Z</time>
      </trkpt>
      <trkpt lat="47.06084" lon="6.20132">
        <ele>472</ele>
        <time>2015-04-26T08:24:07.000Z</time>
      </trkpt>
      <trkpt lat="47.06071" lon="6.20127">
        <ele>470</ele>
        <time>2015-04-26T08:24:09.000Z</time>
      </trkpt>
      <trkpt lat="47.06057" lon="6.20123">
        <ele>466</ele>
        <time>2015-04-26T08:24:11.000Z</time>
      </trkpt>
      <trkpt lat="47.06057" lon="6.20123">
        <ele>466</ele>
        <time>2015-04-26T08:24:13.000Z</time>
      </trkpt>
      <trkpt lat="47.06034" lon="6.20117">
        <ele>467</ele>
        <time>2015-04-26T08:24:15.000Z</time>
      </trkpt>
      <trkpt lat="47.06023" lon="6.20118">
        <ele>467</ele>
        <time>2015-04-26T08:24:17.000Z</time>
      </trkpt>
      <trkpt lat="47.06011" lon="6.2012">
        <ele>464</ele>
        <time>2015-04-26T08:24:19.000Z</time>
      </trkpt>
      <trkpt lat="47.05998" lon="6.20119">
        <ele>462</ele>
        <time>2015-04-26T08:24:21.000Z</time>
      </trkpt>
      <trkpt lat="47.05998" lon="6.20119">
        <ele>462</ele>
        <time>2015-04-26T08:24:23.000Z</time>
      </trkpt>
      <trkpt lat="47.05998" lon="6.20119">
        <ele>462</ele>
        <time>2015-04-26T08:24:25.000Z</time>
      </trkpt>
      <trkpt lat="47.05998" lon="6.20119">
        <ele>462</ele>
        <time>2015-04-26T08:24:27.000Z</time>
      </trkpt>
      <trkpt lat="47.05998" lon="6.20119">
        <ele>462</ele>
        <time>2015-04-26T08:24:29.000Z</time>
      </trkpt>
      <trkpt lat="47.05927" lon="6.20116">
        <ele>455</ele>
        <time>2015-04-26T08:24:36.000Z</time>
      </trkpt>
      <trkpt lat="47.05914" lon="6.20115">
        <ele>453</ele>
        <time>2015-04-26T08:24:38.000Z</time>
      </trkpt>
      <trkpt lat="47.05896" lon="6.20112">
        <ele>454</ele>
        <time>2015-04-26T08:24:41.000Z</time>
      </trkpt>
      <trkpt lat="47.05882" lon="6.20111">
        <ele>452</ele>
        <time>2015-04-26T08:24:43.000Z</time>
      </trkpt>
      <trkpt lat="47.05868" lon="6.20109">
        <ele>450</ele>
        <time>2015-04-26T08:24:45.000Z</time>
      </trkpt>
      <trkpt lat="47.05857" lon="6.20108">
        <ele>445</ele>
        <time>2015-04-26T08:24:47.000Z</time>
      </trkpt>
      <trkpt lat="47.05857" lon="6.20108">
        <ele>445</ele>
        <time>2015-04-26T08:24:49.000Z</time>
      </trkpt>
      <trkpt lat="47.05857" lon="6.20108">
        <ele>445</ele>
        <time>2015-04-26T08:24:51.000Z</time>
      </trkpt>
      <trkpt lat="47.05857" lon="6.20108">
        <ele>445</ele>
        <time>2015-04-26T08:24:53.000Z</time>
      </trkpt>
      <trkpt lat="47.05857" lon="6.20108">
        <ele>445</ele>
        <time>2015-04-26T08:24:55.000Z</time>
      </trkpt>
      <trkpt lat="47.05886" lon="6.20075">
        <ele>436</ele>
        <time>2015-04-26T08:24:59.000Z</time>
      </trkpt>
      <trkpt lat="47.05897" lon="6.20069">
        <ele>435</ele>
        <time>2015-04-26T08:25:01.000Z</time>
      </trkpt>
      <trkpt lat="47.05906" lon="6.20062">
        <ele>433</ele>
        <time>2015-04-26T08:25:03.000Z</time>
      </trkpt>
      <trkpt lat="47.05917" lon="6.20054">
        <ele>435</ele>
        <time>2015-04-26T08:25:05.000Z</time>
      </trkpt>
      <trkpt lat="47.05928" lon="6.20045">
        <ele>436</ele>
        <time>2015-04-26T08:25:07.000Z</time>
      </trkpt>
      <trkpt lat="47.05941" lon="6.20033">
        <ele>436</ele>
        <time>2015-04-26T08:25:09.000Z</time>
      </trkpt>
      <trkpt lat="47.05954" lon="6.20022">
        <ele>435</ele>
        <time>2015-04-26T08:25:11.000Z</time>
      </trkpt>
      <trkpt lat="47.05964" lon="6.2001">
        <ele>436</ele>
        <time>2015-04-26T08:25:13.000Z</time>
      </trkpt>
      <trkpt lat="47.05971" lon="6.19995">
        <ele>437</ele>
        <time>2015-04-26T08:25:15.000Z</time>
      </trkpt>
      <trkpt lat="47.05982" lon="6.19988">
        <ele>436</ele>
        <time>2015-04-26T08:25:17.000Z</time>
      </trkpt>
      <trkpt lat="47.05997" lon="6.19985">
        <ele>436</ele>
        <time>2015-04-26T08:25:19.000Z</time>
      </trkpt>
      <trkpt lat="47.06013" lon="6.19985">
        <ele>435</ele>
        <time>2015-04-26T08:25:21.000Z</time>
      </trkpt>
      <trkpt lat="47.06027" lon="6.19985">
        <ele>435</ele>
        <time>2015-04-26T08:25:23.000Z</time>
      </trkpt>
      <trkpt lat="47.06041" lon="6.19977">
        <ele>434</ele>
        <time>2015-04-26T08:25:25.000Z</time>
      </trkpt>
      <trkpt lat="47.06056" lon="6.19969">
        <ele>435</ele>
        <time>2015-04-26T08:25:27.000Z</time>
      </trkpt>
      <trkpt lat="47.0607" lon="6.19961">
        <ele>436</ele>
        <time>2015-04-26T08:25:29.000Z</time>
      </trkpt>
      <trkpt lat="47.06081" lon="6.19951">
        <ele>438</ele>
        <time>2015-04-26T08:25:31.000Z</time>
      </trkpt>
      <trkpt lat="47.06092" lon="6.19939">
        <ele>438</ele>
        <time>2015-04-26T08:25:33.000Z</time>
      </trkpt>
      <trkpt lat="47.06103" lon="6.19927">
        <ele>441</ele>
        <time>2015-04-26T08:25:35.000Z</time>
      </trkpt>
      <trkpt lat="47.06115" lon="6.19918">
        <ele>441</ele>
        <time>2015-04-26T08:25:37.000Z</time>
      </trkpt>
      <trkpt lat="47.06129" lon="6.19916">
        <ele>439</ele>
        <time>2015-04-26T08:25:39.000Z</time>
      </trkpt>
      <trkpt lat="47.06144" lon="6.19915">
        <ele>438</ele>
        <time>2015-04-26T08:25:41.000Z</time>
      </trkpt>
      <trkpt lat="47.06157" lon="6.1991">
        <ele>437</ele>
        <time>2015-04-26T08:25:43.000Z</time>
      </trkpt>
      <trkpt lat="47.06171" lon="6.19904">
        <ele>437</ele>
        <time>2015-04-26T08:25:45.000Z</time>
      </trkpt>
      <trkpt lat="47.06186" lon="6.19901">
        <ele>436</ele>
        <time>2015-04-26T08:25:47.000Z</time>
      </trkpt>
      <trkpt lat="47.06202" lon="6.19897">
        <ele>434</ele>
        <time>2015-04-26T08:25:49.000Z</time>
      </trkpt>
      <trkpt lat="47.06218" lon="6.19893">
        <ele>433</ele>
        <time>2015-04-26T08:25:51.000Z</time>
      </trkpt>
      <trkpt lat="47.06234" lon="6.19889">
        <ele>432</ele>
        <time>2015-04-26T08:25:53.000Z</time>
      </trkpt>
      <trkpt lat="47.0625" lon="6.19887">
        <ele>429</ele>
        <time>2015-04-26T08:25:55.000Z</time>
      </trkpt>
      <trkpt lat="47.06269" lon="6.19885">
        <ele>427</ele>
        <time>2015-04-26T08:25:57.000Z</time>
      </trkpt>
      <trkpt lat="47.06283" lon="6.19883">
        <ele>428</ele>
        <time>2015-04-26T08:25:59.000Z</time>
      </trkpt>
      <trkpt lat="47.06298" lon="6.19882">
        <ele>426</ele>
        <time>2015-04-26T08:26:01.000Z</time>
      </trkpt>
      <trkpt lat="47.06314" lon="6.19881">
        <ele>426</ele>
        <time>2015-04-26T08:26:03.000Z</time>
      </trkpt>
      <trkpt lat="47.0633" lon="6.19881">
        <ele>430</ele>
        <time>2015-04-26T08:26:05.000Z</time>
      </trkpt>
      <trkpt lat="47.06347" lon="6.19882">
        <ele>426</ele>
        <time>2015-04-26T08:26:07.000Z</time>
      </trkpt>
      <trkpt lat="47.06363" lon="6.19883">
        <ele>424</ele>
        <time>2015-04-26T08:26:09.000Z</time>
      </trkpt>
      <trkpt lat="47.0638" lon="6.19886">
        <ele>426</ele>
        <time>2015-04-26T08:26:11.000Z</time>
      </trkpt>
      <trkpt lat="47.06396" lon="6.19887">
        <ele>423</ele>
        <time>2015-04-26T08:26:13.000Z</time>
      </trkpt>
      <trkpt lat="47.06411" lon="6.19887">
        <ele>425</ele>
        <time>2015-04-26T08:26:15.000Z</time>
      </trkpt>
      <trkpt lat="47.06428" lon="6.19883">
        <ele>425</ele>
        <time>2015-04-26T08:26:17.000Z</time>
      </trkpt>
      <trkpt lat="47.06444" lon="6.19878">
        <ele>421</ele>
        <time>2015-04-26T08:26:19.000Z</time>
      </trkpt>
      <trkpt lat="47.06459" lon="6.19874">
        <ele>420</ele>
        <time>2015-04-26T08:26:21.000Z</time>
      </trkpt>
      <trkpt lat="47.06472" lon="6.19866">
        <ele>420</ele>
        <time>2015-04-26T08:26:23.000Z</time>
      </trkpt>
      <trkpt lat="47.06481" lon="6.19856">
        <ele>421</ele>
        <time>2015-04-26T08:26:25.000Z</time>
      </trkpt>
      <trkpt lat="47.06487" lon="6.19841">
        <ele>421</ele>
        <time>2015-04-26T08:26:27.000Z</time>
      </trkpt>
      <trkpt lat="47.06488" lon="6.19821">
        <ele>420</ele>
        <time>2015-04-26T08:26:29.000Z</time>
      </trkpt>
      <trkpt lat="47.06488" lon="6.19801">
        <ele>421</ele>
        <time>2015-04-26T08:26:31.000Z</time>
      </trkpt>
      <trkpt lat="47.06488" lon="6.1978">
        <ele>416</ele>
        <time>2015-04-26T08:26:33.000Z</time>
      </trkpt>
      <trkpt lat="47.06488" lon="6.1978">
        <ele>416</ele>
        <time>2015-04-26T08:26:35.000Z</time>
      </trkpt>
      <trkpt lat="47.06488" lon="6.1978">
        <ele>416</ele>
        <time>2015-04-26T08:26:37.000Z</time>
      </trkpt>
      <trkpt lat="47.06488" lon="6.1978">
        <ele>416</ele>
        <time>2015-04-26T08:26:39.000Z</time>
      </trkpt>
      <trkpt lat="47.06488" lon="6.1978">
        <ele>416</ele>
        <time>2015-04-26T08:26:41.000Z</time>
      </trkpt>
      <trkpt lat="47.06526" lon="6.19798">
        <ele>419</ele>
        <time>2015-04-26T08:26:47.000Z</time>
      </trkpt>
      <trkpt lat="47.06533" lon="6.19812">
        <ele>416</ele>
        <time>2015-04-26T08:26:49.000Z</time>
      </trkpt>
      <trkpt lat="47.0654" lon="6.19828">
        <ele>417</ele>
        <time>2015-04-26T08:26:51.000Z</time>
      </trkpt>
      <trkpt lat="47.06549" lon="6.19845">
        <ele>418</ele>
        <time>2015-04-26T08:26:53.000Z</time>
      </trkpt>
      <trkpt lat="47.06558" lon="6.19863">
        <ele>419</ele>
        <time>2015-04-26T08:26:55.000Z</time>
      </trkpt>
      <trkpt lat="47.06568" lon="6.19881">
        <ele>418</ele>
        <time>2015-04-26T08:26:57.000Z</time>
      </trkpt>
      <trkpt lat="47.06577" lon="6.19899">
        <ele>416</ele>
        <time>2015-04-26T08:26:59.000Z</time>
      </trkpt>
      <trkpt lat="47.06586" lon="6.19917">
        <ele>417</ele>
        <time>2015-04-26T08:27:01.000Z</time>
      </trkpt>
      <trkpt lat="47.06596" lon="6.19934">
        <ele>415</ele>
        <time>2015-04-26T08:27:03.000Z</time>
      </trkpt>
      <trkpt lat="47.06606" lon="6.19951">
        <ele>413</ele>
        <time>2015-04-26T08:27:05.000Z</time>
      </trkpt>
      <trkpt lat="47.06616" lon="6.19968">
        <ele>412</ele>
        <time>2015-04-26T08:27:07.000Z</time>
      </trkpt>
      <trkpt lat="47.06625" lon="6.19983">
        <ele>412</ele>
        <time>2015-04-26T08:27:09.000Z</time>
      </trkpt>
      <trkpt lat="47.06635" lon="6.2">
        <ele>409</ele>
        <time>2015-04-26T08:27:11.000Z</time>
      </trkpt>
      <trkpt lat="47.06644" lon="6.20016">
        <ele>406</ele>
        <time>2015-04-26T08:27:13.000Z</time>
      </trkpt>
      <trkpt lat="47.06653" lon="6.20033">
        <ele>406</ele>
        <time>2015-04-26T08:27:15.000Z</time>
      </trkpt>
      <trkpt lat="47.06662" lon="6.2005">
        <ele>407</ele>
        <time>2015-04-26T08:27:17.000Z</time>
      </trkpt>
      <trkpt lat="47.06672" lon="6.20068">
        <ele>408</ele>
        <time>2015-04-26T08:27:19.000Z</time>
      </trkpt>
      <trkpt lat="47.06681" lon="6.20085">
        <ele>408</ele>
        <time>2015-04-26T08:27:21.000Z</time>
      </trkpt>
      <trkpt lat="47.0669" lon="6.201">
        <ele>409</ele>
        <time>2015-04-26T08:27:23.000Z</time>
      </trkpt>
      <trkpt lat="47.06698" lon="6.20116">
        <ele>410</ele>
        <time>2015-04-26T08:27:25.000Z</time>
      </trkpt>
      <trkpt lat="47.06704" lon="6.20133">
        <ele>411</ele>
        <time>2015-04-26T08:27:27.000Z</time>
      </trkpt>
      <trkpt lat="47.06707" lon="6.20151">
        <ele>411</ele>
        <time>2015-04-26T08:27:29.000Z</time>
      </trkpt>
      <trkpt lat="47.06704" lon="6.20171">
        <ele>408</ele>
        <time>2015-04-26T08:27:31.000Z</time>
      </trkpt>
      <trkpt lat="47.067" lon="6.20191">
        <ele>408</ele>
        <time>2015-04-26T08:27:33.000Z</time>
      </trkpt>
      <trkpt lat="47.067" lon="6.20211">
        <ele>407</ele>
        <time>2015-04-26T08:27:35.000Z</time>
      </trkpt>
      <trkpt lat="47.067" lon="6.20228">
        <ele>406</ele>
        <time>2015-04-26T08:27:37.000Z</time>
      </trkpt>
      <trkpt lat="47.067" lon="6.20246">
        <ele>405</ele>
        <time>2015-04-26T08:27:39.000Z</time>
      </trkpt>
      <trkpt lat="47.06701" lon="6.20265">
        <ele>408</ele>
        <time>2015-04-26T08:27:41.000Z</time>
      </trkpt>
      <trkpt lat="47.06703" lon="6.20281">
        <ele>410</ele>
        <time>2015-04-26T08:27:43.000Z</time>
      </trkpt>
      <trkpt lat="47.06705" lon="6.20296">
        <ele>409</ele>
        <time>2015-04-26T08:27:45.000Z</time>
      </trkpt>
      <trkpt lat="47.06709" lon="6.20312">
        <ele>410</ele>
        <time>2015-04-26T08:27:47.000Z</time>
      </trkpt>
      <trkpt lat="47.06712" lon="6.20327">
        <ele>410</ele>
        <time>2015-04-26T08:27:49.000Z</time>
      </trkpt>
      <trkpt lat="47.06716" lon="6.20343">
        <ele>409</ele>
        <time>2015-04-26T08:27:51.000Z</time>
      </trkpt>
      <trkpt lat="47.0672" lon="6.2036">
        <ele>410</ele>
        <time>2015-04-26T08:27:53.000Z</time>
      </trkpt>
      <trkpt lat="47.06723" lon="6.20378">
        <ele>410</ele>
        <time>2015-04-26T08:27:55.000Z</time>
      </trkpt>
      <trkpt lat="47.06726" lon="6.20396">
        <ele>409</ele>
        <time>2015-04-26T08:27:57.000Z</time>
      </trkpt>
      <trkpt lat="47.06731" lon="6.20413">
        <ele>410</ele>
        <time>2015-04-26T08:27:59.000Z</time>
      </trkpt>
      <trkpt lat="47.0674" lon="6.20426">
        <ele>409</ele>
        <time>2015-04-26T08:28:01.000Z</time>
      </trkpt>
      <trkpt lat="47.06749" lon="6.20439">
        <ele>409</ele>
        <time>2015-04-26T08:28:03.000Z</time>
      </trkpt>
      <trkpt lat="47.06758" lon="6.20454">
        <ele>408</ele>
        <time>2015-04-26T08:28:05.000Z</time>
      </trkpt>
      <trkpt lat="47.06768" lon="6.20467">
        <ele>409</ele>
        <time>2015-04-26T08:28:07.000Z</time>
      </trkpt>
      <trkpt lat="47.06778" lon="6.20467">
        <ele>410</ele>
        <time>2015-04-26T08:28:09.000Z</time>
      </trkpt>
      <trkpt lat="47.06786" lon="6.20457">
        <ele>412</ele>
        <time>2015-04-26T08:28:11.000Z</time>
      </trkpt>
      <trkpt lat="47.06786" lon="6.20457">
        <ele>412</ele>
        <time>2015-04-26T08:28:13.000Z</time>
      </trkpt>
      <trkpt lat="47.06817" lon="6.20435">
        <ele>413</ele>
        <time>2015-04-26T08:28:17.000Z</time>
      </trkpt>
      <trkpt lat="47.06831" lon="6.20435">
        <ele>412</ele>
        <time>2015-04-26T08:28:19.000Z</time>
      </trkpt>
      <trkpt lat="47.06845" lon="6.20437">
        <ele>412</ele>
        <time>2015-04-26T08:28:21.000Z</time>
      </trkpt>
      <trkpt lat="47.06859" lon="6.20439">
        <ele>408</ele>
        <time>2015-04-26T08:28:23.000Z</time>
      </trkpt>
      <trkpt lat="47.06873" lon="6.20439">
        <ele>408</ele>
        <time>2015-04-26T08:28:25.000Z</time>
      </trkpt>
      <trkpt lat="47.06887" lon="6.20438">
        <ele>409</ele>
        <time>2015-04-26T08:28:27.000Z</time>
      </trkpt>
      <trkpt lat="47.06902" lon="6.2044">
        <ele>409</ele>
        <time>2015-04-26T08:28:29.000Z</time>
      </trkpt>
      <trkpt lat="47.06914" lon="6.20443">
        <ele>405</ele>
        <time>2015-04-26T08:28:31.000Z</time>
      </trkpt>
      <trkpt lat="47.06914" lon="6.20443">
        <ele>405</ele>
        <time>2015-04-26T08:28:35.000Z</time>
      </trkpt>
      <trkpt lat="47.06914" lon="6.20443">
        <ele>405</ele>
        <time>2015-04-26T08:28:37.000Z</time>
      </trkpt>
      <trkpt lat="47.06914" lon="6.20443">
        <ele>405</ele>
        <time>2015-04-26T08:28:39.000Z</time>
      </trkpt>
      <trkpt lat="47.0692" lon="6.2044">
        <ele>404</ele>
        <time>2015-04-26T08:28:56.000Z</time>
      </trkpt>
      <trkpt lat="47.0692" lon="6.2044">
        <ele>404</ele>
        <time>2015-04-26T08:28:58.000Z</time>
      </trkpt>
      <trkpt lat="47.0692" lon="6.2044">
        <ele>404</ele>
        <time>2015-04-26T08:29:00.000Z</time>
      </trkpt>
      <trkpt lat="47.0692" lon="6.2044">
        <ele>404</ele>
        <time>2015-04-26T08:29:02.000Z</time>
      </trkpt>
      <trkpt lat="47.0692" lon="6.2044">
        <ele>404</ele>
        <time>2015-04-26T08:29:04.000Z</time>
      </trkpt>
      <trkpt lat="47.0692" lon="6.2044">
        <ele>404</ele>
        <time>2015-04-26T08:33:32.000Z</time>
      </trkpt>
      <trkpt lat="47.06925" lon="6.20437">
        <ele>403</ele>
        <time>2015-04-26T08:34:36.000Z</time>
      </trkpt>
      <trkpt lat="47.06929" lon="6.20431">
        <ele>403</ele>
        <time>2015-04-26T08:34:42.000Z</time>
      </trkpt>
      <trkpt lat="47.06932" lon="6.20427">
        <ele>403</ele>
        <time>2015-04-26T08:34:44.000Z</time>
      </trkpt>
      <trkpt lat="47.06936" lon="6.20424">
        <ele>403</ele>
        <time>2015-04-26T08:34:48.000Z</time>
      </trkpt>
      <trkpt lat="47.0694" lon="6.20421">
        <ele>404</ele>
        <time>2015-04-26T08:34:50.000Z</time>
      </trkpt>
      <trkpt lat="47.06945" lon="6.20419">
        <ele>404</ele>
        <time>2015-04-26T08:34:52.000Z</time>
      </trkpt>
      <trkpt lat="47.0695" lon="6.20418">
        <ele>404</ele>
        <time>2015-04-26T08:34:54.000Z</time>
      </trkpt>
      <trkpt lat="47.06956" lon="6.20416">
        <ele>403</ele>
        <time>2015-04-26T08:34:58.000Z</time>
      </trkpt>
      <trkpt lat="47.06961" lon="6.20415">
        <ele>404</ele>
        <time>2015-04-26T08:35:00.000Z</time>
      </trkpt>
      <trkpt lat="47.06965" lon="6.20413">
        <ele>404</ele>
        <time>2015-04-26T08:35:02.000Z</time>
      </trkpt>
      <trkpt lat="47.06969" lon="6.20411">
        <ele>402</ele>
        <time>2015-04-26T08:35:04.000Z</time>
      </trkpt>
      <trkpt lat="47.06974" lon="6.20408">
        <ele>405</ele>
        <time>2015-04-26T08:35:06.000Z</time>
      </trkpt>
      <trkpt lat="47.06982" lon="6.20401">
        <ele>405</ele>
        <time>2015-04-26T08:35:08.000Z</time>
      </trkpt>
      <trkpt lat="47.06989" lon="6.20391">
        <ele>409</ele>
        <time>2015-04-26T08:35:12.000Z</time>
      </trkpt>
      <trkpt lat="47.06992" lon="6.20376">
        <ele>409</ele>
        <time>2015-04-26T08:35:16.000Z</time>
      </trkpt>
      <trkpt lat="47.06994" lon="6.20362">
        <ele>407</ele>
        <time>2015-04-26T08:35:20.000Z</time>
      </trkpt>
      <trkpt lat="47.06994" lon="6.20362">
        <ele>407</ele>
        <time>2015-04-26T08:35:22.000Z</time>
      </trkpt>
      <trkpt lat="47.06994" lon="6.20362">
        <ele>407</ele>
        <time>2015-04-26T08:35:24.000Z</time>
      </trkpt>
      <trkpt lat="47.06994" lon="6.20362">
        <ele>407</ele>
        <time>2015-04-26T08:35:26.000Z</time>
      </trkpt>
      <trkpt lat="47.06994" lon="6.20362">
        <ele>407</ele>
        <time>2015-04-26T08:35:28.000Z</time>
      </trkpt>
      <trkpt lat="47.06994" lon="6.20362">
        <ele>407</ele>
        <time>2015-04-26T08:35:30.000Z</time>
      </trkpt>
      <trkpt lat="47.06994" lon="6.20362">
        <ele>407</ele>
        <time>2015-04-26T08:35:32.000Z</time>
      </trkpt>
      <trkpt lat="47.06994" lon="6.20362">
        <ele>407</ele>
        <time>2015-04-26T08:35:34.000Z</time>
      </trkpt>
      <trkpt lat="47.06994" lon="6.20362">
        <ele>407</ele>
        <time>2015-04-26T08:35:36.000Z</time>
      </trkpt>
      <trkpt lat="47.06994" lon="6.20362">
        <ele>407</ele>
        <time>2015-04-26T08:35:38.000Z</time>
      </trkpt>
      <trkpt lat="47.06994" lon="6.20362">
        <ele>407</ele>
        <time>2015-04-26T08:35:40.000Z</time>
      </trkpt>
      <trkpt lat="47.06994" lon="6.20362">
        <ele>407</ele>
        <time>2015-04-26T08:35:42.000Z</time>
      </trkpt>
      <trkpt lat="47.06994" lon="6.20362">
        <ele>407</ele>
        <time>2015-04-26T08:35:44.000Z</time>
      </trkpt>
      <trkpt lat="47.06994" lon="6.20362">
        <ele>407</ele>
        <time>2015-04-26T08:35:46.000Z</time>
      </trkpt>
      <trkpt lat="47.07034" lon="6.2032">
        <ele>413</ele>
        <time>2015-04-26T08:35:50.000Z</time>
      </trkpt>
      <trkpt lat="47.07043" lon="6.2032">
        <ele>416</ele>
        <time>2015-04-26T08:35:54.000Z</time>
      </trkpt>
      <trkpt lat="47.07056" lon="6.20317">
        <ele>417</ele>
        <time>2015-04-26T08:36:00.000Z</time>
      </trkpt>
      <trkpt lat="47.07064" lon="6.20313">
        <ele>418</ele>
        <time>2015-04-26T08:36:04.000Z</time>
      </trkpt>
      <trkpt lat="47.07076" lon="6.20305">
        <ele>419</ele>
        <time>2015-04-26T08:36:10.000Z</time>
      </trkpt>
      <trkpt lat="47.07082" lon="6.20295">
        <ele>422</ele>
        <time>2015-04-26T08:36:14.000Z</time>
      </trkpt>
      <trkpt lat="47.07082" lon="6.20295">
        <ele>422</ele>
        <time>2015-04-26T08:36:20.000Z</time>
      </trkpt>
      <trkpt lat="47.07082" lon="6.20295">
        <ele>422</ele>
        <time>2015-04-26T08:36:22.000Z</time>
      </trkpt>
      <trkpt lat="47.07082" lon="6.20295">
        <ele>422</ele>
        <time>2015-04-26T08:36:24.000Z</time>
      </trkpt>
      <trkpt lat="47.07082" lon="6.20295">
        <ele>422</ele>
        <time>2015-04-26T08:36:26.000Z</time>
      </trkpt>
      <trkpt lat="47.07082" lon="6.20295">
        <ele>422</ele>
        <time>2015-04-26T08:36:28.000Z</time>
      </trkpt>
      <trkpt lat="47.07082" lon="6.20295">
        <ele>422</ele>
        <time>2015-04-26T08:36:30.000Z</time>
      </trkpt>
      <trkpt lat="47.07082" lon="6.20295">
        <ele>422</ele>
        <time>2015-04-26T08:36:32.000Z</time>
      </trkpt>
      <trkpt lat="47.07082" lon="6.20295">
        <ele>422</ele>
        <time>2015-04-26T08:36:34.000Z</time>
      </trkpt>
      <trkpt lat="47.07082" lon="6.20295">
        <ele>422</ele>
        <time>2015-04-26T08:36:36.000Z</time>
      </trkpt>
      <trkpt lat="47.07082" lon="6.20295">
        <ele>422</ele>
        <time>2015-04-26T08:36:38.000Z</time>
      </trkpt>
      <trkpt lat="47.07093" lon="6.20259">
        <ele>418</ele>
        <time>2015-04-26T08:36:44.000Z</time>
      </trkpt>
      <trkpt lat="47.07101" lon="6.20238">
        <ele>421</ele>
        <time>2015-04-26T08:36:46.000Z</time>
      </trkpt>
      <trkpt lat="47.07101" lon="6.20238">
        <ele>421</ele>
        <time>2015-04-26T08:36:48.000Z</time>
      </trkpt>
      <trkpt lat="47.07101" lon="6.20238">
        <ele>421</ele>
        <time>2015-04-26T08:36:50.000Z</time>
      </trkpt>
      <trkpt lat="47.07101" lon="6.20238">
        <ele>421</ele>
        <time>2015-04-26T08:36:52.000Z</time>
      </trkpt>
      <trkpt lat="47.0711" lon="6.20213">
        <ele>426</ele>
        <time>2015-04-26T08:36:56.000Z</time>
      </trkpt>
      <trkpt lat="47.07115" lon="6.20197">
        <ele>429</ele>
        <time>2015-04-26T08:36:58.000Z</time>
      </trkpt>
      <trkpt lat="47.07117" lon="6.20186">
        <ele>427</ele>
        <time>2015-04-26T08:37:00.000Z</time>
      </trkpt>
      <trkpt lat="47.07118" lon="6.20177">
        <ele>427</ele>
        <time>2015-04-26T08:37:02.000Z</time>
      </trkpt>
      <trkpt lat="47.07118" lon="6.20169">
        <ele>427</ele>
        <time>2015-04-26T08:37:04.000Z</time>
      </trkpt>
      <trkpt lat="47.07117" lon="6.20153">
        <ele>425</ele>
        <time>2015-04-26T08:37:06.000Z</time>
      </trkpt>
      <trkpt lat="47.07118" lon="6.20139">
        <ele>424</ele>
        <time>2015-04-26T08:37:10.000Z</time>
      </trkpt>
      <trkpt lat="47.07119" lon="6.20121">
        <ele>425</ele>
        <time>2015-04-26T08:37:16.000Z</time>
      </trkpt>
      <trkpt lat="47.07119" lon="6.20121">
        <ele>425</ele>
        <time>2015-04-26T08:37:18.000Z</time>
      </trkpt>
      <trkpt lat="47.07119" lon="6.20121">
        <ele>425</ele>
        <time>2015-04-26T08:37:20.000Z</time>
      </trkpt>
      <trkpt lat="47.07119" lon="6.20121">
        <ele>425</ele>
        <time>2015-04-26T08:37:22.000Z</time>
      </trkpt>
      <trkpt lat="47.07119" lon="6.20121">
        <ele>425</ele>
        <time>2015-04-26T08:37:24.000Z</time>
      </trkpt>
      <trkpt lat="47.07119" lon="6.20078">
        <ele>433</ele>
        <time>2015-04-26T08:37:30.000Z</time>
      </trkpt>
      <trkpt lat="47.07117" lon="6.20062">
        <ele>434</ele>
        <time>2015-04-26T08:37:34.000Z</time>
      </trkpt>
      <trkpt lat="47.07115" lon="6.20044">
        <ele>432</ele>
        <time>2015-04-26T08:37:40.000Z</time>
      </trkpt>
      <trkpt lat="47.07115" lon="6.20044">
        <ele>432</ele>
        <time>2015-04-26T08:37:42.000Z</time>
      </trkpt>
      <trkpt lat="47.07115" lon="6.20044">
        <ele>432</ele>
        <time>2015-04-26T08:37:44.000Z</time>
      </trkpt>
      <trkpt lat="47.07113" lon="6.20012">
        <ele>427</ele>
        <time>2015-04-26T08:37:50.000Z</time>
      </trkpt>
      <trkpt lat="47.07113" lon="6.20012">
        <ele>427</ele>
        <time>2015-04-26T08:37:54.000Z</time>
      </trkpt>
      <trkpt lat="47.07113" lon="6.20012">
        <ele>427</ele>
        <time>2015-04-26T08:37:56.000Z</time>
      </trkpt>
      <trkpt lat="47.07107" lon="6.1999">
        <ele>437</ele>
        <time>2015-04-26T08:37:58.000Z</time>
      </trkpt>
      <trkpt lat="47.07103" lon="6.19972">
        <ele>433</ele>
        <time>2015-04-26T08:38:04.000Z</time>
      </trkpt>
      <trkpt lat="47.07103" lon="6.19972">
        <ele>433</ele>
        <time>2015-04-26T08:38:06.000Z</time>
      </trkpt>
      <trkpt lat="47.07103" lon="6.19972">
        <ele>433</ele>
        <time>2015-04-26T08:38:08.000Z</time>
      </trkpt>
      <trkpt lat="47.07101" lon="6.19943">
        <ele>439</ele>
        <time>2015-04-26T08:38:12.000Z</time>
      </trkpt>
      <trkpt lat="47.07097" lon="6.19931">
        <ele>440</ele>
        <time>2015-04-26T08:38:16.000Z</time>
      </trkpt>
      <trkpt lat="47.07093" lon="6.19917">
        <ele>442</ele>
        <time>2015-04-26T08:38:20.000Z</time>
      </trkpt>
      <trkpt lat="47.07091" lon="6.19902">
        <ele>440</ele>
        <time>2015-04-26T08:38:24.000Z</time>
      </trkpt>
      <trkpt lat="47.07093" lon="6.19886">
        <ele>440</ele>
        <time>2015-04-26T08:38:28.000Z</time>
      </trkpt>
      <trkpt lat="47.07095" lon="6.19874">
        <ele>437</ele>
        <time>2015-04-26T08:38:32.000Z</time>
      </trkpt>
      <trkpt lat="47.07095" lon="6.19874">
        <ele>437</ele>
        <time>2015-04-26T08:38:34.000Z</time>
      </trkpt>
      <trkpt lat="47.07095" lon="6.19874">
        <ele>437</ele>
        <time>2015-04-26T08:38:36.000Z</time>
      </trkpt>
      <trkpt lat="47.07095" lon="6.19874">
        <ele>437</ele>
        <time>2015-04-26T08:38:38.000Z</time>
      </trkpt>
      <trkpt lat="47.07095" lon="6.19874">
        <ele>437</ele>
        <time>2015-04-26T08:38:40.000Z</time>
      </trkpt>
      <trkpt lat="47.07095" lon="6.19874">
        <ele>437</ele>
        <time>2015-04-26T08:38:42.000Z</time>
      </trkpt>
      <trkpt lat="47.07095" lon="6.19874">
        <ele>437</ele>
        <time>2015-04-26T08:38:46.000Z</time>
      </trkpt>
      <trkpt lat="47.07095" lon="6.19874">
        <ele>437</ele>
        <time>2015-04-26T08:38:48.000Z</time>
      </trkpt>
      <trkpt lat="47.07095" lon="6.19874">
        <ele>437</ele>
        <time>2015-04-26T08:38:50.000Z</time>
      </trkpt>
      <trkpt lat="47.07095" lon="6.19874">
        <ele>437</ele>
        <time>2015-04-26T08:38:52.000Z</time>
      </trkpt>
      <trkpt lat="47.07095" lon="6.19874">
        <ele>437</ele>
        <time>2015-04-26T08:38:54.000Z</time>
      </trkpt>
      <trkpt lat="47.07095" lon="6.19874">
        <ele>437</ele>
        <time>2015-04-26T08:38:56.000Z</time>
      </trkpt>
      <trkpt lat="47.07095" lon="6.19874">
        <ele>437</ele>
        <time>2015-04-26T08:38:58.000Z</time>
      </trkpt>
      <trkpt lat="47.07095" lon="6.19874">
        <ele>437</ele>
        <time>2015-04-26T08:39:00.000Z</time>
      </trkpt>
      <trkpt lat="47.07095" lon="6.19874">
        <ele>437</ele>
        <time>2015-04-26T08:39:02.000Z</time>
      </trkpt>
      <trkpt lat="47.07095" lon="6.19874">
        <ele>437</ele>
        <time>2015-04-26T08:39:10.000Z</time>
      </trkpt>
      <trkpt lat="47.07095" lon="6.19874">
        <ele>437</ele>
        <time>2015-04-26T08:39:12.000Z</time>
      </trkpt>
      <trkpt lat="47.07095" lon="6.19874">
        <ele>437</ele>
        <time>2015-04-26T08:39:14.000Z</time>
      </trkpt>
      <trkpt lat="47.07095" lon="6.19874">
        <ele>437</ele>
        <time>2015-04-26T08:39:16.000Z</time>
      </trkpt>
      <trkpt lat="47.07095" lon="6.19874">
        <ele>437</ele>
        <time>2015-04-26T08:39:18.000Z</time>
      </trkpt>
      <trkpt lat="47.07095" lon="6.19874">
        <ele>437</ele>
        <time>2015-04-26T08:39:20.000Z</time>
      </trkpt>
      <trkpt lat="47.07095" lon="6.19874">
        <ele>437</ele>
        <time>2015-04-26T08:39:22.000Z</time>
      </trkpt>
      <trkpt lat="47.07109" lon="6.19792">
        <ele>451</ele>
        <time>2015-04-26T08:39:26.000Z</time>
      </trkpt>
      <trkpt lat="47.07116" lon="6.19747">
        <ele>449</ele>
        <time>2015-04-26T08:39:28.000Z</time>
      </trkpt>
      <trkpt lat="47.07116" lon="6.19747">
        <ele>449</ele>
        <time>2015-04-26T08:39:30.000Z</time>
      </trkpt>
      <trkpt lat="47.07116" lon="6.19747">
        <ele>449</ele>
        <time>2015-04-26T08:39:32.000Z</time>
      </trkpt>
      <trkpt lat="47.07116" lon="6.19747">
        <ele>449</ele>
        <time>2015-04-26T08:39:34.000Z</time>
      </trkpt>
      <trkpt lat="47.07116" lon="6.19747">
        <ele>449</ele>
        <time>2015-04-26T08:39:36.000Z</time>
      </trkpt>
      <trkpt lat="47.07116" lon="6.19747">
        <ele>449</ele>
        <time>2015-04-26T08:39:40.000Z</time>
      </trkpt>
      <trkpt lat="47.07116" lon="6.19747">
        <ele>449</ele>
        <time>2015-04-26T08:39:42.000Z</time>
      </trkpt>
      <trkpt lat="47.07122" lon="6.19695">
        <ele>455</ele>
        <time>2015-04-26T08:39:46.000Z</time>
      </trkpt>
      <trkpt lat="47.07125" lon="6.19666">
        <ele>450</ele>
        <time>2015-04-26T08:39:48.000Z</time>
      </trkpt>
      <trkpt lat="47.07126" lon="6.19649">
        <ele>457</ele>
        <time>2015-04-26T08:39:50.000Z</time>
      </trkpt>
      <trkpt lat="47.07126" lon="6.19637">
        <ele>456</ele>
        <time>2015-04-26T08:39:52.000Z</time>
      </trkpt>
      <trkpt lat="47.07126" lon="6.19637">
        <ele>456</ele>
        <time>2015-04-26T08:39:54.000Z</time>
      </trkpt>
      <trkpt lat="47.07126" lon="6.19637">
        <ele>456</ele>
        <time>2015-04-26T08:39:56.000Z</time>
      </trkpt>
      <trkpt lat="47.07126" lon="6.19637">
        <ele>456</ele>
        <time>2015-04-26T08:40:00.000Z</time>
      </trkpt>
      <trkpt lat="47.07126" lon="6.19637">
        <ele>456</ele>
        <time>2015-04-26T08:40:02.000Z</time>
      </trkpt>
      <trkpt lat="47.07126" lon="6.19637">
        <ele>456</ele>
        <time>2015-04-26T08:40:04.000Z</time>
      </trkpt>
      <trkpt lat="47.07125" lon="6.19608">
        <ele>456</ele>
        <time>2015-04-26T08:40:06.000Z</time>
      </trkpt>
      <trkpt lat="47.07125" lon="6.19591">
        <ele>455</ele>
        <time>2015-04-26T08:40:08.000Z</time>
      </trkpt>
      <trkpt lat="47.07125" lon="6.19579">
        <ele>455</ele>
        <time>2015-04-26T08:40:10.000Z</time>
      </trkpt>
      <trkpt lat="47.07125" lon="6.19579">
        <ele>455</ele>
        <time>2015-04-26T08:40:12.000Z</time>
      </trkpt>
      <trkpt lat="47.07125" lon="6.19579">
        <ele>455</ele>
        <time>2015-04-26T08:40:14.000Z</time>
      </trkpt>
      <trkpt lat="47.07125" lon="6.19579">
        <ele>455</ele>
        <time>2015-04-26T08:40:16.000Z</time>
      </trkpt>
      <trkpt lat="47.07125" lon="6.19579">
        <ele>455</ele>
        <time>2015-04-26T08:40:18.000Z</time>
      </trkpt>
      <trkpt lat="47.07125" lon="6.19579">
        <ele>455</ele>
        <time>2015-04-26T08:40:24.000Z</time>
      </trkpt>
      <trkpt lat="47.07125" lon="6.19579">
        <ele>455</ele>
        <time>2015-04-26T08:40:26.000Z</time>
      </trkpt>
      <trkpt lat="47.07125" lon="6.19579">
        <ele>455</ele>
        <time>2015-04-26T08:40:28.000Z</time>
      </trkpt>
      <trkpt lat="47.07129" lon="6.19536">
        <ele>460</ele>
        <time>2015-04-26T08:40:32.000Z</time>
      </trkpt>
      <trkpt lat="47.07132" lon="6.19512">
        <ele>457</ele>
        <time>2015-04-26T08:40:34.000Z</time>
      </trkpt>
      <trkpt lat="47.07133" lon="6.19497">
        <ele>455</ele>
        <time>2015-04-26T08:40:36.000Z</time>
      </trkpt>
      <trkpt lat="47.07133" lon="6.19485">
        <ele>454</ele>
        <time>2015-04-26T08:40:38.000Z</time>
      </trkpt>
      <trkpt lat="47.07133" lon="6.19476">
        <ele>454</ele>
        <time>2015-04-26T08:40:40.000Z</time>
      </trkpt>
      <trkpt lat="47.07135" lon="6.1946">
        <ele>451</ele>
        <time>2015-04-26T08:40:42.000Z</time>
      </trkpt>
      <trkpt lat="47.07135" lon="6.19446">
        <ele>453</ele>
        <time>2015-04-26T08:40:46.000Z</time>
      </trkpt>
      <trkpt lat="47.07135" lon="6.19446">
        <ele>453</ele>
        <time>2015-04-26T08:40:48.000Z</time>
      </trkpt>
      <trkpt lat="47.07135" lon="6.19446">
        <ele>453</ele>
        <time>2015-04-26T08:40:50.000Z</time>
      </trkpt>
      <trkpt lat="47.07135" lon="6.19446">
        <ele>453</ele>
        <time>2015-04-26T08:40:52.000Z</time>
      </trkpt>
      <trkpt lat="47.07135" lon="6.19446">
        <ele>453</ele>
        <time>2015-04-26T08:40:54.000Z</time>
      </trkpt>
      <trkpt lat="47.07135" lon="6.19446">
        <ele>453</ele>
        <time>2015-04-26T08:40:56.000Z</time>
      </trkpt>
      <trkpt lat="47.07128" lon="6.19402">
        <ele>460</ele>
        <time>2015-04-26T08:41:00.000Z</time>
      </trkpt>
      <trkpt lat="47.07126" lon="6.19385">
        <ele>463</ele>
        <time>2015-04-26T08:41:06.000Z</time>
      </trkpt>
      <trkpt lat="47.07126" lon="6.19385">
        <ele>463</ele>
        <time>2015-04-26T08:41:08.000Z</time>
      </trkpt>
      <trkpt lat="47.07126" lon="6.19385">
        <ele>463</ele>
        <time>2015-04-26T08:41:10.000Z</time>
      </trkpt>
      <trkpt lat="47.07119" lon="6.19361">
        <ele>461</ele>
        <time>2015-04-26T08:41:14.000Z</time>
      </trkpt>
      <trkpt lat="47.07114" lon="6.19345">
        <ele>463</ele>
        <time>2015-04-26T08:41:20.000Z</time>
      </trkpt>
      <trkpt lat="47.07109" lon="6.19328">
        <ele>464</ele>
        <time>2015-04-26T08:41:26.000Z</time>
      </trkpt>
      <trkpt lat="47.07109" lon="6.19328">
        <ele>464</ele>
        <time>2015-04-26T08:41:28.000Z</time>
      </trkpt>
      <trkpt lat="47.07109" lon="6.19328">
        <ele>464</ele>
        <time>2015-04-26T08:41:30.000Z</time>
      </trkpt>
      <trkpt lat="47.07109" lon="6.19328">
        <ele>464</ele>
        <time>2015-04-26T08:41:32.000Z</time>
      </trkpt>
      <trkpt lat="47.07109" lon="6.19328">
        <ele>464</ele>
        <time>2015-04-26T08:41:34.000Z</time>
      </trkpt>
      <trkpt lat="47.07109" lon="6.19328">
        <ele>464</ele>
        <time>2015-04-26T08:41:36.000Z</time>
      </trkpt>
      <trkpt lat="47.07109" lon="6.19328">
        <ele>464</ele>
        <time>2015-04-26T08:41:38.000Z</time>
      </trkpt>
      <trkpt lat="47.07087" lon="6.19291">
        <ele>470</ele>
        <time>2015-04-26T08:41:42.000Z</time>
      </trkpt>
      <trkpt lat="47.07087" lon="6.19291">
        <ele>470</ele>
        <time>2015-04-26T08:41:44.000Z</time>
      </trkpt>
      <trkpt lat="47.07087" lon="6.19291">
        <ele>470</ele>
        <time>2015-04-26T08:41:46.000Z</time>
      </trkpt>
      <trkpt lat="47.07087" lon="6.19291">
        <ele>470</ele>
        <time>2015-04-26T08:41:48.000Z</time>
      </trkpt>
      <trkpt lat="47.07087" lon="6.19291">
        <ele>470</ele>
        <time>2015-04-26T08:41:50.000Z</time>
      </trkpt>
      <trkpt lat="47.07087" lon="6.19291">
        <ele>470</ele>
        <time>2015-04-26T08:41:52.000Z</time>
      </trkpt>
      <trkpt lat="47.07087" lon="6.19291">
        <ele>470</ele>
        <time>2015-04-26T08:41:54.000Z</time>
      </trkpt>
      <trkpt lat="47.07087" lon="6.19291">
        <ele>470</ele>
        <time>2015-04-26T08:41:56.000Z</time>
      </trkpt>
      <trkpt lat="47.07075" lon="6.1927">
        <ele>489</ele>
        <time>2015-04-26T08:42:00.000Z</time>
      </trkpt>
      <trkpt lat="47.07067" lon="6.19258">
        <ele>480</ele>
        <time>2015-04-26T08:42:02.000Z</time>
      </trkpt>
      <trkpt lat="47.07062" lon="6.1925">
        <ele>477</ele>
        <time>2015-04-26T08:42:04.000Z</time>
      </trkpt>
      <trkpt lat="47.07058" lon="6.19244">
        <ele>476</ele>
        <time>2015-04-26T08:42:06.000Z</time>
      </trkpt>
      <trkpt lat="47.07058" lon="6.19244">
        <ele>476</ele>
        <time>2015-04-26T08:42:08.000Z</time>
      </trkpt>
      <trkpt lat="47.07058" lon="6.19244">
        <ele>476</ele>
        <time>2015-04-26T08:42:10.000Z</time>
      </trkpt>
      <trkpt lat="47.07058" lon="6.19244">
        <ele>476</ele>
        <time>2015-04-26T08:42:12.000Z</time>
      </trkpt>
      <trkpt lat="47.07058" lon="6.19244">
        <ele>476</ele>
        <time>2015-04-26T08:42:18.000Z</time>
      </trkpt>
      <trkpt lat="47.07058" lon="6.19244">
        <ele>476</ele>
        <time>2015-04-26T08:42:20.000Z</time>
      </trkpt>
      <trkpt lat="47.07058" lon="6.19244">
        <ele>476</ele>
        <time>2015-04-26T08:42:22.000Z</time>
      </trkpt>
      <trkpt lat="47.07058" lon="6.19244">
        <ele>476</ele>
        <time>2015-04-26T08:42:24.000Z</time>
      </trkpt>
      <trkpt lat="47.07058" lon="6.19244">
        <ele>476</ele>
        <time>2015-04-26T08:42:26.000Z</time>
      </trkpt>
      <trkpt lat="47.07058" lon="6.19244">
        <ele>476</ele>
        <time>2015-04-26T08:42:28.000Z</time>
      </trkpt>
      <trkpt lat="47.07058" lon="6.19244">
        <ele>476</ele>
        <time>2015-04-26T08:42:30.000Z</time>
      </trkpt>
      <trkpt lat="47.07058" lon="6.19244">
        <ele>476</ele>
        <time>2015-04-26T08:42:32.000Z</time>
      </trkpt>
      <trkpt lat="47.07058" lon="6.19244">
        <ele>476</ele>
        <time>2015-04-26T08:42:34.000Z</time>
      </trkpt>
      <trkpt lat="47.07034" lon="6.19208">
        <ele>490</ele>
        <time>2015-04-26T08:42:38.000Z</time>
      </trkpt>
      <trkpt lat="47.0702" lon="6.19188">
        <ele>492</ele>
        <time>2015-04-26T08:42:40.000Z</time>
      </trkpt>
      <trkpt lat="47.07012" lon="6.19176">
        <ele>493</ele>
        <time>2015-04-26T08:42:42.000Z</time>
      </trkpt>
      <trkpt lat="47.07006" lon="6.19168">
        <ele>495</ele>
        <time>2015-04-26T08:42:44.000Z</time>
      </trkpt>
      <trkpt lat="47.07002" lon="6.19162">
        <ele>496</ele>
        <time>2015-04-26T08:42:46.000Z</time>
      </trkpt>
      <trkpt lat="47.06995" lon="6.19152">
        <ele>498</ele>
        <time>2015-04-26T08:42:48.000Z</time>
      </trkpt>
      <trkpt lat="47.06989" lon="6.19138">
        <ele>494</ele>
        <time>2015-04-26T08:42:54.000Z</time>
      </trkpt>
      <trkpt lat="47.06989" lon="6.19138">
        <ele>494</ele>
        <time>2015-04-26T08:42:56.000Z</time>
      </trkpt>
      <trkpt lat="47.06989" lon="6.19138">
        <ele>494</ele>
        <time>2015-04-26T08:42:58.000Z</time>
      </trkpt>
      <trkpt lat="47.06989" lon="6.19138">
        <ele>494</ele>
        <time>2015-04-26T08:43:00.000Z</time>
      </trkpt>
      <trkpt lat="47.06977" lon="6.19114">
        <ele>498</ele>
        <time>2015-04-26T08:43:04.000Z</time>
      </trkpt>
      <trkpt lat="47.0697" lon="6.19099">
        <ele>502</ele>
        <time>2015-04-26T08:43:10.000Z</time>
      </trkpt>
      <trkpt lat="47.06963" lon="6.19078">
        <ele>503</ele>
        <time>2015-04-26T08:43:18.000Z</time>
      </trkpt>
      <trkpt lat="47.06956" lon="6.19062">
        <ele>506</ele>
        <time>2015-04-26T08:43:24.000Z</time>
      </trkpt>
      <trkpt lat="47.06949" lon="6.19044">
        <ele>505</ele>
        <time>2015-04-26T08:43:30.000Z</time>
      </trkpt>
      <trkpt lat="47.06949" lon="6.19044">
        <ele>505</ele>
        <time>2015-04-26T08:43:32.000Z</time>
      </trkpt>
      <trkpt lat="47.06949" lon="6.19044">
        <ele>505</ele>
        <time>2015-04-26T08:43:34.000Z</time>
      </trkpt>
      <trkpt lat="47.06949" lon="6.19044">
        <ele>505</ele>
        <time>2015-04-26T08:43:36.000Z</time>
      </trkpt>
      <trkpt lat="47.06949" lon="6.19044">
        <ele>505</ele>
        <time>2015-04-26T08:43:38.000Z</time>
      </trkpt>
      <trkpt lat="47.06949" lon="6.19044">
        <ele>505</ele>
        <time>2015-04-26T08:43:40.000Z</time>
      </trkpt>
      <trkpt lat="47.06949" lon="6.19044">
        <ele>505</ele>
        <time>2015-04-26T08:43:42.000Z</time>
      </trkpt>
      <trkpt lat="47.06949" lon="6.19044">
        <ele>505</ele>
        <time>2015-04-26T08:43:44.000Z</time>
      </trkpt>
      <trkpt lat="47.06949" lon="6.19044">
        <ele>505</ele>
        <time>2015-04-26T08:43:46.000Z</time>
      </trkpt>
      <trkpt lat="47.06949" lon="6.19044">
        <ele>505</ele>
        <time>2015-04-26T08:43:48.000Z</time>
      </trkpt>
      <trkpt lat="47.06949" lon="6.19044">
        <ele>505</ele>
        <time>2015-04-26T08:43:50.000Z</time>
      </trkpt>
      <trkpt lat="47.06949" lon="6.19044">
        <ele>505</ele>
        <time>2015-04-26T08:43:52.000Z</time>
      </trkpt>
      <trkpt lat="47.06949" lon="6.19044">
        <ele>505</ele>
        <time>2015-04-26T08:43:54.000Z</time>
      </trkpt>
      <trkpt lat="47.06949" lon="6.19044">
        <ele>505</ele>
        <time>2015-04-26T08:43:56.000Z</time>
      </trkpt>
      <trkpt lat="47.06949" lon="6.19044">
        <ele>505</ele>
        <time>2015-04-26T08:43:58.000Z</time>
      </trkpt>
      <trkpt lat="47.06949" lon="6.19044">
        <ele>505</ele>
        <time>2015-04-26T08:44:00.000Z</time>
      </trkpt>
      <trkpt lat="47.06949" lon="6.19044">
        <ele>505</ele>
        <time>2015-04-26T08:44:02.000Z</time>
      </trkpt>
      <trkpt lat="47.06942" lon="6.18993">
        <ele>508</ele>
        <time>2015-04-26T08:44:06.000Z</time>
      </trkpt>
      <trkpt lat="47.06938" lon="6.18964">
        <ele>506</ele>
        <time>2015-04-26T08:44:08.000Z</time>
      </trkpt>
      <trkpt lat="47.06936" lon="6.18946">
        <ele>507</ele>
        <time>2015-04-26T08:44:10.000Z</time>
      </trkpt>
      <trkpt lat="47.06936" lon="6.18946">
        <ele>507</ele>
        <time>2015-04-26T08:44:12.000Z</time>
      </trkpt>
      <trkpt lat="47.06934" lon="6.18928">
        <ele>511</ele>
        <time>2015-04-26T08:44:16.000Z</time>
      </trkpt>
      <trkpt lat="47.06932" lon="6.18916">
        <ele>513</ele>
        <time>2015-04-26T08:44:18.000Z</time>
      </trkpt>
      <trkpt lat="47.06931" lon="6.18907">
        <ele>513</ele>
        <time>2015-04-26T08:44:20.000Z</time>
      </trkpt>
      <trkpt lat="47.06931" lon="6.18899">
        <ele>507</ele>
        <time>2015-04-26T08:44:22.000Z</time>
      </trkpt>
      <trkpt lat="47.06929" lon="6.18891">
        <ele>507</ele>
        <time>2015-04-26T08:44:24.000Z</time>
      </trkpt>
      <trkpt lat="47.06926" lon="6.18876">
        <ele>510</ele>
        <time>2015-04-26T08:44:26.000Z</time>
      </trkpt>
      <trkpt lat="47.06917" lon="6.18856">
        <ele>508</ele>
        <time>2015-04-26T08:44:32.000Z</time>
      </trkpt>
      <trkpt lat="47.06913" lon="6.18838">
        <ele>501</ele>
        <time>2015-04-26T08:44:38.000Z</time>
      </trkpt>
      <trkpt lat="47.06904" lon="6.18823">
        <ele>500</ele>
        <time>2015-04-26T08:44:44.000Z</time>
      </trkpt>
      <trkpt lat="47.06896" lon="6.18807">
        <ele>495</ele>
        <time>2015-04-26T08:44:50.000Z</time>
      </trkpt>
      <trkpt lat="47.06896" lon="6.18807">
        <ele>495</ele>
        <time>2015-04-26T08:44:52.000Z</time>
      </trkpt>
      <trkpt lat="47.06896" lon="6.18807">
        <ele>495</ele>
        <time>2015-04-26T08:44:54.000Z</time>
      </trkpt>
      <trkpt lat="47.06896" lon="6.18807">
        <ele>495</ele>
        <time>2015-04-26T08:44:56.000Z</time>
      </trkpt>
      <trkpt lat="47.06896" lon="6.18807">
        <ele>495</ele>
        <time>2015-04-26T08:44:58.000Z</time>
      </trkpt>
      <trkpt lat="47.06896" lon="6.18807">
        <ele>495</ele>
        <time>2015-04-26T08:45:00.000Z</time>
      </trkpt>
      <trkpt lat="47.06896" lon="6.18807">
        <ele>495</ele>
        <time>2015-04-26T08:45:02.000Z</time>
      </trkpt>
      <trkpt lat="47.06896" lon="6.18807">
        <ele>495</ele>
        <time>2015-04-26T08:45:04.000Z</time>
      </trkpt>
      <trkpt lat="47.06896" lon="6.18807">
        <ele>495</ele>
        <time>2015-04-26T08:45:06.000Z</time>
      </trkpt>
      <trkpt lat="47.06896" lon="6.18807">
        <ele>495</ele>
        <time>2015-04-26T08:45:08.000Z</time>
      </trkpt>
      <trkpt lat="47.06896" lon="6.18807">
        <ele>495</ele>
        <time>2015-04-26T08:45:10.000Z</time>
      </trkpt>
      <trkpt lat="47.06896" lon="6.18807">
        <ele>495</ele>
        <time>2015-04-26T08:45:12.000Z</time>
      </trkpt>
      <trkpt lat="47.06896" lon="6.18807">
        <ele>495</ele>
        <time>2015-04-26T08:45:14.000Z</time>
      </trkpt>
      <trkpt lat="47.06896" lon="6.18807">
        <ele>495</ele>
        <time>2015-04-26T08:45:16.000Z</time>
      </trkpt>
      <trkpt lat="47.06896" lon="6.18807">
        <ele>495</ele>
        <time>2015-04-26T08:45:18.000Z</time>
      </trkpt>
      <trkpt lat="47.06896" lon="6.18807">
        <ele>495</ele>
        <time>2015-04-26T08:45:20.000Z</time>
      </trkpt>
      <trkpt lat="47.06896" lon="6.18807">
        <ele>495</ele>
        <time>2015-04-26T08:45:22.000Z</time>
      </trkpt>
      <trkpt lat="47.06896" lon="6.18807">
        <ele>495</ele>
        <time>2015-04-26T08:45:24.000Z</time>
      </trkpt>
      <trkpt lat="47.06896" lon="6.18807">
        <ele>495</ele>
        <time>2015-04-26T08:45:26.000Z</time>
      </trkpt>
      <trkpt lat="47.06836" lon="6.18736">
        <ele>508</ele>
        <time>2015-04-26T08:45:30.000Z</time>
      </trkpt>
      <trkpt lat="47.06827" lon="6.18722">
        <ele>512</ele>
        <time>2015-04-26T08:45:36.000Z</time>
      </trkpt>
      <trkpt lat="47.06822" lon="6.18721">
        <ele>511</ele>
        <time>2015-04-26T08:45:40.000Z</time>
      </trkpt>
      <trkpt lat="47.06817" lon="6.18721">
        <ele>511</ele>
        <time>2015-04-26T08:45:42.000Z</time>
      </trkpt>
      <trkpt lat="47.06813" lon="6.18726">
        <ele>508</ele>
        <time>2015-04-26T08:45:46.000Z</time>
      </trkpt>
      <trkpt lat="47.06812" lon="6.18733">
        <ele>508</ele>
        <time>2015-04-26T08:45:50.000Z</time>
      </trkpt>
      <trkpt lat="47.06812" lon="6.18733">
        <ele>508</ele>
        <time>2015-04-26T08:45:52.000Z</time>
      </trkpt>
      <trkpt lat="47.06812" lon="6.18733">
        <ele>508</ele>
        <time>2015-04-26T08:45:54.000Z</time>
      </trkpt>
      <trkpt lat="47.06812" lon="6.18733">
        <ele>508</ele>
        <time>2015-04-26T08:45:56.000Z</time>
      </trkpt>
      <trkpt lat="47.06812" lon="6.18733">
        <ele>508</ele>
        <time>2015-04-26T08:45:58.000Z</time>
      </trkpt>
      <trkpt lat="47.06812" lon="6.18733">
        <ele>508</ele>
        <time>2015-04-26T08:46:00.000Z</time>
      </trkpt>
      <trkpt lat="47.06812" lon="6.18733">
        <ele>508</ele>
        <time>2015-04-26T08:46:02.000Z</time>
      </trkpt>
      <trkpt lat="47.06812" lon="6.18733">
        <ele>508</ele>
        <time>2015-04-26T08:46:04.000Z</time>
      </trkpt>
      <trkpt lat="47.06812" lon="6.18733">
        <ele>508</ele>
        <time>2015-04-26T08:46:06.000Z</time>
      </trkpt>
      <trkpt lat="47.06812" lon="6.18733">
        <ele>508</ele>
        <time>2015-04-26T08:46:08.000Z</time>
      </trkpt>
      <trkpt lat="47.06812" lon="6.18733">
        <ele>508</ele>
        <time>2015-04-26T08:46:10.000Z</time>
      </trkpt>
      <trkpt lat="47.06823" lon="6.18766">
        <ele>504</ele>
        <time>2015-04-26T08:46:18.000Z</time>
      </trkpt>
      <trkpt lat="47.06831" lon="6.18785">
        <ele>503</ele>
        <time>2015-04-26T08:46:20.000Z</time>
      </trkpt>
      <trkpt lat="47.06836" lon="6.18797">
        <ele>503</ele>
        <time>2015-04-26T08:46:22.000Z</time>
      </trkpt>
      <trkpt lat="47.0684" lon="6.18806">
        <ele>503</ele>
        <time>2015-04-26T08:46:24.000Z</time>
      </trkpt>
      <trkpt lat="47.06843" lon="6.18812">
        <ele>502</ele>
        <time>2015-04-26T08:46:26.000Z</time>
      </trkpt>
      <trkpt lat="47.06843" lon="6.18812">
        <ele>502</ele>
        <time>2015-04-26T08:46:30.000Z</time>
      </trkpt>
      <trkpt lat="47.06843" lon="6.18812">
        <ele>502</ele>
        <time>2015-04-26T08:46:32.000Z</time>
      </trkpt>
      <trkpt lat="47.06843" lon="6.18812">
        <ele>502</ele>
        <time>2015-04-26T08:46:34.000Z</time>
      </trkpt>
      <trkpt lat="47.06857" lon="6.1884">
        <ele>511</ele>
        <time>2015-04-26T08:46:36.000Z</time>
      </trkpt>
      <trkpt lat="47.0686" lon="6.18859">
        <ele>511</ele>
        <time>2015-04-26T08:46:42.000Z</time>
      </trkpt>
      <trkpt lat="47.06867" lon="6.18869">
        <ele>511</ele>
        <time>2015-04-26T08:46:46.000Z</time>
      </trkpt>
      <trkpt lat="47.06872" lon="6.18885">
        <ele>517</ele>
        <time>2015-04-26T08:46:52.000Z</time>
      </trkpt>
      <trkpt lat="47.06876" lon="6.18902">
        <ele>517</ele>
        <time>2015-04-26T08:46:58.000Z</time>
      </trkpt>
      <trkpt lat="47.06876" lon="6.18921">
        <ele>526</ele>
        <time>2015-04-26T08:47:04.000Z</time>
      </trkpt>
      <trkpt lat="47.06879" lon="6.18939">
        <ele>527</ele>
        <time>2015-04-26T08:47:10.000Z</time>
      </trkpt>
      <trkpt lat="47.06879" lon="6.18939">
        <ele>527</ele>
        <time>2015-04-26T08:47:12.000Z</time>
      </trkpt>
      <trkpt lat="47.06879" lon="6.18939">
        <ele>527</ele>
        <time>2015-04-26T08:47:14.000Z</time>
      </trkpt>
      <trkpt lat="47.06879" lon="6.18939">
        <ele>527</ele>
        <time>2015-04-26T08:47:16.000Z</time>
      </trkpt>
      <trkpt lat="47.06879" lon="6.18939">
        <ele>527</ele>
        <time>2015-04-26T08:47:18.000Z</time>
      </trkpt>
      <trkpt lat="47.06879" lon="6.18939">
        <ele>527</ele>
        <time>2015-04-26T08:47:20.000Z</time>
      </trkpt>
      <trkpt lat="47.06875" lon="6.18992">
        <ele>518</ele>
        <time>2015-04-26T08:47:26.000Z</time>
      </trkpt>
      <trkpt lat="47.06875" lon="6.18992">
        <ele>518</ele>
        <time>2015-04-26T08:47:30.000Z</time>
      </trkpt>
      <trkpt lat="47.06875" lon="6.18992">
        <ele>518</ele>
        <time>2015-04-26T08:47:32.000Z</time>
      </trkpt>
      <trkpt lat="47.06875" lon="6.18992">
        <ele>518</ele>
        <time>2015-04-26T08:47:34.000Z</time>
      </trkpt>
      <trkpt lat="47.06875" lon="6.18992">
        <ele>518</ele>
        <time>2015-04-26T08:47:36.000Z</time>
      </trkpt>
      <trkpt lat="47.06875" lon="6.18992">
        <ele>518</ele>
        <time>2015-04-26T08:47:38.000Z</time>
      </trkpt>
      <trkpt lat="47.06879" lon="6.19016">
        <ele>533</ele>
        <time>2015-04-26T08:47:44.000Z</time>
      </trkpt>
      <trkpt lat="47.06879" lon="6.19016">
        <ele>533</ele>
        <time>2015-04-26T08:47:46.000Z</time>
      </trkpt>
      <trkpt lat="47.06879" lon="6.19016">
        <ele>533</ele>
        <time>2015-04-26T08:47:48.000Z</time>
      </trkpt>
      <trkpt lat="47.06879" lon="6.19016">
        <ele>533</ele>
        <time>2015-04-26T08:47:50.000Z</time>
      </trkpt>
      <trkpt lat="47.06882" lon="6.19043">
        <ele>536</ele>
        <time>2015-04-26T08:47:54.000Z</time>
      </trkpt>
      <trkpt lat="47.06884" lon="6.19059">
        <ele>533</ele>
        <time>2015-04-26T08:47:56.000Z</time>
      </trkpt>
      <trkpt lat="47.06885" lon="6.1907">
        <ele>535</ele>
        <time>2015-04-26T08:47:58.000Z</time>
      </trkpt>
      <trkpt lat="47.06886" lon="6.19078">
        <ele>535</ele>
        <time>2015-04-26T08:48:00.000Z</time>
      </trkpt>
      <trkpt lat="47.06886" lon="6.19078">
        <ele>535</ele>
        <time>2015-04-26T08:48:02.000Z</time>
      </trkpt>
      <trkpt lat="47.06886" lon="6.19078">
        <ele>535</ele>
        <time>2015-04-26T08:48:04.000Z</time>
      </trkpt>
      <trkpt lat="47.06886" lon="6.19078">
        <ele>535</ele>
        <time>2015-04-26T08:48:06.000Z</time>
      </trkpt>
      <trkpt lat="47.06886" lon="6.19078">
        <ele>535</ele>
        <time>2015-04-26T08:48:08.000Z</time>
      </trkpt>
      <trkpt lat="47.06886" lon="6.19078">
        <ele>535</ele>
        <time>2015-04-26T08:48:10.000Z</time>
      </trkpt>
      <trkpt lat="47.06885" lon="6.19104">
        <ele>536</ele>
        <time>2015-04-26T08:48:14.000Z</time>
      </trkpt>
      <trkpt lat="47.06884" lon="6.19121">
        <ele>534</ele>
        <time>2015-04-26T08:48:16.000Z</time>
      </trkpt>
      <trkpt lat="47.06884" lon="6.19133">
        <ele>531</ele>
        <time>2015-04-26T08:48:18.000Z</time>
      </trkpt>
      <trkpt lat="47.06884" lon="6.19142">
        <ele>530</ele>
        <time>2015-04-26T08:48:20.000Z</time>
      </trkpt>
      <trkpt lat="47.06884" lon="6.1915">
        <ele>533</ele>
        <time>2015-04-26T08:48:22.000Z</time>
      </trkpt>
      <trkpt lat="47.06884" lon="6.1915">
        <ele>533</ele>
        <time>2015-04-26T08:48:24.000Z</time>
      </trkpt>
      <trkpt lat="47.06884" lon="6.1915">
        <ele>533</ele>
        <time>2015-04-26T08:48:26.000Z</time>
      </trkpt>
      <trkpt lat="47.06884" lon="6.1915">
        <ele>533</ele>
        <time>2015-04-26T08:48:28.000Z</time>
      </trkpt>
      <trkpt lat="47.06884" lon="6.1915">
        <ele>533</ele>
        <time>2015-04-26T08:48:30.000Z</time>
      </trkpt>
      <trkpt lat="47.06884" lon="6.1915">
        <ele>533</ele>
        <time>2015-04-26T08:48:32.000Z</time>
      </trkpt>
      <trkpt lat="47.06884" lon="6.1915">
        <ele>533</ele>
        <time>2015-04-26T08:48:34.000Z</time>
      </trkpt>
      <trkpt lat="47.06884" lon="6.1915">
        <ele>533</ele>
        <time>2015-04-26T08:48:36.000Z</time>
      </trkpt>
      <trkpt lat="47.06884" lon="6.1915">
        <ele>533</ele>
        <time>2015-04-26T08:48:38.000Z</time>
      </trkpt>
      <trkpt lat="47.06884" lon="6.1915">
        <ele>533</ele>
        <time>2015-04-26T08:48:40.000Z</time>
      </trkpt>
      <trkpt lat="47.06884" lon="6.1915">
        <ele>533</ele>
        <time>2015-04-26T08:48:42.000Z</time>
      </trkpt>
      <trkpt lat="47.06884" lon="6.1915">
        <ele>533</ele>
        <time>2015-04-26T08:48:44.000Z</time>
      </trkpt>
      <trkpt lat="47.06884" lon="6.1915">
        <ele>533</ele>
        <time>2015-04-26T08:48:46.000Z</time>
      </trkpt>
      <trkpt lat="47.06913" lon="6.19246">
        <ele>534</ele>
        <time>2015-04-26T08:48:54.000Z</time>
      </trkpt>
      <trkpt lat="47.06919" lon="6.19256">
        <ele>534</ele>
        <time>2015-04-26T08:48:58.000Z</time>
      </trkpt>
      <trkpt lat="47.06929" lon="6.19275">
        <ele>538</ele>
        <time>2015-04-26T08:49:06.000Z</time>
      </trkpt>
      <trkpt lat="47.06929" lon="6.19275">
        <ele>538</ele>
        <time>2015-04-26T08:49:12.000Z</time>
      </trkpt>
      <trkpt lat="47.06929" lon="6.19275">
        <ele>538</ele>
        <time>2015-04-26T08:49:14.000Z</time>
      </trkpt>
      <trkpt lat="47.06929" lon="6.19275">
        <ele>538</ele>
        <time>2015-04-26T08:49:16.000Z</time>
      </trkpt>
      <trkpt lat="47.06929" lon="6.19275">
        <ele>538</ele>
        <time>2015-04-26T08:49:18.000Z</time>
      </trkpt>
      <trkpt lat="47.06929" lon="6.19275">
        <ele>538</ele>
        <time>2015-04-26T08:49:20.000Z</time>
      </trkpt>
      <trkpt lat="47.06956" lon="6.19323">
        <ele>549</ele>
        <time>2015-04-26T08:49:26.000Z</time>
      </trkpt>
      <trkpt lat="47.06959" lon="6.1933">
        <ele>552</ele>
        <time>2015-04-26T08:49:32.000Z</time>
      </trkpt>
      <trkpt lat="47.06959" lon="6.1933">
        <ele>552</ele>
        <time>2015-04-26T08:49:34.000Z</time>
      </trkpt>
      <trkpt lat="47.06959" lon="6.1933">
        <ele>552</ele>
        <time>2015-04-26T08:49:36.000Z</time>
      </trkpt>
      <trkpt lat="47.06959" lon="6.1933">
        <ele>552</ele>
        <time>2015-04-26T08:49:38.000Z</time>
      </trkpt>
      <trkpt lat="47.06966" lon="6.19344">
        <ele>558</ele>
        <time>2015-04-26T08:49:40.000Z</time>
      </trkpt>
      <trkpt lat="47.06971" lon="6.19354">
        <ele>560</ele>
        <time>2015-04-26T08:49:42.000Z</time>
      </trkpt>
      <trkpt lat="47.06973" lon="6.19362">
        <ele>559</ele>
        <time>2015-04-26T08:49:44.000Z</time>
      </trkpt>
      <trkpt lat="47.06976" lon="6.19369">
        <ele>553</ele>
        <time>2015-04-26T08:49:46.000Z</time>
      </trkpt>
      <trkpt lat="47.06979" lon="6.19374">
        <ele>549</ele>
        <time>2015-04-26T08:49:48.000Z</time>
      </trkpt>
      <trkpt lat="47.06986" lon="6.19388">
        <ele>546</ele>
        <time>2015-04-26T08:49:52.000Z</time>
      </trkpt>
      <trkpt lat="47.06986" lon="6.19388">
        <ele>546</ele>
        <time>2015-04-26T08:49:54.000Z</time>
      </trkpt>
      <trkpt lat="47.06993" lon="6.194">
        <ele>547</ele>
        <time>2015-04-26T08:49:58.000Z</time>
      </trkpt>
      <trkpt lat="47.06996" lon="6.19418">
        <ele>544</ele>
        <time>2015-04-26T08:50:04.000Z</time>
      </trkpt>
      <trkpt lat="47.06996" lon="6.19418">
        <ele>544</ele>
        <time>2015-04-26T08:50:06.000Z</time>
      </trkpt>
      <trkpt lat="47.06996" lon="6.19418">
        <ele>544</ele>
        <time>2015-04-26T08:50:08.000Z</time>
      </trkpt>
      <trkpt lat="47.06996" lon="6.19418">
        <ele>544</ele>
        <time>2015-04-26T08:50:10.000Z</time>
      </trkpt>
      <trkpt lat="47.06996" lon="6.19418">
        <ele>544</ele>
        <time>2015-04-26T08:50:12.000Z</time>
      </trkpt>
      <trkpt lat="47.06996" lon="6.19418">
        <ele>544</ele>
        <time>2015-04-26T08:50:14.000Z</time>
      </trkpt>
      <trkpt lat="47.06996" lon="6.19418">
        <ele>544</ele>
        <time>2015-04-26T08:50:16.000Z</time>
      </trkpt>
      <trkpt lat="47.06996" lon="6.19418">
        <ele>544</ele>
        <time>2015-04-26T08:50:18.000Z</time>
      </trkpt>
      <trkpt lat="47.07013" lon="6.19467">
        <ele>557</ele>
        <time>2015-04-26T08:50:24.000Z</time>
      </trkpt>
      <trkpt lat="47.07018" lon="6.19484">
        <ele>557</ele>
        <time>2015-04-26T08:50:30.000Z</time>
      </trkpt>
      <trkpt lat="47.07019" lon="6.195">
        <ele>560</ele>
        <time>2015-04-26T08:50:36.000Z</time>
      </trkpt>
      <trkpt lat="47.07019" lon="6.19517">
        <ele>567</ele>
        <time>2015-04-26T08:50:42.000Z</time>
      </trkpt>
      <trkpt lat="47.07019" lon="6.19517">
        <ele>567</ele>
        <time>2015-04-26T08:50:44.000Z</time>
      </trkpt>
      <trkpt lat="47.07014" lon="6.19533">
        <ele>565</ele>
        <time>2015-04-26T08:50:48.000Z</time>
      </trkpt>
      <trkpt lat="47.07012" lon="6.19546">
        <ele>569</ele>
        <time>2015-04-26T08:50:52.000Z</time>
      </trkpt>
      <trkpt lat="47.0701" lon="6.19565">
        <ele>570</ele>
        <time>2015-04-26T08:50:58.000Z</time>
      </trkpt>
      <trkpt lat="47.07007" lon="6.19581">
        <ele>571</ele>
        <time>2015-04-26T08:51:04.000Z</time>
      </trkpt>
      <trkpt lat="47.07007" lon="6.19581">
        <ele>571</ele>
        <time>2015-04-26T08:51:06.000Z</time>
      </trkpt>
      <trkpt lat="47.07007" lon="6.19581">
        <ele>571</ele>
        <time>2015-04-26T08:51:08.000Z</time>
      </trkpt>
      <trkpt lat="47.07007" lon="6.19581">
        <ele>571</ele>
        <time>2015-04-26T08:51:10.000Z</time>
      </trkpt>
      <trkpt lat="47.07003" lon="6.19598">
        <ele>576</ele>
        <time>2015-04-26T08:51:16.000Z</time>
      </trkpt>
      <trkpt lat="47.07" lon="6.19611">
        <ele>578</ele>
        <time>2015-04-26T08:51:18.000Z</time>
      </trkpt>
      <trkpt lat="47.06999" lon="6.1962">
        <ele>574</ele>
        <time>2015-04-26T08:51:20.000Z</time>
      </trkpt>
      <trkpt lat="47.06998" lon="6.19628">
        <ele>577</ele>
        <time>2015-04-26T08:51:22.000Z</time>
      </trkpt>
      <trkpt lat="47.06998" lon="6.19635">
        <ele>577</ele>
        <time>2015-04-26T08:51:24.000Z</time>
      </trkpt>
      <trkpt lat="47.06995" lon="6.19649">
        <ele>575</ele>
        <time>2015-04-26T08:51:26.000Z</time>
      </trkpt>
      <trkpt lat="47.06992" lon="6.19669">
        <ele>573</ele>
        <time>2015-04-26T08:51:32.000Z</time>
      </trkpt>
      <trkpt lat="47.06992" lon="6.19669">
        <ele>573</ele>
        <time>2015-04-26T08:51:34.000Z</time>
      </trkpt>
      <trkpt lat="47.06992" lon="6.19669">
        <ele>573</ele>
        <time>2015-04-26T08:51:36.000Z</time>
      </trkpt>
      <trkpt lat="47.06992" lon="6.19669">
        <ele>573</ele>
        <time>2015-04-26T08:51:38.000Z</time>
      </trkpt>
      <trkpt lat="47.06992" lon="6.19669">
        <ele>573</ele>
        <time>2015-04-26T08:51:40.000Z</time>
      </trkpt>
      <trkpt lat="47.06992" lon="6.19669">
        <ele>573</ele>
        <time>2015-04-26T08:51:42.000Z</time>
      </trkpt>
      <trkpt lat="47.06992" lon="6.19669">
        <ele>573</ele>
        <time>2015-04-26T08:51:44.000Z</time>
      </trkpt>
      <trkpt lat="47.06992" lon="6.19669">
        <ele>573</ele>
        <time>2015-04-26T08:51:46.000Z</time>
      </trkpt>
      <trkpt lat="47.06978" lon="6.19708">
        <ele>563</ele>
        <time>2015-04-26T08:51:50.000Z</time>
      </trkpt>
      <trkpt lat="47.06978" lon="6.19708">
        <ele>563</ele>
        <time>2015-04-26T08:51:59.000Z</time>
      </trkpt>
      <trkpt lat="47.06978" lon="6.19708">
        <ele>563</ele>
        <time>2015-04-26T08:52:01.000Z</time>
      </trkpt>
      <trkpt lat="47.06978" lon="6.19708">
        <ele>563</ele>
        <time>2015-04-26T08:52:03.000Z</time>
      </trkpt>
      <trkpt lat="47.06978" lon="6.19708">
        <ele>563</ele>
        <time>2015-04-26T08:52:05.000Z</time>
      </trkpt>
      <trkpt lat="47.06978" lon="6.19708">
        <ele>563</ele>
        <time>2015-04-26T08:52:07.000Z</time>
      </trkpt>
      <trkpt lat="47.06939" lon="6.19687">
        <ele>566</ele>
        <time>2015-04-26T08:52:13.000Z</time>
      </trkpt>
      <trkpt lat="47.06927" lon="6.19679">
        <ele>566</ele>
        <time>2015-04-26T08:52:19.000Z</time>
      </trkpt>
      <trkpt lat="47.06918" lon="6.19669">
        <ele>563</ele>
        <time>2015-04-26T08:52:25.000Z</time>
      </trkpt>
      <trkpt lat="47.06918" lon="6.19669">
        <ele>563</ele>
        <time>2015-04-26T08:52:29.000Z</time>
      </trkpt>
      <trkpt lat="47.06908" lon="6.19658">
        <ele>566</ele>
        <time>2015-04-26T08:52:31.000Z</time>
      </trkpt>
      <trkpt lat="47.06908" lon="6.19658">
        <ele>566</ele>
        <time>2015-04-26T08:52:33.000Z</time>
      </trkpt>
      <trkpt lat="47.06908" lon="6.19658">
        <ele>566</ele>
        <time>2015-04-26T08:52:35.000Z</time>
      </trkpt>
      <trkpt lat="47.06899" lon="6.19651">
        <ele>571</ele>
        <time>2015-04-26T08:52:41.000Z</time>
      </trkpt>
      <trkpt lat="47.06892" lon="6.19646">
        <ele>575</ele>
        <time>2015-04-26T08:52:43.000Z</time>
      </trkpt>
      <trkpt lat="47.06887" lon="6.19642">
        <ele>573</ele>
        <time>2015-04-26T08:52:45.000Z</time>
      </trkpt>
      <trkpt lat="47.06882" lon="6.19639">
        <ele>578</ele>
        <time>2015-04-26T08:52:47.000Z</time>
      </trkpt>
      <trkpt lat="47.06878" lon="6.19637">
        <ele>577</ele>
        <time>2015-04-26T08:52:49.000Z</time>
      </trkpt>
      <trkpt lat="47.06867" lon="6.19629">
        <ele>580</ele>
        <time>2015-04-26T08:52:53.000Z</time>
      </trkpt>
      <trkpt lat="47.06867" lon="6.19629">
        <ele>580</ele>
        <time>2015-04-26T08:52:55.000Z</time>
      </trkpt>
      <trkpt lat="47.06867" lon="6.19629">
        <ele>580</ele>
        <time>2015-04-26T08:52:57.000Z</time>
      </trkpt>
      <trkpt lat="47.06867" lon="6.19629">
        <ele>580</ele>
        <time>2015-04-26T08:52:59.000Z</time>
      </trkpt>
      <trkpt lat="47.06867" lon="6.19629">
        <ele>580</ele>
        <time>2015-04-26T08:53:01.000Z</time>
      </trkpt>
      <trkpt lat="47.06867" lon="6.19629">
        <ele>580</ele>
        <time>2015-04-26T08:53:03.000Z</time>
      </trkpt>
      <trkpt lat="47.06842" lon="6.19605">
        <ele>584</ele>
        <time>2015-04-26T08:53:09.000Z</time>
      </trkpt>
      <trkpt lat="47.06833" lon="6.19594">
        <ele>579</ele>
        <time>2015-04-26T08:53:15.000Z</time>
      </trkpt>
      <trkpt lat="47.06833" lon="6.19594">
        <ele>579</ele>
        <time>2015-04-26T08:53:17.000Z</time>
      </trkpt>
      <trkpt lat="47.06833" lon="6.19594">
        <ele>579</ele>
        <time>2015-04-26T08:53:19.000Z</time>
      </trkpt>
      <trkpt lat="47.06833" lon="6.19594">
        <ele>579</ele>
        <time>2015-04-26T08:53:21.000Z</time>
      </trkpt>
      <trkpt lat="47.06833" lon="6.19594">
        <ele>579</ele>
        <time>2015-04-26T08:53:23.000Z</time>
      </trkpt>
      <trkpt lat="47.06813" lon="6.19573">
        <ele>581</ele>
        <time>2015-04-26T08:53:27.000Z</time>
      </trkpt>
      <trkpt lat="47.06803" lon="6.19564">
        <ele>578</ele>
        <time>2015-04-26T08:53:33.000Z</time>
      </trkpt>
      <trkpt lat="47.06803" lon="6.19564">
        <ele>578</ele>
        <time>2015-04-26T08:53:41.000Z</time>
      </trkpt>
      <trkpt lat="47.06803" lon="6.19564">
        <ele>578</ele>
        <time>2015-04-26T08:53:43.000Z</time>
      </trkpt>
      <trkpt lat="47.06803" lon="6.19564">
        <ele>578</ele>
        <time>2015-04-26T08:53:45.000Z</time>
      </trkpt>
      <trkpt lat="47.06803" lon="6.19564">
        <ele>578</ele>
        <time>2015-04-26T08:53:47.000Z</time>
      </trkpt>
      <trkpt lat="47.06803" lon="6.19564">
        <ele>578</ele>
        <time>2015-04-26T08:53:49.000Z</time>
      </trkpt>
      <trkpt lat="47.06787" lon="6.19508">
        <ele>576</ele>
        <time>2015-04-26T08:53:55.000Z</time>
      </trkpt>
      <trkpt lat="47.06783" lon="6.19491">
        <ele>574</ele>
        <time>2015-04-26T08:54:01.000Z</time>
      </trkpt>
      <trkpt lat="47.06779" lon="6.19481">
        <ele>585</ele>
        <time>2015-04-26T08:54:07.000Z</time>
      </trkpt>
      <trkpt lat="47.06776" lon="6.19473">
        <ele>583</ele>
        <time>2015-04-26T08:54:09.000Z</time>
      </trkpt>
      <trkpt lat="47.06774" lon="6.19466">
        <ele>581</ele>
        <time>2015-04-26T08:54:11.000Z</time>
      </trkpt>
      <trkpt lat="47.06774" lon="6.19466">
        <ele>581</ele>
        <time>2015-04-26T08:54:13.000Z</time>
      </trkpt>
      <trkpt lat="47.06774" lon="6.19466">
        <ele>581</ele>
        <time>2015-04-26T08:54:15.000Z</time>
      </trkpt>
      <trkpt lat="47.06774" lon="6.19466">
        <ele>581</ele>
        <time>2015-04-26T08:54:17.000Z</time>
      </trkpt>
      <trkpt lat="47.06765" lon="6.19448">
        <ele>584</ele>
        <time>2015-04-26T08:54:23.000Z</time>
      </trkpt>
      <trkpt lat="47.06759" lon="6.19436">
        <ele>585</ele>
        <time>2015-04-26T08:54:25.000Z</time>
      </trkpt>
      <trkpt lat="47.06755" lon="6.19428">
        <ele>584</ele>
        <time>2015-04-26T08:54:27.000Z</time>
      </trkpt>
      <trkpt lat="47.0675" lon="6.19422">
        <ele>585</ele>
        <time>2015-04-26T08:54:29.000Z</time>
      </trkpt>
      <trkpt lat="47.06747" lon="6.19417">
        <ele>587</ele>
        <time>2015-04-26T08:54:31.000Z</time>
      </trkpt>
      <trkpt lat="47.06747" lon="6.19417">
        <ele>587</ele>
        <time>2015-04-26T08:54:33.000Z</time>
      </trkpt>
      <trkpt lat="47.06747" lon="6.19417">
        <ele>587</ele>
        <time>2015-04-26T08:54:35.000Z</time>
      </trkpt>
      <trkpt lat="47.06747" lon="6.19417">
        <ele>587</ele>
        <time>2015-04-26T08:54:37.000Z</time>
      </trkpt>
      <trkpt lat="47.06747" lon="6.19417">
        <ele>587</ele>
        <time>2015-04-26T08:54:39.000Z</time>
      </trkpt>
      <trkpt lat="47.06747" lon="6.19417">
        <ele>587</ele>
        <time>2015-04-26T08:54:41.000Z</time>
      </trkpt>
      <trkpt lat="47.06747" lon="6.19417">
        <ele>587</ele>
        <time>2015-04-26T08:54:43.000Z</time>
      </trkpt>
      <trkpt lat="47.06747" lon="6.19417">
        <ele>587</ele>
        <time>2015-04-26T08:54:45.000Z</time>
      </trkpt>
      <trkpt lat="47.06747" lon="6.19417">
        <ele>587</ele>
        <time>2015-04-26T08:54:47.000Z</time>
      </trkpt>
      <trkpt lat="47.06747" lon="6.19417">
        <ele>587</ele>
        <time>2015-04-26T08:54:49.000Z</time>
      </trkpt>
      <trkpt lat="47.06747" lon="6.19417">
        <ele>587</ele>
        <time>2015-04-26T08:54:51.000Z</time>
      </trkpt>
      <trkpt lat="47.06747" lon="6.19417">
        <ele>587</ele>
        <time>2015-04-26T08:54:53.000Z</time>
      </trkpt>
      <trkpt lat="47.06747" lon="6.19417">
        <ele>587</ele>
        <time>2015-04-26T08:54:55.000Z</time>
      </trkpt>
      <trkpt lat="47.06747" lon="6.19417">
        <ele>587</ele>
        <time>2015-04-26T08:54:57.000Z</time>
      </trkpt>
      <trkpt lat="47.06747" lon="6.19417">
        <ele>587</ele>
        <time>2015-04-26T08:54:59.000Z</time>
      </trkpt>
      <trkpt lat="47.06747" lon="6.19417">
        <ele>587</ele>
        <time>2015-04-26T08:55:01.000Z</time>
      </trkpt>
      <trkpt lat="47.06712" lon="6.19331">
        <ele>589</ele>
        <time>2015-04-26T08:55:05.000Z</time>
      </trkpt>
      <trkpt lat="47.06708" lon="6.19312">
        <ele>595</ele>
        <time>2015-04-26T08:55:11.000Z</time>
      </trkpt>
      <trkpt lat="47.06704" lon="6.19296">
        <ele>591</ele>
        <time>2015-04-26T08:55:17.000Z</time>
      </trkpt>
      <trkpt lat="47.06704" lon="6.19296">
        <ele>591</ele>
        <time>2015-04-26T08:55:23.000Z</time>
      </trkpt>
      <trkpt lat="47.06704" lon="6.19296">
        <ele>591</ele>
        <time>2015-04-26T08:55:25.000Z</time>
      </trkpt>
      <trkpt lat="47.06704" lon="6.19296">
        <ele>591</ele>
        <time>2015-04-26T08:55:27.000Z</time>
      </trkpt>
      <trkpt lat="47.06704" lon="6.19296">
        <ele>591</ele>
        <time>2015-04-26T08:55:29.000Z</time>
      </trkpt>
      <trkpt lat="47.06704" lon="6.19296">
        <ele>591</ele>
        <time>2015-04-26T08:55:31.000Z</time>
      </trkpt>
      <trkpt lat="47.06704" lon="6.19296">
        <ele>591</ele>
        <time>2015-04-26T08:55:33.000Z</time>
      </trkpt>
      <trkpt lat="47.06704" lon="6.19296">
        <ele>591</ele>
        <time>2015-04-26T08:55:35.000Z</time>
      </trkpt>
      <trkpt lat="47.06697" lon="6.19269">
        <ele>596</ele>
        <time>2015-04-26T08:55:39.000Z</time>
      </trkpt>
      <trkpt lat="47.06694" lon="6.19254">
        <ele>597</ele>
        <time>2015-04-26T08:55:41.000Z</time>
      </trkpt>
      <trkpt lat="47.06694" lon="6.19254">
        <ele>597</ele>
        <time>2015-04-26T08:55:43.000Z</time>
      </trkpt>
      <trkpt lat="47.06694" lon="6.19254">
        <ele>597</ele>
        <time>2015-04-26T08:55:45.000Z</time>
      </trkpt>
      <trkpt lat="47.06694" lon="6.19254">
        <ele>597</ele>
        <time>2015-04-26T08:55:47.000Z</time>
      </trkpt>
      <trkpt lat="47.06694" lon="6.19254">
        <ele>597</ele>
        <time>2015-04-26T08:55:49.000Z</time>
      </trkpt>
      <trkpt lat="47.06694" lon="6.19254">
        <ele>597</ele>
        <time>2015-04-26T08:55:51.000Z</time>
      </trkpt>
      <trkpt lat="47.06694" lon="6.19254">
        <ele>597</ele>
        <time>2015-04-26T08:55:53.000Z</time>
      </trkpt>
      <trkpt lat="47.06694" lon="6.19254">
        <ele>597</ele>
        <time>2015-04-26T08:55:55.000Z</time>
      </trkpt>
      <trkpt lat="47.06694" lon="6.19254">
        <ele>597</ele>
        <time>2015-04-26T08:55:57.000Z</time>
      </trkpt>
      <trkpt lat="47.06694" lon="6.19254">
        <ele>597</ele>
        <time>2015-04-26T08:55:59.000Z</time>
      </trkpt>
      <trkpt lat="47.06694" lon="6.19254">
        <ele>597</ele>
        <time>2015-04-26T08:56:01.000Z</time>
      </trkpt>
      <trkpt lat="47.06694" lon="6.19254">
        <ele>597</ele>
        <time>2015-04-26T08:56:03.000Z</time>
      </trkpt>
      <trkpt lat="47.06694" lon="6.19254">
        <ele>597</ele>
        <time>2015-04-26T08:56:05.000Z</time>
      </trkpt>
      <trkpt lat="47.06694" lon="6.19254">
        <ele>597</ele>
        <time>2015-04-26T08:56:07.000Z</time>
      </trkpt>
      <trkpt lat="47.06694" lon="6.19254">
        <ele>597</ele>
        <time>2015-04-26T08:56:09.000Z</time>
      </trkpt>
      <trkpt lat="47.06694" lon="6.19254">
        <ele>597</ele>
        <time>2015-04-26T08:56:11.000Z</time>
      </trkpt>
      <trkpt lat="47.06677" lon="6.19219">
        <ele>606</ele>
        <time>2015-04-26T08:56:15.000Z</time>
      </trkpt>
      <trkpt lat="47.06677" lon="6.19219">
        <ele>606</ele>
        <time>2015-04-26T08:56:17.000Z</time>
      </trkpt>
      <trkpt lat="47.06677" lon="6.19219">
        <ele>606</ele>
        <time>2015-04-26T08:56:19.000Z</time>
      </trkpt>
      <trkpt lat="47.06677" lon="6.19219">
        <ele>606</ele>
        <time>2015-04-26T08:56:21.000Z</time>
      </trkpt>
      <trkpt lat="47.06667" lon="6.19194">
        <ele>610</ele>
        <time>2015-04-26T08:56:23.000Z</time>
      </trkpt>
      <trkpt lat="47.06661" lon="6.1918">
        <ele>609</ele>
        <time>2015-04-26T08:56:25.000Z</time>
      </trkpt>
      <trkpt lat="47.06657" lon="6.19171">
        <ele>609</ele>
        <time>2015-04-26T08:56:27.000Z</time>
      </trkpt>
      <trkpt lat="47.06654" lon="6.19164">
        <ele>608</ele>
        <time>2015-04-26T08:56:29.000Z</time>
      </trkpt>
      <trkpt lat="47.06652" lon="6.19158">
        <ele>609</ele>
        <time>2015-04-26T08:56:33.000Z</time>
      </trkpt>
      <trkpt lat="47.06652" lon="6.19158">
        <ele>609</ele>
        <time>2015-04-26T08:56:35.000Z</time>
      </trkpt>
      <trkpt lat="47.06652" lon="6.19158">
        <ele>609</ele>
        <time>2015-04-26T08:56:37.000Z</time>
      </trkpt>
      <trkpt lat="47.06652" lon="6.19158">
        <ele>609</ele>
        <time>2015-04-26T08:56:39.000Z</time>
      </trkpt>
      <trkpt lat="47.06652" lon="6.19158">
        <ele>609</ele>
        <time>2015-04-26T08:56:41.000Z</time>
      </trkpt>
      <trkpt lat="47.06652" lon="6.19158">
        <ele>609</ele>
        <time>2015-04-26T08:56:45.000Z</time>
      </trkpt>
      <trkpt lat="47.06639" lon="6.19136">
        <ele>610</ele>
        <time>2015-04-26T08:57:07.000Z</time>
      </trkpt>
      <trkpt lat="47.06631" lon="6.19123">
        <ele>608</ele>
        <time>2015-04-26T08:57:09.000Z</time>
      </trkpt>
      <trkpt lat="47.06627" lon="6.19115">
        <ele>611</ele>
        <time>2015-04-26T08:57:11.000Z</time>
      </trkpt>
      <trkpt lat="47.06624" lon="6.1911">
        <ele>612</ele>
        <time>2015-04-26T08:57:13.000Z</time>
      </trkpt>
      <trkpt lat="47.06621" lon="6.19104">
        <ele>613</ele>
        <time>2015-04-26T08:57:17.000Z</time>
      </trkpt>
      <trkpt lat="47.06618" lon="6.19096">
        <ele>612</ele>
        <time>2015-04-26T08:57:21.000Z</time>
      </trkpt>
      <trkpt lat="47.06617" lon="6.1909">
        <ele>612</ele>
        <time>2015-04-26T08:57:23.000Z</time>
      </trkpt>
      <trkpt lat="47.06614" lon="6.19083">
        <ele>612</ele>
        <time>2015-04-26T08:57:27.000Z</time>
      </trkpt>
      <trkpt lat="47.06611" lon="6.19077">
        <ele>613</ele>
        <time>2015-04-26T08:57:31.000Z</time>
      </trkpt>
      <trkpt lat="47.06609" lon="6.1907">
        <ele>613</ele>
        <time>2015-04-26T08:57:35.000Z</time>
      </trkpt>
      <trkpt lat="47.06609" lon="6.1907">
        <ele>613</ele>
        <time>2015-04-26T08:57:37.000Z</time>
      </trkpt>
      <trkpt lat="47.06609" lon="6.1907">
        <ele>613</ele>
        <time>2015-04-26T08:57:41.000Z</time>
      </trkpt>
      <trkpt lat="47.06603" lon="6.19059">
        <ele>619</ele>
        <time>2015-04-26T08:57:45.000Z</time>
      </trkpt>
      <trkpt lat="47.06599" lon="6.19052">
        <ele>626</ele>
        <time>2015-04-26T08:57:47.000Z</time>
      </trkpt>
      <trkpt lat="47.06599" lon="6.19052">
        <ele>626</ele>
        <time>2015-04-26T08:57:49.000Z</time>
      </trkpt>
      <trkpt lat="47.06595" lon="6.19047">
        <ele>626</ele>
        <time>2015-04-26T08:57:51.000Z</time>
      </trkpt>
      <trkpt lat="47.06595" lon="6.19047">
        <ele>626</ele>
        <time>2015-04-26T08:57:53.000Z</time>
      </trkpt>
      <trkpt lat="47.06595" lon="6.19047">
        <ele>626</ele>
        <time>2015-04-26T08:57:55.000Z</time>
      </trkpt>
      <trkpt lat="47.06595" lon="6.19047">
        <ele>626</ele>
        <time>2015-04-26T08:57:57.000Z</time>
      </trkpt>
      <trkpt lat="47.06595" lon="6.19047">
        <ele>626</ele>
        <time>2015-04-26T08:57:59.000Z</time>
      </trkpt>
      <trkpt lat="47.06595" lon="6.19047">
        <ele>626</ele>
        <time>2015-04-26T08:58:01.000Z</time>
      </trkpt>
      <trkpt lat="47.06595" lon="6.19047">
        <ele>626</ele>
        <time>2015-04-26T08:58:03.000Z</time>
      </trkpt>
      <trkpt lat="47.06595" lon="6.19047">
        <ele>626</ele>
        <time>2015-04-26T08:58:05.000Z</time>
      </trkpt>
      <trkpt lat="47.06595" lon="6.19047">
        <ele>626</ele>
        <time>2015-04-26T08:58:07.000Z</time>
      </trkpt>
      <trkpt lat="47.06595" lon="6.19047">
        <ele>626</ele>
        <time>2015-04-26T08:58:09.000Z</time>
      </trkpt>
      <trkpt lat="47.06595" lon="6.19047">
        <ele>626</ele>
        <time>2015-04-26T08:58:11.000Z</time>
      </trkpt>
      <trkpt lat="47.06595" lon="6.19047">
        <ele>626</ele>
        <time>2015-04-26T08:58:13.000Z</time>
      </trkpt>
      <trkpt lat="47.06555" lon="6.18929">
        <ele>660</ele>
        <time>2015-04-26T09:02:13.000Z</time>
      </trkpt>
      <trkpt lat="47.06531" lon="6.18864">
        <ele>655</ele>
        <time>2015-04-26T09:02:20.000Z</time>
      </trkpt>
      <trkpt lat="47.06518" lon="6.18829">
        <ele>655</ele>
        <time>2015-04-26T09:02:22.000Z</time>
      </trkpt>
      <trkpt lat="47.06511" lon="6.1881">
        <ele>658</ele>
        <time>2015-04-26T09:02:24.000Z</time>
      </trkpt>
      <trkpt lat="47.06506" lon="6.18799">
        <ele>653</ele>
        <time>2015-04-26T09:02:26.000Z</time>
      </trkpt>
      <trkpt lat="47.06503" lon="6.18792">
        <ele>655</ele>
        <time>2015-04-26T09:02:28.000Z</time>
      </trkpt>
      <trkpt lat="47.06498" lon="6.18776">
        <ele>652</ele>
        <time>2015-04-26T09:02:32.000Z</time>
      </trkpt>
      <trkpt lat="47.06498" lon="6.18776">
        <ele>652</ele>
        <time>2015-04-26T09:02:36.000Z</time>
      </trkpt>
      <trkpt lat="47.06498" lon="6.18776">
        <ele>652</ele>
        <time>2015-04-26T09:02:38.000Z</time>
      </trkpt>
      <trkpt lat="47.06498" lon="6.18776">
        <ele>652</ele>
        <time>2015-04-26T09:02:40.000Z</time>
      </trkpt>
      <trkpt lat="47.06496" lon="6.18752">
        <ele>661</ele>
        <time>2015-04-26T09:02:42.000Z</time>
      </trkpt>
      <trkpt lat="47.06494" lon="6.18738">
        <ele>665</ele>
        <time>2015-04-26T09:02:48.000Z</time>
      </trkpt>
      <trkpt lat="47.06494" lon="6.18738">
        <ele>665</ele>
        <time>2015-04-26T09:02:56.000Z</time>
      </trkpt>
      <trkpt lat="47.06494" lon="6.18738">
        <ele>665</ele>
        <time>2015-04-26T09:02:58.000Z</time>
      </trkpt>
      <trkpt lat="47.06494" lon="6.18738">
        <ele>665</ele>
        <time>2015-04-26T09:03:00.000Z</time>
      </trkpt>
      <trkpt lat="47.06494" lon="6.18738">
        <ele>665</ele>
        <time>2015-04-26T09:03:02.000Z</time>
      </trkpt>
      <trkpt lat="47.06494" lon="6.18738">
        <ele>665</ele>
        <time>2015-04-26T09:03:04.000Z</time>
      </trkpt>
      <trkpt lat="47.06488" lon="6.18702">
        <ele>678</ele>
        <time>2015-04-26T09:03:06.000Z</time>
      </trkpt>
      <trkpt lat="47.06481" lon="6.1868">
        <ele>684</ele>
        <time>2015-04-26T09:03:18.000Z</time>
      </trkpt>
      <trkpt lat="47.06477" lon="6.18665">
        <ele>680</ele>
        <time>2015-04-26T09:03:26.000Z</time>
      </trkpt>
      <trkpt lat="47.06477" lon="6.18665">
        <ele>680</ele>
        <time>2015-04-26T09:03:28.000Z</time>
      </trkpt>
      <trkpt lat="47.06477" lon="6.18665">
        <ele>680</ele>
        <time>2015-04-26T09:03:30.000Z</time>
      </trkpt>
      <trkpt lat="47.06477" lon="6.18665">
        <ele>680</ele>
        <time>2015-04-26T09:03:32.000Z</time>
      </trkpt>
      <trkpt lat="47.06477" lon="6.18665">
        <ele>680</ele>
        <time>2015-04-26T09:03:34.000Z</time>
      </trkpt>
      <trkpt lat="47.06477" lon="6.18665">
        <ele>680</ele>
        <time>2015-04-26T09:03:42.000Z</time>
      </trkpt>
      <trkpt lat="47.06472" lon="6.1865">
        <ele>680</ele>
        <time>2015-04-26T09:03:44.000Z</time>
      </trkpt>
      <trkpt lat="47.06469" lon="6.18639">
        <ele>679</ele>
        <time>2015-04-26T09:03:46.000Z</time>
      </trkpt>
      <trkpt lat="47.06467" lon="6.18632">
        <ele>680</ele>
        <time>2015-04-26T09:03:48.000Z</time>
      </trkpt>
      <trkpt lat="47.06467" lon="6.18632">
        <ele>680</ele>
        <time>2015-04-26T09:03:50.000Z</time>
      </trkpt>
      <trkpt lat="47.06467" lon="6.18632">
        <ele>680</ele>
        <time>2015-04-26T09:03:52.000Z</time>
      </trkpt>
      <trkpt lat="47.06467" lon="6.18632">
        <ele>680</ele>
        <time>2015-04-26T09:03:54.000Z</time>
      </trkpt>
      <trkpt lat="47.06467" lon="6.18632">
        <ele>680</ele>
        <time>2015-04-26T09:03:56.000Z</time>
      </trkpt>
      <trkpt lat="47.06467" lon="6.18632">
        <ele>680</ele>
        <time>2015-04-26T09:03:58.000Z</time>
      </trkpt>
      <trkpt lat="47.06463" lon="6.18617">
        <ele>684</ele>
        <time>2015-04-26T09:04:00.000Z</time>
      </trkpt>
      <trkpt lat="47.06461" lon="6.18608">
        <ele>685</ele>
        <time>2015-04-26T09:04:02.000Z</time>
      </trkpt>
      <trkpt lat="47.06461" lon="6.18608">
        <ele>685</ele>
        <time>2015-04-26T09:04:06.000Z</time>
      </trkpt>
      <trkpt lat="47.06461" lon="6.18608">
        <ele>685</ele>
        <time>2015-04-26T09:04:08.000Z</time>
      </trkpt>
      <trkpt lat="47.06461" lon="6.18608">
        <ele>685</ele>
        <time>2015-04-26T09:04:10.000Z</time>
      </trkpt>
      <trkpt lat="47.06462" lon="6.1859">
        <ele>690</ele>
        <time>2015-04-26T09:04:14.000Z</time>
      </trkpt>
      <trkpt lat="47.06461" lon="6.1858">
        <ele>693</ele>
        <time>2015-04-26T09:04:16.000Z</time>
      </trkpt>
      <trkpt lat="47.06461" lon="6.1858">
        <ele>693</ele>
        <time>2015-04-26T09:04:18.000Z</time>
      </trkpt>
      <trkpt lat="47.06461" lon="6.1858">
        <ele>693</ele>
        <time>2015-04-26T09:04:20.000Z</time>
      </trkpt>
      <trkpt lat="47.06461" lon="6.1858">
        <ele>693</ele>
        <time>2015-04-26T09:04:22.000Z</time>
      </trkpt>
      <trkpt lat="47.06457" lon="6.18563">
        <ele>687</ele>
        <time>2015-04-26T09:04:26.000Z</time>
      </trkpt>
      <trkpt lat="47.06453" lon="6.18552">
        <ele>686</ele>
        <time>2015-04-26T09:04:28.000Z</time>
      </trkpt>
      <trkpt lat="47.0645" lon="6.18544">
        <ele>687</ele>
        <time>2015-04-26T09:04:30.000Z</time>
      </trkpt>
      <trkpt lat="47.06449" lon="6.18537">
        <ele>689</ele>
        <time>2015-04-26T09:04:34.000Z</time>
      </trkpt>
      <trkpt lat="47.06447" lon="6.1853">
        <ele>689</ele>
        <time>2015-04-26T09:04:36.000Z</time>
      </trkpt>
      <trkpt lat="47.06447" lon="6.1853">
        <ele>689</ele>
        <time>2015-04-26T09:04:38.000Z</time>
      </trkpt>
      <trkpt lat="47.06447" lon="6.1853">
        <ele>689</ele>
        <time>2015-04-26T09:04:40.000Z</time>
      </trkpt>
      <trkpt lat="47.06447" lon="6.1853">
        <ele>689</ele>
        <time>2015-04-26T09:04:42.000Z</time>
      </trkpt>
      <trkpt lat="47.06447" lon="6.1853">
        <ele>689</ele>
        <time>2015-04-26T09:04:44.000Z</time>
      </trkpt>
      <trkpt lat="47.06447" lon="6.1853">
        <ele>689</ele>
        <time>2015-04-26T09:04:46.000Z</time>
      </trkpt>
      <trkpt lat="47.06447" lon="6.1853">
        <ele>689</ele>
        <time>2015-04-26T09:04:48.000Z</time>
      </trkpt>
      <trkpt lat="47.06438" lon="6.18513">
        <ele>698</ele>
        <time>2015-04-26T09:04:52.000Z</time>
      </trkpt>
      <trkpt lat="47.06433" lon="6.18503">
        <ele>700</ele>
        <time>2015-04-26T09:04:54.000Z</time>
      </trkpt>
      <trkpt lat="47.06429" lon="6.18496">
        <ele>700</ele>
        <time>2015-04-26T09:04:56.000Z</time>
      </trkpt>
      <trkpt lat="47.06429" lon="6.18496">
        <ele>700</ele>
        <time>2015-04-26T09:04:58.000Z</time>
      </trkpt>
      <trkpt lat="47.06425" lon="6.18491">
        <ele>707</ele>
        <time>2015-04-26T09:05:00.000Z</time>
      </trkpt>
      <trkpt lat="47.06425" lon="6.18491">
        <ele>707</ele>
        <time>2015-04-26T09:05:02.000Z</time>
      </trkpt>
      <trkpt lat="47.06425" lon="6.18491">
        <ele>707</ele>
        <time>2015-04-26T09:05:04.000Z</time>
      </trkpt>
      <trkpt lat="47.06417" lon="6.18485">
        <ele>709</ele>
        <time>2015-04-26T09:05:08.000Z</time>
      </trkpt>
      <trkpt lat="47.06411" lon="6.18482">
        <ele>708</ele>
        <time>2015-04-26T09:05:10.000Z</time>
      </trkpt>
      <trkpt lat="47.06406" lon="6.1848">
        <ele>710</ele>
        <time>2015-04-26T09:05:12.000Z</time>
      </trkpt>
      <trkpt lat="47.06401" lon="6.18476">
        <ele>714</ele>
        <time>2015-04-26T09:05:16.000Z</time>
      </trkpt>
      <trkpt lat="47.06397" lon="6.18473">
        <ele>715</ele>
        <time>2015-04-26T09:05:18.000Z</time>
      </trkpt>
      <trkpt lat="47.06392" lon="6.18468">
        <ele>719</ele>
        <time>2015-04-26T09:05:22.000Z</time>
      </trkpt>
      <trkpt lat="47.06388" lon="6.18464">
        <ele>719</ele>
        <time>2015-04-26T09:05:24.000Z</time>
      </trkpt>
      <trkpt lat="47.06384" lon="6.1846">
        <ele>721</ele>
        <time>2015-04-26T09:05:26.000Z</time>
      </trkpt>
      <trkpt lat="47.0638" lon="6.18456">
        <ele>717</ele>
        <time>2015-04-26T09:05:28.000Z</time>
      </trkpt>
      <trkpt lat="47.06376" lon="6.18452">
        <ele>716</ele>
        <time>2015-04-26T09:05:30.000Z</time>
      </trkpt>
      <trkpt lat="47.06364" lon="6.18434">
        <ele>715</ele>
        <time>2015-04-26T09:05:34.000Z</time>
      </trkpt>
      <trkpt lat="47.06358" lon="6.18421">
        <ele>707</ele>
        <time>2015-04-26T09:05:38.000Z</time>
      </trkpt>
      <trkpt lat="47.06353" lon="6.18409">
        <ele>705</ele>
        <time>2015-04-26T09:05:42.000Z</time>
      </trkpt>
      <trkpt lat="47.06346" lon="6.18396">
        <ele>699</ele>
        <time>2015-04-26T09:05:46.000Z</time>
      </trkpt>
      <trkpt lat="47.06337" lon="6.18384">
        <ele>696</ele>
        <time>2015-04-26T09:05:50.000Z</time>
      </trkpt>
      <trkpt lat="47.06327" lon="6.18372">
        <ele>695</ele>
        <time>2015-04-26T09:05:54.000Z</time>
      </trkpt>
      <trkpt lat="47.06321" lon="6.18358">
        <ele>692</ele>
        <time>2015-04-26T09:05:58.000Z</time>
      </trkpt>
      <trkpt lat="47.06312" lon="6.18346">
        <ele>692</ele>
        <time>2015-04-26T09:06:02.000Z</time>
      </trkpt>
      <trkpt lat="47.06303" lon="6.18334">
        <ele>693</ele>
        <time>2015-04-26T09:06:06.000Z</time>
      </trkpt>
      <trkpt lat="47.06293" lon="6.18324">
        <ele>690</ele>
        <time>2015-04-26T09:06:10.000Z</time>
      </trkpt>
      <trkpt lat="47.06293" lon="6.18324">
        <ele>690</ele>
        <time>2015-04-26T09:06:12.000Z</time>
      </trkpt>
      <trkpt lat="47.06293" lon="6.18324">
        <ele>690</ele>
        <time>2015-04-26T09:06:14.000Z</time>
      </trkpt>
      <trkpt lat="47.06293" lon="6.18324">
        <ele>690</ele>
        <time>2015-04-26T09:06:16.000Z</time>
      </trkpt>
      <trkpt lat="47.06293" lon="6.18324">
        <ele>690</ele>
        <time>2015-04-26T09:06:18.000Z</time>
      </trkpt>
      <trkpt lat="47.06263" lon="6.18303">
        <ele>699</ele>
        <time>2015-04-26T09:06:22.000Z</time>
      </trkpt>
      <trkpt lat="47.06252" lon="6.18293">
        <ele>702</ele>
        <time>2015-04-26T09:06:26.000Z</time>
      </trkpt>
      <trkpt lat="47.06243" lon="6.18285">
        <ele>701</ele>
        <time>2015-04-26T09:06:30.000Z</time>
      </trkpt>
      <trkpt lat="47.06243" lon="6.18285">
        <ele>701</ele>
        <time>2015-04-26T09:06:32.000Z</time>
      </trkpt>
      <trkpt lat="47.06232" lon="6.18275">
        <ele>698</ele>
        <time>2015-04-26T09:06:34.000Z</time>
      </trkpt>
      <trkpt lat="47.06221" lon="6.18263">
        <ele>695</ele>
        <time>2015-04-26T09:06:38.000Z</time>
      </trkpt>
      <trkpt lat="47.0621" lon="6.18251">
        <ele>694</ele>
        <time>2015-04-26T09:06:42.000Z</time>
      </trkpt>
      <trkpt lat="47.06197" lon="6.18244">
        <ele>699</ele>
        <time>2015-04-26T09:06:46.000Z</time>
      </trkpt>
      <trkpt lat="47.06188" lon="6.18233">
        <ele>700</ele>
        <time>2015-04-26T09:06:50.000Z</time>
      </trkpt>
      <trkpt lat="47.06188" lon="6.18233">
        <ele>700</ele>
        <time>2015-04-26T09:06:52.000Z</time>
      </trkpt>
      <trkpt lat="47.06188" lon="6.18233">
        <ele>700</ele>
        <time>2015-04-26T09:06:54.000Z</time>
      </trkpt>
      <trkpt lat="47.06188" lon="6.18233">
        <ele>700</ele>
        <time>2015-04-26T09:06:56.000Z</time>
      </trkpt>
      <trkpt lat="47.06188" lon="6.18233">
        <ele>700</ele>
        <time>2015-04-26T09:07:02.000Z</time>
      </trkpt>
      <trkpt lat="47.06188" lon="6.18233">
        <ele>700</ele>
        <time>2015-04-26T09:07:04.000Z</time>
      </trkpt>
      <trkpt lat="47.06188" lon="6.18233">
        <ele>700</ele>
        <time>2015-04-26T09:07:06.000Z</time>
      </trkpt>
      <trkpt lat="47.06165" lon="6.18202">
        <ele>713</ele>
        <time>2015-04-26T09:07:10.000Z</time>
      </trkpt>
      <trkpt lat="47.06152" lon="6.18185">
        <ele>718</ele>
        <time>2015-04-26T09:07:12.000Z</time>
      </trkpt>
      <trkpt lat="47.06143" lon="6.18173">
        <ele>720</ele>
        <time>2015-04-26T09:07:14.000Z</time>
      </trkpt>
      <trkpt lat="47.06136" lon="6.18165">
        <ele>722</ele>
        <time>2015-04-26T09:07:16.000Z</time>
      </trkpt>
      <trkpt lat="47.0613" lon="6.18159">
        <ele>715</ele>
        <time>2015-04-26T09:07:18.000Z</time>
      </trkpt>
      <trkpt lat="47.06118" lon="6.18149">
        <ele>714</ele>
        <time>2015-04-26T09:07:20.000Z</time>
      </trkpt>
      <trkpt lat="47.06106" lon="6.18142">
        <ele>713</ele>
        <time>2015-04-26T09:07:24.000Z</time>
      </trkpt>
      <trkpt lat="47.06106" lon="6.18142">
        <ele>713</ele>
        <time>2015-04-26T09:07:26.000Z</time>
      </trkpt>
      <trkpt lat="47.06106" lon="6.18142">
        <ele>713</ele>
        <time>2015-04-26T09:07:28.000Z</time>
      </trkpt>
      <trkpt lat="47.06106" lon="6.18142">
        <ele>713</ele>
        <time>2015-04-26T09:07:30.000Z</time>
      </trkpt>
      <trkpt lat="47.06106" lon="6.18142">
        <ele>713</ele>
        <time>2015-04-26T09:07:32.000Z</time>
      </trkpt>
      <trkpt lat="47.06106" lon="6.18142">
        <ele>713</ele>
        <time>2015-04-26T09:07:34.000Z</time>
      </trkpt>
      <trkpt lat="47.06106" lon="6.18142">
        <ele>713</ele>
        <time>2015-04-26T09:07:42.000Z</time>
      </trkpt>
      <trkpt lat="47.06106" lon="6.18142">
        <ele>713</ele>
        <time>2015-04-26T09:07:44.000Z</time>
      </trkpt>
      <trkpt lat="47.06106" lon="6.18142">
        <ele>713</ele>
        <time>2015-04-26T09:07:46.000Z</time>
      </trkpt>
      <trkpt lat="47.06106" lon="6.18142">
        <ele>713</ele>
        <time>2015-04-26T09:07:48.000Z</time>
      </trkpt>
      <trkpt lat="47.06033" lon="6.1811">
        <ele>733</ele>
        <time>2015-04-26T09:07:50.000Z</time>
      </trkpt>
      <trkpt lat="47.06017" lon="6.18104">
        <ele>732</ele>
        <time>2015-04-26T09:07:56.000Z</time>
      </trkpt>
      <trkpt lat="47.06003" lon="6.18095">
        <ele>728</ele>
        <time>2015-04-26T09:08:00.000Z</time>
      </trkpt>
      <trkpt lat="47.05988" lon="6.18081">
        <ele>726</ele>
        <time>2015-04-26T09:08:04.000Z</time>
      </trkpt>
      <trkpt lat="47.05978" lon="6.18069">
        <ele>721</ele>
        <time>2015-04-26T09:08:06.000Z</time>
      </trkpt>
      <trkpt lat="47.05968" lon="6.18059">
        <ele>717</ele>
        <time>2015-04-26T09:08:08.000Z</time>
      </trkpt>
      <trkpt lat="47.05949" lon="6.18046">
        <ele>715</ele>
        <time>2015-04-26T09:08:12.000Z</time>
      </trkpt>
      <trkpt lat="47.05933" lon="6.18029">
        <ele>714</ele>
        <time>2015-04-26T09:08:16.000Z</time>
      </trkpt>
      <trkpt lat="47.0592" lon="6.18013">
        <ele>712</ele>
        <time>2015-04-26T09:08:20.000Z</time>
      </trkpt>
      <trkpt lat="47.0592" lon="6.18013">
        <ele>712</ele>
        <time>2015-04-26T09:08:22.000Z</time>
      </trkpt>
      <trkpt lat="47.0592" lon="6.18013">
        <ele>712</ele>
        <time>2015-04-26T09:08:24.000Z</time>
      </trkpt>
      <trkpt lat="47.0592" lon="6.18013">
        <ele>712</ele>
        <time>2015-04-26T09:08:26.000Z</time>
      </trkpt>
      <trkpt lat="47.0592" lon="6.18013">
        <ele>712</ele>
        <time>2015-04-26T09:08:28.000Z</time>
      </trkpt>
      <trkpt lat="47.0592" lon="6.18013">
        <ele>712</ele>
        <time>2015-04-26T09:08:30.000Z</time>
      </trkpt>
      <trkpt lat="47.0592" lon="6.18013">
        <ele>712</ele>
        <time>2015-04-26T09:08:32.000Z</time>
      </trkpt>
      <trkpt lat="47.0592" lon="6.18013">
        <ele>712</ele>
        <time>2015-04-26T09:08:34.000Z</time>
      </trkpt>
      <trkpt lat="47.0592" lon="6.18013">
        <ele>712</ele>
        <time>2015-04-26T09:08:36.000Z</time>
      </trkpt>
      <trkpt lat="47.0592" lon="6.18013">
        <ele>712</ele>
        <time>2015-04-26T09:08:38.000Z</time>
      </trkpt>
      <trkpt lat="47.0592" lon="6.18013">
        <ele>712</ele>
        <time>2015-04-26T09:08:40.000Z</time>
      </trkpt>
      <trkpt lat="47.0592" lon="6.18013">
        <ele>712</ele>
        <time>2015-04-26T09:08:42.000Z</time>
      </trkpt>
      <trkpt lat="47.0592" lon="6.18013">
        <ele>712</ele>
        <time>2015-04-26T09:08:44.000Z</time>
      </trkpt>
      <trkpt lat="47.0592" lon="6.18013">
        <ele>712</ele>
        <time>2015-04-26T09:08:50.000Z</time>
      </trkpt>
      <trkpt lat="47.0592" lon="6.18013">
        <ele>712</ele>
        <time>2015-04-26T09:08:52.000Z</time>
      </trkpt>
      <trkpt lat="47.0592" lon="6.18013">
        <ele>712</ele>
        <time>2015-04-26T09:08:54.000Z</time>
      </trkpt>
      <trkpt lat="47.0592" lon="6.18013">
        <ele>712</ele>
        <time>2015-04-26T09:08:56.000Z</time>
      </trkpt>
      <trkpt lat="47.0592" lon="6.18013">
        <ele>712</ele>
        <time>2015-04-26T09:08:58.000Z</time>
      </trkpt>
      <trkpt lat="47.0592" lon="6.18013">
        <ele>712</ele>
        <time>2015-04-26T09:09:00.000Z</time>
      </trkpt>
      <trkpt lat="47.0593" lon="6.17967">
        <ele>713</ele>
        <time>2015-04-26T09:09:04.000Z</time>
      </trkpt>
      <trkpt lat="47.05938" lon="6.17945">
        <ele>711</ele>
        <time>2015-04-26T09:09:06.000Z</time>
      </trkpt>
      <trkpt lat="47.05946" lon="6.17934">
        <ele>710</ele>
        <time>2015-04-26T09:09:08.000Z</time>
      </trkpt>
      <trkpt lat="47.05954" lon="6.1793">
        <ele>712</ele>
        <time>2015-04-26T09:09:10.000Z</time>
      </trkpt>
      <trkpt lat="47.05963" lon="6.17928">
        <ele>709</ele>
        <time>2015-04-26T09:09:12.000Z</time>
      </trkpt>
      <trkpt lat="47.05982" lon="6.17929">
        <ele>710</ele>
        <time>2015-04-26T09:09:14.000Z</time>
      </trkpt>
      <trkpt lat="47.05992" lon="6.17935">
        <ele>713</ele>
        <time>2015-04-26T09:09:16.000Z</time>
      </trkpt>
      <trkpt lat="47.06008" lon="6.17943">
        <ele>711</ele>
        <time>2015-04-26T09:09:20.000Z</time>
      </trkpt>
      <trkpt lat="47.06017" lon="6.17947">
        <ele>711</ele>
        <time>2015-04-26T09:09:22.000Z</time>
      </trkpt>
      <trkpt lat="47.06017" lon="6.17947">
        <ele>711</ele>
        <time>2015-04-26T09:09:24.000Z</time>
      </trkpt>
      <trkpt lat="47.06032" lon="6.17956">
        <ele>711</ele>
        <time>2015-04-26T09:09:26.000Z</time>
      </trkpt>
      <trkpt lat="47.06032" lon="6.17956">
        <ele>711</ele>
        <time>2015-04-26T09:09:28.000Z</time>
      </trkpt>
      <trkpt lat="47.06032" lon="6.17956">
        <ele>711</ele>
        <time>2015-04-26T09:09:30.000Z</time>
      </trkpt>
      <trkpt lat="47.06032" lon="6.17956">
        <ele>711</ele>
        <time>2015-04-26T09:09:32.000Z</time>
      </trkpt>
      <trkpt lat="47.06032" lon="6.17956">
        <ele>711</ele>
        <time>2015-04-26T09:09:34.000Z</time>
      </trkpt>
      <trkpt lat="47.06032" lon="6.17956">
        <ele>711</ele>
        <time>2015-04-26T09:09:36.000Z</time>
      </trkpt>
      <trkpt lat="47.06032" lon="6.17956">
        <ele>711</ele>
        <time>2015-04-26T09:09:38.000Z</time>
      </trkpt>
      <trkpt lat="47.06032" lon="6.17956">
        <ele>711</ele>
        <time>2015-04-26T09:09:40.000Z</time>
      </trkpt>
      <trkpt lat="47.06032" lon="6.17956">
        <ele>711</ele>
        <time>2015-04-26T09:09:42.000Z</time>
      </trkpt>
      <trkpt lat="47.06032" lon="6.17956">
        <ele>711</ele>
        <time>2015-04-26T09:09:44.000Z</time>
      </trkpt>
      <trkpt lat="47.06032" lon="6.17956">
        <ele>711</ele>
        <time>2015-04-26T09:09:46.000Z</time>
      </trkpt>
      <trkpt lat="47.06032" lon="6.17956">
        <ele>711</ele>
        <time>2015-04-26T09:09:48.000Z</time>
      </trkpt>
      <trkpt lat="47.06032" lon="6.17956">
        <ele>711</ele>
        <time>2015-04-26T09:09:50.000Z</time>
      </trkpt>
      <trkpt lat="47.06032" lon="6.17956">
        <ele>711</ele>
        <time>2015-04-26T09:09:52.000Z</time>
      </trkpt>
      <trkpt lat="47.06032" lon="6.17956">
        <ele>711</ele>
        <time>2015-04-26T09:09:58.000Z</time>
      </trkpt>
      <trkpt lat="47.06032" lon="6.17956">
        <ele>711</ele>
        <time>2015-04-26T09:10:00.000Z</time>
      </trkpt>
      <trkpt lat="47.06032" lon="6.17956">
        <ele>711</ele>
        <time>2015-04-26T09:10:02.000Z</time>
      </trkpt>
      <trkpt lat="47.06164" lon="6.17981">
        <ele>697</ele>
        <time>2015-04-26T09:10:06.000Z</time>
      </trkpt>
      <trkpt lat="47.06179" lon="6.17977">
        <ele>696</ele>
        <time>2015-04-26T09:10:10.000Z</time>
      </trkpt>
      <trkpt lat="47.06179" lon="6.17977">
        <ele>696</ele>
        <time>2015-04-26T09:10:12.000Z</time>
      </trkpt>
      <trkpt lat="47.06179" lon="6.17977">
        <ele>696</ele>
        <time>2015-04-26T09:10:14.000Z</time>
      </trkpt>
      <trkpt lat="47.06211" lon="6.17957">
        <ele>694</ele>
        <time>2015-04-26T09:10:18.000Z</time>
      </trkpt>
      <trkpt lat="47.06226" lon="6.17944">
        <ele>693</ele>
        <time>2015-04-26T09:10:22.000Z</time>
      </trkpt>
      <trkpt lat="47.06235" lon="6.1794">
        <ele>689</ele>
        <time>2015-04-26T09:10:24.000Z</time>
      </trkpt>
      <trkpt lat="47.06253" lon="6.17933">
        <ele>688</ele>
        <time>2015-04-26T09:10:28.000Z</time>
      </trkpt>
      <trkpt lat="47.06262" lon="6.17927">
        <ele>691</ele>
        <time>2015-04-26T09:10:30.000Z</time>
      </trkpt>
      <trkpt lat="47.06271" lon="6.17921">
        <ele>688</ele>
        <time>2015-04-26T09:10:32.000Z</time>
      </trkpt>
      <trkpt lat="47.0628" lon="6.17916">
        <ele>692</ele>
        <time>2015-04-26T09:10:34.000Z</time>
      </trkpt>
      <trkpt lat="47.06296" lon="6.17909">
        <ele>689</ele>
        <time>2015-04-26T09:10:38.000Z</time>
      </trkpt>
      <trkpt lat="47.06307" lon="6.17904">
        <ele>691</ele>
        <time>2015-04-26T09:10:40.000Z</time>
      </trkpt>
      <trkpt lat="47.06319" lon="6.179">
        <ele>690</ele>
        <time>2015-04-26T09:10:42.000Z</time>
      </trkpt>
      <trkpt lat="47.06329" lon="6.17893">
        <ele>690</ele>
        <time>2015-04-26T09:10:44.000Z</time>
      </trkpt>
      <trkpt lat="47.0634" lon="6.17887">
        <ele>696</ele>
        <time>2015-04-26T09:10:46.000Z</time>
      </trkpt>
      <trkpt lat="47.0635" lon="6.17882">
        <ele>695</ele>
        <time>2015-04-26T09:10:48.000Z</time>
      </trkpt>
      <trkpt lat="47.06359" lon="6.17876">
        <ele>697</ele>
        <time>2015-04-26T09:10:50.000Z</time>
      </trkpt>
      <trkpt lat="47.06375" lon="6.17868">
        <ele>698</ele>
        <time>2015-04-26T09:10:54.000Z</time>
      </trkpt>
      <trkpt lat="47.06382" lon="6.17868">
        <ele>698</ele>
        <time>2015-04-26T09:10:58.000Z</time>
      </trkpt>
      <trkpt lat="47.06382" lon="6.17868">
        <ele>698</ele>
        <time>2015-04-26T09:11:00.000Z</time>
      </trkpt>
      <trkpt lat="47.06382" lon="6.17868">
        <ele>698</ele>
        <time>2015-04-26T09:11:02.000Z</time>
      </trkpt>
      <trkpt lat="47.06382" lon="6.17868">
        <ele>698</ele>
        <time>2015-04-26T09:11:04.000Z</time>
      </trkpt>
      <trkpt lat="47.06382" lon="6.17868">
        <ele>698</ele>
        <time>2015-04-26T09:11:06.000Z</time>
      </trkpt>
      <trkpt lat="47.06382" lon="6.17868">
        <ele>698</ele>
        <time>2015-04-26T09:11:08.000Z</time>
      </trkpt>
      <trkpt lat="47.06382" lon="6.17868">
        <ele>698</ele>
        <time>2015-04-26T09:11:10.000Z</time>
      </trkpt>
      <trkpt lat="47.06382" lon="6.17868">
        <ele>698</ele>
        <time>2015-04-26T09:11:12.000Z</time>
      </trkpt>
      <trkpt lat="47.06382" lon="6.17868">
        <ele>698</ele>
        <time>2015-04-26T09:11:14.000Z</time>
      </trkpt>
      <trkpt lat="47.06433" lon="6.17859">
        <ele>688</ele>
        <time>2015-04-26T09:11:18.000Z</time>
      </trkpt>
      <trkpt lat="47.06463" lon="6.17851">
        <ele>686</ele>
        <time>2015-04-26T09:11:20.000Z</time>
      </trkpt>
      <trkpt lat="47.06483" lon="6.17845">
        <ele>687</ele>
        <time>2015-04-26T09:11:22.000Z</time>
      </trkpt>
      <trkpt lat="47.06497" lon="6.17837">
        <ele>689</ele>
        <time>2015-04-26T09:11:24.000Z</time>
      </trkpt>
      <trkpt lat="47.06508" lon="6.17828">
        <ele>691</ele>
        <time>2015-04-26T09:11:26.000Z</time>
      </trkpt>
      <trkpt lat="47.06529" lon="6.17808">
        <ele>691</ele>
        <time>2015-04-26T09:11:28.000Z</time>
      </trkpt>
      <trkpt lat="47.06538" lon="6.17798">
        <ele>693</ele>
        <time>2015-04-26T09:11:30.000Z</time>
      </trkpt>
      <trkpt lat="47.06546" lon="6.17792">
        <ele>692</ele>
        <time>2015-04-26T09:11:32.000Z</time>
      </trkpt>
      <trkpt lat="47.06546" lon="6.17792">
        <ele>692</ele>
        <time>2015-04-26T09:11:38.000Z</time>
      </trkpt>
      <trkpt lat="47.06617" lon="6.17761">
        <ele>681</ele>
        <time>2015-04-26T09:12:14.000Z</time>
      </trkpt>
      <trkpt lat="47.06635" lon="6.17754">
        <ele>685</ele>
        <time>2015-04-26T09:12:18.000Z</time>
      </trkpt>
      <trkpt lat="47.06644" lon="6.17749">
        <ele>686</ele>
        <time>2015-04-26T09:12:20.000Z</time>
      </trkpt>
      <trkpt lat="47.06655" lon="6.17744">
        <ele>692</ele>
        <time>2015-04-26T09:12:22.000Z</time>
      </trkpt>
      <trkpt lat="47.06667" lon="6.17739">
        <ele>690</ele>
        <time>2015-04-26T09:12:24.000Z</time>
      </trkpt>
      <trkpt lat="47.0668" lon="6.17733">
        <ele>686</ele>
        <time>2015-04-26T09:12:26.000Z</time>
      </trkpt>
      <trkpt lat="47.06691" lon="6.17729">
        <ele>688</ele>
        <time>2015-04-26T09:12:28.000Z</time>
      </trkpt>
      <trkpt lat="47.067" lon="6.17727">
        <ele>686</ele>
        <time>2015-04-26T09:12:30.000Z</time>
      </trkpt>
      <trkpt lat="47.06709" lon="6.17728">
        <ele>686</ele>
        <time>2015-04-26T09:12:32.000Z</time>
      </trkpt>
      <trkpt lat="47.06731" lon="6.17729">
        <ele>687</ele>
        <time>2015-04-26T09:12:36.000Z</time>
      </trkpt>
      <trkpt lat="47.06742" lon="6.17729">
        <ele>689</ele>
        <time>2015-04-26T09:12:38.000Z</time>
      </trkpt>
      <trkpt lat="47.06752" lon="6.17728">
        <ele>686</ele>
        <time>2015-04-26T09:12:40.000Z</time>
      </trkpt>
      <trkpt lat="47.06752" lon="6.17728">
        <ele>686</ele>
        <time>2015-04-26T09:12:42.000Z</time>
      </trkpt>
      <trkpt lat="47.06752" lon="6.17728">
        <ele>686</ele>
        <time>2015-04-26T09:12:44.000Z</time>
      </trkpt>
      <trkpt lat="47.06752" lon="6.17728">
        <ele>686</ele>
        <time>2015-04-26T09:12:46.000Z</time>
      </trkpt>
      <trkpt lat="47.06752" lon="6.17728">
        <ele>686</ele>
        <time>2015-04-26T09:12:48.000Z</time>
      </trkpt>
      <trkpt lat="47.06815" lon="6.17713">
        <ele>679</ele>
        <time>2015-04-26T09:12:54.000Z</time>
      </trkpt>
      <trkpt lat="47.06827" lon="6.17715">
        <ele>676</ele>
        <time>2015-04-26T09:12:56.000Z</time>
      </trkpt>
      <trkpt lat="47.06843" lon="6.17717">
        <ele>676</ele>
        <time>2015-04-26T09:12:58.000Z</time>
      </trkpt>
      <trkpt lat="47.0686" lon="6.1772">
        <ele>677</ele>
        <time>2015-04-26T09:13:00.000Z</time>
      </trkpt>
      <trkpt lat="47.06877" lon="6.17722">
        <ele>673</ele>
        <time>2015-04-26T09:13:02.000Z</time>
      </trkpt>
      <trkpt lat="47.06894" lon="6.17724">
        <ele>673</ele>
        <time>2015-04-26T09:13:04.000Z</time>
      </trkpt>
      <trkpt lat="47.06913" lon="6.17726">
        <ele>674</ele>
        <time>2015-04-26T09:13:06.000Z</time>
      </trkpt>
      <trkpt lat="47.06934" lon="6.17727">
        <ele>672</ele>
        <time>2015-04-26T09:13:08.000Z</time>
      </trkpt>
      <trkpt lat="47.06951" lon="6.17732">
        <ele>669</ele>
        <time>2015-04-26T09:13:10.000Z</time>
      </trkpt>
      <trkpt lat="47.06951" lon="6.17732">
        <ele>669</ele>
        <time>2015-04-26T09:13:20.000Z</time>
      </trkpt>
      <trkpt lat="47.06982" lon="6.17733">
        <ele>674</ele>
        <time>2015-04-26T09:13:23.000Z</time>
      </trkpt>
      <trkpt lat="47.0699" lon="6.17722">
        <ele>664</ele>
        <time>2015-04-26T09:13:27.000Z</time>
      </trkpt>
      <trkpt lat="47.06983" lon="6.1771">
        <ele>668</ele>
        <time>2015-04-26T09:13:32.000Z</time>
      </trkpt>
      <trkpt lat="47.06974" lon="6.17708">
        <ele>665</ele>
        <time>2015-04-26T09:13:35.000Z</time>
      </trkpt>
      <trkpt lat="47.06965" lon="6.177">
        <ele>668</ele>
        <time>2015-04-26T09:13:43.000Z</time>
      </trkpt>
      <trkpt lat="47.06964" lon="6.17687">
        <ele>663</ele>
        <time>2015-04-26T09:13:47.000Z</time>
      </trkpt>
      <trkpt lat="47.06964" lon="6.17672">
        <ele>658</ele>
        <time>2015-04-26T09:13:53.000Z</time>
      </trkpt>
      <trkpt lat="47.06973" lon="6.17665">
        <ele>648</ele>
        <time>2015-04-26T09:14:00.000Z</time>
      </trkpt>
      <trkpt lat="47.06981" lon="6.17659">
        <ele>650</ele>
        <time>2015-04-26T09:14:15.000Z</time>
      </trkpt>
      <trkpt lat="47.06988" lon="6.17649">
        <ele>650</ele>
        <time>2015-04-26T09:14:30.000Z</time>
      </trkpt>
      <trkpt lat="47.06997" lon="6.17641">
        <ele>652</ele>
        <time>2015-04-26T09:14:34.000Z</time>
      </trkpt>
      <trkpt lat="47.07002" lon="6.1763">
        <ele>650</ele>
        <time>2015-04-26T09:14:37.000Z</time>
      </trkpt>
      <trkpt lat="47.07006" lon="6.17618">
        <ele>643</ele>
        <time>2015-04-26T09:14:40.000Z</time>
      </trkpt>
      <trkpt lat="47.07006" lon="6.17618">
        <ele>643</ele>
        <time>2015-04-26T09:14:44.000Z</time>
      </trkpt>
      <trkpt lat="47.07006" lon="6.17618">
        <ele>643</ele>
        <time>2015-04-26T09:14:47.000Z</time>
      </trkpt>
      <trkpt lat="47.07008" lon="6.17598">
        <ele>640</ele>
        <time>2015-04-26T09:14:53.000Z</time>
      </trkpt>
      <trkpt lat="47.07011" lon="6.17582">
        <ele>642</ele>
        <time>2015-04-26T09:14:59.000Z</time>
      </trkpt>
      <trkpt lat="47.07013" lon="6.17567">
        <ele>627</ele>
        <time>2015-04-26T09:15:05.000Z</time>
      </trkpt>
      <trkpt lat="47.07015" lon="6.17552">
        <ele>623</ele>
        <time>2015-04-26T09:15:10.000Z</time>
      </trkpt>
      <trkpt lat="47.07018" lon="6.17538">
        <ele>627</ele>
        <time>2015-04-26T09:15:16.000Z</time>
      </trkpt>
      <trkpt lat="47.0702" lon="6.17509">
        <ele>623</ele>
        <time>2015-04-26T09:15:23.000Z</time>
      </trkpt>
      <trkpt lat="47.0702" lon="6.17509">
        <ele>623</ele>
        <time>2015-04-26T09:15:27.000Z</time>
      </trkpt>
      <trkpt lat="47.07023" lon="6.17486">
        <ele>610</ele>
        <time>2015-04-26T09:15:29.000Z</time>
      </trkpt>
      <trkpt lat="47.07023" lon="6.17486">
        <ele>610</ele>
        <time>2015-04-26T09:15:31.000Z</time>
      </trkpt>
      <trkpt lat="47.07023" lon="6.17486">
        <ele>610</ele>
        <time>2015-04-26T09:15:33.000Z</time>
      </trkpt>
      <trkpt lat="47.07023" lon="6.17486">
        <ele>610</ele>
        <time>2015-04-26T09:15:35.000Z</time>
      </trkpt>
      <trkpt lat="47.07023" lon="6.17486">
        <ele>610</ele>
        <time>2015-04-26T09:15:37.000Z</time>
      </trkpt>
      <trkpt lat="47.07023" lon="6.17486">
        <ele>610</ele>
        <time>2015-04-26T09:15:39.000Z</time>
      </trkpt>
      <trkpt lat="47.06997" lon="6.17423">
        <ele>603</ele>
        <time>2015-04-26T09:15:43.000Z</time>
      </trkpt>
      <trkpt lat="47.06991" lon="6.17412">
        <ele>603</ele>
        <time>2015-04-26T09:15:45.000Z</time>
      </trkpt>
      <trkpt lat="47.06991" lon="6.17412">
        <ele>603</ele>
        <time>2015-04-26T09:15:47.000Z</time>
      </trkpt>
      <trkpt lat="47.06991" lon="6.17412">
        <ele>603</ele>
        <time>2015-04-26T09:15:49.000Z</time>
      </trkpt>
      <trkpt lat="47.06991" lon="6.17412">
        <ele>603</ele>
        <time>2015-04-26T09:15:51.000Z</time>
      </trkpt>
      <trkpt lat="47.06991" lon="6.17412">
        <ele>603</ele>
        <time>2015-04-26T09:15:53.000Z</time>
      </trkpt>
      <trkpt lat="47.06991" lon="6.17412">
        <ele>603</ele>
        <time>2015-04-26T09:15:55.000Z</time>
      </trkpt>
      <trkpt lat="47.06991" lon="6.17412">
        <ele>603</ele>
        <time>2015-04-26T09:15:57.000Z</time>
      </trkpt>
      <trkpt lat="47.06932" lon="6.1736">
        <ele>602</ele>
        <time>2015-04-26T09:16:05.000Z</time>
      </trkpt>
      <trkpt lat="47.06916" lon="6.1735">
        <ele>600</ele>
        <time>2015-04-26T09:16:09.000Z</time>
      </trkpt>
      <trkpt lat="47.069" lon="6.17343">
        <ele>603</ele>
        <time>2015-04-26T09:16:13.000Z</time>
      </trkpt>
      <trkpt lat="47.06883" lon="6.17337">
        <ele>605</ele>
        <time>2015-04-26T09:16:17.000Z</time>
      </trkpt>
      <trkpt lat="47.06874" lon="6.17333">
        <ele>608</ele>
        <time>2015-04-26T09:16:19.000Z</time>
      </trkpt>
      <trkpt lat="47.06859" lon="6.1733">
        <ele>607</ele>
        <time>2015-04-26T09:16:23.000Z</time>
      </trkpt>
      <trkpt lat="47.06859" lon="6.1733">
        <ele>607</ele>
        <time>2015-04-26T09:16:25.000Z</time>
      </trkpt>
      <trkpt lat="47.06843" lon="6.17327">
        <ele>610</ele>
        <time>2015-04-26T09:16:27.000Z</time>
      </trkpt>
      <trkpt lat="47.06827" lon="6.17323">
        <ele>603</ele>
        <time>2015-04-26T09:16:31.000Z</time>
      </trkpt>
      <trkpt lat="47.06809" lon="6.17322">
        <ele>601</ele>
        <time>2015-04-26T09:16:35.000Z</time>
      </trkpt>
      <trkpt lat="47.06799" lon="6.17322">
        <ele>603</ele>
        <time>2015-04-26T09:16:37.000Z</time>
      </trkpt>
      <trkpt lat="47.06789" lon="6.17324">
        <ele>601</ele>
        <time>2015-04-26T09:16:39.000Z</time>
      </trkpt>
      <trkpt lat="47.06789" lon="6.17324">
        <ele>601</ele>
        <time>2015-04-26T09:16:41.000Z</time>
      </trkpt>
      <trkpt lat="47.06789" lon="6.17324">
        <ele>601</ele>
        <time>2015-04-26T09:16:43.000Z</time>
      </trkpt>
      <trkpt lat="47.06789" lon="6.17324">
        <ele>601</ele>
        <time>2015-04-26T09:16:45.000Z</time>
      </trkpt>
      <trkpt lat="47.06789" lon="6.17324">
        <ele>601</ele>
        <time>2015-04-26T09:16:47.000Z</time>
      </trkpt>
      <trkpt lat="47.06789" lon="6.17324">
        <ele>601</ele>
        <time>2015-04-26T09:16:49.000Z</time>
      </trkpt>
      <trkpt lat="47.0673" lon="6.1733">
        <ele>609</ele>
        <time>2015-04-26T09:16:51.000Z</time>
      </trkpt>
      <trkpt lat="47.06718" lon="6.17329">
        <ele>608</ele>
        <time>2015-04-26T09:16:53.000Z</time>
      </trkpt>
      <trkpt lat="47.06707" lon="6.17329">
        <ele>605</ele>
        <time>2015-04-26T09:16:55.000Z</time>
      </trkpt>
      <trkpt lat="47.06707" lon="6.17329">
        <ele>605</ele>
        <time>2015-04-26T09:16:57.000Z</time>
      </trkpt>
      <trkpt lat="47.06707" lon="6.17329">
        <ele>605</ele>
        <time>2015-04-26T09:16:59.000Z</time>
      </trkpt>
      <trkpt lat="47.06707" lon="6.17329">
        <ele>605</ele>
        <time>2015-04-26T09:17:01.000Z</time>
      </trkpt>
      <trkpt lat="47.06707" lon="6.17329">
        <ele>605</ele>
        <time>2015-04-26T09:17:03.000Z</time>
      </trkpt>
      <trkpt lat="47.06707" lon="6.17329">
        <ele>605</ele>
        <time>2015-04-26T09:17:05.000Z</time>
      </trkpt>
      <trkpt lat="47.06689" lon="6.17305">
        <ele>590</ele>
        <time>2015-04-26T09:17:12.000Z</time>
      </trkpt>
      <trkpt lat="47.06675" lon="6.17288">
        <ele>590</ele>
        <time>2015-04-26T09:17:16.000Z</time>
      </trkpt>
      <trkpt lat="47.06665" lon="6.17278">
        <ele>588</ele>
        <time>2015-04-26T09:17:18.000Z</time>
      </trkpt>
      <trkpt lat="47.06657" lon="6.17271">
        <ele>585</ele>
        <time>2015-04-26T09:17:20.000Z</time>
      </trkpt>
      <trkpt lat="47.06649" lon="6.17265">
        <ele>585</ele>
        <time>2015-04-26T09:17:22.000Z</time>
      </trkpt>
      <trkpt lat="47.06635" lon="6.17252">
        <ele>584</ele>
        <time>2015-04-26T09:17:24.000Z</time>
      </trkpt>
      <trkpt lat="47.06619" lon="6.17245">
        <ele>580</ele>
        <time>2015-04-26T09:17:28.000Z</time>
      </trkpt>
      <trkpt lat="47.06619" lon="6.17245">
        <ele>580</ele>
        <time>2015-04-26T09:17:30.000Z</time>
      </trkpt>
      <trkpt lat="47.06604" lon="6.17239">
        <ele>573</ele>
        <time>2015-04-26T09:17:32.000Z</time>
      </trkpt>
      <trkpt lat="47.06604" lon="6.17239">
        <ele>573</ele>
        <time>2015-04-26T09:17:34.000Z</time>
      </trkpt>
      <trkpt lat="47.06604" lon="6.17239">
        <ele>573</ele>
        <time>2015-04-26T09:17:36.000Z</time>
      </trkpt>
      <trkpt lat="47.06604" lon="6.17239">
        <ele>573</ele>
        <time>2015-04-26T09:17:38.000Z</time>
      </trkpt>
      <trkpt lat="47.06604" lon="6.17239">
        <ele>573</ele>
        <time>2015-04-26T09:17:40.000Z</time>
      </trkpt>
      <trkpt lat="47.06569" lon="6.17235">
        <ele>573</ele>
        <time>2015-04-26T09:17:44.000Z</time>
      </trkpt>
      <trkpt lat="47.06558" lon="6.1723">
        <ele>571</ele>
        <time>2015-04-26T09:17:51.000Z</time>
      </trkpt>
      <trkpt lat="47.06558" lon="6.1723">
        <ele>571</ele>
        <time>2015-04-26T09:17:58.000Z</time>
      </trkpt>
      <trkpt lat="47.06558" lon="6.1723">
        <ele>571</ele>
        <time>2015-04-26T09:18:00.000Z</time>
      </trkpt>
      <trkpt lat="47.06558" lon="6.1723">
        <ele>571</ele>
        <time>2015-04-26T09:18:02.000Z</time>
      </trkpt>
      <trkpt lat="47.06558" lon="6.1723">
        <ele>571</ele>
        <time>2015-04-26T09:18:04.000Z</time>
      </trkpt>
      <trkpt lat="47.06558" lon="6.1723">
        <ele>571</ele>
        <time>2015-04-26T09:18:06.000Z</time>
      </trkpt>
      <trkpt lat="47.06558" lon="6.1723">
        <ele>571</ele>
        <time>2015-04-26T09:18:08.000Z</time>
      </trkpt>
      <trkpt lat="47.06558" lon="6.1723">
        <ele>571</ele>
        <time>2015-04-26T09:18:10.000Z</time>
      </trkpt>
      <trkpt lat="47.06613" lon="6.17212">
        <ele>572</ele>
        <time>2015-04-26T09:18:12.000Z</time>
      </trkpt>
      <trkpt lat="47.06626" lon="6.17205">
        <ele>573</ele>
        <time>2015-04-26T09:18:15.000Z</time>
      </trkpt>
      <trkpt lat="47.06626" lon="6.17205">
        <ele>573</ele>
        <time>2015-04-26T09:18:17.000Z</time>
      </trkpt>
      <trkpt lat="47.06626" lon="6.17205">
        <ele>573</ele>
        <time>2015-04-26T09:18:19.000Z</time>
      </trkpt>
      <trkpt lat="47.06659" lon="6.17184">
        <ele>578</ele>
        <time>2015-04-26T09:18:23.000Z</time>
      </trkpt>
      <trkpt lat="47.06676" lon="6.17176">
        <ele>579</ele>
        <time>2015-04-26T09:18:27.000Z</time>
      </trkpt>
      <trkpt lat="47.06703" lon="6.17167">
        <ele>572</ele>
        <time>2015-04-26T09:18:32.000Z</time>
      </trkpt>
      <trkpt lat="47.06813" lon="6.17145">
        <ele>582</ele>
        <time>2015-04-26T09:18:45.000Z</time>
      </trkpt>
      <trkpt lat="47.06813" lon="6.17145">
        <ele>582</ele>
        <time>2015-04-26T09:18:50.000Z</time>
      </trkpt>
      <trkpt lat="47.06813" lon="6.17145">
        <ele>582</ele>
        <time>2015-04-26T09:18:52.000Z</time>
      </trkpt>
      <trkpt lat="47.06813" lon="6.17145">
        <ele>582</ele>
        <time>2015-04-26T09:18:54.000Z</time>
      </trkpt>
      <trkpt lat="47.06813" lon="6.17145">
        <ele>582</ele>
        <time>2015-04-26T09:18:56.000Z</time>
      </trkpt>
      <trkpt lat="47.06813" lon="6.17145">
        <ele>582</ele>
        <time>2015-04-26T09:18:58.000Z</time>
      </trkpt>
      <trkpt lat="47.06813" lon="6.17145">
        <ele>582</ele>
        <time>2015-04-26T09:19:00.000Z</time>
      </trkpt>
      <trkpt lat="47.06941" lon="6.17083">
        <ele>533</ele>
        <time>2015-04-26T09:19:06.000Z</time>
      </trkpt>
      <trkpt lat="47.06951" lon="6.17077">
        <ele>524</ele>
        <time>2015-04-26T09:19:08.000Z</time>
      </trkpt>
      <trkpt lat="47.06963" lon="6.17073">
        <ele>522</ele>
        <time>2015-04-26T09:19:10.000Z</time>
      </trkpt>
      <trkpt lat="47.06979" lon="6.17072">
        <ele>508</ele>
        <time>2015-04-26T09:19:12.000Z</time>
      </trkpt>
      <trkpt lat="47.06993" lon="6.1707">
        <ele>498</ele>
        <time>2015-04-26T09:19:14.000Z</time>
      </trkpt>
      <trkpt lat="47.07002" lon="6.17064">
        <ele>497</ele>
        <time>2015-04-26T09:19:16.000Z</time>
      </trkpt>
      <trkpt lat="47.07011" lon="6.17058">
        <ele>496</ele>
        <time>2015-04-26T09:19:18.000Z</time>
      </trkpt>
      <trkpt lat="47.07011" lon="6.17058">
        <ele>496</ele>
        <time>2015-04-26T09:19:20.000Z</time>
      </trkpt>
      <trkpt lat="47.07011" lon="6.17058">
        <ele>496</ele>
        <time>2015-04-26T09:19:22.000Z</time>
      </trkpt>
      <trkpt lat="47.07011" lon="6.17058">
        <ele>496</ele>
        <time>2015-04-26T09:19:24.000Z</time>
      </trkpt>
      <trkpt lat="47.07011" lon="6.17058">
        <ele>496</ele>
        <time>2015-04-26T09:19:26.000Z</time>
      </trkpt>
      <trkpt lat="47.07011" lon="6.17058">
        <ele>496</ele>
        <time>2015-04-26T09:19:28.000Z</time>
      </trkpt>
      <trkpt lat="47.07011" lon="6.17058">
        <ele>496</ele>
        <time>2015-04-26T09:19:30.000Z</time>
      </trkpt>
      <trkpt lat="47.07011" lon="6.17058">
        <ele>496</ele>
        <time>2015-04-26T09:19:32.000Z</time>
      </trkpt>
      <trkpt lat="47.07044" lon="6.17014">
        <ele>493</ele>
        <time>2015-04-26T09:19:36.000Z</time>
      </trkpt>
      <trkpt lat="47.07067" lon="6.16984">
        <ele>495</ele>
        <time>2015-04-26T09:19:38.000Z</time>
      </trkpt>
      <trkpt lat="47.07084" lon="6.16964">
        <ele>501</ele>
        <time>2015-04-26T09:19:40.000Z</time>
      </trkpt>
      <trkpt lat="47.07098" lon="6.16949">
        <ele>502</ele>
        <time>2015-04-26T09:19:42.000Z</time>
      </trkpt>
      <trkpt lat="47.07108" lon="6.16936">
        <ele>504</ele>
        <time>2015-04-26T09:19:44.000Z</time>
      </trkpt>
      <trkpt lat="47.07129" lon="6.16913">
        <ele>506</ele>
        <time>2015-04-26T09:19:46.000Z</time>
      </trkpt>
      <trkpt lat="47.07129" lon="6.16913">
        <ele>506</ele>
        <time>2015-04-26T09:19:48.000Z</time>
      </trkpt>
      <trkpt lat="47.07129" lon="6.16913">
        <ele>506</ele>
        <time>2015-04-26T09:19:50.000Z</time>
      </trkpt>
      <trkpt lat="47.07129" lon="6.16913">
        <ele>506</ele>
        <time>2015-04-26T09:19:52.000Z</time>
      </trkpt>
      <trkpt lat="47.07129" lon="6.16913">
        <ele>506</ele>
        <time>2015-04-26T09:19:54.000Z</time>
      </trkpt>
      <trkpt lat="47.07129" lon="6.16913">
        <ele>506</ele>
        <time>2015-04-26T09:19:56.000Z</time>
      </trkpt>
      <trkpt lat="47.07179" lon="6.16858">
        <ele>509</ele>
        <time>2015-04-26T09:20:00.000Z</time>
      </trkpt>
      <trkpt lat="47.07187" lon="6.16851">
        <ele>507</ele>
        <time>2015-04-26T09:20:02.000Z</time>
      </trkpt>
      <trkpt lat="47.072" lon="6.16837">
        <ele>506</ele>
        <time>2015-04-26T09:20:06.000Z</time>
      </trkpt>
      <trkpt lat="47.072" lon="6.16837">
        <ele>506</ele>
        <time>2015-04-26T09:20:08.000Z</time>
      </trkpt>
      <trkpt lat="47.072" lon="6.16837">
        <ele>506</ele>
        <time>2015-04-26T09:20:10.000Z</time>
      </trkpt>
      <trkpt lat="47.07225" lon="6.16816">
        <ele>502</ele>
        <time>2015-04-26T09:20:14.000Z</time>
      </trkpt>
      <trkpt lat="47.07237" lon="6.16811">
        <ele>507</ele>
        <time>2015-04-26T09:20:17.000Z</time>
      </trkpt>
      <trkpt lat="47.07249" lon="6.16806">
        <ele>505</ele>
        <time>2015-04-26T09:20:19.000Z</time>
      </trkpt>
      <trkpt lat="47.07249" lon="6.16806">
        <ele>505</ele>
        <time>2015-04-26T09:20:21.000Z</time>
      </trkpt>
      <trkpt lat="47.07249" lon="6.16806">
        <ele>505</ele>
        <time>2015-04-26T09:20:23.000Z</time>
      </trkpt>
      <trkpt lat="47.07249" lon="6.16806">
        <ele>505</ele>
        <time>2015-04-26T09:20:25.000Z</time>
      </trkpt>
      <trkpt lat="47.07249" lon="6.16806">
        <ele>505</ele>
        <time>2015-04-26T09:20:27.000Z</time>
      </trkpt>
      <trkpt lat="47.07249" lon="6.16806">
        <ele>505</ele>
        <time>2015-04-26T09:20:29.000Z</time>
      </trkpt>
      <trkpt lat="47.07249" lon="6.16806">
        <ele>505</ele>
        <time>2015-04-26T09:20:31.000Z</time>
      </trkpt>
      <trkpt lat="47.07249" lon="6.16806">
        <ele>505</ele>
        <time>2015-04-26T09:20:33.000Z</time>
      </trkpt>
      <trkpt lat="47.07249" lon="6.16806">
        <ele>505</ele>
        <time>2015-04-26T09:20:35.000Z</time>
      </trkpt>
      <trkpt lat="47.07249" lon="6.16806">
        <ele>505</ele>
        <time>2015-04-26T09:20:37.000Z</time>
      </trkpt>
      <trkpt lat="47.07249" lon="6.16806">
        <ele>505</ele>
        <time>2015-04-26T09:20:40.000Z</time>
      </trkpt>
      <trkpt lat="47.07363" lon="6.16773">
        <ele>491</ele>
        <time>2015-04-26T09:20:44.000Z</time>
      </trkpt>
      <trkpt lat="47.07363" lon="6.16773">
        <ele>491</ele>
        <time>2015-04-26T09:20:46.000Z</time>
      </trkpt>
      <trkpt lat="47.07363" lon="6.16773">
        <ele>491</ele>
        <time>2015-04-26T09:20:49.000Z</time>
      </trkpt>
      <trkpt lat="47.07363" lon="6.16773">
        <ele>491</ele>
        <time>2015-04-26T09:20:51.000Z</time>
      </trkpt>
      <trkpt lat="47.07363" lon="6.16773">
        <ele>491</ele>
        <time>2015-04-26T09:20:53.000Z</time>
      </trkpt>
      <trkpt lat="47.07363" lon="6.16773">
        <ele>491</ele>
        <time>2015-04-26T09:20:55.000Z</time>
      </trkpt>
      <trkpt lat="47.07363" lon="6.16773">
        <ele>491</ele>
        <time>2015-04-26T09:20:57.000Z</time>
      </trkpt>
      <trkpt lat="47.07363" lon="6.16773">
        <ele>491</ele>
        <time>2015-04-26T09:20:59.000Z</time>
      </trkpt>
      <trkpt lat="47.07448" lon="6.16764">
        <ele>471</ele>
        <time>2015-04-26T09:21:03.000Z</time>
      </trkpt>
      <trkpt lat="47.07459" lon="6.16758">
        <ele>472</ele>
        <time>2015-04-26T09:21:05.000Z</time>
      </trkpt>
      <trkpt lat="47.07473" lon="6.16753">
        <ele>467</ele>
        <time>2015-04-26T09:21:07.000Z</time>
      </trkpt>
      <trkpt lat="47.07489" lon="6.16747">
        <ele>465</ele>
        <time>2015-04-26T09:21:09.000Z</time>
      </trkpt>
      <trkpt lat="47.07502" lon="6.16743">
        <ele>464</ele>
        <time>2015-04-26T09:21:11.000Z</time>
      </trkpt>
      <trkpt lat="47.07513" lon="6.16739">
        <ele>464</ele>
        <time>2015-04-26T09:21:13.000Z</time>
      </trkpt>
      <trkpt lat="47.07523" lon="6.16736">
        <ele>462</ele>
        <time>2015-04-26T09:21:15.000Z</time>
      </trkpt>
      <trkpt lat="47.07523" lon="6.16736">
        <ele>462</ele>
        <time>2015-04-26T09:21:17.000Z</time>
      </trkpt>
      <trkpt lat="47.07523" lon="6.16736">
        <ele>462</ele>
        <time>2015-04-26T09:21:19.000Z</time>
      </trkpt>
      <trkpt lat="47.07523" lon="6.16736">
        <ele>462</ele>
        <time>2015-04-26T09:21:22.000Z</time>
      </trkpt>
      <trkpt lat="47.07523" lon="6.16736">
        <ele>462</ele>
        <time>2015-04-26T09:21:24.000Z</time>
      </trkpt>
      <trkpt lat="47.07523" lon="6.16736">
        <ele>462</ele>
        <time>2015-04-26T09:21:27.000Z</time>
      </trkpt>
      <trkpt lat="47.07523" lon="6.16736">
        <ele>462</ele>
        <time>2015-04-26T09:21:30.000Z</time>
      </trkpt>
      <trkpt lat="47.07523" lon="6.16736">
        <ele>462</ele>
        <time>2015-04-26T09:21:33.000Z</time>
      </trkpt>
      <trkpt lat="47.07567" lon="6.16732">
        <ele>472</ele>
        <time>2015-04-26T09:21:35.000Z</time>
      </trkpt>
      <trkpt lat="47.07596" lon="6.1673">
        <ele>472</ele>
        <time>2015-04-26T09:21:37.000Z</time>
      </trkpt>
      <trkpt lat="47.07617" lon="6.16727">
        <ele>470</ele>
        <time>2015-04-26T09:21:39.000Z</time>
      </trkpt>
      <trkpt lat="47.07634" lon="6.16725">
        <ele>474</ele>
        <time>2015-04-26T09:21:41.000Z</time>
      </trkpt>
      <trkpt lat="47.07649" lon="6.16724">
        <ele>471</ele>
        <time>2015-04-26T09:21:43.000Z</time>
      </trkpt>
      <trkpt lat="47.0768" lon="6.16729">
        <ele>473</ele>
        <time>2015-04-26T09:21:45.000Z</time>
      </trkpt>
      <trkpt lat="47.07696" lon="6.16737">
        <ele>469</ele>
        <time>2015-04-26T09:21:47.000Z</time>
      </trkpt>
      <trkpt lat="47.07713" lon="6.16742">
        <ele>466</ele>
        <time>2015-04-26T09:21:49.000Z</time>
      </trkpt>
      <trkpt lat="47.07732" lon="6.16745">
        <ele>458</ele>
        <time>2015-04-26T09:21:51.000Z</time>
      </trkpt>
      <trkpt lat="47.07748" lon="6.16743">
        <ele>461</ele>
        <time>2015-04-26T09:21:53.000Z</time>
      </trkpt>
      <trkpt lat="47.07766" lon="6.16735">
        <ele>464</ele>
        <time>2015-04-26T09:21:55.000Z</time>
      </trkpt>
      <trkpt lat="47.07782" lon="6.16726">
        <ele>465</ele>
        <time>2015-04-26T09:21:57.000Z</time>
      </trkpt>
      <trkpt lat="47.07797" lon="6.16718">
        <ele>463</ele>
        <time>2015-04-26T09:21:59.000Z</time>
      </trkpt>
      <trkpt lat="47.07813" lon="6.16711">
        <ele>462</ele>
        <time>2015-04-26T09:22:01.000Z</time>
      </trkpt>
      <trkpt lat="47.07827" lon="6.16705">
        <ele>469</ele>
        <time>2015-04-26T09:22:03.000Z</time>
      </trkpt>
      <trkpt lat="47.07842" lon="6.16701">
        <ele>465</ele>
        <time>2015-04-26T09:22:05.000Z</time>
      </trkpt>
      <trkpt lat="47.07858" lon="6.16694">
        <ele>469</ele>
        <time>2015-04-26T09:22:07.000Z</time>
      </trkpt>
      <trkpt lat="47.07873" lon="6.16688">
        <ele>465</ele>
        <time>2015-04-26T09:22:09.000Z</time>
      </trkpt>
      <trkpt lat="47.07889" lon="6.16684">
        <ele>467</ele>
        <time>2015-04-26T09:22:11.000Z</time>
      </trkpt>
      <trkpt lat="47.07905" lon="6.1668">
        <ele>463</ele>
        <time>2015-04-26T09:22:13.000Z</time>
      </trkpt>
      <trkpt lat="47.07922" lon="6.16677">
        <ele>466</ele>
        <time>2015-04-26T09:22:15.000Z</time>
      </trkpt>
      <trkpt lat="47.07943" lon="6.16671">
        <ele>465</ele>
        <time>2015-04-26T09:22:17.000Z</time>
      </trkpt>
      <trkpt lat="47.07963" lon="6.16666">
        <ele>466</ele>
        <time>2015-04-26T09:22:19.000Z</time>
      </trkpt>
      <trkpt lat="47.0798" lon="6.16662">
        <ele>471</ele>
        <time>2015-04-26T09:22:21.000Z</time>
      </trkpt>
      <trkpt lat="47.07996" lon="6.16656">
        <ele>464</ele>
        <time>2015-04-26T09:22:23.000Z</time>
      </trkpt>
      <trkpt lat="47.08011" lon="6.16649">
        <ele>463</ele>
        <time>2015-04-26T09:22:25.000Z</time>
      </trkpt>
      <trkpt lat="47.08025" lon="6.16641">
        <ele>462</ele>
        <time>2015-04-26T09:22:27.000Z</time>
      </trkpt>
      <trkpt lat="47.08039" lon="6.16628">
        <ele>462</ele>
        <time>2015-04-26T09:22:29.000Z</time>
      </trkpt>
      <trkpt lat="47.08056" lon="6.16614">
        <ele>465</ele>
        <time>2015-04-26T09:22:31.000Z</time>
      </trkpt>
      <trkpt lat="47.08071" lon="6.16601">
        <ele>461</ele>
        <time>2015-04-26T09:22:33.000Z</time>
      </trkpt>
      <trkpt lat="47.08084" lon="6.1659">
        <ele>467</ele>
        <time>2015-04-26T09:22:35.000Z</time>
      </trkpt>
      <trkpt lat="47.08101" lon="6.1658">
        <ele>464</ele>
        <time>2015-04-26T09:22:37.000Z</time>
      </trkpt>
      <trkpt lat="47.08118" lon="6.16569">
        <ele>463</ele>
        <time>2015-04-26T09:22:39.000Z</time>
      </trkpt>
      <trkpt lat="47.08136" lon="6.16563">
        <ele>463</ele>
        <time>2015-04-26T09:22:41.000Z</time>
      </trkpt>
      <trkpt lat="47.08155" lon="6.16563">
        <ele>462</ele>
        <time>2015-04-26T09:22:43.000Z</time>
      </trkpt>
      <trkpt lat="47.08173" lon="6.16563">
        <ele>460</ele>
        <time>2015-04-26T09:22:45.000Z</time>
      </trkpt>
      <trkpt lat="47.08191" lon="6.16563">
        <ele>457</ele>
        <time>2015-04-26T09:22:47.000Z</time>
      </trkpt>
      <trkpt lat="47.08209" lon="6.16564">
        <ele>453</ele>
        <time>2015-04-26T09:22:49.000Z</time>
      </trkpt>
      <trkpt lat="47.08275" lon="6.16556">
        <ele>438</ele>
        <time>2015-04-26T09:22:54.000Z</time>
      </trkpt>
      <trkpt lat="47.0831" lon="6.16531">
        <ele>440</ele>
        <time>2015-04-26T09:22:58.000Z</time>
      </trkpt>
      <trkpt lat="47.08327" lon="6.16519">
        <ele>435</ele>
        <time>2015-04-26T09:23:00.000Z</time>
      </trkpt>
      <trkpt lat="47.08344" lon="6.16507">
        <ele>436</ele>
        <time>2015-04-26T09:23:02.000Z</time>
      </trkpt>
      <trkpt lat="47.08358" lon="6.16494">
        <ele>436</ele>
        <time>2015-04-26T09:23:04.000Z</time>
      </trkpt>
      <trkpt lat="47.08366" lon="6.1648">
        <ele>433</ele>
        <time>2015-04-26T09:23:06.000Z</time>
      </trkpt>
      <trkpt lat="47.08366" lon="6.1648">
        <ele>433</ele>
        <time>2015-04-26T09:23:08.000Z</time>
      </trkpt>
      <trkpt lat="47.08366" lon="6.1648">
        <ele>433</ele>
        <time>2015-04-26T09:23:10.000Z</time>
      </trkpt>
      <trkpt lat="47.08366" lon="6.1648">
        <ele>433</ele>
        <time>2015-04-26T09:23:12.000Z</time>
      </trkpt>
      <trkpt lat="47.08387" lon="6.16374">
        <ele>421</ele>
        <time>2015-04-26T09:23:18.000Z</time>
      </trkpt>
      <trkpt lat="47.084" lon="6.16372">
        <ele>420</ele>
        <time>2015-04-26T09:23:20.000Z</time>
      </trkpt>
      <trkpt lat="47.08414" lon="6.1637">
        <ele>420</ele>
        <time>2015-04-26T09:23:22.000Z</time>
      </trkpt>
      <trkpt lat="47.08426" lon="6.16372">
        <ele>421</ele>
        <time>2015-04-26T09:23:24.000Z</time>
      </trkpt>
      <trkpt lat="47.08438" lon="6.16373">
        <ele>419</ele>
        <time>2015-04-26T09:23:26.000Z</time>
      </trkpt>
      <trkpt lat="47.08451" lon="6.16371">
        <ele>422</ele>
        <time>2015-04-26T09:23:28.000Z</time>
      </trkpt>
      <trkpt lat="47.08462" lon="6.16372">
        <ele>420</ele>
        <time>2015-04-26T09:23:30.000Z</time>
      </trkpt>
      <trkpt lat="47.08473" lon="6.16372">
        <ele>418</ele>
        <time>2015-04-26T09:23:32.000Z</time>
      </trkpt>
      <trkpt lat="47.08485" lon="6.16372">
        <ele>418</ele>
        <time>2015-04-26T09:23:34.000Z</time>
      </trkpt>
      <trkpt lat="47.08498" lon="6.16371">
        <ele>416</ele>
        <time>2015-04-26T09:23:36.000Z</time>
      </trkpt>
      <trkpt lat="47.08511" lon="6.16365">
        <ele>416</ele>
        <time>2015-04-26T09:23:38.000Z</time>
      </trkpt>
      <trkpt lat="47.08522" lon="6.1636">
        <ele>409</ele>
        <time>2015-04-26T09:23:40.000Z</time>
      </trkpt>
      <trkpt lat="47.08522" lon="6.1636">
        <ele>409</ele>
        <time>2015-04-26T09:23:42.000Z</time>
      </trkpt>
      <trkpt lat="47.08522" lon="6.1636">
        <ele>409</ele>
        <time>2015-04-26T09:23:44.000Z</time>
      </trkpt>
      <trkpt lat="47.08554" lon="6.16324">
        <ele>411</ele>
        <time>2015-04-26T09:23:46.000Z</time>
      </trkpt>
      <trkpt lat="47.08566" lon="6.16315">
        <ele>411</ele>
        <time>2015-04-26T09:23:48.000Z</time>
      </trkpt>
      <trkpt lat="47.0858" lon="6.16311">
        <ele>414</ele>
        <time>2015-04-26T09:23:50.000Z</time>
      </trkpt>
      <trkpt lat="47.08595" lon="6.16314">
        <ele>416</ele>
        <time>2015-04-26T09:23:52.000Z</time>
      </trkpt>
      <trkpt lat="47.08609" lon="6.16319">
        <ele>413</ele>
        <time>2015-04-26T09:23:54.000Z</time>
      </trkpt>
      <trkpt lat="47.08622" lon="6.16325">
        <ele>415</ele>
        <time>2015-04-26T09:23:56.000Z</time>
      </trkpt>
      <trkpt lat="47.08635" lon="6.16331">
        <ele>413</ele>
        <time>2015-04-26T09:23:58.000Z</time>
      </trkpt>
      <trkpt lat="47.08649" lon="6.16338">
        <ele>413</ele>
        <time>2015-04-26T09:24:00.000Z</time>
      </trkpt>
      <trkpt lat="47.08663" lon="6.16347">
        <ele>413</ele>
        <time>2015-04-26T09:24:02.000Z</time>
      </trkpt>
      <trkpt lat="47.08677" lon="6.16355">
        <ele>409</ele>
        <time>2015-04-26T09:24:04.000Z</time>
      </trkpt>
      <trkpt lat="47.08691" lon="6.16358">
        <ele>405</ele>
        <time>2015-04-26T09:24:06.000Z</time>
      </trkpt>
      <trkpt lat="47.08705" lon="6.16356">
        <ele>402</ele>
        <time>2015-04-26T09:24:08.000Z</time>
      </trkpt>
      <trkpt lat="47.08718" lon="6.16353">
        <ele>400</ele>
        <time>2015-04-26T09:24:10.000Z</time>
      </trkpt>
      <trkpt lat="47.08731" lon="6.1635">
        <ele>400</ele>
        <time>2015-04-26T09:24:12.000Z</time>
      </trkpt>
      <trkpt lat="47.08744" lon="6.16345">
        <ele>401</ele>
        <time>2015-04-26T09:24:14.000Z</time>
      </trkpt>
      <trkpt lat="47.08757" lon="6.1634">
        <ele>401</ele>
        <time>2015-04-26T09:24:16.000Z</time>
      </trkpt>
      <trkpt lat="47.08769" lon="6.16337">
        <ele>400</ele>
        <time>2015-04-26T09:24:18.000Z</time>
      </trkpt>
      <trkpt lat="47.08781" lon="6.16339">
        <ele>400</ele>
        <time>2015-04-26T09:24:20.000Z</time>
      </trkpt>
      <trkpt lat="47.08793" lon="6.16341">
        <ele>401</ele>
        <time>2015-04-26T09:24:22.000Z</time>
      </trkpt>
      <trkpt lat="47.08804" lon="6.1634">
        <ele>400</ele>
        <time>2015-04-26T09:24:24.000Z</time>
      </trkpt>
      <trkpt lat="47.08815" lon="6.16339">
        <ele>398</ele>
        <time>2015-04-26T09:24:26.000Z</time>
      </trkpt>
      <trkpt lat="47.08828" lon="6.16337">
        <ele>398</ele>
        <time>2015-04-26T09:24:28.000Z</time>
      </trkpt>
      <trkpt lat="47.08841" lon="6.16336">
        <ele>396</ele>
        <time>2015-04-26T09:24:30.000Z</time>
      </trkpt>
      <trkpt lat="47.08852" lon="6.16336">
        <ele>397</ele>
        <time>2015-04-26T09:24:32.000Z</time>
      </trkpt>
      <trkpt lat="47.08865" lon="6.16339">
        <ele>397</ele>
        <time>2015-04-26T09:24:34.000Z</time>
      </trkpt>
      <trkpt lat="47.08878" lon="6.16342">
        <ele>398</ele>
        <time>2015-04-26T09:24:36.000Z</time>
      </trkpt>
      <trkpt lat="47.08891" lon="6.16345">
        <ele>401</ele>
        <time>2015-04-26T09:24:38.000Z</time>
      </trkpt>
      <trkpt lat="47.08902" lon="6.16347">
        <ele>398</ele>
        <time>2015-04-26T09:24:40.000Z</time>
      </trkpt>
      <trkpt lat="47.08913" lon="6.16349">
        <ele>396</ele>
        <time>2015-04-26T09:24:42.000Z</time>
      </trkpt>
      <trkpt lat="47.08925" lon="6.16352">
        <ele>401</ele>
        <time>2015-04-26T09:24:44.000Z</time>
      </trkpt>
      <trkpt lat="47.08938" lon="6.16354">
        <ele>398</ele>
        <time>2015-04-26T09:24:46.000Z</time>
      </trkpt>
      <trkpt lat="47.0895" lon="6.16356">
        <ele>398</ele>
        <time>2015-04-26T09:24:48.000Z</time>
      </trkpt>
      <trkpt lat="47.08965" lon="6.16358">
        <ele>396</ele>
        <time>2015-04-26T09:24:50.000Z</time>
      </trkpt>
      <trkpt lat="47.0898" lon="6.1636">
        <ele>401</ele>
        <time>2015-04-26T09:24:52.000Z</time>
      </trkpt>
      <trkpt lat="47.08996" lon="6.1636">
        <ele>399</ele>
        <time>2015-04-26T09:24:54.000Z</time>
      </trkpt>
      <trkpt lat="47.09012" lon="6.16362">
        <ele>400</ele>
        <time>2015-04-26T09:24:56.000Z</time>
      </trkpt>
      <trkpt lat="47.09024" lon="6.16365">
        <ele>394</ele>
        <time>2015-04-26T09:24:58.000Z</time>
      </trkpt>
      <trkpt lat="47.09036" lon="6.1637">
        <ele>398</ele>
        <time>2015-04-26T09:25:00.000Z</time>
      </trkpt>
      <trkpt lat="47.09047" lon="6.16376">
        <ele>397</ele>
        <time>2015-04-26T09:25:02.000Z</time>
      </trkpt>
      <trkpt lat="47.09058" lon="6.16382">
        <ele>398</ele>
        <time>2015-04-26T09:25:04.000Z</time>
      </trkpt>
      <trkpt lat="47.09068" lon="6.16388">
        <ele>399</ele>
        <time>2015-04-26T09:25:06.000Z</time>
      </trkpt>
      <trkpt lat="47.09068" lon="6.16388">
        <ele>399</ele>
        <time>2015-04-26T09:25:09.000Z</time>
      </trkpt>
      <trkpt lat="47.09104" lon="6.164">
        <ele>400</ele>
        <time>2015-04-26T09:25:11.000Z</time>
      </trkpt>
      <trkpt lat="47.09117" lon="6.16402">
        <ele>400</ele>
        <time>2015-04-26T09:25:13.000Z</time>
      </trkpt>
      <trkpt lat="47.0913" lon="6.16402">
        <ele>399</ele>
        <time>2015-04-26T09:25:15.000Z</time>
      </trkpt>
      <trkpt lat="47.09143" lon="6.16401">
        <ele>400</ele>
        <time>2015-04-26T09:25:17.000Z</time>
      </trkpt>
      <trkpt lat="47.09156" lon="6.16399">
        <ele>401</ele>
        <time>2015-04-26T09:25:19.000Z</time>
      </trkpt>
      <trkpt lat="47.09169" lon="6.16397">
        <ele>400</ele>
        <time>2015-04-26T09:25:21.000Z</time>
      </trkpt>
      <trkpt lat="47.09182" lon="6.16394">
        <ele>401</ele>
        <time>2015-04-26T09:25:23.000Z</time>
      </trkpt>
      <trkpt lat="47.09194" lon="6.1639">
        <ele>401</ele>
        <time>2015-04-26T09:25:25.000Z</time>
      </trkpt>
      <trkpt lat="47.09206" lon="6.16386">
        <ele>402</ele>
        <time>2015-04-26T09:25:27.000Z</time>
      </trkpt>
      <trkpt lat="47.09218" lon="6.1638">
        <ele>402</ele>
        <time>2015-04-26T09:25:29.000Z</time>
      </trkpt>
      <trkpt lat="47.09231" lon="6.16375">
        <ele>402</ele>
        <time>2015-04-26T09:25:31.000Z</time>
      </trkpt>
      <trkpt lat="47.09243" lon="6.16372">
        <ele>403</ele>
        <time>2015-04-26T09:25:33.000Z</time>
      </trkpt>
      <trkpt lat="47.09256" lon="6.16371">
        <ele>401</ele>
        <time>2015-04-26T09:25:35.000Z</time>
      </trkpt>
      <trkpt lat="47.09267" lon="6.16371">
        <ele>401</ele>
        <time>2015-04-26T09:25:37.000Z</time>
      </trkpt>
      <trkpt lat="47.09277" lon="6.1637">
        <ele>401</ele>
        <time>2015-04-26T09:25:39.000Z</time>
      </trkpt>
      <trkpt lat="47.09277" lon="6.1637">
        <ele>401</ele>
        <time>2015-04-26T09:25:41.000Z</time>
      </trkpt>
      <trkpt lat="47.09277" lon="6.1637">
        <ele>401</ele>
        <time>2015-04-26T09:25:43.000Z</time>
      </trkpt>
      <trkpt lat="47.09277" lon="6.1637">
        <ele>401</ele>
        <time>2015-04-26T09:25:45.000Z</time>
      </trkpt>
      <trkpt lat="47.09277" lon="6.1637">
        <ele>401</ele>
        <time>2015-04-26T09:25:47.000Z</time>
      </trkpt>
      <trkpt lat="47.09342" lon="6.16382">
        <ele>402</ele>
        <time>2015-04-26T09:25:53.000Z</time>
      </trkpt>
      <trkpt lat="47.09355" lon="6.1638">
        <ele>401</ele>
        <time>2015-04-26T09:25:55.000Z</time>
      </trkpt>
      <trkpt lat="47.09367" lon="6.16372">
        <ele>400</ele>
        <time>2015-04-26T09:25:57.000Z</time>
      </trkpt>
      <trkpt lat="47.09378" lon="6.16362">
        <ele>402</ele>
        <time>2015-04-26T09:25:59.000Z</time>
      </trkpt>
      <trkpt lat="47.09389" lon="6.16351">
        <ele>402</ele>
        <time>2015-04-26T09:26:01.000Z</time>
      </trkpt>
      <trkpt lat="47.094" lon="6.16338">
        <ele>401</ele>
        <time>2015-04-26T09:26:03.000Z</time>
      </trkpt>
      <trkpt lat="47.09412" lon="6.16326">
        <ele>401</ele>
        <time>2015-04-26T09:26:05.000Z</time>
      </trkpt>
      <trkpt lat="47.09424" lon="6.16313">
        <ele>400</ele>
        <time>2015-04-26T09:26:07.000Z</time>
      </trkpt>
      <trkpt lat="47.09438" lon="6.16301">
        <ele>399</ele>
        <time>2015-04-26T09:26:09.000Z</time>
      </trkpt>
      <trkpt lat="47.09452" lon="6.16291">
        <ele>399</ele>
        <time>2015-04-26T09:26:11.000Z</time>
      </trkpt>
      <trkpt lat="47.09465" lon="6.16282">
        <ele>399</ele>
        <time>2015-04-26T09:26:13.000Z</time>
      </trkpt>
      <trkpt lat="47.09479" lon="6.16275">
        <ele>398</ele>
        <time>2015-04-26T09:26:15.000Z</time>
      </trkpt>
      <trkpt lat="47.09493" lon="6.16268">
        <ele>397</ele>
        <time>2015-04-26T09:26:17.000Z</time>
      </trkpt>
      <trkpt lat="47.09507" lon="6.16262">
        <ele>398</ele>
        <time>2015-04-26T09:26:19.000Z</time>
      </trkpt>
      <trkpt lat="47.0952" lon="6.16257">
        <ele>398</ele>
        <time>2015-04-26T09:26:21.000Z</time>
      </trkpt>
      <trkpt lat="47.09534" lon="6.16252">
        <ele>397</ele>
        <time>2015-04-26T09:26:23.000Z</time>
      </trkpt>
      <trkpt lat="47.09547" lon="6.16247">
        <ele>397</ele>
        <time>2015-04-26T09:26:25.000Z</time>
      </trkpt>
      <trkpt lat="47.09561" lon="6.16242">
        <ele>398</ele>
        <time>2015-04-26T09:26:27.000Z</time>
      </trkpt>
      <trkpt lat="47.09574" lon="6.16237">
        <ele>398</ele>
        <time>2015-04-26T09:26:29.000Z</time>
      </trkpt>
      <trkpt lat="47.09587" lon="6.16232">
        <ele>398</ele>
        <time>2015-04-26T09:26:31.000Z</time>
      </trkpt>
      <trkpt lat="47.096" lon="6.16227">
        <ele>399</ele>
        <time>2015-04-26T09:26:33.000Z</time>
      </trkpt>
      <trkpt lat="47.09613" lon="6.16222">
        <ele>399</ele>
        <time>2015-04-26T09:26:35.000Z</time>
      </trkpt>
      <trkpt lat="47.09626" lon="6.16218">
        <ele>399</ele>
        <time>2015-04-26T09:26:37.000Z</time>
      </trkpt>
      <trkpt lat="47.09639" lon="6.16215">
        <ele>399</ele>
        <time>2015-04-26T09:26:39.000Z</time>
      </trkpt>
      <trkpt lat="47.09652" lon="6.16213">
        <ele>399</ele>
        <time>2015-04-26T09:26:41.000Z</time>
      </trkpt>
      <trkpt lat="47.09664" lon="6.16211">
        <ele>398</ele>
        <time>2015-04-26T09:26:43.000Z</time>
      </trkpt>
      <trkpt lat="47.09677" lon="6.16209">
        <ele>398</ele>
        <time>2015-04-26T09:26:45.000Z</time>
      </trkpt>
      <trkpt lat="47.09689" lon="6.16205">
        <ele>398</ele>
        <time>2015-04-26T09:26:47.000Z</time>
      </trkpt>
      <trkpt lat="47.097" lon="6.16201">
        <ele>397</ele>
        <time>2015-04-26T09:26:49.000Z</time>
      </trkpt>
      <trkpt lat="47.09711" lon="6.16195">
        <ele>398</ele>
        <time>2015-04-26T09:26:51.000Z</time>
      </trkpt>
      <trkpt lat="47.09722" lon="6.16188">
        <ele>399</ele>
        <time>2015-04-26T09:26:53.000Z</time>
      </trkpt>
      <trkpt lat="47.09731" lon="6.16176">
        <ele>398</ele>
        <time>2015-04-26T09:26:55.000Z</time>
      </trkpt>
      <trkpt lat="47.09739" lon="6.16163">
        <ele>397</ele>
        <time>2015-04-26T09:26:57.000Z</time>
      </trkpt>
      <trkpt lat="47.09747" lon="6.16151">
        <ele>398</ele>
        <time>2015-04-26T09:26:59.000Z</time>
      </trkpt>
      <trkpt lat="47.09755" lon="6.16138">
        <ele>398</ele>
        <time>2015-04-26T09:27:01.000Z</time>
      </trkpt>
      <trkpt lat="47.09763" lon="6.16125">
        <ele>398</ele>
        <time>2015-04-26T09:27:03.000Z</time>
      </trkpt>
      <trkpt lat="47.09771" lon="6.16114">
        <ele>398</ele>
        <time>2015-04-26T09:27:05.000Z</time>
      </trkpt>
      <trkpt lat="47.09779" lon="6.16102">
        <ele>401</ele>
        <time>2015-04-26T09:27:07.000Z</time>
      </trkpt>
      <trkpt lat="47.09788" lon="6.1609">
        <ele>400</ele>
        <time>2015-04-26T09:27:09.000Z</time>
      </trkpt>
      <trkpt lat="47.09796" lon="6.16079">
        <ele>399</ele>
        <time>2015-04-26T09:27:11.000Z</time>
      </trkpt>
      <trkpt lat="47.09805" lon="6.16066">
        <ele>403</ele>
        <time>2015-04-26T09:27:13.000Z</time>
      </trkpt>
      <trkpt lat="47.09814" lon="6.16053">
        <ele>403</ele>
        <time>2015-04-26T09:27:15.000Z</time>
      </trkpt>
      <trkpt lat="47.09823" lon="6.1604">
        <ele>401</ele>
        <time>2015-04-26T09:27:17.000Z</time>
      </trkpt>
      <trkpt lat="47.09832" lon="6.16026">
        <ele>398</ele>
        <time>2015-04-26T09:27:19.000Z</time>
      </trkpt>
      <trkpt lat="47.0984" lon="6.16011">
        <ele>397</ele>
        <time>2015-04-26T09:27:21.000Z</time>
      </trkpt>
      <trkpt lat="47.09847" lon="6.15998">
        <ele>399</ele>
        <time>2015-04-26T09:27:23.000Z</time>
      </trkpt>
      <trkpt lat="47.09854" lon="6.15983">
        <ele>400</ele>
        <time>2015-04-26T09:27:25.000Z</time>
      </trkpt>
      <trkpt lat="47.09861" lon="6.15968">
        <ele>401</ele>
        <time>2015-04-26T09:27:27.000Z</time>
      </trkpt>
      <trkpt lat="47.09867" lon="6.15953">
        <ele>400</ele>
        <time>2015-04-26T09:27:29.000Z</time>
      </trkpt>
      <trkpt lat="47.09874" lon="6.15937">
        <ele>400</ele>
        <time>2015-04-26T09:27:31.000Z</time>
      </trkpt>
      <trkpt lat="47.0988" lon="6.15923">
        <ele>400</ele>
        <time>2015-04-26T09:27:33.000Z</time>
      </trkpt>
      <trkpt lat="47.09887" lon="6.15907">
        <ele>399</ele>
        <time>2015-04-26T09:27:35.000Z</time>
      </trkpt>
      <trkpt lat="47.09894" lon="6.15892">
        <ele>399</ele>
        <time>2015-04-26T09:27:37.000Z</time>
      </trkpt>
      <trkpt lat="47.099" lon="6.15876">
        <ele>398</ele>
        <time>2015-04-26T09:27:39.000Z</time>
      </trkpt>
      <trkpt lat="47.09907" lon="6.15861">
        <ele>398</ele>
        <time>2015-04-26T09:27:41.000Z</time>
      </trkpt>
      <trkpt lat="47.09914" lon="6.15848">
        <ele>398</ele>
        <time>2015-04-26T09:27:43.000Z</time>
      </trkpt>
      <trkpt lat="47.09923" lon="6.15846">
        <ele>397</ele>
        <time>2015-04-26T09:27:45.000Z</time>
      </trkpt>
      <trkpt lat="47.09923" lon="6.15846">
        <ele>397</ele>
        <time>2015-04-26T09:27:47.000Z</time>
      </trkpt>
      <trkpt lat="47.09923" lon="6.15846">
        <ele>397</ele>
        <time>2015-04-26T09:27:49.000Z</time>
      </trkpt>
      <trkpt lat="47.09953" lon="6.15885">
        <ele>393</ele>
        <time>2015-04-26T09:27:53.000Z</time>
      </trkpt>
      <trkpt lat="47.09963" lon="6.15891">
        <ele>393</ele>
        <time>2015-04-26T09:27:55.000Z</time>
      </trkpt>
      <trkpt lat="47.09974" lon="6.15898">
        <ele>393</ele>
        <time>2015-04-26T09:27:57.000Z</time>
      </trkpt>
      <trkpt lat="47.09984" lon="6.15904">
        <ele>393</ele>
        <time>2015-04-26T09:27:59.000Z</time>
      </trkpt>
      <trkpt lat="47.09996" lon="6.1591">
        <ele>392</ele>
        <time>2015-04-26T09:28:01.000Z</time>
      </trkpt>
      <trkpt lat="47.10008" lon="6.15916">
        <ele>392</ele>
        <time>2015-04-26T09:28:03.000Z</time>
      </trkpt>
      <trkpt lat="47.1002" lon="6.15925">
        <ele>392</ele>
        <time>2015-04-26T09:28:05.000Z</time>
      </trkpt>
      <trkpt lat="47.10031" lon="6.15941">
        <ele>393</ele>
        <time>2015-04-26T09:28:07.000Z</time>
      </trkpt>
      <trkpt lat="47.1004" lon="6.15958">
        <ele>394</ele>
        <time>2015-04-26T09:28:09.000Z</time>
      </trkpt>
      <trkpt lat="47.10049" lon="6.15977">
        <ele>395</ele>
        <time>2015-04-26T09:28:11.000Z</time>
      </trkpt>
      <trkpt lat="47.10057" lon="6.15994">
        <ele>394</ele>
        <time>2015-04-26T09:28:13.000Z</time>
      </trkpt>
      <trkpt lat="47.10065" lon="6.1601">
        <ele>397</ele>
        <time>2015-04-26T09:28:15.000Z</time>
      </trkpt>
      <trkpt lat="47.10073" lon="6.16024">
        <ele>393</ele>
        <time>2015-04-26T09:28:17.000Z</time>
      </trkpt>
      <trkpt lat="47.10079" lon="6.16035">
        <ele>390</ele>
        <time>2015-04-26T09:28:19.000Z</time>
      </trkpt>
      <trkpt lat="47.10079" lon="6.16035">
        <ele>390</ele>
        <time>2015-04-26T09:28:21.000Z</time>
      </trkpt>
      <trkpt lat="47.10079" lon="6.16035">
        <ele>390</ele>
        <time>2015-04-26T09:28:23.000Z</time>
      </trkpt>
      <trkpt lat="47.10079" lon="6.16035">
        <ele>390</ele>
        <time>2015-04-26T09:28:25.000Z</time>
      </trkpt>
      <trkpt lat="47.10095" lon="6.16024">
        <ele>394</ele>
        <time>2015-04-26T09:33:16.000Z</time>
      </trkpt>
      <trkpt lat="47.10095" lon="6.16024">
        <ele>394</ele>
        <time>2015-04-26T09:33:34.000Z</time>
      </trkpt>
      <trkpt lat="47.10105" lon="6.16015">
        <ele>390</ele>
        <time>2015-04-26T09:45:46.000Z</time>
      </trkpt>
      <trkpt lat="47.10112" lon="6.1601">
        <ele>390</ele>
        <time>2015-04-26T09:45:48.000Z</time>
      </trkpt>
      <trkpt lat="47.10117" lon="6.16007">
        <ele>389</ele>
        <time>2015-04-26T09:45:50.000Z</time>
      </trkpt>
      <trkpt lat="47.10123" lon="6.16005">
        <ele>388</ele>
        <time>2015-04-26T09:45:52.000Z</time>
      </trkpt>
      <trkpt lat="47.10129" lon="6.16003">
        <ele>389</ele>
        <time>2015-04-26T09:45:54.000Z</time>
      </trkpt>
      <trkpt lat="47.10142" lon="6.15999">
        <ele>391</ele>
        <time>2015-04-26T09:45:56.000Z</time>
      </trkpt>
      <trkpt lat="47.10157" lon="6.16001">
        <ele>390</ele>
        <time>2015-04-26T09:46:00.000Z</time>
      </trkpt>
      <trkpt lat="47.10171" lon="6.16002">
        <ele>388</ele>
        <time>2015-04-26T09:46:04.000Z</time>
      </trkpt>
      <trkpt lat="47.10188" lon="6.16007">
        <ele>385</ele>
        <time>2015-04-26T09:46:08.000Z</time>
      </trkpt>
      <trkpt lat="47.10204" lon="6.16014">
        <ele>387</ele>
        <time>2015-04-26T09:46:12.000Z</time>
      </trkpt>
      <trkpt lat="47.10216" lon="6.16025">
        <ele>391</ele>
        <time>2015-04-26T09:46:16.000Z</time>
      </trkpt>
      <trkpt lat="47.1023" lon="6.16036">
        <ele>393</ele>
        <time>2015-04-26T09:46:20.000Z</time>
      </trkpt>
      <trkpt lat="47.10245" lon="6.16047">
        <ele>394</ele>
        <time>2015-04-26T09:46:24.000Z</time>
      </trkpt>
      <trkpt lat="47.10259" lon="6.16059">
        <ele>393</ele>
        <time>2015-04-26T09:46:28.000Z</time>
      </trkpt>
      <trkpt lat="47.10275" lon="6.16063">
        <ele>389</ele>
        <time>2015-04-26T09:46:32.000Z</time>
      </trkpt>
      <trkpt lat="47.10291" lon="6.16057">
        <ele>388</ele>
        <time>2015-04-26T09:46:36.000Z</time>
      </trkpt>
      <trkpt lat="47.103" lon="6.1605">
        <ele>387</ele>
        <time>2015-04-26T09:46:38.000Z</time>
      </trkpt>
      <trkpt lat="47.10307" lon="6.16043">
        <ele>388</ele>
        <time>2015-04-26T09:46:40.000Z</time>
      </trkpt>
      <trkpt lat="47.1032" lon="6.16026">
        <ele>389</ele>
        <time>2015-04-26T09:46:44.000Z</time>
      </trkpt>
      <trkpt lat="47.1033" lon="6.16008">
        <ele>388</ele>
        <time>2015-04-26T09:46:48.000Z</time>
      </trkpt>
      <trkpt lat="47.10337" lon="6.15997">
        <ele>387</ele>
        <time>2015-04-26T09:46:50.000Z</time>
      </trkpt>
      <trkpt lat="47.10344" lon="6.15985">
        <ele>389</ele>
        <time>2015-04-26T09:46:52.000Z</time>
      </trkpt>
      <trkpt lat="47.1035" lon="6.15973">
        <ele>388</ele>
        <time>2015-04-26T09:46:54.000Z</time>
      </trkpt>
      <trkpt lat="47.10356" lon="6.15961">
        <ele>389</ele>
        <time>2015-04-26T09:46:56.000Z</time>
      </trkpt>
      <trkpt lat="47.10361" lon="6.15947">
        <ele>390</ele>
        <time>2015-04-26T09:46:58.000Z</time>
      </trkpt>
      <trkpt lat="47.10367" lon="6.15932">
        <ele>392</ele>
        <time>2015-04-26T09:47:00.000Z</time>
      </trkpt>
      <trkpt lat="47.10372" lon="6.15919">
        <ele>393</ele>
        <time>2015-04-26T09:47:02.000Z</time>
      </trkpt>
      <trkpt lat="47.10377" lon="6.15906">
        <ele>392</ele>
        <time>2015-04-26T09:47:04.000Z</time>
      </trkpt>
      <trkpt lat="47.10383" lon="6.15883">
        <ele>391</ele>
        <time>2015-04-26T09:47:08.000Z</time>
      </trkpt>
      <trkpt lat="47.10386" lon="6.1587">
        <ele>389</ele>
        <time>2015-04-26T09:47:10.000Z</time>
      </trkpt>
      <trkpt lat="47.10386" lon="6.1587">
        <ele>389</ele>
        <time>2015-04-26T09:47:12.000Z</time>
      </trkpt>
      <trkpt lat="47.10386" lon="6.1587">
        <ele>389</ele>
        <time>2015-04-26T09:47:14.000Z</time>
      </trkpt>
      <trkpt lat="47.10386" lon="6.1587">
        <ele>389</ele>
        <time>2015-04-26T09:47:16.000Z</time>
      </trkpt>
      <trkpt lat="47.10386" lon="6.1587">
        <ele>389</ele>
        <time>2015-04-26T09:47:18.000Z</time>
      </trkpt>
      <trkpt lat="47.10386" lon="6.1587">
        <ele>389</ele>
        <time>2015-04-26T09:47:20.000Z</time>
      </trkpt>
      <trkpt lat="47.10386" lon="6.1587">
        <ele>389</ele>
        <time>2015-04-26T09:47:22.000Z</time>
      </trkpt>
      <trkpt lat="47.10405" lon="6.15761">
        <ele>394</ele>
        <time>2015-04-26T09:47:26.000Z</time>
      </trkpt>
      <trkpt lat="47.10407" lon="6.15746">
        <ele>395</ele>
        <time>2015-04-26T09:47:28.000Z</time>
      </trkpt>
      <trkpt lat="47.10409" lon="6.15731">
        <ele>395</ele>
        <time>2015-04-26T09:47:30.000Z</time>
      </trkpt>
      <trkpt lat="47.10411" lon="6.15716">
        <ele>395</ele>
        <time>2015-04-26T09:47:32.000Z</time>
      </trkpt>
      <trkpt lat="47.10413" lon="6.15702">
        <ele>395</ele>
        <time>2015-04-26T09:47:34.000Z</time>
      </trkpt>
      <trkpt lat="47.10415" lon="6.15689">
        <ele>396</ele>
        <time>2015-04-26T09:47:36.000Z</time>
      </trkpt>
      <trkpt lat="47.10417" lon="6.15675">
        <ele>395</ele>
        <time>2015-04-26T09:47:38.000Z</time>
      </trkpt>
      <trkpt lat="47.1042" lon="6.15661">
        <ele>395</ele>
        <time>2015-04-26T09:47:40.000Z</time>
      </trkpt>
      <trkpt lat="47.10425" lon="6.1565">
        <ele>394</ele>
        <time>2015-04-26T09:47:42.000Z</time>
      </trkpt>
      <trkpt lat="47.10431" lon="6.15639">
        <ele>393</ele>
        <time>2015-04-26T09:47:44.000Z</time>
      </trkpt>
      <trkpt lat="47.10431" lon="6.15639">
        <ele>393</ele>
        <time>2015-04-26T09:47:46.000Z</time>
      </trkpt>
      <trkpt lat="47.10431" lon="6.15639">
        <ele>393</ele>
        <time>2015-04-26T09:47:48.000Z</time>
      </trkpt>
      <trkpt lat="47.10439" lon="6.15583">
        <ele>394</ele>
        <time>2015-04-26T09:47:52.000Z</time>
      </trkpt>
      <trkpt lat="47.10442" lon="6.15568">
        <ele>394</ele>
        <time>2015-04-26T09:47:54.000Z</time>
      </trkpt>
      <trkpt lat="47.10444" lon="6.15554">
        <ele>394</ele>
        <time>2015-04-26T09:47:56.000Z</time>
      </trkpt>
      <trkpt lat="47.10447" lon="6.1554">
        <ele>394</ele>
        <time>2015-04-26T09:47:58.000Z</time>
      </trkpt>
      <trkpt lat="47.10448" lon="6.15525">
        <ele>394</ele>
        <time>2015-04-26T09:48:00.000Z</time>
      </trkpt>
      <trkpt lat="47.1045" lon="6.15511">
        <ele>393</ele>
        <time>2015-04-26T09:48:02.000Z</time>
      </trkpt>
      <trkpt lat="47.10452" lon="6.15497">
        <ele>393</ele>
        <time>2015-04-26T09:48:04.000Z</time>
      </trkpt>
      <trkpt lat="47.10452" lon="6.15497">
        <ele>393</ele>
        <time>2015-04-26T09:48:06.000Z</time>
      </trkpt>
      <trkpt lat="47.10452" lon="6.15497">
        <ele>393</ele>
        <time>2015-04-26T09:48:08.000Z</time>
      </trkpt>
      <trkpt lat="47.10452" lon="6.15497">
        <ele>393</ele>
        <time>2015-04-26T09:48:10.000Z</time>
      </trkpt>
      <trkpt lat="47.10452" lon="6.15497">
        <ele>393</ele>
        <time>2015-04-26T09:48:12.000Z</time>
      </trkpt>
      <trkpt lat="47.10452" lon="6.15497">
        <ele>393</ele>
        <time>2015-04-26T09:48:14.000Z</time>
      </trkpt>
      <trkpt lat="47.10452" lon="6.15497">
        <ele>393</ele>
        <time>2015-04-26T09:48:16.000Z</time>
      </trkpt>
      <trkpt lat="47.10452" lon="6.15497">
        <ele>393</ele>
        <time>2015-04-26T09:48:18.000Z</time>
      </trkpt>
      <trkpt lat="47.10452" lon="6.15497">
        <ele>393</ele>
        <time>2015-04-26T09:48:20.000Z</time>
      </trkpt>
      <trkpt lat="47.10452" lon="6.15497">
        <ele>393</ele>
        <time>2015-04-26T09:48:22.000Z</time>
      </trkpt>
      <trkpt lat="47.10452" lon="6.15497">
        <ele>393</ele>
        <time>2015-04-26T09:48:24.000Z</time>
      </trkpt>
      <trkpt lat="47.10452" lon="6.15497">
        <ele>393</ele>
        <time>2015-04-26T09:48:26.000Z</time>
      </trkpt>
      <trkpt lat="47.10452" lon="6.15497">
        <ele>393</ele>
        <time>2015-04-26T09:48:28.000Z</time>
      </trkpt>
      <trkpt lat="47.10452" lon="6.15497">
        <ele>393</ele>
        <time>2015-04-26T09:48:30.000Z</time>
      </trkpt>
      <trkpt lat="47.10452" lon="6.15497">
        <ele>393</ele>
        <time>2015-04-26T09:48:32.000Z</time>
      </trkpt>
      <trkpt lat="47.10452" lon="6.15497">
        <ele>393</ele>
        <time>2015-04-26T09:48:34.000Z</time>
      </trkpt>
      <trkpt lat="47.10452" lon="6.15497">
        <ele>393</ele>
        <time>2015-04-26T09:48:36.000Z</time>
      </trkpt>
      <trkpt lat="47.10452" lon="6.15497">
        <ele>393</ele>
        <time>2015-04-26T09:48:38.000Z</time>
      </trkpt>
      <trkpt lat="47.10452" lon="6.15497">
        <ele>393</ele>
        <time>2015-04-26T09:48:40.000Z</time>
      </trkpt>
      <trkpt lat="47.10452" lon="6.15497">
        <ele>393</ele>
        <time>2015-04-26T09:48:42.000Z</time>
      </trkpt>
      <trkpt lat="47.10452" lon="6.15497">
        <ele>393</ele>
        <time>2015-04-26T09:48:44.000Z</time>
      </trkpt>
      <trkpt lat="47.10452" lon="6.15497">
        <ele>393</ele>
        <time>2015-04-26T09:48:46.000Z</time>
      </trkpt>
      <trkpt lat="47.10452" lon="6.15497">
        <ele>393</ele>
        <time>2015-04-26T09:48:48.000Z</time>
      </trkpt>
      <trkpt lat="47.10452" lon="6.15497">
        <ele>393</ele>
        <time>2015-04-26T09:48:50.000Z</time>
      </trkpt>
      <trkpt lat="47.10452" lon="6.15497">
        <ele>393</ele>
        <time>2015-04-26T09:48:52.000Z</time>
      </trkpt>
      <trkpt lat="47.10452" lon="6.15497">
        <ele>393</ele>
        <time>2015-04-26T09:48:54.000Z</time>
      </trkpt>
      <trkpt lat="47.10452" lon="6.15497">
        <ele>393</ele>
        <time>2015-04-26T09:48:56.000Z</time>
      </trkpt>
      <trkpt lat="47.10452" lon="6.15497">
        <ele>393</ele>
        <time>2015-04-26T09:48:58.000Z</time>
      </trkpt>
      <trkpt lat="47.10452" lon="6.15497">
        <ele>393</ele>
        <time>2015-04-26T09:49:00.000Z</time>
      </trkpt>
      <trkpt lat="47.10452" lon="6.15497">
        <ele>393</ele>
        <time>2015-04-26T09:49:02.000Z</time>
      </trkpt>
      <trkpt lat="47.10452" lon="6.15497">
        <ele>393</ele>
        <time>2015-04-26T09:49:04.000Z</time>
      </trkpt>
      <trkpt lat="47.10452" lon="6.15497">
        <ele>393</ele>
        <time>2015-04-26T09:49:06.000Z</time>
      </trkpt>
      <trkpt lat="47.10452" lon="6.15497">
        <ele>393</ele>
        <time>2015-04-26T09:49:08.000Z</time>
      </trkpt>
      <trkpt lat="47.10452" lon="6.15497">
        <ele>393</ele>
        <time>2015-04-26T09:49:10.000Z</time>
      </trkpt>
      <trkpt lat="47.10452" lon="6.15497">
        <ele>393</ele>
        <time>2015-04-26T09:49:12.000Z</time>
      </trkpt>
      <trkpt lat="47.10452" lon="6.15497">
        <ele>393</ele>
        <time>2015-04-26T09:49:14.000Z</time>
      </trkpt>
      <trkpt lat="47.10452" lon="6.15497">
        <ele>393</ele>
        <time>2015-04-26T09:49:16.000Z</time>
      </trkpt>
      <trkpt lat="47.10452" lon="6.15497">
        <ele>393</ele>
        <time>2015-04-26T09:49:18.000Z</time>
      </trkpt>
      <trkpt lat="47.10452" lon="6.15497">
        <ele>393</ele>
        <time>2015-04-26T09:49:20.000Z</time>
      </trkpt>
      <trkpt lat="47.10452" lon="6.15497">
        <ele>393</ele>
        <time>2015-04-26T09:49:22.000Z</time>
      </trkpt>
      <trkpt lat="47.10452" lon="6.15497">
        <ele>393</ele>
        <time>2015-04-26T09:49:24.000Z</time>
      </trkpt>
      <trkpt lat="47.10452" lon="6.15497">
        <ele>393</ele>
        <time>2015-04-26T09:49:26.000Z</time>
      </trkpt>
      <trkpt lat="47.10452" lon="6.15497">
        <ele>393</ele>
        <time>2015-04-26T09:49:28.000Z</time>
      </trkpt>
      <trkpt lat="47.10452" lon="6.15497">
        <ele>393</ele>
        <time>2015-04-26T09:49:30.000Z</time>
      </trkpt>
      <trkpt lat="47.10452" lon="6.15497">
        <ele>393</ele>
        <time>2015-04-26T09:49:32.000Z</time>
      </trkpt>
      <trkpt lat="47.10452" lon="6.15497">
        <ele>393</ele>
        <time>2015-04-26T09:49:34.000Z</time>
      </trkpt>
      <trkpt lat="47.10452" lon="6.15497">
        <ele>393</ele>
        <time>2015-04-26T09:49:36.000Z</time>
      </trkpt>
      <trkpt lat="47.10452" lon="6.15497">
        <ele>393</ele>
        <time>2015-04-26T09:49:38.000Z</time>
      </trkpt>
      <trkpt lat="47.10452" lon="6.15497">
        <ele>393</ele>
        <time>2015-04-26T09:49:40.000Z</time>
      </trkpt>
      <trkpt lat="47.10452" lon="6.15497">
        <ele>393</ele>
        <time>2015-04-26T09:49:42.000Z</time>
      </trkpt>
      <trkpt lat="47.10452" lon="6.15497">
        <ele>393</ele>
        <time>2015-04-26T09:49:44.000Z</time>
      </trkpt>
      <trkpt lat="47.10452" lon="6.15497">
        <ele>393</ele>
        <time>2015-04-26T09:49:46.000Z</time>
      </trkpt>
      <trkpt lat="47.10452" lon="6.15497">
        <ele>393</ele>
        <time>2015-04-26T09:49:48.000Z</time>
      </trkpt>
      <trkpt lat="47.10452" lon="6.15497">
        <ele>393</ele>
        <time>2015-04-26T09:49:50.000Z</time>
      </trkpt>
      <trkpt lat="47.10452" lon="6.15497">
        <ele>393</ele>
        <time>2015-04-26T09:49:52.000Z</time>
      </trkpt>
      <trkpt lat="47.10452" lon="6.15497">
        <ele>393</ele>
        <time>2015-04-26T09:49:54.000Z</time>
      </trkpt>
      <trkpt lat="47.10452" lon="6.15497">
        <ele>393</ele>
        <time>2015-04-26T09:49:56.000Z</time>
      </trkpt>
      <trkpt lat="47.10452" lon="6.15497">
        <ele>393</ele>
        <time>2015-04-26T09:49:58.000Z</time>
      </trkpt>
      <trkpt lat="47.10452" lon="6.15497">
        <ele>393</ele>
        <time>2015-04-26T09:50:00.000Z</time>
      </trkpt>
      <trkpt lat="47.10452" lon="6.15497">
        <ele>393</ele>
        <time>2015-04-26T09:50:02.000Z</time>
      </trkpt>
      <trkpt lat="47.10452" lon="6.15497">
        <ele>393</ele>
        <time>2015-04-26T09:50:04.000Z</time>
      </trkpt>
      <trkpt lat="47.10452" lon="6.15497">
        <ele>393</ele>
        <time>2015-04-26T09:50:06.000Z</time>
      </trkpt>
      <trkpt lat="47.10594" lon="6.1556">
        <ele>412</ele>
        <time>2015-04-26T09:50:10.000Z</time>
      </trkpt>
      <trkpt lat="47.10667" lon="6.15593">
        <ele>414</ele>
        <time>2015-04-26T09:50:12.000Z</time>
      </trkpt>
      <trkpt lat="47.10706" lon="6.15611">
        <ele>412</ele>
        <time>2015-04-26T09:50:14.000Z</time>
      </trkpt>
      <trkpt lat="47.10727" lon="6.15621">
        <ele>412</ele>
        <time>2015-04-26T09:50:16.000Z</time>
      </trkpt>
      <trkpt lat="47.1074" lon="6.15627">
        <ele>413</ele>
        <time>2015-04-26T09:50:18.000Z</time>
      </trkpt>
      <trkpt lat="47.10756" lon="6.15635">
        <ele>411</ele>
        <time>2015-04-26T09:50:20.000Z</time>
      </trkpt>
      <trkpt lat="47.10756" lon="6.15635">
        <ele>411</ele>
        <time>2015-04-26T09:50:22.000Z</time>
      </trkpt>
      <trkpt lat="47.10756" lon="6.15635">
        <ele>411</ele>
        <time>2015-04-26T09:50:24.000Z</time>
      </trkpt>
      <trkpt lat="47.10756" lon="6.15635">
        <ele>411</ele>
        <time>2015-04-26T09:50:26.000Z</time>
      </trkpt>
      <trkpt lat="47.10756" lon="6.15635">
        <ele>411</ele>
        <time>2015-04-26T09:50:28.000Z</time>
      </trkpt>
      <trkpt lat="47.10756" lon="6.15635">
        <ele>411</ele>
        <time>2015-04-26T09:50:30.000Z</time>
      </trkpt>
      <trkpt lat="47.10783" lon="6.15654">
        <ele>417</ele>
        <time>2015-04-26T09:50:34.000Z</time>
      </trkpt>
      <trkpt lat="47.10795" lon="6.15662">
        <ele>418</ele>
        <time>2015-04-26T09:50:40.000Z</time>
      </trkpt>
      <trkpt lat="47.10807" lon="6.1567">
        <ele>417</ele>
        <time>2015-04-26T09:50:46.000Z</time>
      </trkpt>
      <trkpt lat="47.10816" lon="6.15676">
        <ele>419</ele>
        <time>2015-04-26T09:50:50.000Z</time>
      </trkpt>
      <trkpt lat="47.10824" lon="6.15683">
        <ele>421</ele>
        <time>2015-04-26T09:50:54.000Z</time>
      </trkpt>
      <trkpt lat="47.10824" lon="6.15683">
        <ele>421</ele>
        <time>2015-04-26T09:50:58.000Z</time>
      </trkpt>
      <trkpt lat="47.10824" lon="6.15683">
        <ele>421</ele>
        <time>2015-04-26T09:51:00.000Z</time>
      </trkpt>
      <trkpt lat="47.10824" lon="6.15683">
        <ele>421</ele>
        <time>2015-04-26T09:51:02.000Z</time>
      </trkpt>
      <trkpt lat="47.10824" lon="6.15683">
        <ele>421</ele>
        <time>2015-04-26T09:51:04.000Z</time>
      </trkpt>
      <trkpt lat="47.10824" lon="6.15683">
        <ele>421</ele>
        <time>2015-04-26T09:51:06.000Z</time>
      </trkpt>
      <trkpt lat="47.10824" lon="6.15683">
        <ele>421</ele>
        <time>2015-04-26T09:51:10.000Z</time>
      </trkpt>
      <trkpt lat="47.10824" lon="6.15683">
        <ele>421</ele>
        <time>2015-04-26T09:51:12.000Z</time>
      </trkpt>
      <trkpt lat="47.10824" lon="6.15683">
        <ele>421</ele>
        <time>2015-04-26T09:51:14.000Z</time>
      </trkpt>
      <trkpt lat="47.10824" lon="6.15683">
        <ele>421</ele>
        <time>2015-04-26T09:51:16.000Z</time>
      </trkpt>
      <trkpt lat="47.10824" lon="6.15683">
        <ele>421</ele>
        <time>2015-04-26T09:51:18.000Z</time>
      </trkpt>
      <trkpt lat="47.10824" lon="6.15683">
        <ele>421</ele>
        <time>2015-04-26T09:51:26.000Z</time>
      </trkpt>
      <trkpt lat="47.10824" lon="6.15683">
        <ele>421</ele>
        <time>2015-04-26T09:51:28.000Z</time>
      </trkpt>
      <trkpt lat="47.10824" lon="6.15683">
        <ele>421</ele>
        <time>2015-04-26T09:51:30.000Z</time>
      </trkpt>
      <trkpt lat="47.10824" lon="6.15683">
        <ele>421</ele>
        <time>2015-04-26T09:51:32.000Z</time>
      </trkpt>
      <trkpt lat="47.10824" lon="6.15683">
        <ele>421</ele>
        <time>2015-04-26T09:51:34.000Z</time>
      </trkpt>
      <trkpt lat="47.10824" lon="6.15683">
        <ele>421</ele>
        <time>2015-04-26T09:51:36.000Z</time>
      </trkpt>
      <trkpt lat="47.10824" lon="6.15683">
        <ele>421</ele>
        <time>2015-04-26T09:51:40.000Z</time>
      </trkpt>
      <trkpt lat="47.10824" lon="6.15683">
        <ele>421</ele>
        <time>2015-04-26T09:51:42.000Z</time>
      </trkpt>
      <trkpt lat="47.10824" lon="6.15683">
        <ele>421</ele>
        <time>2015-04-26T09:51:44.000Z</time>
      </trkpt>
      <trkpt lat="47.10824" lon="6.15683">
        <ele>421</ele>
        <time>2015-04-26T09:51:46.000Z</time>
      </trkpt>
      <trkpt lat="47.10824" lon="6.15683">
        <ele>421</ele>
        <time>2015-04-26T09:51:48.000Z</time>
      </trkpt>
      <trkpt lat="47.10824" lon="6.15683">
        <ele>421</ele>
        <time>2015-04-26T09:51:50.000Z</time>
      </trkpt>
      <trkpt lat="47.10824" lon="6.15683">
        <ele>421</ele>
        <time>2015-04-26T09:51:52.000Z</time>
      </trkpt>
      <trkpt lat="47.10824" lon="6.15683">
        <ele>421</ele>
        <time>2015-04-26T09:51:54.000Z</time>
      </trkpt>
      <trkpt lat="47.10824" lon="6.15683">
        <ele>421</ele>
        <time>2015-04-26T09:51:56.000Z</time>
      </trkpt>
      <trkpt lat="47.10884" lon="6.15727">
        <ele>431</ele>
        <time>2015-04-26T09:52:00.000Z</time>
      </trkpt>
      <trkpt lat="47.10915" lon="6.1575">
        <ele>430</ele>
        <time>2015-04-26T09:52:02.000Z</time>
      </trkpt>
      <trkpt lat="47.10933" lon="6.15764">
        <ele>431</ele>
        <time>2015-04-26T09:52:04.000Z</time>
      </trkpt>
      <trkpt lat="47.10943" lon="6.15772">
        <ele>431</ele>
        <time>2015-04-26T09:52:06.000Z</time>
      </trkpt>
      <trkpt lat="47.1095" lon="6.15778">
        <ele>432</ele>
        <time>2015-04-26T09:52:08.000Z</time>
      </trkpt>
      <trkpt lat="47.10961" lon="6.15788">
        <ele>432</ele>
        <time>2015-04-26T09:52:10.000Z</time>
      </trkpt>
      <trkpt lat="47.10973" lon="6.15799">
        <ele>434</ele>
        <time>2015-04-26T09:52:16.000Z</time>
      </trkpt>
      <trkpt lat="47.10981" lon="6.15807">
        <ele>430</ele>
        <time>2015-04-26T09:52:20.000Z</time>
      </trkpt>
      <trkpt lat="47.10991" lon="6.15817">
        <ele>433</ele>
        <time>2015-04-26T09:52:24.000Z</time>
      </trkpt>
      <trkpt lat="47.10999" lon="6.15826">
        <ele>430</ele>
        <time>2015-04-26T09:52:28.000Z</time>
      </trkpt>
      <trkpt lat="47.11009" lon="6.15836">
        <ele>430</ele>
        <time>2015-04-26T09:52:32.000Z</time>
      </trkpt>
      <trkpt lat="47.11019" lon="6.15845">
        <ele>432</ele>
        <time>2015-04-26T09:52:36.000Z</time>
      </trkpt>
      <trkpt lat="47.11031" lon="6.15854">
        <ele>432</ele>
        <time>2015-04-26T09:52:40.000Z</time>
      </trkpt>
      <trkpt lat="47.11041" lon="6.15862">
        <ele>432</ele>
        <time>2015-04-26T09:52:44.000Z</time>
      </trkpt>
      <trkpt lat="47.11041" lon="6.15862">
        <ele>432</ele>
        <time>2015-04-26T09:52:46.000Z</time>
      </trkpt>
      <trkpt lat="47.11041" lon="6.15862">
        <ele>432</ele>
        <time>2015-04-26T09:52:48.000Z</time>
      </trkpt>
      <trkpt lat="47.11041" lon="6.15862">
        <ele>432</ele>
        <time>2015-04-26T09:52:50.000Z</time>
      </trkpt>
      <trkpt lat="47.11041" lon="6.15862">
        <ele>432</ele>
        <time>2015-04-26T09:52:52.000Z</time>
      </trkpt>
      <trkpt lat="47.11041" lon="6.15862">
        <ele>432</ele>
        <time>2015-04-26T09:52:54.000Z</time>
      </trkpt>
      <trkpt lat="47.11041" lon="6.15862">
        <ele>432</ele>
        <time>2015-04-26T09:52:56.000Z</time>
      </trkpt>
      <trkpt lat="47.11041" lon="6.15862">
        <ele>432</ele>
        <time>2015-04-26T09:52:58.000Z</time>
      </trkpt>
      <trkpt lat="47.11041" lon="6.15862">
        <ele>432</ele>
        <time>2015-04-26T09:53:00.000Z</time>
      </trkpt>
      <trkpt lat="47.11041" lon="6.15862">
        <ele>432</ele>
        <time>2015-04-26T09:53:02.000Z</time>
      </trkpt>
      <trkpt lat="47.11041" lon="6.15862">
        <ele>432</ele>
        <time>2015-04-26T09:53:04.000Z</time>
      </trkpt>
      <trkpt lat="47.11041" lon="6.15862">
        <ele>432</ele>
        <time>2015-04-26T09:53:06.000Z</time>
      </trkpt>
      <trkpt lat="47.11103" lon="6.15926">
        <ele>443</ele>
        <time>2015-04-26T09:53:10.000Z</time>
      </trkpt>
      <trkpt lat="47.11112" lon="6.15934">
        <ele>443</ele>
        <time>2015-04-26T09:53:14.000Z</time>
      </trkpt>
      <trkpt lat="47.11121" lon="6.15945">
        <ele>443</ele>
        <time>2015-04-26T09:53:18.000Z</time>
      </trkpt>
      <trkpt lat="47.11121" lon="6.15945">
        <ele>443</ele>
        <time>2015-04-26T09:53:20.000Z</time>
      </trkpt>
      <trkpt lat="47.11121" lon="6.15945">
        <ele>443</ele>
        <time>2015-04-26T09:53:22.000Z</time>
      </trkpt>
      <trkpt lat="47.11121" lon="6.15945">
        <ele>443</ele>
        <time>2015-04-26T09:53:24.000Z</time>
      </trkpt>
      <trkpt lat="47.11121" lon="6.15945">
        <ele>443</ele>
        <time>2015-04-26T09:53:26.000Z</time>
      </trkpt>
      <trkpt lat="47.11121" lon="6.15945">
        <ele>443</ele>
        <time>2015-04-26T09:53:28.000Z</time>
      </trkpt>
      <trkpt lat="47.11121" lon="6.15945">
        <ele>443</ele>
        <time>2015-04-26T09:53:30.000Z</time>
      </trkpt>
      <trkpt lat="47.11121" lon="6.15945">
        <ele>443</ele>
        <time>2015-04-26T09:53:32.000Z</time>
      </trkpt>
      <trkpt lat="47.11121" lon="6.15945">
        <ele>443</ele>
        <time>2015-04-26T09:53:34.000Z</time>
      </trkpt>
      <trkpt lat="47.11121" lon="6.15945">
        <ele>443</ele>
        <time>2015-04-26T09:53:36.000Z</time>
      </trkpt>
      <trkpt lat="47.11121" lon="6.15945">
        <ele>443</ele>
        <time>2015-04-26T09:53:38.000Z</time>
      </trkpt>
      <trkpt lat="47.11121" lon="6.15945">
        <ele>443</ele>
        <time>2015-04-26T09:53:40.000Z</time>
      </trkpt>
      <trkpt lat="47.11121" lon="6.15945">
        <ele>443</ele>
        <time>2015-04-26T09:53:42.000Z</time>
      </trkpt>
      <trkpt lat="47.11121" lon="6.15945">
        <ele>443</ele>
        <time>2015-04-26T09:53:44.000Z</time>
      </trkpt>
      <trkpt lat="47.11121" lon="6.15945">
        <ele>443</ele>
        <time>2015-04-26T09:53:46.000Z</time>
      </trkpt>
      <trkpt lat="47.11121" lon="6.15945">
        <ele>443</ele>
        <time>2015-04-26T09:53:48.000Z</time>
      </trkpt>
      <trkpt lat="47.11121" lon="6.15945">
        <ele>443</ele>
        <time>2015-04-26T09:53:50.000Z</time>
      </trkpt>
      <trkpt lat="47.11121" lon="6.15945">
        <ele>443</ele>
        <time>2015-04-26T09:53:52.000Z</time>
      </trkpt>
      <trkpt lat="47.11121" lon="6.15945">
        <ele>443</ele>
        <time>2015-04-26T09:53:54.000Z</time>
      </trkpt>
      <trkpt lat="47.11121" lon="6.15945">
        <ele>443</ele>
        <time>2015-04-26T09:53:56.000Z</time>
      </trkpt>
      <trkpt lat="47.11121" lon="6.15945">
        <ele>443</ele>
        <time>2015-04-26T09:53:58.000Z</time>
      </trkpt>
      <trkpt lat="47.11121" lon="6.15945">
        <ele>443</ele>
        <time>2015-04-26T09:54:00.000Z</time>
      </trkpt>
      <trkpt lat="47.11121" lon="6.15945">
        <ele>443</ele>
        <time>2015-04-26T09:54:02.000Z</time>
      </trkpt>
      <trkpt lat="47.11121" lon="6.15945">
        <ele>443</ele>
        <time>2015-04-26T09:54:04.000Z</time>
      </trkpt>
      <trkpt lat="47.11121" lon="6.15945">
        <ele>443</ele>
        <time>2015-04-26T09:54:06.000Z</time>
      </trkpt>
      <trkpt lat="47.11121" lon="6.15945">
        <ele>443</ele>
        <time>2015-04-26T09:54:08.000Z</time>
      </trkpt>
      <trkpt lat="47.11121" lon="6.15945">
        <ele>443</ele>
        <time>2015-04-26T09:54:10.000Z</time>
      </trkpt>
      <trkpt lat="47.11167" lon="6.15995">
        <ele>451</ele>
        <time>2015-04-26T09:54:14.000Z</time>
      </trkpt>
      <trkpt lat="47.1119" lon="6.16022">
        <ele>455</ele>
        <time>2015-04-26T09:54:16.000Z</time>
      </trkpt>
      <trkpt lat="47.11203" lon="6.16038">
        <ele>452</ele>
        <time>2015-04-26T09:54:18.000Z</time>
      </trkpt>
      <trkpt lat="47.11211" lon="6.16047">
        <ele>458</ele>
        <time>2015-04-26T09:54:20.000Z</time>
      </trkpt>
      <trkpt lat="47.11216" lon="6.16054">
        <ele>453</ele>
        <time>2015-04-26T09:54:22.000Z</time>
      </trkpt>
      <trkpt lat="47.11224" lon="6.16066">
        <ele>453</ele>
        <time>2015-04-26T09:54:24.000Z</time>
      </trkpt>
      <trkpt lat="47.11232" lon="6.16079">
        <ele>455</ele>
        <time>2015-04-26T09:54:30.000Z</time>
      </trkpt>
      <trkpt lat="47.11241" lon="6.1609">
        <ele>457</ele>
        <time>2015-04-26T09:54:36.000Z</time>
      </trkpt>
      <trkpt lat="47.11241" lon="6.1609">
        <ele>457</ele>
        <time>2015-04-26T09:54:38.000Z</time>
      </trkpt>
      <trkpt lat="47.11241" lon="6.1609">
        <ele>457</ele>
        <time>2015-04-26T09:54:40.000Z</time>
      </trkpt>
      <trkpt lat="47.11241" lon="6.1609">
        <ele>457</ele>
        <time>2015-04-26T09:54:42.000Z</time>
      </trkpt>
      <trkpt lat="47.11241" lon="6.1609">
        <ele>457</ele>
        <time>2015-04-26T09:54:44.000Z</time>
      </trkpt>
      <trkpt lat="47.11241" lon="6.1609">
        <ele>457</ele>
        <time>2015-04-26T09:54:46.000Z</time>
      </trkpt>
      <trkpt lat="47.11241" lon="6.1609">
        <ele>457</ele>
        <time>2015-04-26T09:54:48.000Z</time>
      </trkpt>
      <trkpt lat="47.11241" lon="6.1609">
        <ele>457</ele>
        <time>2015-04-26T09:54:50.000Z</time>
      </trkpt>
      <trkpt lat="47.11241" lon="6.1609">
        <ele>457</ele>
        <time>2015-04-26T09:54:52.000Z</time>
      </trkpt>
      <trkpt lat="47.11241" lon="6.1609">
        <ele>457</ele>
        <time>2015-04-26T09:54:54.000Z</time>
      </trkpt>
      <trkpt lat="47.11241" lon="6.1609">
        <ele>457</ele>
        <time>2015-04-26T09:54:56.000Z</time>
      </trkpt>
      <trkpt lat="47.11273" lon="6.16133">
        <ele>466</ele>
        <time>2015-04-26T09:55:02.000Z</time>
      </trkpt>
      <trkpt lat="47.11273" lon="6.16133">
        <ele>466</ele>
        <time>2015-04-26T09:55:04.000Z</time>
      </trkpt>
      <trkpt lat="47.11273" lon="6.16133">
        <ele>466</ele>
        <time>2015-04-26T09:55:06.000Z</time>
      </trkpt>
      <trkpt lat="47.11273" lon="6.16133">
        <ele>466</ele>
        <time>2015-04-26T09:55:08.000Z</time>
      </trkpt>
      <trkpt lat="47.11273" lon="6.16133">
        <ele>466</ele>
        <time>2015-04-26T09:55:10.000Z</time>
      </trkpt>
      <trkpt lat="47.11273" lon="6.16133">
        <ele>466</ele>
        <time>2015-04-26T09:55:12.000Z</time>
      </trkpt>
      <trkpt lat="47.11292" lon="6.16158">
        <ele>464</ele>
        <time>2015-04-26T09:55:18.000Z</time>
      </trkpt>
      <trkpt lat="47.11292" lon="6.16158">
        <ele>464</ele>
        <time>2015-04-26T09:55:22.000Z</time>
      </trkpt>
      <trkpt lat="47.11292" lon="6.16158">
        <ele>464</ele>
        <time>2015-04-26T09:55:24.000Z</time>
      </trkpt>
      <trkpt lat="47.11292" lon="6.16158">
        <ele>464</ele>
        <time>2015-04-26T09:55:26.000Z</time>
      </trkpt>
      <trkpt lat="47.11292" lon="6.16158">
        <ele>464</ele>
        <time>2015-04-26T09:55:28.000Z</time>
      </trkpt>
      <trkpt lat="47.11292" lon="6.16158">
        <ele>464</ele>
        <time>2015-04-26T09:55:30.000Z</time>
      </trkpt>
      <trkpt lat="47.11292" lon="6.16158">
        <ele>464</ele>
        <time>2015-04-26T09:55:32.000Z</time>
      </trkpt>
      <trkpt lat="47.11292" lon="6.16158">
        <ele>464</ele>
        <time>2015-04-26T09:55:34.000Z</time>
      </trkpt>
      <trkpt lat="47.11292" lon="6.16158">
        <ele>464</ele>
        <time>2015-04-26T09:55:36.000Z</time>
      </trkpt>
      <trkpt lat="47.11292" lon="6.16158">
        <ele>464</ele>
        <time>2015-04-26T09:55:38.000Z</time>
      </trkpt>
      <trkpt lat="47.11292" lon="6.16158">
        <ele>464</ele>
        <time>2015-04-26T09:55:40.000Z</time>
      </trkpt>
      <trkpt lat="47.11292" lon="6.16158">
        <ele>464</ele>
        <time>2015-04-26T09:55:42.000Z</time>
      </trkpt>
      <trkpt lat="47.11292" lon="6.16158">
        <ele>464</ele>
        <time>2015-04-26T09:55:44.000Z</time>
      </trkpt>
      <trkpt lat="47.11292" lon="6.16158">
        <ele>464</ele>
        <time>2015-04-26T09:55:46.000Z</time>
      </trkpt>
      <trkpt lat="47.11292" lon="6.16158">
        <ele>464</ele>
        <time>2015-04-26T09:55:48.000Z</time>
      </trkpt>
      <trkpt lat="47.11313" lon="6.16183">
        <ele>474</ele>
        <time>2015-04-26T09:55:52.000Z</time>
      </trkpt>
      <trkpt lat="47.11325" lon="6.16197">
        <ele>474</ele>
        <time>2015-04-26T09:55:54.000Z</time>
      </trkpt>
      <trkpt lat="47.11332" lon="6.16205">
        <ele>473</ele>
        <time>2015-04-26T09:55:56.000Z</time>
      </trkpt>
      <trkpt lat="47.11337" lon="6.1621">
        <ele>474</ele>
        <time>2015-04-26T09:55:58.000Z</time>
      </trkpt>
      <trkpt lat="47.11342" lon="6.16214">
        <ele>474</ele>
        <time>2015-04-26T09:56:02.000Z</time>
      </trkpt>
      <trkpt lat="47.11342" lon="6.16214">
        <ele>474</ele>
        <time>2015-04-26T09:56:04.000Z</time>
      </trkpt>
      <trkpt lat="47.11342" lon="6.16214">
        <ele>474</ele>
        <time>2015-04-26T09:56:06.000Z</time>
      </trkpt>
      <trkpt lat="47.11342" lon="6.16214">
        <ele>474</ele>
        <time>2015-04-26T09:56:08.000Z</time>
      </trkpt>
      <trkpt lat="47.11342" lon="6.16214">
        <ele>474</ele>
        <time>2015-04-26T09:56:10.000Z</time>
      </trkpt>
      <trkpt lat="47.11342" lon="6.16214">
        <ele>474</ele>
        <time>2015-04-26T09:56:12.000Z</time>
      </trkpt>
      <trkpt lat="47.11342" lon="6.16214">
        <ele>474</ele>
        <time>2015-04-26T09:56:14.000Z</time>
      </trkpt>
      <trkpt lat="47.11356" lon="6.16224">
        <ele>474</ele>
        <time>2015-04-26T09:56:18.000Z</time>
      </trkpt>
      <trkpt lat="47.11364" lon="6.1623">
        <ele>472</ele>
        <time>2015-04-26T09:56:20.000Z</time>
      </trkpt>
      <trkpt lat="47.11369" lon="6.16234">
        <ele>474</ele>
        <time>2015-04-26T09:56:22.000Z</time>
      </trkpt>
      <trkpt lat="47.11374" lon="6.16237">
        <ele>475</ele>
        <time>2015-04-26T09:56:24.000Z</time>
      </trkpt>
      <trkpt lat="47.11379" lon="6.16241">
        <ele>476</ele>
        <time>2015-04-26T09:56:28.000Z</time>
      </trkpt>
      <trkpt lat="47.11384" lon="6.16244">
        <ele>476</ele>
        <time>2015-04-26T09:56:32.000Z</time>
      </trkpt>
      <trkpt lat="47.11389" lon="6.16246">
        <ele>479</ele>
        <time>2015-04-26T09:56:34.000Z</time>
      </trkpt>
      <trkpt lat="47.11389" lon="6.16246">
        <ele>479</ele>
        <time>2015-04-26T09:56:36.000Z</time>
      </trkpt>
      <trkpt lat="47.11394" lon="6.1625">
        <ele>477</ele>
        <time>2015-04-26T09:56:38.000Z</time>
      </trkpt>
      <trkpt lat="47.11394" lon="6.1625">
        <ele>477</ele>
        <time>2015-04-26T09:56:40.000Z</time>
      </trkpt>
      <trkpt lat="47.11394" lon="6.1625">
        <ele>477</ele>
        <time>2015-04-26T09:56:42.000Z</time>
      </trkpt>
      <trkpt lat="47.11394" lon="6.1625">
        <ele>477</ele>
        <time>2015-04-26T09:56:44.000Z</time>
      </trkpt>
      <trkpt lat="47.11394" lon="6.1625">
        <ele>477</ele>
        <time>2015-04-26T09:56:46.000Z</time>
      </trkpt>
      <trkpt lat="47.11394" lon="6.1625">
        <ele>477</ele>
        <time>2015-04-26T09:56:48.000Z</time>
      </trkpt>
      <trkpt lat="47.11394" lon="6.1625">
        <ele>477</ele>
        <time>2015-04-26T09:56:50.000Z</time>
      </trkpt>
      <trkpt lat="47.11394" lon="6.1625">
        <ele>477</ele>
        <time>2015-04-26T09:56:52.000Z</time>
      </trkpt>
      <trkpt lat="47.11394" lon="6.1625">
        <ele>477</ele>
        <time>2015-04-26T09:56:54.000Z</time>
      </trkpt>
      <trkpt lat="47.11394" lon="6.1625">
        <ele>477</ele>
        <time>2015-04-26T09:56:56.000Z</time>
      </trkpt>
      <trkpt lat="47.1141" lon="6.16246">
        <ele>488</ele>
        <time>2015-04-26T09:57:02.000Z</time>
      </trkpt>
      <trkpt lat="47.11417" lon="6.16241">
        <ele>489</ele>
        <time>2015-04-26T09:57:04.000Z</time>
      </trkpt>
      <trkpt lat="47.11418" lon="6.16235">
        <ele>489</ele>
        <time>2015-04-26T09:57:08.000Z</time>
      </trkpt>
      <trkpt lat="47.11415" lon="6.16229">
        <ele>489</ele>
        <time>2015-04-26T09:57:12.000Z</time>
      </trkpt>
      <trkpt lat="47.11409" lon="6.16226">
        <ele>494</ele>
        <time>2015-04-26T09:57:16.000Z</time>
      </trkpt>
      <trkpt lat="47.11403" lon="6.16224">
        <ele>495</ele>
        <time>2015-04-26T09:57:18.000Z</time>
      </trkpt>
      <trkpt lat="47.11398" lon="6.16222">
        <ele>494</ele>
        <time>2015-04-26T09:57:20.000Z</time>
      </trkpt>
      <trkpt lat="47.11394" lon="6.1622">
        <ele>493</ele>
        <time>2015-04-26T09:57:22.000Z</time>
      </trkpt>
      <trkpt lat="47.11389" lon="6.16217">
        <ele>498</ele>
        <time>2015-04-26T09:57:24.000Z</time>
      </trkpt>
      <trkpt lat="47.11379" lon="6.16209">
        <ele>497</ele>
        <time>2015-04-26T09:57:26.000Z</time>
      </trkpt>
      <trkpt lat="47.1137" lon="6.16201">
        <ele>495</ele>
        <time>2015-04-26T09:57:30.000Z</time>
      </trkpt>
      <trkpt lat="47.11361" lon="6.16188">
        <ele>493</ele>
        <time>2015-04-26T09:57:34.000Z</time>
      </trkpt>
      <trkpt lat="47.11352" lon="6.16173">
        <ele>488</ele>
        <time>2015-04-26T09:57:38.000Z</time>
      </trkpt>
      <trkpt lat="47.11341" lon="6.16156">
        <ele>493</ele>
        <time>2015-04-26T09:57:42.000Z</time>
      </trkpt>
      <trkpt lat="47.11332" lon="6.16144">
        <ele>490</ele>
        <time>2015-04-26T09:57:44.000Z</time>
      </trkpt>
      <trkpt lat="47.11321" lon="6.16129">
        <ele>488</ele>
        <time>2015-04-26T09:57:46.000Z</time>
      </trkpt>
      <trkpt lat="47.11309" lon="6.16115">
        <ele>488</ele>
        <time>2015-04-26T09:57:48.000Z</time>
      </trkpt>
      <trkpt lat="47.113" lon="6.16102">
        <ele>490</ele>
        <time>2015-04-26T09:57:50.000Z</time>
      </trkpt>
      <trkpt lat="47.11292" lon="6.1609">
        <ele>490</ele>
        <time>2015-04-26T09:57:52.000Z</time>
      </trkpt>
      <trkpt lat="47.11285" lon="6.16078">
        <ele>491</ele>
        <time>2015-04-26T09:57:54.000Z</time>
      </trkpt>
      <trkpt lat="47.11277" lon="6.16066">
        <ele>487</ele>
        <time>2015-04-26T09:57:56.000Z</time>
      </trkpt>
      <trkpt lat="47.11277" lon="6.16066">
        <ele>487</ele>
        <time>2015-04-26T09:57:58.000Z</time>
      </trkpt>
      <trkpt lat="47.11277" lon="6.16066">
        <ele>487</ele>
        <time>2015-04-26T09:58:00.000Z</time>
      </trkpt>
      <trkpt lat="47.11277" lon="6.16066">
        <ele>487</ele>
        <time>2015-04-26T09:58:02.000Z</time>
      </trkpt>
      <trkpt lat="47.11277" lon="6.16066">
        <ele>487</ele>
        <time>2015-04-26T09:58:04.000Z</time>
      </trkpt>
      <trkpt lat="47.11277" lon="6.16066">
        <ele>487</ele>
        <time>2015-04-26T09:58:06.000Z</time>
      </trkpt>
      <trkpt lat="47.11277" lon="6.16066">
        <ele>487</ele>
        <time>2015-04-26T09:58:08.000Z</time>
      </trkpt>
      <trkpt lat="47.11277" lon="6.16066">
        <ele>487</ele>
        <time>2015-04-26T09:58:10.000Z</time>
      </trkpt>
      <trkpt lat="47.11277" lon="6.16066">
        <ele>487</ele>
        <time>2015-04-26T09:58:12.000Z</time>
      </trkpt>
      <trkpt lat="47.11277" lon="6.16066">
        <ele>487</ele>
        <time>2015-04-26T09:58:14.000Z</time>
      </trkpt>
      <trkpt lat="47.11277" lon="6.16066">
        <ele>487</ele>
        <time>2015-04-26T09:58:16.000Z</time>
      </trkpt>
      <trkpt lat="47.11277" lon="6.16066">
        <ele>487</ele>
        <time>2015-04-26T09:58:18.000Z</time>
      </trkpt>
      <trkpt lat="47.11277" lon="6.16066">
        <ele>487</ele>
        <time>2015-04-26T09:58:20.000Z</time>
      </trkpt>
      <trkpt lat="47.11277" lon="6.16066">
        <ele>487</ele>
        <time>2015-04-26T09:58:22.000Z</time>
      </trkpt>
      <trkpt lat="47.11277" lon="6.16066">
        <ele>487</ele>
        <time>2015-04-26T09:58:24.000Z</time>
      </trkpt>
      <trkpt lat="47.11277" lon="6.16066">
        <ele>487</ele>
        <time>2015-04-26T09:58:26.000Z</time>
      </trkpt>
      <trkpt lat="47.11183" lon="6.15913">
        <ele>497</ele>
        <time>2015-04-26T09:58:30.000Z</time>
      </trkpt>
      <trkpt lat="47.1117" lon="6.15892">
        <ele>493</ele>
        <time>2015-04-26T09:58:34.000Z</time>
      </trkpt>
      <trkpt lat="47.11159" lon="6.15875">
        <ele>493</ele>
        <time>2015-04-26T09:58:38.000Z</time>
      </trkpt>
      <trkpt lat="47.11159" lon="6.15875">
        <ele>493</ele>
        <time>2015-04-26T09:58:40.000Z</time>
      </trkpt>
      <trkpt lat="47.11159" lon="6.15875">
        <ele>493</ele>
        <time>2015-04-26T09:58:42.000Z</time>
      </trkpt>
      <trkpt lat="47.11159" lon="6.15875">
        <ele>493</ele>
        <time>2015-04-26T09:58:44.000Z</time>
      </trkpt>
      <trkpt lat="47.11159" lon="6.15875">
        <ele>493</ele>
        <time>2015-04-26T09:58:46.000Z</time>
      </trkpt>
      <trkpt lat="47.11159" lon="6.15875">
        <ele>493</ele>
        <time>2015-04-26T09:58:48.000Z</time>
      </trkpt>
      <trkpt lat="47.11159" lon="6.15875">
        <ele>493</ele>
        <time>2015-04-26T09:58:50.000Z</time>
      </trkpt>
      <trkpt lat="47.11159" lon="6.15875">
        <ele>493</ele>
        <time>2015-04-26T09:58:52.000Z</time>
      </trkpt>
      <trkpt lat="47.11159" lon="6.15875">
        <ele>493</ele>
        <time>2015-04-26T09:58:54.000Z</time>
      </trkpt>
      <trkpt lat="47.11134" lon="6.15841">
        <ele>499</ele>
        <time>2015-04-26T09:58:58.000Z</time>
      </trkpt>
      <trkpt lat="47.1112" lon="6.15821">
        <ele>502</ele>
        <time>2015-04-26T09:59:00.000Z</time>
      </trkpt>
      <trkpt lat="47.11111" lon="6.15807">
        <ele>504</ele>
        <time>2015-04-26T09:59:02.000Z</time>
      </trkpt>
      <trkpt lat="47.11105" lon="6.15797">
        <ele>503</ele>
        <time>2015-04-26T09:59:04.000Z</time>
      </trkpt>
      <trkpt lat="47.11099" lon="6.15788">
        <ele>500</ele>
        <time>2015-04-26T09:59:06.000Z</time>
      </trkpt>
      <trkpt lat="47.11089" lon="6.15771">
        <ele>499</ele>
        <time>2015-04-26T09:59:08.000Z</time>
      </trkpt>
      <trkpt lat="47.1108" lon="6.15756">
        <ele>499</ele>
        <time>2015-04-26T09:59:12.000Z</time>
      </trkpt>
      <trkpt lat="47.1108" lon="6.15756">
        <ele>499</ele>
        <time>2015-04-26T09:59:14.000Z</time>
      </trkpt>
      <trkpt lat="47.1108" lon="6.15756">
        <ele>499</ele>
        <time>2015-04-26T09:59:16.000Z</time>
      </trkpt>
      <trkpt lat="47.1108" lon="6.15756">
        <ele>499</ele>
        <time>2015-04-26T09:59:18.000Z</time>
      </trkpt>
      <trkpt lat="47.1108" lon="6.15756">
        <ele>499</ele>
        <time>2015-04-26T09:59:20.000Z</time>
      </trkpt>
      <trkpt lat="47.1108" lon="6.15756">
        <ele>499</ele>
        <time>2015-04-26T09:59:22.000Z</time>
      </trkpt>
      <trkpt lat="47.1108" lon="6.15756">
        <ele>499</ele>
        <time>2015-04-26T09:59:28.000Z</time>
      </trkpt>
      <trkpt lat="47.1108" lon="6.15756">
        <ele>499</ele>
        <time>2015-04-26T09:59:30.000Z</time>
      </trkpt>
      <trkpt lat="47.1108" lon="6.15756">
        <ele>499</ele>
        <time>2015-04-26T09:59:36.000Z</time>
      </trkpt>
      <trkpt lat="47.1108" lon="6.15756">
        <ele>499</ele>
        <time>2015-04-26T09:59:38.000Z</time>
      </trkpt>
      <trkpt lat="47.11022" lon="6.15652">
        <ele>507</ele>
        <time>2015-04-26T09:59:42.000Z</time>
      </trkpt>
      <trkpt lat="47.11012" lon="6.15637">
        <ele>510</ele>
        <time>2015-04-26T09:59:46.000Z</time>
      </trkpt>
      <trkpt lat="47.11012" lon="6.15637">
        <ele>510</ele>
        <time>2015-04-26T09:59:48.000Z</time>
      </trkpt>
      <trkpt lat="47.11002" lon="6.1562">
        <ele>509</ele>
        <time>2015-04-26T09:59:50.000Z</time>
      </trkpt>
      <trkpt lat="47.11002" lon="6.1562">
        <ele>509</ele>
        <time>2015-04-26T09:59:52.000Z</time>
      </trkpt>
      <trkpt lat="47.10977" lon="6.15576">
        <ele>507</ele>
        <time>2015-04-26T10:00:00.000Z</time>
      </trkpt>
      <trkpt lat="47.10977" lon="6.15576">
        <ele>507</ele>
        <time>2015-04-26T10:00:02.000Z</time>
      </trkpt>
      <trkpt lat="47.10968" lon="6.15562">
        <ele>510</ele>
        <time>2015-04-26T10:00:04.000Z</time>
      </trkpt>
      <trkpt lat="47.10968" lon="6.15562">
        <ele>510</ele>
        <time>2015-04-26T10:00:06.000Z</time>
      </trkpt>
      <trkpt lat="47.10968" lon="6.15562">
        <ele>510</ele>
        <time>2015-04-26T10:00:08.000Z</time>
      </trkpt>
      <trkpt lat="47.10945" lon="6.15531">
        <ele>507</ele>
        <time>2015-04-26T10:00:12.000Z</time>
      </trkpt>
      <trkpt lat="47.10935" lon="6.15516">
        <ele>509</ele>
        <time>2015-04-26T10:00:16.000Z</time>
      </trkpt>
      <trkpt lat="47.10935" lon="6.15516">
        <ele>509</ele>
        <time>2015-04-26T10:00:18.000Z</time>
      </trkpt>
      <trkpt lat="47.10926" lon="6.155">
        <ele>511</ele>
        <time>2015-04-26T10:00:20.000Z</time>
      </trkpt>
      <trkpt lat="47.10926" lon="6.155">
        <ele>511</ele>
        <time>2015-04-26T10:00:22.000Z</time>
      </trkpt>
      <trkpt lat="47.10917" lon="6.15483">
        <ele>510</ele>
        <time>2015-04-26T10:00:28.000Z</time>
      </trkpt>
      <trkpt lat="47.1091" lon="6.15471">
        <ele>511</ele>
        <time>2015-04-26T10:00:30.000Z</time>
      </trkpt>
      <trkpt lat="47.1091" lon="6.15471">
        <ele>511</ele>
        <time>2015-04-26T10:00:32.000Z</time>
      </trkpt>
      <trkpt lat="47.1091" lon="6.15471">
        <ele>511</ele>
        <time>2015-04-26T10:00:34.000Z</time>
      </trkpt>
      <trkpt lat="47.1091" lon="6.15471">
        <ele>511</ele>
        <time>2015-04-26T10:00:36.000Z</time>
      </trkpt>
      <trkpt lat="47.1091" lon="6.15471">
        <ele>511</ele>
        <time>2015-04-26T10:00:38.000Z</time>
      </trkpt>
      <trkpt lat="47.1091" lon="6.15471">
        <ele>511</ele>
        <time>2015-04-26T10:00:40.000Z</time>
      </trkpt>
      <trkpt lat="47.10896" lon="6.1544">
        <ele>511</ele>
        <time>2015-04-26T10:00:46.000Z</time>
      </trkpt>
      <trkpt lat="47.10888" lon="6.15422">
        <ele>511</ele>
        <time>2015-04-26T10:00:48.000Z</time>
      </trkpt>
      <trkpt lat="47.10883" lon="6.15409">
        <ele>511</ele>
        <time>2015-04-26T10:00:50.000Z</time>
      </trkpt>
      <trkpt lat="47.1088" lon="6.15399">
        <ele>512</ele>
        <time>2015-04-26T10:00:52.000Z</time>
      </trkpt>
      <trkpt lat="47.10876" lon="6.15391">
        <ele>511</ele>
        <time>2015-04-26T10:00:54.000Z</time>
      </trkpt>
      <trkpt lat="47.1087" lon="6.15376">
        <ele>512</ele>
        <time>2015-04-26T10:00:56.000Z</time>
      </trkpt>
      <trkpt lat="47.10864" lon="6.15359">
        <ele>516</ele>
        <time>2015-04-26T10:01:00.000Z</time>
      </trkpt>
      <trkpt lat="47.10859" lon="6.15343">
        <ele>516</ele>
        <time>2015-04-26T10:01:04.000Z</time>
      </trkpt>
      <trkpt lat="47.10856" lon="6.15329">
        <ele>514</ele>
        <time>2015-04-26T10:01:08.000Z</time>
      </trkpt>
      <trkpt lat="47.10856" lon="6.15329">
        <ele>514</ele>
        <time>2015-04-26T10:01:10.000Z</time>
      </trkpt>
      <trkpt lat="47.10856" lon="6.15329">
        <ele>514</ele>
        <time>2015-04-26T10:01:12.000Z</time>
      </trkpt>
      <trkpt lat="47.10856" lon="6.15329">
        <ele>514</ele>
        <time>2015-04-26T10:01:14.000Z</time>
      </trkpt>
      <trkpt lat="47.10856" lon="6.15329">
        <ele>514</ele>
        <time>2015-04-26T10:01:16.000Z</time>
      </trkpt>
      <trkpt lat="47.10856" lon="6.15329">
        <ele>514</ele>
        <time>2015-04-26T10:01:18.000Z</time>
      </trkpt>
      <trkpt lat="47.10844" lon="6.15272">
        <ele>514</ele>
        <time>2015-04-26T10:01:22.000Z</time>
      </trkpt>
      <trkpt lat="47.10836" lon="6.15253">
        <ele>514</ele>
        <time>2015-04-26T10:01:26.000Z</time>
      </trkpt>
      <trkpt lat="47.1083" lon="6.15236">
        <ele>515</ele>
        <time>2015-04-26T10:01:30.000Z</time>
      </trkpt>
      <trkpt lat="47.1083" lon="6.15236">
        <ele>515</ele>
        <time>2015-04-26T10:01:32.000Z</time>
      </trkpt>
      <trkpt lat="47.10825" lon="6.15217">
        <ele>516</ele>
        <time>2015-04-26T10:01:34.000Z</time>
      </trkpt>
      <trkpt lat="47.10822" lon="6.15196">
        <ele>517</ele>
        <time>2015-04-26T10:01:38.000Z</time>
      </trkpt>
      <trkpt lat="47.10822" lon="6.15196">
        <ele>517</ele>
        <time>2015-04-26T10:01:40.000Z</time>
      </trkpt>
      <trkpt lat="47.10822" lon="6.15196">
        <ele>517</ele>
        <time>2015-04-26T10:01:42.000Z</time>
      </trkpt>
      <trkpt lat="47.10822" lon="6.15196">
        <ele>517</ele>
        <time>2015-04-26T10:01:44.000Z</time>
      </trkpt>
      <trkpt lat="47.10822" lon="6.15196">
        <ele>517</ele>
        <time>2015-04-26T10:01:46.000Z</time>
      </trkpt>
      <trkpt lat="47.10822" lon="6.15196">
        <ele>517</ele>
        <time>2015-04-26T10:01:48.000Z</time>
      </trkpt>
      <trkpt lat="47.10822" lon="6.15196">
        <ele>517</ele>
        <time>2015-04-26T10:01:50.000Z</time>
      </trkpt>
      <trkpt lat="47.10815" lon="6.15131">
        <ele>518</ele>
        <time>2015-04-26T10:01:52.000Z</time>
      </trkpt>
      <trkpt lat="47.10813" lon="6.15112">
        <ele>517</ele>
        <time>2015-04-26T10:01:56.000Z</time>
      </trkpt>
      <trkpt lat="47.10813" lon="6.15112">
        <ele>517</ele>
        <time>2015-04-26T10:01:58.000Z</time>
      </trkpt>
      <trkpt lat="47.10813" lon="6.15112">
        <ele>517</ele>
        <time>2015-04-26T10:02:00.000Z</time>
      </trkpt>
      <trkpt lat="47.10813" lon="6.15112">
        <ele>517</ele>
        <time>2015-04-26T10:02:02.000Z</time>
      </trkpt>
      <trkpt lat="47.10813" lon="6.15112">
        <ele>517</ele>
        <time>2015-04-26T10:02:04.000Z</time>
      </trkpt>
      <trkpt lat="47.10813" lon="6.15112">
        <ele>517</ele>
        <time>2015-04-26T10:02:06.000Z</time>
      </trkpt>
      <trkpt lat="47.10813" lon="6.15112">
        <ele>517</ele>
        <time>2015-04-26T10:02:08.000Z</time>
      </trkpt>
      <trkpt lat="47.10813" lon="6.15112">
        <ele>517</ele>
        <time>2015-04-26T10:02:12.000Z</time>
      </trkpt>
      <trkpt lat="47.10813" lon="6.15112">
        <ele>517</ele>
        <time>2015-04-26T10:02:14.000Z</time>
      </trkpt>
      <trkpt lat="47.10813" lon="6.15112">
        <ele>517</ele>
        <time>2015-04-26T10:02:22.000Z</time>
      </trkpt>
      <trkpt lat="47.10813" lon="6.15112">
        <ele>517</ele>
        <time>2015-04-26T10:02:26.000Z</time>
      </trkpt>
      <trkpt lat="47.10839" lon="6.15075">
        <ele>513</ele>
        <time>2015-04-26T10:02:30.000Z</time>
      </trkpt>
      <trkpt lat="47.10855" lon="6.15054">
        <ele>514</ele>
        <time>2015-04-26T10:02:32.000Z</time>
      </trkpt>
      <trkpt lat="47.10867" lon="6.15041">
        <ele>515</ele>
        <time>2015-04-26T10:02:34.000Z</time>
      </trkpt>
      <trkpt lat="47.10876" lon="6.15033">
        <ele>515</ele>
        <time>2015-04-26T10:02:36.000Z</time>
      </trkpt>
      <trkpt lat="47.10885" lon="6.15025">
        <ele>516</ele>
        <time>2015-04-26T10:02:38.000Z</time>
      </trkpt>
      <trkpt lat="47.109" lon="6.15012">
        <ele>516</ele>
        <time>2015-04-26T10:02:40.000Z</time>
      </trkpt>
      <trkpt lat="47.10907" lon="6.15004">
        <ele>515</ele>
        <time>2015-04-26T10:02:42.000Z</time>
      </trkpt>
      <trkpt lat="47.10914" lon="6.14996">
        <ele>514</ele>
        <time>2015-04-26T10:02:44.000Z</time>
      </trkpt>
      <trkpt lat="47.10921" lon="6.14987">
        <ele>516</ele>
        <time>2015-04-26T10:02:46.000Z</time>
      </trkpt>
      <trkpt lat="47.10929" lon="6.14978">
        <ele>515</ele>
        <time>2015-04-26T10:02:48.000Z</time>
      </trkpt>
      <trkpt lat="47.10936" lon="6.14972">
        <ele>515</ele>
        <time>2015-04-26T10:02:50.000Z</time>
      </trkpt>
      <trkpt lat="47.10944" lon="6.14967">
        <ele>514</ele>
        <time>2015-04-26T10:02:52.000Z</time>
      </trkpt>
      <trkpt lat="47.10954" lon="6.14962">
        <ele>515</ele>
        <time>2015-04-26T10:02:54.000Z</time>
      </trkpt>
      <trkpt lat="47.10954" lon="6.14962">
        <ele>515</ele>
        <time>2015-04-26T10:02:56.000Z</time>
      </trkpt>
      <trkpt lat="47.10968" lon="6.14958">
        <ele>510</ele>
        <time>2015-04-26T10:02:58.000Z</time>
      </trkpt>
      <trkpt lat="47.10968" lon="6.14958">
        <ele>510</ele>
        <time>2015-04-26T10:03:00.000Z</time>
      </trkpt>
      <trkpt lat="47.10968" lon="6.14958">
        <ele>510</ele>
        <time>2015-04-26T10:03:02.000Z</time>
      </trkpt>
      <trkpt lat="47.10968" lon="6.14958">
        <ele>510</ele>
        <time>2015-04-26T10:03:04.000Z</time>
      </trkpt>
      <trkpt lat="47.10968" lon="6.14958">
        <ele>510</ele>
        <time>2015-04-26T10:03:06.000Z</time>
      </trkpt>
      <trkpt lat="47.10968" lon="6.14958">
        <ele>510</ele>
        <time>2015-04-26T10:03:08.000Z</time>
      </trkpt>
      <trkpt lat="47.10968" lon="6.14958">
        <ele>510</ele>
        <time>2015-04-26T10:03:10.000Z</time>
      </trkpt>
      <trkpt lat="47.10968" lon="6.14958">
        <ele>510</ele>
        <time>2015-04-26T10:03:12.000Z</time>
      </trkpt>
      <trkpt lat="47.10968" lon="6.14958">
        <ele>510</ele>
        <time>2015-04-26T10:03:14.000Z</time>
      </trkpt>
      <trkpt lat="47.10968" lon="6.14958">
        <ele>510</ele>
        <time>2015-04-26T10:03:16.000Z</time>
      </trkpt>
      <trkpt lat="47.10968" lon="6.14958">
        <ele>510</ele>
        <time>2015-04-26T10:03:18.000Z</time>
      </trkpt>
      <trkpt lat="47.10968" lon="6.14958">
        <ele>510</ele>
        <time>2015-04-26T10:03:20.000Z</time>
      </trkpt>
      <trkpt lat="47.10968" lon="6.14958">
        <ele>510</ele>
        <time>2015-04-26T10:03:22.000Z</time>
      </trkpt>
      <trkpt lat="47.10968" lon="6.14958">
        <ele>510</ele>
        <time>2015-04-26T10:03:24.000Z</time>
      </trkpt>
      <trkpt lat="47.11076" lon="6.1503">
        <ele>510</ele>
        <time>2015-04-26T10:03:28.000Z</time>
      </trkpt>
      <trkpt lat="47.11087" lon="6.1504">
        <ele>515</ele>
        <time>2015-04-26T10:03:30.000Z</time>
      </trkpt>
      <trkpt lat="47.11097" lon="6.15051">
        <ele>515</ele>
        <time>2015-04-26T10:03:32.000Z</time>
      </trkpt>
      <trkpt lat="47.11105" lon="6.15064">
        <ele>515</ele>
        <time>2015-04-26T10:03:34.000Z</time>
      </trkpt>
      <trkpt lat="47.11117" lon="6.15077">
        <ele>513</ele>
        <time>2015-04-26T10:03:36.000Z</time>
      </trkpt>
      <trkpt lat="47.11131" lon="6.15088">
        <ele>511</ele>
        <time>2015-04-26T10:03:38.000Z</time>
      </trkpt>
      <trkpt lat="47.11141" lon="6.15098">
        <ele>515</ele>
        <time>2015-04-26T10:03:40.000Z</time>
      </trkpt>
      <trkpt lat="47.11149" lon="6.15105">
        <ele>516</ele>
        <time>2015-04-26T10:03:42.000Z</time>
      </trkpt>
      <trkpt lat="47.11149" lon="6.15105">
        <ele>516</ele>
        <time>2015-04-26T10:03:44.000Z</time>
      </trkpt>
      <trkpt lat="47.11149" lon="6.15105">
        <ele>516</ele>
        <time>2015-04-26T10:03:46.000Z</time>
      </trkpt>
      <trkpt lat="47.11189" lon="6.15131">
        <ele>518</ele>
        <time>2015-04-26T10:03:50.000Z</time>
      </trkpt>
      <trkpt lat="47.11203" lon="6.1514">
        <ele>522</ele>
        <time>2015-04-26T10:03:52.000Z</time>
      </trkpt>
      <trkpt lat="47.11217" lon="6.15145">
        <ele>521</ele>
        <time>2015-04-26T10:03:54.000Z</time>
      </trkpt>
      <trkpt lat="47.11232" lon="6.15148">
        <ele>521</ele>
        <time>2015-04-26T10:03:56.000Z</time>
      </trkpt>
      <trkpt lat="47.11247" lon="6.15148">
        <ele>522</ele>
        <time>2015-04-26T10:03:58.000Z</time>
      </trkpt>
      <trkpt lat="47.11247" lon="6.15148">
        <ele>522</ele>
        <time>2015-04-26T10:04:00.000Z</time>
      </trkpt>
      <trkpt lat="47.11247" lon="6.15148">
        <ele>522</ele>
        <time>2015-04-26T10:04:02.000Z</time>
      </trkpt>
      <trkpt lat="47.11247" lon="6.15148">
        <ele>522</ele>
        <time>2015-04-26T10:04:04.000Z</time>
      </trkpt>
      <trkpt lat="47.11247" lon="6.15148">
        <ele>522</ele>
        <time>2015-04-26T10:04:06.000Z</time>
      </trkpt>
      <trkpt lat="47.11247" lon="6.15148">
        <ele>522</ele>
        <time>2015-04-26T10:04:08.000Z</time>
      </trkpt>
      <trkpt lat="47.11247" lon="6.15148">
        <ele>522</ele>
        <time>2015-04-26T10:04:10.000Z</time>
      </trkpt>
      <trkpt lat="47.11247" lon="6.15148">
        <ele>522</ele>
        <time>2015-04-26T10:04:12.000Z</time>
      </trkpt>
      <trkpt lat="47.11247" lon="6.15148">
        <ele>522</ele>
        <time>2015-04-26T10:04:14.000Z</time>
      </trkpt>
      <trkpt lat="47.11331" lon="6.15077">
        <ele>511</ele>
        <time>2015-04-26T10:04:18.000Z</time>
      </trkpt>
      <trkpt lat="47.1134" lon="6.15066">
        <ele>515</ele>
        <time>2015-04-26T10:04:20.000Z</time>
      </trkpt>
      <trkpt lat="47.1134" lon="6.15066">
        <ele>515</ele>
        <time>2015-04-26T10:04:22.000Z</time>
      </trkpt>
      <trkpt lat="47.1134" lon="6.15066">
        <ele>515</ele>
        <time>2015-04-26T10:04:25.000Z</time>
      </trkpt>
      <trkpt lat="47.11351" lon="6.15051">
        <ele>520</ele>
        <time>2015-04-26T10:04:38.000Z</time>
      </trkpt>
      <trkpt lat="47.11351" lon="6.15051">
        <ele>520</ele>
        <time>2015-04-26T10:04:42.000Z</time>
      </trkpt>
      <trkpt lat="47.1134" lon="6.15044">
        <ele>514</ele>
        <time>2015-04-26T10:04:46.000Z</time>
      </trkpt>
      <trkpt lat="47.1133" lon="6.1504">
        <ele>513</ele>
        <time>2015-04-26T10:04:48.000Z</time>
      </trkpt>
      <trkpt lat="47.11322" lon="6.15037">
        <ele>511</ele>
        <time>2015-04-26T10:04:50.000Z</time>
      </trkpt>
      <trkpt lat="47.11313" lon="6.15034">
        <ele>512</ele>
        <time>2015-04-26T10:04:52.000Z</time>
      </trkpt>
      <trkpt lat="47.11304" lon="6.1503">
        <ele>514</ele>
        <time>2015-04-26T10:04:54.000Z</time>
      </trkpt>
      <trkpt lat="47.11288" lon="6.15017">
        <ele>511</ele>
        <time>2015-04-26T10:04:56.000Z</time>
      </trkpt>
      <trkpt lat="47.11288" lon="6.15017">
        <ele>511</ele>
        <time>2015-04-26T10:04:58.000Z</time>
      </trkpt>
      <trkpt lat="47.11288" lon="6.15017">
        <ele>511</ele>
        <time>2015-04-26T10:05:00.000Z</time>
      </trkpt>
      <trkpt lat="47.11288" lon="6.15017">
        <ele>511</ele>
        <time>2015-04-26T10:05:02.000Z</time>
      </trkpt>
      <trkpt lat="47.11288" lon="6.15017">
        <ele>511</ele>
        <time>2015-04-26T10:05:06.000Z</time>
      </trkpt>
      <trkpt lat="47.11288" lon="6.15017">
        <ele>511</ele>
        <time>2015-04-26T10:05:08.000Z</time>
      </trkpt>
      <trkpt lat="47.11288" lon="6.15017">
        <ele>511</ele>
        <time>2015-04-26T10:05:10.000Z</time>
      </trkpt>
      <trkpt lat="47.11288" lon="6.15017">
        <ele>511</ele>
        <time>2015-04-26T10:05:12.000Z</time>
      </trkpt>
      <trkpt lat="47.11288" lon="6.15017">
        <ele>511</ele>
        <time>2015-04-26T10:05:14.000Z</time>
      </trkpt>
      <trkpt lat="47.11288" lon="6.14918">
        <ele>497</ele>
        <time>2015-04-26T10:05:19.000Z</time>
      </trkpt>
      <trkpt lat="47.11296" lon="6.14905">
        <ele>493</ele>
        <time>2015-04-26T10:05:23.000Z</time>
      </trkpt>
      <trkpt lat="47.11308" lon="6.14897">
        <ele>494</ele>
        <time>2015-04-26T10:05:27.000Z</time>
      </trkpt>
      <trkpt lat="47.11324" lon="6.14889">
        <ele>502</ele>
        <time>2015-04-26T10:05:31.000Z</time>
      </trkpt>
      <trkpt lat="47.11338" lon="6.1488">
        <ele>503</ele>
        <time>2015-04-26T10:05:35.000Z</time>
      </trkpt>
      <trkpt lat="47.11338" lon="6.1488">
        <ele>503</ele>
        <time>2015-04-26T10:05:37.000Z</time>
      </trkpt>
      <trkpt lat="47.11353" lon="6.14875">
        <ele>508</ele>
        <time>2015-04-26T10:05:39.000Z</time>
      </trkpt>
      <trkpt lat="47.11353" lon="6.14875">
        <ele>508</ele>
        <time>2015-04-26T10:05:41.000Z</time>
      </trkpt>
      <trkpt lat="47.11369" lon="6.14864">
        <ele>513</ele>
        <time>2015-04-26T10:05:43.000Z</time>
      </trkpt>
      <trkpt lat="47.11377" lon="6.14857">
        <ele>509</ele>
        <time>2015-04-26T10:05:45.000Z</time>
      </trkpt>
      <trkpt lat="47.11393" lon="6.14845">
        <ele>510</ele>
        <time>2015-04-26T10:05:49.000Z</time>
      </trkpt>
      <trkpt lat="47.11404" lon="6.14841">
        <ele>513</ele>
        <time>2015-04-26T10:05:51.000Z</time>
      </trkpt>
      <trkpt lat="47.11414" lon="6.14838">
        <ele>514</ele>
        <time>2015-04-26T10:05:53.000Z</time>
      </trkpt>
      <trkpt lat="47.11422" lon="6.14831">
        <ele>510</ele>
        <time>2015-04-26T10:05:55.000Z</time>
      </trkpt>
      <trkpt lat="47.1143" lon="6.14824">
        <ele>511</ele>
        <time>2015-04-26T10:05:57.000Z</time>
      </trkpt>
      <trkpt lat="47.1144" lon="6.14825">
        <ele>506</ele>
        <time>2015-04-26T10:05:59.000Z</time>
      </trkpt>
      <trkpt lat="47.1145" lon="6.14827">
        <ele>507</ele>
        <time>2015-04-26T10:06:01.000Z</time>
      </trkpt>
      <trkpt lat="47.11467" lon="6.14835">
        <ele>504</ele>
        <time>2015-04-26T10:06:05.000Z</time>
      </trkpt>
      <trkpt lat="47.11467" lon="6.14835">
        <ele>504</ele>
        <time>2015-04-26T10:06:07.000Z</time>
      </trkpt>
      <trkpt lat="47.11495" lon="6.14858">
        <ele>510</ele>
        <time>2015-04-26T10:06:11.000Z</time>
      </trkpt>
      <trkpt lat="47.11507" lon="6.14868">
        <ele>508</ele>
        <time>2015-04-26T10:06:13.000Z</time>
      </trkpt>
      <trkpt lat="47.11507" lon="6.14868">
        <ele>508</ele>
        <time>2015-04-26T10:06:15.000Z</time>
      </trkpt>
      <trkpt lat="47.11507" lon="6.14868">
        <ele>508</ele>
        <time>2015-04-26T10:06:17.000Z</time>
      </trkpt>
      <trkpt lat="47.11507" lon="6.14868">
        <ele>508</ele>
        <time>2015-04-26T10:06:19.000Z</time>
      </trkpt>
      <trkpt lat="47.11507" lon="6.14868">
        <ele>508</ele>
        <time>2015-04-26T10:06:21.000Z</time>
      </trkpt>
      <trkpt lat="47.11507" lon="6.14868">
        <ele>508</ele>
        <time>2015-04-26T10:06:23.000Z</time>
      </trkpt>
      <trkpt lat="47.11507" lon="6.14868">
        <ele>508</ele>
        <time>2015-04-26T10:06:25.000Z</time>
      </trkpt>
      <trkpt lat="47.11507" lon="6.14868">
        <ele>508</ele>
        <time>2015-04-26T10:06:27.000Z</time>
      </trkpt>
      <trkpt lat="47.1155" lon="6.1483">
        <ele>514</ele>
        <time>2015-04-26T10:06:29.000Z</time>
      </trkpt>
      <trkpt lat="47.11552" lon="6.14812">
        <ele>512</ele>
        <time>2015-04-26T10:06:31.000Z</time>
      </trkpt>
      <trkpt lat="47.11551" lon="6.14795">
        <ele>511</ele>
        <time>2015-04-26T10:06:33.000Z</time>
      </trkpt>
      <trkpt lat="47.11552" lon="6.14782">
        <ele>509</ele>
        <time>2015-04-26T10:06:35.000Z</time>
      </trkpt>
      <trkpt lat="47.11552" lon="6.14782">
        <ele>509</ele>
        <time>2015-04-26T10:06:37.000Z</time>
      </trkpt>
      <trkpt lat="47.11552" lon="6.14782">
        <ele>509</ele>
        <time>2015-04-26T10:06:39.000Z</time>
      </trkpt>
      <trkpt lat="47.11552" lon="6.14782">
        <ele>509</ele>
        <time>2015-04-26T10:06:41.000Z</time>
      </trkpt>
      <trkpt lat="47.11552" lon="6.14782">
        <ele>509</ele>
        <time>2015-04-26T10:06:43.000Z</time>
      </trkpt>
      <trkpt lat="47.11552" lon="6.14782">
        <ele>509</ele>
        <time>2015-04-26T10:06:46.000Z</time>
      </trkpt>
      <trkpt lat="47.11552" lon="6.14782">
        <ele>509</ele>
        <time>2015-04-26T10:06:48.000Z</time>
      </trkpt>
      <trkpt lat="47.11552" lon="6.14782">
        <ele>509</ele>
        <time>2015-04-26T10:06:50.000Z</time>
      </trkpt>
      <trkpt lat="47.11563" lon="6.14732">
        <ele>510</ele>
        <time>2015-04-26T10:06:54.000Z</time>
      </trkpt>
      <trkpt lat="47.11571" lon="6.14702">
        <ele>508</ele>
        <time>2015-04-26T10:06:56.000Z</time>
      </trkpt>
      <trkpt lat="47.11579" lon="6.14681">
        <ele>505</ele>
        <time>2015-04-26T10:06:58.000Z</time>
      </trkpt>
      <trkpt lat="47.11586" lon="6.14667">
        <ele>507</ele>
        <time>2015-04-26T10:07:00.000Z</time>
      </trkpt>
      <trkpt lat="47.11591" lon="6.14656">
        <ele>506</ele>
        <time>2015-04-26T10:07:02.000Z</time>
      </trkpt>
      <trkpt lat="47.11591" lon="6.14656">
        <ele>506</ele>
        <time>2015-04-26T10:07:04.000Z</time>
      </trkpt>
      <trkpt lat="47.11591" lon="6.14656">
        <ele>506</ele>
        <time>2015-04-26T10:07:06.000Z</time>
      </trkpt>
      <trkpt lat="47.11617" lon="6.14611">
        <ele>513</ele>
        <time>2015-04-26T10:07:10.000Z</time>
      </trkpt>
      <trkpt lat="47.11625" lon="6.146">
        <ele>516</ele>
        <time>2015-04-26T10:07:12.000Z</time>
      </trkpt>
      <trkpt lat="47.11633" lon="6.14588">
        <ele>515</ele>
        <time>2015-04-26T10:07:14.000Z</time>
      </trkpt>
      <trkpt lat="47.11642" lon="6.14576">
        <ele>514</ele>
        <time>2015-04-26T10:07:16.000Z</time>
      </trkpt>
      <trkpt lat="47.1165" lon="6.14564">
        <ele>512</ele>
        <time>2015-04-26T10:07:18.000Z</time>
      </trkpt>
      <trkpt lat="47.1166" lon="6.14558">
        <ele>513</ele>
        <time>2015-04-26T10:07:20.000Z</time>
      </trkpt>
      <trkpt lat="47.1167" lon="6.14553">
        <ele>514</ele>
        <time>2015-04-26T10:07:22.000Z</time>
      </trkpt>
      <trkpt lat="47.11681" lon="6.14549">
        <ele>511</ele>
        <time>2015-04-26T10:07:24.000Z</time>
      </trkpt>
      <trkpt lat="47.11681" lon="6.14549">
        <ele>511</ele>
        <time>2015-04-26T10:07:26.000Z</time>
      </trkpt>
      <trkpt lat="47.11681" lon="6.14549">
        <ele>511</ele>
        <time>2015-04-26T10:07:28.000Z</time>
      </trkpt>
      <trkpt lat="47.11681" lon="6.14549">
        <ele>511</ele>
        <time>2015-04-26T10:07:34.000Z</time>
      </trkpt>
      <trkpt lat="47.11758" lon="6.14561">
        <ele>511</ele>
        <time>2015-04-26T10:07:40.000Z</time>
      </trkpt>
      <trkpt lat="47.11768" lon="6.1457">
        <ele>510</ele>
        <time>2015-04-26T10:07:42.000Z</time>
      </trkpt>
      <trkpt lat="47.11776" lon="6.14582">
        <ele>509</ele>
        <time>2015-04-26T10:07:44.000Z</time>
      </trkpt>
      <trkpt lat="47.11783" lon="6.14592">
        <ele>508</ele>
        <time>2015-04-26T10:07:46.000Z</time>
      </trkpt>
      <trkpt lat="47.11792" lon="6.146">
        <ele>503</ele>
        <time>2015-04-26T10:07:48.000Z</time>
      </trkpt>
      <trkpt lat="47.11792" lon="6.146">
        <ele>503</ele>
        <time>2015-04-26T10:07:50.000Z</time>
      </trkpt>
      <trkpt lat="47.11792" lon="6.146">
        <ele>503</ele>
        <time>2015-04-26T10:07:52.000Z</time>
      </trkpt>
      <trkpt lat="47.11792" lon="6.146">
        <ele>503</ele>
        <time>2015-04-26T10:07:54.000Z</time>
      </trkpt>
      <trkpt lat="47.11792" lon="6.146">
        <ele>503</ele>
        <time>2015-04-26T10:07:56.000Z</time>
      </trkpt>
      <trkpt lat="47.11792" lon="6.146">
        <ele>503</ele>
        <time>2015-04-26T10:07:58.000Z</time>
      </trkpt>
      <trkpt lat="47.11792" lon="6.146">
        <ele>503</ele>
        <time>2015-04-26T10:08:00.000Z</time>
      </trkpt>
      <trkpt lat="47.11792" lon="6.146">
        <ele>503</ele>
        <time>2015-04-26T10:08:02.000Z</time>
      </trkpt>
      <trkpt lat="47.11857" lon="6.14663">
        <ele>482</ele>
        <time>2015-04-26T10:08:06.000Z</time>
      </trkpt>
      <trkpt lat="47.11864" lon="6.14673">
        <ele>489</ele>
        <time>2015-04-26T10:08:08.000Z</time>
      </trkpt>
      <trkpt lat="47.11872" lon="6.14692">
        <ele>499</ele>
        <time>2015-04-26T10:08:12.000Z</time>
      </trkpt>
      <trkpt lat="47.11872" lon="6.14692">
        <ele>499</ele>
        <time>2015-04-26T10:08:14.000Z</time>
      </trkpt>
      <trkpt lat="47.11872" lon="6.14692">
        <ele>499</ele>
        <time>2015-04-26T10:08:16.000Z</time>
      </trkpt>
      <trkpt lat="47.11872" lon="6.14692">
        <ele>499</ele>
        <time>2015-04-26T10:08:18.000Z</time>
      </trkpt>
      <trkpt lat="47.11868" lon="6.14743">
        <ele>508</ele>
        <time>2015-04-26T10:08:22.000Z</time>
      </trkpt>
      <trkpt lat="47.11863" lon="6.14757">
        <ele>509</ele>
        <time>2015-04-26T10:08:24.000Z</time>
      </trkpt>
      <trkpt lat="47.11858" lon="6.14771">
        <ele>514</ele>
        <time>2015-04-26T10:08:26.000Z</time>
      </trkpt>
      <trkpt lat="47.11853" lon="6.14784">
        <ele>511</ele>
        <time>2015-04-26T10:08:28.000Z</time>
      </trkpt>
      <trkpt lat="47.11849" lon="6.148">
        <ele>510</ele>
        <time>2015-04-26T10:08:30.000Z</time>
      </trkpt>
      <trkpt lat="47.11845" lon="6.14815">
        <ele>507</ele>
        <time>2015-04-26T10:08:32.000Z</time>
      </trkpt>
      <trkpt lat="47.11843" lon="6.14833">
        <ele>508</ele>
        <time>2015-04-26T10:08:34.000Z</time>
      </trkpt>
      <trkpt lat="47.11839" lon="6.14851">
        <ele>507</ele>
        <time>2015-04-26T10:08:36.000Z</time>
      </trkpt>
      <trkpt lat="47.11837" lon="6.14866">
        <ele>510</ele>
        <time>2015-04-26T10:08:38.000Z</time>
      </trkpt>
      <trkpt lat="47.11837" lon="6.14866">
        <ele>510</ele>
        <time>2015-04-26T10:08:40.000Z</time>
      </trkpt>
      <trkpt lat="47.11837" lon="6.14866">
        <ele>510</ele>
        <time>2015-04-26T10:08:42.000Z</time>
      </trkpt>
      <trkpt lat="47.11837" lon="6.14866">
        <ele>510</ele>
        <time>2015-04-26T10:08:45.000Z</time>
      </trkpt>
      <trkpt lat="47.11837" lon="6.14866">
        <ele>510</ele>
        <time>2015-04-26T10:08:48.000Z</time>
      </trkpt>
      <trkpt lat="47.11857" lon="6.14885">
        <ele>507</ele>
        <time>2015-04-26T10:08:54.000Z</time>
      </trkpt>
      <trkpt lat="47.11868" lon="6.14863">
        <ele>507</ele>
        <time>2015-04-26T10:08:58.000Z</time>
      </trkpt>
      <trkpt lat="47.1187" lon="6.14853">
        <ele>505</ele>
        <time>2015-04-26T10:09:02.000Z</time>
      </trkpt>
      <trkpt lat="47.1187" lon="6.14853">
        <ele>505</ele>
        <time>2015-04-26T10:09:04.000Z</time>
      </trkpt>
      <trkpt lat="47.1187" lon="6.14853">
        <ele>505</ele>
        <time>2015-04-26T10:09:06.000Z</time>
      </trkpt>
      <trkpt lat="47.1187" lon="6.14853">
        <ele>505</ele>
        <time>2015-04-26T10:09:08.000Z</time>
      </trkpt>
      <trkpt lat="47.1187" lon="6.14853">
        <ele>505</ele>
        <time>2015-04-26T10:09:10.000Z</time>
      </trkpt>
      <trkpt lat="47.1187" lon="6.14853">
        <ele>505</ele>
        <time>2015-04-26T10:09:12.000Z</time>
      </trkpt>
      <trkpt lat="47.1187" lon="6.14853">
        <ele>505</ele>
        <time>2015-04-26T10:09:14.000Z</time>
      </trkpt>
      <trkpt lat="47.1187" lon="6.14853">
        <ele>505</ele>
        <time>2015-04-26T10:09:16.000Z</time>
      </trkpt>
      <trkpt lat="47.1187" lon="6.14853">
        <ele>505</ele>
        <time>2015-04-26T10:09:18.000Z</time>
      </trkpt>
      <trkpt lat="47.1187" lon="6.14853">
        <ele>505</ele>
        <time>2015-04-26T10:09:20.000Z</time>
      </trkpt>
      <trkpt lat="47.11901" lon="6.14802">
        <ele>515</ele>
        <time>2015-04-26T10:09:24.000Z</time>
      </trkpt>
      <trkpt lat="47.11919" lon="6.14773">
        <ele>516</ele>
        <time>2015-04-26T10:09:26.000Z</time>
      </trkpt>
      <trkpt lat="47.11932" lon="6.14756">
        <ele>515</ele>
        <time>2015-04-26T10:09:28.000Z</time>
      </trkpt>
      <trkpt lat="47.11943" lon="6.14746">
        <ele>515</ele>
        <time>2015-04-26T10:09:30.000Z</time>
      </trkpt>
      <trkpt lat="47.11953" lon="6.14738">
        <ele>518</ele>
        <time>2015-04-26T10:09:32.000Z</time>
      </trkpt>
      <trkpt lat="47.1197" lon="6.14726">
        <ele>516</ele>
        <time>2015-04-26T10:09:34.000Z</time>
      </trkpt>
      <trkpt lat="47.11985" lon="6.14716">
        <ele>517</ele>
        <time>2015-04-26T10:09:38.000Z</time>
      </trkpt>
      <trkpt lat="47.11999" lon="6.14704">
        <ele>516</ele>
        <time>2015-04-26T10:09:42.000Z</time>
      </trkpt>
      <trkpt lat="47.11999" lon="6.14704">
        <ele>516</ele>
        <time>2015-04-26T10:09:44.000Z</time>
      </trkpt>
      <trkpt lat="47.11999" lon="6.14704">
        <ele>516</ele>
        <time>2015-04-26T10:09:46.000Z</time>
      </trkpt>
      <trkpt lat="47.11999" lon="6.14704">
        <ele>516</ele>
        <time>2015-04-26T10:09:48.000Z</time>
      </trkpt>
      <trkpt lat="47.11999" lon="6.14704">
        <ele>516</ele>
        <time>2015-04-26T10:09:50.000Z</time>
      </trkpt>
      <trkpt lat="47.11999" lon="6.14704">
        <ele>516</ele>
        <time>2015-04-26T10:09:52.000Z</time>
      </trkpt>
      <trkpt lat="47.11994" lon="6.14673">
        <ele>515</ele>
        <time>2015-04-26T10:09:58.000Z</time>
      </trkpt>
      <trkpt lat="47.11985" lon="6.14667">
        <ele>511</ele>
        <time>2015-04-26T10:10:00.000Z</time>
      </trkpt>
      <trkpt lat="47.11977" lon="6.14659">
        <ele>509</ele>
        <time>2015-04-26T10:10:02.000Z</time>
      </trkpt>
      <trkpt lat="47.11965" lon="6.14642">
        <ele>510</ele>
        <time>2015-04-26T10:10:06.000Z</time>
      </trkpt>
      <trkpt lat="47.11955" lon="6.14616">
        <ele>514</ele>
        <time>2015-04-26T10:10:10.000Z</time>
      </trkpt>
      <trkpt lat="47.11953" lon="6.14602">
        <ele>511</ele>
        <time>2015-04-26T10:10:12.000Z</time>
      </trkpt>
      <trkpt lat="47.11953" lon="6.14585">
        <ele>513</ele>
        <time>2015-04-26T10:10:14.000Z</time>
      </trkpt>
      <trkpt lat="47.11951" lon="6.14569">
        <ele>514</ele>
        <time>2015-04-26T10:10:16.000Z</time>
      </trkpt>
      <trkpt lat="47.1195" lon="6.14542">
        <ele>518</ele>
        <time>2015-04-26T10:10:20.000Z</time>
      </trkpt>
      <trkpt lat="47.1195" lon="6.14542">
        <ele>518</ele>
        <time>2015-04-26T10:10:22.000Z</time>
      </trkpt>
      <trkpt lat="47.1195" lon="6.14542">
        <ele>518</ele>
        <time>2015-04-26T10:10:24.000Z</time>
      </trkpt>
      <trkpt lat="47.1195" lon="6.14542">
        <ele>518</ele>
        <time>2015-04-26T10:10:26.000Z</time>
      </trkpt>
      <trkpt lat="47.1195" lon="6.14542">
        <ele>518</ele>
        <time>2015-04-26T10:10:28.000Z</time>
      </trkpt>
      <trkpt lat="47.1195" lon="6.14542">
        <ele>518</ele>
        <time>2015-04-26T10:10:30.000Z</time>
      </trkpt>
      <trkpt lat="47.1195" lon="6.14542">
        <ele>518</ele>
        <time>2015-04-26T10:10:32.000Z</time>
      </trkpt>
      <trkpt lat="47.1195" lon="6.14542">
        <ele>518</ele>
        <time>2015-04-26T10:10:34.000Z</time>
      </trkpt>
      <trkpt lat="47.1195" lon="6.14542">
        <ele>518</ele>
        <time>2015-04-26T10:10:36.000Z</time>
      </trkpt>
      <trkpt lat="47.1195" lon="6.14542">
        <ele>518</ele>
        <time>2015-04-26T10:10:38.000Z</time>
      </trkpt>
      <trkpt lat="47.1195" lon="6.14542">
        <ele>518</ele>
        <time>2015-04-26T10:10:40.000Z</time>
      </trkpt>
      <trkpt lat="47.1195" lon="6.14542">
        <ele>518</ele>
        <time>2015-04-26T10:10:42.000Z</time>
      </trkpt>
      <trkpt lat="47.1195" lon="6.14542">
        <ele>518</ele>
        <time>2015-04-26T10:10:44.000Z</time>
      </trkpt>
      <trkpt lat="47.1195" lon="6.14542">
        <ele>518</ele>
        <time>2015-04-26T10:10:46.000Z</time>
      </trkpt>
      <trkpt lat="47.1195" lon="6.14542">
        <ele>518</ele>
        <time>2015-04-26T10:10:48.000Z</time>
      </trkpt>
      <trkpt lat="47.1195" lon="6.14542">
        <ele>518</ele>
        <time>2015-04-26T10:10:50.000Z</time>
      </trkpt>
      <trkpt lat="47.1195" lon="6.14542">
        <ele>518</ele>
        <time>2015-04-26T10:10:52.000Z</time>
      </trkpt>
      <trkpt lat="47.1195" lon="6.14542">
        <ele>518</ele>
        <time>2015-04-26T10:10:54.000Z</time>
      </trkpt>
      <trkpt lat="47.1195" lon="6.14542">
        <ele>518</ele>
        <time>2015-04-26T10:10:56.000Z</time>
      </trkpt>
      <trkpt lat="47.11929" lon="6.14458">
        <ele>523</ele>
        <time>2015-04-26T10:11:00.000Z</time>
      </trkpt>
      <trkpt lat="47.11916" lon="6.14412">
        <ele>523</ele>
        <time>2015-04-26T10:11:02.000Z</time>
      </trkpt>
      <trkpt lat="47.11909" lon="6.14383">
        <ele>522</ele>
        <time>2015-04-26T10:11:04.000Z</time>
      </trkpt>
      <trkpt lat="47.11904" lon="6.14363">
        <ele>521</ele>
        <time>2015-04-26T10:11:06.000Z</time>
      </trkpt>
      <trkpt lat="47.119" lon="6.14347">
        <ele>519</ele>
        <time>2015-04-26T10:11:08.000Z</time>
      </trkpt>
      <trkpt lat="47.11894" lon="6.14317">
        <ele>520</ele>
        <time>2015-04-26T10:11:10.000Z</time>
      </trkpt>
      <trkpt lat="47.11891" lon="6.14291">
        <ele>516</ele>
        <time>2015-04-26T10:11:14.000Z</time>
      </trkpt>
      <trkpt lat="47.11886" lon="6.14265">
        <ele>525</ele>
        <time>2015-04-26T10:11:18.000Z</time>
      </trkpt>
      <trkpt lat="47.11882" lon="6.14251">
        <ele>524</ele>
        <time>2015-04-26T10:11:20.000Z</time>
      </trkpt>
      <trkpt lat="47.11881" lon="6.14236">
        <ele>521</ele>
        <time>2015-04-26T10:11:22.000Z</time>
      </trkpt>
      <trkpt lat="47.11876" lon="6.14221">
        <ele>522</ele>
        <time>2015-04-26T10:11:24.000Z</time>
      </trkpt>
      <trkpt lat="47.11861" lon="6.1419">
        <ele>522</ele>
        <time>2015-04-26T10:11:28.000Z</time>
      </trkpt>
      <trkpt lat="47.11854" lon="6.14179">
        <ele>523</ele>
        <time>2015-04-26T10:11:30.000Z</time>
      </trkpt>
      <trkpt lat="47.11845" lon="6.14168">
        <ele>520</ele>
        <time>2015-04-26T10:11:32.000Z</time>
      </trkpt>
      <trkpt lat="47.11835" lon="6.14162">
        <ele>518</ele>
        <time>2015-04-26T10:11:34.000Z</time>
      </trkpt>
      <trkpt lat="47.11835" lon="6.14162">
        <ele>518</ele>
        <time>2015-04-26T10:11:36.000Z</time>
      </trkpt>
      <trkpt lat="47.11835" lon="6.14162">
        <ele>518</ele>
        <time>2015-04-26T10:11:38.000Z</time>
      </trkpt>
      <trkpt lat="47.11835" lon="6.14162">
        <ele>518</ele>
        <time>2015-04-26T10:11:40.000Z</time>
      </trkpt>
      <trkpt lat="47.11835" lon="6.14162">
        <ele>518</ele>
        <time>2015-04-26T10:11:42.000Z</time>
      </trkpt>
      <trkpt lat="47.11835" lon="6.14162">
        <ele>518</ele>
        <time>2015-04-26T10:11:44.000Z</time>
      </trkpt>
      <trkpt lat="47.11835" lon="6.14162">
        <ele>518</ele>
        <time>2015-04-26T10:11:46.000Z</time>
      </trkpt>
      <trkpt lat="47.11762" lon="6.14157">
        <ele>519</ele>
        <time>2015-04-26T10:11:52.000Z</time>
      </trkpt>
      <trkpt lat="47.11762" lon="6.14157">
        <ele>519</ele>
        <time>2015-04-26T10:11:54.000Z</time>
      </trkpt>
      <trkpt lat="47.11762" lon="6.14157">
        <ele>519</ele>
        <time>2015-04-26T10:11:56.000Z</time>
      </trkpt>
      <trkpt lat="47.11762" lon="6.14157">
        <ele>519</ele>
        <time>2015-04-26T10:11:58.000Z</time>
      </trkpt>
      <trkpt lat="47.11762" lon="6.14157">
        <ele>519</ele>
        <time>2015-04-26T10:12:00.000Z</time>
      </trkpt>
      <trkpt lat="47.11762" lon="6.14157">
        <ele>519</ele>
        <time>2015-04-26T10:12:02.000Z</time>
      </trkpt>
      <trkpt lat="47.11762" lon="6.14157">
        <ele>519</ele>
        <time>2015-04-26T10:12:04.000Z</time>
      </trkpt>
      <trkpt lat="47.11762" lon="6.14157">
        <ele>519</ele>
        <time>2015-04-26T10:12:06.000Z</time>
      </trkpt>
      <trkpt lat="47.11762" lon="6.14157">
        <ele>519</ele>
        <time>2015-04-26T10:12:08.000Z</time>
      </trkpt>
      <trkpt lat="47.11762" lon="6.14157">
        <ele>519</ele>
        <time>2015-04-26T10:12:10.000Z</time>
      </trkpt>
      <trkpt lat="47.11762" lon="6.14157">
        <ele>519</ele>
        <time>2015-04-26T10:12:12.000Z</time>
      </trkpt>
      <trkpt lat="47.11762" lon="6.14157">
        <ele>519</ele>
        <time>2015-04-26T10:12:14.000Z</time>
      </trkpt>
      <trkpt lat="47.11762" lon="6.14157">
        <ele>519</ele>
        <time>2015-04-26T10:12:16.000Z</time>
      </trkpt>
      <trkpt lat="47.11762" lon="6.14157">
        <ele>519</ele>
        <time>2015-04-26T10:12:18.000Z</time>
      </trkpt>
      <trkpt lat="47.11762" lon="6.14157">
        <ele>519</ele>
        <time>2015-04-26T10:12:20.000Z</time>
      </trkpt>
      <trkpt lat="47.11762" lon="6.14157">
        <ele>519</ele>
        <time>2015-04-26T10:12:22.000Z</time>
      </trkpt>
      <trkpt lat="47.11762" lon="6.14157">
        <ele>519</ele>
        <time>2015-04-26T10:12:24.000Z</time>
      </trkpt>
      <trkpt lat="47.11762" lon="6.14157">
        <ele>519</ele>
        <time>2015-04-26T10:12:26.000Z</time>
      </trkpt>
      <trkpt lat="47.11762" lon="6.14157">
        <ele>519</ele>
        <time>2015-04-26T10:12:28.000Z</time>
      </trkpt>
      <trkpt lat="47.11762" lon="6.14157">
        <ele>519</ele>
        <time>2015-04-26T10:12:30.000Z</time>
      </trkpt>
      <trkpt lat="47.11762" lon="6.14157">
        <ele>519</ele>
        <time>2015-04-26T10:12:32.000Z</time>
      </trkpt>
      <trkpt lat="47.11762" lon="6.14157">
        <ele>519</ele>
        <time>2015-04-26T10:12:34.000Z</time>
      </trkpt>
      <trkpt lat="47.11762" lon="6.14157">
        <ele>519</ele>
        <time>2015-04-26T10:12:36.000Z</time>
      </trkpt>
      <trkpt lat="47.11684" lon="6.14146">
        <ele>522</ele>
        <time>2015-04-26T10:12:40.000Z</time>
      </trkpt>
      <trkpt lat="47.11643" lon="6.1414">
        <ele>520</ele>
        <time>2015-04-26T10:12:42.000Z</time>
      </trkpt>
      <trkpt lat="47.11619" lon="6.14138">
        <ele>516</ele>
        <time>2015-04-26T10:12:44.000Z</time>
      </trkpt>
      <trkpt lat="47.11604" lon="6.14136">
        <ele>513</ele>
        <time>2015-04-26T10:12:46.000Z</time>
      </trkpt>
      <trkpt lat="47.11593" lon="6.14136">
        <ele>520</ele>
        <time>2015-04-26T10:12:48.000Z</time>
      </trkpt>
      <trkpt lat="47.11575" lon="6.14139">
        <ele>524</ele>
        <time>2015-04-26T10:12:50.000Z</time>
      </trkpt>
      <trkpt lat="47.11563" lon="6.14143">
        <ele>527</ele>
        <time>2015-04-26T10:12:54.000Z</time>
      </trkpt>
      <trkpt lat="47.11563" lon="6.14143">
        <ele>527</ele>
        <time>2015-04-26T10:12:56.000Z</time>
      </trkpt>
      <trkpt lat="47.11563" lon="6.14143">
        <ele>527</ele>
        <time>2015-04-26T10:12:58.000Z</time>
      </trkpt>
      <trkpt lat="47.11563" lon="6.14143">
        <ele>527</ele>
        <time>2015-04-26T10:13:00.000Z</time>
      </trkpt>
      <trkpt lat="47.11563" lon="6.14143">
        <ele>527</ele>
        <time>2015-04-26T10:13:02.000Z</time>
      </trkpt>
      <trkpt lat="47.11563" lon="6.14143">
        <ele>527</ele>
        <time>2015-04-26T10:13:04.000Z</time>
      </trkpt>
      <trkpt lat="47.11563" lon="6.14143">
        <ele>527</ele>
        <time>2015-04-26T10:13:06.000Z</time>
      </trkpt>
      <trkpt lat="47.11563" lon="6.14143">
        <ele>527</ele>
        <time>2015-04-26T10:13:08.000Z</time>
      </trkpt>
      <trkpt lat="47.11563" lon="6.14143">
        <ele>527</ele>
        <time>2015-04-26T10:13:10.000Z</time>
      </trkpt>
      <trkpt lat="47.11563" lon="6.14143">
        <ele>527</ele>
        <time>2015-04-26T10:13:12.000Z</time>
      </trkpt>
      <trkpt lat="47.11563" lon="6.14143">
        <ele>527</ele>
        <time>2015-04-26T10:13:14.000Z</time>
      </trkpt>
      <trkpt lat="47.11563" lon="6.14143">
        <ele>527</ele>
        <time>2015-04-26T10:13:16.000Z</time>
      </trkpt>
      <trkpt lat="47.11563" lon="6.14143">
        <ele>527</ele>
        <time>2015-04-26T10:13:18.000Z</time>
      </trkpt>
      <trkpt lat="47.11563" lon="6.14143">
        <ele>527</ele>
        <time>2015-04-26T10:13:20.000Z</time>
      </trkpt>
      <trkpt lat="47.11563" lon="6.14143">
        <ele>527</ele>
        <time>2015-04-26T10:13:22.000Z</time>
      </trkpt>
      <trkpt lat="47.11563" lon="6.14143">
        <ele>527</ele>
        <time>2015-04-26T10:13:24.000Z</time>
      </trkpt>
      <trkpt lat="47.11563" lon="6.14143">
        <ele>527</ele>
        <time>2015-04-26T10:13:26.000Z</time>
      </trkpt>
      <trkpt lat="47.11563" lon="6.14143">
        <ele>527</ele>
        <time>2015-04-26T10:13:28.000Z</time>
      </trkpt>
      <trkpt lat="47.11563" lon="6.14143">
        <ele>527</ele>
        <time>2015-04-26T10:13:30.000Z</time>
      </trkpt>
      <trkpt lat="47.11563" lon="6.14143">
        <ele>527</ele>
        <time>2015-04-26T10:13:32.000Z</time>
      </trkpt>
      <trkpt lat="47.11563" lon="6.14143">
        <ele>527</ele>
        <time>2015-04-26T10:13:34.000Z</time>
      </trkpt>
      <trkpt lat="47.11563" lon="6.14143">
        <ele>527</ele>
        <time>2015-04-26T10:13:36.000Z</time>
      </trkpt>
      <trkpt lat="47.11563" lon="6.14143">
        <ele>527</ele>
        <time>2015-04-26T10:13:38.000Z</time>
      </trkpt>
      <trkpt lat="47.11563" lon="6.14143">
        <ele>527</ele>
        <time>2015-04-26T10:13:40.000Z</time>
      </trkpt>
      <trkpt lat="47.11563" lon="6.14143">
        <ele>527</ele>
        <time>2015-04-26T10:13:42.000Z</time>
      </trkpt>
      <trkpt lat="47.11563" lon="6.14143">
        <ele>527</ele>
        <time>2015-04-26T10:13:48.000Z</time>
      </trkpt>
      <trkpt lat="47.11563" lon="6.14143">
        <ele>527</ele>
        <time>2015-04-26T10:13:50.000Z</time>
      </trkpt>
      <trkpt lat="47.11563" lon="6.14143">
        <ele>527</ele>
        <time>2015-04-26T10:13:52.000Z</time>
      </trkpt>
      <trkpt lat="47.11563" lon="6.14143">
        <ele>527</ele>
        <time>2015-04-26T10:13:54.000Z</time>
      </trkpt>
      <trkpt lat="47.11563" lon="6.14143">
        <ele>527</ele>
        <time>2015-04-26T10:13:56.000Z</time>
      </trkpt>
      <trkpt lat="47.11563" lon="6.14143">
        <ele>527</ele>
        <time>2015-04-26T10:13:58.000Z</time>
      </trkpt>
      <trkpt lat="47.11563" lon="6.14143">
        <ele>527</ele>
        <time>2015-04-26T10:14:00.000Z</time>
      </trkpt>
      <trkpt lat="47.11563" lon="6.14143">
        <ele>527</ele>
        <time>2015-04-26T10:14:02.000Z</time>
      </trkpt>
      <trkpt lat="47.11563" lon="6.14143">
        <ele>527</ele>
        <time>2015-04-26T10:14:04.000Z</time>
      </trkpt>
      <trkpt lat="47.11563" lon="6.14143">
        <ele>527</ele>
        <time>2015-04-26T10:14:06.000Z</time>
      </trkpt>
      <trkpt lat="47.11563" lon="6.14143">
        <ele>527</ele>
        <time>2015-04-26T10:14:08.000Z</time>
      </trkpt>
      <trkpt lat="47.11567" lon="6.14086">
        <ele>540</ele>
        <time>2015-04-26T10:14:12.000Z</time>
      </trkpt>
      <trkpt lat="47.11569" lon="6.14056">
        <ele>538</ele>
        <time>2015-04-26T10:14:14.000Z</time>
      </trkpt>
      <trkpt lat="47.11572" lon="6.14039">
        <ele>538</ele>
        <time>2015-04-26T10:14:16.000Z</time>
      </trkpt>
      <trkpt lat="47.11575" lon="6.14029">
        <ele>537</ele>
        <time>2015-04-26T10:14:18.000Z</time>
      </trkpt>
      <trkpt lat="47.11577" lon="6.14023">
        <ele>535</ele>
        <time>2015-04-26T10:14:20.000Z</time>
      </trkpt>
      <trkpt lat="47.11583" lon="6.1401">
        <ele>535</ele>
        <time>2015-04-26T10:14:24.000Z</time>
      </trkpt>
      <trkpt lat="47.11583" lon="6.1401">
        <ele>535</ele>
        <time>2015-04-26T10:14:26.000Z</time>
      </trkpt>
      <trkpt lat="47.11583" lon="6.1401">
        <ele>535</ele>
        <time>2015-04-26T10:14:28.000Z</time>
      </trkpt>
      <trkpt lat="47.11583" lon="6.1401">
        <ele>535</ele>
        <time>2015-04-26T10:14:30.000Z</time>
      </trkpt>
      <trkpt lat="47.11583" lon="6.1401">
        <ele>535</ele>
        <time>2015-04-26T10:14:32.000Z</time>
      </trkpt>
      <trkpt lat="47.11583" lon="6.1401">
        <ele>535</ele>
        <time>2015-04-26T10:14:34.000Z</time>
      </trkpt>
      <trkpt lat="47.11583" lon="6.1401">
        <ele>535</ele>
        <time>2015-04-26T10:14:36.000Z</time>
      </trkpt>
      <trkpt lat="47.11583" lon="6.1401">
        <ele>535</ele>
        <time>2015-04-26T10:14:38.000Z</time>
      </trkpt>
      <trkpt lat="47.11583" lon="6.1401">
        <ele>535</ele>
        <time>2015-04-26T10:14:40.000Z</time>
      </trkpt>
      <trkpt lat="47.11583" lon="6.1401">
        <ele>535</ele>
        <time>2015-04-26T10:14:42.000Z</time>
      </trkpt>
      <trkpt lat="47.11583" lon="6.1401">
        <ele>535</ele>
        <time>2015-04-26T10:14:44.000Z</time>
      </trkpt>
      <trkpt lat="47.11583" lon="6.1401">
        <ele>535</ele>
        <time>2015-04-26T10:14:48.000Z</time>
      </trkpt>
      <trkpt lat="47.11583" lon="6.1401">
        <ele>535</ele>
        <time>2015-04-26T10:14:50.000Z</time>
      </trkpt>
      <trkpt lat="47.11583" lon="6.1401">
        <ele>535</ele>
        <time>2015-04-26T10:14:52.000Z</time>
      </trkpt>
      <trkpt lat="47.11583" lon="6.1401">
        <ele>535</ele>
        <time>2015-04-26T10:14:54.000Z</time>
      </trkpt>
      <trkpt lat="47.11583" lon="6.1401">
        <ele>535</ele>
        <time>2015-04-26T10:14:56.000Z</time>
      </trkpt>
      <trkpt lat="47.11583" lon="6.1401">
        <ele>535</ele>
        <time>2015-04-26T10:14:58.000Z</time>
      </trkpt>
      <trkpt lat="47.11583" lon="6.1401">
        <ele>535</ele>
        <time>2015-04-26T10:15:00.000Z</time>
      </trkpt>
      <trkpt lat="47.11627" lon="6.13991">
        <ele>546</ele>
        <time>2015-04-26T10:15:04.000Z</time>
      </trkpt>
      <trkpt lat="47.11634" lon="6.14004">
        <ele>549</ele>
        <time>2015-04-26T10:15:12.000Z</time>
      </trkpt>
      <trkpt lat="47.11641" lon="6.14015">
        <ele>549</ele>
        <time>2015-04-26T10:15:20.000Z</time>
      </trkpt>
      <trkpt lat="47.11641" lon="6.14015">
        <ele>549</ele>
        <time>2015-04-26T10:15:22.000Z</time>
      </trkpt>
      <trkpt lat="47.11641" lon="6.14015">
        <ele>549</ele>
        <time>2015-04-26T10:15:24.000Z</time>
      </trkpt>
      <trkpt lat="47.11641" lon="6.14015">
        <ele>549</ele>
        <time>2015-04-26T10:15:26.000Z</time>
      </trkpt>
      <trkpt lat="47.11641" lon="6.14015">
        <ele>549</ele>
        <time>2015-04-26T10:15:28.000Z</time>
      </trkpt>
      <trkpt lat="47.11641" lon="6.14015">
        <ele>549</ele>
        <time>2015-04-26T10:15:30.000Z</time>
      </trkpt>
      <trkpt lat="47.11641" lon="6.14015">
        <ele>549</ele>
        <time>2015-04-26T10:15:32.000Z</time>
      </trkpt>
      <trkpt lat="47.11641" lon="6.14015">
        <ele>549</ele>
        <time>2015-04-26T10:15:34.000Z</time>
      </trkpt>
      <trkpt lat="47.11641" lon="6.14015">
        <ele>549</ele>
        <time>2015-04-26T10:15:36.000Z</time>
      </trkpt>
      <trkpt lat="47.11652" lon="6.14019">
        <ele>553</ele>
        <time>2015-04-26T10:15:40.000Z</time>
      </trkpt>
      <trkpt lat="47.11659" lon="6.1402">
        <ele>550</ele>
        <time>2015-04-26T10:15:42.000Z</time>
      </trkpt>
      <trkpt lat="47.11664" lon="6.14019">
        <ele>550</ele>
        <time>2015-04-26T10:15:44.000Z</time>
      </trkpt>
      <trkpt lat="47.11668" lon="6.14016">
        <ele>554</ele>
        <time>2015-04-26T10:15:48.000Z</time>
      </trkpt>
      <trkpt lat="47.11668" lon="6.14016">
        <ele>554</ele>
        <time>2015-04-26T10:15:50.000Z</time>
      </trkpt>
      <trkpt lat="47.11671" lon="6.1401">
        <ele>554</ele>
        <time>2015-04-26T10:15:52.000Z</time>
      </trkpt>
      <trkpt lat="47.11674" lon="6.14003">
        <ele>558</ele>
        <time>2015-04-26T10:15:56.000Z</time>
      </trkpt>
      <trkpt lat="47.11676" lon="6.13996">
        <ele>562</ele>
        <time>2015-04-26T10:16:00.000Z</time>
      </trkpt>
      <trkpt lat="47.11676" lon="6.13996">
        <ele>562</ele>
        <time>2015-04-26T10:16:04.000Z</time>
      </trkpt>
      <trkpt lat="47.11676" lon="6.13996">
        <ele>562</ele>
        <time>2015-04-26T10:16:06.000Z</time>
      </trkpt>
      <trkpt lat="47.11676" lon="6.13996">
        <ele>562</ele>
        <time>2015-04-26T10:16:08.000Z</time>
      </trkpt>
      <trkpt lat="47.11683" lon="6.13985">
        <ele>562</ele>
        <time>2015-04-26T10:16:12.000Z</time>
      </trkpt>
      <trkpt lat="47.11688" lon="6.13979">
        <ele>563</ele>
        <time>2015-04-26T10:16:14.000Z</time>
      </trkpt>
      <trkpt lat="47.11692" lon="6.13976">
        <ele>564</ele>
        <time>2015-04-26T10:16:16.000Z</time>
      </trkpt>
      <trkpt lat="47.11692" lon="6.13976">
        <ele>564</ele>
        <time>2015-04-26T10:16:18.000Z</time>
      </trkpt>
      <trkpt lat="47.11697" lon="6.13973">
        <ele>562</ele>
        <time>2015-04-26T10:16:20.000Z</time>
      </trkpt>
      <trkpt lat="47.11697" lon="6.13973">
        <ele>562</ele>
        <time>2015-04-26T10:16:22.000Z</time>
      </trkpt>
      <trkpt lat="47.11697" lon="6.13973">
        <ele>562</ele>
        <time>2015-04-26T10:16:24.000Z</time>
      </trkpt>
      <trkpt lat="47.11705" lon="6.13969">
        <ele>565</ele>
        <time>2015-04-26T10:16:26.000Z</time>
      </trkpt>
      <trkpt lat="47.1171" lon="6.13966">
        <ele>564</ele>
        <time>2015-04-26T10:16:28.000Z</time>
      </trkpt>
      <trkpt lat="47.11714" lon="6.13963">
        <ele>564</ele>
        <time>2015-04-26T10:16:32.000Z</time>
      </trkpt>
      <trkpt lat="47.11719" lon="6.13959">
        <ele>567</ele>
        <time>2015-04-26T10:16:36.000Z</time>
      </trkpt>
      <trkpt lat="47.11723" lon="6.13956">
        <ele>565</ele>
        <time>2015-04-26T10:16:38.000Z</time>
      </trkpt>
      <trkpt lat="47.11723" lon="6.13956">
        <ele>565</ele>
        <time>2015-04-26T10:16:40.000Z</time>
      </trkpt>
      <trkpt lat="47.11723" lon="6.13956">
        <ele>565</ele>
        <time>2015-04-26T10:16:42.000Z</time>
      </trkpt>
      <trkpt lat="47.11723" lon="6.13956">
        <ele>565</ele>
        <time>2015-04-26T10:16:44.000Z</time>
      </trkpt>
      <trkpt lat="47.11723" lon="6.13956">
        <ele>565</ele>
        <time>2015-04-26T10:16:46.000Z</time>
      </trkpt>
      <trkpt lat="47.11723" lon="6.13956">
        <ele>565</ele>
        <time>2015-04-26T10:16:48.000Z</time>
      </trkpt>
      <trkpt lat="47.11723" lon="6.13956">
        <ele>565</ele>
        <time>2015-04-26T10:16:50.000Z</time>
      </trkpt>
      <trkpt lat="47.11726" lon="6.13942">
        <ele>561</ele>
        <time>2015-04-26T10:23:33.000Z</time>
      </trkpt>
      <trkpt lat="47.11726" lon="6.13942">
        <ele>561</ele>
        <time>2015-04-26T10:23:35.000Z</time>
      </trkpt>
      <trkpt lat="47.1172" lon="6.13949">
        <ele>549</ele>
        <time>2015-04-26T10:32:42.000Z</time>
      </trkpt>
      <trkpt lat="47.11713" lon="6.1395">
        <ele>557</ele>
        <time>2015-04-26T10:32:44.000Z</time>
      </trkpt>
      <trkpt lat="47.11704" lon="6.13945">
        <ele>555</ele>
        <time>2015-04-26T10:32:48.000Z</time>
      </trkpt>
      <trkpt lat="47.11697" lon="6.13937">
        <ele>559</ele>
        <time>2015-04-26T10:32:50.000Z</time>
      </trkpt>
      <trkpt lat="47.11694" lon="6.13927">
        <ele>564</ele>
        <time>2015-04-26T10:32:52.000Z</time>
      </trkpt>
      <trkpt lat="47.11691" lon="6.13916">
        <ele>564</ele>
        <time>2015-04-26T10:32:54.000Z</time>
      </trkpt>
      <trkpt lat="47.11688" lon="6.13904">
        <ele>570</ele>
        <time>2015-04-26T10:32:56.000Z</time>
      </trkpt>
      <trkpt lat="47.11682" lon="6.13882">
        <ele>563</ele>
        <time>2015-04-26T10:32:58.000Z</time>
      </trkpt>
      <trkpt lat="47.11673" lon="6.13869">
        <ele>560</ele>
        <time>2015-04-26T10:33:02.000Z</time>
      </trkpt>
      <trkpt lat="47.11673" lon="6.13869">
        <ele>560</ele>
        <time>2015-04-26T10:33:04.000Z</time>
      </trkpt>
      <trkpt lat="47.11662" lon="6.13855">
        <ele>566</ele>
        <time>2015-04-26T10:33:06.000Z</time>
      </trkpt>
      <trkpt lat="47.11652" lon="6.13836">
        <ele>560</ele>
        <time>2015-04-26T10:33:10.000Z</time>
      </trkpt>
      <trkpt lat="47.11623" lon="6.13784">
        <ele>567</ele>
        <time>2015-04-26T10:33:15.000Z</time>
      </trkpt>
      <trkpt lat="47.11596" lon="6.13755">
        <ele>561</ele>
        <time>2015-04-26T10:33:18.000Z</time>
      </trkpt>
      <trkpt lat="47.11559" lon="6.13751">
        <ele>562</ele>
        <time>2015-04-26T10:33:22.000Z</time>
      </trkpt>
      <trkpt lat="47.11515" lon="6.13784">
        <ele>559</ele>
        <time>2015-04-26T10:33:26.000Z</time>
      </trkpt>
      <trkpt lat="47.11498" lon="6.13805">
        <ele>559</ele>
        <time>2015-04-26T10:33:28.000Z</time>
      </trkpt>
      <trkpt lat="47.11485" lon="6.13824">
        <ele>558</ele>
        <time>2015-04-26T10:33:30.000Z</time>
      </trkpt>
      <trkpt lat="47.1147" lon="6.1383">
        <ele>561</ele>
        <time>2015-04-26T10:33:32.000Z</time>
      </trkpt>
      <trkpt lat="47.11453" lon="6.13827">
        <ele>559</ele>
        <time>2015-04-26T10:33:34.000Z</time>
      </trkpt>
      <trkpt lat="47.11437" lon="6.13824">
        <ele>559</ele>
        <time>2015-04-26T10:33:36.000Z</time>
      </trkpt>
      <trkpt lat="47.11418" lon="6.1382">
        <ele>556</ele>
        <time>2015-04-26T10:33:38.000Z</time>
      </trkpt>
      <trkpt lat="47.11403" lon="6.13814">
        <ele>554</ele>
        <time>2015-04-26T10:33:40.000Z</time>
      </trkpt>
      <trkpt lat="47.11389" lon="6.13803">
        <ele>550</ele>
        <time>2015-04-26T10:33:43.000Z</time>
      </trkpt>
      <trkpt lat="47.11389" lon="6.13803">
        <ele>550</ele>
        <time>2015-04-26T10:33:45.000Z</time>
      </trkpt>
      <trkpt lat="47.11389" lon="6.13803">
        <ele>550</ele>
        <time>2015-04-26T10:33:47.000Z</time>
      </trkpt>
      <trkpt lat="47.11389" lon="6.13803">
        <ele>550</ele>
        <time>2015-04-26T10:33:50.000Z</time>
      </trkpt>
      <trkpt lat="47.11357" lon="6.13775">
        <ele>561</ele>
        <time>2015-04-26T10:33:53.000Z</time>
      </trkpt>
      <trkpt lat="47.11348" lon="6.13763">
        <ele>554</ele>
        <time>2015-04-26T10:33:56.000Z</time>
      </trkpt>
      <trkpt lat="47.11348" lon="6.13763">
        <ele>554</ele>
        <time>2015-04-26T10:33:58.000Z</time>
      </trkpt>
      <trkpt lat="47.11348" lon="6.13763">
        <ele>554</ele>
        <time>2015-04-26T10:34:00.000Z</time>
      </trkpt>
      <trkpt lat="47.11348" lon="6.13763">
        <ele>554</ele>
        <time>2015-04-26T10:34:02.000Z</time>
      </trkpt>
      <trkpt lat="47.1133" lon="6.13725">
        <ele>558</ele>
        <time>2015-04-26T10:34:05.000Z</time>
      </trkpt>
      <trkpt lat="47.1133" lon="6.13725">
        <ele>558</ele>
        <time>2015-04-26T10:34:07.000Z</time>
      </trkpt>
      <trkpt lat="47.11332" lon="6.13698">
        <ele>561</ele>
        <time>2015-04-26T10:34:12.000Z</time>
      </trkpt>
      <trkpt lat="47.11332" lon="6.13698">
        <ele>561</ele>
        <time>2015-04-26T10:34:15.000Z</time>
      </trkpt>
      <trkpt lat="47.11332" lon="6.13698">
        <ele>561</ele>
        <time>2015-04-26T10:34:17.000Z</time>
      </trkpt>
      <trkpt lat="47.11332" lon="6.13698">
        <ele>561</ele>
        <time>2015-04-26T10:34:19.000Z</time>
      </trkpt>
      <trkpt lat="47.11332" lon="6.13698">
        <ele>561</ele>
        <time>2015-04-26T10:34:21.000Z</time>
      </trkpt>
      <trkpt lat="47.11332" lon="6.13698">
        <ele>561</ele>
        <time>2015-04-26T10:34:23.000Z</time>
      </trkpt>
      <trkpt lat="47.11332" lon="6.13698">
        <ele>561</ele>
        <time>2015-04-26T10:34:25.000Z</time>
      </trkpt>
      <trkpt lat="47.11342" lon="6.13611">
        <ele>556</ele>
        <time>2015-04-26T10:34:31.000Z</time>
      </trkpt>
      <trkpt lat="47.11348" lon="6.1359">
        <ele>558</ele>
        <time>2015-04-26T10:34:35.000Z</time>
      </trkpt>
      <trkpt lat="47.11353" lon="6.13567">
        <ele>560</ele>
        <time>2015-04-26T10:34:39.000Z</time>
      </trkpt>
      <trkpt lat="47.11359" lon="6.13545">
        <ele>554</ele>
        <time>2015-04-26T10:34:43.000Z</time>
      </trkpt>
      <trkpt lat="47.11365" lon="6.13524">
        <ele>554</ele>
        <time>2015-04-26T10:34:47.000Z</time>
      </trkpt>
      <trkpt lat="47.11368" lon="6.13512">
        <ele>557</ele>
        <time>2015-04-26T10:34:49.000Z</time>
      </trkpt>
      <trkpt lat="47.11372" lon="6.135">
        <ele>559</ele>
        <time>2015-04-26T10:34:51.000Z</time>
      </trkpt>
      <trkpt lat="47.11377" lon="6.13488">
        <ele>559</ele>
        <time>2015-04-26T10:34:53.000Z</time>
      </trkpt>
      <trkpt lat="47.11381" lon="6.13477">
        <ele>560</ele>
        <time>2015-04-26T10:34:55.000Z</time>
      </trkpt>
      <trkpt lat="47.11392" lon="6.13451">
        <ele>558</ele>
        <time>2015-04-26T10:34:59.000Z</time>
      </trkpt>
      <trkpt lat="47.11398" lon="6.13438">
        <ele>559</ele>
        <time>2015-04-26T10:35:01.000Z</time>
      </trkpt>
      <trkpt lat="47.11403" lon="6.13424">
        <ele>556</ele>
        <time>2015-04-26T10:35:03.000Z</time>
      </trkpt>
      <trkpt lat="47.11409" lon="6.1341">
        <ele>546</ele>
        <time>2015-04-26T10:35:05.000Z</time>
      </trkpt>
      <trkpt lat="47.11416" lon="6.13398">
        <ele>549</ele>
        <time>2015-04-26T10:35:07.000Z</time>
      </trkpt>
      <trkpt lat="47.11422" lon="6.13385">
        <ele>551</ele>
        <time>2015-04-26T10:35:09.000Z</time>
      </trkpt>
      <trkpt lat="47.11429" lon="6.13373">
        <ele>553</ele>
        <time>2015-04-26T10:35:11.000Z</time>
      </trkpt>
      <trkpt lat="47.11437" lon="6.13362">
        <ele>550</ele>
        <time>2015-04-26T10:35:13.000Z</time>
      </trkpt>
      <trkpt lat="47.11446" lon="6.13351">
        <ele>548</ele>
        <time>2015-04-26T10:35:15.000Z</time>
      </trkpt>
      <trkpt lat="47.11456" lon="6.13342">
        <ele>550</ele>
        <time>2015-04-26T10:35:17.000Z</time>
      </trkpt>
      <trkpt lat="47.11465" lon="6.1333">
        <ele>552</ele>
        <time>2015-04-26T10:35:19.000Z</time>
      </trkpt>
      <trkpt lat="47.11465" lon="6.1333">
        <ele>552</ele>
        <time>2015-04-26T10:35:21.000Z</time>
      </trkpt>
      <trkpt lat="47.11465" lon="6.1333">
        <ele>552</ele>
        <time>2015-04-26T10:35:23.000Z</time>
      </trkpt>
      <trkpt lat="47.11465" lon="6.1333">
        <ele>552</ele>
        <time>2015-04-26T10:35:25.000Z</time>
      </trkpt>
      <trkpt lat="47.11465" lon="6.1333">
        <ele>552</ele>
        <time>2015-04-26T10:35:27.000Z</time>
      </trkpt>
      <trkpt lat="47.11465" lon="6.1333">
        <ele>552</ele>
        <time>2015-04-26T10:35:29.000Z</time>
      </trkpt>
      <trkpt lat="47.11465" lon="6.1333">
        <ele>552</ele>
        <time>2015-04-26T10:35:31.000Z</time>
      </trkpt>
      <trkpt lat="47.11465" lon="6.1333">
        <ele>552</ele>
        <time>2015-04-26T10:35:33.000Z</time>
      </trkpt>
      <trkpt lat="47.11465" lon="6.1333">
        <ele>552</ele>
        <time>2015-04-26T10:35:35.000Z</time>
      </trkpt>
      <trkpt lat="47.11476" lon="6.13268">
        <ele>556</ele>
        <time>2015-04-26T10:35:37.000Z</time>
      </trkpt>
      <trkpt lat="47.11484" lon="6.13233">
        <ele>558</ele>
        <time>2015-04-26T10:35:39.000Z</time>
      </trkpt>
      <trkpt lat="47.11491" lon="6.13209">
        <ele>555</ele>
        <time>2015-04-26T10:35:41.000Z</time>
      </trkpt>
      <trkpt lat="47.11491" lon="6.13209">
        <ele>555</ele>
        <time>2015-04-26T10:35:43.000Z</time>
      </trkpt>
      <trkpt lat="47.11491" lon="6.13209">
        <ele>555</ele>
        <time>2015-04-26T10:35:45.000Z</time>
      </trkpt>
      <trkpt lat="47.11491" lon="6.13209">
        <ele>555</ele>
        <time>2015-04-26T10:35:47.000Z</time>
      </trkpt>
      <trkpt lat="47.11491" lon="6.13209">
        <ele>555</ele>
        <time>2015-04-26T10:35:49.000Z</time>
      </trkpt>
      <trkpt lat="47.11491" lon="6.13209">
        <ele>555</ele>
        <time>2015-04-26T10:35:51.000Z</time>
      </trkpt>
      <trkpt lat="47.11491" lon="6.13209">
        <ele>555</ele>
        <time>2015-04-26T10:35:54.000Z</time>
      </trkpt>
      <trkpt lat="47.11491" lon="6.13209">
        <ele>555</ele>
        <time>2015-04-26T10:35:56.000Z</time>
      </trkpt>
      <trkpt lat="47.11509" lon="6.13143">
        <ele>554</ele>
        <time>2015-04-26T10:36:02.000Z</time>
      </trkpt>
      <trkpt lat="47.11519" lon="6.13104">
        <ele>555</ele>
        <time>2015-04-26T10:36:04.000Z</time>
      </trkpt>
      <trkpt lat="47.11526" lon="6.13079">
        <ele>557</ele>
        <time>2015-04-26T10:36:06.000Z</time>
      </trkpt>
      <trkpt lat="47.11531" lon="6.13061">
        <ele>560</ele>
        <time>2015-04-26T10:36:08.000Z</time>
      </trkpt>
      <trkpt lat="47.11535" lon="6.13045">
        <ele>560</ele>
        <time>2015-04-26T10:36:10.000Z</time>
      </trkpt>
      <trkpt lat="47.1154" lon="6.13019">
        <ele>563</ele>
        <time>2015-04-26T10:36:12.000Z</time>
      </trkpt>
      <trkpt lat="47.1154" lon="6.13019">
        <ele>563</ele>
        <time>2015-04-26T10:36:14.000Z</time>
      </trkpt>
      <trkpt lat="47.1154" lon="6.13019">
        <ele>563</ele>
        <time>2015-04-26T10:36:16.000Z</time>
      </trkpt>
      <trkpt lat="47.1154" lon="6.13019">
        <ele>563</ele>
        <time>2015-04-26T10:36:18.000Z</time>
      </trkpt>
      <trkpt lat="47.11553" lon="6.12954">
        <ele>562</ele>
        <time>2015-04-26T10:36:24.000Z</time>
      </trkpt>
      <trkpt lat="47.11555" lon="6.1294">
        <ele>567</ele>
        <time>2015-04-26T10:36:26.000Z</time>
      </trkpt>
      <trkpt lat="47.11555" lon="6.1294">
        <ele>567</ele>
        <time>2015-04-26T10:36:28.000Z</time>
      </trkpt>
      <trkpt lat="47.11555" lon="6.1294">
        <ele>567</ele>
        <time>2015-04-26T10:36:30.000Z</time>
      </trkpt>
      <trkpt lat="47.11555" lon="6.1294">
        <ele>567</ele>
        <time>2015-04-26T10:36:32.000Z</time>
      </trkpt>
      <trkpt lat="47.11574" lon="6.12889">
        <ele>569</ele>
        <time>2015-04-26T10:36:36.000Z</time>
      </trkpt>
      <trkpt lat="47.11582" lon="6.12873">
        <ele>579</ele>
        <time>2015-04-26T10:36:40.000Z</time>
      </trkpt>
      <trkpt lat="47.11582" lon="6.12873">
        <ele>579</ele>
        <time>2015-04-26T10:36:42.000Z</time>
      </trkpt>
      <trkpt lat="47.11582" lon="6.12873">
        <ele>579</ele>
        <time>2015-04-26T10:36:50.000Z</time>
      </trkpt>
      <trkpt lat="47.11621" lon="6.12826">
        <ele>591</ele>
        <time>2015-04-26T10:36:57.000Z</time>
      </trkpt>
      <trkpt lat="47.11638" lon="6.12823">
        <ele>598</ele>
        <time>2015-04-26T10:37:01.000Z</time>
      </trkpt>
      <trkpt lat="47.11654" lon="6.12819">
        <ele>597</ele>
        <time>2015-04-26T10:37:05.000Z</time>
      </trkpt>
      <trkpt lat="47.11654" lon="6.12819">
        <ele>597</ele>
        <time>2015-04-26T10:37:07.000Z</time>
      </trkpt>
      <trkpt lat="47.11678" lon="6.12814">
        <ele>591</ele>
        <time>2015-04-26T10:37:11.000Z</time>
      </trkpt>
      <trkpt lat="47.11678" lon="6.12814">
        <ele>591</ele>
        <time>2015-04-26T10:37:14.000Z</time>
      </trkpt>
      <trkpt lat="47.11678" lon="6.12814">
        <ele>591</ele>
        <time>2015-04-26T10:37:19.000Z</time>
      </trkpt>
      <trkpt lat="47.11739" lon="6.12816">
        <ele>592</ele>
        <time>2015-04-26T10:37:26.000Z</time>
      </trkpt>
      <trkpt lat="47.11749" lon="6.12836">
        <ele>595</ele>
        <time>2015-04-26T10:37:30.000Z</time>
      </trkpt>
      <trkpt lat="47.11763" lon="6.12858">
        <ele>592</ele>
        <time>2015-04-26T10:37:34.000Z</time>
      </trkpt>
      <trkpt lat="47.11777" lon="6.1288">
        <ele>592</ele>
        <time>2015-04-26T10:37:38.000Z</time>
      </trkpt>
      <trkpt lat="47.11793" lon="6.12904">
        <ele>589</ele>
        <time>2015-04-26T10:37:42.000Z</time>
      </trkpt>
      <trkpt lat="47.11793" lon="6.12904">
        <ele>589</ele>
        <time>2015-04-26T10:37:44.000Z</time>
      </trkpt>
      <trkpt lat="47.11793" lon="6.12904">
        <ele>589</ele>
        <time>2015-04-26T10:37:46.000Z</time>
      </trkpt>
      <trkpt lat="47.11793" lon="6.12904">
        <ele>589</ele>
        <time>2015-04-26T10:37:48.000Z</time>
      </trkpt>
      <trkpt lat="47.11793" lon="6.12904">
        <ele>589</ele>
        <time>2015-04-26T10:37:50.000Z</time>
      </trkpt>
      <trkpt lat="47.11793" lon="6.12904">
        <ele>589</ele>
        <time>2015-04-26T10:37:54.000Z</time>
      </trkpt>
      <trkpt lat="47.11827" lon="6.1294">
        <ele>567</ele>
        <time>2015-04-26T10:37:58.000Z</time>
      </trkpt>
      <trkpt lat="47.11849" lon="6.12963">
        <ele>572</ele>
        <time>2015-04-26T10:38:01.000Z</time>
      </trkpt>
      <trkpt lat="47.11864" lon="6.12977">
        <ele>556</ele>
        <time>2015-04-26T10:38:05.000Z</time>
      </trkpt>
      <trkpt lat="47.11879" lon="6.1299">
        <ele>558</ele>
        <time>2015-04-26T10:38:08.000Z</time>
      </trkpt>
      <trkpt lat="47.11888" lon="6.13">
        <ele>555</ele>
        <time>2015-04-26T10:38:10.000Z</time>
      </trkpt>
      <trkpt lat="47.11888" lon="6.13">
        <ele>555</ele>
        <time>2015-04-26T10:38:12.000Z</time>
      </trkpt>
      <trkpt lat="47.11888" lon="6.13">
        <ele>555</ele>
        <time>2015-04-26T10:38:14.000Z</time>
      </trkpt>
      <trkpt lat="47.11932" lon="6.13061">
        <ele>557</ele>
        <time>2015-04-26T10:38:23.000Z</time>
      </trkpt>
      <trkpt lat="47.1194" lon="6.13091">
        <ele>564</ele>
        <time>2015-04-26T10:38:29.000Z</time>
      </trkpt>
      <trkpt lat="47.11943" lon="6.13121">
        <ele>558</ele>
        <time>2015-04-26T10:38:35.000Z</time>
      </trkpt>
      <trkpt lat="47.11945" lon="6.1315">
        <ele>556</ele>
        <time>2015-04-26T10:38:41.000Z</time>
      </trkpt>
      <trkpt lat="47.11945" lon="6.1315">
        <ele>556</ele>
        <time>2015-04-26T10:38:43.000Z</time>
      </trkpt>
      <trkpt lat="47.11945" lon="6.1315">
        <ele>556</ele>
        <time>2015-04-26T10:38:46.000Z</time>
      </trkpt>
      <trkpt lat="47.11945" lon="6.1315">
        <ele>556</ele>
        <time>2015-04-26T10:38:48.000Z</time>
      </trkpt>
      <trkpt lat="47.11945" lon="6.1315">
        <ele>556</ele>
        <time>2015-04-26T10:38:54.000Z</time>
      </trkpt>
      <trkpt lat="47.11973" lon="6.13241">
        <ele>558</ele>
        <time>2015-04-26T10:39:00.000Z</time>
      </trkpt>
      <trkpt lat="47.11973" lon="6.13241">
        <ele>558</ele>
        <time>2015-04-26T10:39:02.000Z</time>
      </trkpt>
      <trkpt lat="47.11973" lon="6.13241">
        <ele>558</ele>
        <time>2015-04-26T10:39:06.000Z</time>
      </trkpt>
      <trkpt lat="47.11973" lon="6.13241">
        <ele>558</ele>
        <time>2015-04-26T10:39:08.000Z</time>
      </trkpt>
      <trkpt lat="47.11973" lon="6.13241">
        <ele>558</ele>
        <time>2015-04-26T10:39:10.000Z</time>
      </trkpt>
      <trkpt lat="47.11973" lon="6.13241">
        <ele>558</ele>
        <time>2015-04-26T10:39:24.000Z</time>
      </trkpt>
      <trkpt lat="47.12008" lon="6.13206">
        <ele>533</ele>
        <time>2015-04-26T10:40:38.000Z</time>
      </trkpt>
      <trkpt lat="47.12025" lon="6.13185">
        <ele>534</ele>
        <time>2015-04-26T10:40:40.000Z</time>
      </trkpt>
      <trkpt lat="47.12035" lon="6.1317">
        <ele>520</ele>
        <time>2015-04-26T10:40:42.000Z</time>
      </trkpt>
      <trkpt lat="47.12041" lon="6.13158">
        <ele>520</ele>
        <time>2015-04-26T10:40:44.000Z</time>
      </trkpt>
      <trkpt lat="47.12045" lon="6.13148">
        <ele>553</ele>
        <time>2015-04-26T10:40:46.000Z</time>
      </trkpt>
      <trkpt lat="47.1205" lon="6.13129">
        <ele>558</ele>
        <time>2015-04-26T10:40:48.000Z</time>
      </trkpt>
      <trkpt lat="47.12053" lon="6.13105">
        <ele>560</ele>
        <time>2015-04-26T10:40:53.000Z</time>
      </trkpt>
      <trkpt lat="47.12057" lon="6.13081">
        <ele>554</ele>
        <time>2015-04-26T10:40:57.000Z</time>
      </trkpt>
      <trkpt lat="47.12061" lon="6.13053">
        <ele>544</ele>
        <time>2015-04-26T10:41:02.000Z</time>
      </trkpt>
      <trkpt lat="47.12065" lon="6.13029">
        <ele>546</ele>
        <time>2015-04-26T10:41:06.000Z</time>
      </trkpt>
      <trkpt lat="47.12046" lon="6.12893">
        <ele>515</ele>
        <time>2015-04-26T10:41:22.000Z</time>
      </trkpt>
      <trkpt lat="47.12039" lon="6.12874">
        <ele>511</ele>
        <time>2015-04-26T10:41:24.000Z</time>
      </trkpt>
      <trkpt lat="47.12013" lon="6.12754">
        <ele>550</ele>
        <time>2015-04-26T10:41:39.000Z</time>
      </trkpt>
      <trkpt lat="47.12013" lon="6.12754">
        <ele>550</ele>
        <time>2015-04-26T10:41:47.000Z</time>
      </trkpt>
      <trkpt lat="47.12013" lon="6.12754">
        <ele>550</ele>
        <time>2015-04-26T10:42:29.000Z</time>
      </trkpt>
      <trkpt lat="47.11961" lon="6.12453">
        <ele>507</ele>
        <time>2015-04-26T10:43:24.000Z</time>
      </trkpt>
      <trkpt lat="47.11961" lon="6.12453">
        <ele>507</ele>
        <time>2015-04-26T10:43:26.000Z</time>
      </trkpt>
      <trkpt lat="47.11961" lon="6.12453">
        <ele>507</ele>
        <time>2015-04-26T10:43:29.000Z</time>
      </trkpt>
      <trkpt lat="47.11968" lon="6.12441">
        <ele>452</ele>
        <time>2015-04-26T10:44:30.000Z</time>
      </trkpt>
      <trkpt lat="47.1197" lon="6.12429">
        <ele>445</ele>
        <time>2015-04-26T10:44:32.000Z</time>
      </trkpt>
      <trkpt lat="47.11968" lon="6.12416">
        <ele>441</ele>
        <time>2015-04-26T10:44:34.000Z</time>
      </trkpt>
      <trkpt lat="47.11964" lon="6.12403">
        <ele>439</ele>
        <time>2015-04-26T10:44:36.000Z</time>
      </trkpt>
      <trkpt lat="47.11959" lon="6.12389">
        <ele>435</ele>
        <time>2015-04-26T10:44:38.000Z</time>
      </trkpt>
      <trkpt lat="47.11934" lon="6.12332">
        <ele>513</ele>
        <time>2015-04-26T10:44:52.000Z</time>
      </trkpt>
      <trkpt lat="47.11934" lon="6.12332">
        <ele>513</ele>
        <time>2015-04-26T10:44:54.000Z</time>
      </trkpt>
      <trkpt lat="47.11934" lon="6.12332">
        <ele>513</ele>
        <time>2015-04-26T10:44:56.000Z</time>
      </trkpt>
      <trkpt lat="47.11934" lon="6.12332">
        <ele>513</ele>
        <time>2015-04-26T10:45:02.000Z</time>
      </trkpt>
      <trkpt lat="47.11934" lon="6.12332">
        <ele>513</ele>
        <time>2015-04-26T10:45:04.000Z</time>
      </trkpt>
      <trkpt lat="47.11934" lon="6.12332">
        <ele>513</ele>
        <time>2015-04-26T10:45:06.000Z</time>
      </trkpt>
      <trkpt lat="47.11934" lon="6.12332">
        <ele>513</ele>
        <time>2015-04-26T10:45:08.000Z</time>
      </trkpt>
      <trkpt lat="47.11934" lon="6.12332">
        <ele>513</ele>
        <time>2015-04-26T10:45:10.000Z</time>
      </trkpt>
      <trkpt lat="47.11934" lon="6.12332">
        <ele>513</ele>
        <time>2015-04-26T10:45:12.000Z</time>
      </trkpt>
      <trkpt lat="47.11942" lon="6.12283">
        <ele>422</ele>
        <time>2015-04-26T10:45:18.000Z</time>
      </trkpt>
      <trkpt lat="47.11942" lon="6.12283">
        <ele>422</ele>
        <time>2015-04-26T10:45:20.000Z</time>
      </trkpt>
      <trkpt lat="47.11942" lon="6.12283">
        <ele>422</ele>
        <time>2015-04-26T10:45:22.000Z</time>
      </trkpt>
      <trkpt lat="47.11942" lon="6.12283">
        <ele>422</ele>
        <time>2015-04-26T10:45:24.000Z</time>
      </trkpt>
      <trkpt lat="47.11942" lon="6.12283">
        <ele>422</ele>
        <time>2015-04-26T10:45:32.000Z</time>
      </trkpt>
      <trkpt lat="47.11942" lon="6.12283">
        <ele>422</ele>
        <time>2015-04-26T10:45:34.000Z</time>
      </trkpt>
      <trkpt lat="47.11994" lon="6.12273">
        <ele>393</ele>
        <time>2015-04-26T10:45:57.000Z</time>
      </trkpt>
      <trkpt lat="47.12003" lon="6.1228">
        <ele>398</ele>
        <time>2015-04-26T10:46:01.000Z</time>
      </trkpt>
      <trkpt lat="47.12006" lon="6.12287">
        <ele>398</ele>
        <time>2015-04-26T10:46:05.000Z</time>
      </trkpt>
      <trkpt lat="47.12012" lon="6.12303">
        <ele>464</ele>
        <time>2015-04-26T10:46:12.000Z</time>
      </trkpt>
      <trkpt lat="47.12018" lon="6.12317">
        <ele>444</ele>
        <time>2015-04-26T10:46:14.000Z</time>
      </trkpt>
      <trkpt lat="47.12023" lon="6.12328">
        <ele>430</ele>
        <time>2015-04-26T10:46:16.000Z</time>
      </trkpt>
      <trkpt lat="47.12023" lon="6.12328">
        <ele>430</ele>
        <time>2015-04-26T10:46:18.000Z</time>
      </trkpt>
      <trkpt lat="47.12023" lon="6.12328">
        <ele>430</ele>
        <time>2015-04-26T10:46:20.000Z</time>
      </trkpt>
      <trkpt lat="47.12023" lon="6.12328">
        <ele>430</ele>
        <time>2015-04-26T10:46:22.000Z</time>
      </trkpt>
      <trkpt lat="47.12023" lon="6.12328">
        <ele>430</ele>
        <time>2015-04-26T10:46:24.000Z</time>
      </trkpt>
      <trkpt lat="47.12023" lon="6.12328">
        <ele>430</ele>
        <time>2015-04-26T10:46:26.000Z</time>
      </trkpt>
      <trkpt lat="47.12023" lon="6.12328">
        <ele>430</ele>
        <time>2015-04-26T10:46:28.000Z</time>
      </trkpt>
      <trkpt lat="47.12023" lon="6.12328">
        <ele>430</ele>
        <time>2015-04-26T10:46:30.000Z</time>
      </trkpt>
      <trkpt lat="47.12023" lon="6.12328">
        <ele>430</ele>
        <time>2015-04-26T10:46:32.000Z</time>
      </trkpt>
      <trkpt lat="47.12023" lon="6.12328">
        <ele>430</ele>
        <time>2015-04-26T10:46:34.000Z</time>
      </trkpt>
      <trkpt lat="47.12023" lon="6.12328">
        <ele>430</ele>
        <time>2015-04-26T10:46:36.000Z</time>
      </trkpt>
      <trkpt lat="47.12023" lon="6.12328">
        <ele>430</ele>
        <time>2015-04-26T10:46:38.000Z</time>
      </trkpt>
      <trkpt lat="47.12023" lon="6.12328">
        <ele>430</ele>
        <time>2015-04-26T10:46:40.000Z</time>
      </trkpt>
      <trkpt lat="47.12023" lon="6.12328">
        <ele>430</ele>
        <time>2015-04-26T10:46:42.000Z</time>
      </trkpt>
      <trkpt lat="47.12023" lon="6.12328">
        <ele>430</ele>
        <time>2015-04-26T10:46:44.000Z</time>
      </trkpt>
      <trkpt lat="47.12023" lon="6.12328">
        <ele>430</ele>
        <time>2015-04-26T10:46:46.000Z</time>
      </trkpt>
      <trkpt lat="47.12023" lon="6.12328">
        <ele>430</ele>
        <time>2015-04-26T10:46:48.000Z</time>
      </trkpt>
      <trkpt lat="47.12023" lon="6.12328">
        <ele>430</ele>
        <time>2015-04-26T10:46:50.000Z</time>
      </trkpt>
      <trkpt lat="47.12023" lon="6.12328">
        <ele>430</ele>
        <time>2015-04-26T10:46:52.000Z</time>
      </trkpt>
      <trkpt lat="47.12023" lon="6.12328">
        <ele>430</ele>
        <time>2015-04-26T10:46:54.000Z</time>
      </trkpt>
      <trkpt lat="47.12068" lon="6.1234">
        <ele>398</ele>
        <time>2015-04-26T10:46:58.000Z</time>
      </trkpt>
      <trkpt lat="47.12092" lon="6.12345">
        <ele>397</ele>
        <time>2015-04-26T10:47:00.000Z</time>
      </trkpt>
      <trkpt lat="47.12107" lon="6.12348">
        <ele>397</ele>
        <time>2015-04-26T10:47:02.000Z</time>
      </trkpt>
      <trkpt lat="47.12117" lon="6.12351">
        <ele>398</ele>
        <time>2015-04-26T10:47:04.000Z</time>
      </trkpt>
      <trkpt lat="47.12123" lon="6.12355">
        <ele>397</ele>
        <time>2015-04-26T10:47:06.000Z</time>
      </trkpt>
      <trkpt lat="47.12136" lon="6.12361">
        <ele>401</ele>
        <time>2015-04-26T10:47:09.000Z</time>
      </trkpt>
      <trkpt lat="47.12136" lon="6.12361">
        <ele>401</ele>
        <time>2015-04-26T10:47:11.000Z</time>
      </trkpt>
      <trkpt lat="47.12149" lon="6.12363">
        <ele>403</ele>
        <time>2015-04-26T10:47:15.000Z</time>
      </trkpt>
      <trkpt lat="47.12158" lon="6.12362">
        <ele>403</ele>
        <time>2015-04-26T10:47:19.000Z</time>
      </trkpt>
      <trkpt lat="47.12171" lon="6.12365">
        <ele>407</ele>
        <time>2015-04-26T10:47:25.000Z</time>
      </trkpt>
      <trkpt lat="47.12183" lon="6.12369">
        <ele>417</ele>
        <time>2015-04-26T10:47:31.000Z</time>
      </trkpt>
      <trkpt lat="47.12194" lon="6.12376">
        <ele>422</ele>
        <time>2015-04-26T10:47:35.000Z</time>
      </trkpt>
      <trkpt lat="47.12207" lon="6.12381">
        <ele>417</ele>
        <time>2015-04-26T10:47:39.000Z</time>
      </trkpt>
      <trkpt lat="47.12218" lon="6.12382">
        <ele>413</ele>
        <time>2015-04-26T10:47:43.000Z</time>
      </trkpt>
      <trkpt lat="47.12229" lon="6.12382">
        <ele>407</ele>
        <time>2015-04-26T10:47:47.000Z</time>
      </trkpt>
      <trkpt lat="47.12241" lon="6.12384">
        <ele>407</ele>
        <time>2015-04-26T10:47:51.000Z</time>
      </trkpt>
      <trkpt lat="47.12254" lon="6.12388">
        <ele>403</ele>
        <time>2015-04-26T10:47:55.000Z</time>
      </trkpt>
      <trkpt lat="47.12266" lon="6.12392">
        <ele>409</ele>
        <time>2015-04-26T10:47:59.000Z</time>
      </trkpt>
      <trkpt lat="47.1228" lon="6.12391">
        <ele>413</ele>
        <time>2015-04-26T10:48:03.000Z</time>
      </trkpt>
      <trkpt lat="47.12292" lon="6.12392">
        <ele>412</ele>
        <time>2015-04-26T10:48:07.000Z</time>
      </trkpt>
      <trkpt lat="47.12306" lon="6.12398">
        <ele>406</ele>
        <time>2015-04-26T10:48:13.000Z</time>
      </trkpt>
      <trkpt lat="47.12306" lon="6.12398">
        <ele>406</ele>
        <time>2015-04-26T10:48:15.000Z</time>
      </trkpt>
      <trkpt lat="47.12306" lon="6.12398">
        <ele>406</ele>
        <time>2015-04-26T10:48:17.000Z</time>
      </trkpt>
      <trkpt lat="47.12306" lon="6.12398">
        <ele>406</ele>
        <time>2015-04-26T10:48:20.000Z</time>
      </trkpt>
      <trkpt lat="47.12306" lon="6.12398">
        <ele>406</ele>
        <time>2015-04-26T10:48:24.000Z</time>
      </trkpt>
      <trkpt lat="47.12306" lon="6.12398">
        <ele>406</ele>
        <time>2015-04-26T10:48:34.000Z</time>
      </trkpt>
      <trkpt lat="47.12306" lon="6.12398">
        <ele>406</ele>
        <time>2015-04-26T10:48:37.000Z</time>
      </trkpt>
      <trkpt lat="47.12306" lon="6.12398">
        <ele>406</ele>
        <time>2015-04-26T10:48:39.000Z</time>
      </trkpt>
      <trkpt lat="47.12306" lon="6.12398">
        <ele>406</ele>
        <time>2015-04-26T10:48:41.000Z</time>
      </trkpt>
      <trkpt lat="47.12306" lon="6.12398">
        <ele>406</ele>
        <time>2015-04-26T10:48:43.000Z</time>
      </trkpt>
      <trkpt lat="47.12306" lon="6.12398">
        <ele>406</ele>
        <time>2015-04-26T10:48:45.000Z</time>
      </trkpt>
      <trkpt lat="47.12306" lon="6.12398">
        <ele>406</ele>
        <time>2015-04-26T10:48:49.000Z</time>
      </trkpt>
      <trkpt lat="47.12351" lon="6.12407">
        <ele>430</ele>
        <time>2015-04-26T10:48:59.000Z</time>
      </trkpt>
      <trkpt lat="47.12377" lon="6.12413">
        <ele>428</ele>
        <time>2015-04-26T10:49:01.000Z</time>
      </trkpt>
      <trkpt lat="47.12392" lon="6.12418">
        <ele>424</ele>
        <time>2015-04-26T10:49:03.000Z</time>
      </trkpt>
      <trkpt lat="47.12402" lon="6.12422">
        <ele>419</ele>
        <time>2015-04-26T10:49:05.000Z</time>
      </trkpt>
      <trkpt lat="47.12409" lon="6.12426">
        <ele>416</ele>
        <time>2015-04-26T10:49:07.000Z</time>
      </trkpt>
      <trkpt lat="47.12424" lon="6.12444">
        <ele>420</ele>
        <time>2015-04-26T10:49:11.000Z</time>
      </trkpt>
      <trkpt lat="47.12429" lon="6.12458">
        <ele>412</ele>
        <time>2015-04-26T10:49:15.000Z</time>
      </trkpt>
      <trkpt lat="47.12429" lon="6.12458">
        <ele>412</ele>
        <time>2015-04-26T10:49:17.000Z</time>
      </trkpt>
      <trkpt lat="47.12429" lon="6.12458">
        <ele>412</ele>
        <time>2015-04-26T10:49:19.000Z</time>
      </trkpt>
      <trkpt lat="47.12429" lon="6.12458">
        <ele>412</ele>
        <time>2015-04-26T10:49:21.000Z</time>
      </trkpt>
      <trkpt lat="47.12429" lon="6.12458">
        <ele>412</ele>
        <time>2015-04-26T10:49:23.000Z</time>
      </trkpt>
      <trkpt lat="47.12429" lon="6.12458">
        <ele>412</ele>
        <time>2015-04-26T10:49:25.000Z</time>
      </trkpt>
      <trkpt lat="47.12429" lon="6.12458">
        <ele>412</ele>
        <time>2015-04-26T10:49:27.000Z</time>
      </trkpt>
      <trkpt lat="47.12429" lon="6.12458">
        <ele>412</ele>
        <time>2015-04-26T10:49:29.000Z</time>
      </trkpt>
      <trkpt lat="47.12458" lon="6.12509">
        <ele>427</ele>
        <time>2015-04-26T10:49:35.000Z</time>
      </trkpt>
      <trkpt lat="47.12466" lon="6.12522">
        <ele>425</ele>
        <time>2015-04-26T10:49:41.000Z</time>
      </trkpt>
      <trkpt lat="47.12466" lon="6.12522">
        <ele>425</ele>
        <time>2015-04-26T10:49:43.000Z</time>
      </trkpt>
      <trkpt lat="47.12466" lon="6.12522">
        <ele>425</ele>
        <time>2015-04-26T10:49:45.000Z</time>
      </trkpt>
      <trkpt lat="47.12466" lon="6.12522">
        <ele>425</ele>
        <time>2015-04-26T10:49:47.000Z</time>
      </trkpt>
      <trkpt lat="47.12466" lon="6.12522">
        <ele>425</ele>
        <time>2015-04-26T10:49:49.000Z</time>
      </trkpt>
      <trkpt lat="47.12466" lon="6.12522">
        <ele>425</ele>
        <time>2015-04-26T10:49:51.000Z</time>
      </trkpt>
      <trkpt lat="47.12466" lon="6.12522">
        <ele>425</ele>
        <time>2015-04-26T10:49:53.000Z</time>
      </trkpt>
      <trkpt lat="47.12466" lon="6.12522">
        <ele>425</ele>
        <time>2015-04-26T10:49:55.000Z</time>
      </trkpt>
      <trkpt lat="47.12501" lon="6.12549">
        <ele>428</ele>
        <time>2015-04-26T10:50:01.000Z</time>
      </trkpt>
      <trkpt lat="47.12511" lon="6.12551">
        <ele>423</ele>
        <time>2015-04-26T10:50:07.000Z</time>
      </trkpt>
      <trkpt lat="47.12511" lon="6.12551">
        <ele>423</ele>
        <time>2015-04-26T10:50:09.000Z</time>
      </trkpt>
      <trkpt lat="47.12511" lon="6.12551">
        <ele>423</ele>
        <time>2015-04-26T10:50:11.000Z</time>
      </trkpt>
      <trkpt lat="47.12511" lon="6.12551">
        <ele>423</ele>
        <time>2015-04-26T10:50:13.000Z</time>
      </trkpt>
      <trkpt lat="47.12511" lon="6.12551">
        <ele>423</ele>
        <time>2015-04-26T10:50:15.000Z</time>
      </trkpt>
      <trkpt lat="47.12511" lon="6.12551">
        <ele>423</ele>
        <time>2015-04-26T10:50:19.000Z</time>
      </trkpt>
      <trkpt lat="47.12511" lon="6.12551">
        <ele>423</ele>
        <time>2015-04-26T10:50:22.000Z</time>
      </trkpt>
      <trkpt lat="47.12525" lon="6.12565">
        <ele>441</ele>
        <time>2015-04-26T10:50:29.000Z</time>
      </trkpt>
      <trkpt lat="47.12534" lon="6.12574">
        <ele>442</ele>
        <time>2015-04-26T10:50:31.000Z</time>
      </trkpt>
      <trkpt lat="47.1254" lon="6.12581">
        <ele>441</ele>
        <time>2015-04-26T10:50:33.000Z</time>
      </trkpt>
      <trkpt lat="47.12544" lon="6.12586">
        <ele>437</ele>
        <time>2015-04-26T10:50:35.000Z</time>
      </trkpt>
      <trkpt lat="47.12548" lon="6.12592">
        <ele>442</ele>
        <time>2015-04-26T10:50:37.000Z</time>
      </trkpt>
      <trkpt lat="47.12558" lon="6.12604">
        <ele>434</ele>
        <time>2015-04-26T10:50:41.000Z</time>
      </trkpt>
      <trkpt lat="47.12569" lon="6.12614">
        <ele>433</ele>
        <time>2015-04-26T10:50:47.000Z</time>
      </trkpt>
      <trkpt lat="47.12579" lon="6.12625">
        <ele>435</ele>
        <time>2015-04-26T10:50:53.000Z</time>
      </trkpt>
      <trkpt lat="47.1259" lon="6.12631">
        <ele>440</ele>
        <time>2015-04-26T10:50:59.000Z</time>
      </trkpt>
      <trkpt lat="47.12602" lon="6.12632">
        <ele>446</ele>
        <time>2015-04-26T10:51:03.000Z</time>
      </trkpt>
      <trkpt lat="47.12613" lon="6.12635">
        <ele>441</ele>
        <time>2015-04-26T10:51:07.000Z</time>
      </trkpt>
      <trkpt lat="47.12623" lon="6.1264">
        <ele>445</ele>
        <time>2015-04-26T10:51:11.000Z</time>
      </trkpt>
      <trkpt lat="47.12623" lon="6.1264">
        <ele>445</ele>
        <time>2015-04-26T10:51:15.000Z</time>
      </trkpt>
      <trkpt lat="47.12623" lon="6.1264">
        <ele>445</ele>
        <time>2015-04-26T10:51:17.000Z</time>
      </trkpt>
      <trkpt lat="47.12623" lon="6.1264">
        <ele>445</ele>
        <time>2015-04-26T10:51:19.000Z</time>
      </trkpt>
      <trkpt lat="47.12623" lon="6.1264">
        <ele>445</ele>
        <time>2015-04-26T10:51:21.000Z</time>
      </trkpt>
      <trkpt lat="47.12656" lon="6.12667">
        <ele>433</ele>
        <time>2015-04-26T10:51:27.000Z</time>
      </trkpt>
      <trkpt lat="47.12664" lon="6.12674">
        <ele>438</ele>
        <time>2015-04-26T10:51:31.000Z</time>
      </trkpt>
      <trkpt lat="47.12674" lon="6.12687">
        <ele>441</ele>
        <time>2015-04-26T10:51:37.000Z</time>
      </trkpt>
      <trkpt lat="47.12674" lon="6.12687">
        <ele>441</ele>
        <time>2015-04-26T10:51:39.000Z</time>
      </trkpt>
      <trkpt lat="47.12674" lon="6.12687">
        <ele>441</ele>
        <time>2015-04-26T10:51:41.000Z</time>
      </trkpt>
      <trkpt lat="47.12674" lon="6.12687">
        <ele>441</ele>
        <time>2015-04-26T10:51:43.000Z</time>
      </trkpt>
      <trkpt lat="47.12674" lon="6.12687">
        <ele>441</ele>
        <time>2015-04-26T10:51:45.000Z</time>
      </trkpt>
      <trkpt lat="47.12674" lon="6.12687">
        <ele>441</ele>
        <time>2015-04-26T10:51:47.000Z</time>
      </trkpt>
      <trkpt lat="47.12674" lon="6.12687">
        <ele>441</ele>
        <time>2015-04-26T10:51:49.000Z</time>
      </trkpt>
      <trkpt lat="47.12704" lon="6.12716">
        <ele>447</ele>
        <time>2015-04-26T10:51:53.000Z</time>
      </trkpt>
      <trkpt lat="47.12714" lon="6.12719">
        <ele>444</ele>
        <time>2015-04-26T10:51:57.000Z</time>
      </trkpt>
      <trkpt lat="47.1272" lon="6.12723">
        <ele>448</ele>
        <time>2015-04-26T10:52:03.000Z</time>
      </trkpt>
      <trkpt lat="47.1272" lon="6.12723">
        <ele>448</ele>
        <time>2015-04-26T10:52:05.000Z</time>
      </trkpt>
      <trkpt lat="47.12727" lon="6.12731">
        <ele>451</ele>
        <time>2015-04-26T10:52:07.000Z</time>
      </trkpt>
      <trkpt lat="47.12733" lon="6.12737">
        <ele>447</ele>
        <time>2015-04-26T10:52:09.000Z</time>
      </trkpt>
      <trkpt lat="47.1274" lon="6.12744">
        <ele>447</ele>
        <time>2015-04-26T10:52:13.000Z</time>
      </trkpt>
      <trkpt lat="47.12745" lon="6.12749">
        <ele>449</ele>
        <time>2015-04-26T10:52:15.000Z</time>
      </trkpt>
      <trkpt lat="47.12749" lon="6.12753">
        <ele>447</ele>
        <time>2015-04-26T10:52:17.000Z</time>
      </trkpt>
      <trkpt lat="47.12753" lon="6.12756">
        <ele>451</ele>
        <time>2015-04-26T10:52:19.000Z</time>
      </trkpt>
      <trkpt lat="47.12753" lon="6.12756">
        <ele>451</ele>
        <time>2015-04-26T10:52:21.000Z</time>
      </trkpt>
      <trkpt lat="47.12753" lon="6.12756">
        <ele>451</ele>
        <time>2015-04-26T10:52:23.000Z</time>
      </trkpt>
      <trkpt lat="47.12753" lon="6.12756">
        <ele>451</ele>
        <time>2015-04-26T10:52:25.000Z</time>
      </trkpt>
      <trkpt lat="47.12753" lon="6.12756">
        <ele>451</ele>
        <time>2015-04-26T10:52:27.000Z</time>
      </trkpt>
      <trkpt lat="47.12753" lon="6.12756">
        <ele>451</ele>
        <time>2015-04-26T10:52:29.000Z</time>
      </trkpt>
      <trkpt lat="47.12753" lon="6.12756">
        <ele>451</ele>
        <time>2015-04-26T10:52:31.000Z</time>
      </trkpt>
      <trkpt lat="47.12753" lon="6.12756">
        <ele>451</ele>
        <time>2015-04-26T10:52:33.000Z</time>
      </trkpt>
      <trkpt lat="47.12753" lon="6.12756">
        <ele>451</ele>
        <time>2015-04-26T10:52:35.000Z</time>
      </trkpt>
      <trkpt lat="47.12753" lon="6.12756">
        <ele>451</ele>
        <time>2015-04-26T10:52:37.000Z</time>
      </trkpt>
      <trkpt lat="47.12753" lon="6.12756">
        <ele>451</ele>
        <time>2015-04-26T10:52:39.000Z</time>
      </trkpt>
      <trkpt lat="47.12753" lon="6.12756">
        <ele>451</ele>
        <time>2015-04-26T10:52:41.000Z</time>
      </trkpt>
      <trkpt lat="47.12781" lon="6.12774">
        <ele>461</ele>
        <time>2015-04-26T10:52:47.000Z</time>
      </trkpt>
      <trkpt lat="47.12796" lon="6.12787">
        <ele>461</ele>
        <time>2015-04-26T10:52:49.000Z</time>
      </trkpt>
      <trkpt lat="47.12807" lon="6.12796">
        <ele>464</ele>
        <time>2015-04-26T10:52:51.000Z</time>
      </trkpt>
      <trkpt lat="47.12814" lon="6.12803">
        <ele>458</ele>
        <time>2015-04-26T10:52:53.000Z</time>
      </trkpt>
      <trkpt lat="47.12822" lon="6.12809">
        <ele>452</ele>
        <time>2015-04-26T10:52:57.000Z</time>
      </trkpt>
      <trkpt lat="47.12828" lon="6.12813">
        <ele>456</ele>
        <time>2015-04-26T10:52:59.000Z</time>
      </trkpt>
      <trkpt lat="47.12835" lon="6.12817">
        <ele>443</ele>
        <time>2015-04-26T10:53:03.000Z</time>
      </trkpt>
      <trkpt lat="47.12843" lon="6.12822">
        <ele>440</ele>
        <time>2015-04-26T10:53:07.000Z</time>
      </trkpt>
      <trkpt lat="47.1285" lon="6.12826">
        <ele>444</ele>
        <time>2015-04-26T10:53:09.000Z</time>
      </trkpt>
      <trkpt lat="47.1285" lon="6.12826">
        <ele>444</ele>
        <time>2015-04-26T10:53:11.000Z</time>
      </trkpt>
      <trkpt lat="47.1285" lon="6.12826">
        <ele>444</ele>
        <time>2015-04-26T10:53:13.000Z</time>
      </trkpt>
      <trkpt lat="47.1285" lon="6.12826">
        <ele>444</ele>
        <time>2015-04-26T10:53:15.000Z</time>
      </trkpt>
      <trkpt lat="47.1285" lon="6.12826">
        <ele>444</ele>
        <time>2015-04-26T10:53:17.000Z</time>
      </trkpt>
      <trkpt lat="47.1285" lon="6.12826">
        <ele>444</ele>
        <time>2015-04-26T10:53:19.000Z</time>
      </trkpt>
      <trkpt lat="47.1285" lon="6.12826">
        <ele>444</ele>
        <time>2015-04-26T10:53:21.000Z</time>
      </trkpt>
      <trkpt lat="47.1285" lon="6.12826">
        <ele>444</ele>
        <time>2015-04-26T10:53:23.000Z</time>
      </trkpt>
      <trkpt lat="47.1285" lon="6.12826">
        <ele>444</ele>
        <time>2015-04-26T10:53:25.000Z</time>
      </trkpt>
      <trkpt lat="47.1286" lon="6.12843">
        <ele>457</ele>
        <time>2015-04-26T10:53:27.000Z</time>
      </trkpt>
      <trkpt lat="47.1286" lon="6.12843">
        <ele>457</ele>
        <time>2015-04-26T10:53:29.000Z</time>
      </trkpt>
      <trkpt lat="47.1286" lon="6.12843">
        <ele>457</ele>
        <time>2015-04-26T10:53:31.000Z</time>
      </trkpt>
      <trkpt lat="47.1286" lon="6.12843">
        <ele>457</ele>
        <time>2015-04-26T10:53:33.000Z</time>
      </trkpt>
      <trkpt lat="47.1286" lon="6.12843">
        <ele>457</ele>
        <time>2015-04-26T10:53:35.000Z</time>
      </trkpt>
      <trkpt lat="47.12872" lon="6.12866">
        <ele>476</ele>
        <time>2015-04-26T10:53:37.000Z</time>
      </trkpt>
      <trkpt lat="47.1288" lon="6.12883">
        <ele>478</ele>
        <time>2015-04-26T10:53:39.000Z</time>
      </trkpt>
      <trkpt lat="47.12885" lon="6.12896">
        <ele>485</ele>
        <time>2015-04-26T10:53:41.000Z</time>
      </trkpt>
      <trkpt lat="47.12889" lon="6.12907">
        <ele>477</ele>
        <time>2015-04-26T10:53:43.000Z</time>
      </trkpt>
      <trkpt lat="47.12889" lon="6.12907">
        <ele>477</ele>
        <time>2015-04-26T10:53:45.000Z</time>
      </trkpt>
      <trkpt lat="47.12894" lon="6.12925">
        <ele>478</ele>
        <time>2015-04-26T10:53:49.000Z</time>
      </trkpt>
      <trkpt lat="47.12898" lon="6.12937">
        <ele>475</ele>
        <time>2015-04-26T10:53:51.000Z</time>
      </trkpt>
      <trkpt lat="47.12902" lon="6.12945">
        <ele>474</ele>
        <time>2015-04-26T10:53:53.000Z</time>
      </trkpt>
      <trkpt lat="47.12907" lon="6.12952">
        <ele>467</ele>
        <time>2015-04-26T10:53:55.000Z</time>
      </trkpt>
      <trkpt lat="47.12915" lon="6.12957">
        <ele>467</ele>
        <time>2015-04-26T10:53:59.000Z</time>
      </trkpt>
      <trkpt lat="47.12923" lon="6.12961">
        <ele>466</ele>
        <time>2015-04-26T10:54:01.000Z</time>
      </trkpt>
      <trkpt lat="47.1293" lon="6.12963">
        <ele>462</ele>
        <time>2015-04-26T10:54:03.000Z</time>
      </trkpt>
      <trkpt lat="47.12937" lon="6.12964">
        <ele>460</ele>
        <time>2015-04-26T10:54:05.000Z</time>
      </trkpt>
      <trkpt lat="47.12944" lon="6.12965">
        <ele>458</ele>
        <time>2015-04-26T10:54:07.000Z</time>
      </trkpt>
      <trkpt lat="47.12956" lon="6.12966">
        <ele>456</ele>
        <time>2015-04-26T10:54:09.000Z</time>
      </trkpt>
      <trkpt lat="47.12956" lon="6.12966">
        <ele>456</ele>
        <time>2015-04-26T10:54:11.000Z</time>
      </trkpt>
      <trkpt lat="47.12956" lon="6.12966">
        <ele>456</ele>
        <time>2015-04-26T10:54:13.000Z</time>
      </trkpt>
      <trkpt lat="47.12956" lon="6.12966">
        <ele>456</ele>
        <time>2015-04-26T10:54:15.000Z</time>
      </trkpt>
      <trkpt lat="47.12956" lon="6.12966">
        <ele>456</ele>
        <time>2015-04-26T10:54:17.000Z</time>
      </trkpt>
      <trkpt lat="47.12956" lon="6.12966">
        <ele>456</ele>
        <time>2015-04-26T10:54:19.000Z</time>
      </trkpt>
      <trkpt lat="47.12956" lon="6.12966">
        <ele>456</ele>
        <time>2015-04-26T10:54:21.000Z</time>
      </trkpt>
      <trkpt lat="47.12956" lon="6.12966">
        <ele>456</ele>
        <time>2015-04-26T10:54:23.000Z</time>
      </trkpt>
      <trkpt lat="47.12956" lon="6.12966">
        <ele>456</ele>
        <time>2015-04-26T10:54:25.000Z</time>
      </trkpt>
      <trkpt lat="47.12956" lon="6.12966">
        <ele>456</ele>
        <time>2015-04-26T10:54:27.000Z</time>
      </trkpt>
      <trkpt lat="47.12956" lon="6.12966">
        <ele>456</ele>
        <time>2015-04-26T10:54:29.000Z</time>
      </trkpt>
      <trkpt lat="47.13004" lon="6.12992">
        <ele>467</ele>
        <time>2015-04-26T10:54:35.000Z</time>
      </trkpt>
      <trkpt lat="47.13004" lon="6.12992">
        <ele>467</ele>
        <time>2015-04-26T10:54:37.000Z</time>
      </trkpt>
      <trkpt lat="47.13013" lon="6.13003">
        <ele>472</ele>
        <time>2015-04-26T10:54:41.000Z</time>
      </trkpt>
      <trkpt lat="47.13013" lon="6.13003">
        <ele>472</ele>
        <time>2015-04-26T10:54:45.000Z</time>
      </trkpt>
      <trkpt lat="47.13013" lon="6.13003">
        <ele>472</ele>
        <time>2015-04-26T10:54:47.000Z</time>
      </trkpt>
      <trkpt lat="47.13013" lon="6.13003">
        <ele>472</ele>
        <time>2015-04-26T10:54:49.000Z</time>
      </trkpt>
      <trkpt lat="47.13013" lon="6.13003">
        <ele>472</ele>
        <time>2015-04-26T10:54:51.000Z</time>
      </trkpt>
      <trkpt lat="47.13013" lon="6.13003">
        <ele>472</ele>
        <time>2015-04-26T10:54:53.000Z</time>
      </trkpt>
      <trkpt lat="47.13013" lon="6.13003">
        <ele>472</ele>
        <time>2015-04-26T10:54:57.000Z</time>
      </trkpt>
      <trkpt lat="47.13013" lon="6.13003">
        <ele>472</ele>
        <time>2015-04-26T10:54:59.000Z</time>
      </trkpt>
      <trkpt lat="47.13013" lon="6.13003">
        <ele>472</ele>
        <time>2015-04-26T10:55:01.000Z</time>
      </trkpt>
      <trkpt lat="47.13036" lon="6.13042">
        <ele>483</ele>
        <time>2015-04-26T10:55:07.000Z</time>
      </trkpt>
      <trkpt lat="47.13048" lon="6.13057">
        <ele>488</ele>
        <time>2015-04-26T10:55:16.000Z</time>
      </trkpt>
      <trkpt lat="47.13054" lon="6.13062">
        <ele>492</ele>
        <time>2015-04-26T10:55:22.000Z</time>
      </trkpt>
      <trkpt lat="47.13054" lon="6.13062">
        <ele>492</ele>
        <time>2015-04-26T10:55:24.000Z</time>
      </trkpt>
      <trkpt lat="47.1306" lon="6.1307">
        <ele>506</ele>
        <time>2015-04-26T10:55:30.000Z</time>
      </trkpt>
      <trkpt lat="47.13065" lon="6.13077">
        <ele>515</ele>
        <time>2015-04-26T10:55:32.000Z</time>
      </trkpt>
      <trkpt lat="47.13065" lon="6.13077">
        <ele>515</ele>
        <time>2015-04-26T10:55:34.000Z</time>
      </trkpt>
      <trkpt lat="47.13068" lon="6.1309">
        <ele>522</ele>
        <time>2015-04-26T10:55:36.000Z</time>
      </trkpt>
      <trkpt lat="47.1307" lon="6.13101">
        <ele>520</ele>
        <time>2015-04-26T10:55:38.000Z</time>
      </trkpt>
      <trkpt lat="47.13072" lon="6.13111">
        <ele>526</ele>
        <time>2015-04-26T10:55:40.000Z</time>
      </trkpt>
      <trkpt lat="47.13072" lon="6.13111">
        <ele>526</ele>
        <time>2015-04-26T10:55:42.000Z</time>
      </trkpt>
      <trkpt lat="47.13072" lon="6.13111">
        <ele>526</ele>
        <time>2015-04-26T10:55:45.000Z</time>
      </trkpt>
      <trkpt lat="47.13118" lon="6.13171">
        <ele>496</ele>
        <time>2015-04-26T10:56:09.000Z</time>
      </trkpt>
      <trkpt lat="47.13145" lon="6.13204">
        <ele>498</ele>
        <time>2015-04-26T10:56:11.000Z</time>
      </trkpt>
      <trkpt lat="47.13163" lon="6.13226">
        <ele>502</ele>
        <time>2015-04-26T10:56:13.000Z</time>
      </trkpt>
      <trkpt lat="47.13176" lon="6.13241">
        <ele>496</ele>
        <time>2015-04-26T10:56:15.000Z</time>
      </trkpt>
      <trkpt lat="47.13186" lon="6.13254">
        <ele>492</ele>
        <time>2015-04-26T10:56:17.000Z</time>
      </trkpt>
      <trkpt lat="47.13203" lon="6.13282">
        <ele>487</ele>
        <time>2015-04-26T10:56:19.000Z</time>
      </trkpt>
      <trkpt lat="47.13213" lon="6.13308">
        <ele>478</ele>
        <time>2015-04-26T10:56:23.000Z</time>
      </trkpt>
      <trkpt lat="47.13216" lon="6.13333">
        <ele>488</ele>
        <time>2015-04-26T10:56:29.000Z</time>
      </trkpt>
      <trkpt lat="47.13216" lon="6.13333">
        <ele>488</ele>
        <time>2015-04-26T10:56:31.000Z</time>
      </trkpt>
      <trkpt lat="47.13216" lon="6.13333">
        <ele>488</ele>
        <time>2015-04-26T10:56:33.000Z</time>
      </trkpt>
      <trkpt lat="47.13216" lon="6.13333">
        <ele>488</ele>
        <time>2015-04-26T10:56:35.000Z</time>
      </trkpt>
      <trkpt lat="47.13216" lon="6.13333">
        <ele>488</ele>
        <time>2015-04-26T10:56:37.000Z</time>
      </trkpt>
      <trkpt lat="47.13216" lon="6.13333">
        <ele>488</ele>
        <time>2015-04-26T10:56:39.000Z</time>
      </trkpt>
      <trkpt lat="47.13216" lon="6.13333">
        <ele>488</ele>
        <time>2015-04-26T10:56:41.000Z</time>
      </trkpt>
      <trkpt lat="47.13216" lon="6.13333">
        <ele>488</ele>
        <time>2015-04-26T10:56:43.000Z</time>
      </trkpt>
      <trkpt lat="47.13216" lon="6.13333">
        <ele>488</ele>
        <time>2015-04-26T10:56:47.000Z</time>
      </trkpt>
      <trkpt lat="47.13216" lon="6.13333">
        <ele>488</ele>
        <time>2015-04-26T10:56:49.000Z</time>
      </trkpt>
      <trkpt lat="47.13216" lon="6.13333">
        <ele>488</ele>
        <time>2015-04-26T10:56:54.000Z</time>
      </trkpt>
      <trkpt lat="47.13216" lon="6.13333">
        <ele>488</ele>
        <time>2015-04-26T10:56:56.000Z</time>
      </trkpt>
      <trkpt lat="47.13216" lon="6.13333">
        <ele>488</ele>
        <time>2015-04-26T10:56:58.000Z</time>
      </trkpt>
      <trkpt lat="47.13216" lon="6.13333">
        <ele>488</ele>
        <time>2015-04-26T10:57:00.000Z</time>
      </trkpt>
      <trkpt lat="47.13235" lon="6.13429">
        <ele>488</ele>
        <time>2015-04-26T10:57:02.000Z</time>
      </trkpt>
      <trkpt lat="47.13235" lon="6.13429">
        <ele>488</ele>
        <time>2015-04-26T10:57:08.000Z</time>
      </trkpt>
      <trkpt lat="47.13235" lon="6.13429">
        <ele>488</ele>
        <time>2015-04-26T10:57:10.000Z</time>
      </trkpt>
      <trkpt lat="47.13235" lon="6.13429">
        <ele>488</ele>
        <time>2015-04-26T10:57:13.000Z</time>
      </trkpt>
      <trkpt lat="47.13235" lon="6.13429">
        <ele>488</ele>
        <time>2015-04-26T10:57:15.000Z</time>
      </trkpt>
      <trkpt lat="47.13244" lon="6.13491">
        <ele>475</ele>
        <time>2015-04-26T10:57:21.000Z</time>
      </trkpt>
      <trkpt lat="47.13243" lon="6.13514">
        <ele>470</ele>
        <time>2015-04-26T10:57:29.000Z</time>
      </trkpt>
      <trkpt lat="47.13246" lon="6.1356">
        <ele>479</ele>
        <time>2015-04-26T10:57:54.000Z</time>
      </trkpt>
      <trkpt lat="47.13246" lon="6.1356">
        <ele>479</ele>
        <time>2015-04-26T10:58:02.000Z</time>
      </trkpt>
      <trkpt lat="47.13244" lon="6.13575">
        <ele>489</ele>
        <time>2015-04-26T10:58:21.000Z</time>
      </trkpt>
      <trkpt lat="47.13242" lon="6.13585">
        <ele>481</ele>
        <time>2015-04-26T10:58:23.000Z</time>
      </trkpt>
      <trkpt lat="47.13241" lon="6.13597">
        <ele>484</ele>
        <time>2015-04-26T10:58:29.000Z</time>
      </trkpt>
      <trkpt lat="47.1324" lon="6.13607">
        <ele>474</ele>
        <time>2015-04-26T10:58:31.000Z</time>
      </trkpt>
      <trkpt lat="47.1324" lon="6.13607">
        <ele>474</ele>
        <time>2015-04-26T10:58:33.000Z</time>
      </trkpt>
      <trkpt lat="47.1324" lon="6.1363">
        <ele>479</ele>
        <time>2015-04-26T10:58:39.000Z</time>
      </trkpt>
      <trkpt lat="47.13241" lon="6.13646">
        <ele>480</ele>
        <time>2015-04-26T10:58:41.000Z</time>
      </trkpt>
      <trkpt lat="47.13242" lon="6.13657">
        <ele>483</ele>
        <time>2015-04-26T10:58:43.000Z</time>
      </trkpt>
      <trkpt lat="47.13242" lon="6.13657">
        <ele>483</ele>
        <time>2015-04-26T10:58:45.000Z</time>
      </trkpt>
      <trkpt lat="47.13247" lon="6.13674">
        <ele>480</ele>
        <time>2015-04-26T10:58:49.000Z</time>
      </trkpt>
      <trkpt lat="47.1325" lon="6.13687">
        <ele>477</ele>
        <time>2015-04-26T10:58:51.000Z</time>
      </trkpt>
      <trkpt lat="47.13251" lon="6.13698">
        <ele>478</ele>
        <time>2015-04-26T10:58:53.000Z</time>
      </trkpt>
      <trkpt lat="47.13253" lon="6.13708">
        <ele>481</ele>
        <time>2015-04-26T10:58:55.000Z</time>
      </trkpt>
      <trkpt lat="47.13257" lon="6.13724">
        <ele>481</ele>
        <time>2015-04-26T10:58:59.000Z</time>
      </trkpt>
      <trkpt lat="47.13266" lon="6.13758">
        <ele>480</ele>
        <time>2015-04-26T10:59:03.000Z</time>
      </trkpt>
      <trkpt lat="47.13486" lon="6.13909">
        <ele>473</ele>
        <time>2015-04-26T11:00:37.000Z</time>
      </trkpt>
      <trkpt lat="47.13498" lon="6.13918">
        <ele>464</ele>
        <time>2015-04-26T11:00:47.000Z</time>
      </trkpt>
      <trkpt lat="47.13498" lon="6.13918">
        <ele>464</ele>
        <time>2015-04-26T11:00:49.000Z</time>
      </trkpt>
      <trkpt lat="47.13498" lon="6.13918">
        <ele>464</ele>
        <time>2015-04-26T11:00:57.000Z</time>
      </trkpt>
      <trkpt lat="47.13498" lon="6.13918">
        <ele>464</ele>
        <time>2015-04-26T11:00:59.000Z</time>
      </trkpt>
      <trkpt lat="47.13489" lon="6.13928">
        <ele>410</ele>
        <time>2015-04-26T11:01:58.000Z</time>
      </trkpt>
      <trkpt lat="47.13489" lon="6.13928">
        <ele>410</ele>
        <time>2015-04-26T11:02:02.000Z</time>
      </trkpt>
      <trkpt lat="47.13489" lon="6.13928">
        <ele>410</ele>
        <time>2015-04-26T11:02:04.000Z</time>
      </trkpt>
      <trkpt lat="47.13485" lon="6.13916">
        <ele>440</ele>
        <time>2015-04-26T11:02:13.000Z</time>
      </trkpt>
      <trkpt lat="47.13485" lon="6.13906">
        <ele>437</ele>
        <time>2015-04-26T11:02:15.000Z</time>
      </trkpt>
      <trkpt lat="47.13488" lon="6.13895">
        <ele>444</ele>
        <time>2015-04-26T11:02:17.000Z</time>
      </trkpt>
      <trkpt lat="47.13488" lon="6.13895">
        <ele>444</ele>
        <time>2015-04-26T11:02:19.000Z</time>
      </trkpt>
      <trkpt lat="47.13503" lon="6.1388">
        <ele>423</ele>
        <time>2015-04-26T11:02:25.000Z</time>
      </trkpt>
      <trkpt lat="47.13512" lon="6.1387">
        <ele>414</ele>
        <time>2015-04-26T11:02:27.000Z</time>
      </trkpt>
      <trkpt lat="47.1352" lon="6.13864">
        <ele>409</ele>
        <time>2015-04-26T11:02:30.000Z</time>
      </trkpt>
      <trkpt lat="47.13526" lon="6.13859">
        <ele>407</ele>
        <time>2015-04-26T11:02:32.000Z</time>
      </trkpt>
      <trkpt lat="47.13534" lon="6.13856">
        <ele>412</ele>
        <time>2015-04-26T11:02:36.000Z</time>
      </trkpt>
      <trkpt lat="47.13545" lon="6.13853">
        <ele>455</ele>
        <time>2015-04-26T11:02:38.000Z</time>
      </trkpt>
      <trkpt lat="47.13545" lon="6.13853">
        <ele>455</ele>
        <time>2015-04-26T11:02:40.000Z</time>
      </trkpt>
      <trkpt lat="47.13545" lon="6.13853">
        <ele>455</ele>
        <time>2015-04-26T11:02:42.000Z</time>
      </trkpt>
      <trkpt lat="47.13545" lon="6.13853">
        <ele>455</ele>
        <time>2015-04-26T11:02:44.000Z</time>
      </trkpt>
      <trkpt lat="47.13545" lon="6.13853">
        <ele>455</ele>
        <time>2015-04-26T11:02:46.000Z</time>
      </trkpt>
      <trkpt lat="47.13545" lon="6.13853">
        <ele>455</ele>
        <time>2015-04-26T11:02:48.000Z</time>
      </trkpt>
      <trkpt lat="47.13545" lon="6.13853">
        <ele>455</ele>
        <time>2015-04-26T11:02:50.000Z</time>
      </trkpt>
      <trkpt lat="47.13545" lon="6.13853">
        <ele>455</ele>
        <time>2015-04-26T11:02:52.000Z</time>
      </trkpt>
      <trkpt lat="47.13545" lon="6.13853">
        <ele>455</ele>
        <time>2015-04-26T11:02:54.000Z</time>
      </trkpt>
      <trkpt lat="47.13545" lon="6.13853">
        <ele>455</ele>
        <time>2015-04-26T11:02:56.000Z</time>
      </trkpt>
      <trkpt lat="47.13545" lon="6.13853">
        <ele>455</ele>
        <time>2015-04-26T11:02:58.000Z</time>
      </trkpt>
      <trkpt lat="47.13545" lon="6.13853">
        <ele>455</ele>
        <time>2015-04-26T11:03:00.000Z</time>
      </trkpt>
      <trkpt lat="47.13545" lon="6.13853">
        <ele>455</ele>
        <time>2015-04-26T11:03:02.000Z</time>
      </trkpt>
      <trkpt lat="47.13545" lon="6.13853">
        <ele>455</ele>
        <time>2015-04-26T11:03:04.000Z</time>
      </trkpt>
      <trkpt lat="47.13545" lon="6.13853">
        <ele>455</ele>
        <time>2015-04-26T11:03:06.000Z</time>
      </trkpt>
      <trkpt lat="47.13545" lon="6.13853">
        <ele>455</ele>
        <time>2015-04-26T11:03:08.000Z</time>
      </trkpt>
      <trkpt lat="47.13587" lon="6.13874">
        <ele>430</ele>
        <time>2015-04-26T11:03:16.000Z</time>
      </trkpt>
      <trkpt lat="47.13587" lon="6.13874">
        <ele>430</ele>
        <time>2015-04-26T11:03:19.000Z</time>
      </trkpt>
      <trkpt lat="47.13587" lon="6.13874">
        <ele>430</ele>
        <time>2015-04-26T11:03:21.000Z</time>
      </trkpt>
      <trkpt lat="47.13587" lon="6.13874">
        <ele>430</ele>
        <time>2015-04-26T11:03:23.000Z</time>
      </trkpt>
      <trkpt lat="47.13587" lon="6.13874">
        <ele>430</ele>
        <time>2015-04-26T11:03:25.000Z</time>
      </trkpt>
      <trkpt lat="47.13586" lon="6.13831">
        <ele>427</ele>
        <time>2015-04-26T11:04:00.000Z</time>
      </trkpt>
      <trkpt lat="47.13582" lon="6.13799">
        <ele>422</ele>
        <time>2015-04-26T11:04:02.000Z</time>
      </trkpt>
      <trkpt lat="47.13577" lon="6.13772">
        <ele>417</ele>
        <time>2015-04-26T11:04:04.000Z</time>
      </trkpt>
      <trkpt lat="47.13572" lon="6.1375">
        <ele>417</ele>
        <time>2015-04-26T11:04:06.000Z</time>
      </trkpt>
      <trkpt lat="47.13565" lon="6.13732">
        <ele>415</ele>
        <time>2015-04-26T11:04:08.000Z</time>
      </trkpt>
      <trkpt lat="47.13552" lon="6.13702">
        <ele>410</ele>
        <time>2015-04-26T11:04:10.000Z</time>
      </trkpt>
      <trkpt lat="47.13546" lon="6.13691">
        <ele>413</ele>
        <time>2015-04-26T11:04:12.000Z</time>
      </trkpt>
      <trkpt lat="47.13536" lon="6.13671">
        <ele>414</ele>
        <time>2015-04-26T11:04:16.000Z</time>
      </trkpt>
      <trkpt lat="47.13528" lon="6.13652">
        <ele>414</ele>
        <time>2015-04-26T11:04:20.000Z</time>
      </trkpt>
      <trkpt lat="47.13521" lon="6.13627">
        <ele>416</ele>
        <time>2015-04-26T11:04:26.000Z</time>
      </trkpt>
      <trkpt lat="47.13521" lon="6.13627">
        <ele>416</ele>
        <time>2015-04-26T11:04:28.000Z</time>
      </trkpt>
      <trkpt lat="47.13521" lon="6.13627">
        <ele>416</ele>
        <time>2015-04-26T11:04:31.000Z</time>
      </trkpt>
      <trkpt lat="47.13524" lon="6.13588">
        <ele>415</ele>
        <time>2015-04-26T11:04:33.000Z</time>
      </trkpt>
      <trkpt lat="47.13527" lon="6.1357">
        <ele>418</ele>
        <time>2015-04-26T11:04:37.000Z</time>
      </trkpt>
      <trkpt lat="47.13527" lon="6.1357">
        <ele>418</ele>
        <time>2015-04-26T11:04:39.000Z</time>
      </trkpt>
      <trkpt lat="47.13527" lon="6.1357">
        <ele>418</ele>
        <time>2015-04-26T11:04:41.000Z</time>
      </trkpt>
      <trkpt lat="47.13527" lon="6.1357">
        <ele>418</ele>
        <time>2015-04-26T11:04:43.000Z</time>
      </trkpt>
      <trkpt lat="47.13527" lon="6.1357">
        <ele>418</ele>
        <time>2015-04-26T11:04:45.000Z</time>
      </trkpt>
      <trkpt lat="47.13527" lon="6.1357">
        <ele>418</ele>
        <time>2015-04-26T11:04:47.000Z</time>
      </trkpt>
      <trkpt lat="47.13527" lon="6.1357">
        <ele>418</ele>
        <time>2015-04-26T11:04:49.000Z</time>
      </trkpt>
      <trkpt lat="47.13527" lon="6.1357">
        <ele>418</ele>
        <time>2015-04-26T11:04:51.000Z</time>
      </trkpt>
      <trkpt lat="47.13527" lon="6.1357">
        <ele>418</ele>
        <time>2015-04-26T11:04:53.000Z</time>
      </trkpt>
      <trkpt lat="47.13527" lon="6.1357">
        <ele>418</ele>
        <time>2015-04-26T11:04:55.000Z</time>
      </trkpt>
      <trkpt lat="47.13527" lon="6.1357">
        <ele>418</ele>
        <time>2015-04-26T11:04:57.000Z</time>
      </trkpt>
      <trkpt lat="47.13527" lon="6.1357">
        <ele>418</ele>
        <time>2015-04-26T11:04:59.000Z</time>
      </trkpt>
      <trkpt lat="47.13527" lon="6.1357">
        <ele>418</ele>
        <time>2015-04-26T11:05:01.000Z</time>
      </trkpt>
      <trkpt lat="47.13527" lon="6.1357">
        <ele>418</ele>
        <time>2015-04-26T11:05:03.000Z</time>
      </trkpt>
      <trkpt lat="47.13519" lon="6.13448">
        <ele>436</ele>
        <time>2015-04-26T11:05:07.000Z</time>
      </trkpt>
      <trkpt lat="47.13516" lon="6.13432">
        <ele>438</ele>
        <time>2015-04-26T11:05:11.000Z</time>
      </trkpt>
      <trkpt lat="47.13512" lon="6.13417">
        <ele>441</ele>
        <time>2015-04-26T11:05:15.000Z</time>
      </trkpt>
      <trkpt lat="47.13512" lon="6.13417">
        <ele>441</ele>
        <time>2015-04-26T11:05:17.000Z</time>
      </trkpt>
      <trkpt lat="47.13512" lon="6.13417">
        <ele>441</ele>
        <time>2015-04-26T11:05:19.000Z</time>
      </trkpt>
      <trkpt lat="47.13512" lon="6.13417">
        <ele>441</ele>
        <time>2015-04-26T11:05:21.000Z</time>
      </trkpt>
      <trkpt lat="47.13499" lon="6.13375">
        <ele>444</ele>
        <time>2015-04-26T11:05:27.000Z</time>
      </trkpt>
      <trkpt lat="47.13493" lon="6.13361">
        <ele>448</ele>
        <time>2015-04-26T11:05:31.000Z</time>
      </trkpt>
      <trkpt lat="47.13494" lon="6.13348">
        <ele>439</ele>
        <time>2015-04-26T11:05:37.000Z</time>
      </trkpt>
      <trkpt lat="47.13493" lon="6.13337">
        <ele>447</ele>
        <time>2015-04-26T11:05:39.000Z</time>
      </trkpt>
      <trkpt lat="47.13493" lon="6.13328">
        <ele>448</ele>
        <time>2015-04-26T11:05:41.000Z</time>
      </trkpt>
      <trkpt lat="47.13493" lon="6.13328">
        <ele>448</ele>
        <time>2015-04-26T11:05:46.000Z</time>
      </trkpt>
      <trkpt lat="47.13493" lon="6.13328">
        <ele>448</ele>
        <time>2015-04-26T11:05:48.000Z</time>
      </trkpt>
      <trkpt lat="47.13493" lon="6.13328">
        <ele>448</ele>
        <time>2015-04-26T11:05:50.000Z</time>
      </trkpt>
      <trkpt lat="47.13493" lon="6.13328">
        <ele>448</ele>
        <time>2015-04-26T11:05:52.000Z</time>
      </trkpt>
      <trkpt lat="47.13493" lon="6.13328">
        <ele>448</ele>
        <time>2015-04-26T11:05:54.000Z</time>
      </trkpt>
      <trkpt lat="47.13493" lon="6.13328">
        <ele>448</ele>
        <time>2015-04-26T11:05:56.000Z</time>
      </trkpt>
      <trkpt lat="47.13493" lon="6.13328">
        <ele>448</ele>
        <time>2015-04-26T11:05:58.000Z</time>
      </trkpt>
      <trkpt lat="47.13493" lon="6.13328">
        <ele>448</ele>
        <time>2015-04-26T11:06:00.000Z</time>
      </trkpt>
      <trkpt lat="47.13493" lon="6.13328">
        <ele>448</ele>
        <time>2015-04-26T11:06:02.000Z</time>
      </trkpt>
      <trkpt lat="47.13493" lon="6.13328">
        <ele>448</ele>
        <time>2015-04-26T11:06:04.000Z</time>
      </trkpt>
      <trkpt lat="47.13493" lon="6.13328">
        <ele>448</ele>
        <time>2015-04-26T11:06:06.000Z</time>
      </trkpt>
      <trkpt lat="47.13493" lon="6.13328">
        <ele>448</ele>
        <time>2015-04-26T11:06:08.000Z</time>
      </trkpt>
      <trkpt lat="47.13493" lon="6.13328">
        <ele>448</ele>
        <time>2015-04-26T11:06:10.000Z</time>
      </trkpt>
      <trkpt lat="47.13493" lon="6.13328">
        <ele>448</ele>
        <time>2015-04-26T11:06:12.000Z</time>
      </trkpt>
      <trkpt lat="47.13472" lon="6.13276">
        <ele>451</ele>
        <time>2015-04-26T11:06:18.000Z</time>
      </trkpt>
      <trkpt lat="47.13459" lon="6.13247">
        <ele>449</ele>
        <time>2015-04-26T11:06:20.000Z</time>
      </trkpt>
      <trkpt lat="47.13451" lon="6.1323">
        <ele>449</ele>
        <time>2015-04-26T11:06:22.000Z</time>
      </trkpt>
      <trkpt lat="47.13447" lon="6.13219">
        <ele>454</ele>
        <time>2015-04-26T11:06:24.000Z</time>
      </trkpt>
      <trkpt lat="47.13443" lon="6.13209">
        <ele>454</ele>
        <time>2015-04-26T11:06:26.000Z</time>
      </trkpt>
      <trkpt lat="47.13435" lon="6.13192">
        <ele>451</ele>
        <time>2015-04-26T11:06:28.000Z</time>
      </trkpt>
      <trkpt lat="47.1343" lon="6.13178">
        <ele>455</ele>
        <time>2015-04-26T11:06:32.000Z</time>
      </trkpt>
      <trkpt lat="47.13425" lon="6.13164">
        <ele>451</ele>
        <time>2015-04-26T11:06:36.000Z</time>
      </trkpt>
      <trkpt lat="47.13425" lon="6.13164">
        <ele>451</ele>
        <time>2015-04-26T11:06:38.000Z</time>
      </trkpt>
      <trkpt lat="47.13425" lon="6.13164">
        <ele>451</ele>
        <time>2015-04-26T11:06:40.000Z</time>
      </trkpt>
      <trkpt lat="47.13425" lon="6.13164">
        <ele>451</ele>
        <time>2015-04-26T11:06:42.000Z</time>
      </trkpt>
      <trkpt lat="47.13425" lon="6.13164">
        <ele>451</ele>
        <time>2015-04-26T11:06:44.000Z</time>
      </trkpt>
      <trkpt lat="47.13425" lon="6.13164">
        <ele>451</ele>
        <time>2015-04-26T11:06:46.000Z</time>
      </trkpt>
      <trkpt lat="47.13425" lon="6.13164">
        <ele>451</ele>
        <time>2015-04-26T11:06:48.000Z</time>
      </trkpt>
      <trkpt lat="47.13425" lon="6.13164">
        <ele>451</ele>
        <time>2015-04-26T11:06:50.000Z</time>
      </trkpt>
      <trkpt lat="47.13409" lon="6.13106">
        <ele>450</ele>
        <time>2015-04-26T11:06:54.000Z</time>
      </trkpt>
      <trkpt lat="47.13404" lon="6.13086">
        <ele>451</ele>
        <time>2015-04-26T11:07:00.000Z</time>
      </trkpt>
      <trkpt lat="47.13401" lon="6.13071">
        <ele>459</ele>
        <time>2015-04-26T11:07:04.000Z</time>
      </trkpt>
      <trkpt lat="47.13396" lon="6.13054">
        <ele>471</ele>
        <time>2015-04-26T11:07:10.000Z</time>
      </trkpt>
      <trkpt lat="47.1339" lon="6.13034">
        <ele>470</ele>
        <time>2015-04-26T11:07:16.000Z</time>
      </trkpt>
      <trkpt lat="47.13386" lon="6.1302">
        <ele>466</ele>
        <time>2015-04-26T11:07:20.000Z</time>
      </trkpt>
      <trkpt lat="47.13382" lon="6.13005">
        <ele>469</ele>
        <time>2015-04-26T11:07:24.000Z</time>
      </trkpt>
      <trkpt lat="47.13382" lon="6.13005">
        <ele>469</ele>
        <time>2015-04-26T11:07:26.000Z</time>
      </trkpt>
      <trkpt lat="47.13382" lon="6.13005">
        <ele>469</ele>
        <time>2015-04-26T11:07:28.000Z</time>
      </trkpt>
      <trkpt lat="47.13382" lon="6.13005">
        <ele>469</ele>
        <time>2015-04-26T11:07:30.000Z</time>
      </trkpt>
      <trkpt lat="47.13382" lon="6.13005">
        <ele>469</ele>
        <time>2015-04-26T11:07:32.000Z</time>
      </trkpt>
      <trkpt lat="47.13416" lon="6.13006">
        <ele>441</ele>
        <time>2015-04-26T11:07:44.000Z</time>
      </trkpt>
      <trkpt lat="47.13424" lon="6.13007">
        <ele>436</ele>
        <time>2015-04-26T11:07:50.000Z</time>
      </trkpt>
      <trkpt lat="47.1343" lon="6.13008">
        <ele>436</ele>
        <time>2015-04-26T11:07:52.000Z</time>
      </trkpt>
      <trkpt lat="47.13439" lon="6.13013">
        <ele>427</ele>
        <time>2015-04-26T11:07:56.000Z</time>
      </trkpt>
      <trkpt lat="47.13446" lon="6.13021">
        <ele>423</ele>
        <time>2015-04-26T11:07:59.000Z</time>
      </trkpt>
      <trkpt lat="47.1345" lon="6.13033">
        <ele>418</ele>
        <time>2015-04-26T11:08:02.000Z</time>
      </trkpt>
      <trkpt lat="47.13453" lon="6.13043">
        <ele>419</ele>
        <time>2015-04-26T11:08:04.000Z</time>
      </trkpt>
      <trkpt lat="47.13456" lon="6.13055">
        <ele>415</ele>
        <time>2015-04-26T11:08:07.000Z</time>
      </trkpt>
      <trkpt lat="47.13461" lon="6.13073">
        <ele>416</ele>
        <time>2015-04-26T11:08:09.000Z</time>
      </trkpt>
      <trkpt lat="47.13469" lon="6.13092">
        <ele>428</ele>
        <time>2015-04-26T11:08:15.000Z</time>
      </trkpt>
      <trkpt lat="47.13469" lon="6.13092">
        <ele>428</ele>
        <time>2015-04-26T11:08:17.000Z</time>
      </trkpt>
      <trkpt lat="47.13469" lon="6.13092">
        <ele>428</ele>
        <time>2015-04-26T11:08:19.000Z</time>
      </trkpt>
      <trkpt lat="47.13469" lon="6.13092">
        <ele>428</ele>
        <time>2015-04-26T11:08:21.000Z</time>
      </trkpt>
      <trkpt lat="47.13469" lon="6.13092">
        <ele>428</ele>
        <time>2015-04-26T11:08:23.000Z</time>
      </trkpt>
      <trkpt lat="47.13469" lon="6.13092">
        <ele>428</ele>
        <time>2015-04-26T11:08:25.000Z</time>
      </trkpt>
      <trkpt lat="47.13469" lon="6.13092">
        <ele>428</ele>
        <time>2015-04-26T11:08:27.000Z</time>
      </trkpt>
      <trkpt lat="47.13469" lon="6.13092">
        <ele>428</ele>
        <time>2015-04-26T11:08:29.000Z</time>
      </trkpt>
      <trkpt lat="47.13469" lon="6.13092">
        <ele>428</ele>
        <time>2015-04-26T11:08:32.000Z</time>
      </trkpt>
      <trkpt lat="47.13469" lon="6.13092">
        <ele>428</ele>
        <time>2015-04-26T11:08:34.000Z</time>
      </trkpt>
      <trkpt lat="47.13469" lon="6.13092">
        <ele>428</ele>
        <time>2015-04-26T11:08:36.000Z</time>
      </trkpt>
      <trkpt lat="47.13469" lon="6.13092">
        <ele>428</ele>
        <time>2015-04-26T11:08:38.000Z</time>
      </trkpt>
      <trkpt lat="47.13469" lon="6.13092">
        <ele>428</ele>
        <time>2015-04-26T11:08:41.000Z</time>
      </trkpt>
      <trkpt lat="47.13503" lon="6.1316">
        <ele>440</ele>
        <time>2015-04-26T11:08:45.000Z</time>
      </trkpt>
      <trkpt lat="47.13518" lon="6.1319">
        <ele>435</ele>
        <time>2015-04-26T11:09:00.000Z</time>
      </trkpt>
      <trkpt lat="47.13518" lon="6.1319">
        <ele>435</ele>
        <time>2015-04-26T11:09:02.000Z</time>
      </trkpt>
      <trkpt lat="47.13518" lon="6.1319">
        <ele>435</ele>
        <time>2015-04-26T11:09:04.000Z</time>
      </trkpt>
      <trkpt lat="47.13518" lon="6.1319">
        <ele>435</ele>
        <time>2015-04-26T11:09:06.000Z</time>
      </trkpt>
      <trkpt lat="47.13518" lon="6.1319">
        <ele>435</ele>
        <time>2015-04-26T11:09:08.000Z</time>
      </trkpt>
      <trkpt lat="47.13518" lon="6.1319">
        <ele>435</ele>
        <time>2015-04-26T11:09:10.000Z</time>
      </trkpt>
      <trkpt lat="47.13531" lon="6.13236">
        <ele>411</ele>
        <time>2015-04-26T11:09:14.000Z</time>
      </trkpt>
      <trkpt lat="47.1354" lon="6.1326">
        <ele>408</ele>
        <time>2015-04-26T11:09:20.000Z</time>
      </trkpt>
      <trkpt lat="47.13545" lon="6.13282">
        <ele>424</ele>
        <time>2015-04-26T11:09:25.000Z</time>
      </trkpt>
      <trkpt lat="47.1356" lon="6.13333">
        <ele>415</ele>
        <time>2015-04-26T11:09:37.000Z</time>
      </trkpt>
      <trkpt lat="47.13565" lon="6.13358">
        <ele>418</ele>
        <time>2015-04-26T11:09:42.000Z</time>
      </trkpt>
      <trkpt lat="47.13568" lon="6.13381">
        <ele>425</ele>
        <time>2015-04-26T11:09:46.000Z</time>
      </trkpt>
      <trkpt lat="47.13569" lon="6.13404">
        <ele>427</ele>
        <time>2015-04-26T11:09:50.000Z</time>
      </trkpt>
      <trkpt lat="47.1357" lon="6.13424">
        <ele>427</ele>
        <time>2015-04-26T11:09:54.000Z</time>
      </trkpt>
      <trkpt lat="47.13572" lon="6.13435">
        <ele>430</ele>
        <time>2015-04-26T11:09:58.000Z</time>
      </trkpt>
      <trkpt lat="47.13573" lon="6.13446">
        <ele>429</ele>
        <time>2015-04-26T11:10:00.000Z</time>
      </trkpt>
      <trkpt lat="47.13574" lon="6.13456">
        <ele>430</ele>
        <time>2015-04-26T11:10:02.000Z</time>
      </trkpt>
      <trkpt lat="47.13575" lon="6.13465">
        <ele>430</ele>
        <time>2015-04-26T11:10:04.000Z</time>
      </trkpt>
      <trkpt lat="47.13577" lon="6.13475">
        <ele>434</ele>
        <time>2015-04-26T11:10:06.000Z</time>
      </trkpt>
      <trkpt lat="47.13578" lon="6.13494">
        <ele>438</ele>
        <time>2015-04-26T11:10:08.000Z</time>
      </trkpt>
      <trkpt lat="47.13579" lon="6.13515">
        <ele>440</ele>
        <time>2015-04-26T11:10:12.000Z</time>
      </trkpt>
      <trkpt lat="47.13579" lon="6.13515">
        <ele>440</ele>
        <time>2015-04-26T11:10:14.000Z</time>
      </trkpt>
      <trkpt lat="47.13579" lon="6.13515">
        <ele>440</ele>
        <time>2015-04-26T11:10:18.000Z</time>
      </trkpt>
      <trkpt lat="47.13579" lon="6.13515">
        <ele>440</ele>
        <time>2015-04-26T11:10:23.000Z</time>
      </trkpt>
      <trkpt lat="47.13579" lon="6.13515">
        <ele>440</ele>
        <time>2015-04-26T11:10:26.000Z</time>
      </trkpt>
      <trkpt lat="47.13565" lon="6.13611">
        <ele>479</ele>
        <time>2015-04-26T11:10:33.000Z</time>
      </trkpt>
      <trkpt lat="47.13565" lon="6.13611">
        <ele>479</ele>
        <time>2015-04-26T11:10:39.000Z</time>
      </trkpt>
      <trkpt lat="47.13565" lon="6.13611">
        <ele>479</ele>
        <time>2015-04-26T11:10:41.000Z</time>
      </trkpt>
      <trkpt lat="47.13565" lon="6.13611">
        <ele>479</ele>
        <time>2015-04-26T11:10:43.000Z</time>
      </trkpt>
      <trkpt lat="47.13565" lon="6.13611">
        <ele>479</ele>
        <time>2015-04-26T11:10:45.000Z</time>
      </trkpt>
      <trkpt lat="47.13565" lon="6.13611">
        <ele>479</ele>
        <time>2015-04-26T11:10:47.000Z</time>
      </trkpt>
      <trkpt lat="47.13565" lon="6.13611">
        <ele>479</ele>
        <time>2015-04-26T11:10:55.000Z</time>
      </trkpt>
      <trkpt lat="47.13577" lon="6.13758">
        <ele>453</ele>
        <time>2015-04-26T11:11:01.000Z</time>
      </trkpt>
      <trkpt lat="47.1359" lon="6.13774">
        <ele>442</ele>
        <time>2015-04-26T11:11:05.000Z</time>
      </trkpt>
      <trkpt lat="47.13602" lon="6.13785">
        <ele>434</ele>
        <time>2015-04-26T11:11:09.000Z</time>
      </trkpt>
      <trkpt lat="47.13602" lon="6.13785">
        <ele>434</ele>
        <time>2015-04-26T11:11:11.000Z</time>
      </trkpt>
      <trkpt lat="47.13602" lon="6.13785">
        <ele>434</ele>
        <time>2015-04-26T11:11:13.000Z</time>
      </trkpt>
      <trkpt lat="47.13602" lon="6.13785">
        <ele>434</ele>
        <time>2015-04-26T11:11:15.000Z</time>
      </trkpt>
      <trkpt lat="47.13602" lon="6.13785">
        <ele>434</ele>
        <time>2015-04-26T11:11:17.000Z</time>
      </trkpt>
      <trkpt lat="47.13602" lon="6.13785">
        <ele>434</ele>
        <time>2015-04-26T11:11:19.000Z</time>
      </trkpt>
      <trkpt lat="47.13602" lon="6.13785">
        <ele>434</ele>
        <time>2015-04-26T11:11:21.000Z</time>
      </trkpt>
      <trkpt lat="47.13602" lon="6.13785">
        <ele>434</ele>
        <time>2015-04-26T11:11:23.000Z</time>
      </trkpt>
      <trkpt lat="47.13602" lon="6.13785">
        <ele>434</ele>
        <time>2015-04-26T11:11:25.000Z</time>
      </trkpt>
      <trkpt lat="47.13602" lon="6.13785">
        <ele>434</ele>
        <time>2015-04-26T11:11:27.000Z</time>
      </trkpt>
      <trkpt lat="47.13602" lon="6.13785">
        <ele>434</ele>
        <time>2015-04-26T11:11:29.000Z</time>
      </trkpt>
      <trkpt lat="47.13602" lon="6.13785">
        <ele>434</ele>
        <time>2015-04-26T11:11:31.000Z</time>
      </trkpt>
      <trkpt lat="47.13602" lon="6.13785">
        <ele>434</ele>
        <time>2015-04-26T11:11:33.000Z</time>
      </trkpt>
      <trkpt lat="47.13602" lon="6.13785">
        <ele>434</ele>
        <time>2015-04-26T11:11:35.000Z</time>
      </trkpt>
      <trkpt lat="47.1363" lon="6.13824">
        <ele>431</ele>
        <time>2015-04-26T11:11:39.000Z</time>
      </trkpt>
      <trkpt lat="47.13646" lon="6.13846">
        <ele>429</ele>
        <time>2015-04-26T11:11:41.000Z</time>
      </trkpt>
      <trkpt lat="47.13655" lon="6.1386">
        <ele>429</ele>
        <time>2015-04-26T11:11:43.000Z</time>
      </trkpt>
      <trkpt lat="47.13662" lon="6.13872">
        <ele>427</ele>
        <time>2015-04-26T11:11:45.000Z</time>
      </trkpt>
      <trkpt lat="47.13666" lon="6.13881">
        <ele>425</ele>
        <time>2015-04-26T11:11:47.000Z</time>
      </trkpt>
      <trkpt lat="47.13675" lon="6.13898">
        <ele>426</ele>
        <time>2015-04-26T11:11:49.000Z</time>
      </trkpt>
      <trkpt lat="47.13685" lon="6.13921">
        <ele>429</ele>
        <time>2015-04-26T11:11:55.000Z</time>
      </trkpt>
      <trkpt lat="47.1369" lon="6.13939">
        <ele>440</ele>
        <time>2015-04-26T11:11:59.000Z</time>
      </trkpt>
      <trkpt lat="47.13696" lon="6.13963">
        <ele>441</ele>
        <time>2015-04-26T11:12:03.000Z</time>
      </trkpt>
      <trkpt lat="47.137" lon="6.13986">
        <ele>439</ele>
        <time>2015-04-26T11:12:07.000Z</time>
      </trkpt>
      <trkpt lat="47.13703" lon="6.14008">
        <ele>440</ele>
        <time>2015-04-26T11:12:11.000Z</time>
      </trkpt>
      <trkpt lat="47.13707" lon="6.14029">
        <ele>441</ele>
        <time>2015-04-26T11:12:15.000Z</time>
      </trkpt>
      <trkpt lat="47.1371" lon="6.14052">
        <ele>446</ele>
        <time>2015-04-26T11:12:19.000Z</time>
      </trkpt>
      <trkpt lat="47.1371" lon="6.14052">
        <ele>446</ele>
        <time>2015-04-26T11:12:21.000Z</time>
      </trkpt>
      <trkpt lat="47.1371" lon="6.14052">
        <ele>446</ele>
        <time>2015-04-26T11:12:23.000Z</time>
      </trkpt>
      <trkpt lat="47.13718" lon="6.14114">
        <ele>458</ele>
        <time>2015-04-26T11:12:28.000Z</time>
      </trkpt>
      <trkpt lat="47.13717" lon="6.14138">
        <ele>467</ele>
        <time>2015-04-26T11:12:32.000Z</time>
      </trkpt>
      <trkpt lat="47.1371" lon="6.1416">
        <ele>469</ele>
        <time>2015-04-26T11:12:36.000Z</time>
      </trkpt>
      <trkpt lat="47.1371" lon="6.1416">
        <ele>469</ele>
        <time>2015-04-26T11:12:40.000Z</time>
      </trkpt>
      <trkpt lat="47.1371" lon="6.1416">
        <ele>469</ele>
        <time>2015-04-26T11:12:42.000Z</time>
      </trkpt>
      <trkpt lat="47.1371" lon="6.1416">
        <ele>469</ele>
        <time>2015-04-26T11:12:44.000Z</time>
      </trkpt>
      <trkpt lat="47.1371" lon="6.1416">
        <ele>469</ele>
        <time>2015-04-26T11:12:46.000Z</time>
      </trkpt>
      <trkpt lat="47.1371" lon="6.1416">
        <ele>469</ele>
        <time>2015-04-26T11:12:48.000Z</time>
      </trkpt>
      <trkpt lat="47.1371" lon="6.1416">
        <ele>469</ele>
        <time>2015-04-26T11:12:50.000Z</time>
      </trkpt>
      <trkpt lat="47.1371" lon="6.1416">
        <ele>469</ele>
        <time>2015-04-26T11:12:52.000Z</time>
      </trkpt>
      <trkpt lat="47.1371" lon="6.1416">
        <ele>469</ele>
        <time>2015-04-26T11:12:54.000Z</time>
      </trkpt>
      <trkpt lat="47.1371" lon="6.1416">
        <ele>469</ele>
        <time>2015-04-26T11:12:56.000Z</time>
      </trkpt>
      <trkpt lat="47.1371" lon="6.1416">
        <ele>469</ele>
        <time>2015-04-26T11:12:58.000Z</time>
      </trkpt>
      <trkpt lat="47.1371" lon="6.1416">
        <ele>469</ele>
        <time>2015-04-26T11:13:00.000Z</time>
      </trkpt>
      <trkpt lat="47.1371" lon="6.1416">
        <ele>469</ele>
        <time>2015-04-26T11:13:02.000Z</time>
      </trkpt>
      <trkpt lat="47.1371" lon="6.1416">
        <ele>469</ele>
        <time>2015-04-26T11:13:04.000Z</time>
      </trkpt>
      <trkpt lat="47.1371" lon="6.1416">
        <ele>469</ele>
        <time>2015-04-26T11:13:06.000Z</time>
      </trkpt>
      <trkpt lat="47.1371" lon="6.1416">
        <ele>469</ele>
        <time>2015-04-26T11:13:08.000Z</time>
      </trkpt>
      <trkpt lat="47.1371" lon="6.1416">
        <ele>469</ele>
        <time>2015-04-26T11:13:10.000Z</time>
      </trkpt>
      <trkpt lat="47.13682" lon="6.14306">
        <ele>462</ele>
        <time>2015-04-26T11:13:14.000Z</time>
      </trkpt>
      <trkpt lat="47.13678" lon="6.14315">
        <ele>466</ele>
        <time>2015-04-26T11:13:20.000Z</time>
      </trkpt>
      <trkpt lat="47.13678" lon="6.14315">
        <ele>466</ele>
        <time>2015-04-26T11:13:22.000Z</time>
      </trkpt>
      <trkpt lat="47.13678" lon="6.14315">
        <ele>466</ele>
        <time>2015-04-26T11:13:24.000Z</time>
      </trkpt>
      <trkpt lat="47.13678" lon="6.14315">
        <ele>466</ele>
        <time>2015-04-26T11:13:26.000Z</time>
      </trkpt>
      <trkpt lat="47.13678" lon="6.14315">
        <ele>466</ele>
        <time>2015-04-26T11:13:28.000Z</time>
      </trkpt>
      <trkpt lat="47.13678" lon="6.14315">
        <ele>466</ele>
        <time>2015-04-26T11:13:30.000Z</time>
      </trkpt>
      <trkpt lat="47.13678" lon="6.14315">
        <ele>466</ele>
        <time>2015-04-26T11:13:32.000Z</time>
      </trkpt>
      <trkpt lat="47.13661" lon="6.1435">
        <ele>459</ele>
        <time>2015-04-26T11:13:38.000Z</time>
      </trkpt>
      <trkpt lat="47.13651" lon="6.1437">
        <ele>460</ele>
        <time>2015-04-26T11:13:40.000Z</time>
      </trkpt>
      <trkpt lat="47.13644" lon="6.14385">
        <ele>457</ele>
        <time>2015-04-26T11:13:42.000Z</time>
      </trkpt>
      <trkpt lat="47.13639" lon="6.14397">
        <ele>457</ele>
        <time>2015-04-26T11:13:44.000Z</time>
      </trkpt>
      <trkpt lat="47.13635" lon="6.14408">
        <ele>460</ele>
        <time>2015-04-26T11:13:46.000Z</time>
      </trkpt>
      <trkpt lat="47.1363" lon="6.14427">
        <ele>463</ele>
        <time>2015-04-26T11:13:48.000Z</time>
      </trkpt>
      <trkpt lat="47.13626" lon="6.14448">
        <ele>471</ele>
        <time>2015-04-26T11:13:52.000Z</time>
      </trkpt>
      <trkpt lat="47.13626" lon="6.14448">
        <ele>471</ele>
        <time>2015-04-26T11:13:54.000Z</time>
      </trkpt>
      <trkpt lat="47.13626" lon="6.14448">
        <ele>471</ele>
        <time>2015-04-26T11:13:56.000Z</time>
      </trkpt>
      <trkpt lat="47.13626" lon="6.14448">
        <ele>471</ele>
        <time>2015-04-26T11:13:58.000Z</time>
      </trkpt>
      <trkpt lat="47.13626" lon="6.14448">
        <ele>471</ele>
        <time>2015-04-26T11:14:00.000Z</time>
      </trkpt>
      <trkpt lat="47.13615" lon="6.14528">
        <ele>480</ele>
        <time>2015-04-26T11:14:05.000Z</time>
      </trkpt>
      <trkpt lat="47.13614" lon="6.14553">
        <ele>481</ele>
        <time>2015-04-26T11:14:09.000Z</time>
      </trkpt>
      <trkpt lat="47.13614" lon="6.14574">
        <ele>481</ele>
        <time>2015-04-26T11:14:13.000Z</time>
      </trkpt>
      <trkpt lat="47.13615" lon="6.14602">
        <ele>486</ele>
        <time>2015-04-26T11:14:19.000Z</time>
      </trkpt>
      <trkpt lat="47.13617" lon="6.1463">
        <ele>473</ele>
        <time>2015-04-26T11:14:25.000Z</time>
      </trkpt>
      <trkpt lat="47.13621" lon="6.14643">
        <ele>473</ele>
        <time>2015-04-26T11:14:27.000Z</time>
      </trkpt>
      <trkpt lat="47.13626" lon="6.14655">
        <ele>474</ele>
        <time>2015-04-26T11:14:29.000Z</time>
      </trkpt>
      <trkpt lat="47.13632" lon="6.14669">
        <ele>475</ele>
        <time>2015-04-26T11:14:31.000Z</time>
      </trkpt>
      <trkpt lat="47.13636" lon="6.14683">
        <ele>466</ele>
        <time>2015-04-26T11:14:33.000Z</time>
      </trkpt>
      <trkpt lat="47.13641" lon="6.14706">
        <ele>479</ele>
        <time>2015-04-26T11:14:37.000Z</time>
      </trkpt>
      <trkpt lat="47.1364" lon="6.14732">
        <ele>479</ele>
        <time>2015-04-26T11:14:43.000Z</time>
      </trkpt>
      <trkpt lat="47.1364" lon="6.14732">
        <ele>479</ele>
        <time>2015-04-26T11:14:45.000Z</time>
      </trkpt>
      <trkpt lat="47.1364" lon="6.14732">
        <ele>479</ele>
        <time>2015-04-26T11:14:47.000Z</time>
      </trkpt>
      <trkpt lat="47.1364" lon="6.14732">
        <ele>479</ele>
        <time>2015-04-26T11:14:49.000Z</time>
      </trkpt>
      <trkpt lat="47.1364" lon="6.14732">
        <ele>479</ele>
        <time>2015-04-26T11:14:51.000Z</time>
      </trkpt>
      <trkpt lat="47.1364" lon="6.14732">
        <ele>479</ele>
        <time>2015-04-26T11:14:53.000Z</time>
      </trkpt>
      <trkpt lat="47.1364" lon="6.14732">
        <ele>479</ele>
        <time>2015-04-26T11:14:55.000Z</time>
      </trkpt>
      <trkpt lat="47.1364" lon="6.14732">
        <ele>479</ele>
        <time>2015-04-26T11:14:57.000Z</time>
      </trkpt>
      <trkpt lat="47.1364" lon="6.14732">
        <ele>479</ele>
        <time>2015-04-26T11:14:59.000Z</time>
      </trkpt>
      <trkpt lat="47.1364" lon="6.14732">
        <ele>479</ele>
        <time>2015-04-26T11:15:01.000Z</time>
      </trkpt>
      <trkpt lat="47.1364" lon="6.14732">
        <ele>479</ele>
        <time>2015-04-26T11:15:03.000Z</time>
      </trkpt>
      <trkpt lat="47.1364" lon="6.14732">
        <ele>479</ele>
        <time>2015-04-26T11:15:05.000Z</time>
      </trkpt>
      <trkpt lat="47.1364" lon="6.14732">
        <ele>479</ele>
        <time>2015-04-26T11:15:07.000Z</time>
      </trkpt>
      <trkpt lat="47.1364" lon="6.14732">
        <ele>479</ele>
        <time>2015-04-26T11:15:09.000Z</time>
      </trkpt>
      <trkpt lat="47.1364" lon="6.14732">
        <ele>479</ele>
        <time>2015-04-26T11:15:11.000Z</time>
      </trkpt>
      <trkpt lat="47.1364" lon="6.14732">
        <ele>479</ele>
        <time>2015-04-26T11:15:13.000Z</time>
      </trkpt>
      <trkpt lat="47.13712" lon="6.15268">
        <ele>478</ele>
        <time>2015-04-26T11:16:58.000Z</time>
      </trkpt>
      <trkpt lat="47.13719" lon="6.15286">
        <ele>482</ele>
        <time>2015-04-26T11:17:04.000Z</time>
      </trkpt>
      <trkpt lat="47.1372" lon="6.15308">
        <ele>485</ele>
        <time>2015-04-26T11:17:10.000Z</time>
      </trkpt>
      <trkpt lat="47.13723" lon="6.15331">
        <ele>495</ele>
        <time>2015-04-26T11:17:17.000Z</time>
      </trkpt>
      <trkpt lat="47.13722" lon="6.15352">
        <ele>502</ele>
        <time>2015-04-26T11:17:23.000Z</time>
      </trkpt>
      <trkpt lat="47.13722" lon="6.15352">
        <ele>502</ele>
        <time>2015-04-26T11:17:25.000Z</time>
      </trkpt>
      <trkpt lat="47.13722" lon="6.15352">
        <ele>502</ele>
        <time>2015-04-26T11:17:27.000Z</time>
      </trkpt>
      <trkpt lat="47.13722" lon="6.15352">
        <ele>502</ele>
        <time>2015-04-26T11:17:29.000Z</time>
      </trkpt>
      <trkpt lat="47.13722" lon="6.15352">
        <ele>502</ele>
        <time>2015-04-26T11:17:31.000Z</time>
      </trkpt>
      <trkpt lat="47.13722" lon="6.15352">
        <ele>502</ele>
        <time>2015-04-26T11:17:33.000Z</time>
      </trkpt>
      <trkpt lat="47.13722" lon="6.15352">
        <ele>502</ele>
        <time>2015-04-26T11:17:35.000Z</time>
      </trkpt>
      <trkpt lat="47.13722" lon="6.15352">
        <ele>502</ele>
        <time>2015-04-26T11:17:37.000Z</time>
      </trkpt>
      <trkpt lat="47.13722" lon="6.15352">
        <ele>502</ele>
        <time>2015-04-26T11:17:39.000Z</time>
      </trkpt>
      <trkpt lat="47.13722" lon="6.15352">
        <ele>502</ele>
        <time>2015-04-26T11:17:41.000Z</time>
      </trkpt>
      <trkpt lat="47.13722" lon="6.15352">
        <ele>502</ele>
        <time>2015-04-26T11:17:43.000Z</time>
      </trkpt>
      <trkpt lat="47.13722" lon="6.15352">
        <ele>502</ele>
        <time>2015-04-26T11:17:45.000Z</time>
      </trkpt>
      <trkpt lat="47.13737" lon="6.15429">
        <ele>486</ele>
        <time>2015-04-26T11:17:51.000Z</time>
      </trkpt>
      <trkpt lat="47.13741" lon="6.15444">
        <ele>487</ele>
        <time>2015-04-26T11:17:55.000Z</time>
      </trkpt>
      <trkpt lat="47.13749" lon="6.15466">
        <ele>476</ele>
        <time>2015-04-26T11:18:01.000Z</time>
      </trkpt>
      <trkpt lat="47.13756" lon="6.15486">
        <ele>475</ele>
        <time>2015-04-26T11:18:07.000Z</time>
      </trkpt>
      <trkpt lat="47.13756" lon="6.15486">
        <ele>475</ele>
        <time>2015-04-26T11:18:11.000Z</time>
      </trkpt>
      <trkpt lat="47.13765" lon="6.15506">
        <ele>478</ele>
        <time>2015-04-26T11:18:13.000Z</time>
      </trkpt>
      <trkpt lat="47.13765" lon="6.15506">
        <ele>478</ele>
        <time>2015-04-26T11:18:15.000Z</time>
      </trkpt>
      <trkpt lat="47.13773" lon="6.15525">
        <ele>473</ele>
        <time>2015-04-26T11:18:19.000Z</time>
      </trkpt>
      <trkpt lat="47.1389" lon="6.15649">
        <ele>472</ele>
        <time>2015-04-26T11:18:51.000Z</time>
      </trkpt>
      <trkpt lat="47.13896" lon="6.15658">
        <ele>475</ele>
        <time>2015-04-26T11:18:55.000Z</time>
      </trkpt>
      <trkpt lat="47.13902" lon="6.15665">
        <ele>479</ele>
        <time>2015-04-26T11:18:57.000Z</time>
      </trkpt>
      <trkpt lat="47.13907" lon="6.15672">
        <ele>478</ele>
        <time>2015-04-26T11:18:59.000Z</time>
      </trkpt>
      <trkpt lat="47.13912" lon="6.15681">
        <ele>474</ele>
        <time>2015-04-26T11:19:01.000Z</time>
      </trkpt>
      <trkpt lat="47.13916" lon="6.15689">
        <ele>481</ele>
        <time>2015-04-26T11:19:03.000Z</time>
      </trkpt>
      <trkpt lat="47.13924" lon="6.15713">
        <ele>482</ele>
        <time>2015-04-26T11:19:07.000Z</time>
      </trkpt>
      <trkpt lat="47.13931" lon="6.15731">
        <ele>491</ele>
        <time>2015-04-26T11:19:11.000Z</time>
      </trkpt>
      <trkpt lat="47.13937" lon="6.1575">
        <ele>506</ele>
        <time>2015-04-26T11:19:15.000Z</time>
      </trkpt>
      <trkpt lat="47.13948" lon="6.15771">
        <ele>507</ele>
        <time>2015-04-26T11:19:19.000Z</time>
      </trkpt>
      <trkpt lat="47.13957" lon="6.15789">
        <ele>511</ele>
        <time>2015-04-26T11:19:23.000Z</time>
      </trkpt>
      <trkpt lat="47.13966" lon="6.15813">
        <ele>521</ele>
        <time>2015-04-26T11:19:29.000Z</time>
      </trkpt>
      <trkpt lat="47.13966" lon="6.15813">
        <ele>521</ele>
        <time>2015-04-26T11:19:31.000Z</time>
      </trkpt>
      <trkpt lat="47.13966" lon="6.15813">
        <ele>521</ele>
        <time>2015-04-26T11:19:33.000Z</time>
      </trkpt>
      <trkpt lat="47.13966" lon="6.15813">
        <ele>521</ele>
        <time>2015-04-26T11:19:35.000Z</time>
      </trkpt>
      <trkpt lat="47.13966" lon="6.15813">
        <ele>521</ele>
        <time>2015-04-26T11:19:37.000Z</time>
      </trkpt>
      <trkpt lat="47.13966" lon="6.15813">
        <ele>521</ele>
        <time>2015-04-26T11:19:39.000Z</time>
      </trkpt>
      <trkpt lat="47.13966" lon="6.15813">
        <ele>521</ele>
        <time>2015-04-26T11:19:41.000Z</time>
      </trkpt>
      <trkpt lat="47.13966" lon="6.15813">
        <ele>521</ele>
        <time>2015-04-26T11:19:43.000Z</time>
      </trkpt>
      <trkpt lat="47.13966" lon="6.15813">
        <ele>521</ele>
        <time>2015-04-26T11:19:45.000Z</time>
      </trkpt>
      <trkpt lat="47.13966" lon="6.15813">
        <ele>521</ele>
        <time>2015-04-26T11:19:47.000Z</time>
      </trkpt>
      <trkpt lat="47.13966" lon="6.15813">
        <ele>521</ele>
        <time>2015-04-26T11:19:49.000Z</time>
      </trkpt>
      <trkpt lat="47.13966" lon="6.15813">
        <ele>521</ele>
        <time>2015-04-26T11:19:51.000Z</time>
      </trkpt>
      <trkpt lat="47.13966" lon="6.15813">
        <ele>521</ele>
        <time>2015-04-26T11:19:53.000Z</time>
      </trkpt>
      <trkpt lat="47.13966" lon="6.15813">
        <ele>521</ele>
        <time>2015-04-26T11:19:55.000Z</time>
      </trkpt>
      <trkpt lat="47.13966" lon="6.15813">
        <ele>521</ele>
        <time>2015-04-26T11:19:57.000Z</time>
      </trkpt>
      <trkpt lat="47.13966" lon="6.15813">
        <ele>521</ele>
        <time>2015-04-26T11:19:59.000Z</time>
      </trkpt>
      <trkpt lat="47.13966" lon="6.15813">
        <ele>521</ele>
        <time>2015-04-26T11:20:01.000Z</time>
      </trkpt>
      <trkpt lat="47.13966" lon="6.15813">
        <ele>521</ele>
        <time>2015-04-26T11:20:03.000Z</time>
      </trkpt>
      <trkpt lat="47.13966" lon="6.15813">
        <ele>521</ele>
        <time>2015-04-26T11:20:05.000Z</time>
      </trkpt>
      <trkpt lat="47.13966" lon="6.15813">
        <ele>521</ele>
        <time>2015-04-26T11:20:07.000Z</time>
      </trkpt>
      <trkpt lat="47.13966" lon="6.15813">
        <ele>521</ele>
        <time>2015-04-26T11:20:09.000Z</time>
      </trkpt>
      <trkpt lat="47.13966" lon="6.15813">
        <ele>521</ele>
        <time>2015-04-26T11:20:11.000Z</time>
      </trkpt>
      <trkpt lat="47.13966" lon="6.15813">
        <ele>521</ele>
        <time>2015-04-26T11:20:13.000Z</time>
      </trkpt>
      <trkpt lat="47.13966" lon="6.15813">
        <ele>521</ele>
        <time>2015-04-26T11:20:15.000Z</time>
      </trkpt>
      <trkpt lat="47.13966" lon="6.15813">
        <ele>521</ele>
        <time>2015-04-26T11:20:17.000Z</time>
      </trkpt>
      <trkpt lat="47.13966" lon="6.15813">
        <ele>521</ele>
        <time>2015-04-26T11:20:19.000Z</time>
      </trkpt>
      <trkpt lat="47.13966" lon="6.15813">
        <ele>521</ele>
        <time>2015-04-26T11:20:21.000Z</time>
      </trkpt>
      <trkpt lat="47.13966" lon="6.15813">
        <ele>521</ele>
        <time>2015-04-26T11:20:23.000Z</time>
      </trkpt>
      <trkpt lat="47.13966" lon="6.15813">
        <ele>521</ele>
        <time>2015-04-26T11:20:25.000Z</time>
      </trkpt>
      <trkpt lat="47.13966" lon="6.15813">
        <ele>521</ele>
        <time>2015-04-26T11:20:27.000Z</time>
      </trkpt>
      <trkpt lat="47.13966" lon="6.15813">
        <ele>521</ele>
        <time>2015-04-26T11:20:29.000Z</time>
      </trkpt>
      <trkpt lat="47.14004" lon="6.15907">
        <ele>514</ele>
        <time>2015-04-26T11:20:33.000Z</time>
      </trkpt>
      <trkpt lat="47.14024" lon="6.15958">
        <ele>511</ele>
        <time>2015-04-26T11:20:35.000Z</time>
      </trkpt>
      <trkpt lat="47.14037" lon="6.15986">
        <ele>507</ele>
        <time>2015-04-26T11:20:37.000Z</time>
      </trkpt>
      <trkpt lat="47.14046" lon="6.16004">
        <ele>504</ele>
        <time>2015-04-26T11:20:40.000Z</time>
      </trkpt>
      <trkpt lat="47.14052" lon="6.16016">
        <ele>503</ele>
        <time>2015-04-26T11:20:42.000Z</time>
      </trkpt>
      <trkpt lat="47.14062" lon="6.16033">
        <ele>511</ele>
        <time>2015-04-26T11:20:44.000Z</time>
      </trkpt>
      <trkpt lat="47.14072" lon="6.16048">
        <ele>509</ele>
        <time>2015-04-26T11:20:49.000Z</time>
      </trkpt>
      <trkpt lat="47.14083" lon="6.16067">
        <ele>509</ele>
        <time>2015-04-26T11:20:54.000Z</time>
      </trkpt>
      <trkpt lat="47.14098" lon="6.16097">
        <ele>510</ele>
        <time>2015-04-26T11:21:02.000Z</time>
      </trkpt>
      <trkpt lat="47.14138" lon="6.16144">
        <ele>514</ele>
        <time>2015-04-26T11:21:25.000Z</time>
      </trkpt>
      <trkpt lat="47.14151" lon="6.16154">
        <ele>513</ele>
        <time>2015-04-26T11:21:30.000Z</time>
      </trkpt>
      <trkpt lat="47.14245" lon="6.1629">
        <ele>511</ele>
        <time>2015-04-26T11:22:15.000Z</time>
      </trkpt>
      <trkpt lat="47.14245" lon="6.1629">
        <ele>511</ele>
        <time>2015-04-26T11:22:19.000Z</time>
      </trkpt>
      <trkpt lat="47.14245" lon="6.1629">
        <ele>511</ele>
        <time>2015-04-26T11:22:21.000Z</time>
      </trkpt>
      <trkpt lat="47.1424" lon="6.16275">
        <ele>525</ele>
        <time>2015-04-26T11:22:57.000Z</time>
      </trkpt>
      <trkpt lat="47.1424" lon="6.16275">
        <ele>525</ele>
        <time>2015-04-26T11:23:00.000Z</time>
      </trkpt>
      <trkpt lat="47.1424" lon="6.16275">
        <ele>525</ele>
        <time>2015-04-26T11:23:02.000Z</time>
      </trkpt>
      <trkpt lat="47.1424" lon="6.16275">
        <ele>525</ele>
        <time>2015-04-26T11:23:04.000Z</time>
      </trkpt>
      <trkpt lat="47.1424" lon="6.16275">
        <ele>525</ele>
        <time>2015-04-26T11:23:06.000Z</time>
      </trkpt>
      <trkpt lat="47.14257" lon="6.16263">
        <ele>514</ele>
        <time>2015-04-26T11:26:24.000Z</time>
      </trkpt>
      <trkpt lat="47.14267" lon="6.16257">
        <ele>514</ele>
        <time>2015-04-26T11:26:26.000Z</time>
      </trkpt>
      <trkpt lat="47.14275" lon="6.16252">
        <ele>511</ele>
        <time>2015-04-26T11:26:28.000Z</time>
      </trkpt>
      <trkpt lat="47.14282" lon="6.16249">
        <ele>508</ele>
        <time>2015-04-26T11:26:30.000Z</time>
      </trkpt>
      <trkpt lat="47.14288" lon="6.16247">
        <ele>507</ele>
        <time>2015-04-26T11:26:32.000Z</time>
      </trkpt>
      <trkpt lat="47.14303" lon="6.16241">
        <ele>500</ele>
        <time>2015-04-26T11:26:36.000Z</time>
      </trkpt>
      <trkpt lat="47.14303" lon="6.16241">
        <ele>500</ele>
        <time>2015-04-26T11:26:42.000Z</time>
      </trkpt>
      <trkpt lat="47.14303" lon="6.16241">
        <ele>500</ele>
        <time>2015-04-26T11:26:44.000Z</time>
      </trkpt>
      <trkpt lat="47.14303" lon="6.16241">
        <ele>500</ele>
        <time>2015-04-26T11:26:46.000Z</time>
      </trkpt>
      <trkpt lat="47.14303" lon="6.16241">
        <ele>500</ele>
        <time>2015-04-26T11:26:48.000Z</time>
      </trkpt>
      <trkpt lat="47.14303" lon="6.16241">
        <ele>500</ele>
        <time>2015-04-26T11:26:50.000Z</time>
      </trkpt>
      <trkpt lat="47.14303" lon="6.16241">
        <ele>500</ele>
        <time>2015-04-26T11:26:56.000Z</time>
      </trkpt>
      <trkpt lat="47.14303" lon="6.16241">
        <ele>500</ele>
        <time>2015-04-26T11:27:00.000Z</time>
      </trkpt>
      <trkpt lat="47.14303" lon="6.16241">
        <ele>500</ele>
        <time>2015-04-26T11:27:03.000Z</time>
      </trkpt>
      <trkpt lat="47.14365" lon="6.162">
        <ele>524</ele>
        <time>2015-04-26T11:27:11.000Z</time>
      </trkpt>
      <trkpt lat="47.14365" lon="6.162">
        <ele>524</ele>
        <time>2015-04-26T11:27:13.000Z</time>
      </trkpt>
      <trkpt lat="47.14365" lon="6.162">
        <ele>524</ele>
        <time>2015-04-26T11:27:15.000Z</time>
      </trkpt>
      <trkpt lat="47.14389" lon="6.16207">
        <ele>519</ele>
        <time>2015-04-26T11:27:19.000Z</time>
      </trkpt>
      <trkpt lat="47.14407" lon="6.16215">
        <ele>520</ele>
        <time>2015-04-26T11:27:25.000Z</time>
      </trkpt>
      <trkpt lat="47.14407" lon="6.16215">
        <ele>520</ele>
        <time>2015-04-26T11:27:47.000Z</time>
      </trkpt>
      <trkpt lat="47.14456" lon="6.16143">
        <ele>519</ele>
        <time>2015-04-26T11:27:51.000Z</time>
      </trkpt>
      <trkpt lat="47.14456" lon="6.16143">
        <ele>519</ele>
        <time>2015-04-26T11:27:56.000Z</time>
      </trkpt>
      <trkpt lat="47.14456" lon="6.16143">
        <ele>519</ele>
        <time>2015-04-26T11:27:58.000Z</time>
      </trkpt>
      <trkpt lat="47.14419" lon="6.16041">
        <ele>522</ele>
        <time>2015-04-26T11:31:25.000Z</time>
      </trkpt>
      <trkpt lat="47.14399" lon="6.15985">
        <ele>524</ele>
        <time>2015-04-26T11:31:27.000Z</time>
      </trkpt>
      <trkpt lat="47.14388" lon="6.15949">
        <ele>527</ele>
        <time>2015-04-26T11:31:30.000Z</time>
      </trkpt>
      <trkpt lat="47.14381" lon="6.15927">
        <ele>532</ele>
        <time>2015-04-26T11:31:32.000Z</time>
      </trkpt>
      <trkpt lat="47.14376" lon="6.15911">
        <ele>534</ele>
        <time>2015-04-26T11:31:34.000Z</time>
      </trkpt>
      <trkpt lat="47.14368" lon="6.15888">
        <ele>532</ele>
        <time>2015-04-26T11:31:36.000Z</time>
      </trkpt>
      <trkpt lat="47.1435" lon="6.15861">
        <ele>552</ele>
        <time>2015-04-26T11:31:45.000Z</time>
      </trkpt>
      <trkpt lat="47.1435" lon="6.15861">
        <ele>552</ele>
        <time>2015-04-26T11:31:48.000Z</time>
      </trkpt>
      <trkpt lat="47.1435" lon="6.15861">
        <ele>552</ele>
        <time>2015-04-26T11:31:50.000Z</time>
      </trkpt>
      <trkpt lat="47.14325" lon="6.15843">
        <ele>572</ele>
        <time>2015-04-26T11:31:53.000Z</time>
      </trkpt>
      <trkpt lat="47.14325" lon="6.15843">
        <ele>572</ele>
        <time>2015-04-26T11:31:55.000Z</time>
      </trkpt>
      <trkpt lat="47.14325" lon="6.15843">
        <ele>572</ele>
        <time>2015-04-26T11:31:57.000Z</time>
      </trkpt>
      <trkpt lat="47.14325" lon="6.15843">
        <ele>572</ele>
        <time>2015-04-26T11:32:02.000Z</time>
      </trkpt>
      <trkpt lat="47.14289" lon="6.1579">
        <ele>581</ele>
        <time>2015-04-26T11:32:07.000Z</time>
      </trkpt>
      <trkpt lat="47.1428" lon="6.15762">
        <ele>581</ele>
        <time>2015-04-26T11:32:12.000Z</time>
      </trkpt>
      <trkpt lat="47.14278" lon="6.15743">
        <ele>577</ele>
        <time>2015-04-26T11:32:14.000Z</time>
      </trkpt>
      <trkpt lat="47.14275" lon="6.15721">
        <ele>573</ele>
        <time>2015-04-26T11:32:17.000Z</time>
      </trkpt>
      <trkpt lat="47.14265" lon="6.15696">
        <ele>582</ele>
        <time>2015-04-26T11:32:21.000Z</time>
      </trkpt>
      <trkpt lat="47.14256" lon="6.15672">
        <ele>583</ele>
        <time>2015-04-26T11:32:25.000Z</time>
      </trkpt>
      <trkpt lat="47.14247" lon="6.15648">
        <ele>586</ele>
        <time>2015-04-26T11:32:28.000Z</time>
      </trkpt>
      <trkpt lat="47.14237" lon="6.15613">
        <ele>586</ele>
        <time>2015-04-26T11:32:32.000Z</time>
      </trkpt>
      <trkpt lat="47.14228" lon="6.15586">
        <ele>591</ele>
        <time>2015-04-26T11:32:36.000Z</time>
      </trkpt>
      <trkpt lat="47.14215" lon="6.15557">
        <ele>592</ele>
        <time>2015-04-26T11:32:40.000Z</time>
      </trkpt>
      <trkpt lat="47.14202" lon="6.15535">
        <ele>596</ele>
        <time>2015-04-26T11:32:44.000Z</time>
      </trkpt>
      <trkpt lat="47.14191" lon="6.15513">
        <ele>601</ele>
        <time>2015-04-26T11:32:48.000Z</time>
      </trkpt>
      <trkpt lat="47.14191" lon="6.15513">
        <ele>601</ele>
        <time>2015-04-26T11:32:50.000Z</time>
      </trkpt>
      <trkpt lat="47.14191" lon="6.15513">
        <ele>601</ele>
        <time>2015-04-26T11:32:52.000Z</time>
      </trkpt>
      <trkpt lat="47.14191" lon="6.15513">
        <ele>601</ele>
        <time>2015-04-26T11:32:54.000Z</time>
      </trkpt>
      <trkpt lat="47.14191" lon="6.15513">
        <ele>601</ele>
        <time>2015-04-26T11:32:56.000Z</time>
      </trkpt>
      <trkpt lat="47.14191" lon="6.15513">
        <ele>601</ele>
        <time>2015-04-26T11:32:58.000Z</time>
      </trkpt>
      <trkpt lat="47.14191" lon="6.15513">
        <ele>601</ele>
        <time>2015-04-26T11:33:00.000Z</time>
      </trkpt>
      <trkpt lat="47.14191" lon="6.15513">
        <ele>601</ele>
        <time>2015-04-26T11:33:03.000Z</time>
      </trkpt>
      <trkpt lat="47.14191" lon="6.15513">
        <ele>601</ele>
        <time>2015-04-26T11:33:05.000Z</time>
      </trkpt>
      <trkpt lat="47.14191" lon="6.15513">
        <ele>601</ele>
        <time>2015-04-26T11:33:07.000Z</time>
      </trkpt>
      <trkpt lat="47.14191" lon="6.15513">
        <ele>601</ele>
        <time>2015-04-26T11:33:09.000Z</time>
      </trkpt>
      <trkpt lat="47.14191" lon="6.15513">
        <ele>601</ele>
        <time>2015-04-26T11:33:11.000Z</time>
      </trkpt>
      <trkpt lat="47.14191" lon="6.15513">
        <ele>601</ele>
        <time>2015-04-26T11:33:13.000Z</time>
      </trkpt>
      <trkpt lat="47.14191" lon="6.15513">
        <ele>601</ele>
        <time>2015-04-26T11:33:15.000Z</time>
      </trkpt>
      <trkpt lat="47.14161" lon="6.15429">
        <ele>574</ele>
        <time>2015-04-26T11:33:21.000Z</time>
      </trkpt>
      <trkpt lat="47.14145" lon="6.15384">
        <ele>575</ele>
        <time>2015-04-26T11:33:23.000Z</time>
      </trkpt>
      <trkpt lat="47.14145" lon="6.15384">
        <ele>575</ele>
        <time>2015-04-26T11:33:25.000Z</time>
      </trkpt>
      <trkpt lat="47.14132" lon="6.15353">
        <ele>576</ele>
        <time>2015-04-26T11:33:27.000Z</time>
      </trkpt>
      <trkpt lat="47.14122" lon="6.15333">
        <ele>574</ele>
        <time>2015-04-26T11:33:29.000Z</time>
      </trkpt>
      <trkpt lat="47.14115" lon="6.15319">
        <ele>575</ele>
        <time>2015-04-26T11:33:31.000Z</time>
      </trkpt>
      <trkpt lat="47.14109" lon="6.15308">
        <ele>576</ele>
        <time>2015-04-26T11:33:33.000Z</time>
      </trkpt>
      <trkpt lat="47.14103" lon="6.15299">
        <ele>573</ele>
        <time>2015-04-26T11:33:35.000Z</time>
      </trkpt>
      <trkpt lat="47.1409" lon="6.15283">
        <ele>568</ele>
        <time>2015-04-26T11:33:37.000Z</time>
      </trkpt>
      <trkpt lat="47.14082" lon="6.15273">
        <ele>568</ele>
        <time>2015-04-26T11:33:39.000Z</time>
      </trkpt>
      <trkpt lat="47.14067" lon="6.1525">
        <ele>565</ele>
        <time>2015-04-26T11:33:43.000Z</time>
      </trkpt>
      <trkpt lat="47.14057" lon="6.15231">
        <ele>559</ele>
        <time>2015-04-26T11:33:47.000Z</time>
      </trkpt>
      <trkpt lat="47.14053" lon="6.15218">
        <ele>564</ele>
        <time>2015-04-26T11:33:49.000Z</time>
      </trkpt>
      <trkpt lat="47.1405" lon="6.15204">
        <ele>565</ele>
        <time>2015-04-26T11:33:51.000Z</time>
      </trkpt>
      <trkpt lat="47.14047" lon="6.1519">
        <ele>565</ele>
        <time>2015-04-26T11:33:53.000Z</time>
      </trkpt>
      <trkpt lat="47.1404" lon="6.15179">
        <ele>566</ele>
        <time>2015-04-26T11:33:55.000Z</time>
      </trkpt>
      <trkpt lat="47.14033" lon="6.15153">
        <ele>566</ele>
        <time>2015-04-26T11:33:59.000Z</time>
      </trkpt>
      <trkpt lat="47.14021" lon="6.15125">
        <ele>568</ele>
        <time>2015-04-26T11:34:03.000Z</time>
      </trkpt>
      <trkpt lat="47.14013" lon="6.15097">
        <ele>570</ele>
        <time>2015-04-26T11:34:07.000Z</time>
      </trkpt>
      <trkpt lat="47.14007" lon="6.15073">
        <ele>569</ele>
        <time>2015-04-26T11:34:11.000Z</time>
      </trkpt>
      <trkpt lat="47.14007" lon="6.15073">
        <ele>569</ele>
        <time>2015-04-26T11:34:13.000Z</time>
      </trkpt>
      <trkpt lat="47.14001" lon="6.15052">
        <ele>568</ele>
        <time>2015-04-26T11:34:15.000Z</time>
      </trkpt>
      <trkpt lat="47.14001" lon="6.15052">
        <ele>568</ele>
        <time>2015-04-26T11:34:17.000Z</time>
      </trkpt>
      <trkpt lat="47.14001" lon="6.15052">
        <ele>568</ele>
        <time>2015-04-26T11:34:19.000Z</time>
      </trkpt>
      <trkpt lat="47.14001" lon="6.15052">
        <ele>568</ele>
        <time>2015-04-26T11:34:21.000Z</time>
      </trkpt>
      <trkpt lat="47.14001" lon="6.15052">
        <ele>568</ele>
        <time>2015-04-26T11:34:23.000Z</time>
      </trkpt>
      <trkpt lat="47.14001" lon="6.15052">
        <ele>568</ele>
        <time>2015-04-26T11:34:25.000Z</time>
      </trkpt>
      <trkpt lat="47.14001" lon="6.15052">
        <ele>568</ele>
        <time>2015-04-26T11:34:27.000Z</time>
      </trkpt>
      <trkpt lat="47.14001" lon="6.15052">
        <ele>568</ele>
        <time>2015-04-26T11:34:29.000Z</time>
      </trkpt>
      <trkpt lat="47.14001" lon="6.15052">
        <ele>568</ele>
        <time>2015-04-26T11:34:31.000Z</time>
      </trkpt>
      <trkpt lat="47.14001" lon="6.15052">
        <ele>568</ele>
        <time>2015-04-26T11:34:33.000Z</time>
      </trkpt>
      <trkpt lat="47.14001" lon="6.15052">
        <ele>568</ele>
        <time>2015-04-26T11:34:35.000Z</time>
      </trkpt>
      <trkpt lat="47.14001" lon="6.15052">
        <ele>568</ele>
        <time>2015-04-26T11:34:37.000Z</time>
      </trkpt>
      <trkpt lat="47.14001" lon="6.15052">
        <ele>568</ele>
        <time>2015-04-26T11:34:39.000Z</time>
      </trkpt>
      <trkpt lat="47.14001" lon="6.15052">
        <ele>568</ele>
        <time>2015-04-26T11:34:41.000Z</time>
      </trkpt>
      <trkpt lat="47.14001" lon="6.15052">
        <ele>568</ele>
        <time>2015-04-26T11:34:43.000Z</time>
      </trkpt>
      <trkpt lat="47.14001" lon="6.15052">
        <ele>568</ele>
        <time>2015-04-26T11:34:45.000Z</time>
      </trkpt>
      <trkpt lat="47.14001" lon="6.15052">
        <ele>568</ele>
        <time>2015-04-26T11:34:51.000Z</time>
      </trkpt>
      <trkpt lat="47.13968" lon="6.14977">
        <ele>571</ele>
        <time>2015-04-26T11:34:55.000Z</time>
      </trkpt>
      <trkpt lat="47.13961" lon="6.1496">
        <ele>575</ele>
        <time>2015-04-26T11:35:01.000Z</time>
      </trkpt>
      <trkpt lat="47.13953" lon="6.14948">
        <ele>571</ele>
        <time>2015-04-26T11:35:05.000Z</time>
      </trkpt>
      <trkpt lat="47.13947" lon="6.1494">
        <ele>567</ele>
        <time>2015-04-26T11:35:09.000Z</time>
      </trkpt>
      <trkpt lat="47.13942" lon="6.14933">
        <ele>567</ele>
        <time>2015-04-26T11:35:11.000Z</time>
      </trkpt>
      <trkpt lat="47.13937" lon="6.14925">
        <ele>569</ele>
        <time>2015-04-26T11:35:13.000Z</time>
      </trkpt>
      <trkpt lat="47.1393" lon="6.14914">
        <ele>565</ele>
        <time>2015-04-26T11:35:16.000Z</time>
      </trkpt>
      <trkpt lat="47.13925" lon="6.14904">
        <ele>561</ele>
        <time>2015-04-26T11:35:18.000Z</time>
      </trkpt>
      <trkpt lat="47.13916" lon="6.1488">
        <ele>563</ele>
        <time>2015-04-26T11:35:20.000Z</time>
      </trkpt>
      <trkpt lat="47.13903" lon="6.14849">
        <ele>566</ele>
        <time>2015-04-26T11:35:24.000Z</time>
      </trkpt>
      <trkpt lat="47.13892" lon="6.14821">
        <ele>570</ele>
        <time>2015-04-26T11:35:28.000Z</time>
      </trkpt>
      <trkpt lat="47.13882" lon="6.14792">
        <ele>565</ele>
        <time>2015-04-26T11:35:33.000Z</time>
      </trkpt>
      <trkpt lat="47.13882" lon="6.14792">
        <ele>565</ele>
        <time>2015-04-26T11:35:35.000Z</time>
      </trkpt>
      <trkpt lat="47.13871" lon="6.14768">
        <ele>568</ele>
        <time>2015-04-26T11:35:37.000Z</time>
      </trkpt>
      <trkpt lat="47.13871" lon="6.14768">
        <ele>568</ele>
        <time>2015-04-26T11:35:39.000Z</time>
      </trkpt>
      <trkpt lat="47.13871" lon="6.14768">
        <ele>568</ele>
        <time>2015-04-26T11:35:41.000Z</time>
      </trkpt>
      <trkpt lat="47.13871" lon="6.14768">
        <ele>568</ele>
        <time>2015-04-26T11:35:43.000Z</time>
      </trkpt>
      <trkpt lat="47.13871" lon="6.14768">
        <ele>568</ele>
        <time>2015-04-26T11:35:45.000Z</time>
      </trkpt>
      <trkpt lat="47.13871" lon="6.14768">
        <ele>568</ele>
        <time>2015-04-26T11:35:47.000Z</time>
      </trkpt>
      <trkpt lat="47.13871" lon="6.14768">
        <ele>568</ele>
        <time>2015-04-26T11:35:49.000Z</time>
      </trkpt>
      <trkpt lat="47.13871" lon="6.14768">
        <ele>568</ele>
        <time>2015-04-26T11:35:51.000Z</time>
      </trkpt>
      <trkpt lat="47.13871" lon="6.14768">
        <ele>568</ele>
        <time>2015-04-26T11:35:53.000Z</time>
      </trkpt>
      <trkpt lat="47.13871" lon="6.14768">
        <ele>568</ele>
        <time>2015-04-26T11:35:55.000Z</time>
      </trkpt>
      <trkpt lat="47.13871" lon="6.14768">
        <ele>568</ele>
        <time>2015-04-26T11:35:57.000Z</time>
      </trkpt>
      <trkpt lat="47.13871" lon="6.14768">
        <ele>568</ele>
        <time>2015-04-26T11:36:02.000Z</time>
      </trkpt>
      <trkpt lat="47.13871" lon="6.14768">
        <ele>568</ele>
        <time>2015-04-26T11:36:04.000Z</time>
      </trkpt>
      <trkpt lat="47.13872" lon="6.14711">
        <ele>588</ele>
        <time>2015-04-26T11:36:06.000Z</time>
      </trkpt>
      <trkpt lat="47.13872" lon="6.14711">
        <ele>588</ele>
        <time>2015-04-26T11:36:14.000Z</time>
      </trkpt>
      <trkpt lat="47.13943" lon="6.14694">
        <ele>585</ele>
        <time>2015-04-26T11:36:27.000Z</time>
      </trkpt>
      <trkpt lat="47.13969" lon="6.14677">
        <ele>590</ele>
        <time>2015-04-26T11:36:34.000Z</time>
      </trkpt>
      <trkpt lat="47.13969" lon="6.14677">
        <ele>590</ele>
        <time>2015-04-26T11:36:36.000Z</time>
      </trkpt>
      <trkpt lat="47.13969" lon="6.14677">
        <ele>590</ele>
        <time>2015-04-26T11:36:41.000Z</time>
      </trkpt>
      <trkpt lat="47.13969" lon="6.14677">
        <ele>590</ele>
        <time>2015-04-26T11:36:47.000Z</time>
      </trkpt>
      <trkpt lat="47.14035" lon="6.14635">
        <ele>570</ele>
        <time>2015-04-26T11:36:51.000Z</time>
      </trkpt>
      <trkpt lat="47.14055" lon="6.14631">
        <ele>556</ele>
        <time>2015-04-26T11:36:55.000Z</time>
      </trkpt>
      <trkpt lat="47.14069" lon="6.14625">
        <ele>554</ele>
        <time>2015-04-26T11:36:59.000Z</time>
      </trkpt>
      <trkpt lat="47.14076" lon="6.14609">
        <ele>550</ele>
        <time>2015-04-26T11:37:03.000Z</time>
      </trkpt>
      <trkpt lat="47.14076" lon="6.14609">
        <ele>550</ele>
        <time>2015-04-26T11:37:05.000Z</time>
      </trkpt>
      <trkpt lat="47.14077" lon="6.1459">
        <ele>550</ele>
        <time>2015-04-26T11:37:07.000Z</time>
      </trkpt>
      <trkpt lat="47.14077" lon="6.1459">
        <ele>550</ele>
        <time>2015-04-26T11:37:09.000Z</time>
      </trkpt>
      <trkpt lat="47.14076" lon="6.1456">
        <ele>544</ele>
        <time>2015-04-26T11:37:13.000Z</time>
      </trkpt>
      <trkpt lat="47.14075" lon="6.14538">
        <ele>550</ele>
        <time>2015-04-26T11:37:16.000Z</time>
      </trkpt>
      <trkpt lat="47.1408" lon="6.14491">
        <ele>553</ele>
        <time>2015-04-26T11:37:20.000Z</time>
      </trkpt>
      <trkpt lat="47.14079" lon="6.14465">
        <ele>554</ele>
        <time>2015-04-26T11:37:23.000Z</time>
      </trkpt>
      <trkpt lat="47.14077" lon="6.14438">
        <ele>564</ele>
        <time>2015-04-26T11:37:27.000Z</time>
      </trkpt>
      <trkpt lat="47.14077" lon="6.14438">
        <ele>564</ele>
        <time>2015-04-26T11:37:29.000Z</time>
      </trkpt>
      <trkpt lat="47.14077" lon="6.14438">
        <ele>564</ele>
        <time>2015-04-26T11:37:33.000Z</time>
      </trkpt>
      <trkpt lat="47.14077" lon="6.14438">
        <ele>564</ele>
        <time>2015-04-26T11:37:35.000Z</time>
      </trkpt>
      <trkpt lat="47.14077" lon="6.14438">
        <ele>564</ele>
        <time>2015-04-26T11:37:38.000Z</time>
      </trkpt>
      <trkpt lat="47.14087" lon="6.14411">
        <ele>559</ele>
        <time>2015-04-26T11:37:47.000Z</time>
      </trkpt>
      <trkpt lat="47.14093" lon="6.14392">
        <ele>559</ele>
        <time>2015-04-26T11:37:53.000Z</time>
      </trkpt>
      <trkpt lat="47.14099" lon="6.14376">
        <ele>563</ele>
        <time>2015-04-26T11:37:58.000Z</time>
      </trkpt>
      <trkpt lat="47.14106" lon="6.14361">
        <ele>569</ele>
        <time>2015-04-26T11:38:03.000Z</time>
      </trkpt>
      <trkpt lat="47.14113" lon="6.14349">
        <ele>561</ele>
        <time>2015-04-26T11:38:08.000Z</time>
      </trkpt>
      <trkpt lat="47.14127" lon="6.14325">
        <ele>568</ele>
        <time>2015-04-26T11:38:15.000Z</time>
      </trkpt>
      <trkpt lat="47.14135" lon="6.14318">
        <ele>579</ele>
        <time>2015-04-26T11:38:20.000Z</time>
      </trkpt>
      <trkpt lat="47.14154" lon="6.1431">
        <ele>575</ele>
        <time>2015-04-26T11:38:27.000Z</time>
      </trkpt>
      <trkpt lat="47.14164" lon="6.14307">
        <ele>575</ele>
        <time>2015-04-26T11:38:31.000Z</time>
      </trkpt>
      <trkpt lat="47.14174" lon="6.14305">
        <ele>572</ele>
        <time>2015-04-26T11:38:36.000Z</time>
      </trkpt>
      <trkpt lat="47.14182" lon="6.14297">
        <ele>582</ele>
        <time>2015-04-26T11:38:46.000Z</time>
      </trkpt>
      <trkpt lat="47.14189" lon="6.14284">
        <ele>570</ele>
        <time>2015-04-26T11:38:55.000Z</time>
      </trkpt>
      <trkpt lat="47.14196" lon="6.14274">
        <ele>571</ele>
        <time>2015-04-26T11:39:10.000Z</time>
      </trkpt>
      <trkpt lat="47.14204" lon="6.14263">
        <ele>574</ele>
        <time>2015-04-26T11:39:16.000Z</time>
      </trkpt>
      <trkpt lat="47.14211" lon="6.14253">
        <ele>569</ele>
        <time>2015-04-26T11:39:22.000Z</time>
      </trkpt>
      <trkpt lat="47.14211" lon="6.14253">
        <ele>569</ele>
        <time>2015-04-26T11:39:30.000Z</time>
      </trkpt>
      <trkpt lat="47.14219" lon="6.14154">
        <ele>557</ele>
        <time>2015-04-26T11:40:00.000Z</time>
      </trkpt>
      <trkpt lat="47.14186" lon="6.14116">
        <ele>566</ele>
        <time>2015-04-26T11:40:14.000Z</time>
      </trkpt>
      <trkpt lat="47.14173" lon="6.14089">
        <ele>563</ele>
        <time>2015-04-26T11:40:20.000Z</time>
      </trkpt>
      <trkpt lat="47.14173" lon="6.14089">
        <ele>563</ele>
        <time>2015-04-26T11:40:32.000Z</time>
      </trkpt>
      <trkpt lat="47.14169" lon="6.1395">
        <ele>555</ele>
        <time>2015-04-26T11:40:44.000Z</time>
      </trkpt>
      <trkpt lat="47.1419" lon="6.13941">
        <ele>555</ele>
        <time>2015-04-26T11:40:48.000Z</time>
      </trkpt>
      <trkpt lat="47.14204" lon="6.13943">
        <ele>557</ele>
        <time>2015-04-26T11:40:50.000Z</time>
      </trkpt>
      <trkpt lat="47.14235" lon="6.13923">
        <ele>564</ele>
        <time>2015-04-26T11:41:08.000Z</time>
      </trkpt>
      <trkpt lat="47.14235" lon="6.13923">
        <ele>564</ele>
        <time>2015-04-26T11:41:10.000Z</time>
      </trkpt>
      <trkpt lat="47.14245" lon="6.13909">
        <ele>561</ele>
        <time>2015-04-26T11:41:16.000Z</time>
      </trkpt>
      <trkpt lat="47.14245" lon="6.13909">
        <ele>561</ele>
        <time>2015-04-26T11:41:18.000Z</time>
      </trkpt>
      <trkpt lat="47.14249" lon="6.13891">
        <ele>564</ele>
        <time>2015-04-26T11:41:24.000Z</time>
      </trkpt>
      <trkpt lat="47.14257" lon="6.13879">
        <ele>560</ele>
        <time>2015-04-26T11:41:28.000Z</time>
      </trkpt>
      <trkpt lat="47.14266" lon="6.1387">
        <ele>570</ele>
        <time>2015-04-26T11:41:31.000Z</time>
      </trkpt>
      <trkpt lat="47.14266" lon="6.1387">
        <ele>570</ele>
        <time>2015-04-26T11:41:33.000Z</time>
      </trkpt>
      <trkpt lat="47.14266" lon="6.1387">
        <ele>570</ele>
        <time>2015-04-26T11:41:35.000Z</time>
      </trkpt>
      <trkpt lat="47.14266" lon="6.1387">
        <ele>570</ele>
        <time>2015-04-26T11:41:37.000Z</time>
      </trkpt>
      <trkpt lat="47.14266" lon="6.1387">
        <ele>570</ele>
        <time>2015-04-26T11:41:39.000Z</time>
      </trkpt>
      <trkpt lat="47.14266" lon="6.1387">
        <ele>570</ele>
        <time>2015-04-26T11:41:41.000Z</time>
      </trkpt>
      <trkpt lat="47.14266" lon="6.1387">
        <ele>570</ele>
        <time>2015-04-26T11:41:43.000Z</time>
      </trkpt>
      <trkpt lat="47.14266" lon="6.1387">
        <ele>570</ele>
        <time>2015-04-26T11:41:45.000Z</time>
      </trkpt>
      <trkpt lat="47.14266" lon="6.1387">
        <ele>570</ele>
        <time>2015-04-26T11:41:47.000Z</time>
      </trkpt>
      <trkpt lat="47.14266" lon="6.1387">
        <ele>570</ele>
        <time>2015-04-26T11:41:49.000Z</time>
      </trkpt>
      <trkpt lat="47.14266" lon="6.1387">
        <ele>570</ele>
        <time>2015-04-26T11:41:51.000Z</time>
      </trkpt>
      <trkpt lat="47.14321" lon="6.13853">
        <ele>588</ele>
        <time>2015-04-26T11:41:57.000Z</time>
      </trkpt>
      <trkpt lat="47.14331" lon="6.13859">
        <ele>596</ele>
        <time>2015-04-26T11:42:03.000Z</time>
      </trkpt>
      <trkpt lat="47.14341" lon="6.13864">
        <ele>586</ele>
        <time>2015-04-26T11:42:09.000Z</time>
      </trkpt>
      <trkpt lat="47.1435" lon="6.13865">
        <ele>587</ele>
        <time>2015-04-26T11:42:16.000Z</time>
      </trkpt>
      <trkpt lat="47.1435" lon="6.13865">
        <ele>587</ele>
        <time>2015-04-26T11:42:19.000Z</time>
      </trkpt>
      <trkpt lat="47.14359" lon="6.13865">
        <ele>589</ele>
        <time>2015-04-26T11:42:21.000Z</time>
      </trkpt>
      <trkpt lat="47.14359" lon="6.13865">
        <ele>589</ele>
        <time>2015-04-26T11:42:23.000Z</time>
      </trkpt>
      <trkpt lat="47.14359" lon="6.13865">
        <ele>589</ele>
        <time>2015-04-26T11:42:25.000Z</time>
      </trkpt>
      <trkpt lat="47.14359" lon="6.13865">
        <ele>589</ele>
        <time>2015-04-26T11:42:27.000Z</time>
      </trkpt>
      <trkpt lat="47.14359" lon="6.13865">
        <ele>589</ele>
        <time>2015-04-26T11:42:29.000Z</time>
      </trkpt>
      <trkpt lat="47.14359" lon="6.13865">
        <ele>589</ele>
        <time>2015-04-26T11:42:31.000Z</time>
      </trkpt>
      <trkpt lat="47.14359" lon="6.13865">
        <ele>589</ele>
        <time>2015-04-26T11:42:33.000Z</time>
      </trkpt>
      <trkpt lat="47.14359" lon="6.13865">
        <ele>589</ele>
        <time>2015-04-26T11:42:35.000Z</time>
      </trkpt>
      <trkpt lat="47.14359" lon="6.13865">
        <ele>589</ele>
        <time>2015-04-26T11:42:37.000Z</time>
      </trkpt>
      <trkpt lat="47.14359" lon="6.13865">
        <ele>589</ele>
        <time>2015-04-26T11:42:39.000Z</time>
      </trkpt>
      <trkpt lat="47.14359" lon="6.13865">
        <ele>589</ele>
        <time>2015-04-26T11:42:41.000Z</time>
      </trkpt>
      <trkpt lat="47.14359" lon="6.13865">
        <ele>589</ele>
        <time>2015-04-26T11:42:43.000Z</time>
      </trkpt>
      <trkpt lat="47.14359" lon="6.13865">
        <ele>589</ele>
        <time>2015-04-26T11:42:45.000Z</time>
      </trkpt>
      <trkpt lat="47.14359" lon="6.13865">
        <ele>589</ele>
        <time>2015-04-26T11:42:47.000Z</time>
      </trkpt>
      <trkpt lat="47.14376" lon="6.1387">
        <ele>564</ele>
        <time>2015-04-26T11:42:55.000Z</time>
      </trkpt>
      <trkpt lat="47.14387" lon="6.13872">
        <ele>564</ele>
        <time>2015-04-26T11:42:57.000Z</time>
      </trkpt>
      <trkpt lat="47.14394" lon="6.13873">
        <ele>563</ele>
        <time>2015-04-26T11:42:59.000Z</time>
      </trkpt>
      <trkpt lat="47.144" lon="6.13873">
        <ele>562</ele>
        <time>2015-04-26T11:43:01.000Z</time>
      </trkpt>
      <trkpt lat="47.144" lon="6.13873">
        <ele>562</ele>
        <time>2015-04-26T11:43:03.000Z</time>
      </trkpt>
      <trkpt lat="47.144" lon="6.13873">
        <ele>562</ele>
        <time>2015-04-26T11:43:05.000Z</time>
      </trkpt>
      <trkpt lat="47.144" lon="6.13873">
        <ele>562</ele>
        <time>2015-04-26T11:43:07.000Z</time>
      </trkpt>
      <trkpt lat="47.14418" lon="6.13871">
        <ele>561</ele>
        <time>2015-04-26T11:43:13.000Z</time>
      </trkpt>
      <trkpt lat="47.1443" lon="6.13869">
        <ele>555</ele>
        <time>2015-04-26T11:43:15.000Z</time>
      </trkpt>
      <trkpt lat="47.14439" lon="6.13868">
        <ele>569</ele>
        <time>2015-04-26T11:43:17.000Z</time>
      </trkpt>
      <trkpt lat="47.14447" lon="6.13867">
        <ele>570</ele>
        <time>2015-04-26T11:43:19.000Z</time>
      </trkpt>
      <trkpt lat="47.14454" lon="6.13866">
        <ele>572</ele>
        <time>2015-04-26T11:43:21.000Z</time>
      </trkpt>
      <trkpt lat="47.1447" lon="6.13864">
        <ele>575</ele>
        <time>2015-04-26T11:43:25.000Z</time>
      </trkpt>
      <trkpt lat="47.1448" lon="6.13863">
        <ele>580</ele>
        <time>2015-04-26T11:43:29.000Z</time>
      </trkpt>
      <trkpt lat="47.14494" lon="6.13865">
        <ele>590</ele>
        <time>2015-04-26T11:43:35.000Z</time>
      </trkpt>
      <trkpt lat="47.14508" lon="6.13867">
        <ele>587</ele>
        <time>2015-04-26T11:43:39.000Z</time>
      </trkpt>
      <trkpt lat="47.1452" lon="6.13868">
        <ele>595</ele>
        <time>2015-04-26T11:43:43.000Z</time>
      </trkpt>
      <trkpt lat="47.1453" lon="6.13868">
        <ele>594</ele>
        <time>2015-04-26T11:43:47.000Z</time>
      </trkpt>
      <trkpt lat="47.14542" lon="6.13868">
        <ele>597</ele>
        <time>2015-04-26T11:43:51.000Z</time>
      </trkpt>
      <trkpt lat="47.14557" lon="6.13868">
        <ele>601</ele>
        <time>2015-04-26T11:43:55.000Z</time>
      </trkpt>
      <trkpt lat="47.14568" lon="6.13871">
        <ele>602</ele>
        <time>2015-04-26T11:43:57.000Z</time>
      </trkpt>
      <trkpt lat="47.14579" lon="6.13873">
        <ele>601</ele>
        <time>2015-04-26T11:43:59.000Z</time>
      </trkpt>
      <trkpt lat="47.14591" lon="6.13874">
        <ele>601</ele>
        <time>2015-04-26T11:44:01.000Z</time>
      </trkpt>
      <trkpt lat="47.14605" lon="6.13871">
        <ele>605</ele>
        <time>2015-04-26T11:44:03.000Z</time>
      </trkpt>
      <trkpt lat="47.14619" lon="6.13869">
        <ele>605</ele>
        <time>2015-04-26T11:44:05.000Z</time>
      </trkpt>
      <trkpt lat="47.14635" lon="6.13868">
        <ele>606</ele>
        <time>2015-04-26T11:44:07.000Z</time>
      </trkpt>
      <trkpt lat="47.14651" lon="6.13867">
        <ele>606</ele>
        <time>2015-04-26T11:44:09.000Z</time>
      </trkpt>
      <trkpt lat="47.14666" lon="6.13864">
        <ele>609</ele>
        <time>2015-04-26T11:44:11.000Z</time>
      </trkpt>
      <trkpt lat="47.1468" lon="6.13862">
        <ele>603</ele>
        <time>2015-04-26T11:44:13.000Z</time>
      </trkpt>
      <trkpt lat="47.14691" lon="6.13859">
        <ele>603</ele>
        <time>2015-04-26T11:44:15.000Z</time>
      </trkpt>
      <trkpt lat="47.14691" lon="6.13859">
        <ele>603</ele>
        <time>2015-04-26T11:44:17.000Z</time>
      </trkpt>
      <trkpt lat="47.14691" lon="6.13859">
        <ele>603</ele>
        <time>2015-04-26T11:44:19.000Z</time>
      </trkpt>
      <trkpt lat="47.14691" lon="6.13859">
        <ele>603</ele>
        <time>2015-04-26T11:44:21.000Z</time>
      </trkpt>
      <trkpt lat="47.14691" lon="6.13859">
        <ele>603</ele>
        <time>2015-04-26T11:44:23.000Z</time>
      </trkpt>
      <trkpt lat="47.14691" lon="6.13859">
        <ele>603</ele>
        <time>2015-04-26T11:44:25.000Z</time>
      </trkpt>
      <trkpt lat="47.14691" lon="6.13859">
        <ele>603</ele>
        <time>2015-04-26T11:44:27.000Z</time>
      </trkpt>
      <trkpt lat="47.1477" lon="6.13845">
        <ele>587</ele>
        <time>2015-04-26T11:44:35.000Z</time>
      </trkpt>
      <trkpt lat="47.14785" lon="6.13847">
        <ele>589</ele>
        <time>2015-04-26T11:44:39.000Z</time>
      </trkpt>
      <trkpt lat="47.14801" lon="6.13851">
        <ele>587</ele>
        <time>2015-04-26T11:44:43.000Z</time>
      </trkpt>
      <trkpt lat="47.14801" lon="6.13851">
        <ele>587</ele>
        <time>2015-04-26T11:44:45.000Z</time>
      </trkpt>
      <trkpt lat="47.14818" lon="6.13854">
        <ele>585</ele>
        <time>2015-04-26T11:44:47.000Z</time>
      </trkpt>
      <trkpt lat="47.14836" lon="6.13852">
        <ele>578</ele>
        <time>2015-04-26T11:44:51.000Z</time>
      </trkpt>
      <trkpt lat="47.14853" lon="6.1385">
        <ele>574</ele>
        <time>2015-04-26T11:44:55.000Z</time>
      </trkpt>
      <trkpt lat="47.14862" lon="6.13848">
        <ele>573</ele>
        <time>2015-04-26T11:44:57.000Z</time>
      </trkpt>
      <trkpt lat="47.14872" lon="6.13846">
        <ele>573</ele>
        <time>2015-04-26T11:44:59.000Z</time>
      </trkpt>
      <trkpt lat="47.14872" lon="6.13846">
        <ele>573</ele>
        <time>2015-04-26T11:45:01.000Z</time>
      </trkpt>
      <trkpt lat="47.14889" lon="6.13845">
        <ele>573</ele>
        <time>2015-04-26T11:45:03.000Z</time>
      </trkpt>
      <trkpt lat="47.14889" lon="6.13845">
        <ele>573</ele>
        <time>2015-04-26T11:45:05.000Z</time>
      </trkpt>
      <trkpt lat="47.14889" lon="6.13845">
        <ele>573</ele>
        <time>2015-04-26T11:45:07.000Z</time>
      </trkpt>
      <trkpt lat="47.14928" lon="6.1384">
        <ele>576</ele>
        <time>2015-04-26T11:45:11.000Z</time>
      </trkpt>
      <trkpt lat="47.14946" lon="6.13839">
        <ele>577</ele>
        <time>2015-04-26T11:45:15.000Z</time>
      </trkpt>
      <trkpt lat="47.14964" lon="6.13839">
        <ele>589</ele>
        <time>2015-04-26T11:45:19.000Z</time>
      </trkpt>
      <trkpt lat="47.14972" lon="6.1384">
        <ele>583</ele>
        <time>2015-04-26T11:45:23.000Z</time>
      </trkpt>
      <trkpt lat="47.1498" lon="6.1384">
        <ele>585</ele>
        <time>2015-04-26T11:45:25.000Z</time>
      </trkpt>
      <trkpt lat="47.1498" lon="6.1384">
        <ele>585</ele>
        <time>2015-04-26T11:45:27.000Z</time>
      </trkpt>
      <trkpt lat="47.1498" lon="6.1384">
        <ele>585</ele>
        <time>2015-04-26T11:45:29.000Z</time>
      </trkpt>
      <trkpt lat="47.1498" lon="6.1384">
        <ele>585</ele>
        <time>2015-04-26T11:45:31.000Z</time>
      </trkpt>
      <trkpt lat="47.1498" lon="6.1384">
        <ele>585</ele>
        <time>2015-04-26T11:45:33.000Z</time>
      </trkpt>
      <trkpt lat="47.1498" lon="6.1384">
        <ele>585</ele>
        <time>2015-04-26T11:45:35.000Z</time>
      </trkpt>
      <trkpt lat="47.1498" lon="6.1384">
        <ele>585</ele>
        <time>2015-04-26T11:45:37.000Z</time>
      </trkpt>
      <trkpt lat="47.1498" lon="6.1384">
        <ele>585</ele>
        <time>2015-04-26T11:45:39.000Z</time>
      </trkpt>
      <trkpt lat="47.1498" lon="6.1384">
        <ele>585</ele>
        <time>2015-04-26T11:45:41.000Z</time>
      </trkpt>
      <trkpt lat="47.1498" lon="6.1384">
        <ele>585</ele>
        <time>2015-04-26T11:45:43.000Z</time>
      </trkpt>
      <trkpt lat="47.1498" lon="6.1384">
        <ele>585</ele>
        <time>2015-04-26T11:45:47.000Z</time>
      </trkpt>
      <trkpt lat="47.1498" lon="6.1384">
        <ele>585</ele>
        <time>2015-04-26T11:45:49.000Z</time>
      </trkpt>
      <trkpt lat="47.1498" lon="6.1384">
        <ele>585</ele>
        <time>2015-04-26T11:45:52.000Z</time>
      </trkpt>
      <trkpt lat="47.15051" lon="6.13834">
        <ele>587</ele>
        <time>2015-04-26T11:45:56.000Z</time>
      </trkpt>
      <trkpt lat="47.1509" lon="6.1383">
        <ele>588</ele>
        <time>2015-04-26T11:45:58.000Z</time>
      </trkpt>
      <trkpt lat="47.15114" lon="6.13826">
        <ele>585</ele>
        <time>2015-04-26T11:46:00.000Z</time>
      </trkpt>
      <trkpt lat="47.15114" lon="6.13826">
        <ele>585</ele>
        <time>2015-04-26T11:46:02.000Z</time>
      </trkpt>
      <trkpt lat="47.15114" lon="6.13826">
        <ele>585</ele>
        <time>2015-04-26T11:46:04.000Z</time>
      </trkpt>
      <trkpt lat="47.15157" lon="6.13815">
        <ele>586</ele>
        <time>2015-04-26T11:46:14.000Z</time>
      </trkpt>
      <trkpt lat="47.15182" lon="6.13807">
        <ele>588</ele>
        <time>2015-04-26T11:46:16.000Z</time>
      </trkpt>
      <trkpt lat="47.15199" lon="6.13803">
        <ele>590</ele>
        <time>2015-04-26T11:46:18.000Z</time>
      </trkpt>
      <trkpt lat="47.15211" lon="6.13799">
        <ele>588</ele>
        <time>2015-04-26T11:46:20.000Z</time>
      </trkpt>
      <trkpt lat="47.15211" lon="6.13799">
        <ele>588</ele>
        <time>2015-04-26T11:46:22.000Z</time>
      </trkpt>
      <trkpt lat="47.15211" lon="6.13799">
        <ele>588</ele>
        <time>2015-04-26T11:46:24.000Z</time>
      </trkpt>
      <trkpt lat="47.15211" lon="6.13799">
        <ele>588</ele>
        <time>2015-04-26T11:46:26.000Z</time>
      </trkpt>
      <trkpt lat="47.15211" lon="6.13799">
        <ele>588</ele>
        <time>2015-04-26T11:46:28.000Z</time>
      </trkpt>
      <trkpt lat="47.15242" lon="6.13786">
        <ele>595</ele>
        <time>2015-04-26T11:46:32.000Z</time>
      </trkpt>
      <trkpt lat="47.15262" lon="6.13778">
        <ele>597</ele>
        <time>2015-04-26T11:46:34.000Z</time>
      </trkpt>
      <trkpt lat="47.15277" lon="6.13772">
        <ele>597</ele>
        <time>2015-04-26T11:46:36.000Z</time>
      </trkpt>
      <trkpt lat="47.15289" lon="6.13769">
        <ele>596</ele>
        <time>2015-04-26T11:46:38.000Z</time>
      </trkpt>
      <trkpt lat="47.153" lon="6.13767">
        <ele>600</ele>
        <time>2015-04-26T11:46:40.000Z</time>
      </trkpt>
      <trkpt lat="47.153" lon="6.13767">
        <ele>600</ele>
        <time>2015-04-26T11:46:42.000Z</time>
      </trkpt>
      <trkpt lat="47.153" lon="6.13767">
        <ele>600</ele>
        <time>2015-04-26T11:46:44.000Z</time>
      </trkpt>
      <trkpt lat="47.153" lon="6.13767">
        <ele>600</ele>
        <time>2015-04-26T11:46:46.000Z</time>
      </trkpt>
      <trkpt lat="47.153" lon="6.13767">
        <ele>600</ele>
        <time>2015-04-26T11:46:48.000Z</time>
      </trkpt>
      <trkpt lat="47.153" lon="6.13767">
        <ele>600</ele>
        <time>2015-04-26T11:46:50.000Z</time>
      </trkpt>
      <trkpt lat="47.153" lon="6.13767">
        <ele>600</ele>
        <time>2015-04-26T11:46:56.000Z</time>
      </trkpt>
      <trkpt lat="47.153" lon="6.13767">
        <ele>600</ele>
        <time>2015-04-26T11:46:58.000Z</time>
      </trkpt>
      <trkpt lat="47.153" lon="6.13767">
        <ele>600</ele>
        <time>2015-04-26T11:47:00.000Z</time>
      </trkpt>
      <trkpt lat="47.153" lon="6.13767">
        <ele>600</ele>
        <time>2015-04-26T11:47:02.000Z</time>
      </trkpt>
      <trkpt lat="47.153" lon="6.13767">
        <ele>600</ele>
        <time>2015-04-26T11:47:04.000Z</time>
      </trkpt>
      <trkpt lat="47.15408" lon="6.13756">
        <ele>586</ele>
        <time>2015-04-26T11:47:10.000Z</time>
      </trkpt>
      <trkpt lat="47.15422" lon="6.13755">
        <ele>594</ele>
        <time>2015-04-26T11:47:14.000Z</time>
      </trkpt>
      <trkpt lat="47.15435" lon="6.13751">
        <ele>595</ele>
        <time>2015-04-26T11:47:18.000Z</time>
      </trkpt>
      <trkpt lat="47.15435" lon="6.13751">
        <ele>595</ele>
        <time>2015-04-26T11:47:20.000Z</time>
      </trkpt>
      <trkpt lat="47.15435" lon="6.13751">
        <ele>595</ele>
        <time>2015-04-26T11:47:22.000Z</time>
      </trkpt>
      <trkpt lat="47.15435" lon="6.13751">
        <ele>595</ele>
        <time>2015-04-26T11:47:24.000Z</time>
      </trkpt>
      <trkpt lat="47.15461" lon="6.1373">
        <ele>588</ele>
        <time>2015-04-26T11:47:28.000Z</time>
      </trkpt>
      <trkpt lat="47.15472" lon="6.13721">
        <ele>585</ele>
        <time>2015-04-26T11:47:32.000Z</time>
      </trkpt>
      <trkpt lat="47.15472" lon="6.13721">
        <ele>585</ele>
        <time>2015-04-26T11:47:34.000Z</time>
      </trkpt>
      <trkpt lat="47.15487" lon="6.13712">
        <ele>590</ele>
        <time>2015-04-26T11:47:36.000Z</time>
      </trkpt>
      <trkpt lat="47.15496" lon="6.13709">
        <ele>591</ele>
        <time>2015-04-26T11:47:38.000Z</time>
      </trkpt>
      <trkpt lat="47.15509" lon="6.13701">
        <ele>591</ele>
        <time>2015-04-26T11:47:42.000Z</time>
      </trkpt>
      <trkpt lat="47.15509" lon="6.13701">
        <ele>591</ele>
        <time>2015-04-26T11:47:44.000Z</time>
      </trkpt>
      <trkpt lat="47.15509" lon="6.13701">
        <ele>591</ele>
        <time>2015-04-26T11:47:46.000Z</time>
      </trkpt>
      <trkpt lat="47.15509" lon="6.13701">
        <ele>591</ele>
        <time>2015-04-26T11:47:48.000Z</time>
      </trkpt>
      <trkpt lat="47.15509" lon="6.13701">
        <ele>591</ele>
        <time>2015-04-26T11:47:52.000Z</time>
      </trkpt>
      <trkpt lat="47.15509" lon="6.13701">
        <ele>591</ele>
        <time>2015-04-26T11:47:54.000Z</time>
      </trkpt>
      <trkpt lat="47.15509" lon="6.13701">
        <ele>591</ele>
        <time>2015-04-26T11:47:56.000Z</time>
      </trkpt>
      <trkpt lat="47.15534" lon="6.13689">
        <ele>598</ele>
        <time>2015-04-26T11:48:00.000Z</time>
      </trkpt>
      <trkpt lat="47.15549" lon="6.13681">
        <ele>597</ele>
        <time>2015-04-26T11:48:02.000Z</time>
      </trkpt>
      <trkpt lat="47.15559" lon="6.13676">
        <ele>594</ele>
        <time>2015-04-26T11:48:04.000Z</time>
      </trkpt>
      <trkpt lat="47.15559" lon="6.13676">
        <ele>594</ele>
        <time>2015-04-26T11:48:08.000Z</time>
      </trkpt>
      <trkpt lat="47.15573" lon="6.13674">
        <ele>595</ele>
        <time>2015-04-26T11:48:14.000Z</time>
      </trkpt>
      <trkpt lat="47.15585" lon="6.13674">
        <ele>591</ele>
        <time>2015-04-26T11:48:19.000Z</time>
      </trkpt>
      <trkpt lat="47.15596" lon="6.13675">
        <ele>593</ele>
        <time>2015-04-26T11:48:25.000Z</time>
      </trkpt>
      <trkpt lat="47.15605" lon="6.13673">
        <ele>596</ele>
        <time>2015-04-26T11:48:35.000Z</time>
      </trkpt>
      <trkpt lat="47.15609" lon="6.13665">
        <ele>599</ele>
        <time>2015-04-26T11:48:56.000Z</time>
      </trkpt>
      <trkpt lat="47.15609" lon="6.13665">
        <ele>599</ele>
        <time>2015-04-26T11:49:13.000Z</time>
      </trkpt>
      <trkpt lat="47.15609" lon="6.13665">
        <ele>599</ele>
        <time>2015-04-26T11:49:15.000Z</time>
      </trkpt>
      <trkpt lat="47.15609" lon="6.13665">
        <ele>599</ele>
        <time>2015-04-26T11:49:17.000Z</time>
      </trkpt>
      <trkpt lat="47.15609" lon="6.13665">
        <ele>599</ele>
        <time>2015-04-26T11:49:19.000Z</time>
      </trkpt>
      <trkpt lat="47.1561" lon="6.13648">
        <ele>593</ele>
        <time>2015-04-26T11:51:48.000Z</time>
      </trkpt>
      <trkpt lat="47.1561" lon="6.13648">
        <ele>593</ele>
        <time>2015-04-26T11:51:50.000Z</time>
      </trkpt>
      <trkpt lat="47.1561" lon="6.13648">
        <ele>593</ele>
        <time>2015-04-26T11:51:52.000Z</time>
      </trkpt>
      <trkpt lat="47.1561" lon="6.13648">
        <ele>593</ele>
        <time>2015-04-26T11:51:54.000Z</time>
      </trkpt>
      <trkpt lat="47.15607" lon="6.13643">
        <ele>606</ele>
        <time>2015-04-26T11:53:03.000Z</time>
      </trkpt>
      <trkpt lat="47.15607" lon="6.13643">
        <ele>606</ele>
        <time>2015-04-26T11:53:07.000Z</time>
      </trkpt>
      <trkpt lat="47.1562" lon="6.13659">
        <ele>587</ele>
        <time>2015-04-26T11:57:43.000Z</time>
      </trkpt>
      <trkpt lat="47.15628" lon="6.13668">
        <ele>588</ele>
        <time>2015-04-26T11:57:45.000Z</time>
      </trkpt>
      <trkpt lat="47.15633" lon="6.13673">
        <ele>590</ele>
        <time>2015-04-26T11:57:47.000Z</time>
      </trkpt>
      <trkpt lat="47.15638" lon="6.13675">
        <ele>588</ele>
        <time>2015-04-26T11:57:49.000Z</time>
      </trkpt>
      <trkpt lat="47.15644" lon="6.13677">
        <ele>584</ele>
        <time>2015-04-26T11:57:53.000Z</time>
      </trkpt>
      <trkpt lat="47.1565" lon="6.13677">
        <ele>585</ele>
        <time>2015-04-26T11:57:55.000Z</time>
      </trkpt>
      <trkpt lat="47.15655" lon="6.13677">
        <ele>583</ele>
        <time>2015-04-26T11:57:57.000Z</time>
      </trkpt>
      <trkpt lat="47.1566" lon="6.13677">
        <ele>584</ele>
        <time>2015-04-26T11:57:59.000Z</time>
      </trkpt>
      <trkpt lat="47.15665" lon="6.13678">
        <ele>582</ele>
        <time>2015-04-26T11:58:01.000Z</time>
      </trkpt>
      <trkpt lat="47.15675" lon="6.13681">
        <ele>583</ele>
        <time>2015-04-26T11:58:03.000Z</time>
      </trkpt>
      <trkpt lat="47.15688" lon="6.13682">
        <ele>586</ele>
        <time>2015-04-26T11:58:07.000Z</time>
      </trkpt>
      <trkpt lat="47.15704" lon="6.13684">
        <ele>583</ele>
        <time>2015-04-26T11:58:11.000Z</time>
      </trkpt>
      <trkpt lat="47.15713" lon="6.13687">
        <ele>582</ele>
        <time>2015-04-26T11:58:13.000Z</time>
      </trkpt>
      <trkpt lat="47.15728" lon="6.13695">
        <ele>585</ele>
        <time>2015-04-26T11:58:17.000Z</time>
      </trkpt>
      <trkpt lat="47.15741" lon="6.13699">
        <ele>579</ele>
        <time>2015-04-26T11:58:21.000Z</time>
      </trkpt>
      <trkpt lat="47.15754" lon="6.13703">
        <ele>588</ele>
        <time>2015-04-26T11:58:25.000Z</time>
      </trkpt>
      <trkpt lat="47.1577" lon="6.13706">
        <ele>587</ele>
        <time>2015-04-26T11:58:29.000Z</time>
      </trkpt>
      <trkpt lat="47.15779" lon="6.13707">
        <ele>585</ele>
        <time>2015-04-26T11:58:31.000Z</time>
      </trkpt>
      <trkpt lat="47.15799" lon="6.13705">
        <ele>583</ele>
        <time>2015-04-26T11:58:35.000Z</time>
      </trkpt>
      <trkpt lat="47.15809" lon="6.13702">
        <ele>580</ele>
        <time>2015-04-26T11:58:37.000Z</time>
      </trkpt>
      <trkpt lat="47.15819" lon="6.13698">
        <ele>578</ele>
        <time>2015-04-26T11:58:39.000Z</time>
      </trkpt>
      <trkpt lat="47.15829" lon="6.13691">
        <ele>575</ele>
        <time>2015-04-26T11:58:41.000Z</time>
      </trkpt>
      <trkpt lat="47.15841" lon="6.13684">
        <ele>575</ele>
        <time>2015-04-26T11:58:43.000Z</time>
      </trkpt>
      <trkpt lat="47.15852" lon="6.13679">
        <ele>578</ele>
        <time>2015-04-26T11:58:45.000Z</time>
      </trkpt>
      <trkpt lat="47.15864" lon="6.13671">
        <ele>577</ele>
        <time>2015-04-26T11:58:47.000Z</time>
      </trkpt>
      <trkpt lat="47.15876" lon="6.13661">
        <ele>579</ele>
        <time>2015-04-26T11:58:49.000Z</time>
      </trkpt>
      <trkpt lat="47.15888" lon="6.13651">
        <ele>583</ele>
        <time>2015-04-26T11:58:51.000Z</time>
      </trkpt>
      <trkpt lat="47.15899" lon="6.13643">
        <ele>587</ele>
        <time>2015-04-26T11:58:53.000Z</time>
      </trkpt>
      <trkpt lat="47.15909" lon="6.13636">
        <ele>588</ele>
        <time>2015-04-26T11:58:55.000Z</time>
      </trkpt>
      <trkpt lat="47.15919" lon="6.13627">
        <ele>589</ele>
        <time>2015-04-26T11:58:57.000Z</time>
      </trkpt>
      <trkpt lat="47.15928" lon="6.13615">
        <ele>587</ele>
        <time>2015-04-26T11:58:59.000Z</time>
      </trkpt>
      <trkpt lat="47.15937" lon="6.13601">
        <ele>585</ele>
        <time>2015-04-26T11:59:01.000Z</time>
      </trkpt>
      <trkpt lat="47.15945" lon="6.13585">
        <ele>582</ele>
        <time>2015-04-26T11:59:03.000Z</time>
      </trkpt>
      <trkpt lat="47.15953" lon="6.13571">
        <ele>583</ele>
        <time>2015-04-26T11:59:05.000Z</time>
      </trkpt>
      <trkpt lat="47.15953" lon="6.13571">
        <ele>583</ele>
        <time>2015-04-26T11:59:07.000Z</time>
      </trkpt>
      <trkpt lat="47.15953" lon="6.13571">
        <ele>583</ele>
        <time>2015-04-26T11:59:09.000Z</time>
      </trkpt>
      <trkpt lat="47.15953" lon="6.13571">
        <ele>583</ele>
        <time>2015-04-26T11:59:11.000Z</time>
      </trkpt>
      <trkpt lat="47.15953" lon="6.13571">
        <ele>583</ele>
        <time>2015-04-26T11:59:13.000Z</time>
      </trkpt>
      <trkpt lat="47.15953" lon="6.13571">
        <ele>583</ele>
        <time>2015-04-26T11:59:17.000Z</time>
      </trkpt>
      <trkpt lat="47.16029" lon="6.13615">
        <ele>592</ele>
        <time>2015-04-26T11:59:21.000Z</time>
      </trkpt>
      <trkpt lat="47.16037" lon="6.13623">
        <ele>590</ele>
        <time>2015-04-26T11:59:23.000Z</time>
      </trkpt>
      <trkpt lat="47.16046" lon="6.13631">
        <ele>589</ele>
        <time>2015-04-26T11:59:25.000Z</time>
      </trkpt>
      <trkpt lat="47.16058" lon="6.13633">
        <ele>585</ele>
        <time>2015-04-26T11:59:27.000Z</time>
      </trkpt>
      <trkpt lat="47.16074" lon="6.13639">
        <ele>584</ele>
        <time>2015-04-26T11:59:29.000Z</time>
      </trkpt>
      <trkpt lat="47.16088" lon="6.13657">
        <ele>588</ele>
        <time>2015-04-26T11:59:31.000Z</time>
      </trkpt>
      <trkpt lat="47.16102" lon="6.13675">
        <ele>586</ele>
        <time>2015-04-26T11:59:33.000Z</time>
      </trkpt>
      <trkpt lat="47.16116" lon="6.13697">
        <ele>584</ele>
        <time>2015-04-26T11:59:35.000Z</time>
      </trkpt>
      <trkpt lat="47.16132" lon="6.13721">
        <ele>584</ele>
        <time>2015-04-26T11:59:37.000Z</time>
      </trkpt>
      <trkpt lat="47.16147" lon="6.13746">
        <ele>584</ele>
        <time>2015-04-26T11:59:39.000Z</time>
      </trkpt>
      <trkpt lat="47.16163" lon="6.13771">
        <ele>580</ele>
        <time>2015-04-26T11:59:41.000Z</time>
      </trkpt>
      <trkpt lat="47.16179" lon="6.13794">
        <ele>577</ele>
        <time>2015-04-26T11:59:43.000Z</time>
      </trkpt>
      <trkpt lat="47.16196" lon="6.13816">
        <ele>576</ele>
        <time>2015-04-26T11:59:45.000Z</time>
      </trkpt>
      <trkpt lat="47.16212" lon="6.13837">
        <ele>575</ele>
        <time>2015-04-26T11:59:47.000Z</time>
      </trkpt>
      <trkpt lat="47.16227" lon="6.13856">
        <ele>572</ele>
        <time>2015-04-26T11:59:49.000Z</time>
      </trkpt>
      <trkpt lat="47.16241" lon="6.13876">
        <ele>567</ele>
        <time>2015-04-26T11:59:51.000Z</time>
      </trkpt>
      <trkpt lat="47.16256" lon="6.13893">
        <ele>567</ele>
        <time>2015-04-26T11:59:53.000Z</time>
      </trkpt>
      <trkpt lat="47.1627" lon="6.1391">
        <ele>572</ele>
        <time>2015-04-26T11:59:55.000Z</time>
      </trkpt>
      <trkpt lat="47.16282" lon="6.13927">
        <ele>571</ele>
        <time>2015-04-26T11:59:57.000Z</time>
      </trkpt>
      <trkpt lat="47.16293" lon="6.13943">
        <ele>572</ele>
        <time>2015-04-26T11:59:59.000Z</time>
      </trkpt>
      <trkpt lat="47.16304" lon="6.13959">
        <ele>570</ele>
        <time>2015-04-26T12:00:01.000Z</time>
      </trkpt>
      <trkpt lat="47.16313" lon="6.13973">
        <ele>573</ele>
        <time>2015-04-26T12:00:03.000Z</time>
      </trkpt>
      <trkpt lat="47.16321" lon="6.13988">
        <ele>569</ele>
        <time>2015-04-26T12:00:05.000Z</time>
      </trkpt>
      <trkpt lat="47.16329" lon="6.14003">
        <ele>569</ele>
        <time>2015-04-26T12:00:07.000Z</time>
      </trkpt>
      <trkpt lat="47.16338" lon="6.1402">
        <ele>570</ele>
        <time>2015-04-26T12:00:09.000Z</time>
      </trkpt>
      <trkpt lat="47.16347" lon="6.14037">
        <ele>572</ele>
        <time>2015-04-26T12:00:11.000Z</time>
      </trkpt>
      <trkpt lat="47.16356" lon="6.14052">
        <ele>573</ele>
        <time>2015-04-26T12:00:13.000Z</time>
      </trkpt>
      <trkpt lat="47.16364" lon="6.14067">
        <ele>571</ele>
        <time>2015-04-26T12:00:15.000Z</time>
      </trkpt>
      <trkpt lat="47.16373" lon="6.14082">
        <ele>573</ele>
        <time>2015-04-26T12:00:17.000Z</time>
      </trkpt>
      <trkpt lat="47.16381" lon="6.14097">
        <ele>572</ele>
        <time>2015-04-26T12:00:19.000Z</time>
      </trkpt>
      <trkpt lat="47.1639" lon="6.14112">
        <ele>569</ele>
        <time>2015-04-26T12:00:21.000Z</time>
      </trkpt>
      <trkpt lat="47.16398" lon="6.14127">
        <ele>569</ele>
        <time>2015-04-26T12:00:23.000Z</time>
      </trkpt>
      <trkpt lat="47.16406" lon="6.14141">
        <ele>571</ele>
        <time>2015-04-26T12:00:25.000Z</time>
      </trkpt>
      <trkpt lat="47.16415" lon="6.14158">
        <ele>573</ele>
        <time>2015-04-26T12:00:27.000Z</time>
      </trkpt>
      <trkpt lat="47.16423" lon="6.14174">
        <ele>572</ele>
        <time>2015-04-26T12:00:29.000Z</time>
      </trkpt>
      <trkpt lat="47.16439" lon="6.14202">
        <ele>569</ele>
        <time>2015-04-26T12:00:33.000Z</time>
      </trkpt>
      <trkpt lat="47.16447" lon="6.14216">
        <ele>572</ele>
        <time>2015-04-26T12:00:35.000Z</time>
      </trkpt>
      <trkpt lat="47.16456" lon="6.14231">
        <ele>569</ele>
        <time>2015-04-26T12:00:37.000Z</time>
      </trkpt>
      <trkpt lat="47.16465" lon="6.14247">
        <ele>569</ele>
        <time>2015-04-26T12:00:39.000Z</time>
      </trkpt>
      <trkpt lat="47.16474" lon="6.14263">
        <ele>569</ele>
        <time>2015-04-26T12:00:41.000Z</time>
      </trkpt>
      <trkpt lat="47.16483" lon="6.14278">
        <ele>574</ele>
        <time>2015-04-26T12:00:43.000Z</time>
      </trkpt>
      <trkpt lat="47.16491" lon="6.14295">
        <ele>571</ele>
        <time>2015-04-26T12:00:45.000Z</time>
      </trkpt>
      <trkpt lat="47.16501" lon="6.14312">
        <ele>572</ele>
        <time>2015-04-26T12:00:47.000Z</time>
      </trkpt>
      <trkpt lat="47.16509" lon="6.14327">
        <ele>572</ele>
        <time>2015-04-26T12:00:49.000Z</time>
      </trkpt>
      <trkpt lat="47.16518" lon="6.14343">
        <ele>573</ele>
        <time>2015-04-26T12:00:51.000Z</time>
      </trkpt>
      <trkpt lat="47.16525" lon="6.14356">
        <ele>575</ele>
        <time>2015-04-26T12:00:53.000Z</time>
      </trkpt>
      <trkpt lat="47.16533" lon="6.1437">
        <ele>574</ele>
        <time>2015-04-26T12:00:55.000Z</time>
      </trkpt>
      <trkpt lat="47.16542" lon="6.14384">
        <ele>569</ele>
        <time>2015-04-26T12:00:57.000Z</time>
      </trkpt>
      <trkpt lat="47.16551" lon="6.14399">
        <ele>568</ele>
        <time>2015-04-26T12:00:59.000Z</time>
      </trkpt>
      <trkpt lat="47.1656" lon="6.14413">
        <ele>567</ele>
        <time>2015-04-26T12:01:01.000Z</time>
      </trkpt>
      <trkpt lat="47.16568" lon="6.14426">
        <ele>570</ele>
        <time>2015-04-26T12:01:03.000Z</time>
      </trkpt>
      <trkpt lat="47.16576" lon="6.14439">
        <ele>571</ele>
        <time>2015-04-26T12:01:05.000Z</time>
      </trkpt>
      <trkpt lat="47.16584" lon="6.14452">
        <ele>574</ele>
        <time>2015-04-26T12:01:07.000Z</time>
      </trkpt>
      <trkpt lat="47.16591" lon="6.14464">
        <ele>570</ele>
        <time>2015-04-26T12:01:09.000Z</time>
      </trkpt>
      <trkpt lat="47.16599" lon="6.14477">
        <ele>575</ele>
        <time>2015-04-26T12:01:11.000Z</time>
      </trkpt>
      <trkpt lat="47.16607" lon="6.14488">
        <ele>576</ele>
        <time>2015-04-26T12:01:13.000Z</time>
      </trkpt>
      <trkpt lat="47.16607" lon="6.14488">
        <ele>576</ele>
        <time>2015-04-26T12:01:15.000Z</time>
      </trkpt>
      <trkpt lat="47.16607" lon="6.14488">
        <ele>576</ele>
        <time>2015-04-26T12:01:17.000Z</time>
      </trkpt>
      <trkpt lat="47.16607" lon="6.14488">
        <ele>576</ele>
        <time>2015-04-26T12:01:19.000Z</time>
      </trkpt>
      <trkpt lat="47.16607" lon="6.14488">
        <ele>576</ele>
        <time>2015-04-26T12:01:21.000Z</time>
      </trkpt>
      <trkpt lat="47.16607" lon="6.14488">
        <ele>576</ele>
        <time>2015-04-26T12:01:23.000Z</time>
      </trkpt>
      <trkpt lat="47.16607" lon="6.14488">
        <ele>576</ele>
        <time>2015-04-26T12:01:25.000Z</time>
      </trkpt>
      <trkpt lat="47.16607" lon="6.14488">
        <ele>576</ele>
        <time>2015-04-26T12:01:27.000Z</time>
      </trkpt>
      <trkpt lat="47.16659" lon="6.14545">
        <ele>583</ele>
        <time>2015-04-26T12:01:31.000Z</time>
      </trkpt>
      <trkpt lat="47.16665" lon="6.14534">
        <ele>582</ele>
        <time>2015-04-26T12:01:33.000Z</time>
      </trkpt>
      <trkpt lat="47.16671" lon="6.14523">
        <ele>579</ele>
        <time>2015-04-26T12:01:35.000Z</time>
      </trkpt>
      <trkpt lat="47.16671" lon="6.14523">
        <ele>579</ele>
        <time>2015-04-26T12:01:37.000Z</time>
      </trkpt>
      <trkpt lat="47.16683" lon="6.14503">
        <ele>586</ele>
        <time>2015-04-26T12:01:39.000Z</time>
      </trkpt>
      <trkpt lat="47.16695" lon="6.14476">
        <ele>584</ele>
        <time>2015-04-26T12:01:43.000Z</time>
      </trkpt>
      <trkpt lat="47.167" lon="6.14461">
        <ele>579</ele>
        <time>2015-04-26T12:01:45.000Z</time>
      </trkpt>
      <trkpt lat="47.167" lon="6.14461">
        <ele>579</ele>
        <time>2015-04-26T12:01:47.000Z</time>
      </trkpt>
      <trkpt lat="47.167" lon="6.14461">
        <ele>579</ele>
        <time>2015-04-26T12:01:49.000Z</time>
      </trkpt>
      <trkpt lat="47.167" lon="6.14461">
        <ele>579</ele>
        <time>2015-04-26T12:01:51.000Z</time>
      </trkpt>
      <trkpt lat="47.167" lon="6.14461">
        <ele>579</ele>
        <time>2015-04-26T12:01:53.000Z</time>
      </trkpt>
      <trkpt lat="47.167" lon="6.14461">
        <ele>579</ele>
        <time>2015-04-26T12:01:55.000Z</time>
      </trkpt>
      <trkpt lat="47.16699" lon="6.14412">
        <ele>583</ele>
        <time>2015-04-26T12:01:59.000Z</time>
      </trkpt>
      <trkpt lat="47.16695" lon="6.14381">
        <ele>584</ele>
        <time>2015-04-26T12:02:01.000Z</time>
      </trkpt>
      <trkpt lat="47.16691" lon="6.14359">
        <ele>581</ele>
        <time>2015-04-26T12:02:03.000Z</time>
      </trkpt>
      <trkpt lat="47.16686" lon="6.14341">
        <ele>584</ele>
        <time>2015-04-26T12:02:05.000Z</time>
      </trkpt>
      <trkpt lat="47.1668" lon="6.14326">
        <ele>587</ele>
        <time>2015-04-26T12:02:07.000Z</time>
      </trkpt>
      <trkpt lat="47.16668" lon="6.14295">
        <ele>587</ele>
        <time>2015-04-26T12:02:09.000Z</time>
      </trkpt>
      <trkpt lat="47.16662" lon="6.14281">
        <ele>587</ele>
        <time>2015-04-26T12:02:11.000Z</time>
      </trkpt>
      <trkpt lat="47.16657" lon="6.14267">
        <ele>591</ele>
        <time>2015-04-26T12:02:13.000Z</time>
      </trkpt>
      <trkpt lat="47.16653" lon="6.1425">
        <ele>591</ele>
        <time>2015-04-26T12:02:15.000Z</time>
      </trkpt>
      <trkpt lat="47.1665" lon="6.14232">
        <ele>591</ele>
        <time>2015-04-26T12:02:17.000Z</time>
      </trkpt>
      <trkpt lat="47.16648" lon="6.14212">
        <ele>592</ele>
        <time>2015-04-26T12:02:19.000Z</time>
      </trkpt>
      <trkpt lat="47.16646" lon="6.14192">
        <ele>590</ele>
        <time>2015-04-26T12:02:21.000Z</time>
      </trkpt>
      <trkpt lat="47.16644" lon="6.1417">
        <ele>592</ele>
        <time>2015-04-26T12:02:23.000Z</time>
      </trkpt>
      <trkpt lat="47.16641" lon="6.14146">
        <ele>595</ele>
        <time>2015-04-26T12:02:25.000Z</time>
      </trkpt>
      <trkpt lat="47.16638" lon="6.14123">
        <ele>592</ele>
        <time>2015-04-26T12:02:27.000Z</time>
      </trkpt>
      <trkpt lat="47.16634" lon="6.14097">
        <ele>592</ele>
        <time>2015-04-26T12:02:29.000Z</time>
      </trkpt>
      <trkpt lat="47.16631" lon="6.14073">
        <ele>594</ele>
        <time>2015-04-26T12:02:31.000Z</time>
      </trkpt>
      <trkpt lat="47.16626" lon="6.14049">
        <ele>594</ele>
        <time>2015-04-26T12:02:33.000Z</time>
      </trkpt>
      <trkpt lat="47.16623" lon="6.14023">
        <ele>596</ele>
        <time>2015-04-26T12:02:35.000Z</time>
      </trkpt>
      <trkpt lat="47.16621" lon="6.13996">
        <ele>596</ele>
        <time>2015-04-26T12:02:37.000Z</time>
      </trkpt>
      <trkpt lat="47.16619" lon="6.13968">
        <ele>593</ele>
        <time>2015-04-26T12:02:39.000Z</time>
      </trkpt>
      <trkpt lat="47.16619" lon="6.13941">
        <ele>592</ele>
        <time>2015-04-26T12:02:41.000Z</time>
      </trkpt>
      <trkpt lat="47.16619" lon="6.13914">
        <ele>589</ele>
        <time>2015-04-26T12:02:43.000Z</time>
      </trkpt>
      <trkpt lat="47.16618" lon="6.13889">
        <ele>585</ele>
        <time>2015-04-26T12:02:45.000Z</time>
      </trkpt>
      <trkpt lat="47.16617" lon="6.13864">
        <ele>584</ele>
        <time>2015-04-26T12:02:47.000Z</time>
      </trkpt>
      <trkpt lat="47.16616" lon="6.13845">
        <ele>582</ele>
        <time>2015-04-26T12:02:49.000Z</time>
      </trkpt>
      <trkpt lat="47.16616" lon="6.13845">
        <ele>582</ele>
        <time>2015-04-26T12:02:53.000Z</time>
      </trkpt>
      <trkpt lat="47.16652" lon="6.13906">
        <ele>560</ele>
        <time>2015-04-26T12:03:01.000Z</time>
      </trkpt>
      <trkpt lat="47.16652" lon="6.13906">
        <ele>560</ele>
        <time>2015-04-26T12:03:03.000Z</time>
      </trkpt>
      <trkpt lat="47.16652" lon="6.13906">
        <ele>560</ele>
        <time>2015-04-26T12:03:06.000Z</time>
      </trkpt>
      <trkpt lat="47.16652" lon="6.13906">
        <ele>560</ele>
        <time>2015-04-26T12:03:08.000Z</time>
      </trkpt>
      <trkpt lat="47.16652" lon="6.13906">
        <ele>560</ele>
        <time>2015-04-26T12:03:10.000Z</time>
      </trkpt>
      <trkpt lat="47.16652" lon="6.13906">
        <ele>560</ele>
        <time>2015-04-26T12:03:12.000Z</time>
      </trkpt>
      <trkpt lat="47.16684" lon="6.13914">
        <ele>561</ele>
        <time>2015-04-26T12:03:18.000Z</time>
      </trkpt>
      <trkpt lat="47.16684" lon="6.13914">
        <ele>561</ele>
        <time>2015-04-26T12:03:20.000Z</time>
      </trkpt>
      <trkpt lat="47.16684" lon="6.13914">
        <ele>561</ele>
        <time>2015-04-26T12:03:22.000Z</time>
      </trkpt>
      <trkpt lat="47.16684" lon="6.13914">
        <ele>561</ele>
        <time>2015-04-26T12:03:24.000Z</time>
      </trkpt>
      <trkpt lat="47.16706" lon="6.13929">
        <ele>553</ele>
        <time>2015-04-26T12:03:28.000Z</time>
      </trkpt>
      <trkpt lat="47.16716" lon="6.13936">
        <ele>554</ele>
        <time>2015-04-26T12:03:32.000Z</time>
      </trkpt>
      <trkpt lat="47.16716" lon="6.13936">
        <ele>554</ele>
        <time>2015-04-26T12:03:34.000Z</time>
      </trkpt>
      <trkpt lat="47.16724" lon="6.13945">
        <ele>555</ele>
        <time>2015-04-26T12:03:36.000Z</time>
      </trkpt>
      <trkpt lat="47.16731" lon="6.13959">
        <ele>562</ele>
        <time>2015-04-26T12:03:40.000Z</time>
      </trkpt>
      <trkpt lat="47.16731" lon="6.13959">
        <ele>562</ele>
        <time>2015-04-26T12:03:42.000Z</time>
      </trkpt>
      <trkpt lat="47.16739" lon="6.13971">
        <ele>561</ele>
        <time>2015-04-26T12:03:44.000Z</time>
      </trkpt>
      <trkpt lat="47.16739" lon="6.13971">
        <ele>561</ele>
        <time>2015-04-26T12:03:48.000Z</time>
      </trkpt>
      <trkpt lat="47.16739" lon="6.13971">
        <ele>561</ele>
        <time>2015-04-26T12:03:50.000Z</time>
      </trkpt>
      <trkpt lat="47.16739" lon="6.13971">
        <ele>561</ele>
        <time>2015-04-26T12:03:52.000Z</time>
      </trkpt>
      <trkpt lat="47.16739" lon="6.13971">
        <ele>561</ele>
        <time>2015-04-26T12:03:54.000Z</time>
      </trkpt>
      <trkpt lat="47.16739" lon="6.13971">
        <ele>561</ele>
        <time>2015-04-26T12:03:57.000Z</time>
      </trkpt>
      <trkpt lat="47.16739" lon="6.13971">
        <ele>561</ele>
        <time>2015-04-26T12:03:59.000Z</time>
      </trkpt>
      <trkpt lat="47.16739" lon="6.13971">
        <ele>561</ele>
        <time>2015-04-26T12:04:01.000Z</time>
      </trkpt>
      <trkpt lat="47.16739" lon="6.13971">
        <ele>561</ele>
        <time>2015-04-26T12:04:04.000Z</time>
      </trkpt>
      <trkpt lat="47.16784" lon="6.13981">
        <ele>569</ele>
        <time>2015-04-26T12:04:09.000Z</time>
      </trkpt>
      <trkpt lat="47.16784" lon="6.13981">
        <ele>569</ele>
        <time>2015-04-26T12:04:11.000Z</time>
      </trkpt>
      <trkpt lat="47.16784" lon="6.13981">
        <ele>569</ele>
        <time>2015-04-26T12:04:13.000Z</time>
      </trkpt>
      <trkpt lat="47.16784" lon="6.13981">
        <ele>569</ele>
        <time>2015-04-26T12:04:15.000Z</time>
      </trkpt>
      <trkpt lat="47.16792" lon="6.13982">
        <ele>572</ele>
        <time>2015-04-26T12:04:23.000Z</time>
      </trkpt>
      <trkpt lat="47.16798" lon="6.13981">
        <ele>577</ele>
        <time>2015-04-26T12:04:25.000Z</time>
      </trkpt>
      <trkpt lat="47.16803" lon="6.13979">
        <ele>577</ele>
        <time>2015-04-26T12:04:27.000Z</time>
      </trkpt>
      <trkpt lat="47.16803" lon="6.13979">
        <ele>577</ele>
        <time>2015-04-26T12:04:29.000Z</time>
      </trkpt>
      <trkpt lat="47.16809" lon="6.13975">
        <ele>573</ele>
        <time>2015-04-26T12:04:34.000Z</time>
      </trkpt>
      <trkpt lat="47.16816" lon="6.13974">
        <ele>579</ele>
        <time>2015-04-26T12:04:39.000Z</time>
      </trkpt>
      <trkpt lat="47.16816" lon="6.13974">
        <ele>579</ele>
        <time>2015-04-26T12:04:41.000Z</time>
      </trkpt>
      <trkpt lat="47.16816" lon="6.13974">
        <ele>579</ele>
        <time>2015-04-26T12:04:43.000Z</time>
      </trkpt>
      <trkpt lat="47.16816" lon="6.13974">
        <ele>579</ele>
        <time>2015-04-26T12:04:45.000Z</time>
      </trkpt>
      <trkpt lat="47.16829" lon="6.13977">
        <ele>579</ele>
        <time>2015-04-26T12:04:54.000Z</time>
      </trkpt>
      <trkpt lat="47.16837" lon="6.13976">
        <ele>579</ele>
        <time>2015-04-26T12:04:56.000Z</time>
      </trkpt>
      <trkpt lat="47.16843" lon="6.13975">
        <ele>582</ele>
        <time>2015-04-26T12:04:59.000Z</time>
      </trkpt>
      <trkpt lat="47.1685" lon="6.13974">
        <ele>576</ele>
        <time>2015-04-26T12:05:05.000Z</time>
      </trkpt>
      <trkpt lat="47.1685" lon="6.13974">
        <ele>576</ele>
        <time>2015-04-26T12:05:07.000Z</time>
      </trkpt>
      <trkpt lat="47.1685" lon="6.13974">
        <ele>576</ele>
        <time>2015-04-26T12:05:09.000Z</time>
      </trkpt>
      <trkpt lat="47.1685" lon="6.13974">
        <ele>576</ele>
        <time>2015-04-26T12:05:11.000Z</time>
      </trkpt>
      <trkpt lat="47.1685" lon="6.13974">
        <ele>576</ele>
        <time>2015-04-26T12:05:13.000Z</time>
      </trkpt>
      <trkpt lat="47.1685" lon="6.13974">
        <ele>576</ele>
        <time>2015-04-26T12:05:15.000Z</time>
      </trkpt>
      <trkpt lat="47.1685" lon="6.13974">
        <ele>576</ele>
        <time>2015-04-26T12:05:21.000Z</time>
      </trkpt>
      <trkpt lat="47.1685" lon="6.13974">
        <ele>576</ele>
        <time>2015-04-26T12:05:23.000Z</time>
      </trkpt>
      <trkpt lat="47.1685" lon="6.13974">
        <ele>576</ele>
        <time>2015-04-26T12:05:25.000Z</time>
      </trkpt>
      <trkpt lat="47.16874" lon="6.13973">
        <ele>584</ele>
        <time>2015-04-26T12:05:29.000Z</time>
      </trkpt>
      <trkpt lat="47.16888" lon="6.13974">
        <ele>583</ele>
        <time>2015-04-26T12:05:31.000Z</time>
      </trkpt>
      <trkpt lat="47.16897" lon="6.13975">
        <ele>578</ele>
        <time>2015-04-26T12:05:34.000Z</time>
      </trkpt>
      <trkpt lat="47.16904" lon="6.13975">
        <ele>580</ele>
        <time>2015-04-26T12:05:36.000Z</time>
      </trkpt>
      <trkpt lat="47.1691" lon="6.13975">
        <ele>578</ele>
        <time>2015-04-26T12:05:40.000Z</time>
      </trkpt>
      <trkpt lat="47.16916" lon="6.13974">
        <ele>576</ele>
        <time>2015-04-26T12:05:42.000Z</time>
      </trkpt>
      <trkpt lat="47.1692" lon="6.13974">
        <ele>581</ele>
        <time>2015-04-26T12:05:44.000Z</time>
      </trkpt>
      <trkpt lat="47.16925" lon="6.13975">
        <ele>575</ele>
        <time>2015-04-26T12:05:46.000Z</time>
      </trkpt>
      <trkpt lat="47.16925" lon="6.13975">
        <ele>575</ele>
        <time>2015-04-26T12:05:48.000Z</time>
      </trkpt>
      <trkpt lat="47.16933" lon="6.13974">
        <ele>578</ele>
        <time>2015-04-26T12:05:52.000Z</time>
      </trkpt>
      <trkpt lat="47.16941" lon="6.13969">
        <ele>580</ele>
        <time>2015-04-26T12:06:01.000Z</time>
      </trkpt>
      <trkpt lat="47.16949" lon="6.13962">
        <ele>593</ele>
        <time>2015-04-26T12:06:07.000Z</time>
      </trkpt>
      <trkpt lat="47.16957" lon="6.13955">
        <ele>602</ele>
        <time>2015-04-26T12:06:13.000Z</time>
      </trkpt>
      <trkpt lat="47.16957" lon="6.13955">
        <ele>602</ele>
        <time>2015-04-26T12:06:19.000Z</time>
      </trkpt>
      <trkpt lat="47.16957" lon="6.13955">
        <ele>602</ele>
        <time>2015-04-26T12:06:21.000Z</time>
      </trkpt>
      <trkpt lat="47.16972" lon="6.13946">
        <ele>606</ele>
        <time>2015-04-26T12:06:25.000Z</time>
      </trkpt>
      <trkpt lat="47.16972" lon="6.13946">
        <ele>606</ele>
        <time>2015-04-26T12:06:27.000Z</time>
      </trkpt>
      <trkpt lat="47.16972" lon="6.13946">
        <ele>606</ele>
        <time>2015-04-26T12:06:29.000Z</time>
      </trkpt>
      <trkpt lat="47.16986" lon="6.1393">
        <ele>602</ele>
        <time>2015-04-26T12:06:34.000Z</time>
      </trkpt>
      <trkpt lat="47.16986" lon="6.1393">
        <ele>602</ele>
        <time>2015-04-26T12:06:36.000Z</time>
      </trkpt>
      <trkpt lat="47.16999" lon="6.13916">
        <ele>597</ele>
        <time>2015-04-26T12:06:40.000Z</time>
      </trkpt>
      <trkpt lat="47.17007" lon="6.13906">
        <ele>598</ele>
        <time>2015-04-26T12:06:43.000Z</time>
      </trkpt>
      <trkpt lat="47.17015" lon="6.13896">
        <ele>603</ele>
        <time>2015-04-26T12:06:47.000Z</time>
      </trkpt>
      <trkpt lat="47.17015" lon="6.13896">
        <ele>603</ele>
        <time>2015-04-26T12:06:49.000Z</time>
      </trkpt>
      <trkpt lat="47.17024" lon="6.13882">
        <ele>608</ele>
        <time>2015-04-26T12:06:52.000Z</time>
      </trkpt>
      <trkpt lat="47.17028" lon="6.13869">
        <ele>607</ele>
        <time>2015-04-26T12:06:54.000Z</time>
      </trkpt>
      <trkpt lat="47.1703" lon="6.13859">
        <ele>603</ele>
        <time>2015-04-26T12:06:56.000Z</time>
      </trkpt>
      <trkpt lat="47.1703" lon="6.1385">
        <ele>606</ele>
        <time>2015-04-26T12:06:58.000Z</time>
      </trkpt>
      <trkpt lat="47.1703" lon="6.13842">
        <ele>610</ele>
        <time>2015-04-26T12:07:00.000Z</time>
      </trkpt>
      <trkpt lat="47.17031" lon="6.13828">
        <ele>610</ele>
        <time>2015-04-26T12:07:02.000Z</time>
      </trkpt>
      <trkpt lat="47.17031" lon="6.13828">
        <ele>610</ele>
        <time>2015-04-26T12:07:04.000Z</time>
      </trkpt>
      <trkpt lat="47.17039" lon="6.13804">
        <ele>612</ele>
        <time>2015-04-26T12:07:08.000Z</time>
      </trkpt>
      <trkpt lat="47.17039" lon="6.13804">
        <ele>612</ele>
        <time>2015-04-26T12:07:10.000Z</time>
      </trkpt>
      <trkpt lat="47.17039" lon="6.13804">
        <ele>612</ele>
        <time>2015-04-26T12:07:14.000Z</time>
      </trkpt>
      <trkpt lat="47.17039" lon="6.13804">
        <ele>612</ele>
        <time>2015-04-26T12:07:16.000Z</time>
      </trkpt>
      <trkpt lat="47.17039" lon="6.13804">
        <ele>612</ele>
        <time>2015-04-26T12:07:18.000Z</time>
      </trkpt>
      <trkpt lat="47.17062" lon="6.13739">
        <ele>613</ele>
        <time>2015-04-26T12:07:23.000Z</time>
      </trkpt>
      <trkpt lat="47.17065" lon="6.13727">
        <ele>609</ele>
        <time>2015-04-26T12:07:25.000Z</time>
      </trkpt>
      <trkpt lat="47.17073" lon="6.13718">
        <ele>607</ele>
        <time>2015-04-26T12:07:29.000Z</time>
      </trkpt>
      <trkpt lat="47.17073" lon="6.13718">
        <ele>607</ele>
        <time>2015-04-26T12:07:31.000Z</time>
      </trkpt>
      <trkpt lat="47.17087" lon="6.1373">
        <ele>604</ele>
        <time>2015-04-26T12:07:35.000Z</time>
      </trkpt>
      <trkpt lat="47.17087" lon="6.1373">
        <ele>604</ele>
        <time>2015-04-26T12:07:37.000Z</time>
      </trkpt>
      <trkpt lat="47.17099" lon="6.13739">
        <ele>604</ele>
        <time>2015-04-26T12:07:42.000Z</time>
      </trkpt>
      <trkpt lat="47.17109" lon="6.13746">
        <ele>606</ele>
        <time>2015-04-26T12:07:47.000Z</time>
      </trkpt>
      <trkpt lat="47.17109" lon="6.13746">
        <ele>606</ele>
        <time>2015-04-26T12:07:49.000Z</time>
      </trkpt>
      <trkpt lat="47.17109" lon="6.13746">
        <ele>606</ele>
        <time>2015-04-26T12:07:51.000Z</time>
      </trkpt>
      <trkpt lat="47.17109" lon="6.13746">
        <ele>606</ele>
        <time>2015-04-26T12:07:53.000Z</time>
      </trkpt>
      <trkpt lat="47.17109" lon="6.13746">
        <ele>606</ele>
        <time>2015-04-26T12:07:55.000Z</time>
      </trkpt>
      <trkpt lat="47.17109" lon="6.13746">
        <ele>606</ele>
        <time>2015-04-26T12:07:57.000Z</time>
      </trkpt>
      <trkpt lat="47.17109" lon="6.13746">
        <ele>606</ele>
        <time>2015-04-26T12:07:59.000Z</time>
      </trkpt>
      <trkpt lat="47.17109" lon="6.13746">
        <ele>606</ele>
        <time>2015-04-26T12:08:01.000Z</time>
      </trkpt>
      <trkpt lat="47.17109" lon="6.13746">
        <ele>606</ele>
        <time>2015-04-26T12:08:03.000Z</time>
      </trkpt>
      <trkpt lat="47.17109" lon="6.13746">
        <ele>606</ele>
        <time>2015-04-26T12:08:05.000Z</time>
      </trkpt>
      <trkpt lat="47.17109" lon="6.13746">
        <ele>606</ele>
        <time>2015-04-26T12:08:07.000Z</time>
      </trkpt>
      <trkpt lat="47.17109" lon="6.13746">
        <ele>606</ele>
        <time>2015-04-26T12:08:09.000Z</time>
      </trkpt>
      <trkpt lat="47.17109" lon="6.13746">
        <ele>606</ele>
        <time>2015-04-26T12:08:11.000Z</time>
      </trkpt>
      <trkpt lat="47.17109" lon="6.13746">
        <ele>606</ele>
        <time>2015-04-26T12:08:13.000Z</time>
      </trkpt>
      <trkpt lat="47.17109" lon="6.13746">
        <ele>606</ele>
        <time>2015-04-26T12:08:15.000Z</time>
      </trkpt>
      <trkpt lat="47.17109" lon="6.13746">
        <ele>606</ele>
        <time>2015-04-26T12:08:17.000Z</time>
      </trkpt>
      <trkpt lat="47.17109" lon="6.13746">
        <ele>606</ele>
        <time>2015-04-26T12:08:19.000Z</time>
      </trkpt>
      <trkpt lat="47.17109" lon="6.13746">
        <ele>606</ele>
        <time>2015-04-26T12:08:21.000Z</time>
      </trkpt>
      <trkpt lat="47.17169" lon="6.13799">
        <ele>613</ele>
        <time>2015-04-26T12:08:27.000Z</time>
      </trkpt>
      <trkpt lat="47.17169" lon="6.13799">
        <ele>613</ele>
        <time>2015-04-26T12:08:29.000Z</time>
      </trkpt>
      <trkpt lat="47.17169" lon="6.13799">
        <ele>613</ele>
        <time>2015-04-26T12:08:35.000Z</time>
      </trkpt>
      <trkpt lat="47.17169" lon="6.13799">
        <ele>613</ele>
        <time>2015-04-26T12:08:41.000Z</time>
      </trkpt>
      <trkpt lat="47.17187" lon="6.13821">
        <ele>618</ele>
        <time>2015-04-26T12:08:59.000Z</time>
      </trkpt>
      <trkpt lat="47.17196" lon="6.13833">
        <ele>622</ele>
        <time>2015-04-26T12:09:01.000Z</time>
      </trkpt>
      <trkpt lat="47.17202" lon="6.1384">
        <ele>624</ele>
        <time>2015-04-26T12:09:03.000Z</time>
      </trkpt>
      <trkpt lat="47.17202" lon="6.1384">
        <ele>624</ele>
        <time>2015-04-26T12:09:05.000Z</time>
      </trkpt>
      <trkpt lat="47.17202" lon="6.1384">
        <ele>624</ele>
        <time>2015-04-26T12:09:07.000Z</time>
      </trkpt>
      <trkpt lat="47.17216" lon="6.13857">
        <ele>621</ele>
        <time>2015-04-26T12:09:25.000Z</time>
      </trkpt>
      <trkpt lat="47.17225" lon="6.13868">
        <ele>622</ele>
        <time>2015-04-26T12:09:27.000Z</time>
      </trkpt>
      <trkpt lat="47.17225" lon="6.13868">
        <ele>622</ele>
        <time>2015-04-26T12:09:29.000Z</time>
      </trkpt>
      <trkpt lat="47.17234" lon="6.13885">
        <ele>617</ele>
        <time>2015-04-26T12:09:37.000Z</time>
      </trkpt>
      <trkpt lat="47.17239" lon="6.13897">
        <ele>618</ele>
        <time>2015-04-26T12:09:39.000Z</time>
      </trkpt>
      <trkpt lat="47.17243" lon="6.13906">
        <ele>621</ele>
        <time>2015-04-26T12:09:41.000Z</time>
      </trkpt>
      <trkpt lat="47.17246" lon="6.13913">
        <ele>626</ele>
        <time>2015-04-26T12:09:43.000Z</time>
      </trkpt>
      <trkpt lat="47.1725" lon="6.1392">
        <ele>628</ele>
        <time>2015-04-26T12:09:47.000Z</time>
      </trkpt>
      <trkpt lat="47.17253" lon="6.13926">
        <ele>627</ele>
        <time>2015-04-26T12:09:49.000Z</time>
      </trkpt>
      <trkpt lat="47.17256" lon="6.13931">
        <ele>625</ele>
        <time>2015-04-26T12:09:51.000Z</time>
      </trkpt>
      <trkpt lat="47.17261" lon="6.13938">
        <ele>623</ele>
        <time>2015-04-26T12:09:55.000Z</time>
      </trkpt>
      <trkpt lat="47.17266" lon="6.13945">
        <ele>619</ele>
        <time>2015-04-26T12:09:57.000Z</time>
      </trkpt>
      <trkpt lat="47.1727" lon="6.13952">
        <ele>622</ele>
        <time>2015-04-26T12:09:59.000Z</time>
      </trkpt>
      <trkpt lat="47.17274" lon="6.13959">
        <ele>621</ele>
        <time>2015-04-26T12:10:03.000Z</time>
      </trkpt>
      <trkpt lat="47.17274" lon="6.13959">
        <ele>621</ele>
        <time>2015-04-26T12:10:05.000Z</time>
      </trkpt>
      <trkpt lat="47.17279" lon="6.13963">
        <ele>626</ele>
        <time>2015-04-26T12:10:07.000Z</time>
      </trkpt>
      <trkpt lat="47.17279" lon="6.13963">
        <ele>626</ele>
        <time>2015-04-26T12:10:09.000Z</time>
      </trkpt>
      <trkpt lat="47.17279" lon="6.13963">
        <ele>626</ele>
        <time>2015-04-26T12:10:11.000Z</time>
      </trkpt>
      <trkpt lat="47.17279" lon="6.13963">
        <ele>626</ele>
        <time>2015-04-26T12:10:13.000Z</time>
      </trkpt>
      <trkpt lat="47.17279" lon="6.13963">
        <ele>626</ele>
        <time>2015-04-26T12:10:15.000Z</time>
      </trkpt>
      <trkpt lat="47.17279" lon="6.13963">
        <ele>626</ele>
        <time>2015-04-26T12:10:17.000Z</time>
      </trkpt>
      <trkpt lat="47.17279" lon="6.13963">
        <ele>626</ele>
        <time>2015-04-26T12:10:19.000Z</time>
      </trkpt>
      <trkpt lat="47.17292" lon="6.13981">
        <ele>632</ele>
        <time>2015-04-26T12:10:23.000Z</time>
      </trkpt>
      <trkpt lat="47.17299" lon="6.13993">
        <ele>632</ele>
        <time>2015-04-26T12:10:25.000Z</time>
      </trkpt>
      <trkpt lat="47.17304" lon="6.14001">
        <ele>630</ele>
        <time>2015-04-26T12:10:27.000Z</time>
      </trkpt>
      <trkpt lat="47.17308" lon="6.14007">
        <ele>632</ele>
        <time>2015-04-26T12:10:29.000Z</time>
      </trkpt>
      <trkpt lat="47.17312" lon="6.14011">
        <ele>629</ele>
        <time>2015-04-26T12:10:31.000Z</time>
      </trkpt>
      <trkpt lat="47.17322" lon="6.14021">
        <ele>626</ele>
        <time>2015-04-26T12:10:35.000Z</time>
      </trkpt>
      <trkpt lat="47.17322" lon="6.14021">
        <ele>626</ele>
        <time>2015-04-26T12:10:37.000Z</time>
      </trkpt>
      <trkpt lat="47.17322" lon="6.14021">
        <ele>626</ele>
        <time>2015-04-26T12:10:39.000Z</time>
      </trkpt>
      <trkpt lat="47.17336" lon="6.1403">
        <ele>629</ele>
        <time>2015-04-26T12:10:43.000Z</time>
      </trkpt>
      <trkpt lat="47.17346" lon="6.14032">
        <ele>627</ele>
        <time>2015-04-26T12:10:47.000Z</time>
      </trkpt>
      <trkpt lat="47.17357" lon="6.14034">
        <ele>631</ele>
        <time>2015-04-26T12:10:51.000Z</time>
      </trkpt>
      <trkpt lat="47.17366" lon="6.14041">
        <ele>631</ele>
        <time>2015-04-26T12:10:55.000Z</time>
      </trkpt>
      <trkpt lat="47.17376" lon="6.14049">
        <ele>633</ele>
        <time>2015-04-26T12:10:59.000Z</time>
      </trkpt>
      <trkpt lat="47.17389" lon="6.14069">
        <ele>633</ele>
        <time>2015-04-26T12:11:05.000Z</time>
      </trkpt>
      <trkpt lat="47.17395" lon="6.14087">
        <ele>631</ele>
        <time>2015-04-26T12:11:09.000Z</time>
      </trkpt>
      <trkpt lat="47.17403" lon="6.14097">
        <ele>630</ele>
        <time>2015-04-26T12:11:11.000Z</time>
      </trkpt>
      <trkpt lat="47.17419" lon="6.14114">
        <ele>633</ele>
        <time>2015-04-26T12:11:15.000Z</time>
      </trkpt>
      <trkpt lat="47.17429" lon="6.14124">
        <ele>635</ele>
        <time>2015-04-26T12:11:17.000Z</time>
      </trkpt>
      <trkpt lat="47.17437" lon="6.14132">
        <ele>637</ele>
        <time>2015-04-26T12:11:19.000Z</time>
      </trkpt>
      <trkpt lat="47.17446" lon="6.1414">
        <ele>639</ele>
        <time>2015-04-26T12:11:21.000Z</time>
      </trkpt>
      <trkpt lat="47.17456" lon="6.14149">
        <ele>639</ele>
        <time>2015-04-26T12:11:23.000Z</time>
      </trkpt>
      <trkpt lat="47.17467" lon="6.14158">
        <ele>637</ele>
        <time>2015-04-26T12:11:25.000Z</time>
      </trkpt>
      <trkpt lat="47.17478" lon="6.14165">
        <ele>635</ele>
        <time>2015-04-26T12:11:27.000Z</time>
      </trkpt>
      <trkpt lat="47.17487" lon="6.14171">
        <ele>634</ele>
        <time>2015-04-26T12:11:29.000Z</time>
      </trkpt>
      <trkpt lat="47.17506" lon="6.14185">
        <ele>634</ele>
        <time>2015-04-26T12:11:33.000Z</time>
      </trkpt>
      <trkpt lat="47.17521" lon="6.14195">
        <ele>633</ele>
        <time>2015-04-26T12:11:35.000Z</time>
      </trkpt>
      <trkpt lat="47.17533" lon="6.14204">
        <ele>631</ele>
        <time>2015-04-26T12:11:37.000Z</time>
      </trkpt>
      <trkpt lat="47.17543" lon="6.1421">
        <ele>635</ele>
        <time>2015-04-26T12:11:39.000Z</time>
      </trkpt>
      <trkpt lat="47.17554" lon="6.14219">
        <ele>631</ele>
        <time>2015-04-26T12:11:41.000Z</time>
      </trkpt>
      <trkpt lat="47.17564" lon="6.14227">
        <ele>632</ele>
        <time>2015-04-26T12:11:43.000Z</time>
      </trkpt>
      <trkpt lat="47.17575" lon="6.14235">
        <ele>635</ele>
        <time>2015-04-26T12:11:45.000Z</time>
      </trkpt>
      <trkpt lat="47.17588" lon="6.14247">
        <ele>635</ele>
        <time>2015-04-26T12:11:47.000Z</time>
      </trkpt>
      <trkpt lat="47.17602" lon="6.14268">
        <ele>632</ele>
        <time>2015-04-26T12:11:49.000Z</time>
      </trkpt>
      <trkpt lat="47.17617" lon="6.14291">
        <ele>630</ele>
        <time>2015-04-26T12:11:51.000Z</time>
      </trkpt>
      <trkpt lat="47.17633" lon="6.14312">
        <ele>628</ele>
        <time>2015-04-26T12:11:53.000Z</time>
      </trkpt>
      <trkpt lat="47.17649" lon="6.1433">
        <ele>628</ele>
        <time>2015-04-26T12:11:55.000Z</time>
      </trkpt>
      <trkpt lat="47.17662" lon="6.14343">
        <ele>628</ele>
        <time>2015-04-26T12:11:57.000Z</time>
      </trkpt>
      <trkpt lat="47.17674" lon="6.14355">
        <ele>628</ele>
        <time>2015-04-26T12:11:59.000Z</time>
      </trkpt>
      <trkpt lat="47.17683" lon="6.14371">
        <ele>623</ele>
        <time>2015-04-26T12:12:02.000Z</time>
      </trkpt>
      <trkpt lat="47.1769" lon="6.14382">
        <ele>622</ele>
        <time>2015-04-26T12:12:04.000Z</time>
      </trkpt>
      <trkpt lat="47.17698" lon="6.14399">
        <ele>624</ele>
        <time>2015-04-26T12:12:06.000Z</time>
      </trkpt>
      <trkpt lat="47.17705" lon="6.14413">
        <ele>627</ele>
        <time>2015-04-26T12:12:08.000Z</time>
      </trkpt>
      <trkpt lat="47.17705" lon="6.14413">
        <ele>627</ele>
        <time>2015-04-26T12:12:11.000Z</time>
      </trkpt>
      <trkpt lat="47.17705" lon="6.14413">
        <ele>627</ele>
        <time>2015-04-26T12:12:18.000Z</time>
      </trkpt>
      <trkpt lat="47.17705" lon="6.14413">
        <ele>627</ele>
        <time>2015-04-26T12:12:20.000Z</time>
      </trkpt>
      <trkpt lat="47.17705" lon="6.14413">
        <ele>627</ele>
        <time>2015-04-26T12:12:22.000Z</time>
      </trkpt>
      <trkpt lat="47.17705" lon="6.14413">
        <ele>627</ele>
        <time>2015-04-26T12:12:24.000Z</time>
      </trkpt>
      <trkpt lat="47.17705" lon="6.14413">
        <ele>627</ele>
        <time>2015-04-26T12:12:26.000Z</time>
      </trkpt>
      <trkpt lat="47.17705" lon="6.14413">
        <ele>627</ele>
        <time>2015-04-26T12:12:28.000Z</time>
      </trkpt>
      <trkpt lat="47.17705" lon="6.14413">
        <ele>627</ele>
        <time>2015-04-26T12:12:30.000Z</time>
      </trkpt>
      <trkpt lat="47.17705" lon="6.14413">
        <ele>627</ele>
        <time>2015-04-26T12:12:32.000Z</time>
      </trkpt>
      <trkpt lat="47.17705" lon="6.14413">
        <ele>627</ele>
        <time>2015-04-26T12:12:34.000Z</time>
      </trkpt>
      <trkpt lat="47.17814" lon="6.14538">
        <ele>614</ele>
        <time>2015-04-26T12:12:39.000Z</time>
      </trkpt>
      <trkpt lat="47.17819" lon="6.14522">
        <ele>616</ele>
        <time>2015-04-26T12:12:41.000Z</time>
      </trkpt>
      <trkpt lat="47.17826" lon="6.14503">
        <ele>616</ele>
        <time>2015-04-26T12:12:43.000Z</time>
      </trkpt>
      <trkpt lat="47.17836" lon="6.14482">
        <ele>614</ele>
        <time>2015-04-26T12:12:45.000Z</time>
      </trkpt>
      <trkpt lat="47.17846" lon="6.14462">
        <ele>611</ele>
        <time>2015-04-26T12:12:47.000Z</time>
      </trkpt>
      <trkpt lat="47.17855" lon="6.14445">
        <ele>613</ele>
        <time>2015-04-26T12:12:49.000Z</time>
      </trkpt>
      <trkpt lat="47.17855" lon="6.14445">
        <ele>613</ele>
        <time>2015-04-26T12:12:52.000Z</time>
      </trkpt>
      <trkpt lat="47.17855" lon="6.14445">
        <ele>613</ele>
        <time>2015-04-26T12:12:54.000Z</time>
      </trkpt>
      <trkpt lat="47.17855" lon="6.14445">
        <ele>613</ele>
        <time>2015-04-26T12:12:56.000Z</time>
      </trkpt>
      <trkpt lat="47.17855" lon="6.14445">
        <ele>613</ele>
        <time>2015-04-26T12:12:58.000Z</time>
      </trkpt>
      <trkpt lat="47.17855" lon="6.14445">
        <ele>613</ele>
        <time>2015-04-26T12:13:00.000Z</time>
      </trkpt>
      <trkpt lat="47.17855" lon="6.14445">
        <ele>613</ele>
        <time>2015-04-26T12:13:03.000Z</time>
      </trkpt>
      <trkpt lat="47.17855" lon="6.14445">
        <ele>613</ele>
        <time>2015-04-26T12:13:06.000Z</time>
      </trkpt>
      <trkpt lat="47.17855" lon="6.14445">
        <ele>613</ele>
        <time>2015-04-26T12:13:08.000Z</time>
      </trkpt>
      <trkpt lat="47.17851" lon="6.14381">
        <ele>601</ele>
        <time>2015-04-26T12:13:10.000Z</time>
      </trkpt>
      <trkpt lat="47.17846" lon="6.14342">
        <ele>596</ele>
        <time>2015-04-26T12:13:12.000Z</time>
      </trkpt>
      <trkpt lat="47.17839" lon="6.14315">
        <ele>602</ele>
        <time>2015-04-26T12:13:14.000Z</time>
      </trkpt>
      <trkpt lat="47.1783" lon="6.14295">
        <ele>603</ele>
        <time>2015-04-26T12:13:16.000Z</time>
      </trkpt>
      <trkpt lat="47.17817" lon="6.14278">
        <ele>602</ele>
        <time>2015-04-26T12:13:19.000Z</time>
      </trkpt>
      <trkpt lat="47.17792" lon="6.14245">
        <ele>606</ele>
        <time>2015-04-26T12:13:21.000Z</time>
      </trkpt>
      <trkpt lat="47.17792" lon="6.14245">
        <ele>606</ele>
        <time>2015-04-26T12:13:23.000Z</time>
      </trkpt>
      <trkpt lat="47.17792" lon="6.14245">
        <ele>606</ele>
        <time>2015-04-26T12:13:25.000Z</time>
      </trkpt>
      <trkpt lat="47.17772" lon="6.14199">
        <ele>602</ele>
        <time>2015-04-26T12:13:29.000Z</time>
      </trkpt>
      <trkpt lat="47.17772" lon="6.14199">
        <ele>602</ele>
        <time>2015-04-26T12:13:31.000Z</time>
      </trkpt>
      <trkpt lat="47.17776" lon="6.14187">
        <ele>596</ele>
        <time>2015-04-26T12:13:34.000Z</time>
      </trkpt>
      <trkpt lat="47.17776" lon="6.14187">
        <ele>596</ele>
        <time>2015-04-26T12:13:37.000Z</time>
      </trkpt>
      <trkpt lat="47.17794" lon="6.14189">
        <ele>587</ele>
        <time>2015-04-26T12:13:39.000Z</time>
      </trkpt>
      <trkpt lat="47.17806" lon="6.14186">
        <ele>581</ele>
        <time>2015-04-26T12:13:43.000Z</time>
      </trkpt>
      <trkpt lat="47.17806" lon="6.14186">
        <ele>581</ele>
        <time>2015-04-26T12:13:45.000Z</time>
      </trkpt>
      <trkpt lat="47.1782" lon="6.14181">
        <ele>574</ele>
        <time>2015-04-26T12:13:47.000Z</time>
      </trkpt>
      <trkpt lat="47.1782" lon="6.14181">
        <ele>574</ele>
        <time>2015-04-26T12:13:49.000Z</time>
      </trkpt>
      <trkpt lat="47.17883" lon="6.14169">
        <ele>559</ele>
        <time>2015-04-26T12:13:59.000Z</time>
      </trkpt>
      <trkpt lat="47.17895" lon="6.14167">
        <ele>554</ele>
        <time>2015-04-26T12:14:01.000Z</time>
      </trkpt>
      <trkpt lat="47.17905" lon="6.14166">
        <ele>557</ele>
        <time>2015-04-26T12:14:03.000Z</time>
      </trkpt>
      <trkpt lat="47.17905" lon="6.14166">
        <ele>557</ele>
        <time>2015-04-26T12:14:05.000Z</time>
      </trkpt>
      <trkpt lat="47.17922" lon="6.14162">
        <ele>553</ele>
        <time>2015-04-26T12:14:09.000Z</time>
      </trkpt>
      <trkpt lat="47.17937" lon="6.14161">
        <ele>548</ele>
        <time>2015-04-26T12:14:12.000Z</time>
      </trkpt>
      <trkpt lat="47.17944" lon="6.1415">
        <ele>546</ele>
        <time>2015-04-26T12:14:15.000Z</time>
      </trkpt>
      <trkpt lat="47.17944" lon="6.1415">
        <ele>546</ele>
        <time>2015-04-26T12:14:17.000Z</time>
      </trkpt>
      <trkpt lat="47.17931" lon="6.1412">
        <ele>550</ele>
        <time>2015-04-26T12:14:21.000Z</time>
      </trkpt>
      <trkpt lat="47.17926" lon="6.14105">
        <ele>549</ele>
        <time>2015-04-26T12:14:23.000Z</time>
      </trkpt>
      <trkpt lat="47.1792" lon="6.14083">
        <ele>549</ele>
        <time>2015-04-26T12:14:25.000Z</time>
      </trkpt>
      <trkpt lat="47.17914" lon="6.14057">
        <ele>543</ele>
        <time>2015-04-26T12:14:27.000Z</time>
      </trkpt>
      <trkpt lat="47.17913" lon="6.14028">
        <ele>543</ele>
        <time>2015-04-26T12:14:29.000Z</time>
      </trkpt>
      <trkpt lat="47.17916" lon="6.13998">
        <ele>533</ele>
        <time>2015-04-26T12:14:31.000Z</time>
      </trkpt>
      <trkpt lat="47.1792" lon="6.1397">
        <ele>531</ele>
        <time>2015-04-26T12:14:33.000Z</time>
      </trkpt>
      <trkpt lat="47.17924" lon="6.13943">
        <ele>532</ele>
        <time>2015-04-26T12:14:35.000Z</time>
      </trkpt>
      <trkpt lat="47.17931" lon="6.13914">
        <ele>533</ele>
        <time>2015-04-26T12:14:37.000Z</time>
      </trkpt>
      <trkpt lat="47.17937" lon="6.13882">
        <ele>533</ele>
        <time>2015-04-26T12:14:39.000Z</time>
      </trkpt>
      <trkpt lat="47.17943" lon="6.1385">
        <ele>530</ele>
        <time>2015-04-26T12:14:41.000Z</time>
      </trkpt>
      <trkpt lat="47.17949" lon="6.13819">
        <ele>533</ele>
        <time>2015-04-26T12:14:43.000Z</time>
      </trkpt>
      <trkpt lat="47.17954" lon="6.13785">
        <ele>533</ele>
        <time>2015-04-26T12:14:46.000Z</time>
      </trkpt>
      <trkpt lat="47.17957" lon="6.13766">
        <ele>528</ele>
        <time>2015-04-26T12:14:48.000Z</time>
      </trkpt>
      <trkpt lat="47.17958" lon="6.1375">
        <ele>529</ele>
        <time>2015-04-26T12:14:50.000Z</time>
      </trkpt>
      <trkpt lat="47.17961" lon="6.13735">
        <ele>531</ele>
        <time>2015-04-26T12:14:52.000Z</time>
      </trkpt>
      <trkpt lat="47.17963" lon="6.13719">
        <ele>531</ele>
        <time>2015-04-26T12:14:54.000Z</time>
      </trkpt>
      <trkpt lat="47.17967" lon="6.13701">
        <ele>526</ele>
        <time>2015-04-26T12:14:56.000Z</time>
      </trkpt>
      <trkpt lat="47.17971" lon="6.13683">
        <ele>528</ele>
        <time>2015-04-26T12:14:58.000Z</time>
      </trkpt>
      <trkpt lat="47.17974" lon="6.13666">
        <ele>527</ele>
        <time>2015-04-26T12:15:00.000Z</time>
      </trkpt>
      <trkpt lat="47.17977" lon="6.13647">
        <ele>525</ele>
        <time>2015-04-26T12:15:02.000Z</time>
      </trkpt>
      <trkpt lat="47.17981" lon="6.13625">
        <ele>525</ele>
        <time>2015-04-26T12:15:04.000Z</time>
      </trkpt>
      <trkpt lat="47.17985" lon="6.13602">
        <ele>523</ele>
        <time>2015-04-26T12:15:06.000Z</time>
      </trkpt>
      <trkpt lat="47.17989" lon="6.13579">
        <ele>521</ele>
        <time>2015-04-26T12:15:08.000Z</time>
      </trkpt>
      <trkpt lat="47.17993" lon="6.13556">
        <ele>515</ele>
        <time>2015-04-26T12:15:10.000Z</time>
      </trkpt>
      <trkpt lat="47.17998" lon="6.13532">
        <ele>517</ele>
        <time>2015-04-26T12:15:12.000Z</time>
      </trkpt>
      <trkpt lat="47.18002" lon="6.1351">
        <ele>519</ele>
        <time>2015-04-26T12:15:14.000Z</time>
      </trkpt>
      <trkpt lat="47.18016" lon="6.13502">
        <ele>515</ele>
        <time>2015-04-26T12:15:17.000Z</time>
      </trkpt>
      <trkpt lat="47.1803" lon="6.13507">
        <ele>514</ele>
        <time>2015-04-26T12:15:19.000Z</time>
      </trkpt>
      <trkpt lat="47.18041" lon="6.13515">
        <ele>512</ele>
        <time>2015-04-26T12:15:21.000Z</time>
      </trkpt>
      <trkpt lat="47.18053" lon="6.1352">
        <ele>513</ele>
        <time>2015-04-26T12:15:23.000Z</time>
      </trkpt>
      <trkpt lat="47.18065" lon="6.13524">
        <ele>513</ele>
        <time>2015-04-26T12:15:25.000Z</time>
      </trkpt>
      <trkpt lat="47.18077" lon="6.13526">
        <ele>512</ele>
        <time>2015-04-26T12:15:27.000Z</time>
      </trkpt>
      <trkpt lat="47.18087" lon="6.13525">
        <ele>513</ele>
        <time>2015-04-26T12:15:29.000Z</time>
      </trkpt>
      <trkpt lat="47.18099" lon="6.13524">
        <ele>515</ele>
        <time>2015-04-26T12:15:31.000Z</time>
      </trkpt>
      <trkpt lat="47.18111" lon="6.13523">
        <ele>514</ele>
        <time>2015-04-26T12:15:33.000Z</time>
      </trkpt>
      <trkpt lat="47.18122" lon="6.13523">
        <ele>513</ele>
        <time>2015-04-26T12:15:35.000Z</time>
      </trkpt>
      <trkpt lat="47.18134" lon="6.13523">
        <ele>514</ele>
        <time>2015-04-26T12:15:37.000Z</time>
      </trkpt>
      <trkpt lat="47.18145" lon="6.13524">
        <ele>515</ele>
        <time>2015-04-26T12:15:39.000Z</time>
      </trkpt>
      <trkpt lat="47.18145" lon="6.13524">
        <ele>515</ele>
        <time>2015-04-26T12:15:41.000Z</time>
      </trkpt>
      <trkpt lat="47.18145" lon="6.13524">
        <ele>515</ele>
        <time>2015-04-26T12:15:43.000Z</time>
      </trkpt>
      <trkpt lat="47.18145" lon="6.13524">
        <ele>515</ele>
        <time>2015-04-26T12:15:45.000Z</time>
      </trkpt>
      <trkpt lat="47.18145" lon="6.13524">
        <ele>515</ele>
        <time>2015-04-26T12:15:47.000Z</time>
      </trkpt>
      <trkpt lat="47.18145" lon="6.13524">
        <ele>515</ele>
        <time>2015-04-26T12:15:49.000Z</time>
      </trkpt>
      <trkpt lat="47.18209" lon="6.13599">
        <ele>509</ele>
        <time>2015-04-26T12:15:53.000Z</time>
      </trkpt>
      <trkpt lat="47.18218" lon="6.13615">
        <ele>508</ele>
        <time>2015-04-26T12:15:55.000Z</time>
      </trkpt>
      <trkpt lat="47.18224" lon="6.13633">
        <ele>507</ele>
        <time>2015-04-26T12:15:57.000Z</time>
      </trkpt>
      <trkpt lat="47.18226" lon="6.1365">
        <ele>505</ele>
        <time>2015-04-26T12:15:59.000Z</time>
      </trkpt>
      <trkpt lat="47.18228" lon="6.13667">
        <ele>509</ele>
        <time>2015-04-26T12:16:01.000Z</time>
      </trkpt>
      <trkpt lat="47.18231" lon="6.13684">
        <ele>507</ele>
        <time>2015-04-26T12:16:03.000Z</time>
      </trkpt>
      <trkpt lat="47.18234" lon="6.13699">
        <ele>505</ele>
        <time>2015-04-26T12:16:05.000Z</time>
      </trkpt>
      <trkpt lat="47.1824" lon="6.13717">
        <ele>504</ele>
        <time>2015-04-26T12:16:07.000Z</time>
      </trkpt>
      <trkpt lat="47.18248" lon="6.13731">
        <ele>506</ele>
        <time>2015-04-26T12:16:09.000Z</time>
      </trkpt>
      <trkpt lat="47.18258" lon="6.13745">
        <ele>506</ele>
        <time>2015-04-26T12:16:11.000Z</time>
      </trkpt>
      <trkpt lat="47.18266" lon="6.13756">
        <ele>508</ele>
        <time>2015-04-26T12:16:13.000Z</time>
      </trkpt>
      <trkpt lat="47.18275" lon="6.13767">
        <ele>510</ele>
        <time>2015-04-26T12:16:15.000Z</time>
      </trkpt>
      <trkpt lat="47.18275" lon="6.13767">
        <ele>510</ele>
        <time>2015-04-26T12:16:17.000Z</time>
      </trkpt>
      <trkpt lat="47.18275" lon="6.13767">
        <ele>510</ele>
        <time>2015-04-26T12:16:19.000Z</time>
      </trkpt>
      <trkpt lat="47.18275" lon="6.13767">
        <ele>510</ele>
        <time>2015-04-26T12:16:21.000Z</time>
      </trkpt>
      <trkpt lat="47.18275" lon="6.13767">
        <ele>510</ele>
        <time>2015-04-26T12:16:23.000Z</time>
      </trkpt>
      <trkpt lat="47.18342" lon="6.13834">
        <ele>514</ele>
        <time>2015-04-26T12:16:33.000Z</time>
      </trkpt>
      <trkpt lat="47.18351" lon="6.13861">
        <ele>512</ele>
        <time>2015-04-26T12:16:37.000Z</time>
      </trkpt>
      <trkpt lat="47.18353" lon="6.13877">
        <ele>509</ele>
        <time>2015-04-26T12:16:39.000Z</time>
      </trkpt>
      <trkpt lat="47.18355" lon="6.13892">
        <ele>509</ele>
        <time>2015-04-26T12:16:41.000Z</time>
      </trkpt>
      <trkpt lat="47.18356" lon="6.1391">
        <ele>509</ele>
        <time>2015-04-26T12:16:43.000Z</time>
      </trkpt>
      <trkpt lat="47.18364" lon="6.13922">
        <ele>511</ele>
        <time>2015-04-26T12:16:45.000Z</time>
      </trkpt>
      <trkpt lat="47.18373" lon="6.13929">
        <ele>511</ele>
        <time>2015-04-26T12:16:47.000Z</time>
      </trkpt>
      <trkpt lat="47.18373" lon="6.13929">
        <ele>511</ele>
        <time>2015-04-26T12:16:49.000Z</time>
      </trkpt>
      <trkpt lat="47.18373" lon="6.13929">
        <ele>511</ele>
        <time>2015-04-26T12:16:51.000Z</time>
      </trkpt>
      <trkpt lat="47.18373" lon="6.13929">
        <ele>511</ele>
        <time>2015-04-26T12:16:53.000Z</time>
      </trkpt>
      <trkpt lat="47.18373" lon="6.13929">
        <ele>511</ele>
        <time>2015-04-26T12:16:55.000Z</time>
      </trkpt>
      <trkpt lat="47.18373" lon="6.13929">
        <ele>511</ele>
        <time>2015-04-26T12:16:57.000Z</time>
      </trkpt>
      <trkpt lat="47.18373" lon="6.13929">
        <ele>511</ele>
        <time>2015-04-26T12:16:59.000Z</time>
      </trkpt>
      <trkpt lat="47.18373" lon="6.13929">
        <ele>511</ele>
        <time>2015-04-26T12:17:01.000Z</time>
      </trkpt>
      <trkpt lat="47.18373" lon="6.13929">
        <ele>511</ele>
        <time>2015-04-26T12:17:03.000Z</time>
      </trkpt>
      <trkpt lat="47.18373" lon="6.13929">
        <ele>511</ele>
        <time>2015-04-26T12:17:05.000Z</time>
      </trkpt>
      <trkpt lat="47.18373" lon="6.13929">
        <ele>511</ele>
        <time>2015-04-26T12:17:09.000Z</time>
      </trkpt>
      <trkpt lat="47.18411" lon="6.13897">
        <ele>523</ele>
        <time>2015-04-26T12:17:11.000Z</time>
      </trkpt>
      <trkpt lat="47.18435" lon="6.13879">
        <ele>524</ele>
        <time>2015-04-26T12:17:13.000Z</time>
      </trkpt>
      <trkpt lat="47.18451" lon="6.13867">
        <ele>521</ele>
        <time>2015-04-26T12:17:15.000Z</time>
      </trkpt>
      <trkpt lat="47.18463" lon="6.1386">
        <ele>523</ele>
        <time>2015-04-26T12:17:17.000Z</time>
      </trkpt>
      <trkpt lat="47.18474" lon="6.13855">
        <ele>526</ele>
        <time>2015-04-26T12:17:19.000Z</time>
      </trkpt>
      <trkpt lat="47.18494" lon="6.13847">
        <ele>528</ele>
        <time>2015-04-26T12:17:21.000Z</time>
      </trkpt>
      <trkpt lat="47.1851" lon="6.13841">
        <ele>531</ele>
        <time>2015-04-26T12:17:25.000Z</time>
      </trkpt>
      <trkpt lat="47.1852" lon="6.13836">
        <ele>533</ele>
        <time>2015-04-26T12:17:27.000Z</time>
      </trkpt>
      <trkpt lat="47.18529" lon="6.13831">
        <ele>537</ele>
        <time>2015-04-26T12:17:29.000Z</time>
      </trkpt>
      <trkpt lat="47.18538" lon="6.13824">
        <ele>538</ele>
        <time>2015-04-26T12:17:31.000Z</time>
      </trkpt>
      <trkpt lat="47.18546" lon="6.13817">
        <ele>536</ele>
        <time>2015-04-26T12:17:33.000Z</time>
      </trkpt>
      <trkpt lat="47.18555" lon="6.1381">
        <ele>536</ele>
        <time>2015-04-26T12:17:35.000Z</time>
      </trkpt>
      <trkpt lat="47.18566" lon="6.13802">
        <ele>529</ele>
        <time>2015-04-26T12:17:37.000Z</time>
      </trkpt>
      <trkpt lat="47.18579" lon="6.13791">
        <ele>529</ele>
        <time>2015-04-26T12:17:39.000Z</time>
      </trkpt>
      <trkpt lat="47.18597" lon="6.13779">
        <ele>524</ele>
        <time>2015-04-26T12:17:41.000Z</time>
      </trkpt>
      <trkpt lat="47.18617" lon="6.13763">
        <ele>527</ele>
        <time>2015-04-26T12:17:43.000Z</time>
      </trkpt>
      <trkpt lat="47.18638" lon="6.13745">
        <ele>525</ele>
        <time>2015-04-26T12:17:46.000Z</time>
      </trkpt>
      <trkpt lat="47.18649" lon="6.13732">
        <ele>518</ele>
        <time>2015-04-26T12:17:48.000Z</time>
      </trkpt>
      <trkpt lat="47.1865" lon="6.13712">
        <ele>518</ele>
        <time>2015-04-26T12:17:50.000Z</time>
      </trkpt>
      <trkpt lat="47.18647" lon="6.13698">
        <ele>517</ele>
        <time>2015-04-26T12:17:52.000Z</time>
      </trkpt>
      <trkpt lat="47.18647" lon="6.13698">
        <ele>517</ele>
        <time>2015-04-26T12:17:54.000Z</time>
      </trkpt>
      <trkpt lat="47.18647" lon="6.13698">
        <ele>517</ele>
        <time>2015-04-26T12:17:56.000Z</time>
      </trkpt>
      <trkpt lat="47.18647" lon="6.13698">
        <ele>517</ele>
        <time>2015-04-26T12:17:58.000Z</time>
      </trkpt>
      <trkpt lat="47.18647" lon="6.13698">
        <ele>517</ele>
        <time>2015-04-26T12:18:00.000Z</time>
      </trkpt>
      <trkpt lat="47.18647" lon="6.13698">
        <ele>517</ele>
        <time>2015-04-26T12:18:02.000Z</time>
      </trkpt>
      <trkpt lat="47.18647" lon="6.13698">
        <ele>517</ele>
        <time>2015-04-26T12:18:04.000Z</time>
      </trkpt>
      <trkpt lat="47.18647" lon="6.13698">
        <ele>517</ele>
        <time>2015-04-26T12:18:06.000Z</time>
      </trkpt>
      <trkpt lat="47.18647" lon="6.13698">
        <ele>517</ele>
        <time>2015-04-26T12:18:14.000Z</time>
      </trkpt>
      <trkpt lat="47.18647" lon="6.13698">
        <ele>517</ele>
        <time>2015-04-26T12:18:16.000Z</time>
      </trkpt>
      <trkpt lat="47.18647" lon="6.13698">
        <ele>517</ele>
        <time>2015-04-26T12:18:18.000Z</time>
      </trkpt>
      <trkpt lat="47.18647" lon="6.13698">
        <ele>517</ele>
        <time>2015-04-26T12:18:20.000Z</time>
      </trkpt>
      <trkpt lat="47.18647" lon="6.13698">
        <ele>517</ele>
        <time>2015-04-26T12:18:22.000Z</time>
      </trkpt>
      <trkpt lat="47.18647" lon="6.13698">
        <ele>517</ele>
        <time>2015-04-26T12:18:24.000Z</time>
      </trkpt>
      <trkpt lat="47.18647" lon="6.13698">
        <ele>517</ele>
        <time>2015-04-26T12:18:26.000Z</time>
      </trkpt>
      <trkpt lat="47.18647" lon="6.13698">
        <ele>517</ele>
        <time>2015-04-26T12:18:28.000Z</time>
      </trkpt>
      <trkpt lat="47.18647" lon="6.13698">
        <ele>517</ele>
        <time>2015-04-26T12:18:30.000Z</time>
      </trkpt>
      <trkpt lat="47.18647" lon="6.13698">
        <ele>517</ele>
        <time>2015-04-26T12:18:32.000Z</time>
      </trkpt>
      <trkpt lat="47.18647" lon="6.13698">
        <ele>517</ele>
        <time>2015-04-26T12:18:36.000Z</time>
      </trkpt>
      <trkpt lat="47.18647" lon="6.13698">
        <ele>517</ele>
        <time>2015-04-26T12:18:38.000Z</time>
      </trkpt>
      <trkpt lat="47.18647" lon="6.13698">
        <ele>517</ele>
        <time>2015-04-26T12:18:40.000Z</time>
      </trkpt>
      <trkpt lat="47.18647" lon="6.13698">
        <ele>517</ele>
        <time>2015-04-26T12:18:42.000Z</time>
      </trkpt>
      <trkpt lat="47.18647" lon="6.13698">
        <ele>517</ele>
        <time>2015-04-26T12:18:44.000Z</time>
      </trkpt>
      <trkpt lat="47.18647" lon="6.13698">
        <ele>517</ele>
        <time>2015-04-26T12:18:46.000Z</time>
      </trkpt>
      <trkpt lat="47.18647" lon="6.13698">
        <ele>517</ele>
        <time>2015-04-26T12:18:48.000Z</time>
      </trkpt>
      <trkpt lat="47.18647" lon="6.13698">
        <ele>517</ele>
        <time>2015-04-26T12:18:50.000Z</time>
      </trkpt>
      <trkpt lat="47.18647" lon="6.13698">
        <ele>517</ele>
        <time>2015-04-26T12:18:52.000Z</time>
      </trkpt>
      <trkpt lat="47.18647" lon="6.13698">
        <ele>517</ele>
        <time>2015-04-26T12:18:54.000Z</time>
      </trkpt>
      <trkpt lat="47.18647" lon="6.13698">
        <ele>517</ele>
        <time>2015-04-26T12:18:56.000Z</time>
      </trkpt>
      <trkpt lat="47.18647" lon="6.13698">
        <ele>517</ele>
        <time>2015-04-26T12:18:58.000Z</time>
      </trkpt>
      <trkpt lat="47.18647" lon="6.13698">
        <ele>517</ele>
        <time>2015-04-26T12:19:00.000Z</time>
      </trkpt>
      <trkpt lat="47.18634" lon="6.13542">
        <ele>541</ele>
        <time>2015-04-26T12:19:04.000Z</time>
      </trkpt>
      <trkpt lat="47.18628" lon="6.13461">
        <ele>541</ele>
        <time>2015-04-26T12:19:06.000Z</time>
      </trkpt>
      <trkpt lat="47.18628" lon="6.13461">
        <ele>541</ele>
        <time>2015-04-26T12:19:08.000Z</time>
      </trkpt>
      <trkpt lat="47.18624" lon="6.13414">
        <ele>541</ele>
        <time>2015-04-26T12:19:10.000Z</time>
      </trkpt>
      <trkpt lat="47.18622" lon="6.13387">
        <ele>542</ele>
        <time>2015-04-26T12:19:12.000Z</time>
      </trkpt>
      <trkpt lat="47.18621" lon="6.13369">
        <ele>538</ele>
        <time>2015-04-26T12:19:14.000Z</time>
      </trkpt>
      <trkpt lat="47.1862" lon="6.13357">
        <ele>538</ele>
        <time>2015-04-26T12:19:16.000Z</time>
      </trkpt>
      <trkpt lat="47.18619" lon="6.13347">
        <ele>538</ele>
        <time>2015-04-26T12:19:18.000Z</time>
      </trkpt>
      <trkpt lat="47.18617" lon="6.13331">
        <ele>538</ele>
        <time>2015-04-26T12:19:20.000Z</time>
      </trkpt>
      <trkpt lat="47.18617" lon="6.13331">
        <ele>538</ele>
        <time>2015-04-26T12:19:22.000Z</time>
      </trkpt>
      <trkpt lat="47.18617" lon="6.13331">
        <ele>538</ele>
        <time>2015-04-26T12:19:24.000Z</time>
      </trkpt>
      <trkpt lat="47.18617" lon="6.13331">
        <ele>538</ele>
        <time>2015-04-26T12:19:26.000Z</time>
      </trkpt>
      <trkpt lat="47.18617" lon="6.13331">
        <ele>538</ele>
        <time>2015-04-26T12:19:28.000Z</time>
      </trkpt>
      <trkpt lat="47.18617" lon="6.13331">
        <ele>538</ele>
        <time>2015-04-26T12:19:32.000Z</time>
      </trkpt>
      <trkpt lat="47.18618" lon="6.13274">
        <ele>549</ele>
        <time>2015-04-26T12:19:37.000Z</time>
      </trkpt>
      <trkpt lat="47.18616" lon="6.1326">
        <ele>547</ele>
        <time>2015-04-26T12:19:41.000Z</time>
      </trkpt>
      <trkpt lat="47.18616" lon="6.1326">
        <ele>547</ele>
        <time>2015-04-26T12:19:43.000Z</time>
      </trkpt>
      <trkpt lat="47.18616" lon="6.1326">
        <ele>547</ele>
        <time>2015-04-26T12:19:45.000Z</time>
      </trkpt>
      <trkpt lat="47.18616" lon="6.1326">
        <ele>547</ele>
        <time>2015-04-26T12:19:47.000Z</time>
      </trkpt>
      <trkpt lat="47.18607" lon="6.13203">
        <ele>548</ele>
        <time>2015-04-26T12:19:57.000Z</time>
      </trkpt>
      <trkpt lat="47.18607" lon="6.13203">
        <ele>548</ele>
        <time>2015-04-26T12:19:59.000Z</time>
      </trkpt>
      <trkpt lat="47.18609" lon="6.13184">
        <ele>543</ele>
        <time>2015-04-26T12:20:02.000Z</time>
      </trkpt>
      <trkpt lat="47.18609" lon="6.13184">
        <ele>543</ele>
        <time>2015-04-26T12:20:04.000Z</time>
      </trkpt>
      <trkpt lat="47.18609" lon="6.13168">
        <ele>534</ele>
        <time>2015-04-26T12:20:06.000Z</time>
      </trkpt>
      <trkpt lat="47.18609" lon="6.13168">
        <ele>534</ele>
        <time>2015-04-26T12:20:08.000Z</time>
      </trkpt>
      <trkpt lat="47.18609" lon="6.13168">
        <ele>534</ele>
        <time>2015-04-26T12:20:12.000Z</time>
      </trkpt>
      <trkpt lat="47.18612" lon="6.13136">
        <ele>533</ele>
        <time>2015-04-26T12:20:15.000Z</time>
      </trkpt>
      <trkpt lat="47.18614" lon="6.13121">
        <ele>539</ele>
        <time>2015-04-26T12:20:20.000Z</time>
      </trkpt>
      <trkpt lat="47.18614" lon="6.13121">
        <ele>539</ele>
        <time>2015-04-26T12:20:24.000Z</time>
      </trkpt>
      <trkpt lat="47.18613" lon="6.13093">
        <ele>551</ele>
        <time>2015-04-26T12:20:30.000Z</time>
      </trkpt>
      <trkpt lat="47.18614" lon="6.13079">
        <ele>549</ele>
        <time>2015-04-26T12:20:37.000Z</time>
      </trkpt>
      <trkpt lat="47.18618" lon="6.13065">
        <ele>549</ele>
        <time>2015-04-26T12:20:45.000Z</time>
      </trkpt>
      <trkpt lat="47.18623" lon="6.13053">
        <ele>548</ele>
        <time>2015-04-26T12:20:52.000Z</time>
      </trkpt>
      <trkpt lat="47.18627" lon="6.1304">
        <ele>552</ele>
        <time>2015-04-26T12:21:01.000Z</time>
      </trkpt>
      <trkpt lat="47.1863" lon="6.13027">
        <ele>565</ele>
        <time>2015-04-26T12:21:09.000Z</time>
      </trkpt>
      <trkpt lat="47.1863" lon="6.13027">
        <ele>565</ele>
        <time>2015-04-26T12:21:14.000Z</time>
      </trkpt>
      <trkpt lat="47.1863" lon="6.13027">
        <ele>565</ele>
        <time>2015-04-26T12:21:16.000Z</time>
      </trkpt>
      <trkpt lat="47.18634" lon="6.12999">
        <ele>562</ele>
        <time>2015-04-26T12:21:21.000Z</time>
      </trkpt>
      <trkpt lat="47.18634" lon="6.12999">
        <ele>562</ele>
        <time>2015-04-26T12:21:26.000Z</time>
      </trkpt>
      <trkpt lat="47.18634" lon="6.12999">
        <ele>562</ele>
        <time>2015-04-26T12:21:28.000Z</time>
      </trkpt>
      <trkpt lat="47.18637" lon="6.12967">
        <ele>559</ele>
        <time>2015-04-26T12:21:34.000Z</time>
      </trkpt>
      <trkpt lat="47.18639" lon="6.12951">
        <ele>570</ele>
        <time>2015-04-26T12:21:42.000Z</time>
      </trkpt>
      <trkpt lat="47.18642" lon="6.12937">
        <ele>572</ele>
        <time>2015-04-26T12:21:48.000Z</time>
      </trkpt>
      <trkpt lat="47.18636" lon="6.12911">
        <ele>571</ele>
        <time>2015-04-26T12:21:57.000Z</time>
      </trkpt>
      <trkpt lat="47.18636" lon="6.12897">
        <ele>575</ele>
        <time>2015-04-26T12:22:00.000Z</time>
      </trkpt>
      <trkpt lat="47.18633" lon="6.12884">
        <ele>562</ele>
        <time>2015-04-26T12:22:04.000Z</time>
      </trkpt>
      <trkpt lat="47.18633" lon="6.12884">
        <ele>562</ele>
        <time>2015-04-26T12:22:08.000Z</time>
      </trkpt>
      <trkpt lat="47.18633" lon="6.12884">
        <ele>562</ele>
        <time>2015-04-26T12:22:10.000Z</time>
      </trkpt>
      <trkpt lat="47.18633" lon="6.12884">
        <ele>562</ele>
        <time>2015-04-26T12:22:12.000Z</time>
      </trkpt>
      <trkpt lat="47.18626" lon="6.1285">
        <ele>561</ele>
        <time>2015-04-26T12:22:15.000Z</time>
      </trkpt>
      <trkpt lat="47.18622" lon="6.12836">
        <ele>548</ele>
        <time>2015-04-26T12:22:19.000Z</time>
      </trkpt>
      <trkpt lat="47.18622" lon="6.12836">
        <ele>548</ele>
        <time>2015-04-26T12:22:23.000Z</time>
      </trkpt>
      <trkpt lat="47.18618" lon="6.1282">
        <ele>553</ele>
        <time>2015-04-26T12:22:28.000Z</time>
      </trkpt>
      <trkpt lat="47.18614" lon="6.12806">
        <ele>552</ele>
        <time>2015-04-26T12:22:32.000Z</time>
      </trkpt>
      <trkpt lat="47.18615" lon="6.12797">
        <ele>555</ele>
        <time>2015-04-26T12:22:45.000Z</time>
      </trkpt>
      <trkpt lat="47.18615" lon="6.12797">
        <ele>555</ele>
        <time>2015-04-26T12:22:47.000Z</time>
      </trkpt>
      <trkpt lat="47.18615" lon="6.12797">
        <ele>555</ele>
        <time>2015-04-26T12:22:49.000Z</time>
      </trkpt>
      <trkpt lat="47.1863" lon="6.12789">
        <ele>553</ele>
        <time>2015-04-26T12:23:07.000Z</time>
      </trkpt>
      <trkpt lat="47.18641" lon="6.12786">
        <ele>555</ele>
        <time>2015-04-26T12:23:09.000Z</time>
      </trkpt>
      <trkpt lat="47.18649" lon="6.12784">
        <ele>552</ele>
        <time>2015-04-26T12:23:11.000Z</time>
      </trkpt>
      <trkpt lat="47.1866" lon="6.12783">
        <ele>549</ele>
        <time>2015-04-26T12:23:13.000Z</time>
      </trkpt>
      <trkpt lat="47.1867" lon="6.12781">
        <ele>549</ele>
        <time>2015-04-26T12:23:15.000Z</time>
      </trkpt>
      <trkpt lat="47.18689" lon="6.12778">
        <ele>545</ele>
        <time>2015-04-26T12:23:17.000Z</time>
      </trkpt>
      <trkpt lat="47.18699" lon="6.12776">
        <ele>546</ele>
        <time>2015-04-26T12:23:19.000Z</time>
      </trkpt>
      <trkpt lat="47.18708" lon="6.12773">
        <ele>543</ele>
        <time>2015-04-26T12:23:21.000Z</time>
      </trkpt>
      <trkpt lat="47.18719" lon="6.12771">
        <ele>543</ele>
        <time>2015-04-26T12:23:23.000Z</time>
      </trkpt>
      <trkpt lat="47.18729" lon="6.1277">
        <ele>540</ele>
        <time>2015-04-26T12:23:25.000Z</time>
      </trkpt>
      <trkpt lat="47.18746" lon="6.12768">
        <ele>542</ele>
        <time>2015-04-26T12:23:29.000Z</time>
      </trkpt>
      <trkpt lat="47.18746" lon="6.12768">
        <ele>542</ele>
        <time>2015-04-26T12:23:31.000Z</time>
      </trkpt>
      <trkpt lat="47.18746" lon="6.12768">
        <ele>542</ele>
        <time>2015-04-26T12:23:33.000Z</time>
      </trkpt>
      <trkpt lat="47.18746" lon="6.12768">
        <ele>542</ele>
        <time>2015-04-26T12:23:35.000Z</time>
      </trkpt>
      <trkpt lat="47.18746" lon="6.12768">
        <ele>542</ele>
        <time>2015-04-26T12:23:37.000Z</time>
      </trkpt>
      <trkpt lat="47.18746" lon="6.12768">
        <ele>542</ele>
        <time>2015-04-26T12:23:39.000Z</time>
      </trkpt>
      <trkpt lat="47.18746" lon="6.12768">
        <ele>542</ele>
        <time>2015-04-26T12:23:41.000Z</time>
      </trkpt>
      <trkpt lat="47.18746" lon="6.12768">
        <ele>542</ele>
        <time>2015-04-26T12:23:43.000Z</time>
      </trkpt>
      <trkpt lat="47.18746" lon="6.12768">
        <ele>542</ele>
        <time>2015-04-26T12:23:45.000Z</time>
      </trkpt>
      <trkpt lat="47.18746" lon="6.12768">
        <ele>542</ele>
        <time>2015-04-26T12:23:48.000Z</time>
      </trkpt>
      <trkpt lat="47.18746" lon="6.12768">
        <ele>542</ele>
        <time>2015-04-26T12:23:51.000Z</time>
      </trkpt>
      <trkpt lat="47.18746" lon="6.12768">
        <ele>542</ele>
        <time>2015-04-26T12:23:53.000Z</time>
      </trkpt>
      <trkpt lat="47.18746" lon="6.12768">
        <ele>542</ele>
        <time>2015-04-26T12:23:55.000Z</time>
      </trkpt>
      <trkpt lat="47.18841" lon="6.12731">
        <ele>524</ele>
        <time>2015-04-26T12:23:59.000Z</time>
      </trkpt>
      <trkpt lat="47.18858" lon="6.12726">
        <ele>520</ele>
        <time>2015-04-26T12:24:03.000Z</time>
      </trkpt>
      <trkpt lat="47.18871" lon="6.12722">
        <ele>520</ele>
        <time>2015-04-26T12:24:05.000Z</time>
      </trkpt>
      <trkpt lat="47.18885" lon="6.12718">
        <ele>518</ele>
        <time>2015-04-26T12:24:07.000Z</time>
      </trkpt>
      <trkpt lat="47.18901" lon="6.12714">
        <ele>524</ele>
        <time>2015-04-26T12:24:09.000Z</time>
      </trkpt>
      <trkpt lat="47.18915" lon="6.12711">
        <ele>522</ele>
        <time>2015-04-26T12:24:11.000Z</time>
      </trkpt>
      <trkpt lat="47.18929" lon="6.12709">
        <ele>529</ele>
        <time>2015-04-26T12:24:13.000Z</time>
      </trkpt>
      <trkpt lat="47.1894" lon="6.12705">
        <ele>534</ele>
        <time>2015-04-26T12:24:15.000Z</time>
      </trkpt>
      <trkpt lat="47.18953" lon="6.12698">
        <ele>538</ele>
        <time>2015-04-26T12:24:17.000Z</time>
      </trkpt>
      <trkpt lat="47.18961" lon="6.12711">
        <ele>513</ele>
        <time>2015-04-26T12:24:21.000Z</time>
      </trkpt>
      <trkpt lat="47.18965" lon="6.1273">
        <ele>500</ele>
        <time>2015-04-26T12:24:25.000Z</time>
      </trkpt>
      <trkpt lat="47.18965" lon="6.1273">
        <ele>500</ele>
        <time>2015-04-26T12:24:27.000Z</time>
      </trkpt>
      <trkpt lat="47.18965" lon="6.1273">
        <ele>500</ele>
        <time>2015-04-26T12:24:29.000Z</time>
      </trkpt>
      <trkpt lat="47.18965" lon="6.1273">
        <ele>500</ele>
        <time>2015-04-26T12:24:31.000Z</time>
      </trkpt>
      <trkpt lat="47.18965" lon="6.1273">
        <ele>500</ele>
        <time>2015-04-26T12:24:33.000Z</time>
      </trkpt>
      <trkpt lat="47.18965" lon="6.1273">
        <ele>500</ele>
        <time>2015-04-26T12:24:35.000Z</time>
      </trkpt>
      <trkpt lat="47.18965" lon="6.1273">
        <ele>500</ele>
        <time>2015-04-26T12:24:37.000Z</time>
      </trkpt>
      <trkpt lat="47.18965" lon="6.1273">
        <ele>500</ele>
        <time>2015-04-26T12:24:39.000Z</time>
      </trkpt>
      <trkpt lat="47.18965" lon="6.1273">
        <ele>500</ele>
        <time>2015-04-26T12:24:41.000Z</time>
      </trkpt>
      <trkpt lat="47.18965" lon="6.1273">
        <ele>500</ele>
        <time>2015-04-26T12:24:43.000Z</time>
      </trkpt>
      <trkpt lat="47.18965" lon="6.1273">
        <ele>500</ele>
        <time>2015-04-26T12:24:45.000Z</time>
      </trkpt>
      <trkpt lat="47.18965" lon="6.1273">
        <ele>500</ele>
        <time>2015-04-26T12:24:47.000Z</time>
      </trkpt>
      <trkpt lat="47.18965" lon="6.1273">
        <ele>500</ele>
        <time>2015-04-26T12:24:49.000Z</time>
      </trkpt>
      <trkpt lat="47.19024" lon="6.12719">
        <ele>508</ele>
        <time>2015-04-26T12:24:53.000Z</time>
      </trkpt>
      <trkpt lat="47.1906" lon="6.12717">
        <ele>504</ele>
        <time>2015-04-26T12:24:55.000Z</time>
      </trkpt>
      <trkpt lat="47.19084" lon="6.1272">
        <ele>500</ele>
        <time>2015-04-26T12:24:58.000Z</time>
      </trkpt>
      <trkpt lat="47.19097" lon="6.12721">
        <ele>500</ele>
        <time>2015-04-26T12:25:00.000Z</time>
      </trkpt>
      <trkpt lat="47.19097" lon="6.12721">
        <ele>500</ele>
        <time>2015-04-26T12:25:02.000Z</time>
      </trkpt>
      <trkpt lat="47.19097" lon="6.12721">
        <ele>500</ele>
        <time>2015-04-26T12:25:04.000Z</time>
      </trkpt>
      <trkpt lat="47.19097" lon="6.12721">
        <ele>500</ele>
        <time>2015-04-26T12:25:06.000Z</time>
      </trkpt>
      <trkpt lat="47.19097" lon="6.12721">
        <ele>500</ele>
        <time>2015-04-26T12:25:08.000Z</time>
      </trkpt>
      <trkpt lat="47.19097" lon="6.12721">
        <ele>500</ele>
        <time>2015-04-26T12:25:10.000Z</time>
      </trkpt>
      <trkpt lat="47.19097" lon="6.12721">
        <ele>500</ele>
        <time>2015-04-26T12:25:12.000Z</time>
      </trkpt>
      <trkpt lat="47.19097" lon="6.12721">
        <ele>500</ele>
        <time>2015-04-26T12:25:14.000Z</time>
      </trkpt>
      <trkpt lat="47.19097" lon="6.12721">
        <ele>500</ele>
        <time>2015-04-26T12:25:16.000Z</time>
      </trkpt>
      <trkpt lat="47.19097" lon="6.12721">
        <ele>500</ele>
        <time>2015-04-26T12:25:18.000Z</time>
      </trkpt>
      <trkpt lat="47.1913" lon="6.12736">
        <ele>509</ele>
        <time>2015-04-26T12:25:24.000Z</time>
      </trkpt>
      <trkpt lat="47.19151" lon="6.12745">
        <ele>513</ele>
        <time>2015-04-26T12:25:26.000Z</time>
      </trkpt>
      <trkpt lat="47.19162" lon="6.1275">
        <ele>511</ele>
        <time>2015-04-26T12:25:28.000Z</time>
      </trkpt>
      <trkpt lat="47.19171" lon="6.12753">
        <ele>507</ele>
        <time>2015-04-26T12:25:30.000Z</time>
      </trkpt>
      <trkpt lat="47.19177" lon="6.12754">
        <ele>508</ele>
        <time>2015-04-26T12:25:32.000Z</time>
      </trkpt>
      <trkpt lat="47.19189" lon="6.12756">
        <ele>508</ele>
        <time>2015-04-26T12:25:34.000Z</time>
      </trkpt>
      <trkpt lat="47.19189" lon="6.12756">
        <ele>508</ele>
        <time>2015-04-26T12:25:36.000Z</time>
      </trkpt>
      <trkpt lat="47.192" lon="6.12762">
        <ele>510</ele>
        <time>2015-04-26T12:25:38.000Z</time>
      </trkpt>
      <trkpt lat="47.192" lon="6.12762">
        <ele>510</ele>
        <time>2015-04-26T12:25:40.000Z</time>
      </trkpt>
      <trkpt lat="47.19213" lon="6.12767">
        <ele>512</ele>
        <time>2015-04-26T12:25:42.000Z</time>
      </trkpt>
      <trkpt lat="47.19213" lon="6.12767">
        <ele>512</ele>
        <time>2015-04-26T12:25:44.000Z</time>
      </trkpt>
      <trkpt lat="47.19213" lon="6.12767">
        <ele>512</ele>
        <time>2015-04-26T12:25:46.000Z</time>
      </trkpt>
      <trkpt lat="47.19213" lon="6.12767">
        <ele>512</ele>
        <time>2015-04-26T12:25:48.000Z</time>
      </trkpt>
      <trkpt lat="47.19213" lon="6.12767">
        <ele>512</ele>
        <time>2015-04-26T12:25:52.000Z</time>
      </trkpt>
      <trkpt lat="47.19213" lon="6.12767">
        <ele>512</ele>
        <time>2015-04-26T12:25:54.000Z</time>
      </trkpt>
      <trkpt lat="47.19213" lon="6.12767">
        <ele>512</ele>
        <time>2015-04-26T12:25:56.000Z</time>
      </trkpt>
      <trkpt lat="47.19257" lon="6.1277">
        <ele>505</ele>
        <time>2015-04-26T12:26:00.000Z</time>
      </trkpt>
      <trkpt lat="47.19273" lon="6.1277">
        <ele>507</ele>
        <time>2015-04-26T12:26:04.000Z</time>
      </trkpt>
      <trkpt lat="47.19287" lon="6.12756">
        <ele>500</ele>
        <time>2015-04-26T12:26:08.000Z</time>
      </trkpt>
      <trkpt lat="47.19293" lon="6.12741">
        <ele>499</ele>
        <time>2015-04-26T12:26:10.000Z</time>
      </trkpt>
      <trkpt lat="47.19297" lon="6.12725">
        <ele>498</ele>
        <time>2015-04-26T12:26:12.000Z</time>
      </trkpt>
      <trkpt lat="47.19308" lon="6.12709">
        <ele>499</ele>
        <time>2015-04-26T12:26:16.000Z</time>
      </trkpt>
      <trkpt lat="47.19324" lon="6.12702">
        <ele>498</ele>
        <time>2015-04-26T12:26:20.000Z</time>
      </trkpt>
      <trkpt lat="47.1934" lon="6.12697">
        <ele>490</ele>
        <time>2015-04-26T12:26:24.000Z</time>
      </trkpt>
      <trkpt lat="47.19358" lon="6.12691">
        <ele>485</ele>
        <time>2015-04-26T12:26:28.000Z</time>
      </trkpt>
      <trkpt lat="47.19366" lon="6.12688">
        <ele>488</ele>
        <time>2015-04-26T12:26:30.000Z</time>
      </trkpt>
      <trkpt lat="47.19375" lon="6.12686">
        <ele>486</ele>
        <time>2015-04-26T12:26:32.000Z</time>
      </trkpt>
      <trkpt lat="47.19385" lon="6.12684">
        <ele>491</ele>
        <time>2015-04-26T12:26:34.000Z</time>
      </trkpt>
      <trkpt lat="47.19399" lon="6.12693">
        <ele>483</ele>
        <time>2015-04-26T12:26:38.000Z</time>
      </trkpt>
      <trkpt lat="47.19399" lon="6.12693">
        <ele>483</ele>
        <time>2015-04-26T12:26:40.000Z</time>
      </trkpt>
      <trkpt lat="47.19399" lon="6.12693">
        <ele>483</ele>
        <time>2015-04-26T12:26:42.000Z</time>
      </trkpt>
      <trkpt lat="47.19399" lon="6.12693">
        <ele>483</ele>
        <time>2015-04-26T12:26:44.000Z</time>
      </trkpt>
      <trkpt lat="47.19399" lon="6.12693">
        <ele>483</ele>
        <time>2015-04-26T12:26:46.000Z</time>
      </trkpt>
      <trkpt lat="47.19399" lon="6.12693">
        <ele>483</ele>
        <time>2015-04-26T12:26:48.000Z</time>
      </trkpt>
      <trkpt lat="47.19399" lon="6.12693">
        <ele>483</ele>
        <time>2015-04-26T12:26:50.000Z</time>
      </trkpt>
      <trkpt lat="47.19399" lon="6.12693">
        <ele>483</ele>
        <time>2015-04-26T12:26:52.000Z</time>
      </trkpt>
      <trkpt lat="47.19399" lon="6.12693">
        <ele>483</ele>
        <time>2015-04-26T12:26:54.000Z</time>
      </trkpt>
      <trkpt lat="47.19399" lon="6.12693">
        <ele>483</ele>
        <time>2015-04-26T12:26:56.000Z</time>
      </trkpt>
      <trkpt lat="47.19399" lon="6.12693">
        <ele>483</ele>
        <time>2015-04-26T12:26:58.000Z</time>
      </trkpt>
      <trkpt lat="47.19399" lon="6.12693">
        <ele>483</ele>
        <time>2015-04-26T12:27:00.000Z</time>
      </trkpt>
      <trkpt lat="47.19399" lon="6.12693">
        <ele>483</ele>
        <time>2015-04-26T12:27:02.000Z</time>
      </trkpt>
      <trkpt lat="47.19399" lon="6.12693">
        <ele>483</ele>
        <time>2015-04-26T12:27:10.000Z</time>
      </trkpt>
      <trkpt lat="47.19399" lon="6.12693">
        <ele>483</ele>
        <time>2015-04-26T12:27:12.000Z</time>
      </trkpt>
      <trkpt lat="47.19399" lon="6.12693">
        <ele>483</ele>
        <time>2015-04-26T12:27:14.000Z</time>
      </trkpt>
      <trkpt lat="47.19399" lon="6.12693">
        <ele>483</ele>
        <time>2015-04-26T12:27:16.000Z</time>
      </trkpt>
      <trkpt lat="47.19399" lon="6.12693">
        <ele>483</ele>
        <time>2015-04-26T12:27:18.000Z</time>
      </trkpt>
      <trkpt lat="47.19399" lon="6.12693">
        <ele>483</ele>
        <time>2015-04-26T12:27:20.000Z</time>
      </trkpt>
      <trkpt lat="47.19399" lon="6.12693">
        <ele>483</ele>
        <time>2015-04-26T12:27:22.000Z</time>
      </trkpt>
      <trkpt lat="47.19399" lon="6.12693">
        <ele>483</ele>
        <time>2015-04-26T12:27:24.000Z</time>
      </trkpt>
      <trkpt lat="47.19399" lon="6.12693">
        <ele>483</ele>
        <time>2015-04-26T12:27:26.000Z</time>
      </trkpt>
      <trkpt lat="47.19399" lon="6.12693">
        <ele>483</ele>
        <time>2015-04-26T12:27:28.000Z</time>
      </trkpt>
      <trkpt lat="47.19399" lon="6.12693">
        <ele>483</ele>
        <time>2015-04-26T12:27:30.000Z</time>
      </trkpt>
      <trkpt lat="47.19399" lon="6.12693">
        <ele>483</ele>
        <time>2015-04-26T12:27:32.000Z</time>
      </trkpt>
      <trkpt lat="47.19475" lon="6.12717">
        <ele>484</ele>
        <time>2015-04-26T12:27:36.000Z</time>
      </trkpt>
      <trkpt lat="47.19516" lon="6.12729">
        <ele>491</ele>
        <time>2015-04-26T12:27:38.000Z</time>
      </trkpt>
      <trkpt lat="47.19538" lon="6.12735">
        <ele>490</ele>
        <time>2015-04-26T12:27:40.000Z</time>
      </trkpt>
      <trkpt lat="47.19553" lon="6.12738">
        <ele>484</ele>
        <time>2015-04-26T12:27:42.000Z</time>
      </trkpt>
      <trkpt lat="47.19562" lon="6.12738">
        <ele>486</ele>
        <time>2015-04-26T12:27:44.000Z</time>
      </trkpt>
      <trkpt lat="47.19577" lon="6.12736">
        <ele>490</ele>
        <time>2015-04-26T12:27:46.000Z</time>
      </trkpt>
      <trkpt lat="47.19588" lon="6.12739">
        <ele>493</ele>
        <time>2015-04-26T12:27:50.000Z</time>
      </trkpt>
      <trkpt lat="47.19604" lon="6.12741">
        <ele>485</ele>
        <time>2015-04-26T12:27:54.000Z</time>
      </trkpt>
      <trkpt lat="47.19615" lon="6.12738">
        <ele>489</ele>
        <time>2015-04-26T12:27:56.000Z</time>
      </trkpt>
      <trkpt lat="47.19632" lon="6.12737">
        <ele>493</ele>
        <time>2015-04-26T12:28:00.000Z</time>
      </trkpt>
      <trkpt lat="47.19648" lon="6.12735">
        <ele>494</ele>
        <time>2015-04-26T12:28:04.000Z</time>
      </trkpt>
      <trkpt lat="47.19661" lon="6.12739">
        <ele>495</ele>
        <time>2015-04-26T12:28:08.000Z</time>
      </trkpt>
      <trkpt lat="47.19661" lon="6.12739">
        <ele>495</ele>
        <time>2015-04-26T12:28:10.000Z</time>
      </trkpt>
      <trkpt lat="47.19661" lon="6.12739">
        <ele>495</ele>
        <time>2015-04-26T12:28:12.000Z</time>
      </trkpt>
      <trkpt lat="47.19661" lon="6.12739">
        <ele>495</ele>
        <time>2015-04-26T12:28:14.000Z</time>
      </trkpt>
      <trkpt lat="47.19661" lon="6.12739">
        <ele>495</ele>
        <time>2015-04-26T12:28:16.000Z</time>
      </trkpt>
      <trkpt lat="47.19661" lon="6.12739">
        <ele>495</ele>
        <time>2015-04-26T12:28:18.000Z</time>
      </trkpt>
      <trkpt lat="47.19661" lon="6.12739">
        <ele>495</ele>
        <time>2015-04-26T12:28:20.000Z</time>
      </trkpt>
      <trkpt lat="47.19661" lon="6.12739">
        <ele>495</ele>
        <time>2015-04-26T12:28:22.000Z</time>
      </trkpt>
      <trkpt lat="47.19661" lon="6.12739">
        <ele>495</ele>
        <time>2015-04-26T12:28:24.000Z</time>
      </trkpt>
      <trkpt lat="47.19661" lon="6.12739">
        <ele>495</ele>
        <time>2015-04-26T12:28:26.000Z</time>
      </trkpt>
      <trkpt lat="47.19661" lon="6.12739">
        <ele>495</ele>
        <time>2015-04-26T12:28:28.000Z</time>
      </trkpt>
      <trkpt lat="47.19661" lon="6.12739">
        <ele>495</ele>
        <time>2015-04-26T12:28:30.000Z</time>
      </trkpt>
      <trkpt lat="47.19661" lon="6.12739">
        <ele>495</ele>
        <time>2015-04-26T12:28:32.000Z</time>
      </trkpt>
      <trkpt lat="47.19661" lon="6.12739">
        <ele>495</ele>
        <time>2015-04-26T12:28:34.000Z</time>
      </trkpt>
      <trkpt lat="47.19661" lon="6.12739">
        <ele>495</ele>
        <time>2015-04-26T12:28:36.000Z</time>
      </trkpt>
      <trkpt lat="47.19661" lon="6.12739">
        <ele>495</ele>
        <time>2015-04-26T12:28:38.000Z</time>
      </trkpt>
      <trkpt lat="47.19661" lon="6.12739">
        <ele>495</ele>
        <time>2015-04-26T12:28:44.000Z</time>
      </trkpt>
      <trkpt lat="47.19661" lon="6.12739">
        <ele>495</ele>
        <time>2015-04-26T12:28:46.000Z</time>
      </trkpt>
      <trkpt lat="47.19661" lon="6.12739">
        <ele>495</ele>
        <time>2015-04-26T12:28:48.000Z</time>
      </trkpt>
      <trkpt lat="47.19661" lon="6.12739">
        <ele>495</ele>
        <time>2015-04-26T12:28:50.000Z</time>
      </trkpt>
      <trkpt lat="47.19661" lon="6.12739">
        <ele>495</ele>
        <time>2015-04-26T12:28:52.000Z</time>
      </trkpt>
      <trkpt lat="47.19661" lon="6.12739">
        <ele>495</ele>
        <time>2015-04-26T12:28:54.000Z</time>
      </trkpt>
      <trkpt lat="47.19661" lon="6.12739">
        <ele>495</ele>
        <time>2015-04-26T12:28:56.000Z</time>
      </trkpt>
      <trkpt lat="47.19722" lon="6.12745">
        <ele>504</ele>
        <time>2015-04-26T12:29:02.000Z</time>
      </trkpt>
      <trkpt lat="47.19756" lon="6.12747">
        <ele>500</ele>
        <time>2015-04-26T12:29:04.000Z</time>
      </trkpt>
      <trkpt lat="47.19775" lon="6.12749">
        <ele>500</ele>
        <time>2015-04-26T12:29:06.000Z</time>
      </trkpt>
      <trkpt lat="47.19787" lon="6.12751">
        <ele>498</ele>
        <time>2015-04-26T12:29:08.000Z</time>
      </trkpt>
      <trkpt lat="47.19796" lon="6.12752">
        <ele>500</ele>
        <time>2015-04-26T12:29:10.000Z</time>
      </trkpt>
      <trkpt lat="47.19811" lon="6.12753">
        <ele>496</ele>
        <time>2015-04-26T12:29:12.000Z</time>
      </trkpt>
      <trkpt lat="47.19823" lon="6.12751">
        <ele>496</ele>
        <time>2015-04-26T12:29:16.000Z</time>
      </trkpt>
      <trkpt lat="47.19833" lon="6.1275">
        <ele>491</ele>
        <time>2015-04-26T12:29:20.000Z</time>
      </trkpt>
      <trkpt lat="47.19844" lon="6.12751">
        <ele>492</ele>
        <time>2015-04-26T12:29:24.000Z</time>
      </trkpt>
      <trkpt lat="47.19856" lon="6.12754">
        <ele>495</ele>
        <time>2015-04-26T12:29:28.000Z</time>
      </trkpt>
      <trkpt lat="47.19856" lon="6.12754">
        <ele>495</ele>
        <time>2015-04-26T12:29:32.000Z</time>
      </trkpt>
      <trkpt lat="47.19869" lon="6.1276">
        <ele>496</ele>
        <time>2015-04-26T12:29:34.000Z</time>
      </trkpt>
      <trkpt lat="47.19883" lon="6.1276">
        <ele>498</ele>
        <time>2015-04-26T12:29:38.000Z</time>
      </trkpt>
      <trkpt lat="47.19892" lon="6.12762">
        <ele>497</ele>
        <time>2015-04-26T12:29:42.000Z</time>
      </trkpt>
      <trkpt lat="47.19892" lon="6.12762">
        <ele>497</ele>
        <time>2015-04-26T12:29:44.000Z</time>
      </trkpt>
      <trkpt lat="47.19892" lon="6.12762">
        <ele>497</ele>
        <time>2015-04-26T12:29:46.000Z</time>
      </trkpt>
      <trkpt lat="47.19892" lon="6.12762">
        <ele>497</ele>
        <time>2015-04-26T12:29:48.000Z</time>
      </trkpt>
      <trkpt lat="47.19892" lon="6.12762">
        <ele>497</ele>
        <time>2015-04-26T12:29:50.000Z</time>
      </trkpt>
      <trkpt lat="47.19892" lon="6.12762">
        <ele>497</ele>
        <time>2015-04-26T12:29:52.000Z</time>
      </trkpt>
      <trkpt lat="47.19892" lon="6.12762">
        <ele>497</ele>
        <time>2015-04-26T12:29:54.000Z</time>
      </trkpt>
      <trkpt lat="47.19892" lon="6.12762">
        <ele>497</ele>
        <time>2015-04-26T12:29:56.000Z</time>
      </trkpt>
      <trkpt lat="47.19892" lon="6.12762">
        <ele>497</ele>
        <time>2015-04-26T12:29:58.000Z</time>
      </trkpt>
      <trkpt lat="47.19892" lon="6.12762">
        <ele>497</ele>
        <time>2015-04-26T12:30:00.000Z</time>
      </trkpt>
      <trkpt lat="47.19892" lon="6.12762">
        <ele>497</ele>
        <time>2015-04-26T12:30:02.000Z</time>
      </trkpt>
      <trkpt lat="47.19892" lon="6.12762">
        <ele>497</ele>
        <time>2015-04-26T12:30:04.000Z</time>
      </trkpt>
      <trkpt lat="47.19892" lon="6.12762">
        <ele>497</ele>
        <time>2015-04-26T12:30:06.000Z</time>
      </trkpt>
      <trkpt lat="47.19892" lon="6.12762">
        <ele>497</ele>
        <time>2015-04-26T12:30:08.000Z</time>
      </trkpt>
      <trkpt lat="47.19892" lon="6.12762">
        <ele>497</ele>
        <time>2015-04-26T12:30:10.000Z</time>
      </trkpt>
      <trkpt lat="47.19892" lon="6.12762">
        <ele>497</ele>
        <time>2015-04-26T12:30:12.000Z</time>
      </trkpt>
      <trkpt lat="47.19892" lon="6.12762">
        <ele>497</ele>
        <time>2015-04-26T12:30:14.000Z</time>
      </trkpt>
      <trkpt lat="47.19973" lon="6.12779">
        <ele>493</ele>
        <time>2015-04-26T12:30:18.000Z</time>
      </trkpt>
      <trkpt lat="47.19987" lon="6.12784">
        <ele>505</ele>
        <time>2015-04-26T12:30:24.000Z</time>
      </trkpt>
      <trkpt lat="47.19997" lon="6.12792">
        <ele>504</ele>
        <time>2015-04-26T12:30:28.000Z</time>
      </trkpt>
      <trkpt lat="47.19997" lon="6.12792">
        <ele>504</ele>
        <time>2015-04-26T12:30:34.000Z</time>
      </trkpt>
      <trkpt lat="47.19997" lon="6.12792">
        <ele>504</ele>
        <time>2015-04-26T12:30:36.000Z</time>
      </trkpt>
      <trkpt lat="47.19997" lon="6.12792">
        <ele>504</ele>
        <time>2015-04-26T12:30:38.000Z</time>
      </trkpt>
      <trkpt lat="47.19997" lon="6.12792">
        <ele>504</ele>
        <time>2015-04-26T12:30:40.000Z</time>
      </trkpt>
      <trkpt lat="47.19997" lon="6.12792">
        <ele>504</ele>
        <time>2015-04-26T12:30:42.000Z</time>
      </trkpt>
      <trkpt lat="47.19997" lon="6.12792">
        <ele>504</ele>
        <time>2015-04-26T12:30:44.000Z</time>
      </trkpt>
      <trkpt lat="47.19997" lon="6.12792">
        <ele>504</ele>
        <time>2015-04-26T12:30:46.000Z</time>
      </trkpt>
      <trkpt lat="47.19997" lon="6.12792">
        <ele>504</ele>
        <time>2015-04-26T12:30:48.000Z</time>
      </trkpt>
      <trkpt lat="47.19997" lon="6.12792">
        <ele>504</ele>
        <time>2015-04-26T12:30:50.000Z</time>
      </trkpt>
      <trkpt lat="47.20024" lon="6.128">
        <ele>494</ele>
        <time>2015-04-26T12:31:04.000Z</time>
      </trkpt>
      <trkpt lat="47.20039" lon="6.12804">
        <ele>499</ele>
        <time>2015-04-26T12:31:06.000Z</time>
      </trkpt>
      <trkpt lat="47.20039" lon="6.12804">
        <ele>499</ele>
        <time>2015-04-26T12:31:08.000Z</time>
      </trkpt>
      <trkpt lat="47.2005" lon="6.12808">
        <ele>498</ele>
        <time>2015-04-26T12:31:10.000Z</time>
      </trkpt>
      <trkpt lat="47.20058" lon="6.12812">
        <ele>501</ele>
        <time>2015-04-26T12:31:12.000Z</time>
      </trkpt>
      <trkpt lat="47.20064" lon="6.12814">
        <ele>503</ele>
        <time>2015-04-26T12:31:14.000Z</time>
      </trkpt>
      <trkpt lat="47.2007" lon="6.12818">
        <ele>503</ele>
        <time>2015-04-26T12:31:16.000Z</time>
      </trkpt>
      <trkpt lat="47.20075" lon="6.12821">
        <ele>504</ele>
        <time>2015-04-26T12:31:18.000Z</time>
      </trkpt>
      <trkpt lat="47.20086" lon="6.12828">
        <ele>506</ele>
        <time>2015-04-26T12:31:20.000Z</time>
      </trkpt>
      <trkpt lat="47.20086" lon="6.12828">
        <ele>506</ele>
        <time>2015-04-26T12:31:22.000Z</time>
      </trkpt>
      <trkpt lat="47.20098" lon="6.12832">
        <ele>502</ele>
        <time>2015-04-26T12:31:24.000Z</time>
      </trkpt>
      <trkpt lat="47.20107" lon="6.12834">
        <ele>508</ele>
        <time>2015-04-26T12:31:28.000Z</time>
      </trkpt>
      <trkpt lat="47.20119" lon="6.12837">
        <ele>503</ele>
        <time>2015-04-26T12:31:32.000Z</time>
      </trkpt>
      <trkpt lat="47.20119" lon="6.12837">
        <ele>503</ele>
        <time>2015-04-26T12:31:34.000Z</time>
      </trkpt>
      <trkpt lat="47.2013" lon="6.1284">
        <ele>502</ele>
        <time>2015-04-26T12:31:36.000Z</time>
      </trkpt>
      <trkpt lat="47.2013" lon="6.1284">
        <ele>502</ele>
        <time>2015-04-26T12:31:38.000Z</time>
      </trkpt>
      <trkpt lat="47.2013" lon="6.1284">
        <ele>502</ele>
        <time>2015-04-26T12:31:40.000Z</time>
      </trkpt>
      <trkpt lat="47.2013" lon="6.1284">
        <ele>502</ele>
        <time>2015-04-26T12:31:42.000Z</time>
      </trkpt>
      <trkpt lat="47.2013" lon="6.1284">
        <ele>502</ele>
        <time>2015-04-26T12:31:44.000Z</time>
      </trkpt>
      <trkpt lat="47.20153" lon="6.12851">
        <ele>499</ele>
        <time>2015-04-26T12:31:52.000Z</time>
      </trkpt>
      <trkpt lat="47.20163" lon="6.12853">
        <ele>504</ele>
        <time>2015-04-26T12:31:58.000Z</time>
      </trkpt>
      <trkpt lat="47.20174" lon="6.12858">
        <ele>498</ele>
        <time>2015-04-26T12:32:04.000Z</time>
      </trkpt>
      <trkpt lat="47.20174" lon="6.12858">
        <ele>498</ele>
        <time>2015-04-26T12:32:10.000Z</time>
      </trkpt>
      <trkpt lat="47.20174" lon="6.12858">
        <ele>498</ele>
        <time>2015-04-26T12:32:12.000Z</time>
      </trkpt>
      <trkpt lat="47.20202" lon="6.12872">
        <ele>497</ele>
        <time>2015-04-26T12:32:16.000Z</time>
      </trkpt>
      <trkpt lat="47.20214" lon="6.1288">
        <ele>495</ele>
        <time>2015-04-26T12:32:20.000Z</time>
      </trkpt>
      <trkpt lat="47.20224" lon="6.12888">
        <ele>484</ele>
        <time>2015-04-26T12:32:24.000Z</time>
      </trkpt>
      <trkpt lat="47.20237" lon="6.12901">
        <ele>484</ele>
        <time>2015-04-26T12:32:28.000Z</time>
      </trkpt>
      <trkpt lat="47.20247" lon="6.12912">
        <ele>484</ele>
        <time>2015-04-26T12:32:32.000Z</time>
      </trkpt>
      <trkpt lat="47.20247" lon="6.12912">
        <ele>484</ele>
        <time>2015-04-26T12:32:34.000Z</time>
      </trkpt>
      <trkpt lat="47.20255" lon="6.12921">
        <ele>481</ele>
        <time>2015-04-26T12:32:36.000Z</time>
      </trkpt>
      <trkpt lat="47.20255" lon="6.12921">
        <ele>481</ele>
        <time>2015-04-26T12:32:38.000Z</time>
      </trkpt>
      <trkpt lat="47.20255" lon="6.12921">
        <ele>481</ele>
        <time>2015-04-26T12:32:40.000Z</time>
      </trkpt>
      <trkpt lat="47.20255" lon="6.12921">
        <ele>481</ele>
        <time>2015-04-26T12:32:42.000Z</time>
      </trkpt>
      <trkpt lat="47.20255" lon="6.12921">
        <ele>481</ele>
        <time>2015-04-26T12:32:44.000Z</time>
      </trkpt>
      <trkpt lat="47.20255" lon="6.12921">
        <ele>481</ele>
        <time>2015-04-26T12:32:46.000Z</time>
      </trkpt>
      <trkpt lat="47.20255" lon="6.12921">
        <ele>481</ele>
        <time>2015-04-26T12:32:48.000Z</time>
      </trkpt>
      <trkpt lat="47.20255" lon="6.12921">
        <ele>481</ele>
        <time>2015-04-26T12:32:50.000Z</time>
      </trkpt>
      <trkpt lat="47.20255" lon="6.12921">
        <ele>481</ele>
        <time>2015-04-26T12:32:52.000Z</time>
      </trkpt>
      <trkpt lat="47.20255" lon="6.12921">
        <ele>481</ele>
        <time>2015-04-26T12:32:54.000Z</time>
      </trkpt>
      <trkpt lat="47.20255" lon="6.12921">
        <ele>481</ele>
        <time>2015-04-26T12:32:56.000Z</time>
      </trkpt>
      <trkpt lat="47.20276" lon="6.12943">
        <ele>481</ele>
        <time>2015-04-26T12:33:02.000Z</time>
      </trkpt>
      <trkpt lat="47.20288" lon="6.12956">
        <ele>482</ele>
        <time>2015-04-26T12:33:04.000Z</time>
      </trkpt>
      <trkpt lat="47.20296" lon="6.12963">
        <ele>482</ele>
        <time>2015-04-26T12:33:06.000Z</time>
      </trkpt>
      <trkpt lat="47.20301" lon="6.12969">
        <ele>487</ele>
        <time>2015-04-26T12:33:08.000Z</time>
      </trkpt>
      <trkpt lat="47.20301" lon="6.12969">
        <ele>487</ele>
        <time>2015-04-26T12:33:10.000Z</time>
      </trkpt>
      <trkpt lat="47.20301" lon="6.12969">
        <ele>487</ele>
        <time>2015-04-26T12:33:12.000Z</time>
      </trkpt>
      <trkpt lat="47.20306" lon="6.12977">
        <ele>487</ele>
        <time>2015-04-26T12:33:14.000Z</time>
      </trkpt>
      <trkpt lat="47.20309" lon="6.12983">
        <ele>487</ele>
        <time>2015-04-26T12:33:16.000Z</time>
      </trkpt>
      <trkpt lat="47.20312" lon="6.1299">
        <ele>484</ele>
        <time>2015-04-26T12:33:18.000Z</time>
      </trkpt>
      <trkpt lat="47.20312" lon="6.1299">
        <ele>484</ele>
        <time>2015-04-26T12:33:20.000Z</time>
      </trkpt>
      <trkpt lat="47.20312" lon="6.1299">
        <ele>484</ele>
        <time>2015-04-26T12:33:22.000Z</time>
      </trkpt>
      <trkpt lat="47.20312" lon="6.1299">
        <ele>484</ele>
        <time>2015-04-26T12:33:24.000Z</time>
      </trkpt>
      <trkpt lat="47.20312" lon="6.1299">
        <ele>484</ele>
        <time>2015-04-26T12:33:26.000Z</time>
      </trkpt>
      <trkpt lat="47.20334" lon="6.13018">
        <ele>478</ele>
        <time>2015-04-26T12:33:54.000Z</time>
      </trkpt>
      <trkpt lat="47.20346" lon="6.13032">
        <ele>478</ele>
        <time>2015-04-26T12:33:56.000Z</time>
      </trkpt>
      <trkpt lat="47.20346" lon="6.13032">
        <ele>478</ele>
        <time>2015-04-26T12:33:58.000Z</time>
      </trkpt>
      <trkpt lat="47.20355" lon="6.13069">
        <ele>488</ele>
        <time>2015-04-26T12:34:40.000Z</time>
      </trkpt>
      <trkpt lat="47.20359" lon="6.13091">
        <ele>491</ele>
        <time>2015-04-26T12:34:42.000Z</time>
      </trkpt>
      <trkpt lat="47.20359" lon="6.13106">
        <ele>491</ele>
        <time>2015-04-26T12:34:44.000Z</time>
      </trkpt>
      <trkpt lat="47.20358" lon="6.13119">
        <ele>491</ele>
        <time>2015-04-26T12:34:46.000Z</time>
      </trkpt>
      <trkpt lat="47.20356" lon="6.13129">
        <ele>489</ele>
        <time>2015-04-26T12:34:48.000Z</time>
      </trkpt>
      <trkpt lat="47.2035" lon="6.13147">
        <ele>490</ele>
        <time>2015-04-26T12:34:50.000Z</time>
      </trkpt>
      <trkpt lat="47.20345" lon="6.13164">
        <ele>488</ele>
        <time>2015-04-26T12:34:54.000Z</time>
      </trkpt>
      <trkpt lat="47.20341" lon="6.13182">
        <ele>486</ele>
        <time>2015-04-26T12:34:58.000Z</time>
      </trkpt>
      <trkpt lat="47.20337" lon="6.13197">
        <ele>484</ele>
        <time>2015-04-26T12:35:02.000Z</time>
      </trkpt>
      <trkpt lat="47.20332" lon="6.1321">
        <ele>482</ele>
        <time>2015-04-26T12:35:06.000Z</time>
      </trkpt>
      <trkpt lat="47.20326" lon="6.13223">
        <ele>487</ele>
        <time>2015-04-26T12:35:10.000Z</time>
      </trkpt>
      <trkpt lat="47.20326" lon="6.13223">
        <ele>487</ele>
        <time>2015-04-26T12:35:12.000Z</time>
      </trkpt>
      <trkpt lat="47.20326" lon="6.13223">
        <ele>487</ele>
        <time>2015-04-26T12:35:14.000Z</time>
      </trkpt>
      <trkpt lat="47.20326" lon="6.13223">
        <ele>487</ele>
        <time>2015-04-26T12:35:16.000Z</time>
      </trkpt>
      <trkpt lat="47.20314" lon="6.13271">
        <ele>484</ele>
        <time>2015-04-26T12:35:20.000Z</time>
      </trkpt>
      <trkpt lat="47.20309" lon="6.13287">
        <ele>488</ele>
        <time>2015-04-26T12:35:24.000Z</time>
      </trkpt>
      <trkpt lat="47.20305" lon="6.13308">
        <ele>486</ele>
        <time>2015-04-26T12:35:28.000Z</time>
      </trkpt>
      <trkpt lat="47.20301" lon="6.1333">
        <ele>485</ele>
        <time>2015-04-26T12:35:32.000Z</time>
      </trkpt>
      <trkpt lat="47.20298" lon="6.13352">
        <ele>482</ele>
        <time>2015-04-26T12:35:36.000Z</time>
      </trkpt>
      <trkpt lat="47.20295" lon="6.13367">
        <ele>482</ele>
        <time>2015-04-26T12:35:39.000Z</time>
      </trkpt>
      <trkpt lat="47.20291" lon="6.13387">
        <ele>483</ele>
        <time>2015-04-26T12:35:43.000Z</time>
      </trkpt>
      <trkpt lat="47.20287" lon="6.1341">
        <ele>487</ele>
        <time>2015-04-26T12:35:47.000Z</time>
      </trkpt>
      <trkpt lat="47.20282" lon="6.13436">
        <ele>482</ele>
        <time>2015-04-26T12:35:51.000Z</time>
      </trkpt>
      <trkpt lat="47.20277" lon="6.13461">
        <ele>483</ele>
        <time>2015-04-26T12:35:55.000Z</time>
      </trkpt>
      <trkpt lat="47.20274" lon="6.13474">
        <ele>479</ele>
        <time>2015-04-26T12:35:57.000Z</time>
      </trkpt>
      <trkpt lat="47.20272" lon="6.13487">
        <ele>481</ele>
        <time>2015-04-26T12:35:59.000Z</time>
      </trkpt>
      <trkpt lat="47.20269" lon="6.135">
        <ele>479</ele>
        <time>2015-04-26T12:36:01.000Z</time>
      </trkpt>
      <trkpt lat="47.20266" lon="6.13515">
        <ele>479</ele>
        <time>2015-04-26T12:36:03.000Z</time>
      </trkpt>
      <trkpt lat="47.20263" lon="6.13532">
        <ele>479</ele>
        <time>2015-04-26T12:36:05.000Z</time>
      </trkpt>
      <trkpt lat="47.20259" lon="6.13549">
        <ele>475</ele>
        <time>2015-04-26T12:36:07.000Z</time>
      </trkpt>
      <trkpt lat="47.20253" lon="6.13566">
        <ele>478</ele>
        <time>2015-04-26T12:36:09.000Z</time>
      </trkpt>
      <trkpt lat="47.20247" lon="6.13581">
        <ele>476</ele>
        <time>2015-04-26T12:36:11.000Z</time>
      </trkpt>
      <trkpt lat="47.20247" lon="6.13598">
        <ele>474</ele>
        <time>2015-04-26T12:36:13.000Z</time>
      </trkpt>
      <trkpt lat="47.20259" lon="6.13618">
        <ele>469</ele>
        <time>2015-04-26T12:36:17.000Z</time>
      </trkpt>
      <trkpt lat="47.20259" lon="6.13618">
        <ele>469</ele>
        <time>2015-04-26T12:36:20.000Z</time>
      </trkpt>
      <trkpt lat="47.20259" lon="6.13618">
        <ele>469</ele>
        <time>2015-04-26T12:36:22.000Z</time>
      </trkpt>
      <trkpt lat="47.20259" lon="6.13618">
        <ele>469</ele>
        <time>2015-04-26T12:36:24.000Z</time>
      </trkpt>
      <trkpt lat="47.20259" lon="6.13618">
        <ele>469</ele>
        <time>2015-04-26T12:36:26.000Z</time>
      </trkpt>
      <trkpt lat="47.20259" lon="6.13618">
        <ele>469</ele>
        <time>2015-04-26T12:36:28.000Z</time>
      </trkpt>
      <trkpt lat="47.20259" lon="6.13618">
        <ele>469</ele>
        <time>2015-04-26T12:36:30.000Z</time>
      </trkpt>
      <trkpt lat="47.20259" lon="6.13618">
        <ele>469</ele>
        <time>2015-04-26T12:36:32.000Z</time>
      </trkpt>
      <trkpt lat="47.20259" lon="6.13618">
        <ele>469</ele>
        <time>2015-04-26T12:36:34.000Z</time>
      </trkpt>
      <trkpt lat="47.20259" lon="6.13618">
        <ele>469</ele>
        <time>2015-04-26T12:36:36.000Z</time>
      </trkpt>
      <trkpt lat="47.20259" lon="6.13618">
        <ele>469</ele>
        <time>2015-04-26T12:36:38.000Z</time>
      </trkpt>
      <trkpt lat="47.20259" lon="6.13618">
        <ele>469</ele>
        <time>2015-04-26T12:36:40.000Z</time>
      </trkpt>
      <trkpt lat="47.20259" lon="6.13618">
        <ele>469</ele>
        <time>2015-04-26T12:36:42.000Z</time>
      </trkpt>
      <trkpt lat="47.20259" lon="6.13618">
        <ele>469</ele>
        <time>2015-04-26T12:36:44.000Z</time>
      </trkpt>
      <trkpt lat="47.20259" lon="6.13618">
        <ele>469</ele>
        <time>2015-04-26T12:36:46.000Z</time>
      </trkpt>
      <trkpt lat="47.20259" lon="6.13618">
        <ele>469</ele>
        <time>2015-04-26T12:36:48.000Z</time>
      </trkpt>
      <trkpt lat="47.20259" lon="6.13618">
        <ele>469</ele>
        <time>2015-04-26T12:36:50.000Z</time>
      </trkpt>
      <trkpt lat="47.20259" lon="6.13618">
        <ele>469</ele>
        <time>2015-04-26T12:36:52.000Z</time>
      </trkpt>
      <trkpt lat="47.20259" lon="6.13618">
        <ele>469</ele>
        <time>2015-04-26T12:36:54.000Z</time>
      </trkpt>
      <trkpt lat="47.20259" lon="6.13618">
        <ele>469</ele>
        <time>2015-04-26T12:36:56.000Z</time>
      </trkpt>
      <trkpt lat="47.20259" lon="6.13618">
        <ele>469</ele>
        <time>2015-04-26T12:36:58.000Z</time>
      </trkpt>
      <trkpt lat="47.20259" lon="6.13618">
        <ele>469</ele>
        <time>2015-04-26T12:37:00.000Z</time>
      </trkpt>
      <trkpt lat="47.20292" lon="6.13556">
        <ele>502</ele>
        <time>2015-04-26T12:37:04.000Z</time>
      </trkpt>
      <trkpt lat="47.20309" lon="6.13519">
        <ele>500</ele>
        <time>2015-04-26T12:37:06.000Z</time>
      </trkpt>
      <trkpt lat="47.20319" lon="6.13495">
        <ele>499</ele>
        <time>2015-04-26T12:37:08.000Z</time>
      </trkpt>
      <trkpt lat="47.20323" lon="6.13474">
        <ele>502</ele>
        <time>2015-04-26T12:37:10.000Z</time>
      </trkpt>
      <trkpt lat="47.20325" lon="6.13458">
        <ele>502</ele>
        <time>2015-04-26T12:37:12.000Z</time>
      </trkpt>
      <trkpt lat="47.20328" lon="6.13432">
        <ele>502</ele>
        <time>2015-04-26T12:37:14.000Z</time>
      </trkpt>
      <trkpt lat="47.20332" lon="6.13407">
        <ele>497</ele>
        <time>2015-04-26T12:37:18.000Z</time>
      </trkpt>
      <trkpt lat="47.20338" lon="6.13384">
        <ele>502</ele>
        <time>2015-04-26T12:37:22.000Z</time>
      </trkpt>
      <trkpt lat="47.20338" lon="6.13384">
        <ele>502</ele>
        <time>2015-04-26T12:37:24.000Z</time>
      </trkpt>
      <trkpt lat="47.20344" lon="6.13362">
        <ele>500</ele>
        <time>2015-04-26T12:37:26.000Z</time>
      </trkpt>
      <trkpt lat="47.20344" lon="6.13362">
        <ele>500</ele>
        <time>2015-04-26T12:37:28.000Z</time>
      </trkpt>
      <trkpt lat="47.20344" lon="6.13362">
        <ele>500</ele>
        <time>2015-04-26T12:37:30.000Z</time>
      </trkpt>
      <trkpt lat="47.20344" lon="6.13362">
        <ele>500</ele>
        <time>2015-04-26T12:37:32.000Z</time>
      </trkpt>
      <trkpt lat="47.20368" lon="6.13309">
        <ele>497</ele>
        <time>2015-04-26T12:37:36.000Z</time>
      </trkpt>
      <trkpt lat="47.20372" lon="6.13289">
        <ele>498</ele>
        <time>2015-04-26T12:37:40.000Z</time>
      </trkpt>
      <trkpt lat="47.20372" lon="6.13289">
        <ele>498</ele>
        <time>2015-04-26T12:37:42.000Z</time>
      </trkpt>
      <trkpt lat="47.20372" lon="6.13289">
        <ele>498</ele>
        <time>2015-04-26T12:37:44.000Z</time>
      </trkpt>
      <trkpt lat="47.20372" lon="6.13289">
        <ele>498</ele>
        <time>2015-04-26T12:37:46.000Z</time>
      </trkpt>
      <trkpt lat="47.20372" lon="6.13289">
        <ele>498</ele>
        <time>2015-04-26T12:37:48.000Z</time>
      </trkpt>
      <trkpt lat="47.20372" lon="6.13289">
        <ele>498</ele>
        <time>2015-04-26T12:37:50.000Z</time>
      </trkpt>
      <trkpt lat="47.20406" lon="6.13236">
        <ele>502</ele>
        <time>2015-04-26T12:37:54.000Z</time>
      </trkpt>
      <trkpt lat="47.20418" lon="6.1323">
        <ele>498</ele>
        <time>2015-04-26T12:37:58.000Z</time>
      </trkpt>
      <trkpt lat="47.20418" lon="6.1323">
        <ele>498</ele>
        <time>2015-04-26T12:38:00.000Z</time>
      </trkpt>
      <trkpt lat="47.20418" lon="6.1323">
        <ele>498</ele>
        <time>2015-04-26T12:38:02.000Z</time>
      </trkpt>
      <trkpt lat="47.20418" lon="6.1323">
        <ele>498</ele>
        <time>2015-04-26T12:38:04.000Z</time>
      </trkpt>
      <trkpt lat="47.20418" lon="6.1323">
        <ele>498</ele>
        <time>2015-04-26T12:38:06.000Z</time>
      </trkpt>
      <trkpt lat="47.20418" lon="6.1323">
        <ele>498</ele>
        <time>2015-04-26T12:38:08.000Z</time>
      </trkpt>
      <trkpt lat="47.20418" lon="6.1323">
        <ele>498</ele>
        <time>2015-04-26T12:38:10.000Z</time>
      </trkpt>
      <trkpt lat="47.20418" lon="6.1323">
        <ele>498</ele>
        <time>2015-04-26T12:38:12.000Z</time>
      </trkpt>
      <trkpt lat="47.20418" lon="6.1323">
        <ele>498</ele>
        <time>2015-04-26T12:38:14.000Z</time>
      </trkpt>
      <trkpt lat="47.20418" lon="6.1323">
        <ele>498</ele>
        <time>2015-04-26T12:38:16.000Z</time>
      </trkpt>
      <trkpt lat="47.20418" lon="6.1323">
        <ele>498</ele>
        <time>2015-04-26T12:38:18.000Z</time>
      </trkpt>
      <trkpt lat="47.20418" lon="6.1323">
        <ele>498</ele>
        <time>2015-04-26T12:38:20.000Z</time>
      </trkpt>
      <trkpt lat="47.20418" lon="6.1323">
        <ele>498</ele>
        <time>2015-04-26T12:38:22.000Z</time>
      </trkpt>
      <trkpt lat="47.20418" lon="6.1323">
        <ele>498</ele>
        <time>2015-04-26T12:38:24.000Z</time>
      </trkpt>
      <trkpt lat="47.20418" lon="6.1323">
        <ele>498</ele>
        <time>2015-04-26T12:38:26.000Z</time>
      </trkpt>
      <trkpt lat="47.20418" lon="6.1323">
        <ele>498</ele>
        <time>2015-04-26T12:38:28.000Z</time>
      </trkpt>
      <trkpt lat="47.20418" lon="6.1323">
        <ele>498</ele>
        <time>2015-04-26T12:38:30.000Z</time>
      </trkpt>
      <trkpt lat="47.20473" lon="6.13212">
        <ele>496</ele>
        <time>2015-04-26T12:38:36.000Z</time>
      </trkpt>
      <trkpt lat="47.20502" lon="6.13201">
        <ele>493</ele>
        <time>2015-04-26T12:38:38.000Z</time>
      </trkpt>
      <trkpt lat="47.2052" lon="6.13195">
        <ele>489</ele>
        <time>2015-04-26T12:38:40.000Z</time>
      </trkpt>
      <trkpt lat="47.20532" lon="6.13192">
        <ele>493</ele>
        <time>2015-04-26T12:38:42.000Z</time>
      </trkpt>
      <trkpt lat="47.20541" lon="6.1319">
        <ele>488</ele>
        <time>2015-04-26T12:38:44.000Z</time>
      </trkpt>
      <trkpt lat="47.20556" lon="6.13188">
        <ele>489</ele>
        <time>2015-04-26T12:38:46.000Z</time>
      </trkpt>
      <trkpt lat="47.20566" lon="6.13187">
        <ele>498</ele>
        <time>2015-04-26T12:38:48.000Z</time>
      </trkpt>
      <trkpt lat="47.20576" lon="6.13184">
        <ele>499</ele>
        <time>2015-04-26T12:38:50.000Z</time>
      </trkpt>
      <trkpt lat="47.20591" lon="6.13181">
        <ele>497</ele>
        <time>2015-04-26T12:38:54.000Z</time>
      </trkpt>
      <trkpt lat="47.206" lon="6.13177">
        <ele>491</ele>
        <time>2015-04-26T12:38:56.000Z</time>
      </trkpt>
      <trkpt lat="47.2061" lon="6.13172">
        <ele>488</ele>
        <time>2015-04-26T12:38:58.000Z</time>
      </trkpt>
      <trkpt lat="47.20618" lon="6.13167">
        <ele>491</ele>
        <time>2015-04-26T12:39:00.000Z</time>
      </trkpt>
      <trkpt lat="47.20632" lon="6.13161">
        <ele>492</ele>
        <time>2015-04-26T12:39:04.000Z</time>
      </trkpt>
      <trkpt lat="47.20647" lon="6.13153">
        <ele>491</ele>
        <time>2015-04-26T12:39:08.000Z</time>
      </trkpt>
      <trkpt lat="47.20663" lon="6.13146">
        <ele>490</ele>
        <time>2015-04-26T12:39:12.000Z</time>
      </trkpt>
      <trkpt lat="47.20677" lon="6.13142">
        <ele>487</ele>
        <time>2015-04-26T12:39:16.000Z</time>
      </trkpt>
      <trkpt lat="47.20693" lon="6.13141">
        <ele>488</ele>
        <time>2015-04-26T12:39:20.000Z</time>
      </trkpt>
      <trkpt lat="47.20704" lon="6.13142">
        <ele>488</ele>
        <time>2015-04-26T12:39:22.000Z</time>
      </trkpt>
      <trkpt lat="47.20716" lon="6.13141">
        <ele>485</ele>
        <time>2015-04-26T12:39:24.000Z</time>
      </trkpt>
      <trkpt lat="47.2073" lon="6.13139">
        <ele>485</ele>
        <time>2015-04-26T12:39:26.000Z</time>
      </trkpt>
      <trkpt lat="47.2074" lon="6.1314">
        <ele>485</ele>
        <time>2015-04-26T12:39:28.000Z</time>
      </trkpt>
      <trkpt lat="47.20753" lon="6.1313">
        <ele>492</ele>
        <time>2015-04-26T12:39:32.000Z</time>
      </trkpt>
      <trkpt lat="47.20753" lon="6.1313">
        <ele>492</ele>
        <time>2015-04-26T12:39:34.000Z</time>
      </trkpt>
      <trkpt lat="47.20753" lon="6.1313">
        <ele>492</ele>
        <time>2015-04-26T12:39:36.000Z</time>
      </trkpt>
      <trkpt lat="47.20753" lon="6.1313">
        <ele>492</ele>
        <time>2015-04-26T12:39:38.000Z</time>
      </trkpt>
      <trkpt lat="47.20753" lon="6.1313">
        <ele>492</ele>
        <time>2015-04-26T12:39:40.000Z</time>
      </trkpt>
      <trkpt lat="47.20753" lon="6.1313">
        <ele>492</ele>
        <time>2015-04-26T12:39:42.000Z</time>
      </trkpt>
      <trkpt lat="47.20753" lon="6.1313">
        <ele>492</ele>
        <time>2015-04-26T12:39:44.000Z</time>
      </trkpt>
      <trkpt lat="47.20753" lon="6.1313">
        <ele>492</ele>
        <time>2015-04-26T12:39:46.000Z</time>
      </trkpt>
      <trkpt lat="47.20753" lon="6.1313">
        <ele>492</ele>
        <time>2015-04-26T12:39:48.000Z</time>
      </trkpt>
      <trkpt lat="47.20753" lon="6.1313">
        <ele>492</ele>
        <time>2015-04-26T12:39:50.000Z</time>
      </trkpt>
      <trkpt lat="47.20753" lon="6.1313">
        <ele>492</ele>
        <time>2015-04-26T12:39:52.000Z</time>
      </trkpt>
      <trkpt lat="47.20753" lon="6.1313">
        <ele>492</ele>
        <time>2015-04-26T12:39:54.000Z</time>
      </trkpt>
      <trkpt lat="47.20753" lon="6.1313">
        <ele>492</ele>
        <time>2015-04-26T12:39:56.000Z</time>
      </trkpt>
      <trkpt lat="47.20753" lon="6.1313">
        <ele>492</ele>
        <time>2015-04-26T12:39:58.000Z</time>
      </trkpt>
      <trkpt lat="47.20831" lon="6.12995">
        <ele>491</ele>
        <time>2015-04-26T12:40:02.000Z</time>
      </trkpt>
      <trkpt lat="47.20842" lon="6.12977">
        <ele>490</ele>
        <time>2015-04-26T12:40:06.000Z</time>
      </trkpt>
      <trkpt lat="47.20842" lon="6.12977">
        <ele>490</ele>
        <time>2015-04-26T12:40:08.000Z</time>
      </trkpt>
      <trkpt lat="47.20842" lon="6.12977">
        <ele>490</ele>
        <time>2015-04-26T12:40:10.000Z</time>
      </trkpt>
      <trkpt lat="47.20842" lon="6.12977">
        <ele>490</ele>
        <time>2015-04-26T12:40:12.000Z</time>
      </trkpt>
      <trkpt lat="47.20842" lon="6.12977">
        <ele>490</ele>
        <time>2015-04-26T12:40:14.000Z</time>
      </trkpt>
      <trkpt lat="47.20842" lon="6.12977">
        <ele>490</ele>
        <time>2015-04-26T12:40:16.000Z</time>
      </trkpt>
      <trkpt lat="47.20842" lon="6.12977">
        <ele>490</ele>
        <time>2015-04-26T12:40:18.000Z</time>
      </trkpt>
      <trkpt lat="47.20842" lon="6.12977">
        <ele>490</ele>
        <time>2015-04-26T12:40:20.000Z</time>
      </trkpt>
      <trkpt lat="47.20857" lon="6.12929">
        <ele>486</ele>
        <time>2015-04-26T12:40:28.000Z</time>
      </trkpt>
      <trkpt lat="47.20866" lon="6.12899">
        <ele>486</ele>
        <time>2015-04-26T12:40:30.000Z</time>
      </trkpt>
      <trkpt lat="47.20872" lon="6.12879">
        <ele>483</ele>
        <time>2015-04-26T12:40:32.000Z</time>
      </trkpt>
      <trkpt lat="47.20877" lon="6.12863">
        <ele>484</ele>
        <time>2015-04-26T12:40:34.000Z</time>
      </trkpt>
      <trkpt lat="47.20882" lon="6.12848">
        <ele>486</ele>
        <time>2015-04-26T12:40:36.000Z</time>
      </trkpt>
      <trkpt lat="47.2089" lon="6.12818">
        <ele>490</ele>
        <time>2015-04-26T12:40:38.000Z</time>
      </trkpt>
      <trkpt lat="47.20893" lon="6.12802">
        <ele>494</ele>
        <time>2015-04-26T12:40:40.000Z</time>
      </trkpt>
      <trkpt lat="47.20897" lon="6.12788">
        <ele>496</ele>
        <time>2015-04-26T12:40:42.000Z</time>
      </trkpt>
      <trkpt lat="47.20898" lon="6.12774">
        <ele>496</ele>
        <time>2015-04-26T12:40:44.000Z</time>
      </trkpt>
      <trkpt lat="47.20899" lon="6.12761">
        <ele>494</ele>
        <time>2015-04-26T12:40:46.000Z</time>
      </trkpt>
      <trkpt lat="47.20902" lon="6.12733">
        <ele>488</ele>
        <time>2015-04-26T12:40:50.000Z</time>
      </trkpt>
      <trkpt lat="47.20905" lon="6.1272">
        <ele>493</ele>
        <time>2015-04-26T12:40:52.000Z</time>
      </trkpt>
      <trkpt lat="47.20905" lon="6.1272">
        <ele>493</ele>
        <time>2015-04-26T12:40:54.000Z</time>
      </trkpt>
      <trkpt lat="47.20905" lon="6.1272">
        <ele>493</ele>
        <time>2015-04-26T12:40:56.000Z</time>
      </trkpt>
      <trkpt lat="47.20905" lon="6.1272">
        <ele>493</ele>
        <time>2015-04-26T12:40:58.000Z</time>
      </trkpt>
      <trkpt lat="47.20905" lon="6.1272">
        <ele>493</ele>
        <time>2015-04-26T12:41:00.000Z</time>
      </trkpt>
      <trkpt lat="47.20905" lon="6.1272">
        <ele>493</ele>
        <time>2015-04-26T12:41:02.000Z</time>
      </trkpt>
      <trkpt lat="47.20905" lon="6.1272">
        <ele>493</ele>
        <time>2015-04-26T12:41:04.000Z</time>
      </trkpt>
      <trkpt lat="47.20905" lon="6.1272">
        <ele>493</ele>
        <time>2015-04-26T12:41:06.000Z</time>
      </trkpt>
      <trkpt lat="47.20905" lon="6.1272">
        <ele>493</ele>
        <time>2015-04-26T12:41:08.000Z</time>
      </trkpt>
      <trkpt lat="47.20905" lon="6.1272">
        <ele>493</ele>
        <time>2015-04-26T12:41:10.000Z</time>
      </trkpt>
      <trkpt lat="47.20905" lon="6.1272">
        <ele>493</ele>
        <time>2015-04-26T12:41:12.000Z</time>
      </trkpt>
      <trkpt lat="47.20905" lon="6.1272">
        <ele>493</ele>
        <time>2015-04-26T12:41:14.000Z</time>
      </trkpt>
      <trkpt lat="47.20905" lon="6.1272">
        <ele>493</ele>
        <time>2015-04-26T12:41:16.000Z</time>
      </trkpt>
      <trkpt lat="47.20905" lon="6.1272">
        <ele>493</ele>
        <time>2015-04-26T12:41:18.000Z</time>
      </trkpt>
      <trkpt lat="47.20905" lon="6.1272">
        <ele>493</ele>
        <time>2015-04-26T12:41:20.000Z</time>
      </trkpt>
      <trkpt lat="47.20905" lon="6.1272">
        <ele>493</ele>
        <time>2015-04-26T12:41:22.000Z</time>
      </trkpt>
      <trkpt lat="47.20911" lon="6.12564">
        <ele>484</ele>
        <time>2015-04-26T12:41:28.000Z</time>
      </trkpt>
      <trkpt lat="47.20913" lon="6.12549">
        <ele>485</ele>
        <time>2015-04-26T12:41:30.000Z</time>
      </trkpt>
      <trkpt lat="47.20909" lon="6.12529">
        <ele>485</ele>
        <time>2015-04-26T12:41:34.000Z</time>
      </trkpt>
      <trkpt lat="47.20901" lon="6.12511">
        <ele>484</ele>
        <time>2015-04-26T12:41:38.000Z</time>
      </trkpt>
      <trkpt lat="47.20892" lon="6.12499">
        <ele>483</ele>
        <time>2015-04-26T12:41:42.000Z</time>
      </trkpt>
      <trkpt lat="47.20892" lon="6.12499">
        <ele>483</ele>
        <time>2015-04-26T12:41:44.000Z</time>
      </trkpt>
      <trkpt lat="47.20892" lon="6.12499">
        <ele>483</ele>
        <time>2015-04-26T12:41:46.000Z</time>
      </trkpt>
      <trkpt lat="47.20892" lon="6.12499">
        <ele>483</ele>
        <time>2015-04-26T12:41:48.000Z</time>
      </trkpt>
      <trkpt lat="47.20892" lon="6.12499">
        <ele>483</ele>
        <time>2015-04-26T12:41:50.000Z</time>
      </trkpt>
      <trkpt lat="47.20892" lon="6.12499">
        <ele>483</ele>
        <time>2015-04-26T12:41:52.000Z</time>
      </trkpt>
      <trkpt lat="47.20892" lon="6.12499">
        <ele>483</ele>
        <time>2015-04-26T12:41:54.000Z</time>
      </trkpt>
      <trkpt lat="47.20892" lon="6.12499">
        <ele>483</ele>
        <time>2015-04-26T12:41:56.000Z</time>
      </trkpt>
      <trkpt lat="47.20892" lon="6.12499">
        <ele>483</ele>
        <time>2015-04-26T12:42:02.000Z</time>
      </trkpt>
      <trkpt lat="47.20892" lon="6.12499">
        <ele>483</ele>
        <time>2015-04-26T12:42:04.000Z</time>
      </trkpt>
      <trkpt lat="47.20892" lon="6.12499">
        <ele>483</ele>
        <time>2015-04-26T12:42:06.000Z</time>
      </trkpt>
      <trkpt lat="47.2089" lon="6.12459">
        <ele>494</ele>
        <time>2015-04-26T12:42:52.000Z</time>
      </trkpt>
      <trkpt lat="47.20889" lon="6.12434">
        <ele>489</ele>
        <time>2015-04-26T12:42:54.000Z</time>
      </trkpt>
      <trkpt lat="47.20886" lon="6.12417">
        <ele>486</ele>
        <time>2015-04-26T12:42:56.000Z</time>
      </trkpt>
      <trkpt lat="47.20882" lon="6.12403">
        <ele>486</ele>
        <time>2015-04-26T12:42:58.000Z</time>
      </trkpt>
      <trkpt lat="47.20879" lon="6.12391">
        <ele>485</ele>
        <time>2015-04-26T12:43:00.000Z</time>
      </trkpt>
      <trkpt lat="47.20874" lon="6.12371">
        <ele>488</ele>
        <time>2015-04-26T12:43:02.000Z</time>
      </trkpt>
      <trkpt lat="47.20874" lon="6.12371">
        <ele>488</ele>
        <time>2015-04-26T12:43:04.000Z</time>
      </trkpt>
      <trkpt lat="47.20874" lon="6.12371">
        <ele>488</ele>
        <time>2015-04-26T12:43:06.000Z</time>
      </trkpt>
      <trkpt lat="47.20874" lon="6.12371">
        <ele>488</ele>
        <time>2015-04-26T12:43:08.000Z</time>
      </trkpt>
      <trkpt lat="47.20863" lon="6.12327">
        <ele>485</ele>
        <time>2015-04-26T12:43:12.000Z</time>
      </trkpt>
      <trkpt lat="47.20868" lon="6.12307">
        <ele>487</ele>
        <time>2015-04-26T12:43:16.000Z</time>
      </trkpt>
      <trkpt lat="47.20871" lon="6.12288">
        <ele>492</ele>
        <time>2015-04-26T12:43:20.000Z</time>
      </trkpt>
      <trkpt lat="47.20868" lon="6.12263">
        <ele>483</ele>
        <time>2015-04-26T12:43:24.000Z</time>
      </trkpt>
      <trkpt lat="47.20864" lon="6.12251">
        <ele>485</ele>
        <time>2015-04-26T12:43:26.000Z</time>
      </trkpt>
      <trkpt lat="47.20865" lon="6.12233">
        <ele>490</ele>
        <time>2015-04-26T12:43:30.000Z</time>
      </trkpt>
      <trkpt lat="47.20869" lon="6.12221">
        <ele>489</ele>
        <time>2015-04-26T12:43:34.000Z</time>
      </trkpt>
      <trkpt lat="47.20869" lon="6.12221">
        <ele>489</ele>
        <time>2015-04-26T12:43:36.000Z</time>
      </trkpt>
      <trkpt lat="47.20869" lon="6.12221">
        <ele>489</ele>
        <time>2015-04-26T12:43:38.000Z</time>
      </trkpt>
      <trkpt lat="47.20869" lon="6.12221">
        <ele>489</ele>
        <time>2015-04-26T12:43:40.000Z</time>
      </trkpt>
      <trkpt lat="47.20869" lon="6.12221">
        <ele>489</ele>
        <time>2015-04-26T12:43:42.000Z</time>
      </trkpt>
      <trkpt lat="47.20869" lon="6.12221">
        <ele>489</ele>
        <time>2015-04-26T12:43:44.000Z</time>
      </trkpt>
      <trkpt lat="47.20869" lon="6.12221">
        <ele>489</ele>
        <time>2015-04-26T12:43:46.000Z</time>
      </trkpt>
      <trkpt lat="47.20882" lon="6.12154">
        <ele>496</ele>
        <time>2015-04-26T12:43:50.000Z</time>
      </trkpt>
      <trkpt lat="47.20887" lon="6.12138">
        <ele>489</ele>
        <time>2015-04-26T12:43:54.000Z</time>
      </trkpt>
      <trkpt lat="47.20893" lon="6.12116">
        <ele>488</ele>
        <time>2015-04-26T12:43:58.000Z</time>
      </trkpt>
      <trkpt lat="47.20896" lon="6.12095">
        <ele>481</ele>
        <time>2015-04-26T12:44:02.000Z</time>
      </trkpt>
      <trkpt lat="47.20898" lon="6.12072">
        <ele>486</ele>
        <time>2015-04-26T12:44:06.000Z</time>
      </trkpt>
      <trkpt lat="47.20893" lon="6.12054">
        <ele>479</ele>
        <time>2015-04-26T12:44:10.000Z</time>
      </trkpt>
      <trkpt lat="47.20893" lon="6.12054">
        <ele>479</ele>
        <time>2015-04-26T12:44:12.000Z</time>
      </trkpt>
      <trkpt lat="47.20893" lon="6.12054">
        <ele>479</ele>
        <time>2015-04-26T12:44:14.000Z</time>
      </trkpt>
      <trkpt lat="47.20893" lon="6.12054">
        <ele>479</ele>
        <time>2015-04-26T12:44:16.000Z</time>
      </trkpt>
      <trkpt lat="47.20893" lon="6.12054">
        <ele>479</ele>
        <time>2015-04-26T12:44:18.000Z</time>
      </trkpt>
      <trkpt lat="47.20888" lon="6.11994">
        <ele>487</ele>
        <time>2015-04-26T12:44:24.000Z</time>
      </trkpt>
      <trkpt lat="47.20888" lon="6.11994">
        <ele>487</ele>
        <time>2015-04-26T12:44:26.000Z</time>
      </trkpt>
      <trkpt lat="47.20888" lon="6.11994">
        <ele>487</ele>
        <time>2015-04-26T12:44:28.000Z</time>
      </trkpt>
      <trkpt lat="47.20892" lon="6.11975">
        <ele>483</ele>
        <time>2015-04-26T12:44:32.000Z</time>
      </trkpt>
      <trkpt lat="47.20895" lon="6.11959">
        <ele>489</ele>
        <time>2015-04-26T12:44:34.000Z</time>
      </trkpt>
      <trkpt lat="47.20896" lon="6.11946">
        <ele>493</ele>
        <time>2015-04-26T12:44:36.000Z</time>
      </trkpt>
      <trkpt lat="47.20897" lon="6.11935">
        <ele>483</ele>
        <time>2015-04-26T12:44:38.000Z</time>
      </trkpt>
      <trkpt lat="47.20898" lon="6.11924">
        <ele>487</ele>
        <time>2015-04-26T12:44:40.000Z</time>
      </trkpt>
      <trkpt lat="47.20898" lon="6.11924">
        <ele>487</ele>
        <time>2015-04-26T12:44:42.000Z</time>
      </trkpt>
      <trkpt lat="47.20898" lon="6.11924">
        <ele>487</ele>
        <time>2015-04-26T12:44:44.000Z</time>
      </trkpt>
      <trkpt lat="47.20898" lon="6.11924">
        <ele>487</ele>
        <time>2015-04-26T12:44:50.000Z</time>
      </trkpt>
      <trkpt lat="47.20898" lon="6.11924">
        <ele>487</ele>
        <time>2015-04-26T12:44:52.000Z</time>
      </trkpt>
      <trkpt lat="47.20898" lon="6.11924">
        <ele>487</ele>
        <time>2015-04-26T12:44:54.000Z</time>
      </trkpt>
      <trkpt lat="47.20898" lon="6.11924">
        <ele>487</ele>
        <time>2015-04-26T12:44:56.000Z</time>
      </trkpt>
      <trkpt lat="47.20903" lon="6.11808">
        <ele>482</ele>
        <time>2015-04-26T12:45:02.000Z</time>
      </trkpt>
      <trkpt lat="47.20902" lon="6.11787">
        <ele>480</ele>
        <time>2015-04-26T12:45:06.000Z</time>
      </trkpt>
      <trkpt lat="47.20899" lon="6.11765">
        <ele>476</ele>
        <time>2015-04-26T12:45:10.000Z</time>
      </trkpt>
      <trkpt lat="47.20899" lon="6.11749">
        <ele>474</ele>
        <time>2015-04-26T12:45:14.000Z</time>
      </trkpt>
      <trkpt lat="47.20899" lon="6.11749">
        <ele>474</ele>
        <time>2015-04-26T12:45:16.000Z</time>
      </trkpt>
      <trkpt lat="47.20899" lon="6.11749">
        <ele>474</ele>
        <time>2015-04-26T12:45:18.000Z</time>
      </trkpt>
      <trkpt lat="47.20899" lon="6.11749">
        <ele>474</ele>
        <time>2015-04-26T12:45:20.000Z</time>
      </trkpt>
      <trkpt lat="47.20899" lon="6.11749">
        <ele>474</ele>
        <time>2015-04-26T12:45:29.000Z</time>
      </trkpt>
      <trkpt lat="47.20877" lon="6.11675">
        <ele>467</ele>
        <time>2015-04-26T12:45:49.000Z</time>
      </trkpt>
      <trkpt lat="47.20869" lon="6.11665">
        <ele>471</ele>
        <time>2015-04-26T12:45:53.000Z</time>
      </trkpt>
      <trkpt lat="47.20869" lon="6.11665">
        <ele>471</ele>
        <time>2015-04-26T12:45:55.000Z</time>
      </trkpt>
      <trkpt lat="47.20869" lon="6.11665">
        <ele>471</ele>
        <time>2015-04-26T12:45:57.000Z</time>
      </trkpt>
      <trkpt lat="47.20869" lon="6.11665">
        <ele>471</ele>
        <time>2015-04-26T12:45:59.000Z</time>
      </trkpt>
      <trkpt lat="47.20866" lon="6.11645">
        <ele>471</ele>
        <time>2015-04-26T12:46:05.000Z</time>
      </trkpt>
      <trkpt lat="47.20863" lon="6.11631">
        <ele>475</ele>
        <time>2015-04-26T12:46:07.000Z</time>
      </trkpt>
      <trkpt lat="47.20863" lon="6.11619">
        <ele>475</ele>
        <time>2015-04-26T12:46:09.000Z</time>
      </trkpt>
      <trkpt lat="47.20862" lon="6.1161">
        <ele>480</ele>
        <time>2015-04-26T12:46:11.000Z</time>
      </trkpt>
      <trkpt lat="47.20862" lon="6.11601">
        <ele>477</ele>
        <time>2015-04-26T12:46:13.000Z</time>
      </trkpt>
      <trkpt lat="47.20861" lon="6.11583">
        <ele>478</ele>
        <time>2015-04-26T12:46:15.000Z</time>
      </trkpt>
      <trkpt lat="47.20863" lon="6.11561">
        <ele>476</ele>
        <time>2015-04-26T12:46:19.000Z</time>
      </trkpt>
      <trkpt lat="47.20863" lon="6.11561">
        <ele>476</ele>
        <time>2015-04-26T12:46:25.000Z</time>
      </trkpt>
      <trkpt lat="47.20863" lon="6.11561">
        <ele>476</ele>
        <time>2015-04-26T12:46:27.000Z</time>
      </trkpt>
      <trkpt lat="47.20832" lon="6.1154">
        <ele>461</ele>
        <time>2015-04-26T12:46:31.000Z</time>
      </trkpt>
      <trkpt lat="47.20813" lon="6.1154">
        <ele>463</ele>
        <time>2015-04-26T12:46:35.000Z</time>
      </trkpt>
      <trkpt lat="47.20799" lon="6.11537">
        <ele>464</ele>
        <time>2015-04-26T12:46:39.000Z</time>
      </trkpt>
      <trkpt lat="47.20787" lon="6.11528">
        <ele>466</ele>
        <time>2015-04-26T12:46:43.000Z</time>
      </trkpt>
      <trkpt lat="47.20781" lon="6.11512">
        <ele>465</ele>
        <time>2015-04-26T12:46:47.000Z</time>
      </trkpt>
      <trkpt lat="47.20779" lon="6.1149">
        <ele>471</ele>
        <time>2015-04-26T12:46:51.000Z</time>
      </trkpt>
      <trkpt lat="47.20776" lon="6.11472">
        <ele>470</ele>
        <time>2015-04-26T12:46:55.000Z</time>
      </trkpt>
      <trkpt lat="47.20776" lon="6.11472">
        <ele>470</ele>
        <time>2015-04-26T12:46:57.000Z</time>
      </trkpt>
      <trkpt lat="47.20776" lon="6.11472">
        <ele>470</ele>
        <time>2015-04-26T12:46:59.000Z</time>
      </trkpt>
      <trkpt lat="47.20776" lon="6.11472">
        <ele>470</ele>
        <time>2015-04-26T12:47:01.000Z</time>
      </trkpt>
      <trkpt lat="47.20776" lon="6.11472">
        <ele>470</ele>
        <time>2015-04-26T12:47:03.000Z</time>
      </trkpt>
      <trkpt lat="47.20776" lon="6.11472">
        <ele>470</ele>
        <time>2015-04-26T12:47:05.000Z</time>
      </trkpt>
      <trkpt lat="47.20771" lon="6.11373">
        <ele>473</ele>
        <time>2015-04-26T12:47:11.000Z</time>
      </trkpt>
      <trkpt lat="47.20771" lon="6.11373">
        <ele>473</ele>
        <time>2015-04-26T12:47:13.000Z</time>
      </trkpt>
      <trkpt lat="47.20771" lon="6.11373">
        <ele>473</ele>
        <time>2015-04-26T12:47:15.000Z</time>
      </trkpt>
      <trkpt lat="47.20771" lon="6.11373">
        <ele>473</ele>
        <time>2015-04-26T12:47:17.000Z</time>
      </trkpt>
      <trkpt lat="47.20754" lon="6.11318">
        <ele>473</ele>
        <time>2015-04-26T12:47:21.000Z</time>
      </trkpt>
      <trkpt lat="47.20754" lon="6.11318">
        <ele>473</ele>
        <time>2015-04-26T12:47:25.000Z</time>
      </trkpt>
      <trkpt lat="47.20754" lon="6.11318">
        <ele>473</ele>
        <time>2015-04-26T12:47:27.000Z</time>
      </trkpt>
      <trkpt lat="47.20754" lon="6.11318">
        <ele>473</ele>
        <time>2015-04-26T12:47:29.000Z</time>
      </trkpt>
      <trkpt lat="47.20754" lon="6.11318">
        <ele>473</ele>
        <time>2015-04-26T12:47:31.000Z</time>
      </trkpt>
      <trkpt lat="47.2075" lon="6.11243">
        <ele>464</ele>
        <time>2015-04-26T12:47:35.000Z</time>
      </trkpt>
      <trkpt lat="47.2075" lon="6.1122">
        <ele>464</ele>
        <time>2015-04-26T12:47:37.000Z</time>
      </trkpt>
      <trkpt lat="47.20751" lon="6.11193">
        <ele>467</ele>
        <time>2015-04-26T12:47:39.000Z</time>
      </trkpt>
      <trkpt lat="47.20752" lon="6.11173">
        <ele>466</ele>
        <time>2015-04-26T12:47:41.000Z</time>
      </trkpt>
      <trkpt lat="47.20752" lon="6.11155">
        <ele>467</ele>
        <time>2015-04-26T12:47:43.000Z</time>
      </trkpt>
      <trkpt lat="47.20753" lon="6.11137">
        <ele>466</ele>
        <time>2015-04-26T12:47:45.000Z</time>
      </trkpt>
      <trkpt lat="47.20754" lon="6.1112">
        <ele>465</ele>
        <time>2015-04-26T12:47:47.000Z</time>
      </trkpt>
      <trkpt lat="47.20755" lon="6.11103">
        <ele>465</ele>
        <time>2015-04-26T12:47:49.000Z</time>
      </trkpt>
      <trkpt lat="47.20756" lon="6.11085">
        <ele>464</ele>
        <time>2015-04-26T12:47:51.000Z</time>
      </trkpt>
      <trkpt lat="47.20757" lon="6.11068">
        <ele>463</ele>
        <time>2015-04-26T12:47:53.000Z</time>
      </trkpt>
      <trkpt lat="47.20758" lon="6.11053">
        <ele>460</ele>
        <time>2015-04-26T12:47:55.000Z</time>
      </trkpt>
      <trkpt lat="47.20762" lon="6.11036">
        <ele>463</ele>
        <time>2015-04-26T12:47:57.000Z</time>
      </trkpt>
      <trkpt lat="47.2077" lon="6.11029">
        <ele>465</ele>
        <time>2015-04-26T12:47:59.000Z</time>
      </trkpt>
      <trkpt lat="47.2077" lon="6.11029">
        <ele>465</ele>
        <time>2015-04-26T12:48:01.000Z</time>
      </trkpt>
      <trkpt lat="47.2077" lon="6.11029">
        <ele>465</ele>
        <time>2015-04-26T12:48:03.000Z</time>
      </trkpt>
      <trkpt lat="47.2077" lon="6.11029">
        <ele>465</ele>
        <time>2015-04-26T12:48:05.000Z</time>
      </trkpt>
      <trkpt lat="47.20794" lon="6.11025">
        <ele>462</ele>
        <time>2015-04-26T12:48:11.000Z</time>
      </trkpt>
      <trkpt lat="47.2081" lon="6.11025">
        <ele>458</ele>
        <time>2015-04-26T12:48:13.000Z</time>
      </trkpt>
      <trkpt lat="47.20825" lon="6.11026">
        <ele>459</ele>
        <time>2015-04-26T12:48:15.000Z</time>
      </trkpt>
      <trkpt lat="47.20838" lon="6.11029">
        <ele>459</ele>
        <time>2015-04-26T12:48:17.000Z</time>
      </trkpt>
      <trkpt lat="47.20849" lon="6.11031">
        <ele>455</ele>
        <time>2015-04-26T12:48:19.000Z</time>
      </trkpt>
      <trkpt lat="47.20872" lon="6.11038">
        <ele>454</ele>
        <time>2015-04-26T12:48:21.000Z</time>
      </trkpt>
      <trkpt lat="47.20882" lon="6.11041">
        <ele>455</ele>
        <time>2015-04-26T12:48:23.000Z</time>
      </trkpt>
      <trkpt lat="47.20893" lon="6.11044">
        <ele>456</ele>
        <time>2015-04-26T12:48:25.000Z</time>
      </trkpt>
      <trkpt lat="47.20903" lon="6.11047">
        <ele>456</ele>
        <time>2015-04-26T12:48:27.000Z</time>
      </trkpt>
      <trkpt lat="47.20914" lon="6.1105">
        <ele>458</ele>
        <time>2015-04-26T12:48:29.000Z</time>
      </trkpt>
      <trkpt lat="47.20926" lon="6.11053">
        <ele>460</ele>
        <time>2015-04-26T12:48:31.000Z</time>
      </trkpt>
      <trkpt lat="47.20938" lon="6.11057">
        <ele>456</ele>
        <time>2015-04-26T12:48:33.000Z</time>
      </trkpt>
      <trkpt lat="47.20948" lon="6.11059">
        <ele>453</ele>
        <time>2015-04-26T12:48:35.000Z</time>
      </trkpt>
      <trkpt lat="47.20959" lon="6.11062">
        <ele>453</ele>
        <time>2015-04-26T12:48:37.000Z</time>
      </trkpt>
      <trkpt lat="47.20971" lon="6.11065">
        <ele>451</ele>
        <time>2015-04-26T12:48:39.000Z</time>
      </trkpt>
      <trkpt lat="47.20982" lon="6.11068">
        <ele>452</ele>
        <time>2015-04-26T12:48:41.000Z</time>
      </trkpt>
      <trkpt lat="47.20995" lon="6.11071">
        <ele>452</ele>
        <time>2015-04-26T12:48:43.000Z</time>
      </trkpt>
      <trkpt lat="47.21005" lon="6.11074">
        <ele>447</ele>
        <time>2015-04-26T12:48:45.000Z</time>
      </trkpt>
      <trkpt lat="47.21016" lon="6.11077">
        <ele>448</ele>
        <time>2015-04-26T12:48:47.000Z</time>
      </trkpt>
      <trkpt lat="47.21027" lon="6.11081">
        <ele>449</ele>
        <time>2015-04-26T12:48:49.000Z</time>
      </trkpt>
      <trkpt lat="47.21027" lon="6.11081">
        <ele>449</ele>
        <time>2015-04-26T12:48:51.000Z</time>
      </trkpt>
      <trkpt lat="47.21027" lon="6.11081">
        <ele>449</ele>
        <time>2015-04-26T12:48:59.000Z</time>
      </trkpt>
      <trkpt lat="47.21027" lon="6.11081">
        <ele>449</ele>
        <time>2015-04-26T12:49:01.000Z</time>
      </trkpt>
      <trkpt lat="47.21027" lon="6.11081">
        <ele>449</ele>
        <time>2015-04-26T12:49:03.000Z</time>
      </trkpt>
      <trkpt lat="47.21027" lon="6.11081">
        <ele>449</ele>
        <time>2015-04-26T12:49:05.000Z</time>
      </trkpt>
      <trkpt lat="47.21027" lon="6.11081">
        <ele>449</ele>
        <time>2015-04-26T12:49:07.000Z</time>
      </trkpt>
      <trkpt lat="47.21027" lon="6.11081">
        <ele>449</ele>
        <time>2015-04-26T12:49:09.000Z</time>
      </trkpt>
      <trkpt lat="47.21027" lon="6.11081">
        <ele>449</ele>
        <time>2015-04-26T12:49:11.000Z</time>
      </trkpt>
      <trkpt lat="47.21027" lon="6.11081">
        <ele>449</ele>
        <time>2015-04-26T12:49:13.000Z</time>
      </trkpt>
      <trkpt lat="47.21027" lon="6.11081">
        <ele>449</ele>
        <time>2015-04-26T12:49:15.000Z</time>
      </trkpt>
      <trkpt lat="47.21162" lon="6.11124">
        <ele>445</ele>
        <time>2015-04-26T12:49:21.000Z</time>
      </trkpt>
      <trkpt lat="47.21175" lon="6.11134">
        <ele>457</ele>
        <time>2015-04-26T12:49:25.000Z</time>
      </trkpt>
      <trkpt lat="47.21189" lon="6.11145">
        <ele>456</ele>
        <time>2015-04-26T12:49:29.000Z</time>
      </trkpt>
      <trkpt lat="47.21189" lon="6.11145">
        <ele>456</ele>
        <time>2015-04-26T12:49:31.000Z</time>
      </trkpt>
      <trkpt lat="47.21189" lon="6.11145">
        <ele>456</ele>
        <time>2015-04-26T12:49:33.000Z</time>
      </trkpt>
      <trkpt lat="47.21221" lon="6.11162">
        <ele>456</ele>
        <time>2015-04-26T12:49:37.000Z</time>
      </trkpt>
      <trkpt lat="47.21237" lon="6.11169">
        <ele>466</ele>
        <time>2015-04-26T12:49:41.000Z</time>
      </trkpt>
      <trkpt lat="47.21254" lon="6.11175">
        <ele>466</ele>
        <time>2015-04-26T12:49:45.000Z</time>
      </trkpt>
      <trkpt lat="47.21264" lon="6.11176">
        <ele>466</ele>
        <time>2015-04-26T12:49:47.000Z</time>
      </trkpt>
      <trkpt lat="47.21273" lon="6.11178">
        <ele>464</ele>
        <time>2015-04-26T12:49:49.000Z</time>
      </trkpt>
      <trkpt lat="47.21273" lon="6.11178">
        <ele>464</ele>
        <time>2015-04-26T12:49:51.000Z</time>
      </trkpt>
      <trkpt lat="47.21273" lon="6.11178">
        <ele>464</ele>
        <time>2015-04-26T12:49:53.000Z</time>
      </trkpt>
      <trkpt lat="47.21273" lon="6.11178">
        <ele>464</ele>
        <time>2015-04-26T12:49:55.000Z</time>
      </trkpt>
      <trkpt lat="47.21273" lon="6.11178">
        <ele>464</ele>
        <time>2015-04-26T12:49:57.000Z</time>
      </trkpt>
      <trkpt lat="47.21273" lon="6.11178">
        <ele>464</ele>
        <time>2015-04-26T12:49:59.000Z</time>
      </trkpt>
      <trkpt lat="47.21273" lon="6.11178">
        <ele>464</ele>
        <time>2015-04-26T12:50:01.000Z</time>
      </trkpt>
      <trkpt lat="47.21273" lon="6.11178">
        <ele>464</ele>
        <time>2015-04-26T12:50:03.000Z</time>
      </trkpt>
      <trkpt lat="47.21273" lon="6.11178">
        <ele>464</ele>
        <time>2015-04-26T12:50:05.000Z</time>
      </trkpt>
      <trkpt lat="47.21273" lon="6.11178">
        <ele>464</ele>
        <time>2015-04-26T12:50:07.000Z</time>
      </trkpt>
      <trkpt lat="47.21273" lon="6.11178">
        <ele>464</ele>
        <time>2015-04-26T12:50:09.000Z</time>
      </trkpt>
      <trkpt lat="47.21273" lon="6.11178">
        <ele>464</ele>
        <time>2015-04-26T12:50:11.000Z</time>
      </trkpt>
      <trkpt lat="47.21273" lon="6.11178">
        <ele>464</ele>
        <time>2015-04-26T12:50:13.000Z</time>
      </trkpt>
      <trkpt lat="47.21318" lon="6.11176">
        <ele>472</ele>
        <time>2015-04-26T12:50:17.000Z</time>
      </trkpt>
      <trkpt lat="47.21344" lon="6.11175">
        <ele>471</ele>
        <time>2015-04-26T12:50:19.000Z</time>
      </trkpt>
      <trkpt lat="47.2136" lon="6.11174">
        <ele>477</ele>
        <time>2015-04-26T12:50:21.000Z</time>
      </trkpt>
      <trkpt lat="47.21372" lon="6.11174">
        <ele>477</ele>
        <time>2015-04-26T12:50:23.000Z</time>
      </trkpt>
      <trkpt lat="47.21382" lon="6.11174">
        <ele>476</ele>
        <time>2015-04-26T12:50:25.000Z</time>
      </trkpt>
      <trkpt lat="47.21401" lon="6.11173">
        <ele>475</ele>
        <time>2015-04-26T12:50:27.000Z</time>
      </trkpt>
      <trkpt lat="47.21417" lon="6.11172">
        <ele>464</ele>
        <time>2015-04-26T12:50:31.000Z</time>
      </trkpt>
      <trkpt lat="47.21431" lon="6.1117">
        <ele>468</ele>
        <time>2015-04-26T12:50:35.000Z</time>
      </trkpt>
      <trkpt lat="47.21444" lon="6.11168">
        <ele>470</ele>
        <time>2015-04-26T12:50:39.000Z</time>
      </trkpt>
      <trkpt lat="47.21444" lon="6.11168">
        <ele>470</ele>
        <time>2015-04-26T12:50:41.000Z</time>
      </trkpt>
      <trkpt lat="47.21458" lon="6.11166">
        <ele>470</ele>
        <time>2015-04-26T12:50:43.000Z</time>
      </trkpt>
      <trkpt lat="47.21458" lon="6.11166">
        <ele>470</ele>
        <time>2015-04-26T12:50:45.000Z</time>
      </trkpt>
      <trkpt lat="47.21458" lon="6.11166">
        <ele>470</ele>
        <time>2015-04-26T12:50:47.000Z</time>
      </trkpt>
      <trkpt lat="47.21458" lon="6.11166">
        <ele>470</ele>
        <time>2015-04-26T12:50:49.000Z</time>
      </trkpt>
      <trkpt lat="47.21458" lon="6.11166">
        <ele>470</ele>
        <time>2015-04-26T12:50:51.000Z</time>
      </trkpt>
      <trkpt lat="47.21458" lon="6.11166">
        <ele>470</ele>
        <time>2015-04-26T12:50:57.000Z</time>
      </trkpt>
      <trkpt lat="47.21458" lon="6.11166">
        <ele>470</ele>
        <time>2015-04-26T12:50:59.000Z</time>
      </trkpt>
      <trkpt lat="47.21458" lon="6.11166">
        <ele>470</ele>
        <time>2015-04-26T12:51:01.000Z</time>
      </trkpt>
      <trkpt lat="47.21543" lon="6.11163">
        <ele>472</ele>
        <time>2015-04-26T12:51:07.000Z</time>
      </trkpt>
      <trkpt lat="47.21558" lon="6.11169">
        <ele>472</ele>
        <time>2015-04-26T12:51:11.000Z</time>
      </trkpt>
      <trkpt lat="47.21572" lon="6.11176">
        <ele>467</ele>
        <time>2015-04-26T12:51:15.000Z</time>
      </trkpt>
      <trkpt lat="47.21572" lon="6.11176">
        <ele>467</ele>
        <time>2015-04-26T12:51:17.000Z</time>
      </trkpt>
      <trkpt lat="47.21586" lon="6.11183">
        <ele>466</ele>
        <time>2015-04-26T12:51:19.000Z</time>
      </trkpt>
      <trkpt lat="47.21602" lon="6.11189">
        <ele>461</ele>
        <time>2015-04-26T12:51:23.000Z</time>
      </trkpt>
      <trkpt lat="47.21615" lon="6.1119">
        <ele>465</ele>
        <time>2015-04-26T12:51:27.000Z</time>
      </trkpt>
      <trkpt lat="47.21615" lon="6.1119">
        <ele>465</ele>
        <time>2015-04-26T12:51:29.000Z</time>
      </trkpt>
      <trkpt lat="47.21629" lon="6.11181">
        <ele>470</ele>
        <time>2015-04-26T12:51:31.000Z</time>
      </trkpt>
      <trkpt lat="47.21641" lon="6.11168">
        <ele>464</ele>
        <time>2015-04-26T12:51:35.000Z</time>
      </trkpt>
      <trkpt lat="47.21648" lon="6.11159">
        <ele>467</ele>
        <time>2015-04-26T12:51:37.000Z</time>
      </trkpt>
      <trkpt lat="47.21659" lon="6.11143">
        <ele>468</ele>
        <time>2015-04-26T12:51:41.000Z</time>
      </trkpt>
      <trkpt lat="47.21659" lon="6.11143">
        <ele>468</ele>
        <time>2015-04-26T12:51:43.000Z</time>
      </trkpt>
      <trkpt lat="47.21671" lon="6.11125">
        <ele>470</ele>
        <time>2015-04-26T12:51:45.000Z</time>
      </trkpt>
      <trkpt lat="47.21671" lon="6.11125">
        <ele>470</ele>
        <time>2015-04-26T12:51:47.000Z</time>
      </trkpt>
      <trkpt lat="47.21671" lon="6.11125">
        <ele>470</ele>
        <time>2015-04-26T12:51:49.000Z</time>
      </trkpt>
      <trkpt lat="47.21671" lon="6.11125">
        <ele>470</ele>
        <time>2015-04-26T12:51:51.000Z</time>
      </trkpt>
      <trkpt lat="47.21671" lon="6.11125">
        <ele>470</ele>
        <time>2015-04-26T12:51:53.000Z</time>
      </trkpt>
      <trkpt lat="47.21671" lon="6.11125">
        <ele>470</ele>
        <time>2015-04-26T12:51:55.000Z</time>
      </trkpt>
      <trkpt lat="47.21671" lon="6.11125">
        <ele>470</ele>
        <time>2015-04-26T12:51:57.000Z</time>
      </trkpt>
      <trkpt lat="47.21699" lon="6.11102">
        <ele>474</ele>
        <time>2015-04-26T12:52:01.000Z</time>
      </trkpt>
      <trkpt lat="47.21717" lon="6.11089">
        <ele>469</ele>
        <time>2015-04-26T12:52:03.000Z</time>
      </trkpt>
      <trkpt lat="47.21731" lon="6.11084">
        <ele>471</ele>
        <time>2015-04-26T12:52:05.000Z</time>
      </trkpt>
      <trkpt lat="47.21731" lon="6.11084">
        <ele>471</ele>
        <time>2015-04-26T12:52:07.000Z</time>
      </trkpt>
      <trkpt lat="47.21731" lon="6.11084">
        <ele>471</ele>
        <time>2015-04-26T12:52:09.000Z</time>
      </trkpt>
      <trkpt lat="47.21754" lon="6.11091">
        <ele>467</ele>
        <time>2015-04-26T12:52:15.000Z</time>
      </trkpt>
      <trkpt lat="47.21772" lon="6.11091">
        <ele>465</ele>
        <time>2015-04-26T12:52:17.000Z</time>
      </trkpt>
      <trkpt lat="47.21786" lon="6.11088">
        <ele>463</ele>
        <time>2015-04-26T12:52:19.000Z</time>
      </trkpt>
      <trkpt lat="47.21799" lon="6.11082">
        <ele>464</ele>
        <time>2015-04-26T12:52:21.000Z</time>
      </trkpt>
      <trkpt lat="47.21812" lon="6.11075">
        <ele>459</ele>
        <time>2015-04-26T12:52:23.000Z</time>
      </trkpt>
      <trkpt lat="47.21838" lon="6.11058">
        <ele>460</ele>
        <time>2015-04-26T12:52:25.000Z</time>
      </trkpt>
      <trkpt lat="47.21849" lon="6.11047">
        <ele>459</ele>
        <time>2015-04-26T12:52:27.000Z</time>
      </trkpt>
      <trkpt lat="47.21861" lon="6.11036">
        <ele>461</ele>
        <time>2015-04-26T12:52:29.000Z</time>
      </trkpt>
      <trkpt lat="47.21872" lon="6.11024">
        <ele>462</ele>
        <time>2015-04-26T12:52:31.000Z</time>
      </trkpt>
      <trkpt lat="47.21883" lon="6.11012">
        <ele>464</ele>
        <time>2015-04-26T12:52:33.000Z</time>
      </trkpt>
      <trkpt lat="47.21894" lon="6.11001">
        <ele>462</ele>
        <time>2015-04-26T12:52:35.000Z</time>
      </trkpt>
      <trkpt lat="47.21907" lon="6.10991">
        <ele>464</ele>
        <time>2015-04-26T12:52:37.000Z</time>
      </trkpt>
      <trkpt lat="47.21918" lon="6.10982">
        <ele>466</ele>
        <time>2015-04-26T12:52:39.000Z</time>
      </trkpt>
      <trkpt lat="47.2193" lon="6.10976">
        <ele>465</ele>
        <time>2015-04-26T12:52:41.000Z</time>
      </trkpt>
      <trkpt lat="47.21943" lon="6.10975">
        <ele>461</ele>
        <time>2015-04-26T12:52:43.000Z</time>
      </trkpt>
      <trkpt lat="47.21957" lon="6.10976">
        <ele>461</ele>
        <time>2015-04-26T12:52:45.000Z</time>
      </trkpt>
      <trkpt lat="47.21972" lon="6.10979">
        <ele>460</ele>
        <time>2015-04-26T12:52:47.000Z</time>
      </trkpt>
      <trkpt lat="47.21985" lon="6.10979">
        <ele>461</ele>
        <time>2015-04-26T12:52:49.000Z</time>
      </trkpt>
      <trkpt lat="47.21996" lon="6.10984">
        <ele>457</ele>
        <time>2015-04-26T12:52:51.000Z</time>
      </trkpt>
      <trkpt lat="47.22005" lon="6.10996">
        <ele>453</ele>
        <time>2015-04-26T12:52:53.000Z</time>
      </trkpt>
      <trkpt lat="47.22009" lon="6.11008">
        <ele>450</ele>
        <time>2015-04-26T12:52:55.000Z</time>
      </trkpt>
      <trkpt lat="47.22009" lon="6.11008">
        <ele>450</ele>
        <time>2015-04-26T12:52:57.000Z</time>
      </trkpt>
      <trkpt lat="47.22009" lon="6.11008">
        <ele>450</ele>
        <time>2015-04-26T12:52:59.000Z</time>
      </trkpt>
      <trkpt lat="47.22009" lon="6.11008">
        <ele>450</ele>
        <time>2015-04-26T12:53:01.000Z</time>
      </trkpt>
      <trkpt lat="47.22009" lon="6.11008">
        <ele>450</ele>
        <time>2015-04-26T12:53:03.000Z</time>
      </trkpt>
      <trkpt lat="47.22009" lon="6.11008">
        <ele>450</ele>
        <time>2015-04-26T12:53:05.000Z</time>
      </trkpt>
      <trkpt lat="47.22009" lon="6.11008">
        <ele>450</ele>
        <time>2015-04-26T12:53:07.000Z</time>
      </trkpt>
      <trkpt lat="47.22061" lon="6.11048">
        <ele>451</ele>
        <time>2015-04-26T12:53:11.000Z</time>
      </trkpt>
      <trkpt lat="47.2207" lon="6.11056">
        <ele>452</ele>
        <time>2015-04-26T12:53:13.000Z</time>
      </trkpt>
      <trkpt lat="47.22083" lon="6.11066">
        <ele>452</ele>
        <time>2015-04-26T12:53:15.000Z</time>
      </trkpt>
      <trkpt lat="47.22096" lon="6.11068">
        <ele>453</ele>
        <time>2015-04-26T12:53:17.000Z</time>
      </trkpt>
      <trkpt lat="47.22109" lon="6.11064">
        <ele>449</ele>
        <time>2015-04-26T12:53:19.000Z</time>
      </trkpt>
      <trkpt lat="47.22124" lon="6.11059">
        <ele>450</ele>
        <time>2015-04-26T12:53:21.000Z</time>
      </trkpt>
      <trkpt lat="47.2214" lon="6.11053">
        <ele>454</ele>
        <time>2015-04-26T12:53:23.000Z</time>
      </trkpt>
      <trkpt lat="47.22156" lon="6.11048">
        <ele>452</ele>
        <time>2015-04-26T12:53:25.000Z</time>
      </trkpt>
      <trkpt lat="47.22171" lon="6.11044">
        <ele>449</ele>
        <time>2015-04-26T12:53:27.000Z</time>
      </trkpt>
      <trkpt lat="47.22183" lon="6.11041">
        <ele>447</ele>
        <time>2015-04-26T12:53:29.000Z</time>
      </trkpt>
      <trkpt lat="47.22195" lon="6.11036">
        <ele>448</ele>
        <time>2015-04-26T12:53:31.000Z</time>
      </trkpt>
      <trkpt lat="47.22206" lon="6.11033">
        <ele>450</ele>
        <time>2015-04-26T12:53:33.000Z</time>
      </trkpt>
      <trkpt lat="47.22219" lon="6.11035">
        <ele>451</ele>
        <time>2015-04-26T12:53:35.000Z</time>
      </trkpt>
      <trkpt lat="47.22229" lon="6.11044">
        <ele>447</ele>
        <time>2015-04-26T12:53:37.000Z</time>
      </trkpt>
      <trkpt lat="47.22239" lon="6.11053">
        <ele>442</ele>
        <time>2015-04-26T12:53:39.000Z</time>
      </trkpt>
      <trkpt lat="47.22247" lon="6.11061">
        <ele>441</ele>
        <time>2015-04-26T12:53:41.000Z</time>
      </trkpt>
      <trkpt lat="47.22256" lon="6.11069">
        <ele>441</ele>
        <time>2015-04-26T12:53:43.000Z</time>
      </trkpt>
      <trkpt lat="47.22256" lon="6.11069">
        <ele>441</ele>
        <time>2015-04-26T12:53:45.000Z</time>
      </trkpt>
      <trkpt lat="47.22256" lon="6.11069">
        <ele>441</ele>
        <time>2015-04-26T12:53:47.000Z</time>
      </trkpt>
      <trkpt lat="47.22299" lon="6.11111">
        <ele>444</ele>
        <time>2015-04-26T12:53:53.000Z</time>
      </trkpt>
      <trkpt lat="47.22308" lon="6.11119">
        <ele>439</ele>
        <time>2015-04-26T12:53:55.000Z</time>
      </trkpt>
      <trkpt lat="47.22318" lon="6.11127">
        <ele>441</ele>
        <time>2015-04-26T12:53:57.000Z</time>
      </trkpt>
      <trkpt lat="47.22318" lon="6.11127">
        <ele>441</ele>
        <time>2015-04-26T12:53:59.000Z</time>
      </trkpt>
      <trkpt lat="47.22318" lon="6.11127">
        <ele>441</ele>
        <time>2015-04-26T12:54:01.000Z</time>
      </trkpt>
      <trkpt lat="47.22318" lon="6.11127">
        <ele>441</ele>
        <time>2015-04-26T12:54:03.000Z</time>
      </trkpt>
      <trkpt lat="47.22318" lon="6.11127">
        <ele>441</ele>
        <time>2015-04-26T12:54:05.000Z</time>
      </trkpt>
      <trkpt lat="47.22318" lon="6.11127">
        <ele>441</ele>
        <time>2015-04-26T12:54:07.000Z</time>
      </trkpt>
      <trkpt lat="47.22318" lon="6.11127">
        <ele>441</ele>
        <time>2015-04-26T12:54:09.000Z</time>
      </trkpt>
      <trkpt lat="47.22318" lon="6.11127">
        <ele>441</ele>
        <time>2015-04-26T12:54:11.000Z</time>
      </trkpt>
      <trkpt lat="47.22318" lon="6.11127">
        <ele>441</ele>
        <time>2015-04-26T12:54:13.000Z</time>
      </trkpt>
      <trkpt lat="47.22318" lon="6.11127">
        <ele>441</ele>
        <time>2015-04-26T12:54:15.000Z</time>
      </trkpt>
      <trkpt lat="47.22318" lon="6.11127">
        <ele>441</ele>
        <time>2015-04-26T12:54:17.000Z</time>
      </trkpt>
      <trkpt lat="47.22318" lon="6.11127">
        <ele>441</ele>
        <time>2015-04-26T12:54:19.000Z</time>
      </trkpt>
      <trkpt lat="47.22414" lon="6.11132">
        <ele>450</ele>
        <time>2015-04-26T12:54:23.000Z</time>
      </trkpt>
      <trkpt lat="47.22422" lon="6.11124">
        <ele>449</ele>
        <time>2015-04-26T12:54:25.000Z</time>
      </trkpt>
      <trkpt lat="47.22431" lon="6.11117">
        <ele>452</ele>
        <time>2015-04-26T12:54:27.000Z</time>
      </trkpt>
      <trkpt lat="47.22449" lon="6.11111">
        <ele>450</ele>
        <time>2015-04-26T12:54:31.000Z</time>
      </trkpt>
      <trkpt lat="47.22458" lon="6.11109">
        <ele>448</ele>
        <time>2015-04-26T12:54:33.000Z</time>
      </trkpt>
      <trkpt lat="47.22458" lon="6.11109">
        <ele>448</ele>
        <time>2015-04-26T12:54:35.000Z</time>
      </trkpt>
      <trkpt lat="47.22458" lon="6.11109">
        <ele>448</ele>
        <time>2015-04-26T12:54:37.000Z</time>
      </trkpt>
      <trkpt lat="47.22458" lon="6.11109">
        <ele>448</ele>
        <time>2015-04-26T12:54:39.000Z</time>
      </trkpt>
      <trkpt lat="47.22458" lon="6.11109">
        <ele>448</ele>
        <time>2015-04-26T12:54:41.000Z</time>
      </trkpt>
      <trkpt lat="47.22458" lon="6.11109">
        <ele>448</ele>
        <time>2015-04-26T12:54:43.000Z</time>
      </trkpt>
      <trkpt lat="47.22458" lon="6.11109">
        <ele>448</ele>
        <time>2015-04-26T12:54:45.000Z</time>
      </trkpt>
      <trkpt lat="47.22458" lon="6.11109">
        <ele>448</ele>
        <time>2015-04-26T12:54:47.000Z</time>
      </trkpt>
      <trkpt lat="47.22458" lon="6.11109">
        <ele>448</ele>
        <time>2015-04-26T12:54:49.000Z</time>
      </trkpt>
      <trkpt lat="47.22458" lon="6.11109">
        <ele>448</ele>
        <time>2015-04-26T12:54:51.000Z</time>
      </trkpt>
      <trkpt lat="47.22458" lon="6.11109">
        <ele>448</ele>
        <time>2015-04-26T12:54:53.000Z</time>
      </trkpt>
      <trkpt lat="47.22458" lon="6.11109">
        <ele>448</ele>
        <time>2015-04-26T12:54:55.000Z</time>
      </trkpt>
      <trkpt lat="47.22458" lon="6.11109">
        <ele>448</ele>
        <time>2015-04-26T12:54:57.000Z</time>
      </trkpt>
      <trkpt lat="47.22458" lon="6.11109">
        <ele>448</ele>
        <time>2015-04-26T12:54:59.000Z</time>
      </trkpt>
      <trkpt lat="47.22458" lon="6.11109">
        <ele>448</ele>
        <time>2015-04-26T12:55:01.000Z</time>
      </trkpt>
      <trkpt lat="47.22458" lon="6.11109">
        <ele>448</ele>
        <time>2015-04-26T12:55:03.000Z</time>
      </trkpt>
      <trkpt lat="47.22458" lon="6.11109">
        <ele>448</ele>
        <time>2015-04-26T12:55:05.000Z</time>
      </trkpt>
      <trkpt lat="47.22458" lon="6.11109">
        <ele>448</ele>
        <time>2015-04-26T12:55:07.000Z</time>
      </trkpt>
      <trkpt lat="47.22458" lon="6.11109">
        <ele>448</ele>
        <time>2015-04-26T12:55:09.000Z</time>
      </trkpt>
      <trkpt lat="47.22537" lon="6.11115">
        <ele>459</ele>
        <time>2015-04-26T12:55:11.000Z</time>
      </trkpt>
      <trkpt lat="47.22581" lon="6.11115">
        <ele>459</ele>
        <time>2015-04-26T12:55:13.000Z</time>
      </trkpt>
      <trkpt lat="47.22606" lon="6.11114">
        <ele>458</ele>
        <time>2015-04-26T12:55:15.000Z</time>
      </trkpt>
      <trkpt lat="47.22623" lon="6.11111">
        <ele>459</ele>
        <time>2015-04-26T12:55:17.000Z</time>
      </trkpt>
      <trkpt lat="47.22636" lon="6.11109">
        <ele>458</ele>
        <time>2015-04-26T12:55:19.000Z</time>
      </trkpt>
      <trkpt lat="47.22657" lon="6.11103">
        <ele>460</ele>
        <time>2015-04-26T12:55:21.000Z</time>
      </trkpt>
      <trkpt lat="47.22657" lon="6.11103">
        <ele>460</ele>
        <time>2015-04-26T12:55:23.000Z</time>
      </trkpt>
      <trkpt lat="47.22689" lon="6.11093">
        <ele>459</ele>
        <time>2015-04-26T12:55:29.000Z</time>
      </trkpt>
      <trkpt lat="47.22706" lon="6.11091">
        <ele>459</ele>
        <time>2015-04-26T12:55:33.000Z</time>
      </trkpt>
      <trkpt lat="47.22706" lon="6.11091">
        <ele>459</ele>
        <time>2015-04-26T12:55:35.000Z</time>
      </trkpt>
      <trkpt lat="47.22706" lon="6.11091">
        <ele>459</ele>
        <time>2015-04-26T12:55:37.000Z</time>
      </trkpt>
      <trkpt lat="47.22737" lon="6.11112">
        <ele>457</ele>
        <time>2015-04-26T12:55:41.000Z</time>
      </trkpt>
      <trkpt lat="47.22745" lon="6.11119">
        <ele>458</ele>
        <time>2015-04-26T12:55:43.000Z</time>
      </trkpt>
      <trkpt lat="47.22759" lon="6.11133">
        <ele>454</ele>
        <time>2015-04-26T12:55:47.000Z</time>
      </trkpt>
      <trkpt lat="47.22759" lon="6.11133">
        <ele>454</ele>
        <time>2015-04-26T12:55:49.000Z</time>
      </trkpt>
      <trkpt lat="47.22759" lon="6.11133">
        <ele>454</ele>
        <time>2015-04-26T12:55:51.000Z</time>
      </trkpt>
      <trkpt lat="47.22759" lon="6.11133">
        <ele>454</ele>
        <time>2015-04-26T12:55:53.000Z</time>
      </trkpt>
      <trkpt lat="47.22759" lon="6.11133">
        <ele>454</ele>
        <time>2015-04-26T12:55:55.000Z</time>
      </trkpt>
      <trkpt lat="47.22759" lon="6.11133">
        <ele>454</ele>
        <time>2015-04-26T12:55:57.000Z</time>
      </trkpt>
      <trkpt lat="47.228" lon="6.11162">
        <ele>450</ele>
        <time>2015-04-26T12:55:59.000Z</time>
      </trkpt>
      <trkpt lat="47.22818" lon="6.11167">
        <ele>453</ele>
        <time>2015-04-26T12:56:03.000Z</time>
      </trkpt>
      <trkpt lat="47.22818" lon="6.11167">
        <ele>453</ele>
        <time>2015-04-26T12:56:05.000Z</time>
      </trkpt>
      <trkpt lat="47.22818" lon="6.11167">
        <ele>453</ele>
        <time>2015-04-26T12:56:07.000Z</time>
      </trkpt>
      <trkpt lat="47.22841" lon="6.11161">
        <ele>450</ele>
        <time>2015-04-26T12:56:09.000Z</time>
      </trkpt>
      <trkpt lat="47.22849" lon="6.11158">
        <ele>451</ele>
        <time>2015-04-26T12:56:11.000Z</time>
      </trkpt>
      <trkpt lat="47.22849" lon="6.11158">
        <ele>451</ele>
        <time>2015-04-26T12:56:13.000Z</time>
      </trkpt>
      <trkpt lat="47.22849" lon="6.11158">
        <ele>451</ele>
        <time>2015-04-26T12:56:15.000Z</time>
      </trkpt>
      <trkpt lat="47.22849" lon="6.11158">
        <ele>451</ele>
        <time>2015-04-26T12:56:17.000Z</time>
      </trkpt>
      <trkpt lat="47.22849" lon="6.11158">
        <ele>451</ele>
        <time>2015-04-26T12:56:19.000Z</time>
      </trkpt>
      <trkpt lat="47.22849" lon="6.11158">
        <ele>451</ele>
        <time>2015-04-26T12:56:21.000Z</time>
      </trkpt>
      <trkpt lat="47.22849" lon="6.11158">
        <ele>451</ele>
        <time>2015-04-26T12:56:25.000Z</time>
      </trkpt>
      <trkpt lat="47.22849" lon="6.11158">
        <ele>451</ele>
        <time>2015-04-26T12:56:27.000Z</time>
      </trkpt>
      <trkpt lat="47.22849" lon="6.11158">
        <ele>451</ele>
        <time>2015-04-26T12:56:29.000Z</time>
      </trkpt>
      <trkpt lat="47.22849" lon="6.11158">
        <ele>451</ele>
        <time>2015-04-26T12:56:31.000Z</time>
      </trkpt>
      <trkpt lat="47.22849" lon="6.11158">
        <ele>451</ele>
        <time>2015-04-26T12:56:33.000Z</time>
      </trkpt>
      <trkpt lat="47.22849" lon="6.11158">
        <ele>451</ele>
        <time>2015-04-26T12:56:35.000Z</time>
      </trkpt>
      <trkpt lat="47.22849" lon="6.11158">
        <ele>451</ele>
        <time>2015-04-26T12:56:37.000Z</time>
      </trkpt>
      <trkpt lat="47.22849" lon="6.11158">
        <ele>451</ele>
        <time>2015-04-26T12:56:39.000Z</time>
      </trkpt>
      <trkpt lat="47.22849" lon="6.11158">
        <ele>451</ele>
        <time>2015-04-26T12:56:41.000Z</time>
      </trkpt>
      <trkpt lat="47.22849" lon="6.11158">
        <ele>451</ele>
        <time>2015-04-26T12:56:43.000Z</time>
      </trkpt>
      <trkpt lat="47.22849" lon="6.11158">
        <ele>451</ele>
        <time>2015-04-26T12:56:45.000Z</time>
      </trkpt>
      <trkpt lat="47.22861" lon="6.11181">
        <ele>446</ele>
        <time>2015-04-26T12:56:50.000Z</time>
      </trkpt>
      <trkpt lat="47.22865" lon="6.11196">
        <ele>443</ele>
        <time>2015-04-26T12:57:11.000Z</time>
      </trkpt>
      <trkpt lat="47.22865" lon="6.11196">
        <ele>443</ele>
        <time>2015-04-26T12:58:35.000Z</time>
      </trkpt>
      <trkpt lat="47.22865" lon="6.11196">
        <ele>443</ele>
        <time>2015-04-26T12:58:37.000Z</time>
      </trkpt>
      <trkpt lat="47.22865" lon="6.11196">
        <ele>443</ele>
        <time>2015-04-26T12:58:39.000Z</time>
      </trkpt>
      <trkpt lat="47.22865" lon="6.11196">
        <ele>443</ele>
        <time>2015-04-26T12:58:41.000Z</time>
      </trkpt>
      <trkpt lat="47.22865" lon="6.11196">
        <ele>443</ele>
        <time>2015-04-26T12:58:43.000Z</time>
      </trkpt>
      <trkpt lat="47.22858" lon="6.1121">
        <ele>446</ele>
        <time>2015-04-26T12:59:57.000Z</time>
      </trkpt>
      <trkpt lat="47.22858" lon="6.1121">
        <ele>446</ele>
        <time>2015-04-26T12:59:59.000Z</time>
      </trkpt>
      <trkpt lat="47.22842" lon="6.11206">
        <ele>445</ele>
        <time>2015-04-26T13:00:37.000Z</time>
      </trkpt>
      <trkpt lat="47.22834" lon="6.11206">
        <ele>445</ele>
        <time>2015-04-26T13:00:39.000Z</time>
      </trkpt>
      <trkpt lat="47.22829" lon="6.11206">
        <ele>442</ele>
        <time>2015-04-26T13:00:41.000Z</time>
      </trkpt>
      <trkpt lat="47.22825" lon="6.11209">
        <ele>443</ele>
        <time>2015-04-26T13:00:45.000Z</time>
      </trkpt>
      <trkpt lat="47.22821" lon="6.11214">
        <ele>444</ele>
        <time>2015-04-26T13:00:47.000Z</time>
      </trkpt>
      <trkpt lat="47.22818" lon="6.11219">
        <ele>442</ele>
        <time>2015-04-26T13:00:49.000Z</time>
      </trkpt>
      <trkpt lat="47.22814" lon="6.11225">
        <ele>445</ele>
        <time>2015-04-26T13:00:51.000Z</time>
      </trkpt>
      <trkpt lat="47.2281" lon="6.11232">
        <ele>446</ele>
        <time>2015-04-26T13:00:53.000Z</time>
      </trkpt>
      <trkpt lat="47.22802" lon="6.11246">
        <ele>448</ele>
        <time>2015-04-26T13:00:55.000Z</time>
      </trkpt>
      <trkpt lat="47.22794" lon="6.11255">
        <ele>447</ele>
        <time>2015-04-26T13:00:59.000Z</time>
      </trkpt>
      <trkpt lat="47.22789" lon="6.11266">
        <ele>449</ele>
        <time>2015-04-26T13:01:03.000Z</time>
      </trkpt>
      <trkpt lat="47.22787" lon="6.11279">
        <ele>446</ele>
        <time>2015-04-26T13:01:07.000Z</time>
      </trkpt>
      <trkpt lat="47.2278" lon="6.11292">
        <ele>447</ele>
        <time>2015-04-26T13:01:11.000Z</time>
      </trkpt>
      <trkpt lat="47.22771" lon="6.11303">
        <ele>448</ele>
        <time>2015-04-26T13:01:15.000Z</time>
      </trkpt>
      <trkpt lat="47.22764" lon="6.11312">
        <ele>448</ele>
        <time>2015-04-26T13:01:19.000Z</time>
      </trkpt>
      <trkpt lat="47.22764" lon="6.11312">
        <ele>448</ele>
        <time>2015-04-26T13:01:21.000Z</time>
      </trkpt>
      <trkpt lat="47.22764" lon="6.11312">
        <ele>448</ele>
        <time>2015-04-26T13:01:23.000Z</time>
      </trkpt>
      <trkpt lat="47.22764" lon="6.11312">
        <ele>448</ele>
        <time>2015-04-26T13:01:25.000Z</time>
      </trkpt>
      <trkpt lat="47.22764" lon="6.11312">
        <ele>448</ele>
        <time>2015-04-26T13:01:27.000Z</time>
      </trkpt>
      <trkpt lat="47.22747" lon="6.11355">
        <ele>445</ele>
        <time>2015-04-26T13:01:33.000Z</time>
      </trkpt>
      <trkpt lat="47.22739" lon="6.11366">
        <ele>444</ele>
        <time>2015-04-26T13:01:39.000Z</time>
      </trkpt>
      <trkpt lat="47.22739" lon="6.11366">
        <ele>444</ele>
        <time>2015-04-26T13:01:41.000Z</time>
      </trkpt>
      <trkpt lat="47.22739" lon="6.11366">
        <ele>444</ele>
        <time>2015-04-26T13:01:43.000Z</time>
      </trkpt>
      <trkpt lat="47.22739" lon="6.11366">
        <ele>444</ele>
        <time>2015-04-26T13:01:45.000Z</time>
      </trkpt>
      <trkpt lat="47.22739" lon="6.11366">
        <ele>444</ele>
        <time>2015-04-26T13:01:47.000Z</time>
      </trkpt>
      <trkpt lat="47.22715" lon="6.11346">
        <ele>448</ele>
        <time>2015-04-26T13:01:51.000Z</time>
      </trkpt>
      <trkpt lat="47.22701" lon="6.11334">
        <ele>449</ele>
        <time>2015-04-26T13:01:55.000Z</time>
      </trkpt>
      <trkpt lat="47.22688" lon="6.11335">
        <ele>444</ele>
        <time>2015-04-26T13:01:59.000Z</time>
      </trkpt>
      <trkpt lat="47.22688" lon="6.11335">
        <ele>444</ele>
        <time>2015-04-26T13:02:02.000Z</time>
      </trkpt>
      <trkpt lat="47.22688" lon="6.11335">
        <ele>444</ele>
        <time>2015-04-26T13:02:04.000Z</time>
      </trkpt>
      <trkpt lat="47.22688" lon="6.11335">
        <ele>444</ele>
        <time>2015-04-26T13:02:06.000Z</time>
      </trkpt>
    </trkseg>
  </trk>
</gpx>